<?xml version='1.0' encoding='UTF-8'?><gpx version="1.1" creator="JPX - https://github.com/jenetics/jpx" xmlns="http://www.topografix.com/GPX/1/1"><trk><trkseg><trkpt lat="39.7329008" lon="8.5554622"><ele>5.0</ele><time>2026-05-01T07:08:35.78Z</time></trkpt><trkpt lat="39.7328034" lon="8.5554572"><ele>5.0</ele><time>2026-05-01T07:08:37.782Z</time></trkpt><trkpt lat="39.7327331" lon="8.5554573"><ele>5.0</ele><time>2026-05-01T07:08:38.781Z</time></trkpt><trkpt lat="39.7326493" lon="8.5554593"><ele>5.0</ele><time>2026-05-01T07:08:39.78Z</time></trkpt><trkpt lat="39.7325485" lon="8.5554596"><ele>5.0</ele><time>2026-05-01T07:08:40.78Z</time></trkpt><trkpt lat="39.7324349" lon="8.5554645"><ele>5.0</ele><time>2026-05-01T07:08:41.78Z</time></trkpt><trkpt lat="39.7323044" lon="8.5554665"><ele>5.0</ele><time>2026-05-01T07:08:42.781Z</time></trkpt><trkpt lat="39.7321602" lon="8.5554705"><ele>5.0</ele><time>2026-05-01T07:08:43.781Z</time></trkpt><trkpt lat="39.7320048" lon="8.5554727"><ele>5.0</ele><time>2026-05-01T07:08:44.782Z</time></trkpt><trkpt lat="39.7318434" lon="8.5554685"><ele>5.666666666666667</ele><time>2026-05-01T07:08:45.781Z</time></trkpt><trkpt lat="39.7316774" lon="8.5554655"><ele>6.333333333333334</ele><time>2026-05-01T07:08:46.781Z</time></trkpt><trkpt lat="39.7315133" lon="8.5554636"><ele>7.0</ele><time>2026-05-01T07:08:47.78Z</time></trkpt><trkpt lat="39.7313479" lon="8.5554592"><ele>7.0</ele><time>2026-05-01T07:08:48.782Z</time></trkpt><trkpt lat="39.7311856" lon="8.5554568"><ele>7.0</ele><time>2026-05-01T07:08:49.782Z</time></trkpt><trkpt lat="39.7310219" lon="8.5554562"><ele>7.0</ele><time>2026-05-01T07:08:50.782Z</time></trkpt><trkpt lat="39.7308594" lon="8.5554616"><ele>7.666666666666667</ele><time>2026-05-01T07:08:51.782Z</time></trkpt><trkpt lat="39.7306996" lon="8.5554658"><ele>8.333333333333334</ele><time>2026-05-01T07:08:52.781Z</time></trkpt><trkpt lat="39.7305408" lon="8.5554692"><ele>9.0</ele><time>2026-05-01T07:08:53.781Z</time></trkpt><trkpt lat="39.7303844" lon="8.5554687"><ele>9.0</ele><time>2026-05-01T07:08:54.781Z</time></trkpt><trkpt lat="39.7302335" lon="8.5554673"><ele>9.0</ele><time>2026-05-01T07:08:55.781Z</time></trkpt><trkpt lat="39.7300862" lon="8.555471"><ele>9.0</ele><time>2026-05-01T07:08:56.781Z</time></trkpt><trkpt lat="39.7299417" lon="8.5554727"><ele>9.0</ele><time>2026-05-01T07:08:57.781Z</time></trkpt><trkpt lat="39.7298059" lon="8.5554727"><ele>9.0</ele><time>2026-05-01T07:08:58.782Z</time></trkpt><trkpt lat="39.7296907" lon="8.5554733"><ele>9.0</ele><time>2026-05-01T07:08:59.781Z</time></trkpt><trkpt lat="39.7295943" lon="8.5554752"><ele>9.0</ele><time>2026-05-01T07:09:00.782Z</time></trkpt><trkpt lat="39.7295095" lon="8.5554739"><ele>9.0</ele><time>2026-05-01T07:09:01.782Z</time></trkpt><trkpt lat="39.7294392" lon="8.5554712"><ele>9.0</ele><time>2026-05-01T07:09:02.781Z</time></trkpt><trkpt lat="39.7293344" lon="8.5554136"><ele>8.5</ele><time>2026-05-01T07:09:04.78Z</time></trkpt><trkpt lat="39.7292857" lon="8.5552502"><ele>8.0</ele><time>2026-05-01T07:09:06.781Z</time></trkpt><trkpt lat="39.7292762" lon="8.5551211"><ele>7.5</ele><time>2026-05-01T07:09:07.781Z</time></trkpt><trkpt lat="39.7292688" lon="8.5549676"><ele>7.0</ele><time>2026-05-01T07:09:08.781Z</time></trkpt><trkpt lat="39.7292605" lon="8.5548017"><ele>7.0</ele><time>2026-05-01T07:09:09.781Z</time></trkpt><trkpt lat="39.7292503" lon="8.5546144"><ele>7.0</ele><time>2026-05-01T07:09:10.781Z</time></trkpt><trkpt lat="39.7292449" lon="8.5544121"><ele>7.0</ele><time>2026-05-01T07:09:11.781Z</time></trkpt><trkpt lat="39.7292426" lon="8.554202"><ele>6.666666666666667</ele><time>2026-05-01T07:09:12.781Z</time></trkpt><trkpt lat="39.7292386" lon="8.5539781"><ele>6.333333333333334</ele><time>2026-05-01T07:09:13.781Z</time></trkpt><trkpt lat="39.7292398" lon="8.5537492"><ele>6.0</ele><time>2026-05-01T07:09:14.781Z</time></trkpt><trkpt lat="39.7292371" lon="8.5535146"><ele>5.666666666666667</ele><time>2026-05-01T07:09:15.78Z</time></trkpt><trkpt lat="39.7292322" lon="8.5532802"><ele>5.333333333333334</ele><time>2026-05-01T07:09:16.781Z</time></trkpt><trkpt lat="39.7292311" lon="8.553042"><ele>5.0</ele><time>2026-05-01T07:09:17.78Z</time></trkpt><trkpt lat="39.7292282" lon="8.5528"><ele>4.666666666666667</ele><time>2026-05-01T07:09:18.781Z</time></trkpt><trkpt lat="39.7292243" lon="8.5525505"><ele>4.333333333333333</ele><time>2026-05-01T07:09:19.781Z</time></trkpt><trkpt lat="39.7292227" lon="8.5523017"><ele>4.0</ele><time>2026-05-01T07:09:20.78Z</time></trkpt><trkpt lat="39.729223" lon="8.5520488"><ele>4.333333333333333</ele><time>2026-05-01T07:09:21.781Z</time></trkpt><trkpt lat="39.7292243" lon="8.5517967"><ele>4.666666666666667</ele><time>2026-05-01T07:09:22.78Z</time></trkpt><trkpt lat="39.7292284" lon="8.5515511"><ele>5.0</ele><time>2026-05-01T07:09:23.781Z</time></trkpt><trkpt lat="39.7292304" lon="8.5513065"><ele>5.0</ele><time>2026-05-01T07:09:24.78Z</time></trkpt><trkpt lat="39.7292289" lon="8.5510665"><ele>5.0</ele><time>2026-05-01T07:09:25.781Z</time></trkpt><trkpt lat="39.7292309" lon="8.5508271"><ele>5.0</ele><time>2026-05-01T07:09:26.78Z</time></trkpt><trkpt lat="39.7292298" lon="8.5505915"><ele>4.666666666666667</ele><time>2026-05-01T07:09:27.781Z</time></trkpt><trkpt lat="39.729228" lon="8.5503563"><ele>4.333333333333333</ele><time>2026-05-01T07:09:28.78Z</time></trkpt><trkpt lat="39.729227" lon="8.5501242"><ele>4.0</ele><time>2026-05-01T07:09:29.78Z</time></trkpt><trkpt lat="39.7292201" lon="8.5498914"><ele>4.0</ele><time>2026-05-01T07:09:30.78Z</time></trkpt><trkpt lat="39.7292142" lon="8.549652"><ele>4.0</ele><time>2026-05-01T07:09:31.78Z</time></trkpt><trkpt lat="39.7292041" lon="8.5494104"><ele>4.0</ele><time>2026-05-01T07:09:32.78Z</time></trkpt><trkpt lat="39.7291998" lon="8.5491677"><ele>3.6666666666666665</ele><time>2026-05-01T07:09:33.781Z</time></trkpt><trkpt lat="39.7291976" lon="8.5489243"><ele>3.333333333333333</ele><time>2026-05-01T07:09:34.781Z</time></trkpt><trkpt lat="39.7291956" lon="8.5486841"><ele>3.0</ele><time>2026-05-01T07:09:35.781Z</time></trkpt><trkpt lat="39.7291947" lon="8.5484371"><ele>3.0</ele><time>2026-05-01T07:09:36.781Z</time></trkpt><trkpt lat="39.7291966" lon="8.5481967"><ele>3.0</ele><time>2026-05-01T07:09:37.781Z</time></trkpt><trkpt lat="39.7291963" lon="8.5479582"><ele>3.0</ele><time>2026-05-01T07:09:38.781Z</time></trkpt><trkpt lat="39.729194" lon="8.5477248"><ele>3.666666666666667</ele><time>2026-05-01T07:09:39.782Z</time></trkpt><trkpt lat="39.7291962" lon="8.5474901"><ele>4.333333333333334</ele><time>2026-05-01T07:09:40.782Z</time></trkpt><trkpt lat="39.7291992" lon="8.5472551"><ele>5.0</ele><time>2026-05-01T07:09:41.78Z</time></trkpt><trkpt lat="39.729195" lon="8.547024"><ele>5.333333333333334</ele><time>2026-05-01T07:09:42.781Z</time></trkpt><trkpt lat="39.7291951" lon="8.5467877"><ele>5.666666666666667</ele><time>2026-05-01T07:09:43.781Z</time></trkpt><trkpt lat="39.7291933" lon="8.5465534"><ele>6.0</ele><time>2026-05-01T07:09:44.782Z</time></trkpt><trkpt lat="39.7291905" lon="8.5463199"><ele>6.666666666666666</ele><time>2026-05-01T07:09:45.78Z</time></trkpt><trkpt lat="39.7291902" lon="8.5460821"><ele>7.333333333333333</ele><time>2026-05-01T07:09:46.781Z</time></trkpt><trkpt lat="39.7291916" lon="8.5458435"><ele>8.0</ele><time>2026-05-01T07:09:47.781Z</time></trkpt><trkpt lat="39.7291963" lon="8.5456064"><ele>8.0</ele><time>2026-05-01T07:09:48.78Z</time></trkpt><trkpt lat="39.7291929" lon="8.5453678"><ele>8.0</ele><time>2026-05-01T07:09:49.781Z</time></trkpt><trkpt lat="39.7291884" lon="8.545115"><ele>8.0</ele><time>2026-05-01T07:09:50.782Z</time></trkpt><trkpt lat="39.7291889" lon="8.5448484"><ele>8.0</ele><time>2026-05-01T07:09:51.781Z</time></trkpt><trkpt lat="39.7291924" lon="8.5445753"><ele>8.0</ele><time>2026-05-01T07:09:52.781Z</time></trkpt><trkpt lat="39.7291917" lon="8.5442966"><ele>8.0</ele><time>2026-05-01T07:09:53.781Z</time></trkpt><trkpt lat="39.7291928" lon="8.5440216"><ele>7.666666666666666</ele><time>2026-05-01T07:09:54.781Z</time></trkpt><trkpt lat="39.7291932" lon="8.5437469"><ele>7.333333333333334</ele><time>2026-05-01T07:09:55.781Z</time></trkpt><trkpt lat="39.7291892" lon="8.5434744"><ele>7.0</ele><time>2026-05-01T07:09:56.781Z</time></trkpt><trkpt lat="39.7291884" lon="8.543203"><ele>7.0</ele><time>2026-05-01T07:09:57.78Z</time></trkpt><trkpt lat="39.7291879" lon="8.5429363"><ele>7.0</ele><time>2026-05-01T07:09:58.782Z</time></trkpt><trkpt lat="39.7291867" lon="8.5426723"><ele>7.0</ele><time>2026-05-01T07:09:59.78Z</time></trkpt><trkpt lat="39.7291846" lon="8.5424099"><ele>7.0</ele><time>2026-05-01T07:10:00.782Z</time></trkpt><trkpt lat="39.7291819" lon="8.5421511"><ele>7.0</ele><time>2026-05-01T07:10:01.782Z</time></trkpt><trkpt lat="39.7291801" lon="8.5418949"><ele>7.0</ele><time>2026-05-01T07:10:02.78Z</time></trkpt><trkpt lat="39.7291816" lon="8.5416314"><ele>6.666666666666667</ele><time>2026-05-01T07:10:03.78Z</time></trkpt><trkpt lat="39.7291803" lon="8.5413696"><ele>6.333333333333334</ele><time>2026-05-01T07:10:04.782Z</time></trkpt><trkpt lat="39.7291763" lon="8.5411085"><ele>6.0</ele><time>2026-05-01T07:10:05.78Z</time></trkpt><trkpt lat="39.7291739" lon="8.5408487"><ele>6.0</ele><time>2026-05-01T07:10:06.781Z</time></trkpt><trkpt lat="39.729172" lon="8.5405943"><ele>6.0</ele><time>2026-05-01T07:10:07.782Z</time></trkpt><trkpt lat="39.7291707" lon="8.5403394"><ele>6.0</ele><time>2026-05-01T07:10:08.781Z</time></trkpt><trkpt lat="39.7291706" lon="8.5400837"><ele>6.333333333333334</ele><time>2026-05-01T07:10:09.782Z</time></trkpt><trkpt lat="39.7291723" lon="8.5398287"><ele>6.666666666666667</ele><time>2026-05-01T07:10:10.781Z</time></trkpt><trkpt lat="39.7291735" lon="8.5395732"><ele>7.0</ele><time>2026-05-01T07:10:11.78Z</time></trkpt><trkpt lat="39.7291771" lon="8.5393194"><ele>7.0</ele><time>2026-05-01T07:10:12.78Z</time></trkpt><trkpt lat="39.7291792" lon="8.5390661"><ele>7.0</ele><time>2026-05-01T07:10:13.78Z</time></trkpt><trkpt lat="39.7291817" lon="8.5388106"><ele>7.0</ele><time>2026-05-01T07:10:14.78Z</time></trkpt><trkpt lat="39.729184" lon="8.5385586"><ele>6.666666666666667</ele><time>2026-05-01T07:10:15.78Z</time></trkpt><trkpt lat="39.7291838" lon="8.5383094"><ele>6.333333333333334</ele><time>2026-05-01T07:10:16.781Z</time></trkpt><trkpt lat="39.729179" lon="8.5380623"><ele>6.0</ele><time>2026-05-01T07:10:17.78Z</time></trkpt><trkpt lat="39.729176" lon="8.5378126"><ele>6.0</ele><time>2026-05-01T07:10:18.781Z</time></trkpt><trkpt lat="39.7291731" lon="8.5375592"><ele>6.0</ele><time>2026-05-01T07:10:19.78Z</time></trkpt><trkpt lat="39.729171" lon="8.5373046"><ele>6.0</ele><time>2026-05-01T07:10:20.782Z</time></trkpt><trkpt lat="39.7291679" lon="8.537047"><ele>5.666666666666667</ele><time>2026-05-01T07:10:21.78Z</time></trkpt><trkpt lat="39.7291596" lon="8.5367882"><ele>5.333333333333334</ele><time>2026-05-01T07:10:22.781Z</time></trkpt><trkpt lat="39.7291523" lon="8.5365303"><ele>5.0</ele><time>2026-05-01T07:10:23.78Z</time></trkpt><trkpt lat="39.7291479" lon="8.5362713"><ele>4.666666666666667</ele><time>2026-05-01T07:10:24.781Z</time></trkpt><trkpt lat="39.7291471" lon="8.5360133"><ele>4.333333333333333</ele><time>2026-05-01T07:10:25.78Z</time></trkpt><trkpt lat="39.7291469" lon="8.535759"><ele>4.0</ele><time>2026-05-01T07:10:26.78Z</time></trkpt><trkpt lat="39.7291466" lon="8.5355027"><ele>4.666666666666666</ele><time>2026-05-01T07:10:27.782Z</time></trkpt><trkpt lat="39.7291455" lon="8.5352512"><ele>5.333333333333333</ele><time>2026-05-01T07:10:28.782Z</time></trkpt><trkpt lat="39.7291443" lon="8.5350182"><ele>6.0</ele><time>2026-05-01T07:10:29.78Z</time></trkpt><trkpt lat="39.7291429" lon="8.5347882"><ele>6.0</ele><time>2026-05-01T07:10:30.78Z</time></trkpt><trkpt lat="39.7291413" lon="8.5345627"><ele>6.0</ele><time>2026-05-01T07:10:31.78Z</time></trkpt><trkpt lat="39.7291391" lon="8.5343489"><ele>6.0</ele><time>2026-05-01T07:10:32.782Z</time></trkpt><trkpt lat="39.7291389" lon="8.5341455"><ele>6.0</ele><time>2026-05-01T07:10:33.781Z</time></trkpt><trkpt lat="39.729139" lon="8.5339545"><ele>6.0</ele><time>2026-05-01T07:10:34.781Z</time></trkpt><trkpt lat="39.7291404" lon="8.5337777"><ele>6.0</ele><time>2026-05-01T07:10:35.781Z</time></trkpt><trkpt lat="39.729138" lon="8.5336171"><ele>6.0</ele><time>2026-05-01T07:10:36.782Z</time></trkpt><trkpt lat="39.7291287" lon="8.5334815"><ele>6.0</ele><time>2026-05-01T07:10:37.782Z</time></trkpt><trkpt lat="39.7291135" lon="8.533373"><ele>6.0</ele><time>2026-05-01T07:10:38.781Z</time></trkpt><trkpt lat="39.7290915" lon="8.5332951"><ele>6.0</ele><time>2026-05-01T07:10:39.782Z</time></trkpt><trkpt lat="39.7289932" lon="8.5332265"><ele>6.0</ele><time>2026-05-01T07:10:41.781Z</time></trkpt><trkpt lat="39.7289112" lon="8.5332238"><ele>6.0</ele><time>2026-05-01T07:10:42.781Z</time></trkpt><trkpt lat="39.7288194" lon="8.5332228"><ele>6.0</ele><time>2026-05-01T07:10:43.782Z</time></trkpt><trkpt lat="39.7287197" lon="8.5332166"><ele>6.0</ele><time>2026-05-01T07:10:44.78Z</time></trkpt><trkpt lat="39.7286084" lon="8.5332165"><ele>6.0</ele><time>2026-05-01T07:10:45.782Z</time></trkpt><trkpt lat="39.7284962" lon="8.5332194"><ele>6.0</ele><time>2026-05-01T07:10:46.781Z</time></trkpt><trkpt lat="39.7283761" lon="8.5332249"><ele>6.0</ele><time>2026-05-01T07:10:47.781Z</time></trkpt><trkpt lat="39.7282514" lon="8.5332284"><ele>6.25</ele><time>2026-05-01T07:10:48.781Z</time></trkpt><trkpt lat="39.7281285" lon="8.5332264"><ele>6.5</ele><time>2026-05-01T07:10:49.782Z</time></trkpt><trkpt lat="39.7280011" lon="8.5332258"><ele>6.75</ele><time>2026-05-01T07:10:50.781Z</time></trkpt><trkpt lat="39.7278686" lon="8.5332265"><ele>7.0</ele><time>2026-05-01T07:10:51.782Z</time></trkpt><trkpt lat="39.7277347" lon="8.5332258"><ele>6.25</ele><time>2026-05-01T07:10:52.781Z</time></trkpt><trkpt lat="39.7275941" lon="8.5332243"><ele>5.5</ele><time>2026-05-01T07:10:53.781Z</time></trkpt><trkpt lat="39.7274481" lon="8.5332254"><ele>4.75</ele><time>2026-05-01T07:10:54.781Z</time></trkpt><trkpt lat="39.7273005" lon="8.5332256"><ele>4.0</ele><time>2026-05-01T07:10:55.782Z</time></trkpt><trkpt lat="39.7271494" lon="8.53323"><ele>4.0</ele><time>2026-05-01T07:10:56.781Z</time></trkpt><trkpt lat="39.7269955" lon="8.5332345"><ele>4.0</ele><time>2026-05-01T07:10:57.782Z</time></trkpt><trkpt lat="39.726844" lon="8.5332368"><ele>4.0</ele><time>2026-05-01T07:10:58.78Z</time></trkpt><trkpt lat="39.7266905" lon="8.5332382"><ele>4.333333333333333</ele><time>2026-05-01T07:10:59.782Z</time></trkpt><trkpt lat="39.7265369" lon="8.5332389"><ele>4.666666666666667</ele><time>2026-05-01T07:11:00.78Z</time></trkpt><trkpt lat="39.726377" lon="8.5332376"><ele>5.0</ele><time>2026-05-01T07:11:01.782Z</time></trkpt><trkpt lat="39.7262156" lon="8.5332364"><ele>5.666666666666667</ele><time>2026-05-01T07:11:02.781Z</time></trkpt><trkpt lat="39.7260535" lon="8.5332366"><ele>6.333333333333334</ele><time>2026-05-01T07:11:03.781Z</time></trkpt><trkpt lat="39.7258896" lon="8.5332382"><ele>7.0</ele><time>2026-05-01T07:11:04.782Z</time></trkpt><trkpt lat="39.7257244" lon="8.5332401"><ele>7.0</ele><time>2026-05-01T07:11:05.78Z</time></trkpt><trkpt lat="39.7255578" lon="8.5332421"><ele>7.0</ele><time>2026-05-01T07:11:06.781Z</time></trkpt><trkpt lat="39.7253909" lon="8.5332472"><ele>7.0</ele><time>2026-05-01T07:11:07.782Z</time></trkpt><trkpt lat="39.7252239" lon="8.5332475"><ele>6.666666666666667</ele><time>2026-05-01T07:11:08.782Z</time></trkpt><trkpt lat="39.7250554" lon="8.5332504"><ele>6.333333333333334</ele><time>2026-05-01T07:11:09.78Z</time></trkpt><trkpt lat="39.7248878" lon="8.5332531"><ele>6.0</ele><time>2026-05-01T07:11:10.781Z</time></trkpt><trkpt lat="39.7247192" lon="8.5332515"><ele>6.0</ele><time>2026-05-01T07:11:11.78Z</time></trkpt><trkpt lat="39.7245447" lon="8.5332495"><ele>6.0</ele><time>2026-05-01T07:11:12.781Z</time></trkpt><trkpt lat="39.7243683" lon="8.53325"><ele>6.0</ele><time>2026-05-01T07:11:13.78Z</time></trkpt><trkpt lat="39.7241898" lon="8.5332529"><ele>6.0</ele><time>2026-05-01T07:11:14.782Z</time></trkpt><trkpt lat="39.7240107" lon="8.5332528"><ele>6.0</ele><time>2026-05-01T07:11:15.781Z</time></trkpt><trkpt lat="39.7238309" lon="8.5332548"><ele>6.0</ele><time>2026-05-01T07:11:16.78Z</time></trkpt><trkpt lat="39.7236518" lon="8.5332564"><ele>5.666666666666667</ele><time>2026-05-01T07:11:17.78Z</time></trkpt><trkpt lat="39.7234746" lon="8.5332583"><ele>5.333333333333334</ele><time>2026-05-01T07:11:18.781Z</time></trkpt><trkpt lat="39.7232972" lon="8.5332596"><ele>5.0</ele><time>2026-05-01T07:11:19.781Z</time></trkpt><trkpt lat="39.7231222" lon="8.5332626"><ele>5.0</ele><time>2026-05-01T07:11:20.781Z</time></trkpt><trkpt lat="39.7229518" lon="8.5332641"><ele>5.0</ele><time>2026-05-01T07:11:21.78Z</time></trkpt><trkpt lat="39.7227882" lon="8.5332653"><ele>5.0</ele><time>2026-05-01T07:11:22.78Z</time></trkpt><trkpt lat="39.7226303" lon="8.5332671"><ele>4.75</ele><time>2026-05-01T07:11:23.78Z</time></trkpt><trkpt lat="39.7224846" lon="8.5332695"><ele>4.5</ele><time>2026-05-01T07:11:24.781Z</time></trkpt><trkpt lat="39.7223519" lon="8.5332712"><ele>4.25</ele><time>2026-05-01T07:11:25.781Z</time></trkpt><trkpt lat="39.7222307" lon="8.5332731"><ele>4.0</ele><time>2026-05-01T07:11:26.781Z</time></trkpt><trkpt lat="39.7221195" lon="8.5332713"><ele>4.0</ele><time>2026-05-01T07:11:27.78Z</time></trkpt><trkpt lat="39.7220205" lon="8.5332662"><ele>4.0</ele><time>2026-05-01T07:11:28.781Z</time></trkpt><trkpt lat="39.7219311" lon="8.5332475"><ele>4.0</ele><time>2026-05-01T07:11:29.781Z</time></trkpt><trkpt lat="39.7218521" lon="8.5332149"><ele>4.0</ele><time>2026-05-01T07:11:30.781Z</time></trkpt><trkpt lat="39.7217943" lon="8.5331653"><ele>4.0</ele><time>2026-05-01T07:11:31.782Z</time></trkpt><trkpt lat="39.7217474" lon="8.5330151"><ele>4.25</ele><time>2026-05-01T07:11:33.78Z</time></trkpt><trkpt lat="39.7217385" lon="8.5328971"><ele>4.5</ele><time>2026-05-01T07:11:34.782Z</time></trkpt><trkpt lat="39.7217292" lon="8.5327494"><ele>4.75</ele><time>2026-05-01T07:11:35.781Z</time></trkpt><trkpt lat="39.7217325" lon="8.5325936"><ele>5.0</ele><time>2026-05-01T07:11:36.78Z</time></trkpt><trkpt lat="39.721734" lon="8.5324257"><ele>5.25</ele><time>2026-05-01T07:11:37.78Z</time></trkpt><trkpt lat="39.7217333" lon="8.5322467"><ele>5.5</ele><time>2026-05-01T07:11:38.78Z</time></trkpt><trkpt lat="39.7217308" lon="8.5320569"><ele>5.75</ele><time>2026-05-01T07:11:39.78Z</time></trkpt><trkpt lat="39.7217283" lon="8.5318694"><ele>6.0</ele><time>2026-05-01T07:11:40.78Z</time></trkpt><trkpt lat="39.7217277" lon="8.5316686"><ele>6.0</ele><time>2026-05-01T07:11:41.781Z</time></trkpt><trkpt lat="39.7217273" lon="8.5314658"><ele>6.0</ele><time>2026-05-01T07:11:42.781Z</time></trkpt><trkpt lat="39.7217281" lon="8.53126"><ele>6.0</ele><time>2026-05-01T07:11:43.782Z</time></trkpt><trkpt lat="39.7217259" lon="8.5310512"><ele>6.0</ele><time>2026-05-01T07:11:44.781Z</time></trkpt><trkpt lat="39.7217259" lon="8.5308421"><ele>6.0</ele><time>2026-05-01T07:11:45.781Z</time></trkpt><trkpt lat="39.7217225" lon="8.5306338"><ele>6.0</ele><time>2026-05-01T07:11:46.782Z</time></trkpt><trkpt lat="39.721723" lon="8.5304278"><ele>6.0</ele><time>2026-05-01T07:11:47.782Z</time></trkpt><trkpt lat="39.7217175" lon="8.5302243"><ele>6.0</ele><time>2026-05-01T07:11:48.78Z</time></trkpt><trkpt lat="39.7217189" lon="8.5300126"><ele>6.0</ele><time>2026-05-01T07:11:49.781Z</time></trkpt><trkpt lat="39.7217179" lon="8.5298025"><ele>6.0</ele><time>2026-05-01T07:11:50.78Z</time></trkpt><trkpt lat="39.7217212" lon="8.5295874"><ele>6.0</ele><time>2026-05-01T07:11:51.78Z</time></trkpt><trkpt lat="39.721722" lon="8.5293729"><ele>6.0</ele><time>2026-05-01T07:11:52.78Z</time></trkpt><trkpt lat="39.7217213" lon="8.5291542"><ele>6.0</ele><time>2026-05-01T07:11:53.78Z</time></trkpt><trkpt lat="39.7217224" lon="8.5289399"><ele>6.0</ele><time>2026-05-01T07:11:54.781Z</time></trkpt><trkpt lat="39.721722" lon="8.5287253"><ele>6.0</ele><time>2026-05-01T07:11:55.78Z</time></trkpt><trkpt lat="39.7217224" lon="8.528506"><ele>5.333333333333333</ele><time>2026-05-01T07:11:56.782Z</time></trkpt><trkpt lat="39.7217213" lon="8.5282868"><ele>4.666666666666666</ele><time>2026-05-01T07:11:57.781Z</time></trkpt><trkpt lat="39.7217188" lon="8.5280666"><ele>4.0</ele><time>2026-05-01T07:11:58.781Z</time></trkpt><trkpt lat="39.7217147" lon="8.5278421"><ele>3.6666666666666665</ele><time>2026-05-01T07:11:59.781Z</time></trkpt><trkpt lat="39.7217148" lon="8.5276159"><ele>3.333333333333333</ele><time>2026-05-01T07:12:00.781Z</time></trkpt><trkpt lat="39.7217128" lon="8.5273898"><ele>3.0</ele><time>2026-05-01T07:12:01.78Z</time></trkpt><trkpt lat="39.7217119" lon="8.5271592"><ele>3.0</ele><time>2026-05-01T07:12:02.781Z</time></trkpt><trkpt lat="39.7217084" lon="8.5269281"><ele>3.0</ele><time>2026-05-01T07:12:03.781Z</time></trkpt><trkpt lat="39.721708" lon="8.5266956"><ele>3.0</ele><time>2026-05-01T07:12:04.782Z</time></trkpt><trkpt lat="39.721705" lon="8.5264659"><ele>3.0</ele><time>2026-05-01T07:12:05.782Z</time></trkpt><trkpt lat="39.7217029" lon="8.5262275"><ele>3.0</ele><time>2026-05-01T07:12:06.781Z</time></trkpt><trkpt lat="39.7217037" lon="8.5259885"><ele>3.0</ele><time>2026-05-01T07:12:07.782Z</time></trkpt><trkpt lat="39.7216995" lon="8.5257496"><ele>3.0</ele><time>2026-05-01T07:12:08.781Z</time></trkpt><trkpt lat="39.7217028" lon="8.5255082"><ele>3.0</ele><time>2026-05-01T07:12:09.781Z</time></trkpt><trkpt lat="39.7217025" lon="8.5252697"><ele>3.0</ele><time>2026-05-01T07:12:10.782Z</time></trkpt><trkpt lat="39.7217021" lon="8.5250312"><ele>3.0</ele><time>2026-05-01T07:12:11.781Z</time></trkpt><trkpt lat="39.7217025" lon="8.5247925"><ele>3.0</ele><time>2026-05-01T07:12:12.781Z</time></trkpt><trkpt lat="39.7216992" lon="8.5245565"><ele>3.0</ele><time>2026-05-01T07:12:13.782Z</time></trkpt><trkpt lat="39.7216968" lon="8.5243196"><ele>3.0</ele><time>2026-05-01T07:12:14.781Z</time></trkpt><trkpt lat="39.7216945" lon="8.5240811"><ele>3.0</ele><time>2026-05-01T07:12:15.781Z</time></trkpt><trkpt lat="39.7216955" lon="8.5238421"><ele>3.0</ele><time>2026-05-01T07:12:16.78Z</time></trkpt><trkpt lat="39.7216975" lon="8.5236006"><ele>3.0</ele><time>2026-05-01T07:12:17.781Z</time></trkpt><trkpt lat="39.7216991" lon="8.5233638"><ele>3.0</ele><time>2026-05-01T07:12:18.78Z</time></trkpt><trkpt lat="39.7216969" lon="8.5231269"><ele>3.0</ele><time>2026-05-01T07:12:19.782Z</time></trkpt><trkpt lat="39.7216941" lon="8.522893"><ele>3.0</ele><time>2026-05-01T07:12:20.781Z</time></trkpt><trkpt lat="39.7216934" lon="8.5226566"><ele>3.0</ele><time>2026-05-01T07:12:21.781Z</time></trkpt><trkpt lat="39.7216932" lon="8.5224215"><ele>3.0</ele><time>2026-05-01T07:12:22.782Z</time></trkpt><trkpt lat="39.7216912" lon="8.5221897"><ele>3.0</ele><time>2026-05-01T07:12:23.782Z</time></trkpt><trkpt lat="39.7216906" lon="8.521954"><ele>3.0</ele><time>2026-05-01T07:12:24.782Z</time></trkpt><trkpt lat="39.7216895" lon="8.521717"><ele>3.0</ele><time>2026-05-01T07:12:25.782Z</time></trkpt><trkpt lat="39.7216939" lon="8.5214807"><ele>3.0</ele><time>2026-05-01T07:12:26.78Z</time></trkpt><trkpt lat="39.7216937" lon="8.521243"><ele>3.0</ele><time>2026-05-01T07:12:27.78Z</time></trkpt><trkpt lat="39.7216908" lon="8.5210064"><ele>3.0</ele><time>2026-05-01T07:12:28.78Z</time></trkpt><trkpt lat="39.7216872" lon="8.5207691"><ele>3.0</ele><time>2026-05-01T07:12:29.781Z</time></trkpt><trkpt lat="39.7216882" lon="8.520531"><ele>3.0</ele><time>2026-05-01T07:12:30.78Z</time></trkpt><trkpt lat="39.721687" lon="8.520296"><ele>3.0</ele><time>2026-05-01T07:12:31.782Z</time></trkpt><trkpt lat="39.7216854" lon="8.5200637"><ele>3.0</ele><time>2026-05-01T07:12:32.78Z</time></trkpt><trkpt lat="39.721684" lon="8.5198309"><ele>3.0</ele><time>2026-05-01T07:12:33.779Z</time></trkpt><trkpt lat="39.7216814" lon="8.5195974"><ele>3.0</ele><time>2026-05-01T07:12:34.78Z</time></trkpt><trkpt lat="39.7216787" lon="8.5193649"><ele>2.6666666666666665</ele><time>2026-05-01T07:12:35.78Z</time></trkpt><trkpt lat="39.7216805" lon="8.5191269"><ele>2.333333333333333</ele><time>2026-05-01T07:12:36.78Z</time></trkpt><trkpt lat="39.7216836" lon="8.5188909"><ele>2.0</ele><time>2026-05-01T07:12:37.781Z</time></trkpt><trkpt lat="39.7216806" lon="8.5186549"><ele>1.3333333333333333</ele><time>2026-05-01T07:12:38.78Z</time></trkpt><trkpt lat="39.7216768" lon="8.5184198"><ele>0.6666666666666666</ele><time>2026-05-01T07:12:39.78Z</time></trkpt><trkpt lat="39.7216738" lon="8.5181836"><ele>0.0</ele><time>2026-05-01T07:12:40.781Z</time></trkpt><trkpt lat="39.7216737" lon="8.517946"><ele>0.6666666666666666</ele><time>2026-05-01T07:12:41.78Z</time></trkpt><trkpt lat="39.7216731" lon="8.5177093"><ele>1.3333333333333333</ele><time>2026-05-01T07:12:42.781Z</time></trkpt><trkpt lat="39.7216733" lon="8.5174702"><ele>2.0</ele><time>2026-05-01T07:12:43.781Z</time></trkpt><trkpt lat="39.7216706" lon="8.5172355"><ele>1.6666666666666665</ele><time>2026-05-01T07:12:44.78Z</time></trkpt><trkpt lat="39.7216708" lon="8.5169975"><ele>1.3333333333333333</ele><time>2026-05-01T07:12:45.78Z</time></trkpt><trkpt lat="39.7216697" lon="8.5167603"><ele>1.0</ele><time>2026-05-01T07:12:46.781Z</time></trkpt><trkpt lat="39.721672" lon="8.5165225"><ele>1.0</ele><time>2026-05-01T07:12:47.78Z</time></trkpt><trkpt lat="39.7216717" lon="8.516285"><ele>1.0</ele><time>2026-05-01T07:12:48.78Z</time></trkpt><trkpt lat="39.7216734" lon="8.5160502"><ele>1.0</ele><time>2026-05-01T07:12:49.779Z</time></trkpt><trkpt lat="39.7216754" lon="8.5158165"><ele>1.6666666666666665</ele><time>2026-05-01T07:12:50.779Z</time></trkpt><trkpt lat="39.7216734" lon="8.5155834"><ele>2.3333333333333335</ele><time>2026-05-01T07:12:51.779Z</time></trkpt><trkpt lat="39.7216714" lon="8.5153565"><ele>3.0</ele><time>2026-05-01T07:12:52.78Z</time></trkpt><trkpt lat="39.7216686" lon="8.5151317"><ele>4.0</ele><time>2026-05-01T07:12:53.78Z</time></trkpt><trkpt lat="39.7216655" lon="8.5149082"><ele>5.0</ele><time>2026-05-01T07:12:54.779Z</time></trkpt><trkpt lat="39.7216676" lon="8.5146879"><ele>6.0</ele><time>2026-05-01T07:12:55.779Z</time></trkpt><trkpt lat="39.7216693" lon="8.5144698"><ele>7.0</ele><time>2026-05-01T07:12:56.779Z</time></trkpt><trkpt lat="39.721674" lon="8.5142516"><ele>8.0</ele><time>2026-05-01T07:12:57.78Z</time></trkpt><trkpt lat="39.721675" lon="8.5140382"><ele>9.0</ele><time>2026-05-01T07:12:58.779Z</time></trkpt><trkpt lat="39.7216703" lon="8.5138235"><ele>9.0</ele><time>2026-05-01T07:12:59.781Z</time></trkpt><trkpt lat="39.7216554" lon="8.5136122"><ele>9.0</ele><time>2026-05-01T07:13:00.78Z</time></trkpt><trkpt lat="39.7216332" lon="8.5134003"><ele>9.0</ele><time>2026-05-01T07:13:01.779Z</time></trkpt><trkpt lat="39.7216004" lon="8.5131869"><ele>9.0</ele><time>2026-05-01T07:13:02.779Z</time></trkpt><trkpt lat="39.7215695" lon="8.5129715"><ele>9.0</ele><time>2026-05-01T07:13:03.781Z</time></trkpt><trkpt lat="39.7215332" lon="8.5127543"><ele>9.0</ele><time>2026-05-01T07:13:04.78Z</time></trkpt><trkpt lat="39.7214938" lon="8.5125311"><ele>7.666666666666667</ele><time>2026-05-01T07:13:05.781Z</time></trkpt><trkpt lat="39.7214542" lon="8.5123078"><ele>6.333333333333334</ele><time>2026-05-01T07:13:06.78Z</time></trkpt><trkpt lat="39.7214167" lon="8.5120937"><ele>5.0</ele><time>2026-05-01T07:13:07.781Z</time></trkpt><trkpt lat="39.7213805" lon="8.5118723"><ele>5.0</ele><time>2026-05-01T07:13:08.781Z</time></trkpt><trkpt lat="39.7213453" lon="8.5116461"><ele>5.0</ele><time>2026-05-01T07:13:09.779Z</time></trkpt><trkpt lat="39.7213091" lon="8.5114229"><ele>5.0</ele><time>2026-05-01T07:13:10.779Z</time></trkpt><trkpt lat="39.7212726" lon="8.5111998"><ele>5.0</ele><time>2026-05-01T07:13:11.779Z</time></trkpt><trkpt lat="39.721232" lon="8.5109804"><ele>5.0</ele><time>2026-05-01T07:13:12.781Z</time></trkpt><trkpt lat="39.7211993" lon="8.5107576"><ele>5.0</ele><time>2026-05-01T07:13:13.78Z</time></trkpt><trkpt lat="39.721162" lon="8.5105391"><ele>4.666666666666667</ele><time>2026-05-01T07:13:14.779Z</time></trkpt><trkpt lat="39.7211289" lon="8.5103262"><ele>4.333333333333333</ele><time>2026-05-01T07:13:15.78Z</time></trkpt><trkpt lat="39.7210952" lon="8.5101325"><ele>4.0</ele><time>2026-05-01T07:13:16.78Z</time></trkpt><trkpt lat="39.7210596" lon="8.5099517"><ele>4.0</ele><time>2026-05-01T07:13:17.779Z</time></trkpt><trkpt lat="39.7210321" lon="8.5097692"><ele>4.0</ele><time>2026-05-01T07:13:18.779Z</time></trkpt><trkpt lat="39.7210078" lon="8.5095769"><ele>4.0</ele><time>2026-05-01T07:13:19.779Z</time></trkpt><trkpt lat="39.7209842" lon="8.5093879"><ele>4.0</ele><time>2026-05-01T07:13:20.779Z</time></trkpt><trkpt lat="39.7209555" lon="8.5092019"><ele>3.75</ele><time>2026-05-01T07:13:21.78Z</time></trkpt><trkpt lat="39.7209145" lon="8.5090242"><ele>3.5</ele><time>2026-05-01T07:13:22.78Z</time></trkpt><trkpt lat="39.7208656" lon="8.5088577"><ele>3.25</ele><time>2026-05-01T07:13:23.779Z</time></trkpt><trkpt lat="39.7208128" lon="8.5086929"><ele>3.0</ele><time>2026-05-01T07:13:24.78Z</time></trkpt><trkpt lat="39.720759" lon="8.5085324"><ele>3.0</ele><time>2026-05-01T07:13:25.78Z</time></trkpt><trkpt lat="39.7206949" lon="8.5083788"><ele>3.0</ele><time>2026-05-01T07:13:26.779Z</time></trkpt><trkpt lat="39.7206295" lon="8.5082313"><ele>3.0</ele><time>2026-05-01T07:13:27.779Z</time></trkpt><trkpt lat="39.72057" lon="8.5080874"><ele>3.0</ele><time>2026-05-01T07:13:28.78Z</time></trkpt><trkpt lat="39.7205103" lon="8.5079512"><ele>3.0</ele><time>2026-05-01T07:13:29.779Z</time></trkpt><trkpt lat="39.7204492" lon="8.5078235"><ele>3.0</ele><time>2026-05-01T07:13:30.779Z</time></trkpt><trkpt lat="39.7203933" lon="8.5077058"><ele>3.0</ele><time>2026-05-01T07:13:31.78Z</time></trkpt><trkpt lat="39.7203397" lon="8.5076073"><ele>3.0</ele><time>2026-05-01T07:13:32.779Z</time></trkpt><trkpt lat="39.7202983" lon="8.507537"><ele>3.0</ele><time>2026-05-01T07:13:33.779Z</time></trkpt><trkpt lat="39.7202589" lon="8.5074578"><ele>3.0</ele><time>2026-05-01T07:13:35.78Z</time></trkpt><trkpt lat="39.7202055" lon="8.5073799"><ele>3.0</ele><time>2026-05-01T07:13:51.78Z</time></trkpt><trkpt lat="39.7201079" lon="8.5072534"><ele>3.0</ele><time>2026-05-01T07:13:53.78Z</time></trkpt><trkpt lat="39.7200473" lon="8.5071825"><ele>3.0</ele><time>2026-05-01T07:13:54.78Z</time></trkpt><trkpt lat="39.71999" lon="8.5070974"><ele>3.0</ele><time>2026-05-01T07:13:55.781Z</time></trkpt><trkpt lat="39.7199531" lon="8.5070206"><ele>2.6</ele><time>2026-05-01T07:13:56.779Z</time></trkpt><trkpt lat="39.7199167" lon="8.5068917"><ele>2.1999999999999997</ele><time>2026-05-01T07:13:58.78Z</time></trkpt><trkpt lat="39.7198445" lon="8.5067807"><ele>1.8</ele><time>2026-05-01T07:14:00.781Z</time></trkpt><trkpt lat="39.7197759" lon="8.506734"><ele>1.4</ele><time>2026-05-01T07:14:01.779Z</time></trkpt><trkpt lat="39.7196982" lon="8.506686"><ele>1.0</ele><time>2026-05-01T07:14:02.78Z</time></trkpt><trkpt lat="39.7196011" lon="8.5066238"><ele>1.0</ele><time>2026-05-01T07:14:03.78Z</time></trkpt><trkpt lat="39.7194995" lon="8.5065533"><ele>1.0</ele><time>2026-05-01T07:14:04.781Z</time></trkpt><trkpt lat="39.7194004" lon="8.5064819"><ele>1.0</ele><time>2026-05-01T07:14:05.78Z</time></trkpt><trkpt lat="39.719306" lon="8.5064161"><ele>1.0</ele><time>2026-05-01T07:14:06.78Z</time></trkpt><trkpt lat="39.7192122" lon="8.5063527"><ele>1.0</ele><time>2026-05-01T07:14:07.78Z</time></trkpt><trkpt lat="39.7191151" lon="8.5062923"><ele>0.8</ele><time>2026-05-01T07:14:08.78Z</time></trkpt><trkpt lat="39.719019" lon="8.5062332"><ele>0.6000000000000001</ele><time>2026-05-01T07:14:09.78Z</time></trkpt><trkpt lat="39.7189331" lon="8.5061802"><ele>0.4</ele><time>2026-05-01T07:14:10.781Z</time></trkpt><trkpt lat="39.7188514" lon="8.5061239"><ele>0.2</ele><time>2026-05-01T07:14:11.78Z</time></trkpt><trkpt lat="39.7187682" lon="8.5060712"><ele>0.0</ele><time>2026-05-01T07:14:12.78Z</time></trkpt><trkpt lat="39.7186799" lon="8.5060142"><ele>0.0</ele><time>2026-05-01T07:14:13.779Z</time></trkpt><trkpt lat="39.7185918" lon="8.5059551"><ele>0.0</ele><time>2026-05-01T07:14:14.78Z</time></trkpt><trkpt lat="39.7185046" lon="8.5058988"><ele>0.0</ele><time>2026-05-01T07:14:15.779Z</time></trkpt><trkpt lat="39.7184137" lon="8.5058403"><ele>0.0</ele><time>2026-05-01T07:14:16.779Z</time></trkpt><trkpt lat="39.7183233" lon="8.5057807"><ele>0.0</ele><time>2026-05-01T07:14:17.779Z</time></trkpt><trkpt lat="39.7182386" lon="8.5057264"><ele>0.0</ele><time>2026-05-01T07:14:18.78Z</time></trkpt><trkpt lat="39.7181537" lon="8.5056704"><ele>0.0</ele><time>2026-05-01T07:14:19.78Z</time></trkpt><trkpt lat="39.7180699" lon="8.5056192"><ele>0.0</ele><time>2026-05-01T07:14:20.78Z</time></trkpt><trkpt lat="39.717988" lon="8.5055624"><ele>0.0</ele><time>2026-05-01T07:14:21.78Z</time></trkpt><trkpt lat="39.7179004" lon="8.5055069"><ele>0.0</ele><time>2026-05-01T07:14:22.779Z</time></trkpt><trkpt lat="39.7178028" lon="8.5054454"><ele>0.0</ele><time>2026-05-01T07:14:23.781Z</time></trkpt><trkpt lat="39.7177032" lon="8.5053736"><ele>0.0</ele><time>2026-05-01T07:14:24.779Z</time></trkpt><trkpt lat="39.7176013" lon="8.5053076"><ele>0.0</ele><time>2026-05-01T07:14:25.779Z</time></trkpt><trkpt lat="39.7174938" lon="8.5052442"><ele>0.0</ele><time>2026-05-01T07:14:26.779Z</time></trkpt><trkpt lat="39.7173881" lon="8.5051683"><ele>0.0</ele><time>2026-05-01T07:14:27.779Z</time></trkpt><trkpt lat="39.717279" lon="8.5050936"><ele>0.0</ele><time>2026-05-01T07:14:28.779Z</time></trkpt><trkpt lat="39.7171713" lon="8.5050191"><ele>0.0</ele><time>2026-05-01T07:14:29.779Z</time></trkpt><trkpt lat="39.7170718" lon="8.504952"><ele>0.0</ele><time>2026-05-01T07:14:30.779Z</time></trkpt><trkpt lat="39.7169807" lon="8.5048884"><ele>0.0</ele><time>2026-05-01T07:14:31.779Z</time></trkpt><trkpt lat="39.7168887" lon="8.5048284"><ele>0.0</ele><time>2026-05-01T07:14:32.781Z</time></trkpt><trkpt lat="39.7167977" lon="8.5047676"><ele>0.0</ele><time>2026-05-01T07:14:33.779Z</time></trkpt><trkpt lat="39.7167009" lon="8.5047126"><ele>0.0</ele><time>2026-05-01T07:14:34.781Z</time></trkpt><trkpt lat="39.7166073" lon="8.5046512"><ele>0.0</ele><time>2026-05-01T07:14:35.78Z</time></trkpt><trkpt lat="39.7165189" lon="8.5045969"><ele>0.0</ele><time>2026-05-01T07:14:36.779Z</time></trkpt><trkpt lat="39.7164355" lon="8.5045361"><ele>0.0</ele><time>2026-05-01T07:14:37.78Z</time></trkpt><trkpt lat="39.7163526" lon="8.5044809"><ele>0.0</ele><time>2026-05-01T07:14:38.78Z</time></trkpt><trkpt lat="39.7162615" lon="8.5044299"><ele>0.0</ele><time>2026-05-01T07:14:39.78Z</time></trkpt><trkpt lat="39.7161673" lon="8.5043669"><ele>0.0</ele><time>2026-05-01T07:14:40.781Z</time></trkpt><trkpt lat="39.7160621" lon="8.5043064"><ele>0.0</ele><time>2026-05-01T07:14:41.779Z</time></trkpt><trkpt lat="39.7159523" lon="8.5042419"><ele>0.0</ele><time>2026-05-01T07:14:42.781Z</time></trkpt><trkpt lat="39.7158384" lon="8.5041659"><ele>0.0</ele><time>2026-05-01T07:14:43.779Z</time></trkpt><trkpt lat="39.715717" lon="8.5040767"><ele>0.0</ele><time>2026-05-01T07:14:44.779Z</time></trkpt><trkpt lat="39.7155909" lon="8.5039834"><ele>0.0</ele><time>2026-05-01T07:14:45.779Z</time></trkpt><trkpt lat="39.715459" lon="8.5038912"><ele>0.0</ele><time>2026-05-01T07:14:46.779Z</time></trkpt><trkpt lat="39.7153337" lon="8.5038109"><ele>0.0</ele><time>2026-05-01T07:14:47.78Z</time></trkpt><trkpt lat="39.7152105" lon="8.5037292"><ele>0.0</ele><time>2026-05-01T07:14:48.781Z</time></trkpt><trkpt lat="39.7150859" lon="8.5036494"><ele>0.0</ele><time>2026-05-01T07:14:49.78Z</time></trkpt><trkpt lat="39.7149617" lon="8.5035682"><ele>0.0</ele><time>2026-05-01T07:14:50.781Z</time></trkpt><trkpt lat="39.7148382" lon="8.503488"><ele>0.0</ele><time>2026-05-01T07:14:51.781Z</time></trkpt><trkpt lat="39.7147203" lon="8.5034113"><ele>0.0</ele><time>2026-05-01T07:14:52.78Z</time></trkpt><trkpt lat="39.7146094" lon="8.5033368"><ele>0.0</ele><time>2026-05-01T07:14:53.78Z</time></trkpt><trkpt lat="39.7144963" lon="8.5032584"><ele>0.0</ele><time>2026-05-01T07:14:54.779Z</time></trkpt><trkpt lat="39.7143842" lon="8.5031843"><ele>0.0</ele><time>2026-05-01T07:14:55.78Z</time></trkpt><trkpt lat="39.714274" lon="8.503111"><ele>0.0</ele><time>2026-05-01T07:14:56.779Z</time></trkpt><trkpt lat="39.7141636" lon="8.503039"><ele>0.25</ele><time>2026-05-01T07:14:57.781Z</time></trkpt><trkpt lat="39.7140501" lon="8.502967"><ele>0.5</ele><time>2026-05-01T07:14:58.779Z</time></trkpt><trkpt lat="39.7139356" lon="8.5028927"><ele>0.75</ele><time>2026-05-01T07:14:59.78Z</time></trkpt><trkpt lat="39.7138226" lon="8.5028153"><ele>1.0</ele><time>2026-05-01T07:15:00.779Z</time></trkpt><trkpt lat="39.7137134" lon="8.5027443"><ele>1.0</ele><time>2026-05-01T07:15:01.78Z</time></trkpt><trkpt lat="39.7136107" lon="8.5026767"><ele>1.0</ele><time>2026-05-01T07:15:02.78Z</time></trkpt><trkpt lat="39.7135113" lon="8.5026129"><ele>1.0</ele><time>2026-05-01T07:15:03.779Z</time></trkpt><trkpt lat="39.7134106" lon="8.5025433"><ele>1.0</ele><time>2026-05-01T07:15:04.78Z</time></trkpt><trkpt lat="39.7133164" lon="8.5024816"><ele>1.0</ele><time>2026-05-01T07:15:05.779Z</time></trkpt><trkpt lat="39.7132316" lon="8.5024276"><ele>0.9999999999999999</ele><time>2026-05-01T07:15:06.78Z</time></trkpt><trkpt lat="39.7131692" lon="8.5023826"><ele>1.0</ele><time>2026-05-01T07:15:07.78Z</time></trkpt><trkpt lat="39.7130949" lon="8.5023342"><ele>1.0</ele><time>2026-05-01T07:15:08.78Z</time></trkpt><trkpt lat="39.713011" lon="8.5022831"><ele>1.0</ele><time>2026-05-01T07:15:09.779Z</time></trkpt><trkpt lat="39.7129466" lon="8.5022433"><ele>0.9999999999999999</ele><time>2026-05-01T07:15:10.779Z</time></trkpt><trkpt lat="39.7128456" lon="8.5021769"><ele>1.0</ele><time>2026-05-01T07:15:12.779Z</time></trkpt><trkpt lat="39.712741" lon="8.5021042"><ele>1.4</ele><time>2026-05-01T07:15:14.779Z</time></trkpt><trkpt lat="39.7126841" lon="8.5020506"><ele>1.8</ele><time>2026-05-01T07:15:15.78Z</time></trkpt><trkpt lat="39.7125734" lon="8.5019641"><ele>2.1999999999999997</ele><time>2026-05-01T07:15:17.78Z</time></trkpt><trkpt lat="39.712515" lon="8.5018506"><ele>2.6</ele><time>2026-05-01T07:15:19.781Z</time></trkpt><trkpt lat="39.7125057" lon="8.5017565"><ele>3.0</ele><time>2026-05-01T07:15:20.78Z</time></trkpt><trkpt lat="39.7125116" lon="8.5016328"><ele>3.0</ele><time>2026-05-01T07:15:21.779Z</time></trkpt><trkpt lat="39.7125294" lon="8.5015125"><ele>3.0</ele><time>2026-05-01T07:15:22.78Z</time></trkpt><trkpt lat="39.7125535" lon="8.5013883"><ele>3.0</ele><time>2026-05-01T07:15:23.781Z</time></trkpt><trkpt lat="39.7125865" lon="8.5012483"><ele>3.0</ele><time>2026-05-01T07:15:24.779Z</time></trkpt><trkpt lat="39.7126377" lon="8.5011051"><ele>3.0</ele><time>2026-05-01T07:15:25.779Z</time></trkpt><trkpt lat="39.7127096" lon="8.5009523"><ele>2.3333333333333335</ele><time>2026-05-01T07:15:26.781Z</time></trkpt><trkpt lat="39.7127853" lon="8.5008042"><ele>1.6666666666666665</ele><time>2026-05-01T07:15:27.779Z</time></trkpt><trkpt lat="39.7128661" lon="8.5006421"><ele>1.0</ele><time>2026-05-01T07:15:28.779Z</time></trkpt><trkpt lat="39.7129588" lon="8.5004639"><ele>2.0</ele><time>2026-05-01T07:15:29.78Z</time></trkpt><trkpt lat="39.7130578" lon="8.5002894"><ele>3.0</ele><time>2026-05-01T07:15:30.781Z</time></trkpt><trkpt lat="39.7131653" lon="8.5001202"><ele>4.0</ele><time>2026-05-01T07:15:31.78Z</time></trkpt><trkpt lat="39.7132738" lon="8.499944"><ele>4.0</ele><time>2026-05-01T07:15:32.781Z</time></trkpt><trkpt lat="39.713376" lon="8.4997669"><ele>4.0</ele><time>2026-05-01T07:15:33.781Z</time></trkpt><trkpt lat="39.7134773" lon="8.499587"><ele>4.0</ele><time>2026-05-01T07:15:34.78Z</time></trkpt><trkpt lat="39.7135757" lon="8.4994033"><ele>3.0</ele><time>2026-05-01T07:15:35.78Z</time></trkpt><trkpt lat="39.7136631" lon="8.499212"><ele>2.0</ele><time>2026-05-01T07:15:36.78Z</time></trkpt><trkpt lat="39.7137398" lon="8.4990202"><ele>1.0</ele><time>2026-05-01T07:15:37.781Z</time></trkpt><trkpt lat="39.7138025" lon="8.4988423"><ele>1.0</ele><time>2026-05-01T07:15:38.781Z</time></trkpt><trkpt lat="39.7138501" lon="8.4986717"><ele>1.0</ele><time>2026-05-01T07:15:39.779Z</time></trkpt><trkpt lat="39.7138733" lon="8.4984844"><ele>1.0</ele><time>2026-05-01T07:15:40.779Z</time></trkpt><trkpt lat="39.7138752" lon="8.4982787"><ele>1.0</ele><time>2026-05-01T07:15:41.78Z</time></trkpt><trkpt lat="39.7138662" lon="8.4980619"><ele>1.0</ele><time>2026-05-01T07:15:42.78Z</time></trkpt><trkpt lat="39.7138688" lon="8.497841"><ele>1.0</ele><time>2026-05-01T07:15:43.78Z</time></trkpt><trkpt lat="39.7138807" lon="8.4976283"><ele>1.0</ele><time>2026-05-01T07:15:44.78Z</time></trkpt><trkpt lat="39.7139031" lon="8.4974331"><ele>1.0</ele><time>2026-05-01T07:15:45.78Z</time></trkpt><trkpt lat="39.713923" lon="8.4972494"><ele>1.0</ele><time>2026-05-01T07:15:46.779Z</time></trkpt><trkpt lat="39.7139343" lon="8.4970747"><ele>1.0</ele><time>2026-05-01T07:15:47.78Z</time></trkpt><trkpt lat="39.7139288" lon="8.4969009"><ele>1.0</ele><time>2026-05-01T07:15:48.78Z</time></trkpt><trkpt lat="39.7139028" lon="8.4967355"><ele>0.75</ele><time>2026-05-01T07:15:49.78Z</time></trkpt><trkpt lat="39.7138484" lon="8.4965925"><ele>0.5</ele><time>2026-05-01T07:15:50.781Z</time></trkpt><trkpt lat="39.7137705" lon="8.4964788"><ele>0.25</ele><time>2026-05-01T07:15:51.78Z</time></trkpt><trkpt lat="39.7136688" lon="8.4963931"><ele>0.0</ele><time>2026-05-01T07:15:52.781Z</time></trkpt><trkpt lat="39.7135464" lon="8.4963328"><ele>0.5</ele><time>2026-05-01T07:15:53.78Z</time></trkpt><trkpt lat="39.7134221" lon="8.4962716"><ele>1.0</ele><time>2026-05-01T07:15:54.78Z</time></trkpt><trkpt lat="39.7132978" lon="8.4962312"><ele>1.5</ele><time>2026-05-01T07:15:55.78Z</time></trkpt><trkpt lat="39.7131725" lon="8.4962324"><ele>2.0</ele><time>2026-05-01T07:15:56.78Z</time></trkpt><trkpt lat="39.7130563" lon="8.4962462"><ele>2.0</ele><time>2026-05-01T07:15:57.78Z</time></trkpt><trkpt lat="39.7129518" lon="8.4962246"><ele>2.0</ele><time>2026-05-01T07:15:58.781Z</time></trkpt><trkpt lat="39.7128717" lon="8.4961815"><ele>2.0</ele><time>2026-05-01T07:15:59.78Z</time></trkpt><trkpt lat="39.7128123" lon="8.4961276"><ele>2.0</ele><time>2026-05-01T07:16:00.781Z</time></trkpt><trkpt lat="39.7127715" lon="8.4960249"><ele>2.0</ele><time>2026-05-01T07:16:02.779Z</time></trkpt><trkpt lat="39.7128023" lon="8.4958648"><ele>2.0</ele><time>2026-05-01T07:16:04.779Z</time></trkpt><trkpt lat="39.712848" lon="8.4957663"><ele>2.0</ele><time>2026-05-01T07:16:05.779Z</time></trkpt><trkpt lat="39.7129026" lon="8.4956482"><ele>2.0</ele><time>2026-05-01T07:16:06.78Z</time></trkpt><trkpt lat="39.7129542" lon="8.4955156"><ele>2.0</ele><time>2026-05-01T07:16:07.781Z</time></trkpt><trkpt lat="39.7130085" lon="8.4953715"><ele>2.0</ele><time>2026-05-01T07:16:08.78Z</time></trkpt><trkpt lat="39.7130671" lon="8.4952235"><ele>1.75</ele><time>2026-05-01T07:16:09.781Z</time></trkpt><trkpt lat="39.7131286" lon="8.4950648"><ele>1.5</ele><time>2026-05-01T07:16:10.78Z</time></trkpt><trkpt lat="39.7131937" lon="8.4948986"><ele>1.25</ele><time>2026-05-01T07:16:11.779Z</time></trkpt><trkpt lat="39.7132567" lon="8.4947319"><ele>1.0</ele><time>2026-05-01T07:16:12.779Z</time></trkpt><trkpt lat="39.7133174" lon="8.4945626"><ele>1.5</ele><time>2026-05-01T07:16:13.78Z</time></trkpt><trkpt lat="39.7133827" lon="8.494393"><ele>2.0</ele><time>2026-05-01T07:16:14.781Z</time></trkpt><trkpt lat="39.7134549" lon="8.4942271"><ele>2.5</ele><time>2026-05-01T07:16:15.78Z</time></trkpt><trkpt lat="39.7135247" lon="8.4940598"><ele>3.0</ele><time>2026-05-01T07:16:16.78Z</time></trkpt><trkpt lat="39.7135879" lon="8.4938966"><ele>2.75</ele><time>2026-05-01T07:16:17.779Z</time></trkpt><trkpt lat="39.7136458" lon="8.4937444"><ele>2.5</ele><time>2026-05-01T07:16:18.781Z</time></trkpt><trkpt lat="39.7137056" lon="8.4935903"><ele>2.25</ele><time>2026-05-01T07:16:19.781Z</time></trkpt><trkpt lat="39.7137656" lon="8.4934328"><ele>2.0</ele><time>2026-05-01T07:16:20.78Z</time></trkpt><trkpt lat="39.7138259" lon="8.4932712"><ele>2.0</ele><time>2026-05-01T07:16:21.781Z</time></trkpt><trkpt lat="39.7138908" lon="8.4931147"><ele>2.0</ele><time>2026-05-01T07:16:22.781Z</time></trkpt><trkpt lat="39.713961" lon="8.4929598"><ele>2.0</ele><time>2026-05-01T07:16:23.78Z</time></trkpt><trkpt lat="39.7140328" lon="8.4928093"><ele>2.0</ele><time>2026-05-01T07:16:24.78Z</time></trkpt><trkpt lat="39.7141111" lon="8.4926509"><ele>1.5</ele><time>2026-05-01T07:16:25.781Z</time></trkpt><trkpt lat="39.7142008" lon="8.4924831"><ele>1.0</ele><time>2026-05-01T07:16:26.779Z</time></trkpt><trkpt lat="39.7142824" lon="8.4923221"><ele>0.5</ele><time>2026-05-01T07:16:27.78Z</time></trkpt><trkpt lat="39.7143586" lon="8.4921636"><ele>0.0</ele><time>2026-05-01T07:16:28.78Z</time></trkpt><trkpt lat="39.7144326" lon="8.4920127"><ele>0.0</ele><time>2026-05-01T07:16:29.779Z</time></trkpt><trkpt lat="39.7145115" lon="8.4918604"><ele>0.0</ele><time>2026-05-01T07:16:30.779Z</time></trkpt><trkpt lat="39.7145929" lon="8.4916856"><ele>0.0</ele><time>2026-05-01T07:16:31.779Z</time></trkpt><trkpt lat="39.7146635" lon="8.4915015"><ele>0.0</ele><time>2026-05-01T07:16:32.78Z</time></trkpt><trkpt lat="39.7147236" lon="8.4913064"><ele>0.0</ele><time>2026-05-01T07:16:33.78Z</time></trkpt><trkpt lat="39.7147763" lon="8.4910945"><ele>0.0</ele><time>2026-05-01T07:16:34.779Z</time></trkpt><trkpt lat="39.7148189" lon="8.4908745"><ele>0.3333333333333333</ele><time>2026-05-01T07:16:35.781Z</time></trkpt><trkpt lat="39.7148599" lon="8.4906573"><ele>0.6666666666666666</ele><time>2026-05-01T07:16:36.779Z</time></trkpt><trkpt lat="39.7148988" lon="8.4904465"><ele>1.0</ele><time>2026-05-01T07:16:37.78Z</time></trkpt><trkpt lat="39.7149378" lon="8.4902466"><ele>1.25</ele><time>2026-05-01T07:16:38.781Z</time></trkpt><trkpt lat="39.714975" lon="8.4900537"><ele>1.5</ele><time>2026-05-01T07:16:39.78Z</time></trkpt><trkpt lat="39.7150138" lon="8.4898649"><ele>1.75</ele><time>2026-05-01T07:16:40.78Z</time></trkpt><trkpt lat="39.7150485" lon="8.4896807"><ele>2.0</ele><time>2026-05-01T07:16:41.78Z</time></trkpt><trkpt lat="39.7150853" lon="8.4894975"><ele>2.25</ele><time>2026-05-01T07:16:42.78Z</time></trkpt><trkpt lat="39.715115" lon="8.4893166"><ele>2.5</ele><time>2026-05-01T07:16:43.78Z</time></trkpt><trkpt lat="39.7151348" lon="8.4891398"><ele>2.75</ele><time>2026-05-01T07:16:44.779Z</time></trkpt><trkpt lat="39.7151346" lon="8.4889526"><ele>3.0</ele><time>2026-05-01T07:16:45.779Z</time></trkpt><trkpt lat="39.7151096" lon="8.4887622"><ele>2.3333333333333335</ele><time>2026-05-01T07:16:46.781Z</time></trkpt><trkpt lat="39.715067" lon="8.4885661"><ele>1.6666666666666665</ele><time>2026-05-01T07:16:47.779Z</time></trkpt><trkpt lat="39.7150003" lon="8.4883732"><ele>1.0</ele><time>2026-05-01T07:16:48.78Z</time></trkpt><trkpt lat="39.7149189" lon="8.4881803"><ele>1.0</ele><time>2026-05-01T07:16:49.78Z</time></trkpt><trkpt lat="39.7148173" lon="8.4879941"><ele>1.0</ele><time>2026-05-01T07:16:50.78Z</time></trkpt><trkpt lat="39.7147106" lon="8.4878241"><ele>1.0</ele><time>2026-05-01T07:16:51.779Z</time></trkpt><trkpt lat="39.714608" lon="8.4876678"><ele>1.0</ele><time>2026-05-01T07:16:52.781Z</time></trkpt><trkpt lat="39.7145041" lon="8.4875162"><ele>1.0</ele><time>2026-05-01T07:16:53.781Z</time></trkpt><trkpt lat="39.7144036" lon="8.4873724"><ele>1.0</ele><time>2026-05-01T07:16:54.78Z</time></trkpt><trkpt lat="39.7143095" lon="8.4872349"><ele>1.0</ele><time>2026-05-01T07:16:55.78Z</time></trkpt><trkpt lat="39.7142218" lon="8.4871076"><ele>1.5</ele><time>2026-05-01T07:16:56.78Z</time></trkpt><trkpt lat="39.7141467" lon="8.4869972"><ele>2.0</ele><time>2026-05-01T07:16:57.781Z</time></trkpt><trkpt lat="39.7140824" lon="8.4869076"><ele>2.5</ele><time>2026-05-01T07:16:58.78Z</time></trkpt><trkpt lat="39.7140222" lon="8.4868236"><ele>3.0</ele><time>2026-05-01T07:16:59.78Z</time></trkpt><trkpt lat="39.7139707" lon="8.4867446"><ele>3.4999999999999996</ele><time>2026-05-01T07:17:00.779Z</time></trkpt><trkpt lat="39.7139242" lon="8.4866752"><ele>4.0</ele><time>2026-05-01T07:17:01.78Z</time></trkpt><trkpt lat="39.7138521" lon="8.4865818"><ele>4.0</ele><time>2026-05-01T07:17:03.779Z</time></trkpt><trkpt lat="39.7138003" lon="8.4864984"><ele>4.0</ele><time>2026-05-01T07:17:05.779Z</time></trkpt><trkpt lat="39.7137305" lon="8.4863991"><ele>4.0</ele><time>2026-05-01T07:17:07.779Z</time></trkpt><trkpt lat="39.7137046" lon="8.4862869"><ele>4.0</ele><time>2026-05-01T07:17:09.779Z</time></trkpt><trkpt lat="39.7137181" lon="8.486137"><ele>4.0</ele><time>2026-05-01T07:17:11.78Z</time></trkpt><trkpt lat="39.7137419" lon="8.4859967"><ele>3.8000000000000003</ele><time>2026-05-01T07:17:13.78Z</time></trkpt><trkpt lat="39.7137475" lon="8.4858799"><ele>3.6000000000000005</ele><time>2026-05-01T07:17:15.779Z</time></trkpt><trkpt lat="39.7137243" lon="8.4857594"><ele>3.4</ele><time>2026-05-01T07:17:17.78Z</time></trkpt><trkpt lat="39.7136706" lon="8.4856109"><ele>3.2</ele><time>2026-05-01T07:17:19.781Z</time></trkpt><trkpt lat="39.7136772" lon="8.4855166"><ele>3.0</ele><time>2026-05-01T07:17:20.78Z</time></trkpt><trkpt lat="39.7136856" lon="8.4854277"><ele>2.8</ele><time>2026-05-01T07:17:21.78Z</time></trkpt><trkpt lat="39.7137022" lon="8.4853223"><ele>2.5999999999999996</ele><time>2026-05-01T07:17:23.78Z</time></trkpt><trkpt lat="39.7137208" lon="8.4851765"><ele>2.4000000000000004</ele><time>2026-05-01T07:17:25.779Z</time></trkpt><trkpt lat="39.7137373" lon="8.4850642"><ele>2.2</ele><time>2026-05-01T07:17:26.78Z</time></trkpt><trkpt lat="39.713762" lon="8.4849151"><ele>2.0</ele><time>2026-05-01T07:17:27.78Z</time></trkpt><trkpt lat="39.7137868" lon="8.4847555"><ele>1.5</ele><time>2026-05-01T07:17:28.779Z</time></trkpt><trkpt lat="39.7138075" lon="8.4845916"><ele>1.0</ele><time>2026-05-01T07:17:29.78Z</time></trkpt><trkpt lat="39.7138298" lon="8.4844118"><ele>0.5</ele><time>2026-05-01T07:17:30.779Z</time></trkpt><trkpt lat="39.7138509" lon="8.4842361"><ele>0.0</ele><time>2026-05-01T07:17:31.78Z</time></trkpt><trkpt lat="39.7138717" lon="8.4840674"><ele>0.0</ele><time>2026-05-01T07:17:32.78Z</time></trkpt><trkpt lat="39.7138984" lon="8.4838844"><ele>0.0</ele><time>2026-05-01T07:17:33.78Z</time></trkpt><trkpt lat="39.7139301" lon="8.4836971"><ele>0.0</ele><time>2026-05-01T07:17:34.78Z</time></trkpt><trkpt lat="39.7139652" lon="8.4835056"><ele>0.0</ele><time>2026-05-01T07:17:35.78Z</time></trkpt><trkpt lat="39.7140134" lon="8.483304"><ele>0.6666666666666666</ele><time>2026-05-01T07:17:36.781Z</time></trkpt><trkpt lat="39.7140595" lon="8.4830914"><ele>1.3333333333333333</ele><time>2026-05-01T07:17:37.78Z</time></trkpt><trkpt lat="39.7140998" lon="8.4828754"><ele>2.0</ele><time>2026-05-01T07:17:38.78Z</time></trkpt><trkpt lat="39.7141338" lon="8.4826625"><ele>2.0</ele><time>2026-05-01T07:17:39.78Z</time></trkpt><trkpt lat="39.7141657" lon="8.4824507"><ele>2.0</ele><time>2026-05-01T07:17:40.779Z</time></trkpt><trkpt lat="39.714194" lon="8.4822412"><ele>2.0</ele><time>2026-05-01T07:17:41.781Z</time></trkpt><trkpt lat="39.7142162" lon="8.4820335"><ele>2.6666666666666665</ele><time>2026-05-01T07:17:42.78Z</time></trkpt><trkpt lat="39.7142242" lon="8.4818319"><ele>3.333333333333333</ele><time>2026-05-01T07:17:43.781Z</time></trkpt><trkpt lat="39.7142212" lon="8.4816308"><ele>4.0</ele><time>2026-05-01T07:17:44.779Z</time></trkpt><trkpt lat="39.7142057" lon="8.481435"><ele>4.0</ele><time>2026-05-01T07:17:45.779Z</time></trkpt><trkpt lat="39.7141798" lon="8.4812388"><ele>4.0</ele><time>2026-05-01T07:17:46.78Z</time></trkpt><trkpt lat="39.7141477" lon="8.4810439"><ele>4.0</ele><time>2026-05-01T07:17:47.779Z</time></trkpt><trkpt lat="39.714115" lon="8.4808493"><ele>4.0</ele><time>2026-05-01T07:17:48.781Z</time></trkpt><trkpt lat="39.7140864" lon="8.4806531"><ele>4.0</ele><time>2026-05-01T07:17:49.78Z</time></trkpt><trkpt lat="39.7140652" lon="8.4804583"><ele>4.0</ele><time>2026-05-01T07:17:50.781Z</time></trkpt><trkpt lat="39.7140617" lon="8.4802659"><ele>3.0</ele><time>2026-05-01T07:17:51.78Z</time></trkpt><trkpt lat="39.7140804" lon="8.4800645"><ele>2.0</ele><time>2026-05-01T07:17:52.78Z</time></trkpt><trkpt lat="39.7141145" lon="8.479858"><ele>1.0</ele><time>2026-05-01T07:17:53.78Z</time></trkpt><trkpt lat="39.7141531" lon="8.4796563"><ele>1.6666666666666665</ele><time>2026-05-01T07:17:54.78Z</time></trkpt><trkpt lat="39.7141907" lon="8.4794505"><ele>2.3333333333333335</ele><time>2026-05-01T07:17:55.781Z</time></trkpt><trkpt lat="39.7142118" lon="8.4792432"><ele>3.0</ele><time>2026-05-01T07:17:56.78Z</time></trkpt><trkpt lat="39.7142168" lon="8.4790353"><ele>3.0</ele><time>2026-05-01T07:17:57.779Z</time></trkpt><trkpt lat="39.7142048" lon="8.4788208"><ele>3.0</ele><time>2026-05-01T07:17:58.78Z</time></trkpt><trkpt lat="39.7141744" lon="8.478609"><ele>3.0</ele><time>2026-05-01T07:17:59.779Z</time></trkpt><trkpt lat="39.7141359" lon="8.4783936"><ele>3.333333333333333</ele><time>2026-05-01T07:18:00.779Z</time></trkpt><trkpt lat="39.7141011" lon="8.4781831"><ele>3.6666666666666665</ele><time>2026-05-01T07:18:01.781Z</time></trkpt><trkpt lat="39.7140706" lon="8.4779734"><ele>4.0</ele><time>2026-05-01T07:18:02.779Z</time></trkpt><trkpt lat="39.7140452" lon="8.4777631"><ele>4.0</ele><time>2026-05-01T07:18:03.781Z</time></trkpt><trkpt lat="39.7140236" lon="8.4775501"><ele>4.0</ele><time>2026-05-01T07:18:04.78Z</time></trkpt><trkpt lat="39.7140077" lon="8.4773364"><ele>4.0</ele><time>2026-05-01T07:18:05.781Z</time></trkpt><trkpt lat="39.7139942" lon="8.4771228"><ele>4.666666666666666</ele><time>2026-05-01T07:18:06.779Z</time></trkpt><trkpt lat="39.7139852" lon="8.4769087"><ele>5.333333333333333</ele><time>2026-05-01T07:18:07.78Z</time></trkpt><trkpt lat="39.7139795" lon="8.4767024"><ele>6.0</ele><time>2026-05-01T07:18:08.781Z</time></trkpt><trkpt lat="39.7139859" lon="8.4764971"><ele>6.0</ele><time>2026-05-01T07:18:09.78Z</time></trkpt><trkpt lat="39.7139927" lon="8.4762877"><ele>6.0</ele><time>2026-05-01T07:18:10.78Z</time></trkpt><trkpt lat="39.7140014" lon="8.4760783"><ele>6.0</ele><time>2026-05-01T07:18:11.779Z</time></trkpt><trkpt lat="39.7140095" lon="8.4758701"><ele>5.75</ele><time>2026-05-01T07:18:12.78Z</time></trkpt><trkpt lat="39.7140154" lon="8.4756651"><ele>5.5</ele><time>2026-05-01T07:18:13.779Z</time></trkpt><trkpt lat="39.714012" lon="8.4754764"><ele>5.25</ele><time>2026-05-01T07:18:14.78Z</time></trkpt><trkpt lat="39.7139865" lon="8.4752982"><ele>5.0</ele><time>2026-05-01T07:18:15.78Z</time></trkpt><trkpt lat="39.7139301" lon="8.4751291"><ele>5.0</ele><time>2026-05-01T07:18:16.779Z</time></trkpt><trkpt lat="39.7138463" lon="8.4749792"><ele>5.0</ele><time>2026-05-01T07:18:17.779Z</time></trkpt><trkpt lat="39.7137334" lon="8.4748453"><ele>5.0</ele><time>2026-05-01T07:18:18.78Z</time></trkpt><trkpt lat="39.7136042" lon="8.4747239"><ele>6.0</ele><time>2026-05-01T07:18:19.779Z</time></trkpt><trkpt lat="39.7134654" lon="8.4746014"><ele>7.0</ele><time>2026-05-01T07:18:20.779Z</time></trkpt><trkpt lat="39.7133266" lon="8.474475"><ele>8.0</ele><time>2026-05-01T07:18:21.78Z</time></trkpt><trkpt lat="39.7131883" lon="8.47435"><ele>8.0</ele><time>2026-05-01T07:18:22.78Z</time></trkpt><trkpt lat="39.7130492" lon="8.4742273"><ele>8.0</ele><time>2026-05-01T07:18:23.779Z</time></trkpt><trkpt lat="39.7129093" lon="8.474108"><ele>8.0</ele><time>2026-05-01T07:18:24.778Z</time></trkpt><trkpt lat="39.7127678" lon="8.4739897"><ele>8.0</ele><time>2026-05-01T07:18:25.779Z</time></trkpt><trkpt lat="39.7126286" lon="8.4738708"><ele>8.0</ele><time>2026-05-01T07:18:26.779Z</time></trkpt><trkpt lat="39.7124906" lon="8.4737551"><ele>8.0</ele><time>2026-05-01T07:18:27.779Z</time></trkpt><trkpt lat="39.7123546" lon="8.4736432"><ele>8.0</ele><time>2026-05-01T07:18:28.78Z</time></trkpt><trkpt lat="39.7122355" lon="8.4735319"><ele>8.0</ele><time>2026-05-01T07:18:29.78Z</time></trkpt><trkpt lat="39.7121356" lon="8.4734124"><ele>8.0</ele><time>2026-05-01T07:18:30.779Z</time></trkpt><trkpt lat="39.7120546" lon="8.4732658"><ele>8.0</ele><time>2026-05-01T07:18:31.778Z</time></trkpt><trkpt lat="39.7119915" lon="8.4730925"><ele>8.333333333333332</ele><time>2026-05-01T07:18:32.779Z</time></trkpt><trkpt lat="39.7119406" lon="8.4729023"><ele>8.666666666666666</ele><time>2026-05-01T07:18:33.779Z</time></trkpt><trkpt lat="39.7119001" lon="8.4726952"><ele>9.0</ele><time>2026-05-01T07:18:34.779Z</time></trkpt><trkpt lat="39.7118625" lon="8.4724847"><ele>9.0</ele><time>2026-05-01T07:18:35.778Z</time></trkpt><trkpt lat="39.7118251" lon="8.4722699"><ele>9.0</ele><time>2026-05-01T07:18:36.78Z</time></trkpt><trkpt lat="39.7117887" lon="8.4720559"><ele>9.0</ele><time>2026-05-01T07:18:37.78Z</time></trkpt><trkpt lat="39.7117502" lon="8.4718468"><ele>9.0</ele><time>2026-05-01T07:18:38.779Z</time></trkpt><trkpt lat="39.7117133" lon="8.4716377"><ele>9.0</ele><time>2026-05-01T07:18:39.779Z</time></trkpt><trkpt lat="39.7116794" lon="8.4714294"><ele>9.0</ele><time>2026-05-01T07:18:40.778Z</time></trkpt><trkpt lat="39.7116483" lon="8.4712216"><ele>9.333333333333334</ele><time>2026-05-01T07:18:41.778Z</time></trkpt><trkpt lat="39.7116233" lon="8.4710083"><ele>9.666666666666668</ele><time>2026-05-01T07:18:42.778Z</time></trkpt><trkpt lat="39.7116033" lon="8.4707945"><ele>10.0</ele><time>2026-05-01T07:18:43.779Z</time></trkpt><trkpt lat="39.7115848" lon="8.4705853"><ele>11.0</ele><time>2026-05-01T07:18:44.779Z</time></trkpt><trkpt lat="39.7115697" lon="8.4703748"><ele>12.0</ele><time>2026-05-01T07:18:45.78Z</time></trkpt><trkpt lat="39.7115615" lon="8.4701618"><ele>13.0</ele><time>2026-05-01T07:18:46.778Z</time></trkpt><trkpt lat="39.7115615" lon="8.4699476"><ele>13.0</ele><time>2026-05-01T07:18:47.779Z</time></trkpt><trkpt lat="39.7115648" lon="8.4697293"><ele>13.0</ele><time>2026-05-01T07:18:48.78Z</time></trkpt><trkpt lat="39.7115688" lon="8.4695085"><ele>13.0</ele><time>2026-05-01T07:18:49.779Z</time></trkpt><trkpt lat="39.7115749" lon="8.4692828"><ele>13.333333333333332</ele><time>2026-05-01T07:18:50.779Z</time></trkpt><trkpt lat="39.7115817" lon="8.4690566"><ele>13.666666666666668</ele><time>2026-05-01T07:18:51.78Z</time></trkpt><trkpt lat="39.7115892" lon="8.46883"><ele>14.0</ele><time>2026-05-01T07:18:52.78Z</time></trkpt><trkpt lat="39.7115925" lon="8.4686006"><ele>14.0</ele><time>2026-05-01T07:18:53.779Z</time></trkpt><trkpt lat="39.7115866" lon="8.4683714"><ele>14.0</ele><time>2026-05-01T07:18:54.779Z</time></trkpt><trkpt lat="39.7115713" lon="8.4681413"><ele>14.0</ele><time>2026-05-01T07:18:55.78Z</time></trkpt><trkpt lat="39.7115421" lon="8.4679134"><ele>14.333333333333334</ele><time>2026-05-01T07:18:56.779Z</time></trkpt><trkpt lat="39.71151" lon="8.4676825"><ele>14.666666666666668</ele><time>2026-05-01T07:18:57.779Z</time></trkpt><trkpt lat="39.7114776" lon="8.4674545"><ele>15.0</ele><time>2026-05-01T07:18:58.778Z</time></trkpt><trkpt lat="39.7114462" lon="8.4672242"><ele>16.0</ele><time>2026-05-01T07:18:59.779Z</time></trkpt><trkpt lat="39.7114169" lon="8.4669976"><ele>17.0</ele><time>2026-05-01T07:19:00.78Z</time></trkpt><trkpt lat="39.7113878" lon="8.4667754"><ele>18.0</ele><time>2026-05-01T07:19:01.779Z</time></trkpt><trkpt lat="39.7113629" lon="8.466585"><ele>18.0</ele><time>2026-05-01T07:19:02.779Z</time></trkpt><trkpt lat="39.7113383" lon="8.4664158"><ele>18.0</ele><time>2026-05-01T07:19:03.78Z</time></trkpt><trkpt lat="39.7113175" lon="8.4662728"><ele>18.0</ele><time>2026-05-01T07:19:04.779Z</time></trkpt><trkpt lat="39.7112994" lon="8.4661513"><ele>18.0</ele><time>2026-05-01T07:19:05.779Z</time></trkpt><trkpt lat="39.711282" lon="8.4660618"><ele>18.0</ele><time>2026-05-01T07:19:06.779Z</time></trkpt><trkpt lat="39.7112577" lon="8.4659432"><ele>18.0</ele><time>2026-05-01T07:19:08.78Z</time></trkpt><trkpt lat="39.7112036" lon="8.4658755"><ele>18.0</ele><time>2026-05-01T07:19:11.78Z</time></trkpt><trkpt lat="39.7111232" lon="8.4659047"><ele>18.0</ele><time>2026-05-01T07:19:31.778Z</time></trkpt><trkpt lat="39.7110611" lon="8.4659506"><ele>18.0</ele><time>2026-05-01T07:19:32.778Z</time></trkpt><trkpt lat="39.7109867" lon="8.4660153"><ele>18.0</ele><time>2026-05-01T07:19:33.779Z</time></trkpt><trkpt lat="39.7108988" lon="8.4660946"><ele>18.0</ele><time>2026-05-01T07:19:34.779Z</time></trkpt><trkpt lat="39.7107984" lon="8.4661944"><ele>18.75</ele><time>2026-05-01T07:19:35.779Z</time></trkpt><trkpt lat="39.7106936" lon="8.466306"><ele>19.5</ele><time>2026-05-01T07:19:36.78Z</time></trkpt><trkpt lat="39.7105919" lon="8.4664163"><ele>20.25</ele><time>2026-05-01T07:19:37.779Z</time></trkpt><trkpt lat="39.7105106" lon="8.4665075"><ele>21.0</ele><time>2026-05-01T07:19:38.78Z</time></trkpt><trkpt lat="39.7104444" lon="8.4665749"><ele>21.0</ele><time>2026-05-01T07:19:39.779Z</time></trkpt><trkpt lat="39.710383" lon="8.4666101"><ele>21.0</ele><time>2026-05-01T07:19:40.779Z</time></trkpt><trkpt lat="39.7103178" lon="8.4666166"><ele>21.0</ele><time>2026-05-01T07:19:41.778Z</time></trkpt><trkpt lat="39.7101976" lon="8.4665193"><ele>21.0</ele><time>2026-05-01T07:19:43.778Z</time></trkpt><trkpt lat="39.7101197" lon="8.4664179"><ele>21.0</ele><time>2026-05-01T07:19:44.779Z</time></trkpt><trkpt lat="39.7100273" lon="8.4663049"><ele>22.25</ele><time>2026-05-01T07:19:45.78Z</time></trkpt><trkpt lat="39.7099232" lon="8.4661935"><ele>23.5</ele><time>2026-05-01T07:19:46.779Z</time></trkpt><trkpt lat="39.7098072" lon="8.4660734"><ele>24.75</ele><time>2026-05-01T07:19:47.779Z</time></trkpt><trkpt lat="39.709694" lon="8.4659507"><ele>26.0</ele><time>2026-05-01T07:19:48.779Z</time></trkpt><trkpt lat="39.709594" lon="8.4658333"><ele>26.0</ele><time>2026-05-01T07:19:49.779Z</time></trkpt><trkpt lat="39.7094891" lon="8.4657286"><ele>26.0</ele><time>2026-05-01T07:19:50.779Z</time></trkpt><trkpt lat="39.709369" lon="8.4656415"><ele>26.0</ele><time>2026-05-01T07:19:51.778Z</time></trkpt><trkpt lat="39.7092562" lon="8.4655637"><ele>26.0</ele><time>2026-05-01T07:19:52.779Z</time></trkpt><trkpt lat="39.7091491" lon="8.4654786"><ele>27.75</ele><time>2026-05-01T07:19:53.779Z</time></trkpt><trkpt lat="39.7090514" lon="8.4653895"><ele>29.5</ele><time>2026-05-01T07:19:54.779Z</time></trkpt><trkpt lat="39.7089631" lon="8.4652879"><ele>31.25</ele><time>2026-05-01T07:19:55.779Z</time></trkpt><trkpt lat="39.7088868" lon="8.4651776"><ele>33.0</ele><time>2026-05-01T07:19:56.778Z</time></trkpt><trkpt lat="39.7088157" lon="8.4650623"><ele>33.0</ele><time>2026-05-01T07:19:57.778Z</time></trkpt><trkpt lat="39.7087492" lon="8.4649444"><ele>33.0</ele><time>2026-05-01T07:19:58.778Z</time></trkpt><trkpt lat="39.7086781" lon="8.4648305"><ele>33.0</ele><time>2026-05-01T07:19:59.778Z</time></trkpt><trkpt lat="39.7086032" lon="8.4647334"><ele>33.0</ele><time>2026-05-01T07:20:00.778Z</time></trkpt><trkpt lat="39.7085361" lon="8.4646304"><ele>33.0</ele><time>2026-05-01T07:20:01.779Z</time></trkpt><trkpt lat="39.7084752" lon="8.464534"><ele>33.333333333333336</ele><time>2026-05-01T07:20:02.78Z</time></trkpt><trkpt lat="39.7084131" lon="8.4644357"><ele>33.666666666666664</ele><time>2026-05-01T07:20:03.78Z</time></trkpt><trkpt lat="39.7083539" lon="8.4643394"><ele>34.0</ele><time>2026-05-01T07:20:04.778Z</time></trkpt><trkpt lat="39.7082936" lon="8.4642614"><ele>34.33333333333333</ele><time>2026-05-01T07:20:05.779Z</time></trkpt><trkpt lat="39.7082326" lon="8.4641938"><ele>34.666666666666664</ele><time>2026-05-01T07:20:06.779Z</time></trkpt><trkpt lat="39.7081765" lon="8.4641312"><ele>35.0</ele><time>2026-05-01T07:20:07.779Z</time></trkpt><trkpt lat="39.7081094" lon="8.4640521"><ele>35.0</ele><time>2026-05-01T07:20:08.779Z</time></trkpt><trkpt lat="39.7080383" lon="8.4639907"><ele>35.0</ele><time>2026-05-01T07:20:09.779Z</time></trkpt><trkpt lat="39.7079524" lon="8.4639355"><ele>35.0</ele><time>2026-05-01T07:20:10.78Z</time></trkpt><trkpt lat="39.7078645" lon="8.4638982"><ele>35.0</ele><time>2026-05-01T07:20:11.78Z</time></trkpt><trkpt lat="39.7077731" lon="8.4638802"><ele>35.0</ele><time>2026-05-01T07:20:12.78Z</time></trkpt><trkpt lat="39.7077045" lon="8.4638883"><ele>35.0</ele><time>2026-05-01T07:20:13.779Z</time></trkpt><trkpt lat="39.7076312" lon="8.4639169"><ele>36.6</ele><time>2026-05-01T07:20:14.779Z</time></trkpt><trkpt lat="39.7075419" lon="8.4639481"><ele>38.2</ele><time>2026-05-01T07:20:15.778Z</time></trkpt><trkpt lat="39.7074412" lon="8.4639668"><ele>39.8</ele><time>2026-05-01T07:20:16.778Z</time></trkpt><trkpt lat="39.7073479" lon="8.4639714"><ele>41.4</ele><time>2026-05-01T07:20:17.779Z</time></trkpt><trkpt lat="39.7072792" lon="8.4639649"><ele>43.0</ele><time>2026-05-01T07:20:18.78Z</time></trkpt><trkpt lat="39.7071379" lon="8.4640113"><ele>43.0</ele><time>2026-05-01T07:20:20.778Z</time></trkpt><trkpt lat="39.7070444" lon="8.4640484"><ele>43.0</ele><time>2026-05-01T07:20:21.779Z</time></trkpt><trkpt lat="39.7069376" lon="8.4640904"><ele>43.0</ele><time>2026-05-01T07:20:22.778Z</time></trkpt><trkpt lat="39.7068315" lon="8.4641327"><ele>43.0</ele><time>2026-05-01T07:20:23.779Z</time></trkpt><trkpt lat="39.7067544" lon="8.4641683"><ele>43.0</ele><time>2026-05-01T07:20:24.78Z</time></trkpt><trkpt lat="39.7066842" lon="8.4642045"><ele>44.0</ele><time>2026-05-01T07:20:25.779Z</time></trkpt><trkpt lat="39.7066044" lon="8.4642364"><ele>45.0</ele><time>2026-05-01T07:20:26.779Z</time></trkpt><trkpt lat="39.7065363" lon="8.4642739"><ele>46.0</ele><time>2026-05-01T07:20:27.778Z</time></trkpt><trkpt lat="39.706461" lon="8.4643259"><ele>47.0</ele><time>2026-05-01T07:20:28.779Z</time></trkpt><trkpt lat="39.7063773" lon="8.4643839"><ele>47.99999999999999</ele><time>2026-05-01T07:20:29.778Z</time></trkpt><trkpt lat="39.706298" lon="8.4644428"><ele>49.0</ele><time>2026-05-01T07:20:30.78Z</time></trkpt><trkpt lat="39.7062335" lon="8.4644696"><ele>49.0</ele><time>2026-05-01T07:20:31.779Z</time></trkpt><trkpt lat="39.7061282" lon="8.4644353"><ele>49.0</ele><time>2026-05-01T07:20:33.78Z</time></trkpt><trkpt lat="39.706063" lon="8.4644009"><ele>49.0</ele><time>2026-05-01T07:20:34.779Z</time></trkpt><trkpt lat="39.7059829" lon="8.4643601"><ele>49.0</ele><time>2026-05-01T07:20:35.778Z</time></trkpt><trkpt lat="39.7058941" lon="8.4643184"><ele>49.0</ele><time>2026-05-01T07:20:36.779Z</time></trkpt><trkpt lat="39.7058001" lon="8.4642753"><ele>49.800000000000004</ele><time>2026-05-01T07:20:37.779Z</time></trkpt><trkpt lat="39.7057155" lon="8.4642215"><ele>50.6</ele><time>2026-05-01T07:20:38.779Z</time></trkpt><trkpt lat="39.7056483" lon="8.4641614"><ele>51.4</ele><time>2026-05-01T07:20:39.779Z</time></trkpt><trkpt lat="39.7055756" lon="8.4640891"><ele>52.2</ele><time>2026-05-01T07:20:40.78Z</time></trkpt><trkpt lat="39.7054952" lon="8.464013"><ele>53.0</ele><time>2026-05-01T07:20:41.778Z</time></trkpt><trkpt lat="39.7054051" lon="8.4639373"><ele>53.0</ele><time>2026-05-01T07:20:42.778Z</time></trkpt><trkpt lat="39.7053032" lon="8.4638629"><ele>53.0</ele><time>2026-05-01T07:20:43.78Z</time></trkpt><trkpt lat="39.7051899" lon="8.463786"><ele>53.0</ele><time>2026-05-01T07:20:44.78Z</time></trkpt><trkpt lat="39.7050966" lon="8.4637234"><ele>53.0</ele><time>2026-05-01T07:20:45.779Z</time></trkpt><trkpt lat="39.7050224" lon="8.4636773"><ele>53.0</ele><time>2026-05-01T07:20:46.779Z</time></trkpt><trkpt lat="39.7049461" lon="8.4636513"><ele>54.66666666666667</ele><time>2026-05-01T07:20:47.779Z</time></trkpt><trkpt lat="39.7048649" lon="8.463629"><ele>56.333333333333336</ele><time>2026-05-01T07:20:48.779Z</time></trkpt><trkpt lat="39.7048006" lon="8.4636101"><ele>58.0</ele><time>2026-05-01T07:20:49.778Z</time></trkpt><trkpt lat="39.7047309" lon="8.4635899"><ele>59.66666666666667</ele><time>2026-05-01T07:20:50.778Z</time></trkpt><trkpt lat="39.7046626" lon="8.463563"><ele>61.333333333333336</ele><time>2026-05-01T07:20:51.779Z</time></trkpt><trkpt lat="39.7045988" lon="8.4635324"><ele>63.0</ele><time>2026-05-01T07:20:52.779Z</time></trkpt><trkpt lat="39.7044882" lon="8.4634958"><ele>63.0</ele><time>2026-05-01T07:20:54.78Z</time></trkpt><trkpt lat="39.7044201" lon="8.4634821"><ele>63.0</ele><time>2026-05-01T07:20:55.779Z</time></trkpt><trkpt lat="39.7043502" lon="8.4634739"><ele>63.0</ele><time>2026-05-01T07:20:56.78Z</time></trkpt><trkpt lat="39.7042787" lon="8.4634468"><ele>63.0</ele><time>2026-05-01T07:20:57.778Z</time></trkpt><trkpt lat="39.7041983" lon="8.4634294"><ele>63.0</ele><time>2026-05-01T07:20:58.778Z</time></trkpt><trkpt lat="39.704115" lon="8.4634126"><ele>63.0</ele><time>2026-05-01T07:20:59.779Z</time></trkpt><trkpt lat="39.7040446" lon="8.4633852"><ele>63.333333333333336</ele><time>2026-05-01T07:21:00.778Z</time></trkpt><trkpt lat="39.7039693" lon="8.4633546"><ele>63.66666666666667</ele><time>2026-05-01T07:21:01.778Z</time></trkpt><trkpt lat="39.7038982" lon="8.4633228"><ele>64.0</ele><time>2026-05-01T07:21:02.779Z</time></trkpt><trkpt lat="39.7038373" lon="8.4632802"><ele>64.33333333333334</ele><time>2026-05-01T07:21:03.779Z</time></trkpt><trkpt lat="39.7037735" lon="8.4632465"><ele>64.66666666666667</ele><time>2026-05-01T07:21:04.779Z</time></trkpt><trkpt lat="39.7036557" lon="8.4631941"><ele>65.0</ele><time>2026-05-01T07:21:06.779Z</time></trkpt><trkpt lat="39.7035421" lon="8.4631877"><ele>65.4</ele><time>2026-05-01T07:21:08.779Z</time></trkpt><trkpt lat="39.7034329" lon="8.4632318"><ele>65.8</ele><time>2026-05-01T07:21:10.779Z</time></trkpt><trkpt lat="39.7033454" lon="8.463325"><ele>66.2</ele><time>2026-05-01T07:21:12.779Z</time></trkpt><trkpt lat="39.7032905" lon="8.46339"><ele>66.6</ele><time>2026-05-01T07:21:13.779Z</time></trkpt><trkpt lat="39.7032312" lon="8.463453"><ele>67.0</ele><time>2026-05-01T07:21:14.778Z</time></trkpt><trkpt lat="39.7031689" lon="8.4635226"><ele>67.0</ele><time>2026-05-01T07:21:15.779Z</time></trkpt><trkpt lat="39.703104" lon="8.4635959"><ele>67.0</ele><time>2026-05-01T07:21:16.778Z</time></trkpt><trkpt lat="39.7030321" lon="8.4636664"><ele>67.0</ele><time>2026-05-01T07:21:17.779Z</time></trkpt><trkpt lat="39.7029588" lon="8.4637347"><ele>67.0</ele><time>2026-05-01T07:21:18.778Z</time></trkpt><trkpt lat="39.7028959" lon="8.4638001"><ele>67.0</ele><time>2026-05-01T07:21:19.779Z</time></trkpt><trkpt lat="39.7028315" lon="8.4638609"><ele>67.0</ele><time>2026-05-01T07:21:20.78Z</time></trkpt><trkpt lat="39.702777" lon="8.4639059"><ele>67.8</ele><time>2026-05-01T07:21:21.778Z</time></trkpt><trkpt lat="39.7027085" lon="8.463983"><ele>68.6</ele><time>2026-05-01T07:21:23.779Z</time></trkpt><trkpt lat="39.702677" lon="8.4640619"><ele>69.39999999999999</ele><time>2026-05-01T07:26:21.776Z</time></trkpt><trkpt lat="39.7025813" lon="8.4641976"><ele>70.2</ele><time>2026-05-01T07:26:23.776Z</time></trkpt><trkpt lat="39.7025135" lon="8.4642673"><ele>71.0</ele><time>2026-05-01T07:26:24.776Z</time></trkpt><trkpt lat="39.7024511" lon="8.4643166"><ele>71.0</ele><time>2026-05-01T07:26:25.776Z</time></trkpt><trkpt lat="39.7023848" lon="8.464353"><ele>71.0</ele><time>2026-05-01T07:26:26.777Z</time></trkpt><trkpt lat="39.702305" lon="8.4643832"><ele>71.0</ele><time>2026-05-01T07:26:27.776Z</time></trkpt><trkpt lat="39.7022192" lon="8.4644195"><ele>71.0</ele><time>2026-05-01T07:26:28.776Z</time></trkpt><trkpt lat="39.7021335" lon="8.4644627"><ele>71.0</ele><time>2026-05-01T07:26:29.776Z</time></trkpt><trkpt lat="39.7020535" lon="8.4645029"><ele>71.0</ele><time>2026-05-01T07:26:30.778Z</time></trkpt><trkpt lat="39.701969" lon="8.4645415"><ele>71.16666666666667</ele><time>2026-05-01T07:26:31.777Z</time></trkpt><trkpt lat="39.7018869" lon="8.4645686"><ele>71.33333333333334</ele><time>2026-05-01T07:26:32.777Z</time></trkpt><trkpt lat="39.7018089" lon="8.4645887"><ele>71.5</ele><time>2026-05-01T07:26:33.777Z</time></trkpt><trkpt lat="39.7017258" lon="8.4646287"><ele>71.66666666666667</ele><time>2026-05-01T07:26:34.776Z</time></trkpt><trkpt lat="39.7016346" lon="8.4646548"><ele>71.83333333333333</ele><time>2026-05-01T07:26:35.776Z</time></trkpt><trkpt lat="39.7015406" lon="8.464669"><ele>72.0</ele><time>2026-05-01T07:26:36.777Z</time></trkpt><trkpt lat="39.7014473" lon="8.464672"><ele>72.0</ele><time>2026-05-01T07:26:37.778Z</time></trkpt><trkpt lat="39.7013533" lon="8.4646813"><ele>72.0</ele><time>2026-05-01T07:26:38.778Z</time></trkpt><trkpt lat="39.7012591" lon="8.4647034"><ele>72.0</ele><time>2026-05-01T07:26:39.776Z</time></trkpt><trkpt lat="39.7011777" lon="8.4647291"><ele>72.0</ele><time>2026-05-01T07:26:40.777Z</time></trkpt><trkpt lat="39.701097" lon="8.4647721"><ele>72.0</ele><time>2026-05-01T07:26:41.777Z</time></trkpt><trkpt lat="39.7010178" lon="8.464835"><ele>72.0</ele><time>2026-05-01T07:26:42.777Z</time></trkpt><trkpt lat="39.7009385" lon="8.4649166"><ele>72.0</ele><time>2026-05-01T07:26:43.777Z</time></trkpt><trkpt lat="39.7008624" lon="8.4650056"><ele>72.0</ele><time>2026-05-01T07:26:44.778Z</time></trkpt><trkpt lat="39.7007835" lon="8.4650913"><ele>72.0</ele><time>2026-05-01T07:26:45.777Z</time></trkpt><trkpt lat="39.7007034" lon="8.465165"><ele>72.0</ele><time>2026-05-01T07:26:46.776Z</time></trkpt><trkpt lat="39.7006212" lon="8.4652443"><ele>72.0</ele><time>2026-05-01T07:26:47.776Z</time></trkpt><trkpt lat="39.7005372" lon="8.4653205"><ele>72.0</ele><time>2026-05-01T07:26:48.778Z</time></trkpt><trkpt lat="39.7004579" lon="8.4653893"><ele>72.0</ele><time>2026-05-01T07:26:49.778Z</time></trkpt><trkpt lat="39.7003805" lon="8.4654566"><ele>72.0</ele><time>2026-05-01T07:26:50.777Z</time></trkpt><trkpt lat="39.7003062" lon="8.4655153"><ele>72.0</ele><time>2026-05-01T07:26:51.777Z</time></trkpt><trkpt lat="39.7002266" lon="8.4655703"><ele>72.4</ele><time>2026-05-01T07:26:52.777Z</time></trkpt><trkpt lat="39.7001424" lon="8.4656032"><ele>72.80000000000001</ele><time>2026-05-01T07:26:53.778Z</time></trkpt><trkpt lat="39.7000513" lon="8.465615"><ele>73.2</ele><time>2026-05-01T07:26:54.777Z</time></trkpt><trkpt lat="39.6999523" lon="8.4656203"><ele>73.60000000000001</ele><time>2026-05-01T07:26:55.776Z</time></trkpt><trkpt lat="39.6998563" lon="8.4656345"><ele>74.0</ele><time>2026-05-01T07:26:56.776Z</time></trkpt><trkpt lat="39.6997717" lon="8.4656597"><ele>74.0</ele><time>2026-05-01T07:26:57.777Z</time></trkpt><trkpt lat="39.6996912" lon="8.4657015"><ele>74.0</ele><time>2026-05-01T07:26:58.776Z</time></trkpt><trkpt lat="39.6995955" lon="8.4657566"><ele>74.0</ele><time>2026-05-01T07:26:59.776Z</time></trkpt><trkpt lat="39.699504" lon="8.4658201"><ele>74.0</ele><time>2026-05-01T07:27:00.777Z</time></trkpt><trkpt lat="39.6994113" lon="8.4658774"><ele>74.0</ele><time>2026-05-01T07:27:01.777Z</time></trkpt><trkpt lat="39.6993219" lon="8.4659329"><ele>74.16666666666667</ele><time>2026-05-01T07:27:02.777Z</time></trkpt><trkpt lat="39.6992523" lon="8.4659793"><ele>74.33333333333334</ele><time>2026-05-01T07:27:03.777Z</time></trkpt><trkpt lat="39.6991993" lon="8.4660261"><ele>74.5</ele><time>2026-05-01T07:27:04.777Z</time></trkpt><trkpt lat="39.6991492" lon="8.4660974"><ele>74.66666666666667</ele><time>2026-05-01T07:27:05.777Z</time></trkpt><trkpt lat="39.6990932" lon="8.4661959"><ele>74.83333333333333</ele><time>2026-05-01T07:27:06.777Z</time></trkpt><trkpt lat="39.6990301" lon="8.466305"><ele>75.0</ele><time>2026-05-01T07:27:07.777Z</time></trkpt><trkpt lat="39.6989614" lon="8.4664224"><ele>75.0</ele><time>2026-05-01T07:27:08.777Z</time></trkpt><trkpt lat="39.6988963" lon="8.4665472"><ele>75.0</ele><time>2026-05-01T07:27:09.778Z</time></trkpt><trkpt lat="39.6988375" lon="8.466677"><ele>75.0</ele><time>2026-05-01T07:27:10.777Z</time></trkpt><trkpt lat="39.6987828" lon="8.4667953"><ele>75.0</ele><time>2026-05-01T07:27:11.778Z</time></trkpt><trkpt lat="39.6987266" lon="8.4669146"><ele>75.0</ele><time>2026-05-01T07:27:12.776Z</time></trkpt><trkpt lat="39.6986768" lon="8.4670419"><ele>74.75</ele><time>2026-05-01T07:27:13.777Z</time></trkpt><trkpt lat="39.6986242" lon="8.4671627"><ele>74.5</ele><time>2026-05-01T07:27:14.777Z</time></trkpt><trkpt lat="39.698563" lon="8.4672883"><ele>74.25</ele><time>2026-05-01T07:27:15.777Z</time></trkpt><trkpt lat="39.6984963" lon="8.4674132"><ele>74.0</ele><time>2026-05-01T07:27:16.777Z</time></trkpt><trkpt lat="39.6984341" lon="8.4675365"><ele>74.0</ele><time>2026-05-01T07:27:17.777Z</time></trkpt><trkpt lat="39.6983734" lon="8.4676592"><ele>74.0</ele><time>2026-05-01T07:27:18.777Z</time></trkpt><trkpt lat="39.6983174" lon="8.4677619"><ele>74.0</ele><time>2026-05-01T07:27:19.778Z</time></trkpt><trkpt lat="39.6982576" lon="8.4678415"><ele>74.0</ele><time>2026-05-01T07:27:20.778Z</time></trkpt><trkpt lat="39.6981882" lon="8.467894"><ele>74.0</ele><time>2026-05-01T07:27:21.777Z</time></trkpt><trkpt lat="39.6980982" lon="8.4679359"><ele>74.0</ele><time>2026-05-01T07:27:22.777Z</time></trkpt><trkpt lat="39.6979925" lon="8.4679809"><ele>74.0</ele><time>2026-05-01T07:27:23.778Z</time></trkpt><trkpt lat="39.697886" lon="8.4680283"><ele>74.0</ele><time>2026-05-01T07:27:24.777Z</time></trkpt><trkpt lat="39.6977753" lon="8.4680677"><ele>74.0</ele><time>2026-05-01T07:27:25.776Z</time></trkpt><trkpt lat="39.6976647" lon="8.4681018"><ele>76.0</ele><time>2026-05-01T07:27:26.777Z</time></trkpt><trkpt lat="39.6975502" lon="8.4681382"><ele>78.0</ele><time>2026-05-01T07:27:27.778Z</time></trkpt><trkpt lat="39.6974325" lon="8.4681873"><ele>80.0</ele><time>2026-05-01T07:27:28.778Z</time></trkpt><trkpt lat="39.6973201" lon="8.4682372"><ele>82.0</ele><time>2026-05-01T07:27:29.777Z</time></trkpt><trkpt lat="39.6972155" lon="8.4682997"><ele>82.0</ele><time>2026-05-01T07:27:30.777Z</time></trkpt><trkpt lat="39.6971109" lon="8.4683719"><ele>82.0</ele><time>2026-05-01T07:27:31.778Z</time></trkpt><trkpt lat="39.6970244" lon="8.468441"><ele>82.0</ele><time>2026-05-01T07:27:32.777Z</time></trkpt><trkpt lat="39.6969257" lon="8.4685347"><ele>82.0</ele><time>2026-05-01T07:27:33.778Z</time></trkpt><trkpt lat="39.6968244" lon="8.4686399"><ele>82.0</ele><time>2026-05-01T07:27:34.778Z</time></trkpt><trkpt lat="39.6967156" lon="8.4687421"><ele>82.0</ele><time>2026-05-01T07:27:35.778Z</time></trkpt><trkpt lat="39.6966097" lon="8.4688284"><ele>82.0</ele><time>2026-05-01T07:27:36.777Z</time></trkpt><trkpt lat="39.6965036" lon="8.4689016"><ele>82.0</ele><time>2026-05-01T07:27:37.778Z</time></trkpt><trkpt lat="39.6963944" lon="8.4689721"><ele>82.0</ele><time>2026-05-01T07:27:38.778Z</time></trkpt><trkpt lat="39.6962814" lon="8.4690412"><ele>82.0</ele><time>2026-05-01T07:27:39.776Z</time></trkpt><trkpt lat="39.696173" lon="8.4691048"><ele>82.0</ele><time>2026-05-01T07:27:40.777Z</time></trkpt><trkpt lat="39.6960722" lon="8.4691675"><ele>82.0</ele><time>2026-05-01T07:27:41.777Z</time></trkpt><trkpt lat="39.6959735" lon="8.4692477"><ele>82.0</ele><time>2026-05-01T07:27:42.777Z</time></trkpt><trkpt lat="39.6958745" lon="8.4693341"><ele>82.0</ele><time>2026-05-01T07:27:43.777Z</time></trkpt><trkpt lat="39.6957741" lon="8.4694167"><ele>82.0</ele><time>2026-05-01T07:27:44.777Z</time></trkpt><trkpt lat="39.6956774" lon="8.4695048"><ele>82.0</ele><time>2026-05-01T07:27:45.777Z</time></trkpt><trkpt lat="39.6955816" lon="8.46959"><ele>82.6</ele><time>2026-05-01T07:27:46.776Z</time></trkpt><trkpt lat="39.6954827" lon="8.4696685"><ele>83.19999999999999</ele><time>2026-05-01T07:27:47.777Z</time></trkpt><trkpt lat="39.6953927" lon="8.4697289"><ele>83.8</ele><time>2026-05-01T07:27:48.776Z</time></trkpt><trkpt lat="39.6953126" lon="8.4697762"><ele>84.4</ele><time>2026-05-01T07:27:49.777Z</time></trkpt><trkpt lat="39.695239" lon="8.4697983"><ele>85.0</ele><time>2026-05-01T07:27:50.776Z</time></trkpt><trkpt lat="39.6951482" lon="8.4698093"><ele>83.8</ele><time>2026-05-01T07:27:51.776Z</time></trkpt><trkpt lat="39.6950556" lon="8.4698141"><ele>82.6</ele><time>2026-05-01T07:27:52.777Z</time></trkpt><trkpt lat="39.6949566" lon="8.4698324"><ele>81.4</ele><time>2026-05-01T07:27:53.777Z</time></trkpt><trkpt lat="39.6948627" lon="8.4698432"><ele>80.2</ele><time>2026-05-01T07:27:54.776Z</time></trkpt><trkpt lat="39.6947827" lon="8.4698309"><ele>79.0</ele><time>2026-05-01T07:27:55.776Z</time></trkpt><trkpt lat="39.69469" lon="8.469792"><ele>79.0</ele><time>2026-05-01T07:27:56.776Z</time></trkpt><trkpt lat="39.6945952" lon="8.4697436"><ele>79.0</ele><time>2026-05-01T07:27:57.777Z</time></trkpt><trkpt lat="39.6945086" lon="8.4697155"><ele>79.0</ele><time>2026-05-01T07:27:58.778Z</time></trkpt><trkpt lat="39.6944263" lon="8.4697023"><ele>79.0</ele><time>2026-05-01T07:27:59.776Z</time></trkpt><trkpt lat="39.694349" lon="8.4697099"><ele>79.0</ele><time>2026-05-01T07:28:00.776Z</time></trkpt><trkpt lat="39.6942835" lon="8.4697221"><ele>79.0</ele><time>2026-05-01T07:28:01.777Z</time></trkpt><trkpt lat="39.6942124" lon="8.4697242"><ele>79.0</ele><time>2026-05-01T07:28:02.777Z</time></trkpt><trkpt lat="39.6941448" lon="8.4697042"><ele>79.0</ele><time>2026-05-01T07:28:03.777Z</time></trkpt><trkpt lat="39.6940701" lon="8.4696715"><ele>79.0</ele><time>2026-05-01T07:28:04.778Z</time></trkpt><trkpt lat="39.6939864" lon="8.4696364"><ele>79.0</ele><time>2026-05-01T07:28:05.778Z</time></trkpt><trkpt lat="39.6939067" lon="8.4695849"><ele>79.0</ele><time>2026-05-01T07:28:06.777Z</time></trkpt><trkpt lat="39.6938149" lon="8.4695197"><ele>79.0</ele><time>2026-05-01T07:28:07.777Z</time></trkpt><trkpt lat="39.6937233" lon="8.4694503"><ele>78.4</ele><time>2026-05-01T07:28:08.776Z</time></trkpt><trkpt lat="39.6936272" lon="8.4693809"><ele>77.80000000000001</ele><time>2026-05-01T07:28:09.777Z</time></trkpt><trkpt lat="39.6935391" lon="8.4693167"><ele>77.19999999999999</ele><time>2026-05-01T07:28:10.777Z</time></trkpt><trkpt lat="39.6934468" lon="8.4692583"><ele>76.6</ele><time>2026-05-01T07:28:11.777Z</time></trkpt><trkpt lat="39.6933556" lon="8.4691889"><ele>76.0</ele><time>2026-05-01T07:28:12.776Z</time></trkpt><trkpt lat="39.6932687" lon="8.4691139"><ele>76.0</ele><time>2026-05-01T07:28:13.777Z</time></trkpt><trkpt lat="39.6931873" lon="8.4690455"><ele>76.0</ele><time>2026-05-01T07:28:14.778Z</time></trkpt><trkpt lat="39.6931082" lon="8.4689798"><ele>76.0</ele><time>2026-05-01T07:28:15.776Z</time></trkpt><trkpt lat="39.6930254" lon="8.4689145"><ele>76.0</ele><time>2026-05-01T07:28:16.777Z</time></trkpt><trkpt lat="39.69295" lon="8.4688542"><ele>76.0</ele><time>2026-05-01T07:28:17.777Z</time></trkpt><trkpt lat="39.6928685" lon="8.4687781"><ele>76.39999999999999</ele><time>2026-05-01T07:28:18.777Z</time></trkpt><trkpt lat="39.692793" lon="8.4686952"><ele>76.8</ele><time>2026-05-01T07:28:19.778Z</time></trkpt><trkpt lat="39.6927158" lon="8.4686118"><ele>77.19999999999999</ele><time>2026-05-01T07:28:20.776Z</time></trkpt><trkpt lat="39.6926375" lon="8.4685509"><ele>77.6</ele><time>2026-05-01T07:28:21.778Z</time></trkpt><trkpt lat="39.6925525" lon="8.468518"><ele>78.0</ele><time>2026-05-01T07:28:22.777Z</time></trkpt><trkpt lat="39.6924665" lon="8.4685013"><ele>78.8</ele><time>2026-05-01T07:28:23.778Z</time></trkpt><trkpt lat="39.6923784" lon="8.4684947"><ele>79.6</ele><time>2026-05-01T07:28:24.776Z</time></trkpt><trkpt lat="39.6922855" lon="8.4685066"><ele>80.39999999999999</ele><time>2026-05-01T07:28:25.776Z</time></trkpt><trkpt lat="39.6921775" lon="8.4685182"><ele>81.19999999999999</ele><time>2026-05-01T07:28:26.776Z</time></trkpt><trkpt lat="39.6920717" lon="8.46853"><ele>82.0</ele><time>2026-05-01T07:28:27.777Z</time></trkpt><trkpt lat="39.6919647" lon="8.4685472"><ele>82.6</ele><time>2026-05-01T07:28:28.778Z</time></trkpt><trkpt lat="39.6918636" lon="8.4685665"><ele>83.19999999999999</ele><time>2026-05-01T07:28:29.778Z</time></trkpt><trkpt lat="39.6917661" lon="8.4686021"><ele>83.8</ele><time>2026-05-01T07:28:30.777Z</time></trkpt><trkpt lat="39.6916582" lon="8.4686535"><ele>84.4</ele><time>2026-05-01T07:28:31.776Z</time></trkpt><trkpt lat="39.6915619" lon="8.4687002"><ele>85.0</ele><time>2026-05-01T07:28:32.777Z</time></trkpt><trkpt lat="39.6914852" lon="8.4687286"><ele>84.0</ele><time>2026-05-01T07:28:33.777Z</time></trkpt><trkpt lat="39.6913798" lon="8.4687855"><ele>83.0</ele><time>2026-05-01T07:28:35.777Z</time></trkpt><trkpt lat="39.69129" lon="8.4688961"><ele>82.0</ele><time>2026-05-01T07:28:37.777Z</time></trkpt><trkpt lat="39.6912393" lon="8.4689674"><ele>81.0</ele><time>2026-05-01T07:28:38.776Z</time></trkpt><trkpt lat="39.6911803" lon="8.4690443"><ele>80.0</ele><time>2026-05-01T07:28:39.776Z</time></trkpt><trkpt lat="39.6911128" lon="8.4691278"><ele>80.4</ele><time>2026-05-01T07:28:40.777Z</time></trkpt><trkpt lat="39.6910507" lon="8.4692009"><ele>80.8</ele><time>2026-05-01T07:28:41.776Z</time></trkpt><trkpt lat="39.6909887" lon="8.4692773"><ele>81.19999999999999</ele><time>2026-05-01T07:28:42.777Z</time></trkpt><trkpt lat="39.6909284" lon="8.4693585"><ele>81.6</ele><time>2026-05-01T07:28:43.777Z</time></trkpt><trkpt lat="39.6908634" lon="8.4694499"><ele>82.0</ele><time>2026-05-01T07:28:44.777Z</time></trkpt><trkpt lat="39.6908019" lon="8.4695516"><ele>82.0</ele><time>2026-05-01T07:28:45.777Z</time></trkpt><trkpt lat="39.6907429" lon="8.4696619"><ele>82.0</ele><time>2026-05-01T07:28:46.777Z</time></trkpt><trkpt lat="39.6906955" lon="8.4697617"><ele>82.0</ele><time>2026-05-01T07:28:47.778Z</time></trkpt><trkpt lat="39.6906655" lon="8.4698557"><ele>82.0</ele><time>2026-05-01T07:28:48.778Z</time></trkpt><trkpt lat="39.690634" lon="8.469943"><ele>82.0</ele><time>2026-05-01T07:28:49.777Z</time></trkpt><trkpt lat="39.6906203" lon="8.4700779"><ele>82.0</ele><time>2026-05-01T07:28:51.777Z</time></trkpt><trkpt lat="39.6906384" lon="8.4701648"><ele>82.0</ele><time>2026-05-01T07:28:53.778Z</time></trkpt><trkpt lat="39.690621" lon="8.4702973"><ele>82.0</ele><time>2026-05-01T07:28:57.776Z</time></trkpt><trkpt lat="39.6906015" lon="8.4703761"><ele>82.0</ele><time>2026-05-01T07:28:58.778Z</time></trkpt><trkpt lat="39.6905869" lon="8.4704709"><ele>82.0</ele><time>2026-05-01T07:28:59.778Z</time></trkpt><trkpt lat="39.690574" lon="8.4705833"><ele>82.0</ele><time>2026-05-01T07:29:00.777Z</time></trkpt><trkpt lat="39.6905606" lon="8.4707054"><ele>82.19999999999999</ele><time>2026-05-01T07:29:01.777Z</time></trkpt><trkpt lat="39.6905441" lon="8.4708325"><ele>82.4</ele><time>2026-05-01T07:29:02.777Z</time></trkpt><trkpt lat="39.6905206" lon="8.4709639"><ele>82.6</ele><time>2026-05-01T07:29:03.777Z</time></trkpt><trkpt lat="39.6904865" lon="8.4710896"><ele>82.80000000000001</ele><time>2026-05-01T07:29:04.778Z</time></trkpt><trkpt lat="39.6904369" lon="8.471213"><ele>83.0</ele><time>2026-05-01T07:29:05.777Z</time></trkpt><trkpt lat="39.6903748" lon="8.4713351"><ele>83.0</ele><time>2026-05-01T07:29:06.777Z</time></trkpt><trkpt lat="39.6903006" lon="8.4714611"><ele>83.0</ele><time>2026-05-01T07:29:07.777Z</time></trkpt><trkpt lat="39.6902222" lon="8.4715909"><ele>83.0</ele><time>2026-05-01T07:29:08.776Z</time></trkpt><trkpt lat="39.6901434" lon="8.4717227"><ele>83.0</ele><time>2026-05-01T07:29:09.777Z</time></trkpt><trkpt lat="39.6900727" lon="8.4718528"><ele>84.5</ele><time>2026-05-01T07:29:10.776Z</time></trkpt><trkpt lat="39.6900101" lon="8.4720028"><ele>86.0</ele><time>2026-05-01T07:29:11.777Z</time></trkpt><trkpt lat="39.6899544" lon="8.4721621"><ele>87.5</ele><time>2026-05-01T07:29:12.776Z</time></trkpt><trkpt lat="39.6898973" lon="8.4723253"><ele>89.0</ele><time>2026-05-01T07:29:13.777Z</time></trkpt><trkpt lat="39.6898392" lon="8.4724893"><ele>89.25</ele><time>2026-05-01T07:29:14.776Z</time></trkpt><trkpt lat="39.6897845" lon="8.4726552"><ele>89.5</ele><time>2026-05-01T07:29:15.777Z</time></trkpt><trkpt lat="39.689733" lon="8.4728251"><ele>89.75</ele><time>2026-05-01T07:29:16.778Z</time></trkpt><trkpt lat="39.6896849" lon="8.4729949"><ele>90.0</ele><time>2026-05-01T07:29:17.776Z</time></trkpt><trkpt lat="39.6896446" lon="8.473166"><ele>90.25</ele><time>2026-05-01T07:29:18.776Z</time></trkpt><trkpt lat="39.6896066" lon="8.4733343"><ele>90.5</ele><time>2026-05-01T07:29:19.776Z</time></trkpt><trkpt lat="39.6895667" lon="8.4735011"><ele>90.75</ele><time>2026-05-01T07:29:20.776Z</time></trkpt><trkpt lat="39.6895298" lon="8.4736726"><ele>91.0</ele><time>2026-05-01T07:29:21.775Z</time></trkpt><trkpt lat="39.689504" lon="8.4738508"><ele>91.5</ele><time>2026-05-01T07:29:22.775Z</time></trkpt><trkpt lat="39.6894854" lon="8.4740303"><ele>92.0</ele><time>2026-05-01T07:29:23.775Z</time></trkpt><trkpt lat="39.6894669" lon="8.4742134"><ele>92.5</ele><time>2026-05-01T07:29:24.776Z</time></trkpt><trkpt lat="39.689449" lon="8.4744018"><ele>93.0</ele><time>2026-05-01T07:29:25.776Z</time></trkpt><trkpt lat="39.6894345" lon="8.4745923"><ele>94.25</ele><time>2026-05-01T07:29:26.775Z</time></trkpt><trkpt lat="39.6894173" lon="8.4747821"><ele>95.5</ele><time>2026-05-01T07:29:27.775Z</time></trkpt><trkpt lat="39.6894008" lon="8.4749665"><ele>96.75</ele><time>2026-05-01T07:29:28.775Z</time></trkpt><trkpt lat="39.6893797" lon="8.4751475"><ele>98.0</ele><time>2026-05-01T07:29:29.775Z</time></trkpt><trkpt lat="39.6893648" lon="8.4753337"><ele>98.5</ele><time>2026-05-01T07:29:30.775Z</time></trkpt><trkpt lat="39.6893493" lon="8.475524"><ele>99.0</ele><time>2026-05-01T07:29:31.775Z</time></trkpt><trkpt lat="39.6893333" lon="8.4757143"><ele>99.5</ele><time>2026-05-01T07:29:32.776Z</time></trkpt><trkpt lat="39.6893176" lon="8.4759017"><ele>100.0</ele><time>2026-05-01T07:29:33.776Z</time></trkpt><trkpt lat="39.6893081" lon="8.476083"><ele>100.0</ele><time>2026-05-01T07:29:34.777Z</time></trkpt><trkpt lat="39.6893146" lon="8.4762568"><ele>100.0</ele><time>2026-05-01T07:29:35.776Z</time></trkpt><trkpt lat="39.6893276" lon="8.4764238"><ele>100.0</ele><time>2026-05-01T07:29:36.775Z</time></trkpt><trkpt lat="39.6893309" lon="8.4765806"><ele>100.0</ele><time>2026-05-01T07:29:37.776Z</time></trkpt><trkpt lat="39.6893202" lon="8.4767175"><ele>99.5</ele><time>2026-05-01T07:29:38.777Z</time></trkpt><trkpt lat="39.6892979" lon="8.4768368"><ele>99.0</ele><time>2026-05-01T07:29:39.775Z</time></trkpt><trkpt lat="39.6892556" lon="8.4769624"><ele>98.5</ele><time>2026-05-01T07:29:40.775Z</time></trkpt><trkpt lat="39.6891999" lon="8.4771035"><ele>98.0</ele><time>2026-05-01T07:29:41.777Z</time></trkpt><trkpt lat="39.689126" lon="8.4772592"><ele>99.5</ele><time>2026-05-01T07:29:42.775Z</time></trkpt><trkpt lat="39.6890542" lon="8.4774246"><ele>101.0</ele><time>2026-05-01T07:29:43.777Z</time></trkpt><trkpt lat="39.6889881" lon="8.4775919"><ele>102.5</ele><time>2026-05-01T07:29:44.776Z</time></trkpt><trkpt lat="39.6889273" lon="8.4777468"><ele>104.0</ele><time>2026-05-01T07:29:45.776Z</time></trkpt><trkpt lat="39.6888732" lon="8.4778746"><ele>104.0</ele><time>2026-05-01T07:29:46.776Z</time></trkpt><trkpt lat="39.688808" lon="8.4779859"><ele>104.0</ele><time>2026-05-01T07:29:47.777Z</time></trkpt><trkpt lat="39.6887248" lon="8.4780933"><ele>104.0</ele><time>2026-05-01T07:29:48.777Z</time></trkpt><trkpt lat="39.6886326" lon="8.4782057"><ele>104.0</ele><time>2026-05-01T07:29:49.775Z</time></trkpt><trkpt lat="39.6885373" lon="8.4783288"><ele>104.0</ele><time>2026-05-01T07:29:50.775Z</time></trkpt><trkpt lat="39.6884407" lon="8.4784599"><ele>104.0</ele><time>2026-05-01T07:29:51.776Z</time></trkpt><trkpt lat="39.6883455" lon="8.4786005"><ele>104.0</ele><time>2026-05-01T07:29:52.777Z</time></trkpt><trkpt lat="39.6882551" lon="8.4787496"><ele>104.0</ele><time>2026-05-01T07:29:53.776Z</time></trkpt><trkpt lat="39.6881669" lon="8.4788998"><ele>105.66666666666666</ele><time>2026-05-01T07:29:54.776Z</time></trkpt><trkpt lat="39.6880755" lon="8.4790486"><ele>107.33333333333334</ele><time>2026-05-01T07:29:55.777Z</time></trkpt><trkpt lat="39.6879848" lon="8.4792047"><ele>109.0</ele><time>2026-05-01T07:29:56.775Z</time></trkpt><trkpt lat="39.687895" lon="8.4793683"><ele>109.0</ele><time>2026-05-01T07:29:57.775Z</time></trkpt><trkpt lat="39.6878078" lon="8.4795329"><ele>109.0</ele><time>2026-05-01T07:29:58.775Z</time></trkpt><trkpt lat="39.6877271" lon="8.479682"><ele>109.0</ele><time>2026-05-01T07:29:59.776Z</time></trkpt><trkpt lat="39.6876475" lon="8.4798073"><ele>109.0</ele><time>2026-05-01T07:30:00.777Z</time></trkpt><trkpt lat="39.6875614" lon="8.4799103"><ele>108.5</ele><time>2026-05-01T07:30:01.775Z</time></trkpt><trkpt lat="39.6874701" lon="8.4800111"><ele>108.0</ele><time>2026-05-01T07:30:02.776Z</time></trkpt><trkpt lat="39.6873783" lon="8.4801077"><ele>107.5</ele><time>2026-05-01T07:30:03.777Z</time></trkpt><trkpt lat="39.6872997" lon="8.4802111"><ele>107.0</ele><time>2026-05-01T07:30:04.776Z</time></trkpt><trkpt lat="39.6872324" lon="8.4803194"><ele>108.0</ele><time>2026-05-01T07:30:05.776Z</time></trkpt><trkpt lat="39.6871731" lon="8.4804432"><ele>109.0</ele><time>2026-05-01T07:30:06.776Z</time></trkpt><trkpt lat="39.6871195" lon="8.4806022"><ele>110.0</ele><time>2026-05-01T07:30:07.776Z</time></trkpt><trkpt lat="39.687063" lon="8.4807753"><ele>111.0</ele><time>2026-05-01T07:30:08.775Z</time></trkpt><trkpt lat="39.687007" lon="8.4809278"><ele>111.0</ele><time>2026-05-01T07:30:09.776Z</time></trkpt><trkpt lat="39.6869498" lon="8.4810736"><ele>111.0</ele><time>2026-05-01T07:30:10.775Z</time></trkpt><trkpt lat="39.6868946" lon="8.4811936"><ele>111.0</ele><time>2026-05-01T07:30:11.775Z</time></trkpt><trkpt lat="39.6868346" lon="8.481285"><ele>111.0</ele><time>2026-05-01T07:30:12.776Z</time></trkpt><trkpt lat="39.6867578" lon="8.4813623"><ele>111.0</ele><time>2026-05-01T07:30:13.775Z</time></trkpt><trkpt lat="39.6866597" lon="8.4814389"><ele>110.0</ele><time>2026-05-01T07:30:14.777Z</time></trkpt><trkpt lat="39.6865489" lon="8.4815169"><ele>109.0</ele><time>2026-05-01T07:30:15.775Z</time></trkpt><trkpt lat="39.6864331" lon="8.4815971"><ele>108.0</ele><time>2026-05-01T07:30:16.776Z</time></trkpt><trkpt lat="39.6863148" lon="8.4816808"><ele>107.0</ele><time>2026-05-01T07:30:17.775Z</time></trkpt><trkpt lat="39.6862029" lon="8.481763"><ele>107.0</ele><time>2026-05-01T07:30:18.776Z</time></trkpt><trkpt lat="39.6860953" lon="8.4818453"><ele>107.0</ele><time>2026-05-01T07:30:19.776Z</time></trkpt><trkpt lat="39.6859881" lon="8.4819209"><ele>107.0</ele><time>2026-05-01T07:30:20.776Z</time></trkpt><trkpt lat="39.6858854" lon="8.4819975"><ele>107.0</ele><time>2026-05-01T07:30:21.776Z</time></trkpt><trkpt lat="39.6857823" lon="8.4820974"><ele>108.5</ele><time>2026-05-01T07:30:22.776Z</time></trkpt><trkpt lat="39.6856838" lon="8.4822112"><ele>110.0</ele><time>2026-05-01T07:30:23.775Z</time></trkpt><trkpt lat="39.6855841" lon="8.4823335"><ele>111.5</ele><time>2026-05-01T07:30:24.777Z</time></trkpt><trkpt lat="39.6854802" lon="8.4824498"><ele>113.0</ele><time>2026-05-01T07:30:25.776Z</time></trkpt><trkpt lat="39.6853732" lon="8.4825648"><ele>113.0</ele><time>2026-05-01T07:30:26.775Z</time></trkpt><trkpt lat="39.6852678" lon="8.4826812"><ele>113.0</ele><time>2026-05-01T07:30:27.777Z</time></trkpt><trkpt lat="39.685165" lon="8.482803"><ele>113.0</ele><time>2026-05-01T07:30:28.777Z</time></trkpt><trkpt lat="39.6850665" lon="8.4829272"><ele>113.0</ele><time>2026-05-01T07:30:29.775Z</time></trkpt><trkpt lat="39.6849748" lon="8.4830572"><ele>113.5</ele><time>2026-05-01T07:30:30.776Z</time></trkpt><trkpt lat="39.6848879" lon="8.483195"><ele>114.0</ele><time>2026-05-01T07:30:31.776Z</time></trkpt><trkpt lat="39.6848051" lon="8.483339"><ele>114.5</ele><time>2026-05-01T07:30:32.776Z</time></trkpt><trkpt lat="39.6847212" lon="8.4834846"><ele>115.0</ele><time>2026-05-01T07:30:33.776Z</time></trkpt><trkpt lat="39.6846385" lon="8.4836338"><ele>115.5</ele><time>2026-05-01T07:30:34.776Z</time></trkpt><trkpt lat="39.6845544" lon="8.4837872"><ele>116.0</ele><time>2026-05-01T07:30:35.776Z</time></trkpt><trkpt lat="39.6844691" lon="8.4839426"><ele>116.5</ele><time>2026-05-01T07:30:36.776Z</time></trkpt><trkpt lat="39.6843788" lon="8.4840979"><ele>117.0</ele><time>2026-05-01T07:30:37.776Z</time></trkpt><trkpt lat="39.684286" lon="8.4842487"><ele>117.0</ele><time>2026-05-01T07:30:38.776Z</time></trkpt><trkpt lat="39.6841894" lon="8.4843968"><ele>117.0</ele><time>2026-05-01T07:30:39.776Z</time></trkpt><trkpt lat="39.6840925" lon="8.4845341"><ele>117.0</ele><time>2026-05-01T07:30:40.777Z</time></trkpt><trkpt lat="39.6839911" lon="8.4846582"><ele>117.0</ele><time>2026-05-01T07:30:41.776Z</time></trkpt><trkpt lat="39.683881" lon="8.4847538"><ele>117.25</ele><time>2026-05-01T07:30:42.777Z</time></trkpt><trkpt lat="39.6837684" lon="8.4848386"><ele>117.5</ele><time>2026-05-01T07:30:43.775Z</time></trkpt><trkpt lat="39.6836569" lon="8.4849343"><ele>117.75</ele><time>2026-05-01T07:30:44.776Z</time></trkpt><trkpt lat="39.6835462" lon="8.4850419"><ele>118.0</ele><time>2026-05-01T07:30:45.776Z</time></trkpt><trkpt lat="39.6834361" lon="8.4851563"><ele>118.0</ele><time>2026-05-01T07:30:46.777Z</time></trkpt><trkpt lat="39.6833297" lon="8.4852627"><ele>118.00000000000001</ele><time>2026-05-01T07:30:47.776Z</time></trkpt><trkpt lat="39.6832306" lon="8.4853596"><ele>118.00000000000001</ele><time>2026-05-01T07:30:48.776Z</time></trkpt><trkpt lat="39.6831465" lon="8.4854436"><ele>118.0</ele><time>2026-05-01T07:30:49.775Z</time></trkpt><trkpt lat="39.683088" lon="8.4854949"><ele>118.0</ele><time>2026-05-01T07:30:50.777Z</time></trkpt><trkpt lat="39.6830031" lon="8.4855216"><ele>118.0</ele><time>2026-05-01T07:30:52.776Z</time></trkpt><trkpt lat="39.6829128" lon="8.4854298"><ele>118.00000000000001</ele><time>2026-05-01T07:30:54.775Z</time></trkpt><trkpt lat="39.6828565" lon="8.485333"><ele>118.00000000000001</ele><time>2026-05-01T07:30:55.775Z</time></trkpt><trkpt lat="39.6827897" lon="8.4852466"><ele>118.0</ele><time>2026-05-01T07:30:56.775Z</time></trkpt><trkpt lat="39.6827143" lon="8.485183"><ele>118.0</ele><time>2026-05-01T07:30:57.777Z</time></trkpt><trkpt lat="39.68261" lon="8.4851483"><ele>118.4</ele><time>2026-05-01T07:30:59.776Z</time></trkpt><trkpt lat="39.6825153" lon="8.4852265"><ele>118.80000000000001</ele><time>2026-05-01T07:31:01.776Z</time></trkpt><trkpt lat="39.6824683" lon="8.4853196"><ele>119.2</ele><time>2026-05-01T07:31:02.776Z</time></trkpt><trkpt lat="39.6824164" lon="8.4854074"><ele>119.6</ele><time>2026-05-01T07:31:03.776Z</time></trkpt><trkpt lat="39.6823621" lon="8.4855099"><ele>120.0</ele><time>2026-05-01T07:31:04.775Z</time></trkpt><trkpt lat="39.6823068" lon="8.4856156"><ele>120.66666666666667</ele><time>2026-05-01T07:31:05.776Z</time></trkpt><trkpt lat="39.6822643" lon="8.4856956"><ele>121.33333333333334</ele><time>2026-05-01T07:31:06.776Z</time></trkpt><trkpt lat="39.6822307" lon="8.4857663"><ele>122.0</ele><time>2026-05-01T07:31:07.776Z</time></trkpt><trkpt lat="39.6821565" lon="8.4858714"><ele>122.66666666666667</ele><time>2026-05-01T07:31:09.776Z</time></trkpt><trkpt lat="39.6820556" lon="8.4859282"><ele>123.33333333333334</ele><time>2026-05-01T07:31:11.777Z</time></trkpt><trkpt lat="39.6819888" lon="8.4859499"><ele>124.0</ele><time>2026-05-01T07:31:12.777Z</time></trkpt><trkpt lat="39.6819298" lon="8.4859881"><ele>124.57142857142858</ele><time>2026-05-01T07:31:13.776Z</time></trkpt><trkpt lat="39.6818788" lon="8.4860453"><ele>125.14285714285715</ele><time>2026-05-01T07:31:14.776Z</time></trkpt><trkpt lat="39.6818345" lon="8.4861127"><ele>125.71428571428572</ele><time>2026-05-01T07:31:15.777Z</time></trkpt><trkpt lat="39.6817952" lon="8.4861918"><ele>126.28571428571428</ele><time>2026-05-01T07:31:16.776Z</time></trkpt><trkpt lat="39.6817585" lon="8.486286"><ele>126.85714285714285</ele><time>2026-05-01T07:31:17.775Z</time></trkpt><trkpt lat="39.6817196" lon="8.4863764"><ele>127.42857142857142</ele><time>2026-05-01T07:31:18.775Z</time></trkpt><trkpt lat="39.681674" lon="8.4864624"><ele>128.0</ele><time>2026-05-01T07:31:19.777Z</time></trkpt><trkpt lat="39.6816167" lon="8.4865531"><ele>128.33333333333331</ele><time>2026-05-01T07:31:20.777Z</time></trkpt><trkpt lat="39.681555" lon="8.4866427"><ele>128.66666666666666</ele><time>2026-05-01T07:31:21.776Z</time></trkpt><trkpt lat="39.6814993" lon="8.4867325"><ele>129.0</ele><time>2026-05-01T07:31:22.775Z</time></trkpt><trkpt lat="39.6814437" lon="8.4868101"><ele>129.33333333333334</ele><time>2026-05-01T07:31:23.775Z</time></trkpt><trkpt lat="39.6813883" lon="8.4868689"><ele>129.66666666666669</ele><time>2026-05-01T07:31:24.777Z</time></trkpt><trkpt lat="39.6813238" lon="8.4869159"><ele>130.0</ele><time>2026-05-01T07:31:25.776Z</time></trkpt><trkpt lat="39.6812564" lon="8.4869497"><ele>130.0</ele><time>2026-05-01T07:31:26.777Z</time></trkpt><trkpt lat="39.68119" lon="8.4869839"><ele>130.0</ele><time>2026-05-01T07:31:27.775Z</time></trkpt><trkpt lat="39.6811284" lon="8.4870259"><ele>130.0</ele><time>2026-05-01T07:31:28.776Z</time></trkpt><trkpt lat="39.6810691" lon="8.4870784"><ele>130.0</ele><time>2026-05-01T07:31:29.776Z</time></trkpt><trkpt lat="39.6810047" lon="8.4871475"><ele>130.0</ele><time>2026-05-01T07:31:30.775Z</time></trkpt><trkpt lat="39.6809412" lon="8.4872199"><ele>130.0</ele><time>2026-05-01T07:31:31.775Z</time></trkpt><trkpt lat="39.6808693" lon="8.4872944"><ele>129.8</ele><time>2026-05-01T07:31:32.776Z</time></trkpt><trkpt lat="39.680795" lon="8.487371"><ele>129.6</ele><time>2026-05-01T07:31:33.776Z</time></trkpt><trkpt lat="39.6807286" lon="8.4874489"><ele>129.4</ele><time>2026-05-01T07:31:34.776Z</time></trkpt><trkpt lat="39.6806694" lon="8.4875331"><ele>129.2</ele><time>2026-05-01T07:31:35.777Z</time></trkpt><trkpt lat="39.6806038" lon="8.4876179"><ele>129.0</ele><time>2026-05-01T07:31:36.776Z</time></trkpt><trkpt lat="39.6805456" lon="8.4876984"><ele>129.0</ele><time>2026-05-01T07:31:37.775Z</time></trkpt><trkpt lat="39.6804957" lon="8.487776"><ele>129.0</ele><time>2026-05-01T07:31:38.775Z</time></trkpt><trkpt lat="39.6804519" lon="8.4878491"><ele>129.0</ele><time>2026-05-01T07:31:39.776Z</time></trkpt><trkpt lat="39.6804092" lon="8.4879346"><ele>129.0</ele><time>2026-05-01T07:31:40.776Z</time></trkpt><trkpt lat="39.6803678" lon="8.4880234"><ele>129.0</ele><time>2026-05-01T07:31:41.776Z</time></trkpt><trkpt lat="39.6803233" lon="8.4881097"><ele>129.0</ele><time>2026-05-01T07:31:42.776Z</time></trkpt><trkpt lat="39.680275" lon="8.4881866"><ele>129.5</ele><time>2026-05-01T07:31:43.776Z</time></trkpt><trkpt lat="39.6802217" lon="8.4882563"><ele>130.0</ele><time>2026-05-01T07:31:44.776Z</time></trkpt><trkpt lat="39.6801632" lon="8.4883292"><ele>130.5</ele><time>2026-05-01T07:31:45.777Z</time></trkpt><trkpt lat="39.680101" lon="8.4884"><ele>131.0</ele><time>2026-05-01T07:31:46.776Z</time></trkpt><trkpt lat="39.6800495" lon="8.488468"><ele>131.5</ele><time>2026-05-01T07:31:47.776Z</time></trkpt><trkpt lat="39.6799953" lon="8.4885496"><ele>132.0</ele><time>2026-05-01T07:31:48.775Z</time></trkpt><trkpt lat="39.6799375" lon="8.4886237"><ele>132.0</ele><time>2026-05-01T07:31:49.776Z</time></trkpt><trkpt lat="39.6798746" lon="8.4886869"><ele>132.0</ele><time>2026-05-01T07:31:50.776Z</time></trkpt><trkpt lat="39.6798098" lon="8.4887444"><ele>132.0</ele><time>2026-05-01T07:31:51.776Z</time></trkpt><trkpt lat="39.6797381" lon="8.488814"><ele>132.0</ele><time>2026-05-01T07:31:52.776Z</time></trkpt><trkpt lat="39.6796732" lon="8.488882"><ele>132.0</ele><time>2026-05-01T07:31:53.776Z</time></trkpt><trkpt lat="39.6796136" lon="8.4889456"><ele>132.0</ele><time>2026-05-01T07:31:54.776Z</time></trkpt><trkpt lat="39.6795577" lon="8.4890145"><ele>131.57142857142856</ele><time>2026-05-01T07:31:55.776Z</time></trkpt><trkpt lat="39.6795085" lon="8.4890878"><ele>131.14285714285714</ele><time>2026-05-01T07:31:56.776Z</time></trkpt><trkpt lat="39.6794656" lon="8.489169"><ele>130.71428571428572</ele><time>2026-05-01T07:31:57.777Z</time></trkpt><trkpt lat="39.6794175" lon="8.4892325"><ele>130.28571428571428</ele><time>2026-05-01T07:31:58.777Z</time></trkpt><trkpt lat="39.6793631" lon="8.4892825"><ele>129.85714285714286</ele><time>2026-05-01T07:31:59.775Z</time></trkpt><trkpt lat="39.6792992" lon="8.4893213"><ele>129.42857142857142</ele><time>2026-05-01T07:32:00.775Z</time></trkpt><trkpt lat="39.6792292" lon="8.4893481"><ele>129.0</ele><time>2026-05-01T07:32:01.775Z</time></trkpt><trkpt lat="39.6791524" lon="8.4893634"><ele>130.2</ele><time>2026-05-01T07:32:02.775Z</time></trkpt><trkpt lat="39.6790802" lon="8.4893743"><ele>131.4</ele><time>2026-05-01T07:32:03.775Z</time></trkpt><trkpt lat="39.6790159" lon="8.4893931"><ele>132.6</ele><time>2026-05-01T07:32:04.775Z</time></trkpt><trkpt lat="39.6789133" lon="8.489481"><ele>133.8</ele><time>2026-05-01T07:32:06.776Z</time></trkpt><trkpt lat="39.6788056" lon="8.4895592"><ele>135.0</ele><time>2026-05-01T07:32:08.776Z</time></trkpt><trkpt lat="39.6787058" lon="8.489627"><ele>135.14285714285714</ele><time>2026-05-01T07:32:10.777Z</time></trkpt><trkpt lat="39.6786629" lon="8.4896924"><ele>135.28571428571428</ele><time>2026-05-01T07:32:11.776Z</time></trkpt><trkpt lat="39.6786197" lon="8.4897696"><ele>135.42857142857142</ele><time>2026-05-01T07:32:12.776Z</time></trkpt><trkpt lat="39.6785758" lon="8.4898402"><ele>135.57142857142856</ele><time>2026-05-01T07:32:13.775Z</time></trkpt><trkpt lat="39.678527" lon="8.489915"><ele>135.71428571428572</ele><time>2026-05-01T07:32:14.776Z</time></trkpt><trkpt lat="39.67847" lon="8.4899877"><ele>135.85714285714283</ele><time>2026-05-01T07:32:15.775Z</time></trkpt><trkpt lat="39.6784109" lon="8.4900599"><ele>136.0</ele><time>2026-05-01T07:32:16.776Z</time></trkpt><trkpt lat="39.6783529" lon="8.4901269"><ele>136.83333333333334</ele><time>2026-05-01T07:32:17.775Z</time></trkpt><trkpt lat="39.6782855" lon="8.4901902"><ele>137.66666666666669</ele><time>2026-05-01T07:32:18.776Z</time></trkpt><trkpt lat="39.6782108" lon="8.4902541"><ele>138.5</ele><time>2026-05-01T07:32:19.775Z</time></trkpt><trkpt lat="39.6781461" lon="8.4903084"><ele>139.33333333333334</ele><time>2026-05-01T07:32:20.775Z</time></trkpt><trkpt lat="39.6780907" lon="8.49037"><ele>140.16666666666666</ele><time>2026-05-01T07:32:21.776Z</time></trkpt><trkpt lat="39.6780333" lon="8.4904332"><ele>141.0</ele><time>2026-05-01T07:32:22.777Z</time></trkpt><trkpt lat="39.6779747" lon="8.4904943"><ele>141.0</ele><time>2026-05-01T07:32:23.775Z</time></trkpt><trkpt lat="39.6778903" lon="8.4906132"><ele>141.0</ele><time>2026-05-01T07:32:25.777Z</time></trkpt><trkpt lat="39.6778457" lon="8.4907543"><ele>141.0</ele><time>2026-05-01T07:32:27.776Z</time></trkpt><trkpt lat="39.6778521" lon="8.4909168"><ele>141.0</ele><time>2026-05-01T07:32:29.777Z</time></trkpt><trkpt lat="39.6778414" lon="8.491056"><ele>141.0</ele><time>2026-05-01T07:32:31.776Z</time></trkpt><trkpt lat="39.6777788" lon="8.4911599"><ele>141.0</ele><time>2026-05-01T07:32:33.777Z</time></trkpt><trkpt lat="39.6776691" lon="8.4912156"><ele>141.0</ele><time>2026-05-01T07:32:35.776Z</time></trkpt><trkpt lat="39.6776041" lon="8.4912249"><ele>141.0</ele><time>2026-05-01T07:32:36.777Z</time></trkpt><trkpt lat="39.6775275" lon="8.4912375"><ele>141.0</ele><time>2026-05-01T07:32:37.775Z</time></trkpt><trkpt lat="39.6774456" lon="8.4912566"><ele>141.0</ele><time>2026-05-01T07:32:38.777Z</time></trkpt><trkpt lat="39.677364" lon="8.4912733"><ele>142.66666666666666</ele><time>2026-05-01T07:32:39.775Z</time></trkpt><trkpt lat="39.6772835" lon="8.4912906"><ele>144.33333333333334</ele><time>2026-05-01T07:32:40.776Z</time></trkpt><trkpt lat="39.6771948" lon="8.4913175"><ele>146.0</ele><time>2026-05-01T07:32:41.776Z</time></trkpt><trkpt lat="39.6771284" lon="8.491351"><ele>147.66666666666669</ele><time>2026-05-01T07:32:42.775Z</time></trkpt><trkpt lat="39.6770502" lon="8.4914066"><ele>149.33333333333334</ele><time>2026-05-01T07:32:43.777Z</time></trkpt><trkpt lat="39.6769765" lon="8.4914812"><ele>151.0</ele><time>2026-05-01T07:32:44.776Z</time></trkpt><trkpt lat="39.676909" lon="8.491557"><ele>153.0</ele><time>2026-05-01T07:32:45.776Z</time></trkpt><trkpt lat="39.6768345" lon="8.491643"><ele>155.0</ele><time>2026-05-01T07:32:46.776Z</time></trkpt><trkpt lat="39.6767606" lon="8.4917257"><ele>157.0</ele><time>2026-05-01T07:32:47.776Z</time></trkpt><trkpt lat="39.6766954" lon="8.4918117"><ele>159.0</ele><time>2026-05-01T07:32:48.777Z</time></trkpt><trkpt lat="39.6766421" lon="8.4919061"><ele>161.0</ele><time>2026-05-01T07:32:49.776Z</time></trkpt><trkpt lat="39.676593" lon="8.492011"><ele>161.66666666666666</ele><time>2026-05-01T07:32:50.776Z</time></trkpt><trkpt lat="39.6765559" lon="8.4920917"><ele>162.33333333333331</ele><time>2026-05-01T07:32:51.777Z</time></trkpt><trkpt lat="39.6765213" lon="8.4921696"><ele>163.0</ele><time>2026-05-01T07:32:52.777Z</time></trkpt><trkpt lat="39.6764908" lon="8.4922537"><ele>163.66666666666666</ele><time>2026-05-01T07:32:53.776Z</time></trkpt><trkpt lat="39.6764663" lon="8.4923381"><ele>164.33333333333334</ele><time>2026-05-01T07:32:54.776Z</time></trkpt><trkpt lat="39.6764342" lon="8.4924177"><ele>165.0</ele><time>2026-05-01T07:32:55.775Z</time></trkpt><trkpt lat="39.6763765" lon="8.4925441"><ele>165.0</ele><time>2026-05-01T07:32:57.776Z</time></trkpt><trkpt lat="39.6763311" lon="8.492645"><ele>165.0</ele><time>2026-05-01T07:32:59.777Z</time></trkpt><trkpt lat="39.6762808" lon="8.4927032"><ele>165.0</ele><time>2026-05-01T07:33:02.776Z</time></trkpt><trkpt lat="39.6762024" lon="8.4926961"><ele>165.0</ele><time>2026-05-01T07:33:05.777Z</time></trkpt><trkpt lat="39.6761193" lon="8.4926591"><ele>165.0</ele><time>2026-05-01T07:33:07.775Z</time></trkpt><trkpt lat="39.6760365" lon="8.492611"><ele>165.0</ele><time>2026-05-01T07:33:09.776Z</time></trkpt><trkpt lat="39.6759272" lon="8.4925534"><ele>165.6</ele><time>2026-05-01T07:33:11.776Z</time></trkpt><trkpt lat="39.6758545" lon="8.4925142"><ele>166.2</ele><time>2026-05-01T07:33:12.776Z</time></trkpt><trkpt lat="39.6757713" lon="8.4924713"><ele>166.8</ele><time>2026-05-01T07:33:13.776Z</time></trkpt><trkpt lat="39.6756676" lon="8.4924238"><ele>167.4</ele><time>2026-05-01T07:33:14.775Z</time></trkpt><trkpt lat="39.67557" lon="8.4923782"><ele>168.0</ele><time>2026-05-01T07:33:15.777Z</time></trkpt><trkpt lat="39.6754913" lon="8.4923601"><ele>168.0</ele><time>2026-05-01T07:33:16.777Z</time></trkpt><trkpt lat="39.6753931" lon="8.4923581"><ele>168.0</ele><time>2026-05-01T07:33:17.777Z</time></trkpt><trkpt lat="39.6752847" lon="8.4923434"><ele>168.0</ele><time>2026-05-01T07:33:18.777Z</time></trkpt><trkpt lat="39.6751689" lon="8.4923198"><ele>168.0</ele><time>2026-05-01T07:33:19.775Z</time></trkpt><trkpt lat="39.6750542" lon="8.4922807"><ele>168.0</ele><time>2026-05-01T07:33:20.776Z</time></trkpt><trkpt lat="39.6749641" lon="8.4922445"><ele>168.0</ele><time>2026-05-01T07:33:21.775Z</time></trkpt><trkpt lat="39.6748715" lon="8.4922003"><ele>168.0</ele><time>2026-05-01T07:33:22.776Z</time></trkpt><trkpt lat="39.6747977" lon="8.4921471"><ele>168.0</ele><time>2026-05-01T07:33:23.776Z</time></trkpt><trkpt lat="39.674726" lon="8.4920774"><ele>168.0</ele><time>2026-05-01T07:33:24.776Z</time></trkpt><trkpt lat="39.6746717" lon="8.4920081"><ele>168.0</ele><time>2026-05-01T07:33:25.776Z</time></trkpt><trkpt lat="39.6746113" lon="8.4919662"><ele>168.0</ele><time>2026-05-01T07:33:26.776Z</time></trkpt><trkpt lat="39.6745261" lon="8.491928"><ele>168.0</ele><time>2026-05-01T07:33:27.776Z</time></trkpt><trkpt lat="39.6744316" lon="8.4918993"><ele>168.0</ele><time>2026-05-01T07:33:28.775Z</time></trkpt><trkpt lat="39.6743423" lon="8.4918609"><ele>168.0</ele><time>2026-05-01T07:33:29.775Z</time></trkpt><trkpt lat="39.6742441" lon="8.4918165"><ele>168.0</ele><time>2026-05-01T07:33:30.776Z</time></trkpt><trkpt lat="39.6741538" lon="8.4917764"><ele>168.0</ele><time>2026-05-01T07:33:31.777Z</time></trkpt><trkpt lat="39.6740652" lon="8.4917315"><ele>168.0</ele><time>2026-05-01T07:33:32.776Z</time></trkpt><trkpt lat="39.6739953" lon="8.4916837"><ele>168.0</ele><time>2026-05-01T07:33:33.777Z</time></trkpt><trkpt lat="39.6739059" lon="8.4916345"><ele>168.0</ele><time>2026-05-01T07:33:35.776Z</time></trkpt><trkpt lat="39.6738334" lon="8.4916436"><ele>168.0</ele><time>2026-05-01T07:33:37.776Z</time></trkpt><trkpt lat="39.6737656" lon="8.4917377"><ele>168.0</ele><time>2026-05-01T07:33:39.775Z</time></trkpt><trkpt lat="39.6737005" lon="8.4918716"><ele>168.0</ele><time>2026-05-01T07:33:41.777Z</time></trkpt><trkpt lat="39.6736548" lon="8.4919319"><ele>168.0</ele><time>2026-05-01T07:33:42.777Z</time></trkpt><trkpt lat="39.6735824" lon="8.4920577"><ele>168.0</ele><time>2026-05-01T07:33:44.776Z</time></trkpt><trkpt lat="39.6735419" lon="8.4921397"><ele>168.0</ele><time>2026-05-01T07:33:45.776Z</time></trkpt><trkpt lat="39.6735019" lon="8.4922232"><ele>168.0</ele><time>2026-05-01T07:33:46.775Z</time></trkpt><trkpt lat="39.6734552" lon="8.49231"><ele>168.0</ele><time>2026-05-01T07:33:47.776Z</time></trkpt><trkpt lat="39.6734084" lon="8.4923948"><ele>170.0</ele><time>2026-05-01T07:33:48.776Z</time></trkpt><trkpt lat="39.6733605" lon="8.4924844"><ele>172.0</ele><time>2026-05-01T07:33:49.777Z</time></trkpt><trkpt lat="39.6733058" lon="8.4925789"><ele>174.0</ele><time>2026-05-01T07:33:50.777Z</time></trkpt><trkpt lat="39.6732482" lon="8.4926644"><ele>176.0</ele><time>2026-05-01T07:33:51.776Z</time></trkpt><trkpt lat="39.6731849" lon="8.4927387"><ele>178.0</ele><time>2026-05-01T07:33:52.776Z</time></trkpt><trkpt lat="39.6731168" lon="8.4928066"><ele>180.0</ele><time>2026-05-01T07:33:53.776Z</time></trkpt><trkpt lat="39.6730524" lon="8.4928734"><ele>180.83333333333334</ele><time>2026-05-01T07:33:54.777Z</time></trkpt><trkpt lat="39.6729852" lon="8.4929383"><ele>181.66666666666666</ele><time>2026-05-01T07:33:55.775Z</time></trkpt><trkpt lat="39.6729175" lon="8.4929997"><ele>182.5</ele><time>2026-05-01T07:33:56.776Z</time></trkpt><trkpt lat="39.6728564" lon="8.4930572"><ele>183.33333333333331</ele><time>2026-05-01T07:33:57.776Z</time></trkpt><trkpt lat="39.6727914" lon="8.4931207"><ele>184.16666666666666</ele><time>2026-05-01T07:33:58.775Z</time></trkpt><trkpt lat="39.6727299" lon="8.4931971"><ele>185.0</ele><time>2026-05-01T07:33:59.775Z</time></trkpt><trkpt lat="39.6726718" lon="8.4932746"><ele>185.0</ele><time>2026-05-01T07:34:00.777Z</time></trkpt><trkpt lat="39.6726134" lon="8.4933525"><ele>185.0</ele><time>2026-05-01T07:34:01.776Z</time></trkpt><trkpt lat="39.6725545" lon="8.4934277"><ele>185.0</ele><time>2026-05-01T07:34:02.776Z</time></trkpt><trkpt lat="39.6724959" lon="8.4934993"><ele>185.0</ele><time>2026-05-01T07:34:03.776Z</time></trkpt><trkpt lat="39.6724482" lon="8.4935804"><ele>185.0</ele><time>2026-05-01T07:34:04.776Z</time></trkpt><trkpt lat="39.672416" lon="8.4936629"><ele>185.0</ele><time>2026-05-01T07:34:05.777Z</time></trkpt><trkpt lat="39.6723809" lon="8.4937579"><ele>185.33333333333331</ele><time>2026-05-01T07:34:06.777Z</time></trkpt><trkpt lat="39.6723436" lon="8.4938536"><ele>185.66666666666666</ele><time>2026-05-01T07:34:07.776Z</time></trkpt><trkpt lat="39.6723046" lon="8.4939527"><ele>186.0</ele><time>2026-05-01T07:34:08.776Z</time></trkpt><trkpt lat="39.6722706" lon="8.4940523"><ele>186.33333333333334</ele><time>2026-05-01T07:34:09.777Z</time></trkpt><trkpt lat="39.6722391" lon="8.4941588"><ele>186.66666666666669</ele><time>2026-05-01T07:34:10.777Z</time></trkpt><trkpt lat="39.6722038" lon="8.4942753"><ele>187.0</ele><time>2026-05-01T07:34:11.776Z</time></trkpt><trkpt lat="39.67217" lon="8.494376"><ele>187.0</ele><time>2026-05-01T07:34:12.777Z</time></trkpt><trkpt lat="39.6721347" lon="8.4944586"><ele>187.0</ele><time>2026-05-01T07:34:13.777Z</time></trkpt><trkpt lat="39.6720899" lon="8.494539"><ele>187.0</ele><time>2026-05-01T07:34:14.775Z</time></trkpt><trkpt lat="39.6720405" lon="8.4946371"><ele>187.0</ele><time>2026-05-01T07:34:15.776Z</time></trkpt><trkpt lat="39.6719814" lon="8.4947328"><ele>187.0</ele><time>2026-05-01T07:34:16.776Z</time></trkpt><trkpt lat="39.6719206" lon="8.4948106"><ele>187.0</ele><time>2026-05-01T07:34:17.775Z</time></trkpt><trkpt lat="39.6718613" lon="8.4948718"><ele>186.66666666666669</ele><time>2026-05-01T07:34:18.775Z</time></trkpt><trkpt lat="39.6718002" lon="8.4949397"><ele>186.33333333333334</ele><time>2026-05-01T07:34:19.774Z</time></trkpt><trkpt lat="39.6717441" lon="8.4950021"><ele>186.0</ele><time>2026-05-01T07:34:20.774Z</time></trkpt><trkpt lat="39.6716932" lon="8.4950564"><ele>185.66666666666666</ele><time>2026-05-01T07:34:21.774Z</time></trkpt><trkpt lat="39.6715954" lon="8.4951479"><ele>185.33333333333331</ele><time>2026-05-01T07:34:23.775Z</time></trkpt><trkpt lat="39.6715353" lon="8.4951846"><ele>185.0</ele><time>2026-05-01T07:34:24.775Z</time></trkpt><trkpt lat="39.6714647" lon="8.4952189"><ele>185.0</ele><time>2026-05-01T07:34:25.774Z</time></trkpt><trkpt lat="39.6713897" lon="8.4952572"><ele>185.0</ele><time>2026-05-01T07:34:26.774Z</time></trkpt><trkpt lat="39.6713074" lon="8.4952929"><ele>185.0</ele><time>2026-05-01T07:34:27.774Z</time></trkpt><trkpt lat="39.6712187" lon="8.4953333"><ele>185.0</ele><time>2026-05-01T07:34:28.774Z</time></trkpt><trkpt lat="39.67113" lon="8.4953702"><ele>185.0</ele><time>2026-05-01T07:34:29.775Z</time></trkpt><trkpt lat="39.671045" lon="8.4953944"><ele>185.0</ele><time>2026-05-01T07:34:30.774Z</time></trkpt><trkpt lat="39.6709494" lon="8.4954102"><ele>184.6</ele><time>2026-05-01T07:34:31.775Z</time></trkpt><trkpt lat="39.6708437" lon="8.4954224"><ele>184.2</ele><time>2026-05-01T07:34:32.775Z</time></trkpt><trkpt lat="39.6707357" lon="8.495444"><ele>183.8</ele><time>2026-05-01T07:34:33.776Z</time></trkpt><trkpt lat="39.67065" lon="8.4954552"><ele>183.4</ele><time>2026-05-01T07:34:34.776Z</time></trkpt><trkpt lat="39.6705703" lon="8.4954583"><ele>183.0</ele><time>2026-05-01T07:34:35.774Z</time></trkpt><trkpt lat="39.6704955" lon="8.4954307"><ele>182.16666666666666</ele><time>2026-05-01T07:34:36.776Z</time></trkpt><trkpt lat="39.6704121" lon="8.4953816"><ele>181.33333333333334</ele><time>2026-05-01T07:34:37.774Z</time></trkpt><trkpt lat="39.6703349" lon="8.4953123"><ele>180.5</ele><time>2026-05-01T07:34:38.775Z</time></trkpt><trkpt lat="39.6702719" lon="8.495244"><ele>179.66666666666669</ele><time>2026-05-01T07:34:39.775Z</time></trkpt><trkpt lat="39.6702001" lon="8.4951935"><ele>178.83333333333334</ele><time>2026-05-01T07:34:40.775Z</time></trkpt><trkpt lat="39.6701286" lon="8.4951403"><ele>178.0</ele><time>2026-05-01T07:34:41.776Z</time></trkpt><trkpt lat="39.670064" lon="8.4950891"><ele>177.0</ele><time>2026-05-01T07:34:42.774Z</time></trkpt><trkpt lat="39.6700006" lon="8.4950403"><ele>176.0</ele><time>2026-05-01T07:34:43.775Z</time></trkpt><trkpt lat="39.6699397" lon="8.4949792"><ele>175.0</ele><time>2026-05-01T07:34:44.775Z</time></trkpt><trkpt lat="39.6698894" lon="8.4949187"><ele>174.0</ele><time>2026-05-01T07:34:45.774Z</time></trkpt><trkpt lat="39.6697886" lon="8.4948261"><ele>173.0</ele><time>2026-05-01T07:34:47.774Z</time></trkpt><trkpt lat="39.6696853" lon="8.4947427"><ele>173.0</ele><time>2026-05-01T07:34:49.775Z</time></trkpt><trkpt lat="39.6696203" lon="8.4946972"><ele>173.0</ele><time>2026-05-01T07:34:50.774Z</time></trkpt><trkpt lat="39.6695486" lon="8.4946438"><ele>173.0</ele><time>2026-05-01T07:34:51.775Z</time></trkpt><trkpt lat="39.6694845" lon="8.4945883"><ele>173.0</ele><time>2026-05-01T07:34:52.775Z</time></trkpt><trkpt lat="39.6694298" lon="8.4945323"><ele>173.0</ele><time>2026-05-01T07:34:53.774Z</time></trkpt><trkpt lat="39.6693756" lon="8.4944686"><ele>173.0</ele><time>2026-05-01T07:34:54.774Z</time></trkpt><trkpt lat="39.6693315" lon="8.494408"><ele>173.0</ele><time>2026-05-01T07:34:55.775Z</time></trkpt><trkpt lat="39.6692623" lon="8.4943348"><ele>172.16666666666666</ele><time>2026-05-01T07:34:57.774Z</time></trkpt><trkpt lat="39.6692017" lon="8.4942879"><ele>171.33333333333331</ele><time>2026-05-01T07:35:00.775Z</time></trkpt><trkpt lat="39.6691297" lon="8.4942587"><ele>170.5</ele><time>2026-05-01T07:35:04.775Z</time></trkpt><trkpt lat="39.6690976" lon="8.4943299"><ele>169.66666666666666</ele><time>2026-05-01T07:35:10.774Z</time></trkpt><trkpt lat="39.6691499" lon="8.494377"><ele>168.83333333333334</ele><time>2026-05-01T07:35:13.775Z</time></trkpt><trkpt lat="39.6692621" lon="8.4944385"><ele>168.0</ele><time>2026-05-01T07:35:15.775Z</time></trkpt><trkpt lat="39.6693325" lon="8.49448"><ele>168.0</ele><time>2026-05-01T07:35:16.774Z</time></trkpt><trkpt lat="39.6694048" lon="8.4945315"><ele>168.0</ele><time>2026-05-01T07:35:17.775Z</time></trkpt><trkpt lat="39.6694744" lon="8.4945943"><ele>168.0</ele><time>2026-05-01T07:35:18.775Z</time></trkpt><trkpt lat="39.669542" lon="8.4946531"><ele>168.0</ele><time>2026-05-01T07:35:19.776Z</time></trkpt><trkpt lat="39.6696133" lon="8.4947094"><ele>168.0</ele><time>2026-05-01T07:35:20.775Z</time></trkpt><trkpt lat="39.6696747" lon="8.4947484"><ele>168.0</ele><time>2026-05-01T07:35:21.775Z</time></trkpt><trkpt lat="39.6697526" lon="8.4948213"><ele>168.83333333333334</ele><time>2026-05-01T07:35:23.776Z</time></trkpt><trkpt lat="39.6698206" lon="8.4948763"><ele>169.66666666666666</ele><time>2026-05-01T07:35:25.775Z</time></trkpt><trkpt lat="39.6698863" lon="8.4949233"><ele>170.5</ele><time>2026-05-01T07:35:27.775Z</time></trkpt><trkpt lat="39.6699447" lon="8.4949886"><ele>171.33333333333331</ele><time>2026-05-01T07:35:29.776Z</time></trkpt><trkpt lat="39.6700005" lon="8.4950713"><ele>172.16666666666666</ele><time>2026-05-01T07:35:35.776Z</time></trkpt><trkpt lat="39.6701065" lon="8.4951594"><ele>173.0</ele><time>2026-05-01T07:35:37.774Z</time></trkpt><trkpt lat="39.6701662" lon="8.4951973"><ele>173.0</ele><time>2026-05-01T07:35:38.775Z</time></trkpt><trkpt lat="39.6702267" lon="8.4952361"><ele>173.0</ele><time>2026-05-01T07:35:39.774Z</time></trkpt><trkpt lat="39.6702813" lon="8.4952794"><ele>173.0</ele><time>2026-05-01T07:35:40.775Z</time></trkpt><trkpt lat="39.6703316" lon="8.4953289"><ele>173.0</ele><time>2026-05-01T07:35:41.774Z</time></trkpt><trkpt lat="39.6704116" lon="8.4953996"><ele>173.0</ele><time>2026-05-01T07:35:43.775Z</time></trkpt><trkpt lat="39.67048" lon="8.4954511"><ele>173.0</ele><time>2026-05-01T07:35:46.774Z</time></trkpt><trkpt lat="39.670563" lon="8.495476"><ele>173.83333333333331</ele><time>2026-05-01T07:35:51.775Z</time></trkpt><trkpt lat="39.6706411" lon="8.495464"><ele>174.66666666666666</ele><time>2026-05-01T07:35:53.774Z</time></trkpt><trkpt lat="39.6707718" lon="8.495456"><ele>175.5</ele><time>2026-05-01T07:35:55.774Z</time></trkpt><trkpt lat="39.6708487" lon="8.4954446"><ele>176.33333333333334</ele><time>2026-05-01T07:35:56.774Z</time></trkpt><trkpt lat="39.6709237" lon="8.4954333"><ele>177.16666666666669</ele><time>2026-05-01T07:35:57.774Z</time></trkpt><trkpt lat="39.6709883" lon="8.4954246"><ele>178.0</ele><time>2026-05-01T07:35:58.774Z</time></trkpt><trkpt lat="39.6710826" lon="8.4954074"><ele>179.4</ele><time>2026-05-01T07:36:00.776Z</time></trkpt><trkpt lat="39.6711571" lon="8.4953893"><ele>180.8</ele><time>2026-05-01T07:36:15.776Z</time></trkpt><trkpt lat="39.6712773" lon="8.4953229"><ele>182.2</ele><time>2026-05-01T07:36:17.775Z</time></trkpt><trkpt lat="39.6713498" lon="8.4952923"><ele>183.6</ele><time>2026-05-01T07:36:18.776Z</time></trkpt><trkpt lat="39.6714162" lon="8.4952588"><ele>185.0</ele><time>2026-05-01T07:36:19.775Z</time></trkpt><trkpt lat="39.6715156" lon="8.4952097"><ele>184.99999999999997</ele><time>2026-05-01T07:36:21.774Z</time></trkpt><trkpt lat="39.67158" lon="8.4951751"><ele>185.0</ele><time>2026-05-01T07:36:23.775Z</time></trkpt><trkpt lat="39.6716566" lon="8.4951733"><ele>185.0</ele><time>2026-05-01T07:36:26.774Z</time></trkpt><trkpt lat="39.6716593" lon="8.4952648"><ele>185.0</ele><time>2026-05-01T07:38:09.775Z</time></trkpt><trkpt lat="39.6716482" lon="8.4953484"><ele>185.0</ele><time>2026-05-01T07:38:11.775Z</time></trkpt><trkpt lat="39.6716221" lon="8.495423"><ele>184.99999999999997</ele><time>2026-05-01T07:38:13.774Z</time></trkpt><trkpt lat="39.671592" lon="8.4955007"><ele>185.0</ele><time>2026-05-01T07:38:15.775Z</time></trkpt><trkpt lat="39.671533" lon="8.4956184"><ele>185.16666666666666</ele><time>2026-05-01T07:38:17.775Z</time></trkpt><trkpt lat="39.6714765" lon="8.495733"><ele>185.33333333333331</ele><time>2026-05-01T07:38:19.776Z</time></trkpt><trkpt lat="39.671441" lon="8.4958023"><ele>185.5</ele><time>2026-05-01T07:38:20.774Z</time></trkpt><trkpt lat="39.6714086" lon="8.4958796"><ele>185.66666666666666</ele><time>2026-05-01T07:38:21.775Z</time></trkpt><trkpt lat="39.6713774" lon="8.4959593"><ele>185.83333333333334</ele><time>2026-05-01T07:38:22.775Z</time></trkpt><trkpt lat="39.6713523" lon="8.4960986"><ele>186.0</ele><time>2026-05-01T07:38:24.776Z</time></trkpt><trkpt lat="39.6713394" lon="8.4962695"><ele>185.33333333333334</ele><time>2026-05-01T07:38:26.775Z</time></trkpt><trkpt lat="39.6713328" lon="8.4963572"><ele>184.66666666666666</ele><time>2026-05-01T07:38:27.775Z</time></trkpt><trkpt lat="39.6713334" lon="8.4964532"><ele>184.0</ele><time>2026-05-01T07:38:28.776Z</time></trkpt><trkpt lat="39.6713217" lon="8.4965543"><ele>183.33333333333331</ele><time>2026-05-01T07:38:29.775Z</time></trkpt><trkpt lat="39.6713043" lon="8.4966604"><ele>182.66666666666666</ele><time>2026-05-01T07:38:30.775Z</time></trkpt><trkpt lat="39.6712879" lon="8.4967574"><ele>182.0</ele><time>2026-05-01T07:38:31.775Z</time></trkpt><trkpt lat="39.6712654" lon="8.4968631"><ele>182.0</ele><time>2026-05-01T07:38:32.775Z</time></trkpt><trkpt lat="39.6712442" lon="8.4969669"><ele>182.0</ele><time>2026-05-01T07:38:33.775Z</time></trkpt><trkpt lat="39.6712175" lon="8.4970746"><ele>182.0</ele><time>2026-05-01T07:38:34.775Z</time></trkpt><trkpt lat="39.6711929" lon="8.4971915"><ele>182.0</ele><time>2026-05-01T07:38:35.774Z</time></trkpt><trkpt lat="39.6711708" lon="8.4973044"><ele>182.0</ele><time>2026-05-01T07:38:36.774Z</time></trkpt><trkpt lat="39.6711463" lon="8.4974064"><ele>182.0</ele><time>2026-05-01T07:38:37.774Z</time></trkpt><trkpt lat="39.6711192" lon="8.4974889"><ele>182.0</ele><time>2026-05-01T07:38:38.775Z</time></trkpt><trkpt lat="39.67108" lon="8.4975656"><ele>182.0</ele><time>2026-05-01T07:38:39.775Z</time></trkpt><trkpt lat="39.671019" lon="8.4976488"><ele>182.0</ele><time>2026-05-01T07:38:40.775Z</time></trkpt><trkpt lat="39.6709542" lon="8.4977362"><ele>182.0</ele><time>2026-05-01T07:38:41.774Z</time></trkpt><trkpt lat="39.6708874" lon="8.4978241"><ele>182.0</ele><time>2026-05-01T07:38:42.776Z</time></trkpt><trkpt lat="39.6708213" lon="8.4979128"><ele>182.0</ele><time>2026-05-01T07:38:43.776Z</time></trkpt><trkpt lat="39.6707638" lon="8.4979911"><ele>181.83333333333331</ele><time>2026-05-01T07:38:44.774Z</time></trkpt><trkpt lat="39.670713" lon="8.4980602"><ele>181.66666666666666</ele><time>2026-05-01T07:38:45.775Z</time></trkpt><trkpt lat="39.6706577" lon="8.4981112"><ele>181.5</ele><time>2026-05-01T07:38:46.775Z</time></trkpt><trkpt lat="39.6705971" lon="8.4981486"><ele>181.33333333333334</ele><time>2026-05-01T07:38:47.775Z</time></trkpt><trkpt lat="39.6704782" lon="8.498163"><ele>181.16666666666669</ele><time>2026-05-01T07:38:49.774Z</time></trkpt><trkpt lat="39.6704149" lon="8.4981624"><ele>181.0</ele><time>2026-05-01T07:38:50.775Z</time></trkpt><trkpt lat="39.6702946" lon="8.4981915"><ele>180.60000000000002</ele><time>2026-05-01T07:38:52.776Z</time></trkpt><trkpt lat="39.6701882" lon="8.4982792"><ele>180.2</ele><time>2026-05-01T07:38:54.774Z</time></trkpt><trkpt lat="39.6700789" lon="8.4983542"><ele>179.8</ele><time>2026-05-01T07:38:56.774Z</time></trkpt><trkpt lat="39.6700189" lon="8.4983848"><ele>179.39999999999998</ele><time>2026-05-01T07:38:57.774Z</time></trkpt><trkpt lat="39.6699095" lon="8.4984598"><ele>179.0</ele><time>2026-05-01T07:38:59.774Z</time></trkpt><trkpt lat="39.6698352" lon="8.4985512"><ele>179.0</ele><time>2026-05-01T07:39:01.775Z</time></trkpt><trkpt lat="39.6697853" lon="8.4986132"><ele>179.0</ele><time>2026-05-01T07:39:02.776Z</time></trkpt><trkpt lat="39.6697234" lon="8.4986833"><ele>179.0</ele><time>2026-05-01T07:39:03.775Z</time></trkpt><trkpt lat="39.6696694" lon="8.4987417"><ele>179.0</ele><time>2026-05-01T07:39:04.775Z</time></trkpt><trkpt lat="39.6695634" lon="8.4988363"><ele>179.0</ele><time>2026-05-01T07:39:06.775Z</time></trkpt><trkpt lat="39.6694946" lon="8.4988872"><ele>179.0</ele><time>2026-05-01T07:39:07.775Z</time></trkpt><trkpt lat="39.669425" lon="8.4989289"><ele>180.0</ele><time>2026-05-01T07:39:08.776Z</time></trkpt><trkpt lat="39.6693478" lon="8.4989586"><ele>181.0</ele><time>2026-05-01T07:39:09.775Z</time></trkpt><trkpt lat="39.6692748" lon="8.4989732"><ele>182.0</ele><time>2026-05-01T07:39:10.774Z</time></trkpt><trkpt lat="39.6692073" lon="8.4989848"><ele>183.0</ele><time>2026-05-01T07:39:11.775Z</time></trkpt><trkpt lat="39.6691448" lon="8.4990035"><ele>184.0</ele><time>2026-05-01T07:39:12.775Z</time></trkpt><trkpt lat="39.6690474" lon="8.4990557"><ele>185.0</ele><time>2026-05-01T07:39:14.774Z</time></trkpt><trkpt lat="39.6689758" lon="8.4991667"><ele>185.0</ele><time>2026-05-01T07:39:16.774Z</time></trkpt><trkpt lat="39.668897" lon="8.4992889"><ele>185.0</ele><time>2026-05-01T07:39:18.775Z</time></trkpt><trkpt lat="39.6688507" lon="8.4993488"><ele>185.0</ele><time>2026-05-01T07:39:19.775Z</time></trkpt><trkpt lat="39.6688099" lon="8.4994171"><ele>185.0</ele><time>2026-05-01T07:39:20.776Z</time></trkpt><trkpt lat="39.6687721" lon="8.4994881"><ele>185.0</ele><time>2026-05-01T07:39:21.775Z</time></trkpt><trkpt lat="39.6687309" lon="8.4995519"><ele>185.0</ele><time>2026-05-01T07:39:22.775Z</time></trkpt><trkpt lat="39.6686829" lon="8.4996093"><ele>184.6</ele><time>2026-05-01T07:39:23.774Z</time></trkpt><trkpt lat="39.6685925" lon="8.4997134"><ele>184.2</ele><time>2026-05-01T07:39:25.774Z</time></trkpt><trkpt lat="39.6685172" lon="8.4997723"><ele>183.8</ele><time>2026-05-01T07:39:27.775Z</time></trkpt><trkpt lat="39.6684631" lon="8.4998371"><ele>183.4</ele><time>2026-05-01T07:39:59.775Z</time></trkpt><trkpt lat="39.6685477" lon="8.499789"><ele>183.0</ele><time>2026-05-01T07:40:03.773Z</time></trkpt><trkpt lat="39.6686193" lon="8.4997107"><ele>183.0</ele><time>2026-05-01T07:40:05.774Z</time></trkpt><trkpt lat="39.6686982" lon="8.4996156"><ele>183.0</ele><time>2026-05-01T07:40:07.774Z</time></trkpt><trkpt lat="39.6687798" lon="8.4995015"><ele>183.0</ele><time>2026-05-01T07:40:09.775Z</time></trkpt><trkpt lat="39.6688589" lon="8.4993707"><ele>183.0</ele><time>2026-05-01T07:40:11.775Z</time></trkpt><trkpt lat="39.6689047" lon="8.4993052"><ele>183.0</ele><time>2026-05-01T07:40:12.775Z</time></trkpt><trkpt lat="39.6689503" lon="8.4992377"><ele>183.4</ele><time>2026-05-01T07:40:13.774Z</time></trkpt><trkpt lat="39.6690191" lon="8.4991265"><ele>183.8</ele><time>2026-05-01T07:40:15.774Z</time></trkpt><trkpt lat="39.6690688" lon="8.4990642"><ele>184.2</ele><time>2026-05-01T07:40:17.774Z</time></trkpt><trkpt lat="39.6691405" lon="8.4990268"><ele>184.6</ele><time>2026-05-01T07:40:19.774Z</time></trkpt><trkpt lat="39.6692463" lon="8.4989966"><ele>185.0</ele><time>2026-05-01T07:40:21.774Z</time></trkpt><trkpt lat="39.6693674" lon="8.4989688"><ele>185.0</ele><time>2026-05-01T07:40:23.774Z</time></trkpt><trkpt lat="39.6694308" lon="8.498948"><ele>185.0</ele><time>2026-05-01T07:40:24.775Z</time></trkpt><trkpt lat="39.669493" lon="8.4989088"><ele>185.0</ele><time>2026-05-01T07:40:25.774Z</time></trkpt><trkpt lat="39.6695532" lon="8.4988635"><ele>185.0</ele><time>2026-05-01T07:40:26.774Z</time></trkpt><trkpt lat="39.6696098" lon="8.4988179"><ele>185.0</ele><time>2026-05-01T07:40:27.774Z</time></trkpt><trkpt lat="39.6696939" lon="8.4987366"><ele>185.0</ele><time>2026-05-01T07:40:29.774Z</time></trkpt><trkpt lat="39.6697622" lon="8.4986525"><ele>184.0</ele><time>2026-05-01T07:40:31.774Z</time></trkpt><trkpt lat="39.6698125" lon="8.4985771"><ele>183.0</ele><time>2026-05-01T07:40:33.775Z</time></trkpt><trkpt lat="39.6697936" lon="8.4984731"><ele>182.0</ele><time>2026-05-01T07:40:36.773Z</time></trkpt><trkpt lat="39.6697179" lon="8.4984384"><ele>181.0</ele><time>2026-05-01T07:40:38.774Z</time></trkpt><trkpt lat="39.6696391" lon="8.4983582"><ele>180.0</ele><time>2026-05-01T07:40:40.773Z</time></trkpt><trkpt lat="39.6695865" lon="8.498307"><ele>179.0</ele><time>2026-05-01T07:40:41.774Z</time></trkpt><trkpt lat="39.6695284" lon="8.4982551"><ele>177.79999999999998</ele><time>2026-05-01T07:40:42.774Z</time></trkpt><trkpt lat="39.6694391" lon="8.4981662"><ele>176.6</ele><time>2026-05-01T07:40:44.773Z</time></trkpt><trkpt lat="39.6693716" lon="8.4980897"><ele>175.4</ele><time>2026-05-01T07:40:46.774Z</time></trkpt><trkpt lat="39.6692997" lon="8.4980319"><ele>174.2</ele><time>2026-05-01T07:40:48.775Z</time></trkpt><trkpt lat="39.6692161" lon="8.4979964"><ele>173.0</ele><time>2026-05-01T07:40:50.773Z</time></trkpt><trkpt lat="39.6691161" lon="8.4980033"><ele>173.0</ele><time>2026-05-01T07:40:52.773Z</time></trkpt><trkpt lat="39.6690369" lon="8.4980165"><ele>173.0</ele><time>2026-05-01T07:40:54.773Z</time></trkpt><trkpt lat="39.6689409" lon="8.4980397"><ele>173.0</ele><time>2026-05-01T07:40:57.775Z</time></trkpt><trkpt lat="39.6688602" lon="8.4980143"><ele>173.0</ele><time>2026-05-01T07:40:59.774Z</time></trkpt><trkpt lat="39.6688016" lon="8.4979276"><ele>173.0</ele><time>2026-05-01T07:41:01.775Z</time></trkpt><trkpt lat="39.6687662" lon="8.4978301"><ele>173.0</ele><time>2026-05-01T07:41:03.773Z</time></trkpt><trkpt lat="39.6687609" lon="8.4977134"><ele>171.4</ele><time>2026-05-01T07:41:05.774Z</time></trkpt><trkpt lat="39.6687687" lon="8.497604"><ele>169.8</ele><time>2026-05-01T07:41:07.774Z</time></trkpt><trkpt lat="39.6687815" lon="8.4974852"><ele>168.2</ele><time>2026-05-01T07:41:09.773Z</time></trkpt><trkpt lat="39.6687878" lon="8.4973455"><ele>166.6</ele><time>2026-05-01T07:41:11.775Z</time></trkpt><trkpt lat="39.6687864" lon="8.4971769"><ele>165.0</ele><time>2026-05-01T07:41:13.773Z</time></trkpt><trkpt lat="39.6687806" lon="8.4970951"><ele>164.5</ele><time>2026-05-01T07:41:14.773Z</time></trkpt><trkpt lat="39.668769" lon="8.4970132"><ele>164.0</ele><time>2026-05-01T07:41:15.773Z</time></trkpt><trkpt lat="39.6687167" lon="8.4968672"><ele>163.5</ele><time>2026-05-01T07:41:17.773Z</time></trkpt><trkpt lat="39.6686776" lon="8.4967957"><ele>163.0</ele><time>2026-05-01T07:41:18.773Z</time></trkpt><trkpt lat="39.6686285" lon="8.4967229"><ele>162.5</ele><time>2026-05-01T07:41:19.775Z</time></trkpt><trkpt lat="39.6685784" lon="8.4966466"><ele>162.0</ele><time>2026-05-01T07:41:20.775Z</time></trkpt><trkpt lat="39.668536" lon="8.4965763"><ele>161.0</ele><time>2026-05-01T07:41:21.775Z</time></trkpt><trkpt lat="39.6685059" lon="8.496501"><ele>160.0</ele><time>2026-05-01T07:41:22.774Z</time></trkpt><trkpt lat="39.6684613" lon="8.4963789"><ele>159.0</ele><time>2026-05-01T07:41:24.775Z</time></trkpt><trkpt lat="39.6683991" lon="8.496255"><ele>158.0</ele><time>2026-05-01T07:41:26.773Z</time></trkpt><trkpt lat="39.6683224" lon="8.4961429"><ele>157.0</ele><time>2026-05-01T07:41:28.774Z</time></trkpt><trkpt lat="39.6682971" lon="8.4960487"><ele>155.79999999999998</ele><time>2026-05-01T07:41:30.774Z</time></trkpt><trkpt lat="39.6682789" lon="8.4959308"><ele>154.6</ele><time>2026-05-01T07:41:32.774Z</time></trkpt><trkpt lat="39.6682144" lon="8.4958067"><ele>153.39999999999998</ele><time>2026-05-01T07:41:34.774Z</time></trkpt><trkpt lat="39.6681437" lon="8.4957386"><ele>152.2</ele><time>2026-05-01T07:41:36.773Z</time></trkpt><trkpt lat="39.6680811" lon="8.4956921"><ele>151.0</ele><time>2026-05-01T07:41:38.775Z</time></trkpt><trkpt lat="39.668026" lon="8.4955917"><ele>151.0</ele><time>2026-05-01T07:41:41.775Z</time></trkpt><trkpt lat="39.6679591" lon="8.495482"><ele>151.0</ele><time>2026-05-01T07:41:43.775Z</time></trkpt><trkpt lat="39.6678785" lon="8.4954373"><ele>151.0</ele><time>2026-05-01T07:41:44.775Z</time></trkpt><trkpt lat="39.6677935" lon="8.4953767"><ele>151.0</ele><time>2026-05-01T07:41:45.774Z</time></trkpt><trkpt lat="39.6677023" lon="8.4953041"><ele>151.0</ele><time>2026-05-01T07:41:46.773Z</time></trkpt><trkpt lat="39.6676094" lon="8.4952407"><ele>150.5</ele><time>2026-05-01T07:41:47.775Z</time></trkpt><trkpt lat="39.6675437" lon="8.4951824"><ele>150.0</ele><time>2026-05-01T07:41:48.775Z</time></trkpt><trkpt lat="39.6675072" lon="8.4951124"><ele>149.5</ele><time>2026-05-01T07:41:49.774Z</time></trkpt><trkpt lat="39.6675003" lon="8.49503"><ele>149.0</ele><time>2026-05-01T07:41:50.774Z</time></trkpt><trkpt lat="39.6675215" lon="8.4949244"><ele>148.5</ele><time>2026-05-01T07:41:51.773Z</time></trkpt><trkpt lat="39.6675503" lon="8.4948049"><ele>148.0</ele><time>2026-05-01T07:41:52.773Z</time></trkpt><trkpt lat="39.6675809" lon="8.4946805"><ele>148.33333333333334</ele><time>2026-05-01T07:41:53.774Z</time></trkpt><trkpt lat="39.6676119" lon="8.4945709"><ele>148.66666666666669</ele><time>2026-05-01T07:41:54.773Z</time></trkpt><trkpt lat="39.6676473" lon="8.4944688"><ele>149.0</ele><time>2026-05-01T07:41:55.775Z</time></trkpt><trkpt lat="39.6676932" lon="8.4943723"><ele>149.33333333333334</ele><time>2026-05-01T07:41:56.775Z</time></trkpt><trkpt lat="39.6677406" lon="8.4942822"><ele>149.66666666666666</ele><time>2026-05-01T07:41:58.773Z</time></trkpt><trkpt lat="39.667794" lon="8.4942337"><ele>150.0</ele><time>2026-05-01T07:42:05.775Z</time></trkpt><trkpt lat="39.6677353" lon="8.4943328"><ele>150.0</ele><time>2026-05-01T07:42:18.774Z</time></trkpt><trkpt lat="39.667676" lon="8.4944007"><ele>150.0</ele><time>2026-05-01T07:42:20.775Z</time></trkpt><trkpt lat="39.6676333" lon="8.494476"><ele>150.0</ele><time>2026-05-01T07:42:22.773Z</time></trkpt><trkpt lat="39.6675894" lon="8.4945585"><ele>150.0</ele><time>2026-05-01T07:42:24.774Z</time></trkpt><trkpt lat="39.6675545" lon="8.4946487"><ele>150.0</ele><time>2026-05-01T07:42:26.774Z</time></trkpt><trkpt lat="39.6675301" lon="8.4947821"><ele>150.0</ele><time>2026-05-01T07:42:28.774Z</time></trkpt><trkpt lat="39.6675136" lon="8.4949282"><ele>149.6</ele><time>2026-05-01T07:42:30.775Z</time></trkpt><trkpt lat="39.667489" lon="8.4950521"><ele>149.2</ele><time>2026-05-01T07:42:32.774Z</time></trkpt><trkpt lat="39.6675282" lon="8.4951681"><ele>148.8</ele><time>2026-05-01T07:42:34.774Z</time></trkpt><trkpt lat="39.6676427" lon="8.4952643"><ele>148.4</ele><time>2026-05-01T07:42:36.775Z</time></trkpt><trkpt lat="39.6677253" lon="8.4953271"><ele>148.0</ele><time>2026-05-01T07:42:37.774Z</time></trkpt><trkpt lat="39.6678058" lon="8.4953937"><ele>148.5</ele><time>2026-05-01T07:42:38.774Z</time></trkpt><trkpt lat="39.6678745" lon="8.4954494"><ele>149.0</ele><time>2026-05-01T07:42:39.773Z</time></trkpt><trkpt lat="39.6679366" lon="8.4954873"><ele>149.5</ele><time>2026-05-01T07:42:40.773Z</time></trkpt><trkpt lat="39.6680226" lon="8.4955652"><ele>150.0</ele><time>2026-05-01T07:42:42.774Z</time></trkpt><trkpt lat="39.6679941" lon="8.495664"><ele>150.5</ele><time>2026-05-01T07:42:45.774Z</time></trkpt><trkpt lat="39.6679121" lon="8.4956481"><ele>151.0</ele><time>2026-05-01T07:42:47.774Z</time></trkpt><trkpt lat="39.6678083" lon="8.4955509"><ele>150.5</ele><time>2026-05-01T07:42:49.775Z</time></trkpt><trkpt lat="39.6677481" lon="8.4955035"><ele>150.0</ele><time>2026-05-01T07:42:50.774Z</time></trkpt><trkpt lat="39.6676724" lon="8.4954572"><ele>149.5</ele><time>2026-05-01T07:42:51.775Z</time></trkpt><trkpt lat="39.6675954" lon="8.4954254"><ele>149.0</ele><time>2026-05-01T07:42:52.774Z</time></trkpt><trkpt lat="39.6675269" lon="8.4954157"><ele>148.5</ele><time>2026-05-01T07:42:53.775Z</time></trkpt><trkpt lat="39.6674073" lon="8.4954003"><ele>148.0</ele><time>2026-05-01T07:42:55.774Z</time></trkpt><trkpt lat="39.6673133" lon="8.4953541"><ele>148.0</ele><time>2026-05-01T07:42:57.775Z</time></trkpt><trkpt lat="39.6672639" lon="8.4952481"><ele>148.0</ele><time>2026-05-01T07:42:59.774Z</time></trkpt><trkpt lat="39.6672471" lon="8.4951651"><ele>148.0</ele><time>2026-05-01T07:43:00.774Z</time></trkpt><trkpt lat="39.6672173" lon="8.4950611"><ele>148.0</ele><time>2026-05-01T07:43:01.774Z</time></trkpt><trkpt lat="39.6671966" lon="8.4949439"><ele>148.0</ele><time>2026-05-01T07:43:02.773Z</time></trkpt><trkpt lat="39.6671768" lon="8.494816"><ele>148.0</ele><time>2026-05-01T07:43:03.775Z</time></trkpt><trkpt lat="39.6671602" lon="8.494683"><ele>148.4</ele><time>2026-05-01T07:43:04.773Z</time></trkpt><trkpt lat="39.6671359" lon="8.4945512"><ele>148.8</ele><time>2026-05-01T07:43:05.773Z</time></trkpt><trkpt lat="39.6671087" lon="8.4944211"><ele>149.2</ele><time>2026-05-01T07:43:06.774Z</time></trkpt><trkpt lat="39.6670819" lon="8.4942846"><ele>149.6</ele><time>2026-05-01T07:43:07.774Z</time></trkpt><trkpt lat="39.6670408" lon="8.4941449"><ele>150.0</ele><time>2026-05-01T07:43:08.775Z</time></trkpt><trkpt lat="39.6669934" lon="8.4940171"><ele>150.0</ele><time>2026-05-01T07:43:09.774Z</time></trkpt><trkpt lat="39.6669559" lon="8.4938929"><ele>150.0</ele><time>2026-05-01T07:43:10.774Z</time></trkpt><trkpt lat="39.666911" lon="8.4937687"><ele>150.0</ele><time>2026-05-01T07:43:11.775Z</time></trkpt><trkpt lat="39.6668786" lon="8.4936552"><ele>150.0</ele><time>2026-05-01T07:43:12.774Z</time></trkpt><trkpt lat="39.66686" lon="8.4935282"><ele>150.0</ele><time>2026-05-01T07:43:13.773Z</time></trkpt><trkpt lat="39.6668526" lon="8.4933887"><ele>148.16666666666666</ele><time>2026-05-01T07:43:14.774Z</time></trkpt><trkpt lat="39.6668491" lon="8.4932566"><ele>146.33333333333334</ele><time>2026-05-01T07:43:15.773Z</time></trkpt><trkpt lat="39.666845" lon="8.4931485"><ele>144.5</ele><time>2026-05-01T07:43:16.774Z</time></trkpt><trkpt lat="39.6668226" lon="8.4930538"><ele>142.66666666666669</ele><time>2026-05-01T07:43:17.773Z</time></trkpt><trkpt lat="39.6667855" lon="8.4929595"><ele>140.83333333333334</ele><time>2026-05-01T07:43:18.775Z</time></trkpt><trkpt lat="39.6667305" lon="8.492862"><ele>139.0</ele><time>2026-05-01T07:43:19.775Z</time></trkpt><trkpt lat="39.6666565" lon="8.4927633"><ele>138.0</ele><time>2026-05-01T07:43:20.775Z</time></trkpt><trkpt lat="39.666586" lon="8.4926554"><ele>137.0</ele><time>2026-05-01T07:43:21.775Z</time></trkpt><trkpt lat="39.6665193" lon="8.4925389"><ele>136.0</ele><time>2026-05-01T07:43:22.774Z</time></trkpt><trkpt lat="39.666458" lon="8.4924259"><ele>135.0</ele><time>2026-05-01T07:43:23.773Z</time></trkpt><trkpt lat="39.6664051" lon="8.4923242"><ele>134.0</ele><time>2026-05-01T07:43:24.773Z</time></trkpt><trkpt lat="39.6663532" lon="8.4922256"><ele>134.0</ele><time>2026-05-01T07:43:25.774Z</time></trkpt><trkpt lat="39.6663116" lon="8.492124"><ele>134.0</ele><time>2026-05-01T07:43:26.774Z</time></trkpt><trkpt lat="39.6662781" lon="8.4920095"><ele>134.0</ele><time>2026-05-01T07:43:27.773Z</time></trkpt><trkpt lat="39.6662417" lon="8.4918859"><ele>134.0</ele><time>2026-05-01T07:43:28.775Z</time></trkpt><trkpt lat="39.6662051" lon="8.491764"><ele>134.0</ele><time>2026-05-01T07:43:29.774Z</time></trkpt><trkpt lat="39.6661728" lon="8.4916451"><ele>134.0</ele><time>2026-05-01T07:43:30.774Z</time></trkpt><trkpt lat="39.6661293" lon="8.4915358"><ele>134.0</ele><time>2026-05-01T07:43:31.774Z</time></trkpt><trkpt lat="39.6660868" lon="8.4914266"><ele>134.0</ele><time>2026-05-01T07:43:32.774Z</time></trkpt><trkpt lat="39.666032" lon="8.4913162"><ele>134.0</ele><time>2026-05-01T07:43:33.774Z</time></trkpt><trkpt lat="39.665973" lon="8.4912059"><ele>134.0</ele><time>2026-05-01T07:43:34.774Z</time></trkpt><trkpt lat="39.6659146" lon="8.4910982"><ele>135.0</ele><time>2026-05-01T07:43:35.775Z</time></trkpt><trkpt lat="39.6658547" lon="8.4910007"><ele>136.0</ele><time>2026-05-01T07:43:36.774Z</time></trkpt><trkpt lat="39.665782" lon="8.4909087"><ele>137.0</ele><time>2026-05-01T07:43:37.774Z</time></trkpt><trkpt lat="39.6657142" lon="8.4908105"><ele>138.0</ele><time>2026-05-01T07:43:38.773Z</time></trkpt><trkpt lat="39.6656644" lon="8.4907128"><ele>139.0</ele><time>2026-05-01T07:43:39.773Z</time></trkpt><trkpt lat="39.6656497" lon="8.4906279"><ele>139.0</ele><time>2026-05-01T07:43:40.774Z</time></trkpt><trkpt lat="39.6656572" lon="8.4905452"><ele>139.0</ele><time>2026-05-01T07:43:41.774Z</time></trkpt><trkpt lat="39.6656886" lon="8.4904568"><ele>139.0</ele><time>2026-05-01T07:43:42.773Z</time></trkpt><trkpt lat="39.6657282" lon="8.4903532"><ele>139.0</ele><time>2026-05-01T07:43:43.773Z</time></trkpt><trkpt lat="39.6657561" lon="8.4902414"><ele>139.0</ele><time>2026-05-01T07:43:44.772Z</time></trkpt><trkpt lat="39.6657701" lon="8.4901427"><ele>139.0</ele><time>2026-05-01T07:43:45.772Z</time></trkpt><trkpt lat="39.6657789" lon="8.490058"><ele>139.33333333333334</ele><time>2026-05-01T07:43:46.773Z</time></trkpt><trkpt lat="39.6657795" lon="8.4899372"><ele>139.66666666666669</ele><time>2026-05-01T07:43:48.772Z</time></trkpt><trkpt lat="39.6657463" lon="8.4898577"><ele>140.0</ele><time>2026-05-01T07:43:51.774Z</time></trkpt><trkpt lat="39.6656687" lon="8.4898208"><ele>140.33333333333334</ele><time>2026-05-01T07:43:54.773Z</time></trkpt><trkpt lat="39.6655649" lon="8.4897684"><ele>140.66666666666666</ele><time>2026-05-01T07:43:56.774Z</time></trkpt><trkpt lat="39.6655121" lon="8.4896781"><ele>141.0</ele><time>2026-05-01T07:43:58.773Z</time></trkpt><trkpt lat="39.6654644" lon="8.4895291"><ele>141.6</ele><time>2026-05-01T07:44:00.773Z</time></trkpt><trkpt lat="39.6653923" lon="8.4894045"><ele>142.2</ele><time>2026-05-01T07:44:02.772Z</time></trkpt><trkpt lat="39.665344" lon="8.4892465"><ele>142.8</ele><time>2026-05-01T07:44:04.773Z</time></trkpt><trkpt lat="39.6653293" lon="8.4891401"><ele>143.4</ele><time>2026-05-01T07:44:05.773Z</time></trkpt><trkpt lat="39.6653164" lon="8.4890195"><ele>144.0</ele><time>2026-05-01T07:44:06.773Z</time></trkpt><trkpt lat="39.6653135" lon="8.4888883"><ele>142.83333333333334</ele><time>2026-05-01T07:44:07.773Z</time></trkpt><trkpt lat="39.6653132" lon="8.4887591"><ele>141.66666666666666</ele><time>2026-05-01T07:44:08.772Z</time></trkpt><trkpt lat="39.6653209" lon="8.4886531"><ele>140.5</ele><time>2026-05-01T07:44:09.772Z</time></trkpt><trkpt lat="39.6653433" lon="8.4885629"><ele>139.33333333333331</ele><time>2026-05-01T07:44:10.773Z</time></trkpt><trkpt lat="39.6653798" lon="8.4884752"><ele>138.16666666666666</ele><time>2026-05-01T07:44:11.772Z</time></trkpt><trkpt lat="39.6654163" lon="8.4883912"><ele>137.0</ele><time>2026-05-01T07:44:12.773Z</time></trkpt><trkpt lat="39.6654796" lon="8.4882792"><ele>137.0</ele><time>2026-05-01T07:44:14.773Z</time></trkpt><trkpt lat="39.6655061" lon="8.488191"><ele>137.0</ele><time>2026-05-01T07:44:21.773Z</time></trkpt><trkpt lat="39.6655579" lon="8.4881057"><ele>137.0</ele><time>2026-05-01T07:44:24.772Z</time></trkpt><trkpt lat="39.6656154" lon="8.4880031"><ele>137.0</ele><time>2026-05-01T07:44:26.772Z</time></trkpt><trkpt lat="39.6656784" lon="8.4878907"><ele>137.0</ele><time>2026-05-01T07:44:28.773Z</time></trkpt><trkpt lat="39.6657338" lon="8.4877992"><ele>135.5</ele><time>2026-05-01T07:44:30.773Z</time></trkpt><trkpt lat="39.6657451" lon="8.4876935"><ele>134.0</ele><time>2026-05-01T07:44:32.772Z</time></trkpt><trkpt lat="39.6657319" lon="8.487552"><ele>132.5</ele><time>2026-05-01T07:44:34.773Z</time></trkpt><trkpt lat="39.6657183" lon="8.4874634"><ele>131.0</ele><time>2026-05-01T07:44:35.773Z</time></trkpt><trkpt lat="39.6657103" lon="8.4873681"><ele>129.5</ele><time>2026-05-01T07:44:36.773Z</time></trkpt><trkpt lat="39.6656985" lon="8.4872668"><ele>128.0</ele><time>2026-05-01T07:44:37.774Z</time></trkpt><trkpt lat="39.6656998" lon="8.4871512"><ele>126.33333333333333</ele><time>2026-05-01T07:44:38.774Z</time></trkpt><trkpt lat="39.6657" lon="8.4870369"><ele>124.66666666666666</ele><time>2026-05-01T07:44:39.772Z</time></trkpt><trkpt lat="39.6657018" lon="8.4869322"><ele>123.0</ele><time>2026-05-01T07:44:40.773Z</time></trkpt><trkpt lat="39.665698" lon="8.4868105"><ele>121.33333333333334</ele><time>2026-05-01T07:44:41.774Z</time></trkpt><trkpt lat="39.6657108" lon="8.4866877"><ele>119.66666666666667</ele><time>2026-05-01T07:44:42.774Z</time></trkpt><trkpt lat="39.6657363" lon="8.4865747"><ele>118.0</ele><time>2026-05-01T07:44:43.773Z</time></trkpt><trkpt lat="39.6657692" lon="8.4864612"><ele>118.0</ele><time>2026-05-01T07:44:44.773Z</time></trkpt><trkpt lat="39.6658075" lon="8.4863695"><ele>118.00000000000001</ele><time>2026-05-01T07:44:45.772Z</time></trkpt><trkpt lat="39.6658623" lon="8.4862812"><ele>118.00000000000001</ele><time>2026-05-01T07:44:46.772Z</time></trkpt><trkpt lat="39.6659399" lon="8.4862003"><ele>118.0</ele><time>2026-05-01T07:44:47.772Z</time></trkpt><trkpt lat="39.6660138" lon="8.4861191"><ele>118.0</ele><time>2026-05-01T07:44:48.773Z</time></trkpt><trkpt lat="39.6660717" lon="8.4860267"><ele>117.80000000000001</ele><time>2026-05-01T07:44:49.774Z</time></trkpt><trkpt lat="39.6661014" lon="8.4859243"><ele>117.60000000000001</ele><time>2026-05-01T07:44:50.773Z</time></trkpt><trkpt lat="39.6661152" lon="8.4857913"><ele>117.39999999999999</ele><time>2026-05-01T07:44:51.774Z</time></trkpt><trkpt lat="39.6661124" lon="8.485649"><ele>117.19999999999999</ele><time>2026-05-01T07:44:52.773Z</time></trkpt><trkpt lat="39.6661038" lon="8.4854903"><ele>117.0</ele><time>2026-05-01T07:44:53.772Z</time></trkpt><trkpt lat="39.666088" lon="8.485318"><ele>118.75</ele><time>2026-05-01T07:44:54.774Z</time></trkpt><trkpt lat="39.666079" lon="8.4851458"><ele>120.5</ele><time>2026-05-01T07:44:55.772Z</time></trkpt><trkpt lat="39.6660758" lon="8.4849873"><ele>122.25</ele><time>2026-05-01T07:44:56.773Z</time></trkpt><trkpt lat="39.6660758" lon="8.4848365"><ele>124.0</ele><time>2026-05-01T07:44:57.774Z</time></trkpt><trkpt lat="39.6660649" lon="8.4846934"><ele>123.80000000000001</ele><time>2026-05-01T07:44:58.773Z</time></trkpt><trkpt lat="39.6660541" lon="8.4845582"><ele>123.60000000000001</ele><time>2026-05-01T07:44:59.774Z</time></trkpt><trkpt lat="39.6660472" lon="8.4844204"><ele>123.4</ele><time>2026-05-01T07:45:00.773Z</time></trkpt><trkpt lat="39.6660458" lon="8.4842709"><ele>123.2</ele><time>2026-05-01T07:45:01.774Z</time></trkpt><trkpt lat="39.6660439" lon="8.4841217"><ele>123.0</ele><time>2026-05-01T07:45:02.774Z</time></trkpt><trkpt lat="39.6660528" lon="8.4839707"><ele>123.0</ele><time>2026-05-01T07:45:03.772Z</time></trkpt><trkpt lat="39.6660788" lon="8.483816"><ele>123.0</ele><time>2026-05-01T07:45:04.772Z</time></trkpt><trkpt lat="39.666116" lon="8.4836583"><ele>123.0</ele><time>2026-05-01T07:45:05.773Z</time></trkpt><trkpt lat="39.6661528" lon="8.4834991"><ele>123.0</ele><time>2026-05-01T07:45:06.773Z</time></trkpt><trkpt lat="39.6661802" lon="8.483343"><ele>117.25</ele><time>2026-05-01T07:45:07.773Z</time></trkpt><trkpt lat="39.666191" lon="8.4831854"><ele>111.5</ele><time>2026-05-01T07:45:08.773Z</time></trkpt><trkpt lat="39.6661939" lon="8.4830258"><ele>105.75</ele><time>2026-05-01T07:45:09.772Z</time></trkpt><trkpt lat="39.6661869" lon="8.4828685"><ele>100.0</ele><time>2026-05-01T07:45:10.774Z</time></trkpt><trkpt lat="39.6661715" lon="8.482713"><ele>100.0</ele><time>2026-05-01T07:45:11.774Z</time></trkpt><trkpt lat="39.6661498" lon="8.4825565"><ele>100.0</ele><time>2026-05-01T07:45:12.773Z</time></trkpt><trkpt lat="39.6661229" lon="8.4823928"><ele>100.0</ele><time>2026-05-01T07:45:13.773Z</time></trkpt><trkpt lat="39.6660942" lon="8.48222"><ele>100.0</ele><time>2026-05-01T07:45:14.774Z</time></trkpt><trkpt lat="39.6660691" lon="8.4820365"><ele>102.8</ele><time>2026-05-01T07:45:15.773Z</time></trkpt><trkpt lat="39.6660453" lon="8.481874"><ele>105.6</ele><time>2026-05-01T07:45:16.772Z</time></trkpt><trkpt lat="39.6660331" lon="8.4817389"><ele>108.4</ele><time>2026-05-01T07:45:17.772Z</time></trkpt><trkpt lat="39.6660337" lon="8.4816051"><ele>111.2</ele><time>2026-05-01T07:45:18.774Z</time></trkpt><trkpt lat="39.6660382" lon="8.4814671"><ele>114.0</ele><time>2026-05-01T07:45:19.772Z</time></trkpt><trkpt lat="39.6660477" lon="8.4813169"><ele>113.25</ele><time>2026-05-01T07:45:20.774Z</time></trkpt><trkpt lat="39.6660545" lon="8.4811516"><ele>112.5</ele><time>2026-05-01T07:45:21.772Z</time></trkpt><trkpt lat="39.6660586" lon="8.4809615"><ele>111.75</ele><time>2026-05-01T07:45:22.773Z</time></trkpt><trkpt lat="39.666049" lon="8.4807661"><ele>111.0</ele><time>2026-05-01T07:45:23.773Z</time></trkpt><trkpt lat="39.6660379" lon="8.4805578"><ele>109.66666666666666</ele><time>2026-05-01T07:45:24.773Z</time></trkpt><trkpt lat="39.6660243" lon="8.4803565"><ele>108.33333333333333</ele><time>2026-05-01T07:45:25.773Z</time></trkpt><trkpt lat="39.6660127" lon="8.4801593"><ele>107.0</ele><time>2026-05-01T07:45:26.773Z</time></trkpt><trkpt lat="39.665998" lon="8.4799689"><ele>107.0</ele><time>2026-05-01T07:45:27.773Z</time></trkpt><trkpt lat="39.6659929" lon="8.4797828"><ele>107.0</ele><time>2026-05-01T07:45:28.773Z</time></trkpt><trkpt lat="39.6659979" lon="8.4796056"><ele>107.0</ele><time>2026-05-01T07:45:29.773Z</time></trkpt><trkpt lat="39.665997" lon="8.4794395"><ele>107.0</ele><time>2026-05-01T07:45:30.774Z</time></trkpt><trkpt lat="39.6659961" lon="8.4792954"><ele>106.8</ele><time>2026-05-01T07:45:31.774Z</time></trkpt><trkpt lat="39.6659936" lon="8.4791507"><ele>106.6</ele><time>2026-05-01T07:45:32.773Z</time></trkpt><trkpt lat="39.6659944" lon="8.479008"><ele>106.39999999999999</ele><time>2026-05-01T07:45:33.773Z</time></trkpt><trkpt lat="39.6659937" lon="8.4788766"><ele>106.19999999999999</ele><time>2026-05-01T07:45:34.772Z</time></trkpt><trkpt lat="39.6659975" lon="8.4787612"><ele>106.0</ele><time>2026-05-01T07:45:35.773Z</time></trkpt><trkpt lat="39.6660138" lon="8.4786537"><ele>105.66666666666667</ele><time>2026-05-01T07:45:36.774Z</time></trkpt><trkpt lat="39.6660402" lon="8.4785543"><ele>105.33333333333334</ele><time>2026-05-01T07:45:37.773Z</time></trkpt><trkpt lat="39.6660741" lon="8.4784548"><ele>105.0</ele><time>2026-05-01T07:45:38.774Z</time></trkpt><trkpt lat="39.6661075" lon="8.4783585"><ele>104.66666666666666</ele><time>2026-05-01T07:45:39.772Z</time></trkpt><trkpt lat="39.6661353" lon="8.4782655"><ele>104.33333333333333</ele><time>2026-05-01T07:45:40.773Z</time></trkpt><trkpt lat="39.6661616" lon="8.4781718"><ele>104.0</ele><time>2026-05-01T07:45:41.773Z</time></trkpt><trkpt lat="39.6661818" lon="8.4780717"><ele>100.83333333333333</ele><time>2026-05-01T07:45:42.772Z</time></trkpt><trkpt lat="39.6662038" lon="8.4779657"><ele>97.66666666666666</ele><time>2026-05-01T07:45:43.774Z</time></trkpt><trkpt lat="39.6662245" lon="8.4778552"><ele>94.5</ele><time>2026-05-01T07:45:44.773Z</time></trkpt><trkpt lat="39.6662394" lon="8.4777522"><ele>91.33333333333333</ele><time>2026-05-01T07:45:45.772Z</time></trkpt><trkpt lat="39.6662546" lon="8.4776404"><ele>88.16666666666666</ele><time>2026-05-01T07:45:46.772Z</time></trkpt><trkpt lat="39.6662635" lon="8.4775157"><ele>85.0</ele><time>2026-05-01T07:45:47.772Z</time></trkpt><trkpt lat="39.6662666" lon="8.4773841"><ele>84.2</ele><time>2026-05-01T07:45:48.773Z</time></trkpt><trkpt lat="39.6662748" lon="8.4772672"><ele>83.4</ele><time>2026-05-01T07:45:49.773Z</time></trkpt><trkpt lat="39.666288" lon="8.4771583"><ele>82.6</ele><time>2026-05-01T07:45:50.773Z</time></trkpt><trkpt lat="39.6663017" lon="8.4770473"><ele>81.8</ele><time>2026-05-01T07:45:51.773Z</time></trkpt><trkpt lat="39.6663293" lon="8.4769448"><ele>81.0</ele><time>2026-05-01T07:45:52.774Z</time></trkpt><trkpt lat="39.6663648" lon="8.4768168"><ele>79.8</ele><time>2026-05-01T07:45:53.772Z</time></trkpt><trkpt lat="39.6664028" lon="8.4766813"><ele>78.6</ele><time>2026-05-01T07:45:54.773Z</time></trkpt><trkpt lat="39.6664397" lon="8.4765529"><ele>77.4</ele><time>2026-05-01T07:45:55.773Z</time></trkpt><trkpt lat="39.6664632" lon="8.4764367"><ele>76.2</ele><time>2026-05-01T07:45:56.773Z</time></trkpt><trkpt lat="39.666487" lon="8.4763251"><ele>75.0</ele><time>2026-05-01T07:45:57.773Z</time></trkpt><trkpt lat="39.6665149" lon="8.4762351"><ele>74.0</ele><time>2026-05-01T07:45:58.774Z</time></trkpt><trkpt lat="39.6665453" lon="8.4761533"><ele>73.0</ele><time>2026-05-01T07:45:59.772Z</time></trkpt><trkpt lat="39.666584" lon="8.4760564"><ele>72.0</ele><time>2026-05-01T07:46:00.773Z</time></trkpt><trkpt lat="39.6666187" lon="8.475948"><ele>71.0</ele><time>2026-05-01T07:46:01.772Z</time></trkpt><trkpt lat="39.6666555" lon="8.4758295"><ele>70.0</ele><time>2026-05-01T07:46:02.773Z</time></trkpt><trkpt lat="39.6666934" lon="8.4757126"><ele>69.0</ele><time>2026-05-01T07:46:03.773Z</time></trkpt><trkpt lat="39.6667236" lon="8.475587"><ele>69.0</ele><time>2026-05-01T07:46:04.773Z</time></trkpt><trkpt lat="39.6667509" lon="8.4754631"><ele>69.0</ele><time>2026-05-01T07:46:05.772Z</time></trkpt><trkpt lat="39.6667854" lon="8.4753422"><ele>69.0</ele><time>2026-05-01T07:46:06.773Z</time></trkpt><trkpt lat="39.6668323" lon="8.4752125"><ele>69.0</ele><time>2026-05-01T07:46:07.772Z</time></trkpt><trkpt lat="39.6668738" lon="8.475084"><ele>69.0</ele><time>2026-05-01T07:46:08.773Z</time></trkpt><trkpt lat="39.6669074" lon="8.4749556"><ele>68.5</ele><time>2026-05-01T07:46:09.772Z</time></trkpt><trkpt lat="39.6669317" lon="8.4748262"><ele>68.0</ele><time>2026-05-01T07:46:10.773Z</time></trkpt><trkpt lat="39.6669532" lon="8.4747166"><ele>67.5</ele><time>2026-05-01T07:46:11.773Z</time></trkpt><trkpt lat="39.666962" lon="8.4746197"><ele>67.0</ele><time>2026-05-01T07:46:12.774Z</time></trkpt><trkpt lat="39.6669629" lon="8.4745193"><ele>66.5</ele><time>2026-05-01T07:46:13.773Z</time></trkpt><trkpt lat="39.6669539" lon="8.4744134"><ele>66.0</ele><time>2026-05-01T07:46:14.772Z</time></trkpt><trkpt lat="39.6669379" lon="8.4743011"><ele>65.66666666666667</ele><time>2026-05-01T07:46:15.774Z</time></trkpt><trkpt lat="39.6669266" lon="8.4741893"><ele>65.33333333333333</ele><time>2026-05-01T07:46:16.772Z</time></trkpt><trkpt lat="39.6669183" lon="8.4740773"><ele>65.0</ele><time>2026-05-01T07:46:17.774Z</time></trkpt><trkpt lat="39.6669175" lon="8.4739577"><ele>64.66666666666666</ele><time>2026-05-01T07:46:18.773Z</time></trkpt><trkpt lat="39.6669244" lon="8.4738438"><ele>64.33333333333333</ele><time>2026-05-01T07:46:19.772Z</time></trkpt><trkpt lat="39.6669346" lon="8.4737462"><ele>64.0</ele><time>2026-05-01T07:46:20.773Z</time></trkpt><trkpt lat="39.6669311" lon="8.4736609"><ele>63.0</ele><time>2026-05-01T07:46:21.774Z</time></trkpt><trkpt lat="39.6669208" lon="8.4735684"><ele>61.99999999999999</ele><time>2026-05-01T07:46:22.772Z</time></trkpt><trkpt lat="39.6669046" lon="8.4734624"><ele>61.0</ele><time>2026-05-01T07:46:23.772Z</time></trkpt><trkpt lat="39.6668973" lon="8.4733681"><ele>60.0</ele><time>2026-05-01T07:46:24.772Z</time></trkpt><trkpt lat="39.6668956" lon="8.4732674"><ele>58.99999999999999</ele><time>2026-05-01T07:46:25.772Z</time></trkpt><trkpt lat="39.6668873" lon="8.4731731"><ele>58.0</ele><time>2026-05-01T07:46:26.774Z</time></trkpt><trkpt lat="39.6668786" lon="8.473092"><ele>57.0</ele><time>2026-05-01T07:46:27.773Z</time></trkpt><trkpt lat="39.666881" lon="8.4729343"><ele>55.5</ele><time>2026-05-01T07:46:29.772Z</time></trkpt><trkpt lat="39.6669348" lon="8.4727844"><ele>54.0</ele><time>2026-05-01T07:46:31.773Z</time></trkpt><trkpt lat="39.6669779" lon="8.4727069"><ele>52.5</ele><time>2026-05-01T07:46:32.772Z</time></trkpt><trkpt lat="39.667029" lon="8.4726294"><ele>51.0</ele><time>2026-05-01T07:46:33.773Z</time></trkpt><trkpt lat="39.6670821" lon="8.4725542"><ele>49.5</ele><time>2026-05-01T07:46:34.773Z</time></trkpt><trkpt lat="39.6671297" lon="8.4724974"><ele>48.0</ele><time>2026-05-01T07:46:35.774Z</time></trkpt><trkpt lat="39.6672289" lon="8.4724316"><ele>47.5</ele><time>2026-05-01T07:46:37.773Z</time></trkpt><trkpt lat="39.6673295" lon="8.4724189"><ele>47.0</ele><time>2026-05-01T07:46:39.773Z</time></trkpt><trkpt lat="39.6673964" lon="8.4723878"><ele>46.5</ele><time>2026-05-01T07:46:41.773Z</time></trkpt><trkpt lat="39.6673847" lon="8.4722888"><ele>46.0</ele><time>2026-05-01T07:46:43.774Z</time></trkpt><trkpt lat="39.667291" lon="8.4721979"><ele>45.5</ele><time>2026-05-01T07:46:45.774Z</time></trkpt><trkpt lat="39.6672326" lon="8.4721645"><ele>45.0</ele><time>2026-05-01T07:46:46.773Z</time></trkpt><trkpt lat="39.6671183" lon="8.4721148"><ele>43.2</ele><time>2026-05-01T07:46:48.772Z</time></trkpt><trkpt lat="39.6670399" lon="8.4720561"><ele>41.4</ele><time>2026-05-01T07:46:50.773Z</time></trkpt><trkpt lat="39.6670378" lon="8.4719549"><ele>39.6</ele><time>2026-05-01T07:46:53.772Z</time></trkpt><trkpt lat="39.6670505" lon="8.4718151"><ele>37.8</ele><time>2026-05-01T07:46:55.773Z</time></trkpt><trkpt lat="39.6670969" lon="8.4716769"><ele>36.0</ele><time>2026-05-01T07:46:57.773Z</time></trkpt><trkpt lat="39.6671424" lon="8.471597"><ele>36.0</ele><time>2026-05-01T07:46:58.773Z</time></trkpt><trkpt lat="39.6671886" lon="8.4715306"><ele>36.0</ele><time>2026-05-01T07:46:59.772Z</time></trkpt><trkpt lat="39.6672799" lon="8.4714321"><ele>36.0</ele><time>2026-05-01T07:47:01.772Z</time></trkpt><trkpt lat="39.667377" lon="8.4713827"><ele>36.0</ele><time>2026-05-01T07:47:03.774Z</time></trkpt><trkpt lat="39.6674667" lon="8.4713045"><ele>36.0</ele><time>2026-05-01T07:47:05.773Z</time></trkpt><trkpt lat="39.667536" lon="8.4711548"><ele>35.6</ele><time>2026-05-01T07:47:07.772Z</time></trkpt><trkpt lat="39.6675859" lon="8.4710879"><ele>35.2</ele><time>2026-05-01T07:47:08.774Z</time></trkpt><trkpt lat="39.6676436" lon="8.4710303"><ele>34.8</ele><time>2026-05-01T07:47:09.773Z</time></trkpt><trkpt lat="39.6677576" lon="8.4709977"><ele>34.4</ele><time>2026-05-01T07:47:11.773Z</time></trkpt><trkpt lat="39.6678785" lon="8.4710089"><ele>34.0</ele><time>2026-05-01T07:47:13.773Z</time></trkpt><trkpt lat="39.667968" lon="8.4709587"><ele>34.66666666666667</ele><time>2026-05-01T07:47:15.773Z</time></trkpt><trkpt lat="39.6680206" lon="8.4708911"><ele>35.333333333333336</ele><time>2026-05-01T07:47:16.772Z</time></trkpt><trkpt lat="39.6680615" lon="8.4707825"><ele>36.0</ele><time>2026-05-01T07:47:17.772Z</time></trkpt><trkpt lat="39.668111" lon="8.4706722"><ele>36.666666666666664</ele><time>2026-05-01T07:47:18.774Z</time></trkpt><trkpt lat="39.6681541" lon="8.4705774"><ele>37.33333333333333</ele><time>2026-05-01T07:47:19.774Z</time></trkpt><trkpt lat="39.6681791" lon="8.470502"><ele>38.0</ele><time>2026-05-01T07:47:20.772Z</time></trkpt><trkpt lat="39.6682171" lon="8.4704021"><ele>38.0</ele><time>2026-05-01T07:47:21.772Z</time></trkpt><trkpt lat="39.6682683" lon="8.4702909"><ele>38.0</ele><time>2026-05-01T07:47:22.773Z</time></trkpt><trkpt lat="39.6683334" lon="8.4701673"><ele>38.0</ele><time>2026-05-01T07:47:23.773Z</time></trkpt><trkpt lat="39.6684014" lon="8.4700467"><ele>38.0</ele><time>2026-05-01T07:47:24.773Z</time></trkpt><trkpt lat="39.6684716" lon="8.4699306"><ele>38.0</ele><time>2026-05-01T07:47:25.774Z</time></trkpt><trkpt lat="39.6685467" lon="8.4698286"><ele>38.4</ele><time>2026-05-01T07:47:26.774Z</time></trkpt><trkpt lat="39.668625" lon="8.4697341"><ele>38.8</ele><time>2026-05-01T07:47:27.774Z</time></trkpt><trkpt lat="39.6687021" lon="8.4696442"><ele>39.2</ele><time>2026-05-01T07:47:28.772Z</time></trkpt><trkpt lat="39.6687751" lon="8.4695496"><ele>39.6</ele><time>2026-05-01T07:47:29.772Z</time></trkpt><trkpt lat="39.6688502" lon="8.4694542"><ele>40.0</ele><time>2026-05-01T07:47:30.772Z</time></trkpt><trkpt lat="39.6689185" lon="8.4693575"><ele>40.0</ele><time>2026-05-01T07:47:31.772Z</time></trkpt><trkpt lat="39.6689821" lon="8.4692557"><ele>40.0</ele><time>2026-05-01T07:47:32.773Z</time></trkpt><trkpt lat="39.669048" lon="8.4691564"><ele>40.0</ele><time>2026-05-01T07:47:33.773Z</time></trkpt><trkpt lat="39.669111" lon="8.4690774"><ele>40.0</ele><time>2026-05-01T07:47:34.773Z</time></trkpt><trkpt lat="39.6691768" lon="8.4690029"><ele>40.0</ele><time>2026-05-01T07:47:35.774Z</time></trkpt><trkpt lat="39.6692443" lon="8.4689224"><ele>40.0</ele><time>2026-05-01T07:47:36.772Z</time></trkpt><trkpt lat="39.6693195" lon="8.4688404"><ele>40.0</ele><time>2026-05-01T07:47:37.772Z</time></trkpt><trkpt lat="39.6693862" lon="8.4687636"><ele>40.0</ele><time>2026-05-01T07:47:38.772Z</time></trkpt><trkpt lat="39.6694619" lon="8.4686829"><ele>40.0</ele><time>2026-05-01T07:47:39.772Z</time></trkpt><trkpt lat="39.6695344" lon="8.4686129"><ele>40.0</ele><time>2026-05-01T07:47:40.773Z</time></trkpt><trkpt lat="39.6696044" lon="8.4685586"><ele>39.4</ele><time>2026-05-01T07:47:41.774Z</time></trkpt><trkpt lat="39.6696822" lon="8.4685247"><ele>38.8</ele><time>2026-05-01T07:47:42.774Z</time></trkpt><trkpt lat="39.6697661" lon="8.4685053"><ele>38.2</ele><time>2026-05-01T07:47:43.772Z</time></trkpt><trkpt lat="39.6698381" lon="8.4684709"><ele>37.6</ele><time>2026-05-01T07:47:44.773Z</time></trkpt><trkpt lat="39.6699377" lon="8.4683593"><ele>37.0</ele><time>2026-05-01T07:47:46.772Z</time></trkpt><trkpt lat="39.6699836" lon="8.4682684"><ele>37.0</ele><time>2026-05-01T07:47:47.771Z</time></trkpt><trkpt lat="39.6700156" lon="8.4681298"><ele>37.0</ele><time>2026-05-01T07:47:48.771Z</time></trkpt><trkpt lat="39.6700802" lon="8.4680074"><ele>37.0</ele><time>2026-05-01T07:47:49.772Z</time></trkpt><trkpt lat="39.6701476" lon="8.467887"><ele>37.0</ele><time>2026-05-01T07:47:50.772Z</time></trkpt><trkpt lat="39.6702117" lon="8.4677993"><ele>37.0</ele><time>2026-05-01T07:47:51.771Z</time></trkpt><trkpt lat="39.6702668" lon="8.4677325"><ele>37.0</ele><time>2026-05-01T07:47:52.773Z</time></trkpt><trkpt lat="39.6702816" lon="8.4676081"><ele>37.0</ele><time>2026-05-01T07:47:54.772Z</time></trkpt><trkpt lat="39.6701668" lon="8.4675051"><ele>37.0</ele><time>2026-05-01T07:47:56.771Z</time></trkpt><trkpt lat="39.6700737" lon="8.4674537"><ele>37.0</ele><time>2026-05-01T07:47:57.773Z</time></trkpt><trkpt lat="39.6699803" lon="8.4673851"><ele>37.0</ele><time>2026-05-01T07:47:58.773Z</time></trkpt><trkpt lat="39.6698758" lon="8.4673085"><ele>37.0</ele><time>2026-05-01T07:47:59.771Z</time></trkpt><trkpt lat="39.6697518" lon="8.467234"><ele>37.0</ele><time>2026-05-01T07:48:00.772Z</time></trkpt><trkpt lat="39.6696307" lon="8.4671747"><ele>37.0</ele><time>2026-05-01T07:48:01.772Z</time></trkpt><trkpt lat="39.6695033" lon="8.4671155"><ele>37.0</ele><time>2026-05-01T07:48:02.772Z</time></trkpt><trkpt lat="39.6693833" lon="8.4670668"><ele>35.2</ele><time>2026-05-01T07:48:03.772Z</time></trkpt><trkpt lat="39.6692663" lon="8.4670074"><ele>33.400000000000006</ele><time>2026-05-01T07:48:04.772Z</time></trkpt><trkpt lat="39.669159" lon="8.4669309"><ele>31.599999999999998</ele><time>2026-05-01T07:48:05.773Z</time></trkpt><trkpt lat="39.669078" lon="8.4668536"><ele>29.799999999999997</ele><time>2026-05-01T07:48:06.773Z</time></trkpt><trkpt lat="39.6690136" lon="8.4667616"><ele>28.0</ele><time>2026-05-01T07:48:07.773Z</time></trkpt><trkpt lat="39.6689589" lon="8.4666585"><ele>28.0</ele><time>2026-05-01T07:48:08.772Z</time></trkpt><trkpt lat="39.6689032" lon="8.4665265"><ele>28.0</ele><time>2026-05-01T07:48:09.771Z</time></trkpt><trkpt lat="39.6688616" lon="8.4663877"><ele>28.0</ele><time>2026-05-01T07:48:10.772Z</time></trkpt><trkpt lat="39.6688326" lon="8.4662403"><ele>28.0</ele><time>2026-05-01T07:48:11.772Z</time></trkpt><trkpt lat="39.6688115" lon="8.4660783"><ele>28.000000000000004</ele><time>2026-05-01T07:48:12.773Z</time></trkpt><trkpt lat="39.6687976" lon="8.4659437"><ele>28.0</ele><time>2026-05-01T07:48:13.773Z</time></trkpt><trkpt lat="39.6687758" lon="8.4658128"><ele>28.0</ele><time>2026-05-01T07:48:14.772Z</time></trkpt><trkpt lat="39.6687542" lon="8.4656944"><ele>28.0</ele><time>2026-05-01T07:48:15.772Z</time></trkpt><trkpt lat="39.6687469" lon="8.4656131"><ele>28.000000000000004</ele><time>2026-05-01T07:48:16.772Z</time></trkpt><trkpt lat="39.6687616" lon="8.4655115"><ele>28.0</ele><time>2026-05-01T07:48:18.772Z</time></trkpt><trkpt lat="39.6687336" lon="8.4654328"><ele>27.4</ele><time>2026-05-01T07:48:23.772Z</time></trkpt><trkpt lat="39.6686334" lon="8.4654094"><ele>26.799999999999997</ele><time>2026-05-01T07:48:25.771Z</time></trkpt><trkpt lat="39.6685627" lon="8.465381"><ele>26.2</ele><time>2026-05-01T07:48:26.773Z</time></trkpt><trkpt lat="39.6684834" lon="8.4653189"><ele>25.6</ele><time>2026-05-01T07:48:27.773Z</time></trkpt><trkpt lat="39.6684056" lon="8.4652278"><ele>25.0</ele><time>2026-05-01T07:48:28.772Z</time></trkpt><trkpt lat="39.6683571" lon="8.4651167"><ele>24.75</ele><time>2026-05-01T07:48:29.771Z</time></trkpt><trkpt lat="39.6683251" lon="8.4649901"><ele>24.5</ele><time>2026-05-01T07:48:30.773Z</time></trkpt><trkpt lat="39.6683241" lon="8.4648446"><ele>24.25</ele><time>2026-05-01T07:48:31.772Z</time></trkpt><trkpt lat="39.6683523" lon="8.4646874"><ele>24.0</ele><time>2026-05-01T07:48:32.772Z</time></trkpt><trkpt lat="39.6683832" lon="8.4645106"><ele>25.0</ele><time>2026-05-01T07:48:33.773Z</time></trkpt><trkpt lat="39.6684212" lon="8.4643149"><ele>26.0</ele><time>2026-05-01T07:48:34.773Z</time></trkpt><trkpt lat="39.6684693" lon="8.4641085"><ele>27.0</ele><time>2026-05-01T07:48:35.772Z</time></trkpt><trkpt lat="39.6685164" lon="8.4639025"><ele>29.333333333333336</ele><time>2026-05-01T07:48:36.772Z</time></trkpt><trkpt lat="39.6685592" lon="8.4637"><ele>31.666666666666668</ele><time>2026-05-01T07:48:37.772Z</time></trkpt><trkpt lat="39.6686005" lon="8.4635"><ele>34.0</ele><time>2026-05-01T07:48:38.773Z</time></trkpt><trkpt lat="39.6686422" lon="8.4633156"><ele>30.25</ele><time>2026-05-01T07:48:39.772Z</time></trkpt><trkpt lat="39.6686826" lon="8.4631276"><ele>26.5</ele><time>2026-05-01T07:48:40.773Z</time></trkpt><trkpt lat="39.6687196" lon="8.4629445"><ele>22.75</ele><time>2026-05-01T07:48:41.772Z</time></trkpt><trkpt lat="39.6687576" lon="8.4627662"><ele>19.0</ele><time>2026-05-01T07:48:42.773Z</time></trkpt><trkpt lat="39.6687847" lon="8.4625837"><ele>19.0</ele><time>2026-05-01T07:48:43.772Z</time></trkpt><trkpt lat="39.6688015" lon="8.4623999"><ele>19.0</ele><time>2026-05-01T07:48:44.773Z</time></trkpt><trkpt lat="39.6688129" lon="8.4622148"><ele>19.0</ele><time>2026-05-01T07:48:45.772Z</time></trkpt><trkpt lat="39.668812" lon="8.4620351"><ele>19.0</ele><time>2026-05-01T07:48:46.772Z</time></trkpt><trkpt lat="39.668783" lon="8.4618586"><ele>18.25</ele><time>2026-05-01T07:48:47.772Z</time></trkpt><trkpt lat="39.6687259" lon="8.4616932"><ele>17.5</ele><time>2026-05-01T07:48:48.773Z</time></trkpt><trkpt lat="39.6686464" lon="8.4615476"><ele>16.75</ele><time>2026-05-01T07:48:49.771Z</time></trkpt><trkpt lat="39.6685521" lon="8.4614257"><ele>16.0</ele><time>2026-05-01T07:48:50.771Z</time></trkpt><trkpt lat="39.6684505" lon="8.4613222"><ele>16.75</ele><time>2026-05-01T07:48:51.771Z</time></trkpt><trkpt lat="39.668345" lon="8.4612194"><ele>17.5</ele><time>2026-05-01T07:48:52.772Z</time></trkpt><trkpt lat="39.6682412" lon="8.4611137"><ele>18.25</ele><time>2026-05-01T07:48:53.771Z</time></trkpt><trkpt lat="39.6681424" lon="8.4610107"><ele>19.0</ele><time>2026-05-01T07:48:54.771Z</time></trkpt><trkpt lat="39.6680459" lon="8.4609215"><ele>19.0</ele><time>2026-05-01T07:48:55.772Z</time></trkpt><trkpt lat="39.6679488" lon="8.4608649"><ele>19.0</ele><time>2026-05-01T07:48:56.772Z</time></trkpt><trkpt lat="39.6678592" lon="8.4608379"><ele>19.0</ele><time>2026-05-01T07:48:57.772Z</time></trkpt><trkpt lat="39.6677673" lon="8.4608402"><ele>19.0</ele><time>2026-05-01T07:48:58.771Z</time></trkpt><trkpt lat="39.6676699" lon="8.4608815"><ele>19.0</ele><time>2026-05-01T07:48:59.773Z</time></trkpt><trkpt lat="39.6675845" lon="8.4609616"><ele>21.75</ele><time>2026-05-01T07:49:00.772Z</time></trkpt><trkpt lat="39.6675043" lon="8.4610712"><ele>24.5</ele><time>2026-05-01T07:49:01.772Z</time></trkpt><trkpt lat="39.6674331" lon="8.4611964"><ele>27.25</ele><time>2026-05-01T07:49:02.772Z</time></trkpt><trkpt lat="39.6673723" lon="8.4613386"><ele>30.0</ele><time>2026-05-01T07:49:03.772Z</time></trkpt><trkpt lat="39.6673275" lon="8.4614964"><ele>34.5</ele><time>2026-05-01T07:49:04.772Z</time></trkpt><trkpt lat="39.6672978" lon="8.4616673"><ele>39.0</ele><time>2026-05-01T07:49:05.772Z</time></trkpt><trkpt lat="39.6672903" lon="8.4618447"><ele>43.5</ele><time>2026-05-01T07:49:06.772Z</time></trkpt><trkpt lat="39.6673003" lon="8.4620268"><ele>48.0</ele><time>2026-05-01T07:49:07.772Z</time></trkpt><trkpt lat="39.6673206" lon="8.4622075"><ele>48.75</ele><time>2026-05-01T07:49:08.772Z</time></trkpt><trkpt lat="39.6673444" lon="8.4623912"><ele>49.5</ele><time>2026-05-01T07:49:09.771Z</time></trkpt><trkpt lat="39.667363" lon="8.4625619"><ele>50.25</ele><time>2026-05-01T07:49:10.773Z</time></trkpt><trkpt lat="39.6673752" lon="8.4627049"><ele>51.0</ele><time>2026-05-01T07:49:11.772Z</time></trkpt><trkpt lat="39.667387" lon="8.4628428"><ele>51.199999999999996</ele><time>2026-05-01T07:49:12.772Z</time></trkpt><trkpt lat="39.6674001" lon="8.4629677"><ele>51.4</ele><time>2026-05-01T07:49:13.771Z</time></trkpt><trkpt lat="39.6674126" lon="8.4630883"><ele>51.6</ele><time>2026-05-01T07:49:14.771Z</time></trkpt><trkpt lat="39.6674227" lon="8.4632091"><ele>51.8</ele><time>2026-05-01T07:49:15.772Z</time></trkpt><trkpt lat="39.6674282" lon="8.4633291"><ele>52.0</ele><time>2026-05-01T07:49:16.772Z</time></trkpt><trkpt lat="39.6674382" lon="8.4634496"><ele>52.0</ele><time>2026-05-01T07:49:17.771Z</time></trkpt><trkpt lat="39.6674504" lon="8.4635701"><ele>52.0</ele><time>2026-05-01T07:49:18.772Z</time></trkpt><trkpt lat="39.6674622" lon="8.4636932"><ele>52.0</ele><time>2026-05-01T07:49:19.771Z</time></trkpt><trkpt lat="39.6674741" lon="8.463814"><ele>52.0</ele><time>2026-05-01T07:49:20.771Z</time></trkpt><trkpt lat="39.6674824" lon="8.4639353"><ele>52.0</ele><time>2026-05-01T07:49:21.773Z</time></trkpt><trkpt lat="39.6674899" lon="8.4640522"><ele>52.2</ele><time>2026-05-01T07:49:22.772Z</time></trkpt><trkpt lat="39.6674898" lon="8.464169"><ele>52.400000000000006</ele><time>2026-05-01T07:49:23.772Z</time></trkpt><trkpt lat="39.6674848" lon="8.4642898"><ele>52.599999999999994</ele><time>2026-05-01T07:49:24.771Z</time></trkpt><trkpt lat="39.6674758" lon="8.4644093"><ele>52.8</ele><time>2026-05-01T07:49:25.771Z</time></trkpt><trkpt lat="39.6674498" lon="8.4645306"><ele>53.0</ele><time>2026-05-01T07:49:26.772Z</time></trkpt><trkpt lat="39.6674151" lon="8.4646505"><ele>52.599999999999994</ele><time>2026-05-01T07:49:27.773Z</time></trkpt><trkpt lat="39.6673707" lon="8.4647686"><ele>52.199999999999996</ele><time>2026-05-01T07:49:28.772Z</time></trkpt><trkpt lat="39.6673152" lon="8.4648798"><ele>51.8</ele><time>2026-05-01T07:49:29.772Z</time></trkpt><trkpt lat="39.6672511" lon="8.4649836"><ele>51.4</ele><time>2026-05-01T07:49:30.773Z</time></trkpt><trkpt lat="39.6671806" lon="8.4650846"><ele>51.0</ele><time>2026-05-01T07:49:31.772Z</time></trkpt><trkpt lat="39.6671064" lon="8.4651903"><ele>51.0</ele><time>2026-05-01T07:49:32.771Z</time></trkpt><trkpt lat="39.6670291" lon="8.4653049"><ele>51.0</ele><time>2026-05-01T07:49:33.771Z</time></trkpt><trkpt lat="39.6669491" lon="8.4654247"><ele>51.0</ele><time>2026-05-01T07:49:34.772Z</time></trkpt><trkpt lat="39.6668681" lon="8.4655429"><ele>51.0</ele><time>2026-05-01T07:49:35.771Z</time></trkpt><trkpt lat="39.6667869" lon="8.4656616"><ele>57.5</ele><time>2026-05-01T07:49:36.772Z</time></trkpt><trkpt lat="39.6666997" lon="8.4657895"><ele>64.0</ele><time>2026-05-01T07:49:37.771Z</time></trkpt><trkpt lat="39.6666135" lon="8.465918"><ele>70.5</ele><time>2026-05-01T07:49:38.772Z</time></trkpt><trkpt lat="39.6665267" lon="8.4660435"><ele>77.0</ele><time>2026-05-01T07:49:39.771Z</time></trkpt><trkpt lat="39.6664436" lon="8.4661676"><ele>79.25</ele><time>2026-05-01T07:49:40.771Z</time></trkpt><trkpt lat="39.666361" lon="8.4662867"><ele>81.5</ele><time>2026-05-01T07:49:41.773Z</time></trkpt><trkpt lat="39.6662787" lon="8.4664053"><ele>83.75</ele><time>2026-05-01T07:49:42.772Z</time></trkpt><trkpt lat="39.6661944" lon="8.4665207"><ele>86.0</ele><time>2026-05-01T07:49:43.773Z</time></trkpt><trkpt lat="39.6661109" lon="8.466637"><ele>86.0</ele><time>2026-05-01T07:49:44.772Z</time></trkpt><trkpt lat="39.6660276" lon="8.4667527"><ele>86.0</ele><time>2026-05-01T07:49:45.771Z</time></trkpt><trkpt lat="39.6659468" lon="8.4668692"><ele>86.0</ele><time>2026-05-01T07:49:46.772Z</time></trkpt><trkpt lat="39.6658648" lon="8.4669853"><ele>86.0</ele><time>2026-05-01T07:49:47.771Z</time></trkpt><trkpt lat="39.6657851" lon="8.4670984"><ele>83.0</ele><time>2026-05-01T07:49:48.772Z</time></trkpt><trkpt lat="39.6657074" lon="8.4672119"><ele>80.0</ele><time>2026-05-01T07:49:49.771Z</time></trkpt><trkpt lat="39.6656277" lon="8.467329"><ele>77.0</ele><time>2026-05-01T07:49:50.772Z</time></trkpt><trkpt lat="39.665541" lon="8.4674552"><ele>74.0</ele><time>2026-05-01T07:49:51.772Z</time></trkpt><trkpt lat="39.6654522" lon="8.4675803"><ele>74.0</ele><time>2026-05-01T07:49:52.771Z</time></trkpt><trkpt lat="39.6653531" lon="8.4677083"><ele>74.0</ele><time>2026-05-01T07:49:53.772Z</time></trkpt><trkpt lat="39.6652514" lon="8.4678335"><ele>74.0</ele><time>2026-05-01T07:49:54.772Z</time></trkpt><trkpt lat="39.6651595" lon="8.4679427"><ele>74.0</ele><time>2026-05-01T07:49:55.773Z</time></trkpt><trkpt lat="39.6650763" lon="8.4680348"><ele>76.4</ele><time>2026-05-01T07:49:56.772Z</time></trkpt><trkpt lat="39.6649978" lon="8.4681261"><ele>78.80000000000001</ele><time>2026-05-01T07:49:57.772Z</time></trkpt><trkpt lat="39.664925" lon="8.4682208"><ele>81.19999999999999</ele><time>2026-05-01T07:49:58.772Z</time></trkpt><trkpt lat="39.664857" lon="8.4683171"><ele>83.6</ele><time>2026-05-01T07:49:59.772Z</time></trkpt><trkpt lat="39.6647912" lon="8.4684159"><ele>86.0</ele><time>2026-05-01T07:50:00.772Z</time></trkpt><trkpt lat="39.6647311" lon="8.4685233"><ele>86.0</ele><time>2026-05-01T07:50:01.772Z</time></trkpt><trkpt lat="39.6646697" lon="8.4686326"><ele>86.0</ele><time>2026-05-01T07:50:02.772Z</time></trkpt><trkpt lat="39.6646088" lon="8.46874"><ele>86.0</ele><time>2026-05-01T07:50:03.772Z</time></trkpt><trkpt lat="39.6645466" lon="8.4688423"><ele>86.0</ele><time>2026-05-01T07:50:04.771Z</time></trkpt><trkpt lat="39.6644881" lon="8.4689445"><ele>86.0</ele><time>2026-05-01T07:50:05.772Z</time></trkpt><trkpt lat="39.6644301" lon="8.4690462"><ele>90.0</ele><time>2026-05-01T07:50:06.771Z</time></trkpt><trkpt lat="39.6643692" lon="8.4691475"><ele>94.0</ele><time>2026-05-01T07:50:07.772Z</time></trkpt><trkpt lat="39.6643095" lon="8.4692511"><ele>98.0</ele><time>2026-05-01T07:50:08.772Z</time></trkpt><trkpt lat="39.6642492" lon="8.4693544"><ele>102.0</ele><time>2026-05-01T07:50:09.773Z</time></trkpt><trkpt lat="39.6641819" lon="8.469452"><ele>106.0</ele><time>2026-05-01T07:50:10.772Z</time></trkpt><trkpt lat="39.6641202" lon="8.4695566"><ele>106.19999999999999</ele><time>2026-05-01T07:50:11.772Z</time></trkpt><trkpt lat="39.6640721" lon="8.4696612"><ele>106.39999999999999</ele><time>2026-05-01T07:50:12.773Z</time></trkpt><trkpt lat="39.6640333" lon="8.4697658"><ele>106.6</ele><time>2026-05-01T07:50:13.772Z</time></trkpt><trkpt lat="39.6640073" lon="8.4698778"><ele>106.8</ele><time>2026-05-01T07:50:14.772Z</time></trkpt><trkpt lat="39.6639921" lon="8.4700045"><ele>107.0</ele><time>2026-05-01T07:50:15.771Z</time></trkpt><trkpt lat="39.6639957" lon="8.4701373"><ele>107.0</ele><time>2026-05-01T07:50:16.772Z</time></trkpt><trkpt lat="39.6640179" lon="8.4702733"><ele>106.99999999999999</ele><time>2026-05-01T07:50:17.773Z</time></trkpt><trkpt lat="39.6640498" lon="8.4704099"><ele>106.99999999999999</ele><time>2026-05-01T07:50:18.772Z</time></trkpt><trkpt lat="39.6640929" lon="8.4705513"><ele>107.0</ele><time>2026-05-01T07:50:19.771Z</time></trkpt><trkpt lat="39.6641381" lon="8.4706869"><ele>107.0</ele><time>2026-05-01T07:50:20.773Z</time></trkpt><trkpt lat="39.6641756" lon="8.4708236"><ele>107.8</ele><time>2026-05-01T07:50:21.772Z</time></trkpt><trkpt lat="39.6641885" lon="8.4709606"><ele>108.6</ele><time>2026-05-01T07:50:22.773Z</time></trkpt><trkpt lat="39.6641766" lon="8.4710953"><ele>109.39999999999999</ele><time>2026-05-01T07:50:23.772Z</time></trkpt><trkpt lat="39.6641482" lon="8.4712299"><ele>110.19999999999999</ele><time>2026-05-01T07:50:24.771Z</time></trkpt><trkpt lat="39.6641115" lon="8.4713641"><ele>111.0</ele><time>2026-05-01T07:50:25.772Z</time></trkpt><trkpt lat="39.6640749" lon="8.4714966"><ele>111.4</ele><time>2026-05-01T07:50:26.772Z</time></trkpt><trkpt lat="39.6640436" lon="8.4716184"><ele>111.8</ele><time>2026-05-01T07:50:27.772Z</time></trkpt><trkpt lat="39.6640173" lon="8.4717428"><ele>112.20000000000002</ele><time>2026-05-01T07:50:28.772Z</time></trkpt><trkpt lat="39.6640094" lon="8.4718758"><ele>112.60000000000001</ele><time>2026-05-01T07:50:29.771Z</time></trkpt><trkpt lat="39.6640189" lon="8.472011"><ele>113.0</ele><time>2026-05-01T07:50:30.772Z</time></trkpt><trkpt lat="39.6640451" lon="8.4721371"><ele>113.4</ele><time>2026-05-01T07:50:31.771Z</time></trkpt><trkpt lat="39.6640797" lon="8.4722567"><ele>113.80000000000001</ele><time>2026-05-01T07:50:32.771Z</time></trkpt><trkpt lat="39.664103" lon="8.4723786"><ele>114.2</ele><time>2026-05-01T07:50:33.773Z</time></trkpt><trkpt lat="39.6641096" lon="8.4725011"><ele>114.6</ele><time>2026-05-01T07:50:34.772Z</time></trkpt><trkpt lat="39.6640958" lon="8.4726291"><ele>115.0</ele><time>2026-05-01T07:50:35.771Z</time></trkpt><trkpt lat="39.6640596" lon="8.4727486"><ele>115.0</ele><time>2026-05-01T07:50:36.772Z</time></trkpt><trkpt lat="39.6640004" lon="8.4728441"><ele>115.0</ele><time>2026-05-01T07:50:37.773Z</time></trkpt><trkpt lat="39.663924" lon="8.4729203"><ele>115.0</ele><time>2026-05-01T07:50:38.772Z</time></trkpt><trkpt lat="39.6638351" lon="8.4729792"><ele>115.0</ele><time>2026-05-01T07:50:39.773Z</time></trkpt><trkpt lat="39.6637391" lon="8.4730235"><ele>115.0</ele><time>2026-05-01T07:50:40.772Z</time></trkpt><trkpt lat="39.6636374" lon="8.473055"><ele>117.8</ele><time>2026-05-01T07:50:41.771Z</time></trkpt><trkpt lat="39.6635359" lon="8.4730758"><ele>120.6</ele><time>2026-05-01T07:50:42.773Z</time></trkpt><trkpt lat="39.663424" lon="8.473097"><ele>123.4</ele><time>2026-05-01T07:50:43.772Z</time></trkpt><trkpt lat="39.6633125" lon="8.4731234"><ele>126.2</ele><time>2026-05-01T07:50:44.771Z</time></trkpt><trkpt lat="39.6632069" lon="8.4731481"><ele>129.0</ele><time>2026-05-01T07:50:45.771Z</time></trkpt><trkpt lat="39.6630992" lon="8.4731784"><ele>129.0</ele><time>2026-05-01T07:50:46.771Z</time></trkpt><trkpt lat="39.6629891" lon="8.4732137"><ele>129.0</ele><time>2026-05-01T07:50:47.773Z</time></trkpt><trkpt lat="39.6628736" lon="8.4732514"><ele>129.0</ele><time>2026-05-01T07:50:48.772Z</time></trkpt><trkpt lat="39.6627565" lon="8.4733008"><ele>129.0</ele><time>2026-05-01T07:50:49.771Z</time></trkpt><trkpt lat="39.6626342" lon="8.4733622"><ele>130.75</ele><time>2026-05-01T07:50:50.771Z</time></trkpt><trkpt lat="39.6625066" lon="8.4734322"><ele>132.5</ele><time>2026-05-01T07:50:51.771Z</time></trkpt><trkpt lat="39.6623671" lon="8.4735015"><ele>134.25</ele><time>2026-05-01T07:50:52.772Z</time></trkpt><trkpt lat="39.6622213" lon="8.4735665"><ele>136.0</ele><time>2026-05-01T07:50:53.772Z</time></trkpt><trkpt lat="39.6620677" lon="8.4736255"><ele>136.33333333333334</ele><time>2026-05-01T07:50:54.772Z</time></trkpt><trkpt lat="39.6619042" lon="8.4736872"><ele>136.66666666666666</ele><time>2026-05-01T07:50:55.772Z</time></trkpt><trkpt lat="39.661742" lon="8.4737585"><ele>137.0</ele><time>2026-05-01T07:50:56.772Z</time></trkpt><trkpt lat="39.6615703" lon="8.4738395"><ele>134.0</ele><time>2026-05-01T07:50:57.771Z</time></trkpt><trkpt lat="39.6614009" lon="8.4739179"><ele>131.0</ele><time>2026-05-01T07:50:58.771Z</time></trkpt><trkpt lat="39.6612299" lon="8.4739998"><ele>128.0</ele><time>2026-05-01T07:50:59.772Z</time></trkpt><trkpt lat="39.6610585" lon="8.4740815"><ele>126.0</ele><time>2026-05-01T07:51:00.771Z</time></trkpt><trkpt lat="39.6608857" lon="8.4741637"><ele>124.0</ele><time>2026-05-01T07:51:01.773Z</time></trkpt><trkpt lat="39.6607167" lon="8.4742445"><ele>122.0</ele><time>2026-05-01T07:51:02.773Z</time></trkpt><trkpt lat="39.6605472" lon="8.4743268"><ele>122.0</ele><time>2026-05-01T07:51:03.773Z</time></trkpt><trkpt lat="39.6603809" lon="8.4744053"><ele>122.0</ele><time>2026-05-01T07:51:04.772Z</time></trkpt><trkpt lat="39.6602184" lon="8.474483"><ele>122.0</ele><time>2026-05-01T07:51:05.771Z</time></trkpt><trkpt lat="39.6600498" lon="8.4745593"><ele>122.66666666666666</ele><time>2026-05-01T07:51:06.772Z</time></trkpt><trkpt lat="39.6598819" lon="8.4746381"><ele>123.33333333333334</ele><time>2026-05-01T07:51:07.772Z</time></trkpt><trkpt lat="39.6597116" lon="8.4747234"><ele>124.0</ele><time>2026-05-01T07:51:08.773Z</time></trkpt><trkpt lat="39.6595407" lon="8.4748069"><ele>123.33333333333334</ele><time>2026-05-01T07:51:09.772Z</time></trkpt><trkpt lat="39.6593637" lon="8.4748893"><ele>122.66666666666666</ele><time>2026-05-01T07:51:10.772Z</time></trkpt><trkpt lat="39.6591831" lon="8.4749775"><ele>122.0</ele><time>2026-05-01T07:51:11.772Z</time></trkpt><trkpt lat="39.6590011" lon="8.4750613"><ele>122.0</ele><time>2026-05-01T07:51:12.772Z</time></trkpt><trkpt lat="39.65882" lon="8.4751459"><ele>122.0</ele><time>2026-05-01T07:51:13.771Z</time></trkpt><trkpt lat="39.6586382" lon="8.4752337"><ele>122.0</ele><time>2026-05-01T07:51:14.772Z</time></trkpt><trkpt lat="39.6584594" lon="8.4753229"><ele>122.33333333333333</ele><time>2026-05-01T07:51:15.771Z</time></trkpt><trkpt lat="39.6582863" lon="8.4754122"><ele>122.66666666666666</ele><time>2026-05-01T07:51:16.773Z</time></trkpt><trkpt lat="39.6581127" lon="8.4754933"><ele>123.0</ele><time>2026-05-01T07:51:17.771Z</time></trkpt><trkpt lat="39.6579402" lon="8.4755727"><ele>127.33333333333334</ele><time>2026-05-01T07:51:18.771Z</time></trkpt><trkpt lat="39.6577729" lon="8.4756498"><ele>131.66666666666669</ele><time>2026-05-01T07:51:19.773Z</time></trkpt><trkpt lat="39.6576093" lon="8.4757273"><ele>136.0</ele><time>2026-05-01T07:51:20.772Z</time></trkpt><trkpt lat="39.6574486" lon="8.4758088"><ele>136.0</ele><time>2026-05-01T07:51:21.773Z</time></trkpt><trkpt lat="39.6572905" lon="8.4759023"><ele>136.0</ele><time>2026-05-01T07:51:22.772Z</time></trkpt><trkpt lat="39.6571339" lon="8.4760123"><ele>136.0</ele><time>2026-05-01T07:51:23.773Z</time></trkpt><trkpt lat="39.656984" lon="8.4761298"><ele>134.75</ele><time>2026-05-01T07:51:24.773Z</time></trkpt><trkpt lat="39.6568491" lon="8.476245"><ele>133.5</ele><time>2026-05-01T07:51:25.771Z</time></trkpt><trkpt lat="39.6567248" lon="8.4763513"><ele>132.25</ele><time>2026-05-01T07:51:26.772Z</time></trkpt><trkpt lat="39.6566067" lon="8.476444"><ele>131.0</ele><time>2026-05-01T07:51:27.771Z</time></trkpt><trkpt lat="39.6564809" lon="8.4764917"><ele>132.75</ele><time>2026-05-01T07:51:28.772Z</time></trkpt><trkpt lat="39.656348" lon="8.4764889"><ele>134.5</ele><time>2026-05-01T07:51:29.772Z</time></trkpt><trkpt lat="39.6562225" lon="8.4764359"><ele>136.25</ele><time>2026-05-01T07:51:30.772Z</time></trkpt><trkpt lat="39.6561159" lon="8.4763295"><ele>138.0</ele><time>2026-05-01T07:51:31.772Z</time></trkpt><trkpt lat="39.6560305" lon="8.4761728"><ele>138.0</ele><time>2026-05-01T07:51:32.773Z</time></trkpt><trkpt lat="39.6559586" lon="8.4759924"><ele>138.0</ele><time>2026-05-01T07:51:33.771Z</time></trkpt><trkpt lat="39.6558924" lon="8.4758049"><ele>138.0</ele><time>2026-05-01T07:51:34.772Z</time></trkpt><trkpt lat="39.6558226" lon="8.4756299"><ele>138.0</ele><time>2026-05-01T07:51:35.772Z</time></trkpt><trkpt lat="39.6557317" lon="8.4754861"><ele>138.0</ele><time>2026-05-01T07:51:36.772Z</time></trkpt><trkpt lat="39.6556276" lon="8.4753801"><ele>138.0</ele><time>2026-05-01T07:51:37.771Z</time></trkpt><trkpt lat="39.6555165" lon="8.4753183"><ele>138.0</ele><time>2026-05-01T07:51:38.772Z</time></trkpt><trkpt lat="39.6553922" lon="8.4753084"><ele>139.25</ele><time>2026-05-01T07:51:39.771Z</time></trkpt><trkpt lat="39.655259" lon="8.4753512"><ele>140.5</ele><time>2026-05-01T07:51:40.772Z</time></trkpt><trkpt lat="39.6551163" lon="8.4754268"><ele>141.75</ele><time>2026-05-01T07:51:41.773Z</time></trkpt><trkpt lat="39.6549791" lon="8.4755077"><ele>143.0</ele><time>2026-05-01T07:51:42.771Z</time></trkpt><trkpt lat="39.6548565" lon="8.4755998"><ele>143.0</ele><time>2026-05-01T07:51:43.772Z</time></trkpt><trkpt lat="39.6547524" lon="8.4757251"><ele>143.0</ele><time>2026-05-01T07:51:44.772Z</time></trkpt><trkpt lat="39.654658" lon="8.4758891"><ele>143.0</ele><time>2026-05-01T07:51:45.771Z</time></trkpt><trkpt lat="39.6545723" lon="8.4760669"><ele>143.0</ele><time>2026-05-01T07:51:46.773Z</time></trkpt><trkpt lat="39.6544882" lon="8.4762421"><ele>143.0</ele><time>2026-05-01T07:51:47.772Z</time></trkpt><trkpt lat="39.6544038" lon="8.4764248"><ele>143.0</ele><time>2026-05-01T07:51:48.771Z</time></trkpt><trkpt lat="39.654333" lon="8.4766269"><ele>142.0</ele><time>2026-05-01T07:51:49.771Z</time></trkpt><trkpt lat="39.6542804" lon="8.4768482"><ele>141.0</ele><time>2026-05-01T07:51:50.773Z</time></trkpt><trkpt lat="39.6542453" lon="8.4770685"><ele>140.0</ele><time>2026-05-01T07:51:51.773Z</time></trkpt><trkpt lat="39.6542203" lon="8.4772787"><ele>140.0</ele><time>2026-05-01T07:51:52.771Z</time></trkpt><trkpt lat="39.654193" lon="8.4774792"><ele>140.0</ele><time>2026-05-01T07:51:53.772Z</time></trkpt><trkpt lat="39.654163" lon="8.4776618"><ele>140.0</ele><time>2026-05-01T07:51:54.773Z</time></trkpt><trkpt lat="39.6541167" lon="8.4778264"><ele>140.0</ele><time>2026-05-01T07:51:55.773Z</time></trkpt><trkpt lat="39.6540595" lon="8.4779709"><ele>142.2</ele><time>2026-05-01T07:51:56.772Z</time></trkpt><trkpt lat="39.653987" lon="8.4780894"><ele>144.4</ele><time>2026-05-01T07:51:57.773Z</time></trkpt><trkpt lat="39.6538992" lon="8.4781744"><ele>146.6</ele><time>2026-05-01T07:51:58.772Z</time></trkpt><trkpt lat="39.6537968" lon="8.4782201"><ele>148.8</ele><time>2026-05-01T07:51:59.773Z</time></trkpt><trkpt lat="39.6536858" lon="8.4782139"><ele>151.0</ele><time>2026-05-01T07:52:00.771Z</time></trkpt><trkpt lat="39.6535717" lon="8.478158"><ele>152.5</ele><time>2026-05-01T07:52:01.772Z</time></trkpt><trkpt lat="39.6534752" lon="8.478064"><ele>154.0</ele><time>2026-05-01T07:52:02.772Z</time></trkpt><trkpt lat="39.6534072" lon="8.4779339"><ele>155.5</ele><time>2026-05-01T07:52:03.771Z</time></trkpt><trkpt lat="39.6533656" lon="8.4777735"><ele>157.0</ele><time>2026-05-01T07:52:04.772Z</time></trkpt><trkpt lat="39.6533419" lon="8.4775934"><ele>153.0</ele><time>2026-05-01T07:52:05.771Z</time></trkpt><trkpt lat="39.6533187" lon="8.477412"><ele>149.0</ele><time>2026-05-01T07:52:06.772Z</time></trkpt><trkpt lat="39.6532705" lon="8.4772413"><ele>145.0</ele><time>2026-05-01T07:52:07.773Z</time></trkpt><trkpt lat="39.6531959" lon="8.4770744"><ele>141.0</ele><time>2026-05-01T07:52:08.771Z</time></trkpt><trkpt lat="39.6530927" lon="8.4769119"><ele>141.0</ele><time>2026-05-01T07:52:09.771Z</time></trkpt><trkpt lat="39.6529816" lon="8.4767552"><ele>141.0</ele><time>2026-05-01T07:52:10.772Z</time></trkpt><trkpt lat="39.6528763" lon="8.4766156"><ele>141.0</ele><time>2026-05-01T07:52:11.772Z</time></trkpt><trkpt lat="39.652759" lon="8.4765055"><ele>141.0</ele><time>2026-05-01T07:52:12.771Z</time></trkpt><trkpt lat="39.6526258" lon="8.4764325"><ele>141.0</ele><time>2026-05-01T07:52:13.771Z</time></trkpt><trkpt lat="39.6524884" lon="8.4764075"><ele>141.0</ele><time>2026-05-01T07:52:14.773Z</time></trkpt><trkpt lat="39.652353" lon="8.4764326"><ele>141.0</ele><time>2026-05-01T07:52:15.772Z</time></trkpt><trkpt lat="39.6522264" lon="8.4765079"><ele>141.0</ele><time>2026-05-01T07:52:16.772Z</time></trkpt><trkpt lat="39.652114" lon="8.476626"><ele>141.0</ele><time>2026-05-01T07:52:17.771Z</time></trkpt><trkpt lat="39.6520205" lon="8.4767862"><ele>141.0</ele><time>2026-05-01T07:52:18.773Z</time></trkpt><trkpt lat="39.6519523" lon="8.4769716"><ele>141.0</ele><time>2026-05-01T07:52:19.772Z</time></trkpt><trkpt lat="39.6519138" lon="8.4771599"><ele>141.0</ele><time>2026-05-01T07:52:20.772Z</time></trkpt><trkpt lat="39.6518765" lon="8.4773122"><ele>141.0</ele><time>2026-05-01T07:52:21.772Z</time></trkpt><trkpt lat="39.6518118" lon="8.4774317"><ele>141.0</ele><time>2026-05-01T07:52:22.772Z</time></trkpt><trkpt lat="39.6517159" lon="8.4775176"><ele>141.0</ele><time>2026-05-01T07:52:23.772Z</time></trkpt><trkpt lat="39.6516144" lon="8.4775431"><ele>141.0</ele><time>2026-05-01T07:52:24.772Z</time></trkpt><trkpt lat="39.651499" lon="8.4775051"><ele>141.0</ele><time>2026-05-01T07:52:25.773Z</time></trkpt><trkpt lat="39.651398" lon="8.4774228"><ele>141.0</ele><time>2026-05-01T07:52:26.771Z</time></trkpt><trkpt lat="39.6513283" lon="8.4773033"><ele>141.0</ele><time>2026-05-01T07:52:27.771Z</time></trkpt><trkpt lat="39.6512891" lon="8.4771556"><ele>141.0</ele><time>2026-05-01T07:52:28.771Z</time></trkpt><trkpt lat="39.651276" lon="8.4769829"><ele>141.0</ele><time>2026-05-01T07:52:29.771Z</time></trkpt><trkpt lat="39.6512792" lon="8.4767903"><ele>141.0</ele><time>2026-05-01T07:52:30.772Z</time></trkpt><trkpt lat="39.6512853" lon="8.4765885"><ele>138.75</ele><time>2026-05-01T07:52:31.771Z</time></trkpt><trkpt lat="39.6512878" lon="8.4763894"><ele>136.5</ele><time>2026-05-01T07:52:32.771Z</time></trkpt><trkpt lat="39.6512908" lon="8.4762086"><ele>134.25</ele><time>2026-05-01T07:52:33.772Z</time></trkpt><trkpt lat="39.6513219" lon="8.4760222"><ele>132.0</ele><time>2026-05-01T07:52:34.771Z</time></trkpt><trkpt lat="39.6513787" lon="8.4758398"><ele>132.0</ele><time>2026-05-01T07:52:35.771Z</time></trkpt><trkpt lat="39.6514387" lon="8.4756619"><ele>132.0</ele><time>2026-05-01T07:52:36.771Z</time></trkpt><trkpt lat="39.6514938" lon="8.4755016"><ele>132.0</ele><time>2026-05-01T07:52:37.77Z</time></trkpt><trkpt lat="39.6515405" lon="8.4753606"><ele>132.0</ele><time>2026-05-01T07:52:38.772Z</time></trkpt><trkpt lat="39.6515522" lon="8.4752127"><ele>132.0</ele><time>2026-05-01T07:52:39.771Z</time></trkpt><trkpt lat="39.6515236" lon="8.4750593"><ele>132.0</ele><time>2026-05-01T07:52:40.771Z</time></trkpt><trkpt lat="39.6514576" lon="8.4749371"><ele>132.0</ele><time>2026-05-01T07:52:41.772Z</time></trkpt><trkpt lat="39.6513626" lon="8.4748526"><ele>132.0</ele><time>2026-05-01T07:52:42.771Z</time></trkpt><trkpt lat="39.6512413" lon="8.4748082"><ele>131.25</ele><time>2026-05-01T07:52:43.771Z</time></trkpt><trkpt lat="39.6511122" lon="8.4748112"><ele>130.5</ele><time>2026-05-01T07:52:44.771Z</time></trkpt><trkpt lat="39.6509788" lon="8.4748601"><ele>129.75</ele><time>2026-05-01T07:52:45.77Z</time></trkpt><trkpt lat="39.6508448" lon="8.4749406"><ele>129.0</ele><time>2026-05-01T07:52:46.771Z</time></trkpt><trkpt lat="39.6507112" lon="8.4750212"><ele>129.0</ele><time>2026-05-01T07:52:47.771Z</time></trkpt><trkpt lat="39.6505764" lon="8.4750926"><ele>129.0</ele><time>2026-05-01T07:52:48.771Z</time></trkpt><trkpt lat="39.6504326" lon="8.4751456"><ele>129.0</ele><time>2026-05-01T07:52:49.77Z</time></trkpt><trkpt lat="39.6502745" lon="8.4751528"><ele>126.33333333333334</ele><time>2026-05-01T07:52:50.77Z</time></trkpt><trkpt lat="39.6501118" lon="8.4751254"><ele>123.66666666666667</ele><time>2026-05-01T07:52:51.771Z</time></trkpt><trkpt lat="39.6499462" lon="8.4750788"><ele>121.0</ele><time>2026-05-01T07:52:52.77Z</time></trkpt><trkpt lat="39.6497801" lon="8.4750276"><ele>121.0</ele><time>2026-05-01T07:52:53.772Z</time></trkpt><trkpt lat="39.6496128" lon="8.4749737"><ele>121.0</ele><time>2026-05-01T07:52:54.771Z</time></trkpt><trkpt lat="39.6494598" lon="8.474923"><ele>121.0</ele><time>2026-05-01T07:52:55.771Z</time></trkpt><trkpt lat="39.6493309" lon="8.4748902"><ele>119.25</ele><time>2026-05-01T07:52:56.772Z</time></trkpt><trkpt lat="39.6492073" lon="8.4748957"><ele>117.5</ele><time>2026-05-01T07:52:57.771Z</time></trkpt><trkpt lat="39.6490939" lon="8.474944"><ele>115.75</ele><time>2026-05-01T07:52:58.77Z</time></trkpt><trkpt lat="39.6490079" lon="8.4750382"><ele>114.0</ele><time>2026-05-01T07:52:59.771Z</time></trkpt><trkpt lat="39.6489499" lon="8.4751753"><ele>114.0</ele><time>2026-05-01T07:53:00.77Z</time></trkpt><trkpt lat="39.64892" lon="8.4753368"><ele>114.0</ele><time>2026-05-01T07:53:01.77Z</time></trkpt><trkpt lat="39.6489061" lon="8.4754912"><ele>114.0</ele><time>2026-05-01T07:53:02.771Z</time></trkpt><trkpt lat="39.648863" lon="8.4756331"><ele>114.0</ele><time>2026-05-01T07:53:03.771Z</time></trkpt><trkpt lat="39.6487788" lon="8.475759"><ele>111.5</ele><time>2026-05-01T07:53:04.77Z</time></trkpt><trkpt lat="39.6486654" lon="8.4758622"><ele>109.0</ele><time>2026-05-01T07:53:05.77Z</time></trkpt><trkpt lat="39.6485301" lon="8.4759351"><ele>106.5</ele><time>2026-05-01T07:53:06.771Z</time></trkpt><trkpt lat="39.6483826" lon="8.4759827"><ele>104.0</ele><time>2026-05-01T07:53:07.771Z</time></trkpt><trkpt lat="39.6482284" lon="8.4760082"><ele>104.0</ele><time>2026-05-01T07:53:08.771Z</time></trkpt><trkpt lat="39.6480657" lon="8.4760303"><ele>104.0</ele><time>2026-05-01T07:53:09.771Z</time></trkpt><trkpt lat="39.647908" lon="8.4760549"><ele>104.0</ele><time>2026-05-01T07:53:10.772Z</time></trkpt><trkpt lat="39.6477499" lon="8.476079"><ele>101.25</ele><time>2026-05-01T07:53:11.772Z</time></trkpt><trkpt lat="39.6475983" lon="8.4761058"><ele>98.5</ele><time>2026-05-01T07:53:12.771Z</time></trkpt><trkpt lat="39.6474496" lon="8.4761366"><ele>95.75</ele><time>2026-05-01T07:53:13.772Z</time></trkpt><trkpt lat="39.6473087" lon="8.4761474"><ele>93.0</ele><time>2026-05-01T07:53:14.772Z</time></trkpt><trkpt lat="39.647176" lon="8.4761153"><ele>93.0</ele><time>2026-05-01T07:53:15.772Z</time></trkpt><trkpt lat="39.6470494" lon="8.4760325"><ele>93.0</ele><time>2026-05-01T07:53:16.772Z</time></trkpt><trkpt lat="39.646943" lon="8.4759057"><ele>93.0</ele><time>2026-05-01T07:53:17.771Z</time></trkpt><trkpt lat="39.6468504" lon="8.4757391"><ele>93.0</ele><time>2026-05-01T07:53:18.77Z</time></trkpt><trkpt lat="39.6467645" lon="8.4755631"><ele>94.66666666666666</ele><time>2026-05-01T07:53:19.771Z</time></trkpt><trkpt lat="39.6466748" lon="8.4753958"><ele>96.33333333333333</ele><time>2026-05-01T07:53:20.772Z</time></trkpt><trkpt lat="39.646587" lon="8.4752312"><ele>98.0</ele><time>2026-05-01T07:53:21.771Z</time></trkpt><trkpt lat="39.6464998" lon="8.475075"><ele>98.0</ele><time>2026-05-01T07:53:22.771Z</time></trkpt><trkpt lat="39.6464092" lon="8.474931"><ele>98.0</ele><time>2026-05-01T07:53:23.771Z</time></trkpt><trkpt lat="39.6462969" lon="8.4748189"><ele>98.0</ele><time>2026-05-01T07:53:24.772Z</time></trkpt><trkpt lat="39.6461647" lon="8.4747333"><ele>98.0</ele><time>2026-05-01T07:53:25.772Z</time></trkpt><trkpt lat="39.6460215" lon="8.4746815"><ele>98.33333333333333</ele><time>2026-05-01T07:53:26.771Z</time></trkpt><trkpt lat="39.645869" lon="8.4746426"><ele>98.66666666666666</ele><time>2026-05-01T07:53:27.772Z</time></trkpt><trkpt lat="39.6457134" lon="8.4746118"><ele>99.0</ele><time>2026-05-01T07:53:28.772Z</time></trkpt><trkpt lat="39.6455579" lon="8.474575"><ele>103.66666666666666</ele><time>2026-05-01T07:53:29.771Z</time></trkpt><trkpt lat="39.6454025" lon="8.4745378"><ele>108.33333333333333</ele><time>2026-05-01T07:53:30.77Z</time></trkpt><trkpt lat="39.6452466" lon="8.4745016"><ele>113.0</ele><time>2026-05-01T07:53:31.771Z</time></trkpt><trkpt lat="39.6450908" lon="8.4744652"><ele>114.33333333333333</ele><time>2026-05-01T07:53:32.772Z</time></trkpt><trkpt lat="39.6449352" lon="8.4744267"><ele>115.66666666666666</ele><time>2026-05-01T07:53:33.772Z</time></trkpt><trkpt lat="39.6447832" lon="8.4743749"><ele>117.0</ele><time>2026-05-01T07:53:34.771Z</time></trkpt><trkpt lat="39.6446418" lon="8.4742871"><ele>117.0</ele><time>2026-05-01T07:53:35.771Z</time></trkpt><trkpt lat="39.6445246" lon="8.4741763"><ele>117.0</ele><time>2026-05-01T07:53:36.77Z</time></trkpt><trkpt lat="39.6444091" lon="8.4740928"><ele>117.0</ele><time>2026-05-01T07:53:37.77Z</time></trkpt><trkpt lat="39.6442876" lon="8.4740453"><ele>117.0</ele><time>2026-05-01T07:53:38.772Z</time></trkpt><trkpt lat="39.6441606" lon="8.4740447"><ele>117.25</ele><time>2026-05-01T07:53:39.771Z</time></trkpt><trkpt lat="39.6440365" lon="8.4740895"><ele>117.5</ele><time>2026-05-01T07:53:40.77Z</time></trkpt><trkpt lat="39.6439145" lon="8.4741508"><ele>117.75</ele><time>2026-05-01T07:53:41.771Z</time></trkpt><trkpt lat="39.6437962" lon="8.4742119"><ele>118.0</ele><time>2026-05-01T07:53:42.771Z</time></trkpt><trkpt lat="39.643683" lon="8.4742711"><ele>120.75</ele><time>2026-05-01T07:53:43.771Z</time></trkpt><trkpt lat="39.6435657" lon="8.4743214"><ele>123.5</ele><time>2026-05-01T07:53:44.772Z</time></trkpt><trkpt lat="39.6434358" lon="8.4743279"><ele>126.25</ele><time>2026-05-01T07:53:45.771Z</time></trkpt><trkpt lat="39.6433054" lon="8.4742982"><ele>129.0</ele><time>2026-05-01T07:53:46.77Z</time></trkpt><trkpt lat="39.6431726" lon="8.4742554"><ele>129.0</ele><time>2026-05-01T07:53:47.77Z</time></trkpt><trkpt lat="39.6430361" lon="8.4742243"><ele>129.0</ele><time>2026-05-01T07:53:48.771Z</time></trkpt><trkpt lat="39.6428928" lon="8.4742289"><ele>129.0</ele><time>2026-05-01T07:53:49.771Z</time></trkpt><trkpt lat="39.6427505" lon="8.4742652"><ele>129.0</ele><time>2026-05-01T07:53:50.772Z</time></trkpt><trkpt lat="39.6426105" lon="8.4743209"><ele>130.25</ele><time>2026-05-01T07:53:51.771Z</time></trkpt><trkpt lat="39.6424754" lon="8.4743696"><ele>131.5</ele><time>2026-05-01T07:53:52.771Z</time></trkpt><trkpt lat="39.6423341" lon="8.4743994"><ele>132.75</ele><time>2026-05-01T07:53:53.77Z</time></trkpt><trkpt lat="39.6421876" lon="8.474405"><ele>134.0</ele><time>2026-05-01T07:53:54.771Z</time></trkpt><trkpt lat="39.6420384" lon="8.4744006"><ele>135.25</ele><time>2026-05-01T07:53:55.772Z</time></trkpt><trkpt lat="39.6418877" lon="8.4743961"><ele>136.5</ele><time>2026-05-01T07:53:56.772Z</time></trkpt><trkpt lat="39.6417406" lon="8.474388"><ele>137.75</ele><time>2026-05-01T07:53:57.771Z</time></trkpt><trkpt lat="39.6415921" lon="8.4743817"><ele>139.0</ele><time>2026-05-01T07:53:58.772Z</time></trkpt><trkpt lat="39.6414448" lon="8.4743745"><ele>139.0</ele><time>2026-05-01T07:53:59.771Z</time></trkpt><trkpt lat="39.6412958" lon="8.4743669"><ele>139.0</ele><time>2026-05-01T07:54:00.771Z</time></trkpt><trkpt lat="39.6411488" lon="8.4743626"><ele>139.0</ele><time>2026-05-01T07:54:01.771Z</time></trkpt><trkpt lat="39.6410104" lon="8.4743732"><ele>139.0</ele><time>2026-05-01T07:54:02.771Z</time></trkpt><trkpt lat="39.6408628" lon="8.4744046"><ele>138.66666666666669</ele><time>2026-05-01T07:54:03.772Z</time></trkpt><trkpt lat="39.6407136" lon="8.474455"><ele>138.33333333333334</ele><time>2026-05-01T07:54:04.771Z</time></trkpt><trkpt lat="39.6405694" lon="8.4745417"><ele>138.0</ele><time>2026-05-01T07:54:05.771Z</time></trkpt><trkpt lat="39.6404343" lon="8.4746558"><ele>139.0</ele><time>2026-05-01T07:54:06.771Z</time></trkpt><trkpt lat="39.64032" lon="8.474826"><ele>140.0</ele><time>2026-05-01T07:54:07.77Z</time></trkpt><trkpt lat="39.640211" lon="8.474998"><ele>141.0</ele><time>2026-05-01T07:54:08.77Z</time></trkpt><trkpt lat="39.6401058" lon="8.4751777"><ele>142.0</ele><time>2026-05-01T07:54:09.772Z</time></trkpt><trkpt lat="39.6400019" lon="8.4753584"><ele>143.0</ele><time>2026-05-01T07:54:10.771Z</time></trkpt><trkpt lat="39.6398983" lon="8.4755358"><ele>144.0</ele><time>2026-05-01T07:54:11.771Z</time></trkpt><trkpt lat="39.6397974" lon="8.4757112"><ele>145.33333333333334</ele><time>2026-05-01T07:54:12.772Z</time></trkpt><trkpt lat="39.6397011" lon="8.4758857"><ele>146.66666666666669</ele><time>2026-05-01T07:54:13.772Z</time></trkpt><trkpt lat="39.6396073" lon="8.4760568"><ele>148.0</ele><time>2026-05-01T07:54:14.771Z</time></trkpt><trkpt lat="39.6395122" lon="8.476219"><ele>148.33333333333334</ele><time>2026-05-01T07:54:15.772Z</time></trkpt><trkpt lat="39.6393961" lon="8.4763451"><ele>148.66666666666666</ele><time>2026-05-01T07:54:16.771Z</time></trkpt><trkpt lat="39.6392469" lon="8.4764264"><ele>149.0</ele><time>2026-05-01T07:54:17.771Z</time></trkpt><trkpt lat="39.6390724" lon="8.4764615"><ele>149.0</ele><time>2026-05-01T07:54:18.771Z</time></trkpt><trkpt lat="39.6388972" lon="8.4764625"><ele>149.0</ele><time>2026-05-01T07:54:19.771Z</time></trkpt><trkpt lat="39.6387241" lon="8.4764651"><ele>149.0</ele><time>2026-05-01T07:54:20.771Z</time></trkpt><trkpt lat="39.6385516" lon="8.4764971"><ele>149.66666666666666</ele><time>2026-05-01T07:54:21.771Z</time></trkpt><trkpt lat="39.6383783" lon="8.4765958"><ele>150.33333333333334</ele><time>2026-05-01T07:54:22.77Z</time></trkpt><trkpt lat="39.6382117" lon="8.4767172"><ele>151.0</ele><time>2026-05-01T07:54:23.771Z</time></trkpt><trkpt lat="39.6380501" lon="8.4768483"><ele>151.0</ele><time>2026-05-01T07:54:24.771Z</time></trkpt><trkpt lat="39.637888" lon="8.4769739"><ele>151.0</ele><time>2026-05-01T07:54:25.771Z</time></trkpt><trkpt lat="39.6377303" lon="8.4770969"><ele>151.0</ele><time>2026-05-01T07:54:26.771Z</time></trkpt><trkpt lat="39.6375768" lon="8.4772196"><ele>151.66666666666669</ele><time>2026-05-01T07:54:27.772Z</time></trkpt><trkpt lat="39.6374219" lon="8.4773469"><ele>152.33333333333334</ele><time>2026-05-01T07:54:28.77Z</time></trkpt><trkpt lat="39.6372679" lon="8.4774739"><ele>153.0</ele><time>2026-05-01T07:54:29.77Z</time></trkpt><trkpt lat="39.6371201" lon="8.4775961"><ele>153.0</ele><time>2026-05-01T07:54:30.771Z</time></trkpt><trkpt lat="39.6369794" lon="8.4777099"><ele>153.0</ele><time>2026-05-01T07:54:31.77Z</time></trkpt><trkpt lat="39.6368425" lon="8.4778245"><ele>153.0</ele><time>2026-05-01T07:54:32.771Z</time></trkpt><trkpt lat="39.6367119" lon="8.4779442"><ele>153.66666666666666</ele><time>2026-05-01T07:54:33.772Z</time></trkpt><trkpt lat="39.6365946" lon="8.4780873"><ele>154.33333333333331</ele><time>2026-05-01T07:54:34.77Z</time></trkpt><trkpt lat="39.6364902" lon="8.4782467"><ele>155.0</ele><time>2026-05-01T07:54:35.77Z</time></trkpt><trkpt lat="39.6363935" lon="8.478407"><ele>155.0</ele><time>2026-05-01T07:54:36.77Z</time></trkpt><trkpt lat="39.6363045" lon="8.4785532"><ele>155.0</ele><time>2026-05-01T07:54:37.77Z</time></trkpt><trkpt lat="39.6362243" lon="8.4786862"><ele>155.0</ele><time>2026-05-01T07:54:38.771Z</time></trkpt><trkpt lat="39.6361574" lon="8.4788058"><ele>155.0</ele><time>2026-05-01T07:54:39.77Z</time></trkpt><trkpt lat="39.6360918" lon="8.4789132"><ele>153.6</ele><time>2026-05-01T07:54:40.771Z</time></trkpt><trkpt lat="39.6360312" lon="8.4790106"><ele>152.2</ele><time>2026-05-01T07:54:41.77Z</time></trkpt><trkpt lat="39.635968" lon="8.479102"><ele>150.8</ele><time>2026-05-01T07:54:42.771Z</time></trkpt><trkpt lat="39.6358905" lon="8.4791835"><ele>149.4</ele><time>2026-05-01T07:54:43.772Z</time></trkpt><trkpt lat="39.6358069" lon="8.4792511"><ele>148.0</ele><time>2026-05-01T07:54:44.771Z</time></trkpt><trkpt lat="39.6357118" lon="8.4793113"><ele>148.0</ele><time>2026-05-01T07:54:45.772Z</time></trkpt><trkpt lat="39.6356015" lon="8.4793709"><ele>148.0</ele><time>2026-05-01T07:54:46.771Z</time></trkpt><trkpt lat="39.6354812" lon="8.4794291"><ele>148.0</ele><time>2026-05-01T07:54:47.772Z</time></trkpt><trkpt lat="39.6353516" lon="8.4794799"><ele>148.0</ele><time>2026-05-01T07:54:48.772Z</time></trkpt><trkpt lat="39.63522" lon="8.4795116"><ele>147.75</ele><time>2026-05-01T07:54:49.772Z</time></trkpt><trkpt lat="39.6350859" lon="8.4795185"><ele>147.5</ele><time>2026-05-01T07:54:50.772Z</time></trkpt><trkpt lat="39.6349476" lon="8.4794867"><ele>147.25</ele><time>2026-05-01T07:54:51.771Z</time></trkpt><trkpt lat="39.6348131" lon="8.479421"><ele>147.0</ele><time>2026-05-01T07:54:52.771Z</time></trkpt><trkpt lat="39.6346857" lon="8.4793245"><ele>147.0</ele><time>2026-05-01T07:54:53.77Z</time></trkpt><trkpt lat="39.6345749" lon="8.4791959"><ele>147.0</ele><time>2026-05-01T07:54:54.771Z</time></trkpt><trkpt lat="39.6344823" lon="8.4790412"><ele>147.0</ele><time>2026-05-01T07:54:55.771Z</time></trkpt><trkpt lat="39.6344111" lon="8.4788612"><ele>146.66666666666666</ele><time>2026-05-01T07:54:56.772Z</time></trkpt><trkpt lat="39.63436" lon="8.4786597"><ele>146.33333333333331</ele><time>2026-05-01T07:54:57.772Z</time></trkpt><trkpt lat="39.6343223" lon="8.4784531"><ele>146.0</ele><time>2026-05-01T07:54:58.772Z</time></trkpt><trkpt lat="39.634291" lon="8.4782408"><ele>146.0</ele><time>2026-05-01T07:54:59.771Z</time></trkpt><trkpt lat="39.6342604" lon="8.4780308"><ele>146.0</ele><time>2026-05-01T07:55:00.771Z</time></trkpt><trkpt lat="39.6342325" lon="8.4778306"><ele>146.0</ele><time>2026-05-01T07:55:01.77Z</time></trkpt><trkpt lat="39.6341992" lon="8.477646"><ele>145.0</ele><time>2026-05-01T07:55:02.771Z</time></trkpt><trkpt lat="39.6341705" lon="8.4774631"><ele>144.0</ele><time>2026-05-01T07:55:03.77Z</time></trkpt><trkpt lat="39.6341439" lon="8.4772862"><ele>143.0</ele><time>2026-05-01T07:55:04.77Z</time></trkpt><trkpt lat="39.6341177" lon="8.4771203"><ele>142.0</ele><time>2026-05-01T07:55:05.77Z</time></trkpt><trkpt lat="39.6340834" lon="8.476969"><ele>140.75</ele><time>2026-05-01T07:55:06.771Z</time></trkpt><trkpt lat="39.6340274" lon="8.476833"><ele>139.5</ele><time>2026-05-01T07:55:07.77Z</time></trkpt><trkpt lat="39.6339479" lon="8.4767145"><ele>138.25</ele><time>2026-05-01T07:55:08.77Z</time></trkpt><trkpt lat="39.6338483" lon="8.4766174"><ele>137.0</ele><time>2026-05-01T07:55:09.772Z</time></trkpt><trkpt lat="39.6337339" lon="8.4765538"><ele>138.0</ele><time>2026-05-01T07:55:10.77Z</time></trkpt><trkpt lat="39.63361" lon="8.4765302"><ele>139.0</ele><time>2026-05-01T07:55:11.772Z</time></trkpt><trkpt lat="39.6334818" lon="8.4765482"><ele>140.0</ele><time>2026-05-01T07:55:12.771Z</time></trkpt><trkpt lat="39.6333562" lon="8.4766101"><ele>141.0</ele><time>2026-05-01T07:55:13.771Z</time></trkpt><trkpt lat="39.6332389" lon="8.4767082"><ele>141.0</ele><time>2026-05-01T07:55:14.771Z</time></trkpt><trkpt lat="39.6331292" lon="8.4768235"><ele>141.0</ele><time>2026-05-01T07:55:15.771Z</time></trkpt><trkpt lat="39.6330201" lon="8.4769461"><ele>141.0</ele><time>2026-05-01T07:55:16.77Z</time></trkpt><trkpt lat="39.6329093" lon="8.4770709"><ele>141.0</ele><time>2026-05-01T07:55:17.771Z</time></trkpt><trkpt lat="39.6328003" lon="8.4772024"><ele>138.75</ele><time>2026-05-01T07:55:18.771Z</time></trkpt><trkpt lat="39.6326944" lon="8.4773416"><ele>136.5</ele><time>2026-05-01T07:55:19.771Z</time></trkpt><trkpt lat="39.6325996" lon="8.4774902"><ele>134.25</ele><time>2026-05-01T07:55:20.77Z</time></trkpt><trkpt lat="39.632512" lon="8.4776465"><ele>132.0</ele><time>2026-05-01T07:55:21.77Z</time></trkpt><trkpt lat="39.6324347" lon="8.477815"><ele>133.33333333333334</ele><time>2026-05-01T07:55:22.771Z</time></trkpt><trkpt lat="39.632361" lon="8.4779927"><ele>134.66666666666669</ele><time>2026-05-01T07:55:23.772Z</time></trkpt><trkpt lat="39.6322907" lon="8.4781696"><ele>136.0</ele><time>2026-05-01T07:55:24.771Z</time></trkpt><trkpt lat="39.6322169" lon="8.4783421"><ele>136.0</ele><time>2026-05-01T07:55:25.77Z</time></trkpt><trkpt lat="39.6321457" lon="8.4785033"><ele>136.0</ele><time>2026-05-01T07:55:26.771Z</time></trkpt><trkpt lat="39.6320762" lon="8.4786553"><ele>136.0</ele><time>2026-05-01T07:55:27.772Z</time></trkpt><trkpt lat="39.6320004" lon="8.4787617"><ele>136.0</ele><time>2026-05-01T07:55:28.77Z</time></trkpt><trkpt lat="39.6319131" lon="8.4788409"><ele>132.5</ele><time>2026-05-01T07:55:29.771Z</time></trkpt><trkpt lat="39.6318101" lon="8.4788693"><ele>129.0</ele><time>2026-05-01T07:55:30.771Z</time></trkpt><trkpt lat="39.6317008" lon="8.4788541"><ele>125.5</ele><time>2026-05-01T07:55:31.771Z</time></trkpt><trkpt lat="39.6315813" lon="8.4788002"><ele>122.0</ele><time>2026-05-01T07:55:32.772Z</time></trkpt><trkpt lat="39.6314593" lon="8.4787216"><ele>122.0</ele><time>2026-05-01T07:55:33.771Z</time></trkpt><trkpt lat="39.6313364" lon="8.4786335"><ele>122.0</ele><time>2026-05-01T07:55:34.771Z</time></trkpt><trkpt lat="39.631216" lon="8.4785484"><ele>122.0</ele><time>2026-05-01T07:55:35.771Z</time></trkpt><trkpt lat="39.631105" lon="8.4784658"><ele>122.0</ele><time>2026-05-01T07:55:36.771Z</time></trkpt><trkpt lat="39.6310047" lon="8.4783817"><ele>121.19999999999999</ele><time>2026-05-01T07:55:37.772Z</time></trkpt><trkpt lat="39.6309192" lon="8.4782964"><ele>120.39999999999999</ele><time>2026-05-01T07:55:38.771Z</time></trkpt><trkpt lat="39.6308455" lon="8.4782058"><ele>119.60000000000001</ele><time>2026-05-01T07:55:39.771Z</time></trkpt><trkpt lat="39.6307745" lon="8.4781012"><ele>118.80000000000001</ele><time>2026-05-01T07:55:40.771Z</time></trkpt><trkpt lat="39.6306959" lon="8.4779833"><ele>118.0</ele><time>2026-05-01T07:55:41.771Z</time></trkpt><trkpt lat="39.6306077" lon="8.4778587"><ele>118.0</ele><time>2026-05-01T07:55:42.771Z</time></trkpt><trkpt lat="39.6305175" lon="8.4777262"><ele>118.0</ele><time>2026-05-01T07:55:43.772Z</time></trkpt><trkpt lat="39.6304252" lon="8.4775918"><ele>118.0</ele><time>2026-05-01T07:55:44.772Z</time></trkpt><trkpt lat="39.6303304" lon="8.4774542"><ele>118.0</ele><time>2026-05-01T07:55:45.772Z</time></trkpt><trkpt lat="39.6302309" lon="8.4773172"><ele>115.5</ele><time>2026-05-01T07:55:46.77Z</time></trkpt><trkpt lat="39.6301209" lon="8.4771953"><ele>113.0</ele><time>2026-05-01T07:55:47.771Z</time></trkpt><trkpt lat="39.6299931" lon="8.477089"><ele>110.5</ele><time>2026-05-01T07:55:48.771Z</time></trkpt><trkpt lat="39.6298639" lon="8.4769869"><ele>108.0</ele><time>2026-05-01T07:55:49.771Z</time></trkpt><trkpt lat="39.6297432" lon="8.4768649"><ele>108.0</ele><time>2026-05-01T07:55:50.77Z</time></trkpt><trkpt lat="39.6296388" lon="8.4767378"><ele>108.0</ele><time>2026-05-01T07:55:51.77Z</time></trkpt><trkpt lat="39.6295419" lon="8.4766174"><ele>108.0</ele><time>2026-05-01T07:55:52.772Z</time></trkpt><trkpt lat="39.6294568" lon="8.4765196"><ele>108.0</ele><time>2026-05-01T07:55:53.771Z</time></trkpt><trkpt lat="39.6293659" lon="8.4764598"><ele>105.0</ele><time>2026-05-01T07:55:54.77Z</time></trkpt><trkpt lat="39.6292532" lon="8.4764438"><ele>102.0</ele><time>2026-05-01T07:55:55.771Z</time></trkpt><trkpt lat="39.6291381" lon="8.476472"><ele>99.0</ele><time>2026-05-01T07:55:56.772Z</time></trkpt><trkpt lat="39.6290321" lon="8.4765299"><ele>96.0</ele><time>2026-05-01T07:55:57.77Z</time></trkpt><trkpt lat="39.6289229" lon="8.476601"><ele>96.0</ele><time>2026-05-01T07:55:58.772Z</time></trkpt><trkpt lat="39.6287993" lon="8.4766462"><ele>96.0</ele><time>2026-05-01T07:55:59.771Z</time></trkpt><trkpt lat="39.6286571" lon="8.4766547"><ele>96.0</ele><time>2026-05-01T07:56:00.77Z</time></trkpt><trkpt lat="39.6285131" lon="8.476641"><ele>96.0</ele><time>2026-05-01T07:56:01.772Z</time></trkpt><trkpt lat="39.6283714" lon="8.4766089"><ele>96.33333333333334</ele><time>2026-05-01T07:56:02.772Z</time></trkpt><trkpt lat="39.6282239" lon="8.4765404"><ele>96.66666666666667</ele><time>2026-05-01T07:56:03.771Z</time></trkpt><trkpt lat="39.6280794" lon="8.4764354"><ele>97.0</ele><time>2026-05-01T07:56:04.771Z</time></trkpt><trkpt lat="39.62794" lon="8.4763211"><ele>93.33333333333334</ele><time>2026-05-01T07:56:05.771Z</time></trkpt><trkpt lat="39.6277993" lon="8.4762125"><ele>89.66666666666667</ele><time>2026-05-01T07:56:06.771Z</time></trkpt><trkpt lat="39.6276663" lon="8.4761105"><ele>86.0</ele><time>2026-05-01T07:56:07.771Z</time></trkpt><trkpt lat="39.6275465" lon="8.4760167"><ele>86.0</ele><time>2026-05-01T07:56:08.771Z</time></trkpt><trkpt lat="39.6274283" lon="8.4759361"><ele>86.0</ele><time>2026-05-01T07:56:09.771Z</time></trkpt><trkpt lat="39.6273027" lon="8.4758848"><ele>86.0</ele><time>2026-05-01T07:56:10.771Z</time></trkpt><trkpt lat="39.627181" lon="8.4758583"><ele>86.0</ele><time>2026-05-01T07:56:11.772Z</time></trkpt><trkpt lat="39.6270575" lon="8.4758321"><ele>89.5</ele><time>2026-05-01T07:56:12.77Z</time></trkpt><trkpt lat="39.6269335" lon="8.475799"><ele>93.0</ele><time>2026-05-01T07:56:13.77Z</time></trkpt><trkpt lat="39.6268125" lon="8.4757566"><ele>96.5</ele><time>2026-05-01T07:56:14.77Z</time></trkpt><trkpt lat="39.6266948" lon="8.4757061"><ele>100.0</ele><time>2026-05-01T07:56:15.771Z</time></trkpt><trkpt lat="39.6265779" lon="8.4756526"><ele>100.0</ele><time>2026-05-01T07:56:16.77Z</time></trkpt><trkpt lat="39.6264618" lon="8.4755931"><ele>100.0</ele><time>2026-05-01T07:56:17.771Z</time></trkpt><trkpt lat="39.6263492" lon="8.4755181"><ele>100.0</ele><time>2026-05-01T07:56:18.772Z</time></trkpt><trkpt lat="39.6262422" lon="8.475422"><ele>100.0</ele><time>2026-05-01T07:56:19.771Z</time></trkpt><trkpt lat="39.6261367" lon="8.4753214"><ele>98.5</ele><time>2026-05-01T07:56:20.772Z</time></trkpt><trkpt lat="39.626029" lon="8.4752359"><ele>97.0</ele><time>2026-05-01T07:56:21.77Z</time></trkpt><trkpt lat="39.6259084" lon="8.4751702"><ele>95.5</ele><time>2026-05-01T07:56:22.77Z</time></trkpt><trkpt lat="39.6257836" lon="8.4751099"><ele>94.0</ele><time>2026-05-01T07:56:23.77Z</time></trkpt><trkpt lat="39.6256612" lon="8.4750447"><ele>94.0</ele><time>2026-05-01T07:56:24.771Z</time></trkpt><trkpt lat="39.6255485" lon="8.4749598"><ele>94.0</ele><time>2026-05-01T07:56:25.772Z</time></trkpt><trkpt lat="39.6254614" lon="8.4748376"><ele>94.0</ele><time>2026-05-01T07:56:26.772Z</time></trkpt><trkpt lat="39.6253914" lon="8.4747007"><ele>94.0</ele><time>2026-05-01T07:56:27.77Z</time></trkpt><trkpt lat="39.625324" lon="8.4745804"><ele>94.4</ele><time>2026-05-01T07:56:28.77Z</time></trkpt><trkpt lat="39.6252528" lon="8.4744973"><ele>94.80000000000001</ele><time>2026-05-01T07:56:29.771Z</time></trkpt><trkpt lat="39.6251696" lon="8.4744663"><ele>95.19999999999999</ele><time>2026-05-01T07:56:30.771Z</time></trkpt><trkpt lat="39.6250808" lon="8.4744801"><ele>95.6</ele><time>2026-05-01T07:56:31.772Z</time></trkpt><trkpt lat="39.6249979" lon="8.4745477"><ele>96.0</ele><time>2026-05-01T07:56:32.771Z</time></trkpt><trkpt lat="39.6249262" lon="8.4746568"><ele>96.0</ele><time>2026-05-01T07:56:33.771Z</time></trkpt><trkpt lat="39.6248645" lon="8.4747936"><ele>96.0</ele><time>2026-05-01T07:56:34.772Z</time></trkpt><trkpt lat="39.6248239" lon="8.4749434"><ele>96.0</ele><time>2026-05-01T07:56:35.77Z</time></trkpt><trkpt lat="39.6247965" lon="8.4751016"><ele>96.0</ele><time>2026-05-01T07:56:36.771Z</time></trkpt><trkpt lat="39.6247381" lon="8.4752442"><ele>96.0</ele><time>2026-05-01T07:56:37.772Z</time></trkpt><trkpt lat="39.624647" lon="8.475365"><ele>96.0</ele><time>2026-05-01T07:56:38.77Z</time></trkpt><trkpt lat="39.6245374" lon="8.4754719"><ele>96.0</ele><time>2026-05-01T07:56:39.772Z</time></trkpt><trkpt lat="39.6244406" lon="8.4755639"><ele>96.0</ele><time>2026-05-01T07:56:40.771Z</time></trkpt><trkpt lat="39.6243623" lon="8.4756767"><ele>91.5</ele><time>2026-05-01T07:56:41.771Z</time></trkpt><trkpt lat="39.6243052" lon="8.4758333"><ele>87.0</ele><time>2026-05-01T07:56:42.77Z</time></trkpt><trkpt lat="39.6242715" lon="8.4759865"><ele>82.5</ele><time>2026-05-01T07:56:43.77Z</time></trkpt><trkpt lat="39.6242535" lon="8.4761191"><ele>78.0</ele><time>2026-05-01T07:56:44.77Z</time></trkpt><trkpt lat="39.624281" lon="8.4762432"><ele>77.66666666666667</ele><time>2026-05-01T07:56:45.77Z</time></trkpt><trkpt lat="39.6243284" lon="8.4763558"><ele>77.33333333333333</ele><time>2026-05-01T07:56:46.77Z</time></trkpt><trkpt lat="39.6243467" lon="8.4764804"><ele>77.0</ele><time>2026-05-01T07:56:47.771Z</time></trkpt><trkpt lat="39.6243404" lon="8.4765958"><ele>76.66666666666666</ele><time>2026-05-01T07:56:48.771Z</time></trkpt><trkpt lat="39.6243222" lon="8.4766874"><ele>76.33333333333333</ele><time>2026-05-01T07:56:49.77Z</time></trkpt><trkpt lat="39.624292" lon="8.476764"><ele>76.0</ele><time>2026-05-01T07:56:50.771Z</time></trkpt><trkpt lat="39.6242033" lon="8.4768699"><ele>76.0</ele><time>2026-05-01T07:56:52.771Z</time></trkpt><trkpt lat="39.6241115" lon="8.4769268"><ele>76.0</ele><time>2026-05-01T07:56:54.771Z</time></trkpt><trkpt lat="39.6240377" lon="8.4769331"><ele>76.0</ele><time>2026-05-01T07:56:57.771Z</time></trkpt><trkpt lat="39.6239129" lon="8.4769921"><ele>76.0</ele><time>2026-05-01T07:56:59.771Z</time></trkpt><trkpt lat="39.6238239" lon="8.4770239"><ele>76.0</ele><time>2026-05-01T07:57:00.771Z</time></trkpt><trkpt lat="39.6237254" lon="8.4770559"><ele>77.0</ele><time>2026-05-01T07:57:01.77Z</time></trkpt><trkpt lat="39.623616" lon="8.4770979"><ele>78.0</ele><time>2026-05-01T07:57:02.771Z</time></trkpt><trkpt lat="39.6235075" lon="8.4771603"><ele>79.0</ele><time>2026-05-01T07:57:03.77Z</time></trkpt><trkpt lat="39.6234065" lon="8.477262"><ele>80.0</ele><time>2026-05-01T07:57:04.77Z</time></trkpt><trkpt lat="39.6233181" lon="8.4773959"><ele>80.5</ele><time>2026-05-01T07:57:05.771Z</time></trkpt><trkpt lat="39.6232437" lon="8.4775539"><ele>81.0</ele><time>2026-05-01T07:57:06.772Z</time></trkpt><trkpt lat="39.6231747" lon="8.4777251"><ele>81.5</ele><time>2026-05-01T07:57:07.771Z</time></trkpt><trkpt lat="39.6230998" lon="8.4778832"><ele>82.0</ele><time>2026-05-01T07:57:08.771Z</time></trkpt><trkpt lat="39.6230165" lon="8.4780311"><ele>81.5</ele><time>2026-05-01T07:57:09.77Z</time></trkpt><trkpt lat="39.6229203" lon="8.4781642"><ele>81.0</ele><time>2026-05-01T07:57:10.771Z</time></trkpt><trkpt lat="39.6228168" lon="8.4782858"><ele>80.5</ele><time>2026-05-01T07:57:11.772Z</time></trkpt><trkpt lat="39.6227119" lon="8.4784072"><ele>80.0</ele><time>2026-05-01T07:57:12.771Z</time></trkpt><trkpt lat="39.6226068" lon="8.4785277"><ele>80.0</ele><time>2026-05-01T07:57:13.77Z</time></trkpt><trkpt lat="39.6224977" lon="8.4786503"><ele>80.0</ele><time>2026-05-01T07:57:14.77Z</time></trkpt><trkpt lat="39.622382" lon="8.4787715"><ele>80.0</ele><time>2026-05-01T07:57:15.77Z</time></trkpt><trkpt lat="39.6222564" lon="8.4788802"><ele>80.0</ele><time>2026-05-01T07:57:16.77Z</time></trkpt><trkpt lat="39.6221277" lon="8.478983"><ele>81.66666666666667</ele><time>2026-05-01T07:57:17.771Z</time></trkpt><trkpt lat="39.6219951" lon="8.4790805"><ele>83.33333333333333</ele><time>2026-05-01T07:57:18.771Z</time></trkpt><trkpt lat="39.6218635" lon="8.4791837"><ele>85.0</ele><time>2026-05-01T07:57:19.77Z</time></trkpt><trkpt lat="39.6217318" lon="8.4792839"><ele>85.0</ele><time>2026-05-01T07:57:20.772Z</time></trkpt><trkpt lat="39.6216001" lon="8.4793838"><ele>85.0</ele><time>2026-05-01T07:57:21.77Z</time></trkpt><trkpt lat="39.6214667" lon="8.4794829"><ele>85.0</ele><time>2026-05-01T07:57:22.772Z</time></trkpt><trkpt lat="39.6213339" lon="8.4795862"><ele>85.33333333333333</ele><time>2026-05-01T07:57:23.771Z</time></trkpt><trkpt lat="39.6212021" lon="8.4796883"><ele>85.66666666666667</ele><time>2026-05-01T07:57:24.771Z</time></trkpt><trkpt lat="39.6210726" lon="8.4797939"><ele>86.0</ele><time>2026-05-01T07:57:25.772Z</time></trkpt><trkpt lat="39.6209451" lon="8.4798952"><ele>86.75</ele><time>2026-05-01T07:57:26.77Z</time></trkpt><trkpt lat="39.620821" lon="8.4799929"><ele>87.5</ele><time>2026-05-01T07:57:27.771Z</time></trkpt><trkpt lat="39.6207136" lon="8.4800781"><ele>88.25</ele><time>2026-05-01T07:57:28.77Z</time></trkpt><trkpt lat="39.6206132" lon="8.4801389"><ele>89.0</ele><time>2026-05-01T07:57:29.771Z</time></trkpt><trkpt lat="39.6204996" lon="8.4801648"><ele>89.0</ele><time>2026-05-01T07:57:30.771Z</time></trkpt><trkpt lat="39.6203803" lon="8.4801709"><ele>89.0</ele><time>2026-05-01T07:57:31.77Z</time></trkpt><trkpt lat="39.6202597" lon="8.4801425"><ele>89.0</ele><time>2026-05-01T07:57:32.77Z</time></trkpt><trkpt lat="39.6201343" lon="8.4801026"><ele>89.0</ele><time>2026-05-01T07:57:33.771Z</time></trkpt><trkpt lat="39.6200016" lon="8.4800704"><ele>91.0</ele><time>2026-05-01T07:57:34.771Z</time></trkpt><trkpt lat="39.6198647" lon="8.4800361"><ele>93.0</ele><time>2026-05-01T07:57:35.771Z</time></trkpt><trkpt lat="39.6197247" lon="8.4800022"><ele>95.0</ele><time>2026-05-01T07:57:36.77Z</time></trkpt><trkpt lat="39.6195829" lon="8.4799695"><ele>97.0</ele><time>2026-05-01T07:57:37.772Z</time></trkpt><trkpt lat="39.6194419" lon="8.4799358"><ele>98.0</ele><time>2026-05-01T07:57:38.771Z</time></trkpt><trkpt lat="39.6192999" lon="8.4799022"><ele>99.0</ele><time>2026-05-01T07:57:39.77Z</time></trkpt><trkpt lat="39.61916" lon="8.4798701"><ele>100.0</ele><time>2026-05-01T07:57:40.771Z</time></trkpt><trkpt lat="39.6190246" lon="8.479838"><ele>101.0</ele><time>2026-05-01T07:57:41.771Z</time></trkpt><trkpt lat="39.6189017" lon="8.4798114"><ele>100.99999999999999</ele><time>2026-05-01T07:57:42.77Z</time></trkpt><trkpt lat="39.6187945" lon="8.4797808"><ele>101.0</ele><time>2026-05-01T07:57:43.771Z</time></trkpt><trkpt lat="39.618705" lon="8.4797562"><ele>101.0</ele><time>2026-05-01T07:57:44.772Z</time></trkpt><trkpt lat="39.6186351" lon="8.4797401"><ele>101.0</ele><time>2026-05-01T07:57:45.771Z</time></trkpt><trkpt lat="39.6185647" lon="8.4797325"><ele>100.99999999999999</ele><time>2026-05-01T07:57:47.771Z</time></trkpt><trkpt lat="39.618492" lon="8.4798228"><ele>101.0</ele><time>2026-05-01T07:57:50.771Z</time></trkpt><trkpt lat="39.6184772" lon="8.4799039"><ele>100.8</ele><time>2026-05-01T07:57:51.771Z</time></trkpt><trkpt lat="39.6184678" lon="8.4800039"><ele>100.6</ele><time>2026-05-01T07:57:52.77Z</time></trkpt><trkpt lat="39.618454" lon="8.4801143"><ele>100.4</ele><time>2026-05-01T07:57:53.77Z</time></trkpt><trkpt lat="39.6184432" lon="8.4802347"><ele>100.2</ele><time>2026-05-01T07:57:54.77Z</time></trkpt><trkpt lat="39.6184345" lon="8.4803683"><ele>100.0</ele><time>2026-05-01T07:57:55.769Z</time></trkpt><trkpt lat="39.6184238" lon="8.4805129"><ele>100.5</ele><time>2026-05-01T07:57:56.77Z</time></trkpt><trkpt lat="39.61841" lon="8.4806669"><ele>101.0</ele><time>2026-05-01T07:57:57.77Z</time></trkpt><trkpt lat="39.6183959" lon="8.4808299"><ele>101.5</ele><time>2026-05-01T07:57:58.769Z</time></trkpt><trkpt lat="39.6183835" lon="8.4810067"><ele>102.0</ele><time>2026-05-01T07:57:59.769Z</time></trkpt><trkpt lat="39.6183721" lon="8.4811859"><ele>102.25</ele><time>2026-05-01T07:58:00.769Z</time></trkpt><trkpt lat="39.6183562" lon="8.4813757"><ele>102.5</ele><time>2026-05-01T07:58:01.769Z</time></trkpt><trkpt lat="39.6183385" lon="8.4815637"><ele>102.75</ele><time>2026-05-01T07:58:02.77Z</time></trkpt><trkpt lat="39.6183215" lon="8.4817584"><ele>103.0</ele><time>2026-05-01T07:58:03.769Z</time></trkpt><trkpt lat="39.6183043" lon="8.4819571"><ele>104.0</ele><time>2026-05-01T07:58:04.77Z</time></trkpt><trkpt lat="39.6182874" lon="8.4821585"><ele>105.0</ele><time>2026-05-01T07:58:05.77Z</time></trkpt><trkpt lat="39.6182707" lon="8.4823622"><ele>106.0</ele><time>2026-05-01T07:58:06.771Z</time></trkpt><trkpt lat="39.6182523" lon="8.4825705"><ele>106.0</ele><time>2026-05-01T07:58:07.77Z</time></trkpt><trkpt lat="39.6182398" lon="8.482769"><ele>106.0</ele><time>2026-05-01T07:58:08.769Z</time></trkpt><trkpt lat="39.618224" lon="8.4829727"><ele>106.0</ele><time>2026-05-01T07:58:09.769Z</time></trkpt><trkpt lat="39.6182159" lon="8.4831714"><ele>107.33333333333334</ele><time>2026-05-01T07:58:10.769Z</time></trkpt><trkpt lat="39.6182212" lon="8.4833693"><ele>108.66666666666666</ele><time>2026-05-01T07:58:11.77Z</time></trkpt><trkpt lat="39.6182466" lon="8.4835668"><ele>110.0</ele><time>2026-05-01T07:58:12.77Z</time></trkpt><trkpt lat="39.6182837" lon="8.4837637"><ele>111.33333333333333</ele><time>2026-05-01T07:58:13.77Z</time></trkpt><trkpt lat="39.6183275" lon="8.4839658"><ele>112.66666666666666</ele><time>2026-05-01T07:58:14.771Z</time></trkpt><trkpt lat="39.6183723" lon="8.4841664"><ele>114.0</ele><time>2026-05-01T07:58:15.77Z</time></trkpt><trkpt lat="39.6184161" lon="8.4843648"><ele>114.0</ele><time>2026-05-01T07:58:16.771Z</time></trkpt><trkpt lat="39.6184599" lon="8.4845655"><ele>114.0</ele><time>2026-05-01T07:58:17.77Z</time></trkpt><trkpt lat="39.6185013" lon="8.4847627"><ele>114.0</ele><time>2026-05-01T07:58:18.77Z</time></trkpt><trkpt lat="39.6185455" lon="8.4849522"><ele>115.0</ele><time>2026-05-01T07:58:19.77Z</time></trkpt><trkpt lat="39.6185916" lon="8.4851399"><ele>116.0</ele><time>2026-05-01T07:58:20.769Z</time></trkpt><trkpt lat="39.618627" lon="8.485323"><ele>117.0</ele><time>2026-05-01T07:58:21.77Z</time></trkpt><trkpt lat="39.6186465" lon="8.4855073"><ele>118.0</ele><time>2026-05-01T07:58:22.771Z</time></trkpt><trkpt lat="39.6186366" lon="8.4856933"><ele>117.75</ele><time>2026-05-01T07:58:23.771Z</time></trkpt><trkpt lat="39.6185966" lon="8.4858664"><ele>117.5</ele><time>2026-05-01T07:58:24.77Z</time></trkpt><trkpt lat="39.6185227" lon="8.4860264"><ele>117.25</ele><time>2026-05-01T07:58:25.771Z</time></trkpt><trkpt lat="39.6184198" lon="8.4861639"><ele>117.0</ele><time>2026-05-01T07:58:26.771Z</time></trkpt><trkpt lat="39.6183018" lon="8.4862831"><ele>117.0</ele><time>2026-05-01T07:58:27.771Z</time></trkpt><trkpt lat="39.6181821" lon="8.486399"><ele>117.0</ele><time>2026-05-01T07:58:28.77Z</time></trkpt><trkpt lat="39.6180717" lon="8.4865432"><ele>117.0</ele><time>2026-05-01T07:58:29.77Z</time></trkpt><trkpt lat="39.6179652" lon="8.486701"><ele>117.0</ele><time>2026-05-01T07:58:30.77Z</time></trkpt><trkpt lat="39.6178548" lon="8.486857"><ele>117.0</ele><time>2026-05-01T07:58:31.77Z</time></trkpt><trkpt lat="39.6177412" lon="8.487017"><ele>117.0</ele><time>2026-05-01T07:58:32.769Z</time></trkpt><trkpt lat="39.6176261" lon="8.4871809"><ele>117.33333333333334</ele><time>2026-05-01T07:58:33.77Z</time></trkpt><trkpt lat="39.617512" lon="8.487348"><ele>117.66666666666667</ele><time>2026-05-01T07:58:34.771Z</time></trkpt><trkpt lat="39.6173964" lon="8.4875169"><ele>118.0</ele><time>2026-05-01T07:58:35.769Z</time></trkpt><trkpt lat="39.6172787" lon="8.4876838"><ele>118.0</ele><time>2026-05-01T07:58:36.771Z</time></trkpt><trkpt lat="39.6171611" lon="8.4878512"><ele>118.0</ele><time>2026-05-01T07:58:37.771Z</time></trkpt><trkpt lat="39.6170424" lon="8.488019"><ele>118.0</ele><time>2026-05-01T07:58:38.77Z</time></trkpt><trkpt lat="39.6169242" lon="8.4881895"><ele>120.33333333333334</ele><time>2026-05-01T07:58:39.771Z</time></trkpt><trkpt lat="39.6168093" lon="8.4883583"><ele>122.66666666666666</ele><time>2026-05-01T07:58:40.769Z</time></trkpt><trkpt lat="39.6166992" lon="8.4885257"><ele>125.0</ele><time>2026-05-01T07:58:41.771Z</time></trkpt><trkpt lat="39.6165868" lon="8.4886951"><ele>125.0</ele><time>2026-05-01T07:58:42.769Z</time></trkpt><trkpt lat="39.616473" lon="8.4888631"><ele>125.0</ele><time>2026-05-01T07:58:43.771Z</time></trkpt><trkpt lat="39.616359" lon="8.4890274"><ele>125.0</ele><time>2026-05-01T07:58:44.77Z</time></trkpt><trkpt lat="39.6162456" lon="8.4891903"><ele>126.66666666666666</ele><time>2026-05-01T07:58:45.77Z</time></trkpt><trkpt lat="39.6161329" lon="8.4893498"><ele>128.33333333333334</ele><time>2026-05-01T07:58:46.77Z</time></trkpt><trkpt lat="39.6160286" lon="8.4895076"><ele>130.0</ele><time>2026-05-01T07:58:47.77Z</time></trkpt><trkpt lat="39.6159412" lon="8.4896784"><ele>130.0</ele><time>2026-05-01T07:58:48.771Z</time></trkpt><trkpt lat="39.6158737" lon="8.4898699"><ele>130.0</ele><time>2026-05-01T07:58:49.77Z</time></trkpt><trkpt lat="39.6158243" lon="8.4900724"><ele>130.0</ele><time>2026-05-01T07:58:50.77Z</time></trkpt><trkpt lat="39.6157823" lon="8.49028"><ele>130.66666666666669</ele><time>2026-05-01T07:58:51.771Z</time></trkpt><trkpt lat="39.6157398" lon="8.4904898"><ele>131.33333333333334</ele><time>2026-05-01T07:58:52.769Z</time></trkpt><trkpt lat="39.6156972" lon="8.4907004"><ele>132.0</ele><time>2026-05-01T07:58:53.77Z</time></trkpt><trkpt lat="39.6156532" lon="8.4909076"><ele>132.0</ele><time>2026-05-01T07:58:54.769Z</time></trkpt><trkpt lat="39.6156134" lon="8.4911167"><ele>132.0</ele><time>2026-05-01T07:58:55.77Z</time></trkpt><trkpt lat="39.6155822" lon="8.4913263"><ele>132.0</ele><time>2026-05-01T07:58:56.77Z</time></trkpt><trkpt lat="39.6155567" lon="8.4915368"><ele>132.33333333333334</ele><time>2026-05-01T07:58:57.77Z</time></trkpt><trkpt lat="39.6155391" lon="8.491745"><ele>132.66666666666669</ele><time>2026-05-01T07:58:58.77Z</time></trkpt><trkpt lat="39.6155281" lon="8.4919516"><ele>133.0</ele><time>2026-05-01T07:58:59.769Z</time></trkpt><trkpt lat="39.6155185" lon="8.4921578"><ele>134.33333333333334</ele><time>2026-05-01T07:59:00.77Z</time></trkpt><trkpt lat="39.6155075" lon="8.4923609"><ele>135.66666666666666</ele><time>2026-05-01T07:59:01.77Z</time></trkpt><trkpt lat="39.6154963" lon="8.4925598"><ele>137.0</ele><time>2026-05-01T07:59:02.77Z</time></trkpt><trkpt lat="39.6154806" lon="8.4927553"><ele>138.25</ele><time>2026-05-01T07:59:03.77Z</time></trkpt><trkpt lat="39.6154512" lon="8.4929432"><ele>139.5</ele><time>2026-05-01T07:59:04.77Z</time></trkpt><trkpt lat="39.6153916" lon="8.4931128"><ele>140.75</ele><time>2026-05-01T07:59:05.77Z</time></trkpt><trkpt lat="39.6153034" lon="8.4932544"><ele>142.0</ele><time>2026-05-01T07:59:06.77Z</time></trkpt><trkpt lat="39.6151888" lon="8.4933673"><ele>143.66666666666669</ele><time>2026-05-01T07:59:07.769Z</time></trkpt><trkpt lat="39.6150545" lon="8.4934458"><ele>145.33333333333334</ele><time>2026-05-01T07:59:08.77Z</time></trkpt><trkpt lat="39.61491" lon="8.4935077"><ele>147.0</ele><time>2026-05-01T07:59:09.771Z</time></trkpt><trkpt lat="39.6147618" lon="8.4935653"><ele>147.0</ele><time>2026-05-01T07:59:10.77Z</time></trkpt><trkpt lat="39.6146149" lon="8.4936313"><ele>147.0</ele><time>2026-05-01T07:59:11.769Z</time></trkpt><trkpt lat="39.614469" lon="8.4936894"><ele>147.0</ele><time>2026-05-01T07:59:12.77Z</time></trkpt><trkpt lat="39.6143232" lon="8.4937158"><ele>148.33333333333334</ele><time>2026-05-01T07:59:13.769Z</time></trkpt><trkpt lat="39.6141761" lon="8.4936904"><ele>149.66666666666669</ele><time>2026-05-01T07:59:14.77Z</time></trkpt><trkpt lat="39.6140335" lon="8.4936338"><ele>151.0</ele><time>2026-05-01T07:59:15.77Z</time></trkpt><trkpt lat="39.6138833" lon="8.4935955"><ele>151.0</ele><time>2026-05-01T07:59:16.769Z</time></trkpt><trkpt lat="39.6137261" lon="8.4935766"><ele>151.0</ele><time>2026-05-01T07:59:17.771Z</time></trkpt><trkpt lat="39.6135655" lon="8.4935602"><ele>151.0</ele><time>2026-05-01T07:59:18.77Z</time></trkpt><trkpt lat="39.6134037" lon="8.4935457"><ele>153.0</ele><time>2026-05-01T07:59:19.771Z</time></trkpt><trkpt lat="39.6132457" lon="8.493532"><ele>155.0</ele><time>2026-05-01T07:59:20.771Z</time></trkpt><trkpt lat="39.6130933" lon="8.4935363"><ele>157.0</ele><time>2026-05-01T07:59:21.77Z</time></trkpt><trkpt lat="39.6129411" lon="8.4935789"><ele>156.66666666666669</ele><time>2026-05-01T07:59:22.77Z</time></trkpt><trkpt lat="39.612792" lon="8.4936448"><ele>156.33333333333334</ele><time>2026-05-01T07:59:23.77Z</time></trkpt><trkpt lat="39.6126452" lon="8.4937136"><ele>156.0</ele><time>2026-05-01T07:59:24.771Z</time></trkpt><trkpt lat="39.6125154" lon="8.4937883"><ele>160.5</ele><time>2026-05-01T07:59:25.769Z</time></trkpt><trkpt lat="39.6124031" lon="8.4939006"><ele>165.0</ele><time>2026-05-01T07:59:26.769Z</time></trkpt><trkpt lat="39.6123146" lon="8.4940539"><ele>169.5</ele><time>2026-05-01T07:59:27.771Z</time></trkpt><trkpt lat="39.6122391" lon="8.4942255"><ele>174.0</ele><time>2026-05-01T07:59:28.771Z</time></trkpt><trkpt lat="39.6121846" lon="8.4943981"><ele>178.0</ele><time>2026-05-01T07:59:29.77Z</time></trkpt><trkpt lat="39.6121635" lon="8.4945892"><ele>182.0</ele><time>2026-05-01T07:59:30.77Z</time></trkpt><trkpt lat="39.6121831" lon="8.4947925"><ele>186.0</ele><time>2026-05-01T07:59:31.77Z</time></trkpt><trkpt lat="39.6122211" lon="8.4949957"><ele>186.0</ele><time>2026-05-01T07:59:32.771Z</time></trkpt><trkpt lat="39.6122712" lon="8.4951957"><ele>186.0</ele><time>2026-05-01T07:59:33.769Z</time></trkpt><trkpt lat="39.6123452" lon="8.4953821"><ele>186.0</ele><time>2026-05-01T07:59:34.771Z</time></trkpt><trkpt lat="39.6124318" lon="8.4955583"><ele>185.0</ele><time>2026-05-01T07:59:35.77Z</time></trkpt><trkpt lat="39.6125125" lon="8.4957369"><ele>184.0</ele><time>2026-05-01T07:59:36.769Z</time></trkpt><trkpt lat="39.6125547" lon="8.4959286"><ele>183.0</ele><time>2026-05-01T07:59:37.77Z</time></trkpt><trkpt lat="39.6125547" lon="8.4961203"><ele>185.33333333333334</ele><time>2026-05-01T07:59:38.771Z</time></trkpt><trkpt lat="39.6125083" lon="8.4963082"><ele>187.66666666666669</ele><time>2026-05-01T07:59:39.77Z</time></trkpt><trkpt lat="39.6124303" lon="8.4964834"><ele>190.0</ele><time>2026-05-01T07:59:40.77Z</time></trkpt><trkpt lat="39.6123432" lon="8.4966538"><ele>190.0</ele><time>2026-05-01T07:59:41.77Z</time></trkpt><trkpt lat="39.6122567" lon="8.4968287"><ele>190.0</ele><time>2026-05-01T07:59:42.77Z</time></trkpt><trkpt lat="39.612174" lon="8.4969937"><ele>190.0</ele><time>2026-05-01T07:59:43.769Z</time></trkpt><trkpt lat="39.6121097" lon="8.4971669"><ele>194.33333333333334</ele><time>2026-05-01T07:59:44.769Z</time></trkpt><trkpt lat="39.6120726" lon="8.4973645"><ele>198.66666666666669</ele><time>2026-05-01T07:59:45.77Z</time></trkpt><trkpt lat="39.6120643" lon="8.4975659"><ele>203.0</ele><time>2026-05-01T07:59:46.77Z</time></trkpt><trkpt lat="39.6120899" lon="8.4977689"><ele>203.33333333333334</ele><time>2026-05-01T07:59:47.77Z</time></trkpt><trkpt lat="39.6121429" lon="8.4979628"><ele>203.66666666666669</ele><time>2026-05-01T07:59:48.771Z</time></trkpt><trkpt lat="39.6122118" lon="8.4981554"><ele>204.0</ele><time>2026-05-01T07:59:49.769Z</time></trkpt><trkpt lat="39.6122818" lon="8.4983428"><ele>204.0</ele><time>2026-05-01T07:59:50.769Z</time></trkpt><trkpt lat="39.6123429" lon="8.498527"><ele>204.0</ele><time>2026-05-01T07:59:51.769Z</time></trkpt><trkpt lat="39.6123792" lon="8.4986995"><ele>204.0</ele><time>2026-05-01T07:59:52.769Z</time></trkpt><trkpt lat="39.6123827" lon="8.4988642"><ele>204.0</ele><time>2026-05-01T07:59:53.77Z</time></trkpt><trkpt lat="39.6123396" lon="8.499012"><ele>205.5</ele><time>2026-05-01T07:59:54.77Z</time></trkpt><trkpt lat="39.6122591" lon="8.4991294"><ele>207.0</ele><time>2026-05-01T07:59:55.77Z</time></trkpt><trkpt lat="39.6121579" lon="8.4992186"><ele>208.5</ele><time>2026-05-01T07:59:56.77Z</time></trkpt><trkpt lat="39.6120572" lon="8.4993058"><ele>210.0</ele><time>2026-05-01T07:59:57.771Z</time></trkpt><trkpt lat="39.6119809" lon="8.4994114"><ele>208.0</ele><time>2026-05-01T07:59:58.771Z</time></trkpt><trkpt lat="39.6119314" lon="8.4995434"><ele>206.0</ele><time>2026-05-01T07:59:59.77Z</time></trkpt><trkpt lat="39.6119159" lon="8.4996967"><ele>204.0</ele><time>2026-05-01T08:00:00.771Z</time></trkpt><trkpt lat="39.6119253" lon="8.4998593"><ele>202.0</ele><time>2026-05-01T08:00:01.77Z</time></trkpt><trkpt lat="39.611944" lon="8.5000332"><ele>202.0</ele><time>2026-05-01T08:00:02.771Z</time></trkpt><trkpt lat="39.6119638" lon="8.5002131"><ele>202.0</ele><time>2026-05-01T08:00:03.771Z</time></trkpt><trkpt lat="39.6119806" lon="8.5003926"><ele>202.0</ele><time>2026-05-01T08:00:04.769Z</time></trkpt><trkpt lat="39.6119965" lon="8.5005699"><ele>202.0</ele><time>2026-05-01T08:00:05.769Z</time></trkpt><trkpt lat="39.6120266" lon="8.5007451"><ele>207.25</ele><time>2026-05-01T08:00:06.77Z</time></trkpt><trkpt lat="39.6120825" lon="8.5009122"><ele>212.5</ele><time>2026-05-01T08:00:07.77Z</time></trkpt><trkpt lat="39.6121722" lon="8.5010616"><ele>217.75</ele><time>2026-05-01T08:00:08.77Z</time></trkpt><trkpt lat="39.6122837" lon="8.5011924"><ele>223.0</ele><time>2026-05-01T08:00:09.77Z</time></trkpt><trkpt lat="39.6124069" lon="8.5013165"><ele>223.0</ele><time>2026-05-01T08:00:10.769Z</time></trkpt><trkpt lat="39.6125276" lon="8.5014402"><ele>223.0</ele><time>2026-05-01T08:00:11.769Z</time></trkpt><trkpt lat="39.6126416" lon="8.5015542"><ele>223.0</ele><time>2026-05-01T08:00:12.77Z</time></trkpt><trkpt lat="39.612742" lon="8.5016604"><ele>223.0</ele><time>2026-05-01T08:00:13.771Z</time></trkpt><trkpt lat="39.6128258" lon="8.5017563"><ele>223.0</ele><time>2026-05-01T08:00:14.77Z</time></trkpt><trkpt lat="39.6128778" lon="8.5018547"><ele>223.0</ele><time>2026-05-01T08:00:15.769Z</time></trkpt><trkpt lat="39.6128919" lon="8.5019527"><ele>223.0</ele><time>2026-05-01T08:00:16.771Z</time></trkpt><trkpt lat="39.6128028" lon="8.5020713"><ele>223.0</ele><time>2026-05-01T08:00:18.77Z</time></trkpt><trkpt lat="39.6127099" lon="8.5020837"><ele>223.0</ele><time>2026-05-01T08:00:19.769Z</time></trkpt><trkpt lat="39.6126041" lon="8.5020659"><ele>223.0</ele><time>2026-05-01T08:00:20.771Z</time></trkpt><trkpt lat="39.6124848" lon="8.5020586"><ele>223.0</ele><time>2026-05-01T08:00:21.77Z</time></trkpt><trkpt lat="39.6123592" lon="8.5020679"><ele>223.0</ele><time>2026-05-01T08:00:22.77Z</time></trkpt><trkpt lat="39.61223" lon="8.502108"><ele>223.0</ele><time>2026-05-01T08:00:23.77Z</time></trkpt><trkpt lat="39.6121015" lon="8.5021721"><ele>224.75</ele><time>2026-05-01T08:00:24.77Z</time></trkpt><trkpt lat="39.6119672" lon="8.5022341"><ele>226.5</ele><time>2026-05-01T08:00:25.77Z</time></trkpt><trkpt lat="39.6118375" lon="8.5023059"><ele>228.25</ele><time>2026-05-01T08:00:26.77Z</time></trkpt><trkpt lat="39.611718" lon="8.5024042"><ele>230.0</ele><time>2026-05-01T08:00:27.77Z</time></trkpt><trkpt lat="39.6116156" lon="8.5025271"><ele>230.0</ele><time>2026-05-01T08:00:28.769Z</time></trkpt><trkpt lat="39.6115222" lon="8.502667"><ele>230.0</ele><time>2026-05-01T08:00:29.77Z</time></trkpt><trkpt lat="39.61144" lon="8.5028139"><ele>230.0</ele><time>2026-05-01T08:00:30.771Z</time></trkpt><trkpt lat="39.6113694" lon="8.5029708"><ele>230.0</ele><time>2026-05-01T08:00:31.771Z</time></trkpt><trkpt lat="39.6113198" lon="8.5031332"><ele>231.75</ele><time>2026-05-01T08:00:32.769Z</time></trkpt><trkpt lat="39.6112975" lon="8.5033099"><ele>233.5</ele><time>2026-05-01T08:00:33.77Z</time></trkpt><trkpt lat="39.6113076" lon="8.5034912"><ele>235.25</ele><time>2026-05-01T08:00:34.771Z</time></trkpt><trkpt lat="39.6113508" lon="8.5036718"><ele>237.0</ele><time>2026-05-01T08:00:35.77Z</time></trkpt><trkpt lat="39.6114076" lon="8.5038351"><ele>238.5</ele><time>2026-05-01T08:00:36.77Z</time></trkpt><trkpt lat="39.6114319" lon="8.5040024"><ele>240.0</ele><time>2026-05-01T08:00:37.77Z</time></trkpt><trkpt lat="39.6114188" lon="8.5041664"><ele>241.5</ele><time>2026-05-01T08:00:38.77Z</time></trkpt><trkpt lat="39.611369" lon="8.504324"><ele>243.0</ele><time>2026-05-01T08:00:39.771Z</time></trkpt><trkpt lat="39.6112846" lon="8.5044561"><ele>243.0</ele><time>2026-05-01T08:00:40.771Z</time></trkpt><trkpt lat="39.6111727" lon="8.504576"><ele>243.0</ele><time>2026-05-01T08:00:41.77Z</time></trkpt><trkpt lat="39.6110539" lon="8.504696"><ele>243.0</ele><time>2026-05-01T08:00:42.77Z</time></trkpt><trkpt lat="39.6109259" lon="8.5048097"><ele>245.66666666666669</ele><time>2026-05-01T08:00:43.77Z</time></trkpt><trkpt lat="39.6107892" lon="8.5048958"><ele>248.33333333333334</ele><time>2026-05-01T08:00:44.77Z</time></trkpt><trkpt lat="39.6106499" lon="8.5049669"><ele>251.0</ele><time>2026-05-01T08:00:45.77Z</time></trkpt><trkpt lat="39.6105038" lon="8.5050382"><ele>251.0</ele><time>2026-05-01T08:00:46.77Z</time></trkpt><trkpt lat="39.6103585" lon="8.5051057"><ele>251.0</ele><time>2026-05-01T08:00:47.769Z</time></trkpt><trkpt lat="39.6102141" lon="8.5051733"><ele>251.0</ele><time>2026-05-01T08:00:48.769Z</time></trkpt><trkpt lat="39.6100696" lon="8.5052416"><ele>250.33333333333334</ele><time>2026-05-01T08:00:49.769Z</time></trkpt><trkpt lat="39.6099265" lon="8.5053147"><ele>249.66666666666669</ele><time>2026-05-01T08:00:50.77Z</time></trkpt><trkpt lat="39.6097823" lon="8.5053842"><ele>249.0</ele><time>2026-05-01T08:00:51.771Z</time></trkpt><trkpt lat="39.6096407" lon="8.5054545"><ele>252.33333333333331</ele><time>2026-05-01T08:00:52.771Z</time></trkpt><trkpt lat="39.6095026" lon="8.5055366"><ele>255.66666666666666</ele><time>2026-05-01T08:00:53.769Z</time></trkpt><trkpt lat="39.6093742" lon="8.5056411"><ele>259.0</ele><time>2026-05-01T08:00:54.77Z</time></trkpt><trkpt lat="39.6092615" lon="8.5057674"><ele>259.0</ele><time>2026-05-01T08:00:55.771Z</time></trkpt><trkpt lat="39.6091649" lon="8.5059156"><ele>259.0</ele><time>2026-05-01T08:00:56.769Z</time></trkpt><trkpt lat="39.6090873" lon="8.5060794"><ele>259.0</ele><time>2026-05-01T08:00:57.77Z</time></trkpt><trkpt lat="39.6090268" lon="8.5062608"><ele>261.75</ele><time>2026-05-01T08:00:58.771Z</time></trkpt><trkpt lat="39.6089865" lon="8.5064522"><ele>264.5</ele><time>2026-05-01T08:00:59.771Z</time></trkpt><trkpt lat="39.6089701" lon="8.5066429"><ele>267.25</ele><time>2026-05-01T08:01:00.769Z</time></trkpt><trkpt lat="39.6089662" lon="8.5068241"><ele>270.0</ele><time>2026-05-01T08:01:01.771Z</time></trkpt><trkpt lat="39.6089468" lon="8.5069781"><ele>271.0</ele><time>2026-05-01T08:01:02.771Z</time></trkpt><trkpt lat="39.6088948" lon="8.5071151"><ele>272.0</ele><time>2026-05-01T08:01:03.77Z</time></trkpt><trkpt lat="39.6088154" lon="8.5072162"><ele>273.0</ele><time>2026-05-01T08:01:04.77Z</time></trkpt><trkpt lat="39.6087177" lon="8.5072723"><ele>274.0</ele><time>2026-05-01T08:01:05.77Z</time></trkpt><trkpt lat="39.6085908" lon="8.5072861"><ele>274.25</ele><time>2026-05-01T08:01:06.77Z</time></trkpt><trkpt lat="39.6084579" lon="8.507252"><ele>274.5</ele><time>2026-05-01T08:01:07.771Z</time></trkpt><trkpt lat="39.6083219" lon="8.5072098"><ele>274.75</ele><time>2026-05-01T08:01:08.771Z</time></trkpt><trkpt lat="39.6081869" lon="8.5071748"><ele>275.0</ele><time>2026-05-01T08:01:09.769Z</time></trkpt><trkpt lat="39.6080592" lon="8.5071779"><ele>275.0</ele><time>2026-05-01T08:01:10.769Z</time></trkpt><trkpt lat="39.6079299" lon="8.5072281"><ele>275.0</ele><time>2026-05-01T08:01:11.77Z</time></trkpt><trkpt lat="39.6078199" lon="8.507323"><ele>275.0</ele><time>2026-05-01T08:01:12.77Z</time></trkpt><trkpt lat="39.6077186" lon="8.5074467"><ele>275.0</ele><time>2026-05-01T08:01:13.77Z</time></trkpt><trkpt lat="39.6076202" lon="8.5075838"><ele>275.0</ele><time>2026-05-01T08:01:14.77Z</time></trkpt><trkpt lat="39.6075235" lon="8.5077275"><ele>275.0</ele><time>2026-05-01T08:01:15.769Z</time></trkpt><trkpt lat="39.6074266" lon="8.507871"><ele>275.0</ele><time>2026-05-01T08:01:16.77Z</time></trkpt><trkpt lat="39.6073268" lon="8.5080138"><ele>275.0</ele><time>2026-05-01T08:01:17.77Z</time></trkpt><trkpt lat="39.6072285" lon="8.5081595"><ele>278.6666666666667</ele><time>2026-05-01T08:01:18.77Z</time></trkpt><trkpt lat="39.6071282" lon="8.5083068"><ele>282.3333333333333</ele><time>2026-05-01T08:01:19.77Z</time></trkpt><trkpt lat="39.6070285" lon="8.5084512"><ele>286.0</ele><time>2026-05-01T08:01:20.77Z</time></trkpt><trkpt lat="39.6069268" lon="8.5085943"><ele>286.0</ele><time>2026-05-01T08:01:21.77Z</time></trkpt><trkpt lat="39.6068222" lon="8.5087371"><ele>286.0</ele><time>2026-05-01T08:01:22.77Z</time></trkpt><trkpt lat="39.606718" lon="8.5088774"><ele>286.0</ele><time>2026-05-01T08:01:23.77Z</time></trkpt><trkpt lat="39.6066179" lon="8.5090183"><ele>286.5</ele><time>2026-05-01T08:01:24.769Z</time></trkpt><trkpt lat="39.6065217" lon="8.509157"><ele>287.0</ele><time>2026-05-01T08:01:25.77Z</time></trkpt><trkpt lat="39.6064267" lon="8.5092949"><ele>287.5</ele><time>2026-05-01T08:01:26.77Z</time></trkpt><trkpt lat="39.606335" lon="8.509435"><ele>288.0</ele><time>2026-05-01T08:01:27.771Z</time></trkpt><trkpt lat="39.6062537" lon="8.5095756"><ele>288.75</ele><time>2026-05-01T08:01:28.769Z</time></trkpt><trkpt lat="39.6061904" lon="8.5097428"><ele>289.5</ele><time>2026-05-01T08:01:29.77Z</time></trkpt><trkpt lat="39.6061557" lon="8.5099297"><ele>290.25</ele><time>2026-05-01T08:01:30.77Z</time></trkpt><trkpt lat="39.60615" lon="8.5101265"><ele>291.0</ele><time>2026-05-01T08:01:31.77Z</time></trkpt><trkpt lat="39.6061793" lon="8.5103282"><ele>290.3333333333333</ele><time>2026-05-01T08:01:32.769Z</time></trkpt><trkpt lat="39.6062372" lon="8.510523"><ele>289.66666666666663</ele><time>2026-05-01T08:01:33.77Z</time></trkpt><trkpt lat="39.6063075" lon="8.5107134"><ele>289.0</ele><time>2026-05-01T08:01:34.77Z</time></trkpt><trkpt lat="39.6063747" lon="8.510902"><ele>289.0</ele><time>2026-05-01T08:01:35.769Z</time></trkpt><trkpt lat="39.6064376" lon="8.5110944"><ele>289.0</ele><time>2026-05-01T08:01:36.771Z</time></trkpt><trkpt lat="39.6064885" lon="8.5112874"><ele>289.0</ele><time>2026-05-01T08:01:37.771Z</time></trkpt><trkpt lat="39.6065302" lon="8.5114777"><ele>287.25</ele><time>2026-05-01T08:01:38.771Z</time></trkpt><trkpt lat="39.6065739" lon="8.5116598"><ele>285.5</ele><time>2026-05-01T08:01:39.77Z</time></trkpt><trkpt lat="39.6066288" lon="8.5118316"><ele>283.75</ele><time>2026-05-01T08:01:40.769Z</time></trkpt><trkpt lat="39.6066927" lon="8.5119937"><ele>282.0</ele><time>2026-05-01T08:01:41.771Z</time></trkpt><trkpt lat="39.606746" lon="8.5121606"><ele>282.25</ele><time>2026-05-01T08:01:42.77Z</time></trkpt><trkpt lat="39.6067789" lon="8.5123404"><ele>282.5</ele><time>2026-05-01T08:01:43.77Z</time></trkpt><trkpt lat="39.6067872" lon="8.5125274"><ele>282.75</ele><time>2026-05-01T08:01:44.77Z</time></trkpt><trkpt lat="39.6067766" lon="8.5127209"><ele>283.0</ele><time>2026-05-01T08:01:45.77Z</time></trkpt><trkpt lat="39.6067402" lon="8.5129106"><ele>283.0</ele><time>2026-05-01T08:01:46.77Z</time></trkpt><trkpt lat="39.6066907" lon="8.5130912"><ele>283.0</ele><time>2026-05-01T08:01:47.77Z</time></trkpt><trkpt lat="39.6066425" lon="8.5132655"><ele>283.0</ele><time>2026-05-01T08:01:48.769Z</time></trkpt><trkpt lat="39.6066029" lon="8.5134394"><ele>283.0</ele><time>2026-05-01T08:01:49.769Z</time></trkpt><trkpt lat="39.6065816" lon="8.5136127"><ele>282.0</ele><time>2026-05-01T08:01:50.769Z</time></trkpt><trkpt lat="39.606574" lon="8.5137806"><ele>281.0</ele><time>2026-05-01T08:01:51.77Z</time></trkpt><trkpt lat="39.6065849" lon="8.5139471"><ele>280.0</ele><time>2026-05-01T08:01:52.771Z</time></trkpt><trkpt lat="39.6066276" lon="8.5141122"><ele>279.0</ele><time>2026-05-01T08:01:53.769Z</time></trkpt><trkpt lat="39.6066966" lon="8.5142653"><ele>279.0</ele><time>2026-05-01T08:01:54.77Z</time></trkpt><trkpt lat="39.606792" lon="8.5143962"><ele>279.0</ele><time>2026-05-01T08:01:55.77Z</time></trkpt><trkpt lat="39.6069077" lon="8.5145043"><ele>279.0</ele><time>2026-05-01T08:01:56.77Z</time></trkpt><trkpt lat="39.6070419" lon="8.514588"><ele>279.0</ele><time>2026-05-01T08:01:57.77Z</time></trkpt><trkpt lat="39.6071824" lon="8.514662"><ele>280.0</ele><time>2026-05-01T08:01:58.77Z</time></trkpt><trkpt lat="39.6073242" lon="8.5147401"><ele>281.0</ele><time>2026-05-01T08:01:59.77Z</time></trkpt><trkpt lat="39.6074645" lon="8.5148194"><ele>282.0</ele><time>2026-05-01T08:02:00.769Z</time></trkpt><trkpt lat="39.6076034" lon="8.5148981"><ele>282.0</ele><time>2026-05-01T08:02:01.77Z</time></trkpt><trkpt lat="39.6077421" lon="8.5149767"><ele>282.0</ele><time>2026-05-01T08:02:02.769Z</time></trkpt><trkpt lat="39.6078791" lon="8.5150516"><ele>282.0</ele><time>2026-05-01T08:02:03.77Z</time></trkpt><trkpt lat="39.6080135" lon="8.515122"><ele>282.0</ele><time>2026-05-01T08:02:04.77Z</time></trkpt><trkpt lat="39.6081484" lon="8.5151878"><ele>283.25</ele><time>2026-05-01T08:02:05.77Z</time></trkpt><trkpt lat="39.6082875" lon="8.5152426"><ele>284.5</ele><time>2026-05-01T08:02:06.771Z</time></trkpt><trkpt lat="39.6084304" lon="8.5152853"><ele>285.75</ele><time>2026-05-01T08:02:07.77Z</time></trkpt><trkpt lat="39.608577" lon="8.5153289"><ele>287.0</ele><time>2026-05-01T08:02:08.771Z</time></trkpt><trkpt lat="39.6087197" lon="8.5153736"><ele>285.0</ele><time>2026-05-01T08:02:09.771Z</time></trkpt><trkpt lat="39.608867" lon="8.5154198"><ele>283.0</ele><time>2026-05-01T08:02:10.77Z</time></trkpt><trkpt lat="39.6090158" lon="8.5154643"><ele>281.0</ele><time>2026-05-01T08:02:11.77Z</time></trkpt><trkpt lat="39.6091634" lon="8.5155071"><ele>281.0</ele><time>2026-05-01T08:02:12.769Z</time></trkpt><trkpt lat="39.6093063" lon="8.5155467"><ele>281.0</ele><time>2026-05-01T08:02:13.77Z</time></trkpt><trkpt lat="39.6094463" lon="8.5155869"><ele>281.0</ele><time>2026-05-01T08:02:14.77Z</time></trkpt><trkpt lat="39.6095773" lon="8.5156234"><ele>281.0</ele><time>2026-05-01T08:02:15.771Z</time></trkpt><trkpt lat="39.6097037" lon="8.5156607"><ele>281.8</ele><time>2026-05-01T08:02:16.771Z</time></trkpt><trkpt lat="39.6098227" lon="8.5156994"><ele>282.6</ele><time>2026-05-01T08:02:17.769Z</time></trkpt><trkpt lat="39.6099322" lon="8.5157422"><ele>283.4</ele><time>2026-05-01T08:02:18.77Z</time></trkpt><trkpt lat="39.6100263" lon="8.5157859"><ele>284.2</ele><time>2026-05-01T08:02:19.769Z</time></trkpt><trkpt lat="39.6101046" lon="8.5158481"><ele>285.0</ele><time>2026-05-01T08:02:20.77Z</time></trkpt><trkpt lat="39.6101742" lon="8.5159386"><ele>285.0</ele><time>2026-05-01T08:02:21.77Z</time></trkpt><trkpt lat="39.6102237" lon="8.5160438"><ele>285.0</ele><time>2026-05-01T08:02:22.769Z</time></trkpt><trkpt lat="39.6102471" lon="8.5161836"><ele>285.0</ele><time>2026-05-01T08:02:23.769Z</time></trkpt><trkpt lat="39.6102509" lon="8.516351"><ele>285.0</ele><time>2026-05-01T08:02:24.77Z</time></trkpt><trkpt lat="39.610238" lon="8.5165278"><ele>283.75</ele><time>2026-05-01T08:02:25.77Z</time></trkpt><trkpt lat="39.6102157" lon="8.5167148"><ele>282.5</ele><time>2026-05-01T08:02:26.769Z</time></trkpt><trkpt lat="39.6101895" lon="8.5168979"><ele>281.25</ele><time>2026-05-01T08:02:27.77Z</time></trkpt><trkpt lat="39.6101566" lon="8.5170793"><ele>280.0</ele><time>2026-05-01T08:02:28.77Z</time></trkpt><trkpt lat="39.6101064" lon="8.5172527"><ele>280.0</ele><time>2026-05-01T08:02:29.77Z</time></trkpt><trkpt lat="39.6100303" lon="8.5174103"><ele>280.0</ele><time>2026-05-01T08:02:30.77Z</time></trkpt><trkpt lat="39.6099438" lon="8.5175663"><ele>280.0</ele><time>2026-05-01T08:02:31.77Z</time></trkpt><trkpt lat="39.6098699" lon="8.5177402"><ele>280.0</ele><time>2026-05-01T08:02:32.77Z</time></trkpt><trkpt lat="39.6098146" lon="8.5179217"><ele>281.25</ele><time>2026-05-01T08:02:33.77Z</time></trkpt><trkpt lat="39.6097697" lon="8.5181019"><ele>282.5</ele><time>2026-05-01T08:02:34.77Z</time></trkpt><trkpt lat="39.6097356" lon="8.5182732"><ele>283.75</ele><time>2026-05-01T08:02:35.77Z</time></trkpt><trkpt lat="39.6097187" lon="8.5184324"><ele>285.0</ele><time>2026-05-01T08:02:36.771Z</time></trkpt><trkpt lat="39.609729" lon="8.518606"><ele>283.3333333333333</ele><time>2026-05-01T08:02:37.769Z</time></trkpt><trkpt lat="39.6097644" lon="8.5187858"><ele>281.66666666666663</ele><time>2026-05-01T08:02:38.769Z</time></trkpt><trkpt lat="39.6098119" lon="8.5189712"><ele>280.0</ele><time>2026-05-01T08:02:39.771Z</time></trkpt><trkpt lat="39.6098671" lon="8.5191611"><ele>280.0</ele><time>2026-05-01T08:02:40.769Z</time></trkpt><trkpt lat="39.6099291" lon="8.5193521"><ele>280.0</ele><time>2026-05-01T08:02:41.77Z</time></trkpt><trkpt lat="39.6099947" lon="8.5195419"><ele>280.0</ele><time>2026-05-01T08:02:42.77Z</time></trkpt><trkpt lat="39.6100654" lon="8.5197228"><ele>277.0</ele><time>2026-05-01T08:02:43.77Z</time></trkpt><trkpt lat="39.6101388" lon="8.5199027"><ele>274.0</ele><time>2026-05-01T08:02:44.769Z</time></trkpt><trkpt lat="39.6102134" lon="8.5200814"><ele>271.0</ele><time>2026-05-01T08:02:45.77Z</time></trkpt><trkpt lat="39.6102888" lon="8.520257"><ele>274.5</ele><time>2026-05-01T08:02:46.771Z</time></trkpt><trkpt lat="39.6103638" lon="8.5204291"><ele>278.0</ele><time>2026-05-01T08:02:47.771Z</time></trkpt><trkpt lat="39.610435" lon="8.5205852"><ele>281.5</ele><time>2026-05-01T08:02:48.769Z</time></trkpt><trkpt lat="39.6104942" lon="8.5207257"><ele>285.0</ele><time>2026-05-01T08:02:49.769Z</time></trkpt><trkpt lat="39.6105295" lon="8.5208482"><ele>285.0</ele><time>2026-05-01T08:02:50.77Z</time></trkpt><trkpt lat="39.6105203" lon="8.5209627"><ele>285.0</ele><time>2026-05-01T08:02:51.77Z</time></trkpt><trkpt lat="39.6104777" lon="8.5210655"><ele>285.0</ele><time>2026-05-01T08:02:52.77Z</time></trkpt><trkpt lat="39.610391" lon="8.5211584"><ele>285.0</ele><time>2026-05-01T08:02:53.77Z</time></trkpt><trkpt lat="39.6102837" lon="8.5212494"><ele>285.0</ele><time>2026-05-01T08:02:54.77Z</time></trkpt><trkpt lat="39.610173" lon="8.5213523"><ele>283.5</ele><time>2026-05-01T08:02:55.771Z</time></trkpt><trkpt lat="39.6100639" lon="8.5214564"><ele>282.0</ele><time>2026-05-01T08:02:56.77Z</time></trkpt><trkpt lat="39.6099617" lon="8.5215502"><ele>280.5</ele><time>2026-05-01T08:02:57.77Z</time></trkpt><trkpt lat="39.6098707" lon="8.5216364"><ele>279.0</ele><time>2026-05-01T08:02:58.769Z</time></trkpt><trkpt lat="39.6097939" lon="8.52174"><ele>279.0</ele><time>2026-05-01T08:02:59.77Z</time></trkpt><trkpt lat="39.6097441" lon="8.5218599"><ele>279.0</ele><time>2026-05-01T08:03:00.769Z</time></trkpt><trkpt lat="39.6097025" lon="8.521983"><ele>279.0</ele><time>2026-05-01T08:03:01.771Z</time></trkpt><trkpt lat="39.6096475" lon="8.5220947"><ele>279.0</ele><time>2026-05-01T08:03:02.769Z</time></trkpt><trkpt lat="39.6095739" lon="8.522171"><ele>279.0</ele><time>2026-05-01T08:03:03.77Z</time></trkpt><trkpt lat="39.6094814" lon="8.5222047"><ele>277.5</ele><time>2026-05-01T08:03:04.771Z</time></trkpt><trkpt lat="39.6093834" lon="8.5221899"><ele>276.0</ele><time>2026-05-01T08:03:05.771Z</time></trkpt><trkpt lat="39.6092844" lon="8.5221169"><ele>274.5</ele><time>2026-05-01T08:03:06.77Z</time></trkpt><trkpt lat="39.6091904" lon="8.5220104"><ele>273.0</ele><time>2026-05-01T08:03:07.77Z</time></trkpt><trkpt lat="39.6090959" lon="8.5218854"><ele>273.0</ele><time>2026-05-01T08:03:08.77Z</time></trkpt><trkpt lat="39.6089958" lon="8.5217475"><ele>273.0</ele><time>2026-05-01T08:03:09.77Z</time></trkpt><trkpt lat="39.6088883" lon="8.5216083"><ele>273.0</ele><time>2026-05-01T08:03:10.77Z</time></trkpt><trkpt lat="39.6087806" lon="8.5214693"><ele>273.0</ele><time>2026-05-01T08:03:11.77Z</time></trkpt><trkpt lat="39.6086619" lon="8.5213335"><ele>273.0</ele><time>2026-05-01T08:03:12.771Z</time></trkpt><trkpt lat="39.6085317" lon="8.521211"><ele>273.0</ele><time>2026-05-01T08:03:13.769Z</time></trkpt><trkpt lat="39.6083976" lon="8.5211036"><ele>272.0</ele><time>2026-05-01T08:03:14.77Z</time></trkpt><trkpt lat="39.608266" lon="8.5210086"><ele>271.0</ele><time>2026-05-01T08:03:15.77Z</time></trkpt><trkpt lat="39.6081431" lon="8.5209312"><ele>270.0</ele><time>2026-05-01T08:03:16.771Z</time></trkpt><trkpt lat="39.6080248" lon="8.5208769"><ele>269.0</ele><time>2026-05-01T08:03:17.77Z</time></trkpt><trkpt lat="39.6078928" lon="8.5208605"><ele>269.75</ele><time>2026-05-01T08:03:18.769Z</time></trkpt><trkpt lat="39.6077526" lon="8.5208813"><ele>270.5</ele><time>2026-05-01T08:03:19.77Z</time></trkpt><trkpt lat="39.6076067" lon="8.5209126"><ele>271.25</ele><time>2026-05-01T08:03:20.769Z</time></trkpt><trkpt lat="39.6074562" lon="8.5209591"><ele>272.0</ele><time>2026-05-01T08:03:21.771Z</time></trkpt><trkpt lat="39.6073065" lon="8.5210288"><ele>272.0</ele><time>2026-05-01T08:03:22.769Z</time></trkpt><trkpt lat="39.6071626" lon="8.5211104"><ele>272.0</ele><time>2026-05-01T08:03:23.77Z</time></trkpt><trkpt lat="39.6070262" lon="8.5211957"><ele>272.0</ele><time>2026-05-01T08:03:24.771Z</time></trkpt><trkpt lat="39.6068956" lon="8.5212869"><ele>273.75</ele><time>2026-05-01T08:03:25.77Z</time></trkpt><trkpt lat="39.6067842" lon="8.5213845"><ele>275.5</ele><time>2026-05-01T08:03:26.77Z</time></trkpt><trkpt lat="39.6066849" lon="8.5214919"><ele>277.25</ele><time>2026-05-01T08:03:27.769Z</time></trkpt><trkpt lat="39.6066025" lon="8.5216047"><ele>279.0</ele><time>2026-05-01T08:03:28.769Z</time></trkpt><trkpt lat="39.6065386" lon="8.5217368"><ele>279.0</ele><time>2026-05-01T08:03:29.771Z</time></trkpt><trkpt lat="39.6065013" lon="8.5218966"><ele>279.0</ele><time>2026-05-01T08:03:30.77Z</time></trkpt><trkpt lat="39.606487" lon="8.5220687"><ele>279.0</ele><time>2026-05-01T08:03:31.771Z</time></trkpt><trkpt lat="39.6064772" lon="8.5222423"><ele>279.0</ele><time>2026-05-01T08:03:32.771Z</time></trkpt><trkpt lat="39.6064331" lon="8.5224003"><ele>278.5</ele><time>2026-05-01T08:03:33.77Z</time></trkpt><trkpt lat="39.6063606" lon="8.5225226"><ele>278.0</ele><time>2026-05-01T08:03:34.77Z</time></trkpt><trkpt lat="39.606254" lon="8.5226082"><ele>277.5</ele><time>2026-05-01T08:03:35.769Z</time></trkpt><trkpt lat="39.6061289" lon="8.5226441"><ele>277.0</ele><time>2026-05-01T08:03:36.771Z</time></trkpt><trkpt lat="39.605995" lon="8.5226519"><ele>277.0</ele><time>2026-05-01T08:03:37.77Z</time></trkpt><trkpt lat="39.6058587" lon="8.5226513"><ele>277.0</ele><time>2026-05-01T08:03:38.77Z</time></trkpt><trkpt lat="39.6057234" lon="8.5226523"><ele>277.0</ele><time>2026-05-01T08:03:39.77Z</time></trkpt><trkpt lat="39.6055956" lon="8.5226574"><ele>277.0</ele><time>2026-05-01T08:03:40.769Z</time></trkpt><trkpt lat="39.6054816" lon="8.5226865"><ele>277.0</ele><time>2026-05-01T08:03:41.77Z</time></trkpt><trkpt lat="39.6053688" lon="8.5227684"><ele>277.0</ele><time>2026-05-01T08:03:42.771Z</time></trkpt><trkpt lat="39.6052639" lon="8.5228838"><ele>277.0</ele><time>2026-05-01T08:03:43.771Z</time></trkpt><trkpt lat="39.6051606" lon="8.5230036"><ele>277.0</ele><time>2026-05-01T08:03:44.77Z</time></trkpt><trkpt lat="39.6050645" lon="8.5231172"><ele>279.2</ele><time>2026-05-01T08:03:45.769Z</time></trkpt><trkpt lat="39.6049723" lon="8.5232265"><ele>281.4</ele><time>2026-05-01T08:03:46.77Z</time></trkpt><trkpt lat="39.6048941" lon="8.5233183"><ele>283.6</ele><time>2026-05-01T08:03:47.77Z</time></trkpt><trkpt lat="39.6048257" lon="8.5233986"><ele>285.8</ele><time>2026-05-01T08:03:48.77Z</time></trkpt><trkpt lat="39.6047645" lon="8.523469"><ele>288.0</ele><time>2026-05-01T08:03:49.769Z</time></trkpt><trkpt lat="39.6046919" lon="8.5235472"><ele>288.0</ele><time>2026-05-01T08:03:50.769Z</time></trkpt><trkpt lat="39.6046247" lon="8.5236335"><ele>288.0</ele><time>2026-05-01T08:03:51.77Z</time></trkpt><trkpt lat="39.6045638" lon="8.5237358"><ele>288.0</ele><time>2026-05-01T08:03:52.77Z</time></trkpt><trkpt lat="39.6045059" lon="8.5238505"><ele>288.0</ele><time>2026-05-01T08:03:53.771Z</time></trkpt><trkpt lat="39.6044513" lon="8.5239702"><ele>288.0</ele><time>2026-05-01T08:03:54.77Z</time></trkpt><trkpt lat="39.6044134" lon="8.5240945"><ele>288.25</ele><time>2026-05-01T08:03:55.77Z</time></trkpt><trkpt lat="39.6044024" lon="8.524234"><ele>288.5</ele><time>2026-05-01T08:03:56.769Z</time></trkpt><trkpt lat="39.6044143" lon="8.5243837"><ele>288.75</ele><time>2026-05-01T08:03:57.771Z</time></trkpt><trkpt lat="39.6044361" lon="8.5245325"><ele>289.0</ele><time>2026-05-01T08:03:58.771Z</time></trkpt><trkpt lat="39.6044433" lon="8.524675"><ele>289.0</ele><time>2026-05-01T08:03:59.77Z</time></trkpt><trkpt lat="39.6044237" lon="8.5247991"><ele>289.0</ele><time>2026-05-01T08:04:00.77Z</time></trkpt><trkpt lat="39.6043669" lon="8.5249121"><ele>289.0</ele><time>2026-05-01T08:04:01.769Z</time></trkpt><trkpt lat="39.6042767" lon="8.5250097"><ele>289.0</ele><time>2026-05-01T08:04:02.77Z</time></trkpt><trkpt lat="39.60417" lon="8.525104"><ele>289.0</ele><time>2026-05-01T08:04:03.771Z</time></trkpt><trkpt lat="39.604068" lon="8.5251932"><ele>289.0</ele><time>2026-05-01T08:04:04.77Z</time></trkpt><trkpt lat="39.6039845" lon="8.5252997"><ele>289.0</ele><time>2026-05-01T08:04:05.769Z</time></trkpt><trkpt lat="39.6039262" lon="8.525452"><ele>289.0</ele><time>2026-05-01T08:04:06.77Z</time></trkpt><trkpt lat="39.6038825" lon="8.525612"><ele>289.0</ele><time>2026-05-01T08:04:07.771Z</time></trkpt><trkpt lat="39.6038394" lon="8.5257694"><ele>291.75</ele><time>2026-05-01T08:04:08.769Z</time></trkpt><trkpt lat="39.6038037" lon="8.5259244"><ele>294.5</ele><time>2026-05-01T08:04:09.769Z</time></trkpt><trkpt lat="39.603779" lon="8.5260796"><ele>297.25</ele><time>2026-05-01T08:04:10.771Z</time></trkpt><trkpt lat="39.603779" lon="8.5262342"><ele>300.0</ele><time>2026-05-01T08:04:11.769Z</time></trkpt><trkpt lat="39.6038004" lon="8.5263788"><ele>300.3333333333333</ele><time>2026-05-01T08:04:12.769Z</time></trkpt><trkpt lat="39.6038149" lon="8.5265021"><ele>300.6666666666667</ele><time>2026-05-01T08:04:13.769Z</time></trkpt><trkpt lat="39.6037907" lon="8.5266148"><ele>301.0</ele><time>2026-05-01T08:04:14.768Z</time></trkpt><trkpt lat="39.6037488" lon="8.5266995"><ele>301.33333333333337</ele><time>2026-05-01T08:04:15.769Z</time></trkpt><trkpt lat="39.6036844" lon="8.5267326"><ele>301.6666666666667</ele><time>2026-05-01T08:04:16.769Z</time></trkpt><trkpt lat="39.6036069" lon="8.5267164"><ele>302.0</ele><time>2026-05-01T08:04:17.77Z</time></trkpt><trkpt lat="39.6035263" lon="8.5266555"><ele>302.0</ele><time>2026-05-01T08:04:18.769Z</time></trkpt><trkpt lat="39.6034285" lon="8.5265792"><ele>302.0</ele><time>2026-05-01T08:04:19.77Z</time></trkpt><trkpt lat="39.603312" lon="8.5265319"><ele>302.0</ele><time>2026-05-01T08:04:20.77Z</time></trkpt><trkpt lat="39.6031942" lon="8.5264915"><ele>302.0</ele><time>2026-05-01T08:04:21.769Z</time></trkpt><trkpt lat="39.6030666" lon="8.5264559"><ele>302.0</ele><time>2026-05-01T08:04:22.769Z</time></trkpt><trkpt lat="39.6029437" lon="8.5264329"><ele>302.0</ele><time>2026-05-01T08:04:23.769Z</time></trkpt><trkpt lat="39.6028144" lon="8.526448"><ele>302.0</ele><time>2026-05-01T08:04:24.77Z</time></trkpt><trkpt lat="39.6026823" lon="8.5265064"><ele>302.0</ele><time>2026-05-01T08:04:25.768Z</time></trkpt><trkpt lat="39.602549" lon="8.5265804"><ele>301.6666666666667</ele><time>2026-05-01T08:04:26.77Z</time></trkpt><trkpt lat="39.6024092" lon="8.5266552"><ele>301.3333333333333</ele><time>2026-05-01T08:04:27.769Z</time></trkpt><trkpt lat="39.6022677" lon="8.5267312"><ele>301.0</ele><time>2026-05-01T08:04:28.769Z</time></trkpt><trkpt lat="39.6021289" lon="8.5268052"><ele>302.5</ele><time>2026-05-01T08:04:29.77Z</time></trkpt><trkpt lat="39.6019885" lon="8.5268706"><ele>304.0</ele><time>2026-05-01T08:04:30.769Z</time></trkpt><trkpt lat="39.6018624" lon="8.5269267"><ele>305.5</ele><time>2026-05-01T08:04:31.77Z</time></trkpt><trkpt lat="39.6017512" lon="8.5269898"><ele>307.0</ele><time>2026-05-01T08:04:32.77Z</time></trkpt><trkpt lat="39.6016558" lon="8.5270811"><ele>307.0</ele><time>2026-05-01T08:04:33.769Z</time></trkpt><trkpt lat="39.6015792" lon="8.5272182"><ele>307.0</ele><time>2026-05-01T08:04:34.768Z</time></trkpt><trkpt lat="39.6015097" lon="8.5273685"><ele>307.0</ele><time>2026-05-01T08:04:35.77Z</time></trkpt><trkpt lat="39.6014427" lon="8.527528"><ele>307.0</ele><time>2026-05-01T08:04:36.769Z</time></trkpt><trkpt lat="39.6013782" lon="8.5276998"><ele>307.0</ele><time>2026-05-01T08:04:37.769Z</time></trkpt><trkpt lat="39.6013126" lon="8.5278669"><ele>307.0</ele><time>2026-05-01T08:04:38.769Z</time></trkpt><trkpt lat="39.6012334" lon="8.5280188"><ele>307.0</ele><time>2026-05-01T08:04:39.77Z</time></trkpt><trkpt lat="39.6011298" lon="8.5281489"><ele>307.0</ele><time>2026-05-01T08:04:40.769Z</time></trkpt><trkpt lat="39.6010173" lon="8.528268"><ele>306.5</ele><time>2026-05-01T08:04:41.769Z</time></trkpt><trkpt lat="39.6008972" lon="8.5283787"><ele>306.0</ele><time>2026-05-01T08:04:42.769Z</time></trkpt><trkpt lat="39.6007715" lon="8.528473"><ele>305.5</ele><time>2026-05-01T08:04:43.769Z</time></trkpt><trkpt lat="39.6006519" lon="8.5285456"><ele>305.0</ele><time>2026-05-01T08:04:44.769Z</time></trkpt><trkpt lat="39.6005462" lon="8.5286157"><ele>305.0</ele><time>2026-05-01T08:04:45.768Z</time></trkpt><trkpt lat="39.6004535" lon="8.5286971"><ele>305.0</ele><time>2026-05-01T08:04:46.769Z</time></trkpt><trkpt lat="39.6003777" lon="8.5287895"><ele>305.0</ele><time>2026-05-01T08:04:47.768Z</time></trkpt><trkpt lat="39.6003177" lon="8.5289102"><ele>305.0</ele><time>2026-05-01T08:04:48.769Z</time></trkpt><trkpt lat="39.6002763" lon="8.5290587"><ele>305.0</ele><time>2026-05-01T08:04:49.769Z</time></trkpt><trkpt lat="39.6002403" lon="8.5292159"><ele>304.0</ele><time>2026-05-01T08:04:50.77Z</time></trkpt><trkpt lat="39.6002041" lon="8.5293831"><ele>303.0</ele><time>2026-05-01T08:04:51.769Z</time></trkpt><trkpt lat="39.6001649" lon="8.5295526"><ele>302.0</ele><time>2026-05-01T08:04:52.77Z</time></trkpt><trkpt lat="39.600122" lon="8.5297277"><ele>301.0</ele><time>2026-05-01T08:04:53.77Z</time></trkpt><trkpt lat="39.6000792" lon="8.5299054"><ele>301.0</ele><time>2026-05-01T08:04:54.77Z</time></trkpt><trkpt lat="39.6000355" lon="8.5300786"><ele>301.0</ele><time>2026-05-01T08:04:55.77Z</time></trkpt><trkpt lat="39.5999883" lon="8.5302499"><ele>301.0</ele><time>2026-05-01T08:04:56.769Z</time></trkpt><trkpt lat="39.5999427" lon="8.5304221"><ele>301.0</ele><time>2026-05-01T08:04:57.769Z</time></trkpt><trkpt lat="39.5999001" lon="8.5305912"><ele>302.25</ele><time>2026-05-01T08:04:58.768Z</time></trkpt><trkpt lat="39.5998571" lon="8.5307584"><ele>303.5</ele><time>2026-05-01T08:04:59.769Z</time></trkpt><trkpt lat="39.5998114" lon="8.5309231"><ele>304.75</ele><time>2026-05-01T08:05:00.768Z</time></trkpt><trkpt lat="39.5997694" lon="8.5310781"><ele>306.0</ele><time>2026-05-01T08:05:01.769Z</time></trkpt><trkpt lat="39.5997293" lon="8.5312164"><ele>306.0</ele><time>2026-05-01T08:05:02.769Z</time></trkpt><trkpt lat="39.599682" lon="8.5313388"><ele>306.0</ele><time>2026-05-01T08:05:03.769Z</time></trkpt><trkpt lat="39.5996101" lon="8.5314252"><ele>306.0</ele><time>2026-05-01T08:05:04.769Z</time></trkpt><trkpt lat="39.5995143" lon="8.5314981"><ele>306.0</ele><time>2026-05-01T08:05:05.769Z</time></trkpt><trkpt lat="39.5994008" lon="8.5315465"><ele>306.0</ele><time>2026-05-01T08:05:06.77Z</time></trkpt><trkpt lat="39.5992821" lon="8.5315856"><ele>306.0</ele><time>2026-05-01T08:05:07.769Z</time></trkpt><trkpt lat="39.5991448" lon="8.5316255"><ele>306.0</ele><time>2026-05-01T08:05:08.769Z</time></trkpt><trkpt lat="39.599006" lon="8.5316652"><ele>306.0</ele><time>2026-05-01T08:05:09.768Z</time></trkpt><trkpt lat="39.5988679" lon="8.5317115"><ele>306.0</ele><time>2026-05-01T08:05:10.769Z</time></trkpt><trkpt lat="39.5987322" lon="8.5317545"><ele>305.0</ele><time>2026-05-01T08:05:11.77Z</time></trkpt><trkpt lat="39.5985956" lon="8.5317998"><ele>304.0</ele><time>2026-05-01T08:05:12.769Z</time></trkpt><trkpt lat="39.5984744" lon="8.5318481"><ele>303.0</ele><time>2026-05-01T08:05:13.769Z</time></trkpt><trkpt lat="39.598362" lon="8.531938"><ele>302.0</ele><time>2026-05-01T08:05:14.771Z</time></trkpt><trkpt lat="39.5982565" lon="8.5320579"><ele>305.75</ele><time>2026-05-01T08:05:15.768Z</time></trkpt><trkpt lat="39.5981554" lon="8.5321893"><ele>309.5</ele><time>2026-05-01T08:05:16.769Z</time></trkpt><trkpt lat="39.598053" lon="8.5323223"><ele>313.25</ele><time>2026-05-01T08:05:17.77Z</time></trkpt><trkpt lat="39.5979559" lon="8.5324489"><ele>317.0</ele><time>2026-05-01T08:05:18.769Z</time></trkpt><trkpt lat="39.5978615" lon="8.5325601"><ele>315.0</ele><time>2026-05-01T08:05:19.77Z</time></trkpt><trkpt lat="39.5977688" lon="8.5326488"><ele>313.0</ele><time>2026-05-01T08:05:20.77Z</time></trkpt><trkpt lat="39.5976791" lon="8.5326917"><ele>311.0</ele><time>2026-05-01T08:05:21.77Z</time></trkpt><trkpt lat="39.5975883" lon="8.5326755"><ele>309.0</ele><time>2026-05-01T08:05:22.77Z</time></trkpt><trkpt lat="39.5975039" lon="8.5326154"><ele>307.0</ele><time>2026-05-01T08:05:23.769Z</time></trkpt><trkpt lat="39.5974387" lon="8.532493"><ele>307.0</ele><time>2026-05-01T08:05:24.77Z</time></trkpt><trkpt lat="39.5973892" lon="8.5323484"><ele>307.0</ele><time>2026-05-01T08:05:25.768Z</time></trkpt><trkpt lat="39.5973146" lon="8.5322033"><ele>307.0</ele><time>2026-05-01T08:05:26.768Z</time></trkpt><trkpt lat="39.5972187" lon="8.5320753"><ele>307.0</ele><time>2026-05-01T08:05:27.769Z</time></trkpt><trkpt lat="39.5971075" lon="8.5319606"><ele>307.25</ele><time>2026-05-01T08:05:28.769Z</time></trkpt><trkpt lat="39.5969964" lon="8.5318409"><ele>307.5</ele><time>2026-05-01T08:05:29.769Z</time></trkpt><trkpt lat="39.5968985" lon="8.5317023"><ele>307.75</ele><time>2026-05-01T08:05:30.768Z</time></trkpt><trkpt lat="39.5968203" lon="8.5315453"><ele>308.0</ele><time>2026-05-01T08:05:31.77Z</time></trkpt><trkpt lat="39.596738" lon="8.5313971"><ele>308.0</ele><time>2026-05-01T08:05:32.77Z</time></trkpt><trkpt lat="39.5966331" lon="8.5312688"><ele>308.0</ele><time>2026-05-01T08:05:33.769Z</time></trkpt><trkpt lat="39.5965113" lon="8.5311649"><ele>308.0</ele><time>2026-05-01T08:05:34.77Z</time></trkpt><trkpt lat="39.5963896" lon="8.5310663"><ele>308.0</ele><time>2026-05-01T08:05:35.77Z</time></trkpt><trkpt lat="39.5962749" lon="8.5309773"><ele>305.75</ele><time>2026-05-01T08:05:36.769Z</time></trkpt><trkpt lat="39.5961685" lon="8.5308945"><ele>303.5</ele><time>2026-05-01T08:05:37.769Z</time></trkpt><trkpt lat="39.5960668" lon="8.5308394"><ele>301.25</ele><time>2026-05-01T08:05:38.769Z</time></trkpt><trkpt lat="39.5959498" lon="8.5308305"><ele>299.0</ele><time>2026-05-01T08:05:39.769Z</time></trkpt><trkpt lat="39.595819" lon="8.5308609"><ele>299.0</ele><time>2026-05-01T08:05:40.77Z</time></trkpt><trkpt lat="39.5956852" lon="8.5309052"><ele>299.0</ele><time>2026-05-01T08:05:41.768Z</time></trkpt><trkpt lat="39.5955472" lon="8.5309517"><ele>299.0</ele><time>2026-05-01T08:05:42.769Z</time></trkpt><trkpt lat="39.5954075" lon="8.5309983"><ele>299.0</ele><time>2026-05-01T08:05:43.768Z</time></trkpt><trkpt lat="39.5952722" lon="8.5310566"><ele>301.0</ele><time>2026-05-01T08:05:44.769Z</time></trkpt><trkpt lat="39.5951419" lon="8.5311344"><ele>303.0</ele><time>2026-05-01T08:05:45.769Z</time></trkpt><trkpt lat="39.5950152" lon="8.5312275"><ele>305.0</ele><time>2026-05-01T08:05:46.77Z</time></trkpt><trkpt lat="39.5949015" lon="8.5313462"><ele>307.0</ele><time>2026-05-01T08:05:47.769Z</time></trkpt><trkpt lat="39.5947937" lon="8.5314878"><ele>307.0</ele><time>2026-05-01T08:05:48.769Z</time></trkpt><trkpt lat="39.5946941" lon="8.5316463"><ele>307.0</ele><time>2026-05-01T08:05:49.768Z</time></trkpt><trkpt lat="39.5945989" lon="8.5318022"><ele>307.0</ele><time>2026-05-01T08:05:50.77Z</time></trkpt><trkpt lat="39.5945072" lon="8.5319595"><ele>305.5</ele><time>2026-05-01T08:05:51.769Z</time></trkpt><trkpt lat="39.5944193" lon="8.5321153"><ele>304.0</ele><time>2026-05-01T08:05:52.768Z</time></trkpt><trkpt lat="39.5943431" lon="8.5322534"><ele>302.5</ele><time>2026-05-01T08:05:53.769Z</time></trkpt><trkpt lat="39.594271" lon="8.5323664"><ele>301.0</ele><time>2026-05-01T08:05:54.768Z</time></trkpt><trkpt lat="39.5941907" lon="8.5324432"><ele>301.0</ele><time>2026-05-01T08:05:55.77Z</time></trkpt><trkpt lat="39.5941099" lon="8.5324783"><ele>301.0</ele><time>2026-05-01T08:05:56.768Z</time></trkpt><trkpt lat="39.5940345" lon="8.5324664"><ele>301.0</ele><time>2026-05-01T08:05:57.769Z</time></trkpt><trkpt lat="39.5939658" lon="8.5324023"><ele>301.0</ele><time>2026-05-01T08:05:58.768Z</time></trkpt><trkpt lat="39.5939043" lon="8.532291"><ele>301.0</ele><time>2026-05-01T08:05:59.769Z</time></trkpt><trkpt lat="39.5938422" lon="8.5321584"><ele>302.0</ele><time>2026-05-01T08:06:00.769Z</time></trkpt><trkpt lat="39.5937722" lon="8.5320097"><ele>303.0</ele><time>2026-05-01T08:06:01.77Z</time></trkpt><trkpt lat="39.5937004" lon="8.5318478"><ele>304.0</ele><time>2026-05-01T08:06:02.77Z</time></trkpt><trkpt lat="39.5936322" lon="8.5316806"><ele>305.0</ele><time>2026-05-01T08:06:03.77Z</time></trkpt><trkpt lat="39.5935692" lon="8.5315048"><ele>305.0</ele><time>2026-05-01T08:06:04.77Z</time></trkpt><trkpt lat="39.5935289" lon="8.5313238"><ele>305.0</ele><time>2026-05-01T08:06:05.769Z</time></trkpt><trkpt lat="39.5934939" lon="8.5311387"><ele>305.0</ele><time>2026-05-01T08:06:06.769Z</time></trkpt><trkpt lat="39.5934496" lon="8.5309584"><ele>305.0</ele><time>2026-05-01T08:06:07.769Z</time></trkpt><trkpt lat="39.5933876" lon="8.530793"><ele>303.0</ele><time>2026-05-01T08:06:08.768Z</time></trkpt><trkpt lat="39.5933059" lon="8.5306559"><ele>301.0</ele><time>2026-05-01T08:06:09.77Z</time></trkpt><trkpt lat="39.5932254" lon="8.5305325"><ele>299.0</ele><time>2026-05-01T08:06:10.77Z</time></trkpt><trkpt lat="39.5931636" lon="8.5303993"><ele>297.0</ele><time>2026-05-01T08:06:11.769Z</time></trkpt><trkpt lat="39.593135" lon="8.5302361"><ele>295.0</ele><time>2026-05-01T08:06:12.77Z</time></trkpt><trkpt lat="39.5931246" lon="8.5300589"><ele>293.0</ele><time>2026-05-01T08:06:13.768Z</time></trkpt><trkpt lat="39.5931113" lon="8.5298867"><ele>291.0</ele><time>2026-05-01T08:06:14.768Z</time></trkpt><trkpt lat="39.5930656" lon="8.5297127"><ele>289.0</ele><time>2026-05-01T08:06:15.768Z</time></trkpt><trkpt lat="39.5929913" lon="8.5295447"><ele>288.25</ele><time>2026-05-01T08:06:16.769Z</time></trkpt><trkpt lat="39.5929048" lon="8.5293832"><ele>287.5</ele><time>2026-05-01T08:06:17.769Z</time></trkpt><trkpt lat="39.5928205" lon="8.5292288"><ele>286.75</ele><time>2026-05-01T08:06:18.768Z</time></trkpt><trkpt lat="39.5927336" lon="8.5290879"><ele>286.0</ele><time>2026-05-01T08:06:19.769Z</time></trkpt><trkpt lat="39.5926505" lon="8.5289701"><ele>290.5</ele><time>2026-05-01T08:06:20.77Z</time></trkpt><trkpt lat="39.5925517" lon="8.5288802"><ele>295.0</ele><time>2026-05-01T08:06:21.768Z</time></trkpt><trkpt lat="39.592432" lon="8.5288188"><ele>299.5</ele><time>2026-05-01T08:06:22.77Z</time></trkpt><trkpt lat="39.5923027" lon="8.528802"><ele>304.0</ele><time>2026-05-01T08:06:23.77Z</time></trkpt><trkpt lat="39.5921659" lon="8.5288155"><ele>304.0</ele><time>2026-05-01T08:06:24.768Z</time></trkpt><trkpt lat="39.5920249" lon="8.5288376"><ele>304.0</ele><time>2026-05-01T08:06:25.768Z</time></trkpt><trkpt lat="39.5918822" lon="8.5288639"><ele>304.0</ele><time>2026-05-01T08:06:26.77Z</time></trkpt><trkpt lat="39.5917317" lon="8.528894"><ele>304.0</ele><time>2026-05-01T08:06:27.768Z</time></trkpt><trkpt lat="39.5915837" lon="8.5289158"><ele>304.75</ele><time>2026-05-01T08:06:28.769Z</time></trkpt><trkpt lat="39.5914342" lon="8.5289355"><ele>305.5</ele><time>2026-05-01T08:06:29.769Z</time></trkpt><trkpt lat="39.5912916" lon="8.5289532"><ele>306.25</ele><time>2026-05-01T08:06:30.769Z</time></trkpt><trkpt lat="39.5911487" lon="8.5289674"><ele>307.0</ele><time>2026-05-01T08:06:31.768Z</time></trkpt><trkpt lat="39.5910115" lon="8.5289604"><ele>308.5</ele><time>2026-05-01T08:06:32.769Z</time></trkpt><trkpt lat="39.5908829" lon="8.5289298"><ele>310.0</ele><time>2026-05-01T08:06:33.77Z</time></trkpt><trkpt lat="39.5907635" lon="8.5288899"><ele>311.5</ele><time>2026-05-01T08:06:34.769Z</time></trkpt><trkpt lat="39.5906463" lon="8.5288767"><ele>313.0</ele><time>2026-05-01T08:06:35.768Z</time></trkpt><trkpt lat="39.5905242" lon="8.5288901"><ele>313.0</ele><time>2026-05-01T08:06:36.77Z</time></trkpt><trkpt lat="39.5903978" lon="8.5289373"><ele>313.0</ele><time>2026-05-01T08:06:37.769Z</time></trkpt><trkpt lat="39.5902723" lon="8.5290088"><ele>313.0</ele><time>2026-05-01T08:06:38.769Z</time></trkpt><trkpt lat="39.5901414" lon="8.5290876"><ele>313.0</ele><time>2026-05-01T08:06:39.77Z</time></trkpt><trkpt lat="39.5900031" lon="8.5291768"><ele>311.3333333333333</ele><time>2026-05-01T08:06:40.769Z</time></trkpt><trkpt lat="39.5898631" lon="8.5292666"><ele>309.6666666666667</ele><time>2026-05-01T08:06:41.77Z</time></trkpt><trkpt lat="39.5897238" lon="8.5293585"><ele>308.0</ele><time>2026-05-01T08:06:42.768Z</time></trkpt><trkpt lat="39.5895836" lon="8.5294524"><ele>307.75</ele><time>2026-05-01T08:06:43.769Z</time></trkpt><trkpt lat="39.5894513" lon="8.5295424"><ele>307.5</ele><time>2026-05-01T08:06:44.769Z</time></trkpt><trkpt lat="39.5893339" lon="8.5296127"><ele>307.25</ele><time>2026-05-01T08:06:45.769Z</time></trkpt><trkpt lat="39.5892282" lon="8.5296837"><ele>307.0</ele><time>2026-05-01T08:06:46.769Z</time></trkpt><trkpt lat="39.5891426" lon="8.5297815"><ele>307.0</ele><time>2026-05-01T08:06:47.768Z</time></trkpt><trkpt lat="39.5890746" lon="8.5299169"><ele>307.0</ele><time>2026-05-01T08:06:48.77Z</time></trkpt><trkpt lat="39.5890249" lon="8.5300713"><ele>307.0</ele><time>2026-05-01T08:06:49.768Z</time></trkpt><trkpt lat="39.5889991" lon="8.5302478"><ele>307.0</ele><time>2026-05-01T08:06:50.769Z</time></trkpt><trkpt lat="39.5889732" lon="8.5304234"><ele>307.5</ele><time>2026-05-01T08:06:51.77Z</time></trkpt><trkpt lat="39.5889486" lon="8.5306022"><ele>308.0</ele><time>2026-05-01T08:06:52.768Z</time></trkpt><trkpt lat="39.5889171" lon="8.5307795"><ele>308.5</ele><time>2026-05-01T08:06:53.77Z</time></trkpt><trkpt lat="39.5888686" lon="8.5309477"><ele>309.0</ele><time>2026-05-01T08:06:54.769Z</time></trkpt><trkpt lat="39.5887957" lon="8.5311075"><ele>311.0</ele><time>2026-05-01T08:06:55.769Z</time></trkpt><trkpt lat="39.588708" lon="8.5312584"><ele>313.0</ele><time>2026-05-01T08:06:56.77Z</time></trkpt><trkpt lat="39.5886161" lon="8.5314061"><ele>315.0</ele><time>2026-05-01T08:06:57.769Z</time></trkpt><trkpt lat="39.5885333" lon="8.531561"><ele>317.0</ele><time>2026-05-01T08:06:58.768Z</time></trkpt><trkpt lat="39.5884726" lon="8.5317209"><ele>314.2</ele><time>2026-05-01T08:06:59.77Z</time></trkpt><trkpt lat="39.588428" lon="8.5318655"><ele>311.4</ele><time>2026-05-01T08:07:00.77Z</time></trkpt><trkpt lat="39.58838" lon="8.5319837"><ele>308.6</ele><time>2026-05-01T08:07:01.768Z</time></trkpt><trkpt lat="39.5883135" lon="8.5320607"><ele>305.8</ele><time>2026-05-01T08:07:02.769Z</time></trkpt><trkpt lat="39.5882349" lon="8.5320931"><ele>303.0</ele><time>2026-05-01T08:07:03.77Z</time></trkpt><trkpt lat="39.5881554" lon="8.5320723"><ele>301.25</ele><time>2026-05-01T08:07:04.769Z</time></trkpt><trkpt lat="39.5880778" lon="8.5320029"><ele>299.5</ele><time>2026-05-01T08:07:05.77Z</time></trkpt><trkpt lat="39.5880163" lon="8.5318734"><ele>297.75</ele><time>2026-05-01T08:07:06.769Z</time></trkpt><trkpt lat="39.587947" lon="8.5317378"><ele>296.0</ele><time>2026-05-01T08:07:07.768Z</time></trkpt><trkpt lat="39.5878544" lon="8.5316149"><ele>296.75</ele><time>2026-05-01T08:07:08.77Z</time></trkpt><trkpt lat="39.5877537" lon="8.5314979"><ele>297.5</ele><time>2026-05-01T08:07:09.769Z</time></trkpt><trkpt lat="39.5876514" lon="8.5313866"><ele>298.25</ele><time>2026-05-01T08:07:10.769Z</time></trkpt><trkpt lat="39.5875516" lon="8.5312933"><ele>299.0</ele><time>2026-05-01T08:07:11.768Z</time></trkpt><trkpt lat="39.5874293" lon="8.5312276"><ele>296.75</ele><time>2026-05-01T08:07:12.769Z</time></trkpt><trkpt lat="39.5872925" lon="8.5311893"><ele>294.5</ele><time>2026-05-01T08:07:13.77Z</time></trkpt><trkpt lat="39.5871481" lon="8.5311607"><ele>292.25</ele><time>2026-05-01T08:07:14.769Z</time></trkpt><trkpt lat="39.5869997" lon="8.5311276"><ele>290.0</ele><time>2026-05-01T08:07:15.768Z</time></trkpt><trkpt lat="39.5868473" lon="8.5310876"><ele>290.0</ele><time>2026-05-01T08:07:16.77Z</time></trkpt><trkpt lat="39.5866916" lon="8.5310511"><ele>290.0</ele><time>2026-05-01T08:07:17.77Z</time></trkpt><trkpt lat="39.5865403" lon="8.5310133"><ele>290.0</ele><time>2026-05-01T08:07:18.769Z</time></trkpt><trkpt lat="39.586395" lon="8.5309828"><ele>290.0</ele><time>2026-05-01T08:07:19.768Z</time></trkpt><trkpt lat="39.5862506" lon="8.530968"><ele>290.0</ele><time>2026-05-01T08:07:20.769Z</time></trkpt><trkpt lat="39.5861068" lon="8.5309905"><ele>290.0</ele><time>2026-05-01T08:07:21.769Z</time></trkpt><trkpt lat="39.5859616" lon="8.5310616"><ele>290.0</ele><time>2026-05-01T08:07:22.769Z</time></trkpt><trkpt lat="39.5858214" lon="8.5311139"><ele>291.5</ele><time>2026-05-01T08:07:23.77Z</time></trkpt><trkpt lat="39.585676" lon="8.5311591"><ele>293.0</ele><time>2026-05-01T08:07:24.769Z</time></trkpt><trkpt lat="39.5855358" lon="8.5311889"><ele>294.5</ele><time>2026-05-01T08:07:25.768Z</time></trkpt><trkpt lat="39.5854014" lon="8.5312185"><ele>296.0</ele><time>2026-05-01T08:07:26.768Z</time></trkpt><trkpt lat="39.5852744" lon="8.5312508"><ele>298.0</ele><time>2026-05-01T08:07:27.769Z</time></trkpt><trkpt lat="39.5851526" lon="8.5312962"><ele>300.0</ele><time>2026-05-01T08:07:28.769Z</time></trkpt><trkpt lat="39.5850295" lon="8.5313611"><ele>302.0</ele><time>2026-05-01T08:07:29.768Z</time></trkpt><trkpt lat="39.5849035" lon="8.5314376"><ele>304.0</ele><time>2026-05-01T08:07:30.769Z</time></trkpt><trkpt lat="39.5847774" lon="8.5315232"><ele>304.0</ele><time>2026-05-01T08:07:31.768Z</time></trkpt><trkpt lat="39.5846539" lon="8.5316273"><ele>304.0</ele><time>2026-05-01T08:07:32.77Z</time></trkpt><trkpt lat="39.5845358" lon="8.5317526"><ele>304.0</ele><time>2026-05-01T08:07:33.769Z</time></trkpt><trkpt lat="39.5844145" lon="8.5318868"><ele>304.0</ele><time>2026-05-01T08:07:34.77Z</time></trkpt><trkpt lat="39.5842946" lon="8.531981"><ele>304.0</ele><time>2026-05-01T08:07:35.77Z</time></trkpt><trkpt lat="39.5841641" lon="8.5320411"><ele>304.0</ele><time>2026-05-01T08:07:36.769Z</time></trkpt><trkpt lat="39.584027" lon="8.5320742"><ele>304.0</ele><time>2026-05-01T08:07:37.768Z</time></trkpt><trkpt lat="39.5838959" lon="8.5321107"><ele>304.0</ele><time>2026-05-01T08:07:38.77Z</time></trkpt><trkpt lat="39.5837708" lon="8.5321713"><ele>304.0</ele><time>2026-05-01T08:07:39.769Z</time></trkpt><trkpt lat="39.5836583" lon="8.532265"><ele>304.0</ele><time>2026-05-01T08:07:40.769Z</time></trkpt><trkpt lat="39.5835626" lon="8.5323956"><ele>304.0</ele><time>2026-05-01T08:07:41.768Z</time></trkpt><trkpt lat="39.5834788" lon="8.5325472"><ele>305.0</ele><time>2026-05-01T08:07:42.768Z</time></trkpt><trkpt lat="39.5833997" lon="8.5327111"><ele>306.0</ele><time>2026-05-01T08:07:43.77Z</time></trkpt><trkpt lat="39.5833078" lon="8.532857"><ele>307.0</ele><time>2026-05-01T08:07:44.769Z</time></trkpt><trkpt lat="39.5832108" lon="8.5329702"><ele>308.0</ele><time>2026-05-01T08:07:45.768Z</time></trkpt><trkpt lat="39.5831197" lon="8.5330909"><ele>308.0</ele><time>2026-05-01T08:07:46.77Z</time></trkpt><trkpt lat="39.5830506" lon="8.5332307"><ele>308.0</ele><time>2026-05-01T08:07:47.768Z</time></trkpt><trkpt lat="39.5830102" lon="8.5333965"><ele>308.0</ele><time>2026-05-01T08:07:48.769Z</time></trkpt><trkpt lat="39.5829848" lon="8.533571"><ele>308.0</ele><time>2026-05-01T08:07:49.769Z</time></trkpt><trkpt lat="39.5829603" lon="8.533743"><ele>307.4</ele><time>2026-05-01T08:07:50.769Z</time></trkpt><trkpt lat="39.5829255" lon="8.5338983"><ele>306.8</ele><time>2026-05-01T08:07:51.77Z</time></trkpt><trkpt lat="39.5828763" lon="8.5340195"><ele>306.2</ele><time>2026-05-01T08:07:52.768Z</time></trkpt><trkpt lat="39.5828122" lon="8.5341124"><ele>305.6</ele><time>2026-05-01T08:07:53.77Z</time></trkpt><trkpt lat="39.5827405" lon="8.5341616"><ele>305.0</ele><time>2026-05-01T08:07:54.769Z</time></trkpt><trkpt lat="39.5826641" lon="8.5341827"><ele>305.0</ele><time>2026-05-01T08:07:55.77Z</time></trkpt><trkpt lat="39.582584" lon="8.5341551"><ele>305.0</ele><time>2026-05-01T08:07:56.769Z</time></trkpt><trkpt lat="39.5825103" lon="8.5340818"><ele>305.0</ele><time>2026-05-01T08:07:57.768Z</time></trkpt><trkpt lat="39.5824615" lon="8.5339851"><ele>305.0</ele><time>2026-05-01T08:07:58.77Z</time></trkpt><trkpt lat="39.5824149" lon="8.5338575"><ele>305.0</ele><time>2026-05-01T08:07:59.77Z</time></trkpt><trkpt lat="39.5823461" lon="8.5337359"><ele>303.25</ele><time>2026-05-01T08:08:00.769Z</time></trkpt><trkpt lat="39.5822561" lon="8.5336177"><ele>301.5</ele><time>2026-05-01T08:08:01.769Z</time></trkpt><trkpt lat="39.5821621" lon="8.5334979"><ele>299.75</ele><time>2026-05-01T08:08:02.769Z</time></trkpt><trkpt lat="39.5820846" lon="8.533357"><ele>298.0</ele><time>2026-05-01T08:08:03.769Z</time></trkpt><trkpt lat="39.5820258" lon="8.5331985"><ele>298.0</ele><time>2026-05-01T08:08:04.769Z</time></trkpt><trkpt lat="39.5819796" lon="8.5330374"><ele>298.0</ele><time>2026-05-01T08:08:05.768Z</time></trkpt><trkpt lat="39.5819346" lon="8.5328836"><ele>298.0</ele><time>2026-05-01T08:08:06.769Z</time></trkpt><trkpt lat="39.5818885" lon="8.532754"><ele>298.0</ele><time>2026-05-01T08:08:07.768Z</time></trkpt><trkpt lat="39.5818266" lon="8.5326474"><ele>298.0</ele><time>2026-05-01T08:08:08.77Z</time></trkpt><trkpt lat="39.5817397" lon="8.5325721"><ele>298.0</ele><time>2026-05-01T08:08:09.769Z</time></trkpt><trkpt lat="39.581642" lon="8.532536"><ele>298.0</ele><time>2026-05-01T08:08:10.77Z</time></trkpt><trkpt lat="39.5815435" lon="8.5325585"><ele>298.0</ele><time>2026-05-01T08:08:11.77Z</time></trkpt><trkpt lat="39.5814627" lon="8.5326258"><ele>298.0</ele><time>2026-05-01T08:08:12.769Z</time></trkpt><trkpt lat="39.581397" lon="8.5327434"><ele>298.0</ele><time>2026-05-01T08:08:13.769Z</time></trkpt><trkpt lat="39.5813485" lon="8.5328882"><ele>298.0</ele><time>2026-05-01T08:08:14.769Z</time></trkpt><trkpt lat="39.5812999" lon="8.5330464"><ele>298.0</ele><time>2026-05-01T08:08:15.77Z</time></trkpt><trkpt lat="39.5812484" lon="8.5332106"><ele>298.0</ele><time>2026-05-01T08:08:16.768Z</time></trkpt><trkpt lat="39.5812059" lon="8.5333816"><ele>300.0</ele><time>2026-05-01T08:08:17.77Z</time></trkpt><trkpt lat="39.5811899" lon="8.5335673"><ele>302.0</ele><time>2026-05-01T08:08:18.77Z</time></trkpt><trkpt lat="39.5811809" lon="8.5337505"><ele>304.0</ele><time>2026-05-01T08:08:19.769Z</time></trkpt><trkpt lat="39.5811537" lon="8.5339484"><ele>306.0</ele><time>2026-05-01T08:08:20.768Z</time></trkpt><trkpt lat="39.581136" lon="8.5341435"><ele>304.75</ele><time>2026-05-01T08:08:21.768Z</time></trkpt><trkpt lat="39.581134" lon="8.5343255"><ele>303.5</ele><time>2026-05-01T08:08:22.768Z</time></trkpt><trkpt lat="39.5811397" lon="8.5344966"><ele>302.25</ele><time>2026-05-01T08:08:23.768Z</time></trkpt><trkpt lat="39.5811728" lon="8.5346493"><ele>301.0</ele><time>2026-05-01T08:08:24.769Z</time></trkpt><trkpt lat="39.581235" lon="8.5347708"><ele>301.0</ele><time>2026-05-01T08:08:25.768Z</time></trkpt><trkpt lat="39.5813104" lon="8.5348645"><ele>301.0</ele><time>2026-05-01T08:08:26.769Z</time></trkpt><trkpt lat="39.5813689" lon="8.5349513"><ele>301.0</ele><time>2026-05-01T08:08:27.769Z</time></trkpt><trkpt lat="39.5813914" lon="8.5350488"><ele>301.0</ele><time>2026-05-01T08:08:28.768Z</time></trkpt><trkpt lat="39.5813735" lon="8.5351501"><ele>301.0</ele><time>2026-05-01T08:08:29.77Z</time></trkpt><trkpt lat="39.5813123" lon="8.5352605"><ele>301.0</ele><time>2026-05-01T08:08:30.769Z</time></trkpt><trkpt lat="39.5812448" lon="8.5353754"><ele>301.0</ele><time>2026-05-01T08:08:31.77Z</time></trkpt><trkpt lat="39.5811773" lon="8.5355009"><ele>301.0</ele><time>2026-05-01T08:08:32.769Z</time></trkpt><trkpt lat="39.5811044" lon="8.5356271"><ele>301.0</ele><time>2026-05-01T08:08:33.768Z</time></trkpt><trkpt lat="39.5810366" lon="8.535741"><ele>295.75</ele><time>2026-05-01T08:08:34.769Z</time></trkpt><trkpt lat="39.580989" lon="8.5358516"><ele>290.5</ele><time>2026-05-01T08:08:35.769Z</time></trkpt><trkpt lat="39.5809742" lon="8.5359807"><ele>285.25</ele><time>2026-05-01T08:08:36.768Z</time></trkpt><trkpt lat="39.5809944" lon="8.5361355"><ele>280.0</ele><time>2026-05-01T08:08:37.769Z</time></trkpt><trkpt lat="39.5810213" lon="8.5363044"><ele>278.5</ele><time>2026-05-01T08:08:38.768Z</time></trkpt><trkpt lat="39.5810405" lon="8.536481"><ele>277.0</ele><time>2026-05-01T08:08:39.77Z</time></trkpt><trkpt lat="39.5810505" lon="8.5366626"><ele>275.5</ele><time>2026-05-01T08:08:40.768Z</time></trkpt><trkpt lat="39.5810551" lon="8.5368429"><ele>274.0</ele><time>2026-05-01T08:08:41.769Z</time></trkpt><trkpt lat="39.5810635" lon="8.5370201"><ele>273.0</ele><time>2026-05-01T08:08:42.768Z</time></trkpt><trkpt lat="39.5810722" lon="8.5371992"><ele>272.0</ele><time>2026-05-01T08:08:43.77Z</time></trkpt><trkpt lat="39.581081" lon="8.5373788"><ele>271.0</ele><time>2026-05-01T08:08:44.769Z</time></trkpt><trkpt lat="39.5810928" lon="8.5375588"><ele>270.0</ele><time>2026-05-01T08:08:45.768Z</time></trkpt><trkpt lat="39.5811054" lon="8.5377362"><ele>268.5</ele><time>2026-05-01T08:08:46.768Z</time></trkpt><trkpt lat="39.5811202" lon="8.5379103"><ele>267.0</ele><time>2026-05-01T08:08:47.769Z</time></trkpt><trkpt lat="39.5811259" lon="8.5380866"><ele>265.5</ele><time>2026-05-01T08:08:48.768Z</time></trkpt><trkpt lat="39.5811253" lon="8.5382574"><ele>264.0</ele><time>2026-05-01T08:08:49.768Z</time></trkpt><trkpt lat="39.5811188" lon="8.5384215"><ele>264.0</ele><time>2026-05-01T08:08:50.769Z</time></trkpt><trkpt lat="39.5811017" lon="8.5385861"><ele>264.0</ele><time>2026-05-01T08:08:51.769Z</time></trkpt><trkpt lat="39.5810832" lon="8.5387524"><ele>264.0</ele><time>2026-05-01T08:08:52.768Z</time></trkpt><trkpt lat="39.5810671" lon="8.5389173"><ele>264.0</ele><time>2026-05-01T08:08:53.769Z</time></trkpt><trkpt lat="39.5810537" lon="8.5390791"><ele>263.25</ele><time>2026-05-01T08:08:54.769Z</time></trkpt><trkpt lat="39.5810382" lon="8.5392405"><ele>262.5</ele><time>2026-05-01T08:08:55.768Z</time></trkpt><trkpt lat="39.5810274" lon="8.5393981"><ele>261.75</ele><time>2026-05-01T08:08:56.768Z</time></trkpt><trkpt lat="39.5810193" lon="8.539549"><ele>261.0</ele><time>2026-05-01T08:08:57.769Z</time></trkpt><trkpt lat="39.5810125" lon="8.5396904"><ele>260.8</ele><time>2026-05-01T08:08:58.768Z</time></trkpt><trkpt lat="39.5810087" lon="8.5398267"><ele>260.6</ele><time>2026-05-01T08:08:59.77Z</time></trkpt><trkpt lat="39.5810052" lon="8.539961"><ele>260.4</ele><time>2026-05-01T08:09:00.77Z</time></trkpt><trkpt lat="39.5809957" lon="8.5400927"><ele>260.2</ele><time>2026-05-01T08:09:01.769Z</time></trkpt><trkpt lat="39.5809835" lon="8.5402258"><ele>260.0</ele><time>2026-05-01T08:09:02.768Z</time></trkpt><trkpt lat="39.5809758" lon="8.5403674"><ele>258.5</ele><time>2026-05-01T08:09:03.77Z</time></trkpt><trkpt lat="39.5809735" lon="8.5405142"><ele>257.0</ele><time>2026-05-01T08:09:04.769Z</time></trkpt><trkpt lat="39.5809765" lon="8.5406608"><ele>255.5</ele><time>2026-05-01T08:09:05.768Z</time></trkpt><trkpt lat="39.5809926" lon="8.5408065"><ele>254.0</ele><time>2026-05-01T08:09:06.768Z</time></trkpt><trkpt lat="39.5810124" lon="8.5409549"><ele>254.0</ele><time>2026-05-01T08:09:07.769Z</time></trkpt><trkpt lat="39.581036" lon="8.5411002"><ele>254.0</ele><time>2026-05-01T08:09:08.769Z</time></trkpt><trkpt lat="39.5810585" lon="8.5412432"><ele>254.0</ele><time>2026-05-01T08:09:09.768Z</time></trkpt><trkpt lat="39.581088" lon="8.5413863"><ele>254.0</ele><time>2026-05-01T08:09:10.768Z</time></trkpt><trkpt lat="39.5811288" lon="8.5415335"><ele>253.75</ele><time>2026-05-01T08:09:11.77Z</time></trkpt><trkpt lat="39.581188" lon="8.5416772"><ele>253.5</ele><time>2026-05-01T08:09:12.77Z</time></trkpt><trkpt lat="39.5812649" lon="8.5418089"><ele>253.25</ele><time>2026-05-01T08:09:13.77Z</time></trkpt><trkpt lat="39.5813523" lon="8.5419337"><ele>253.0</ele><time>2026-05-01T08:09:14.77Z</time></trkpt><trkpt lat="39.5814307" lon="8.5420537"><ele>253.0</ele><time>2026-05-01T08:09:15.769Z</time></trkpt><trkpt lat="39.5814954" lon="8.5421663"><ele>253.0</ele><time>2026-05-01T08:09:16.769Z</time></trkpt><trkpt lat="39.5815282" lon="8.5422837"><ele>253.0</ele><time>2026-05-01T08:09:17.769Z</time></trkpt><trkpt lat="39.5815219" lon="8.5424008"><ele>253.0</ele><time>2026-05-01T08:09:18.77Z</time></trkpt><trkpt lat="39.5814744" lon="8.5425123"><ele>253.0</ele><time>2026-05-01T08:09:19.769Z</time></trkpt><trkpt lat="39.581396" lon="8.5426069"><ele>253.0</ele><time>2026-05-01T08:09:20.77Z</time></trkpt><trkpt lat="39.5813107" lon="8.5426928"><ele>253.0</ele><time>2026-05-01T08:09:21.768Z</time></trkpt><trkpt lat="39.5812475" lon="8.5428025"><ele>253.0</ele><time>2026-05-01T08:09:22.769Z</time></trkpt><trkpt lat="39.5812045" lon="8.5429468"><ele>253.0</ele><time>2026-05-01T08:09:23.769Z</time></trkpt><trkpt lat="39.581173" lon="8.5431021"><ele>251.75</ele><time>2026-05-01T08:09:24.769Z</time></trkpt><trkpt lat="39.5811473" lon="8.5432671"><ele>250.5</ele><time>2026-05-01T08:09:25.769Z</time></trkpt><trkpt lat="39.5811224" lon="8.5434351"><ele>249.25</ele><time>2026-05-01T08:09:26.769Z</time></trkpt><trkpt lat="39.5810967" lon="8.5436048"><ele>248.0</ele><time>2026-05-01T08:09:27.77Z</time></trkpt><trkpt lat="39.5810618" lon="8.5437752"><ele>248.0</ele><time>2026-05-01T08:09:28.769Z</time></trkpt><trkpt lat="39.5810169" lon="8.5439461"><ele>248.0</ele><time>2026-05-01T08:09:29.768Z</time></trkpt><trkpt lat="39.5809527" lon="8.5441119"><ele>248.0</ele><time>2026-05-01T08:09:30.769Z</time></trkpt><trkpt lat="39.5808791" lon="8.5442645"><ele>248.0</ele><time>2026-05-01T08:09:31.769Z</time></trkpt><trkpt lat="39.58079" lon="8.5444088"><ele>248.0</ele><time>2026-05-01T08:09:32.769Z</time></trkpt><trkpt lat="39.5806914" lon="8.5445368"><ele>248.0</ele><time>2026-05-01T08:09:33.769Z</time></trkpt><trkpt lat="39.5805758" lon="8.5446476"><ele>248.0</ele><time>2026-05-01T08:09:34.77Z</time></trkpt><trkpt lat="39.5804485" lon="8.5447346"><ele>248.0</ele><time>2026-05-01T08:09:35.769Z</time></trkpt><trkpt lat="39.5803094" lon="8.5447921"><ele>247.75</ele><time>2026-05-01T08:09:36.768Z</time></trkpt><trkpt lat="39.5801661" lon="8.5448374"><ele>247.5</ele><time>2026-05-01T08:09:37.768Z</time></trkpt><trkpt lat="39.5800238" lon="8.544888"><ele>247.25</ele><time>2026-05-01T08:09:38.77Z</time></trkpt><trkpt lat="39.5798825" lon="8.5449376"><ele>247.0</ele><time>2026-05-01T08:09:39.769Z</time></trkpt><trkpt lat="39.5797503" lon="8.544988"><ele>247.0</ele><time>2026-05-01T08:09:40.769Z</time></trkpt><trkpt lat="39.579617" lon="8.5450464"><ele>247.0</ele><time>2026-05-01T08:09:41.77Z</time></trkpt><trkpt lat="39.5794862" lon="8.5451127"><ele>247.0</ele><time>2026-05-01T08:09:42.769Z</time></trkpt><trkpt lat="39.579358" lon="8.5451888"><ele>247.0</ele><time>2026-05-01T08:09:43.769Z</time></trkpt><trkpt lat="39.5792363" lon="8.5452669"><ele>245.5</ele><time>2026-05-01T08:09:44.769Z</time></trkpt><trkpt lat="39.5791211" lon="8.5453474"><ele>244.0</ele><time>2026-05-01T08:09:45.769Z</time></trkpt><trkpt lat="39.5790153" lon="8.545449"><ele>242.5</ele><time>2026-05-01T08:09:46.769Z</time></trkpt><trkpt lat="39.5789233" lon="8.5455785"><ele>241.0</ele><time>2026-05-01T08:09:47.77Z</time></trkpt><trkpt lat="39.5788416" lon="8.5457193"><ele>240.60000000000002</ele><time>2026-05-01T08:09:48.769Z</time></trkpt><trkpt lat="39.5787727" lon="8.5458508"><ele>240.20000000000002</ele><time>2026-05-01T08:09:49.77Z</time></trkpt><trkpt lat="39.5787199" lon="8.5459711"><ele>239.79999999999998</ele><time>2026-05-01T08:09:50.77Z</time></trkpt><trkpt lat="39.5786935" lon="8.5460913"><ele>239.39999999999998</ele><time>2026-05-01T08:09:51.768Z</time></trkpt><trkpt lat="39.5787035" lon="8.5462148"><ele>239.0</ele><time>2026-05-01T08:09:52.768Z</time></trkpt><trkpt lat="39.5787587" lon="8.5463404"><ele>236.25</ele><time>2026-05-01T08:09:53.768Z</time></trkpt><trkpt lat="39.5788488" lon="8.5464535"><ele>233.5</ele><time>2026-05-01T08:09:54.77Z</time></trkpt><trkpt lat="39.5789535" lon="8.5465616"><ele>230.75</ele><time>2026-05-01T08:09:55.769Z</time></trkpt><trkpt lat="39.5790593" lon="8.5466854"><ele>228.0</ele><time>2026-05-01T08:09:56.77Z</time></trkpt><trkpt lat="39.5791474" lon="8.5468292"><ele>228.0</ele><time>2026-05-01T08:09:57.769Z</time></trkpt><trkpt lat="39.5792336" lon="8.5469736"><ele>228.0</ele><time>2026-05-01T08:09:58.769Z</time></trkpt><trkpt lat="39.5793377" lon="8.5470972"><ele>228.0</ele><time>2026-05-01T08:09:59.77Z</time></trkpt><trkpt lat="39.5794578" lon="8.5472031"><ele>228.0</ele><time>2026-05-01T08:10:00.768Z</time></trkpt><trkpt lat="39.5795799" lon="8.5473019"><ele>227.5</ele><time>2026-05-01T08:10:01.769Z</time></trkpt><trkpt lat="39.5796972" lon="8.5473881"><ele>227.0</ele><time>2026-05-01T08:10:02.769Z</time></trkpt><trkpt lat="39.5798079" lon="8.5474692"><ele>226.5</ele><time>2026-05-01T08:10:03.769Z</time></trkpt><trkpt lat="39.5798975" lon="8.5475742"><ele>226.0</ele><time>2026-05-01T08:10:04.77Z</time></trkpt><trkpt lat="39.5799675" lon="8.5476953"><ele>226.0</ele><time>2026-05-01T08:10:05.769Z</time></trkpt><trkpt lat="39.58" lon="8.5478186"><ele>226.00000000000003</ele><time>2026-05-01T08:10:06.768Z</time></trkpt><trkpt lat="39.5799914" lon="8.5479468"><ele>226.00000000000003</ele><time>2026-05-01T08:10:07.769Z</time></trkpt><trkpt lat="39.5799402" lon="8.5480854"><ele>226.0</ele><time>2026-05-01T08:10:08.77Z</time></trkpt><trkpt lat="39.5798608" lon="8.5482181"><ele>226.0</ele><time>2026-05-01T08:10:09.769Z</time></trkpt><trkpt lat="39.5797768" lon="8.5483487"><ele>224.75</ele><time>2026-05-01T08:10:10.77Z</time></trkpt><trkpt lat="39.579693" lon="8.5484783"><ele>223.5</ele><time>2026-05-01T08:10:11.769Z</time></trkpt><trkpt lat="39.5796213" lon="8.5486161"><ele>222.25</ele><time>2026-05-01T08:10:12.769Z</time></trkpt><trkpt lat="39.5795703" lon="8.548771"><ele>221.0</ele><time>2026-05-01T08:10:13.77Z</time></trkpt><trkpt lat="39.5795391" lon="8.5489423"><ele>222.25</ele><time>2026-05-01T08:10:14.77Z</time></trkpt><trkpt lat="39.579515" lon="8.5491217"><ele>223.5</ele><time>2026-05-01T08:10:15.769Z</time></trkpt><trkpt lat="39.5794874" lon="8.5492994"><ele>224.75</ele><time>2026-05-01T08:10:16.769Z</time></trkpt><trkpt lat="39.5794534" lon="8.5494705"><ele>226.0</ele><time>2026-05-01T08:10:17.768Z</time></trkpt><trkpt lat="39.5794084" lon="8.5496278"><ele>226.0</ele><time>2026-05-01T08:10:18.769Z</time></trkpt><trkpt lat="39.579349" lon="8.5497671"><ele>226.0</ele><time>2026-05-01T08:10:19.77Z</time></trkpt><trkpt lat="39.579279" lon="8.5498981"><ele>226.0</ele><time>2026-05-01T08:10:20.769Z</time></trkpt><trkpt lat="39.5791992" lon="8.550014"><ele>226.0</ele><time>2026-05-01T08:10:21.768Z</time></trkpt><trkpt lat="39.5790978" lon="8.550107"><ele>226.0</ele><time>2026-05-01T08:10:22.769Z</time></trkpt><trkpt lat="39.5789752" lon="8.5501599"><ele>226.0</ele><time>2026-05-01T08:10:23.77Z</time></trkpt><trkpt lat="39.578844" lon="8.5501774"><ele>226.0</ele><time>2026-05-01T08:10:24.769Z</time></trkpt><trkpt lat="39.5787127" lon="8.5501605"><ele>226.0</ele><time>2026-05-01T08:10:25.769Z</time></trkpt><trkpt lat="39.578573" lon="8.5501494"><ele>226.5</ele><time>2026-05-01T08:10:26.769Z</time></trkpt><trkpt lat="39.5784317" lon="8.5501404"><ele>227.0</ele><time>2026-05-01T08:10:27.769Z</time></trkpt><trkpt lat="39.5782856" lon="8.5501253"><ele>227.5</ele><time>2026-05-01T08:10:28.768Z</time></trkpt><trkpt lat="39.578141" lon="8.5501128"><ele>228.0</ele><time>2026-05-01T08:10:29.769Z</time></trkpt><trkpt lat="39.577994" lon="8.5501067"><ele>228.0</ele><time>2026-05-01T08:10:30.769Z</time></trkpt><trkpt lat="39.5778536" lon="8.550105"><ele>228.0</ele><time>2026-05-01T08:10:31.768Z</time></trkpt><trkpt lat="39.5777287" lon="8.5501218"><ele>228.0</ele><time>2026-05-01T08:10:32.769Z</time></trkpt><trkpt lat="39.5776151" lon="8.5501607"><ele>228.0</ele><time>2026-05-01T08:10:33.768Z</time></trkpt><trkpt lat="39.5775166" lon="8.5502165"><ele>228.2</ele><time>2026-05-01T08:10:34.77Z</time></trkpt><trkpt lat="39.5774191" lon="8.5502701"><ele>228.4</ele><time>2026-05-01T08:10:35.769Z</time></trkpt><trkpt lat="39.5773184" lon="8.5503109"><ele>228.59999999999997</ele><time>2026-05-01T08:10:36.769Z</time></trkpt><trkpt lat="39.5772067" lon="8.5503105"><ele>228.79999999999998</ele><time>2026-05-01T08:10:37.769Z</time></trkpt><trkpt lat="39.5770926" lon="8.5502611"><ele>229.0</ele><time>2026-05-01T08:10:38.769Z</time></trkpt><trkpt lat="39.5769677" lon="8.5501874"><ele>230.0</ele><time>2026-05-01T08:10:39.768Z</time></trkpt><trkpt lat="39.5768375" lon="8.5501271"><ele>231.0</ele><time>2026-05-01T08:10:40.77Z</time></trkpt><trkpt lat="39.5766989" lon="8.5500964"><ele>232.0</ele><time>2026-05-01T08:10:41.768Z</time></trkpt><trkpt lat="39.576553" lon="8.5500843"><ele>233.0</ele><time>2026-05-01T08:10:42.768Z</time></trkpt><trkpt lat="39.5764059" lon="8.550073"><ele>233.0</ele><time>2026-05-01T08:10:43.769Z</time></trkpt><trkpt lat="39.5762549" lon="8.5500652"><ele>233.0</ele><time>2026-05-01T08:10:44.77Z</time></trkpt><trkpt lat="39.5760986" lon="8.5500574"><ele>233.0</ele><time>2026-05-01T08:10:45.769Z</time></trkpt><trkpt lat="39.5759408" lon="8.5500421"><ele>233.66666666666669</ele><time>2026-05-01T08:10:46.769Z</time></trkpt><trkpt lat="39.5757862" lon="8.5500287"><ele>234.33333333333331</ele><time>2026-05-01T08:10:47.769Z</time></trkpt><trkpt lat="39.5756319" lon="8.5500214"><ele>235.0</ele><time>2026-05-01T08:10:48.768Z</time></trkpt><trkpt lat="39.5754799" lon="8.5500132"><ele>235.66666666666666</ele><time>2026-05-01T08:10:49.769Z</time></trkpt><trkpt lat="39.5753334" lon="8.5499992"><ele>236.33333333333331</ele><time>2026-05-01T08:10:50.77Z</time></trkpt><trkpt lat="39.5751826" lon="8.5499705"><ele>237.0</ele><time>2026-05-01T08:10:51.77Z</time></trkpt><trkpt lat="39.575034" lon="8.5499196"><ele>237.0</ele><time>2026-05-01T08:10:52.768Z</time></trkpt><trkpt lat="39.5748859" lon="8.549852"><ele>237.0</ele><time>2026-05-01T08:10:53.769Z</time></trkpt><trkpt lat="39.5747401" lon="8.549772"><ele>237.0</ele><time>2026-05-01T08:10:54.768Z</time></trkpt><trkpt lat="39.5746049" lon="8.5496658"><ele>237.33333333333331</ele><time>2026-05-01T08:10:55.768Z</time></trkpt><trkpt lat="39.5744771" lon="8.5495355"><ele>237.66666666666666</ele><time>2026-05-01T08:10:56.769Z</time></trkpt><trkpt lat="39.5743586" lon="8.5493937"><ele>238.0</ele><time>2026-05-01T08:10:57.77Z</time></trkpt><trkpt lat="39.5742377" lon="8.5492478"><ele>238.0</ele><time>2026-05-01T08:10:58.77Z</time></trkpt><trkpt lat="39.5741179" lon="8.5491072"><ele>238.0</ele><time>2026-05-01T08:10:59.768Z</time></trkpt><trkpt lat="39.5739957" lon="8.5489665"><ele>238.0</ele><time>2026-05-01T08:11:00.768Z</time></trkpt><trkpt lat="39.5738744" lon="8.5488229"><ele>238.0</ele><time>2026-05-01T08:11:01.769Z</time></trkpt><trkpt lat="39.573759" lon="8.5486755"><ele>238.0</ele><time>2026-05-01T08:11:02.769Z</time></trkpt><trkpt lat="39.5736578" lon="8.5485347"><ele>238.0</ele><time>2026-05-01T08:11:03.768Z</time></trkpt><trkpt lat="39.5735605" lon="8.548409"><ele>238.0</ele><time>2026-05-01T08:11:04.768Z</time></trkpt><trkpt lat="39.5734441" lon="8.5483124"><ele>238.0</ele><time>2026-05-01T08:11:05.768Z</time></trkpt><trkpt lat="39.5733005" lon="8.5482655"><ele>238.0</ele><time>2026-05-01T08:11:06.77Z</time></trkpt><trkpt lat="39.5731427" lon="8.5482535"><ele>238.0</ele><time>2026-05-01T08:11:07.768Z</time></trkpt><trkpt lat="39.5729785" lon="8.5482528"><ele>238.66666666666666</ele><time>2026-05-01T08:11:08.768Z</time></trkpt><trkpt lat="39.5728114" lon="8.5482461"><ele>239.33333333333331</ele><time>2026-05-01T08:11:09.769Z</time></trkpt><trkpt lat="39.5726435" lon="8.5482364"><ele>240.0</ele><time>2026-05-01T08:11:10.769Z</time></trkpt><trkpt lat="39.5724785" lon="8.548226"><ele>240.0</ele><time>2026-05-01T08:11:11.767Z</time></trkpt><trkpt lat="39.572318" lon="8.5482142"><ele>240.0</ele><time>2026-05-01T08:11:12.768Z</time></trkpt><trkpt lat="39.572174" lon="8.5482073"><ele>240.0</ele><time>2026-05-01T08:11:13.767Z</time></trkpt><trkpt lat="39.5720417" lon="8.5482023"><ele>240.0</ele><time>2026-05-01T08:11:14.768Z</time></trkpt><trkpt lat="39.5719184" lon="8.5482139"><ele>239.75</ele><time>2026-05-01T08:11:15.768Z</time></trkpt><trkpt lat="39.5717946" lon="8.5482773"><ele>239.5</ele><time>2026-05-01T08:11:16.768Z</time></trkpt><trkpt lat="39.5716803" lon="8.5483864"><ele>239.25</ele><time>2026-05-01T08:11:17.768Z</time></trkpt><trkpt lat="39.5715679" lon="8.548514"><ele>239.0</ele><time>2026-05-01T08:11:18.768Z</time></trkpt><trkpt lat="39.5714528" lon="8.548647"><ele>238.33333333333334</ele><time>2026-05-01T08:11:19.769Z</time></trkpt><trkpt lat="39.571334" lon="8.5487742"><ele>237.66666666666669</ele><time>2026-05-01T08:11:20.769Z</time></trkpt><trkpt lat="39.5712143" lon="8.5489022"><ele>237.0</ele><time>2026-05-01T08:11:21.769Z</time></trkpt><trkpt lat="39.5710972" lon="8.5490377"><ele>237.0</ele><time>2026-05-01T08:11:22.768Z</time></trkpt><trkpt lat="39.5709888" lon="8.5491848"><ele>237.0</ele><time>2026-05-01T08:11:23.768Z</time></trkpt><trkpt lat="39.5708944" lon="8.5493485"><ele>237.0</ele><time>2026-05-01T08:11:24.768Z</time></trkpt><trkpt lat="39.5708157" lon="8.5495279"><ele>240.0</ele><time>2026-05-01T08:11:25.767Z</time></trkpt><trkpt lat="39.5707567" lon="8.5497233"><ele>243.0</ele><time>2026-05-01T08:11:26.767Z</time></trkpt><trkpt lat="39.5707166" lon="8.5499273"><ele>246.0</ele><time>2026-05-01T08:11:27.767Z</time></trkpt><trkpt lat="39.5706696" lon="8.5501311"><ele>246.0</ele><time>2026-05-01T08:11:28.768Z</time></trkpt><trkpt lat="39.5706085" lon="8.5503289"><ele>246.0</ele><time>2026-05-01T08:11:29.768Z</time></trkpt><trkpt lat="39.5705291" lon="8.550518"><ele>246.0</ele><time>2026-05-01T08:11:30.769Z</time></trkpt><trkpt lat="39.5704379" lon="8.550695"><ele>242.0</ele><time>2026-05-01T08:11:31.767Z</time></trkpt><trkpt lat="39.5703471" lon="8.550871"><ele>238.0</ele><time>2026-05-01T08:11:32.768Z</time></trkpt><trkpt lat="39.570262" lon="8.5510385"><ele>234.0</ele><time>2026-05-01T08:11:33.768Z</time></trkpt><trkpt lat="39.5701838" lon="8.5512009"><ele>236.25</ele><time>2026-05-01T08:11:34.769Z</time></trkpt><trkpt lat="39.5701182" lon="8.5513626"><ele>238.5</ele><time>2026-05-01T08:11:35.767Z</time></trkpt><trkpt lat="39.5700733" lon="8.5515445"><ele>240.75</ele><time>2026-05-01T08:11:36.768Z</time></trkpt><trkpt lat="39.5700564" lon="8.5517298"><ele>243.0</ele><time>2026-05-01T08:11:37.768Z</time></trkpt><trkpt lat="39.5700665" lon="8.551921"><ele>243.5</ele><time>2026-05-01T08:11:38.768Z</time></trkpt><trkpt lat="39.5701133" lon="8.5521036"><ele>244.0</ele><time>2026-05-01T08:11:39.769Z</time></trkpt><trkpt lat="39.5701925" lon="8.5522671"><ele>244.5</ele><time>2026-05-01T08:11:40.768Z</time></trkpt><trkpt lat="39.5702838" lon="8.5524069"><ele>245.0</ele><time>2026-05-01T08:11:41.768Z</time></trkpt><trkpt lat="39.5703664" lon="8.5525336"><ele>247.0</ele><time>2026-05-01T08:11:42.768Z</time></trkpt><trkpt lat="39.5704246" lon="8.5526625"><ele>249.0</ele><time>2026-05-01T08:11:43.768Z</time></trkpt><trkpt lat="39.5704442" lon="8.5528008"><ele>251.0</ele><time>2026-05-01T08:11:44.769Z</time></trkpt><trkpt lat="39.5704224" lon="8.552926"><ele>253.0</ele><time>2026-05-01T08:11:45.768Z</time></trkpt><trkpt lat="39.5703602" lon="8.5530312"><ele>255.0</ele><time>2026-05-01T08:11:46.768Z</time></trkpt><trkpt lat="39.5702648" lon="8.553128"><ele>255.0</ele><time>2026-05-01T08:11:47.768Z</time></trkpt><trkpt lat="39.5701548" lon="8.5532133"><ele>255.0</ele><time>2026-05-01T08:11:48.767Z</time></trkpt><trkpt lat="39.5700389" lon="8.5533049"><ele>255.0</ele><time>2026-05-01T08:11:49.767Z</time></trkpt><trkpt lat="39.5699205" lon="8.5533989"><ele>255.0</ele><time>2026-05-01T08:11:50.768Z</time></trkpt><trkpt lat="39.5697992" lon="8.5534962"><ele>255.0</ele><time>2026-05-01T08:11:51.769Z</time></trkpt><trkpt lat="39.5696791" lon="8.5535934"><ele>255.0</ele><time>2026-05-01T08:11:52.769Z</time></trkpt><trkpt lat="39.5695613" lon="8.5536882"><ele>255.0</ele><time>2026-05-01T08:11:53.768Z</time></trkpt><trkpt lat="39.5694424" lon="8.5537851"><ele>255.0</ele><time>2026-05-01T08:11:54.769Z</time></trkpt><trkpt lat="39.5693288" lon="8.55389"><ele>255.5</ele><time>2026-05-01T08:11:55.768Z</time></trkpt><trkpt lat="39.5692323" lon="8.554023"><ele>256.0</ele><time>2026-05-01T08:11:56.769Z</time></trkpt><trkpt lat="39.569158" lon="8.554177"><ele>256.5</ele><time>2026-05-01T08:11:57.768Z</time></trkpt><trkpt lat="39.5691081" lon="8.5543506"><ele>257.0</ele><time>2026-05-01T08:11:58.767Z</time></trkpt><trkpt lat="39.5690804" lon="8.5545358"><ele>258.6666666666667</ele><time>2026-05-01T08:11:59.768Z</time></trkpt><trkpt lat="39.5690733" lon="8.5547287"><ele>260.3333333333333</ele><time>2026-05-01T08:12:00.767Z</time></trkpt><trkpt lat="39.5690726" lon="8.5549272"><ele>262.0</ele><time>2026-05-01T08:12:01.768Z</time></trkpt><trkpt lat="39.5690698" lon="8.5551284"><ele>262.0</ele><time>2026-05-01T08:12:02.769Z</time></trkpt><trkpt lat="39.5690607" lon="8.5553307"><ele>262.0</ele><time>2026-05-01T08:12:03.768Z</time></trkpt><trkpt lat="39.5690535" lon="8.5555358"><ele>262.0</ele><time>2026-05-01T08:12:04.768Z</time></trkpt><trkpt lat="39.5690476" lon="8.5557403"><ele>263.66666666666663</ele><time>2026-05-01T08:12:05.768Z</time></trkpt><trkpt lat="39.5690456" lon="8.5559458"><ele>265.3333333333333</ele><time>2026-05-01T08:12:06.768Z</time></trkpt><trkpt lat="39.5690438" lon="8.5561509"><ele>267.0</ele><time>2026-05-01T08:12:07.768Z</time></trkpt><trkpt lat="39.5690404" lon="8.5563531"><ele>268.0</ele><time>2026-05-01T08:12:08.768Z</time></trkpt><trkpt lat="39.5690375" lon="8.5565498"><ele>269.0</ele><time>2026-05-01T08:12:09.768Z</time></trkpt><trkpt lat="39.5690342" lon="8.5567475"><ele>270.0</ele><time>2026-05-01T08:12:10.769Z</time></trkpt><trkpt lat="39.5690287" lon="8.5569427"><ele>271.5</ele><time>2026-05-01T08:12:11.768Z</time></trkpt><trkpt lat="39.569017" lon="8.557135"><ele>273.0</ele><time>2026-05-01T08:12:12.768Z</time></trkpt><trkpt lat="39.5690017" lon="8.5573238"><ele>274.5</ele><time>2026-05-01T08:12:13.769Z</time></trkpt><trkpt lat="39.5689806" lon="8.5575114"><ele>276.0</ele><time>2026-05-01T08:12:14.768Z</time></trkpt><trkpt lat="39.5689557" lon="8.5576967"><ele>278.25</ele><time>2026-05-01T08:12:15.768Z</time></trkpt><trkpt lat="39.5689317" lon="8.5578791"><ele>280.5</ele><time>2026-05-01T08:12:16.769Z</time></trkpt><trkpt lat="39.5689047" lon="8.5580503"><ele>282.75</ele><time>2026-05-01T08:12:17.769Z</time></trkpt><trkpt lat="39.5688523" lon="8.5581872"><ele>285.0</ele><time>2026-05-01T08:12:18.768Z</time></trkpt><trkpt lat="39.5687665" lon="8.5582797"><ele>281.5</ele><time>2026-05-01T08:12:19.768Z</time></trkpt><trkpt lat="39.5686588" lon="8.5583466"><ele>278.0</ele><time>2026-05-01T08:12:20.767Z</time></trkpt><trkpt lat="39.5685526" lon="8.5584272"><ele>274.5</ele><time>2026-05-01T08:12:21.767Z</time></trkpt><trkpt lat="39.5684573" lon="8.5585415"><ele>271.0</ele><time>2026-05-01T08:12:22.768Z</time></trkpt><trkpt lat="39.568376" lon="8.5586812"><ele>274.0</ele><time>2026-05-01T08:12:23.767Z</time></trkpt><trkpt lat="39.5683003" lon="8.5588346"><ele>277.0</ele><time>2026-05-01T08:12:24.768Z</time></trkpt><trkpt lat="39.5682272" lon="8.55899"><ele>280.0</ele><time>2026-05-01T08:12:25.767Z</time></trkpt><trkpt lat="39.568154" lon="8.5591458"><ele>283.0</ele><time>2026-05-01T08:12:26.768Z</time></trkpt><trkpt lat="39.5680817" lon="8.5593023"><ele>283.0</ele><time>2026-05-01T08:12:27.769Z</time></trkpt><trkpt lat="39.5680119" lon="8.5594503"><ele>283.0</ele><time>2026-05-01T08:12:28.769Z</time></trkpt><trkpt lat="39.5679446" lon="8.559593"><ele>283.0</ele><time>2026-05-01T08:12:29.768Z</time></trkpt><trkpt lat="39.5678813" lon="8.5597409"><ele>283.0</ele><time>2026-05-01T08:12:30.768Z</time></trkpt><trkpt lat="39.5678352" lon="8.5599026"><ele>282.5</ele><time>2026-05-01T08:12:31.768Z</time></trkpt><trkpt lat="39.5678159" lon="8.5600714"><ele>282.0</ele><time>2026-05-01T08:12:32.767Z</time></trkpt><trkpt lat="39.5678121" lon="8.5602305"><ele>281.5</ele><time>2026-05-01T08:12:33.768Z</time></trkpt><trkpt lat="39.5677917" lon="8.5603684"><ele>281.0</ele><time>2026-05-01T08:12:34.769Z</time></trkpt><trkpt lat="39.5677393" lon="8.5604879"><ele>285.0</ele><time>2026-05-01T08:12:35.768Z</time></trkpt><trkpt lat="39.5676449" lon="8.5605749"><ele>289.0</ele><time>2026-05-01T08:12:36.768Z</time></trkpt><trkpt lat="39.5675296" lon="8.5606405"><ele>293.0</ele><time>2026-05-01T08:12:37.768Z</time></trkpt><trkpt lat="39.5674084" lon="8.5607055"><ele>297.0</ele><time>2026-05-01T08:12:38.768Z</time></trkpt><trkpt lat="39.5672846" lon="8.5607745"><ele>297.0</ele><time>2026-05-01T08:12:39.768Z</time></trkpt><trkpt lat="39.5671635" lon="8.5608369"><ele>297.0</ele><time>2026-05-01T08:12:40.768Z</time></trkpt><trkpt lat="39.5670399" lon="8.5608853"><ele>297.0</ele><time>2026-05-01T08:12:41.769Z</time></trkpt><trkpt lat="39.5669173" lon="8.5609056"><ele>297.0</ele><time>2026-05-01T08:12:42.768Z</time></trkpt><trkpt lat="39.5667989" lon="8.5609147"><ele>296.0</ele><time>2026-05-01T08:12:43.767Z</time></trkpt><trkpt lat="39.5666772" lon="8.5609428"><ele>295.0</ele><time>2026-05-01T08:12:44.769Z</time></trkpt><trkpt lat="39.5665569" lon="8.5610028"><ele>294.0</ele><time>2026-05-01T08:12:45.769Z</time></trkpt><trkpt lat="39.5664392" lon="8.5610771"><ele>293.0</ele><time>2026-05-01T08:12:46.768Z</time></trkpt><trkpt lat="39.5663159" lon="8.561142"><ele>295.25</ele><time>2026-05-01T08:12:47.767Z</time></trkpt><trkpt lat="39.5661923" lon="8.5612114"><ele>297.5</ele><time>2026-05-01T08:12:48.768Z</time></trkpt><trkpt lat="39.566078" lon="8.5612819"><ele>299.75</ele><time>2026-05-01T08:12:49.769Z</time></trkpt><trkpt lat="39.5659691" lon="8.5613687"><ele>302.0</ele><time>2026-05-01T08:12:50.768Z</time></trkpt><trkpt lat="39.5658715" lon="8.5614896"><ele>302.0</ele><time>2026-05-01T08:12:51.767Z</time></trkpt><trkpt lat="39.5657921" lon="8.5616374"><ele>302.0</ele><time>2026-05-01T08:12:52.768Z</time></trkpt><trkpt lat="39.5657241" lon="8.5618004"><ele>302.0</ele><time>2026-05-01T08:12:53.769Z</time></trkpt><trkpt lat="39.5656523" lon="8.5619636"><ele>302.0</ele><time>2026-05-01T08:12:54.767Z</time></trkpt><trkpt lat="39.5655787" lon="8.5621205"><ele>305.5</ele><time>2026-05-01T08:12:55.769Z</time></trkpt><trkpt lat="39.5655092" lon="8.5622743"><ele>309.0</ele><time>2026-05-01T08:12:56.768Z</time></trkpt><trkpt lat="39.5654458" lon="8.5624217"><ele>312.5</ele><time>2026-05-01T08:12:57.768Z</time></trkpt><trkpt lat="39.565403" lon="8.5625725"><ele>316.0</ele><time>2026-05-01T08:12:58.768Z</time></trkpt><trkpt lat="39.5653938" lon="8.5627385"><ele>317.4</ele><time>2026-05-01T08:12:59.768Z</time></trkpt><trkpt lat="39.5653969" lon="8.562905"><ele>318.8</ele><time>2026-05-01T08:13:00.767Z</time></trkpt><trkpt lat="39.5654362" lon="8.5630262"><ele>320.2</ele><time>2026-05-01T08:13:01.768Z</time></trkpt><trkpt lat="39.5654334" lon="8.5631325"><ele>321.59999999999997</ele><time>2026-05-01T08:13:02.769Z</time></trkpt><trkpt lat="39.5654048" lon="8.5632135"><ele>323.0</ele><time>2026-05-01T08:13:03.767Z</time></trkpt><trkpt lat="39.5652968" lon="8.5632593"><ele>324.2</ele><time>2026-05-01T08:13:05.768Z</time></trkpt><trkpt lat="39.5652362" lon="8.563201"><ele>325.4</ele><time>2026-05-01T08:13:06.769Z</time></trkpt><trkpt lat="39.5651876" lon="8.5631007"><ele>326.59999999999997</ele><time>2026-05-01T08:13:07.768Z</time></trkpt><trkpt lat="39.5651429" lon="8.5629781"><ele>327.79999999999995</ele><time>2026-05-01T08:13:08.767Z</time></trkpt><trkpt lat="39.5650836" lon="8.5628475"><ele>329.0</ele><time>2026-05-01T08:13:09.768Z</time></trkpt><trkpt lat="39.5650155" lon="8.5627138"><ele>325.75</ele><time>2026-05-01T08:13:10.768Z</time></trkpt><trkpt lat="39.5649412" lon="8.562581"><ele>322.5</ele><time>2026-05-01T08:13:11.769Z</time></trkpt><trkpt lat="39.5648654" lon="8.5624337"><ele>319.25</ele><time>2026-05-01T08:13:12.769Z</time></trkpt><trkpt lat="39.5647875" lon="8.5622797"><ele>316.0</ele><time>2026-05-01T08:13:13.768Z</time></trkpt><trkpt lat="39.5647119" lon="8.562113"><ele>312.75</ele><time>2026-05-01T08:13:14.767Z</time></trkpt><trkpt lat="39.5646499" lon="8.5619386"><ele>309.5</ele><time>2026-05-01T08:13:15.768Z</time></trkpt><trkpt lat="39.5646038" lon="8.5617598"><ele>306.25</ele><time>2026-05-01T08:13:16.768Z</time></trkpt><trkpt lat="39.5645607" lon="8.5615746"><ele>303.0</ele><time>2026-05-01T08:13:17.768Z</time></trkpt><trkpt lat="39.5645001" lon="8.5614065"><ele>306.0</ele><time>2026-05-01T08:13:18.769Z</time></trkpt><trkpt lat="39.5644115" lon="8.561256"><ele>309.0</ele><time>2026-05-01T08:13:19.767Z</time></trkpt><trkpt lat="39.5642988" lon="8.5611279"><ele>312.0</ele><time>2026-05-01T08:13:20.768Z</time></trkpt><trkpt lat="39.5641739" lon="8.5610318"><ele>315.0</ele><time>2026-05-01T08:13:21.768Z</time></trkpt><trkpt lat="39.564042" lon="8.5609792"><ele>315.0</ele><time>2026-05-01T08:13:22.769Z</time></trkpt><trkpt lat="39.5638954" lon="8.5609689"><ele>315.0</ele><time>2026-05-01T08:13:23.769Z</time></trkpt><trkpt lat="39.5637471" lon="8.5609994"><ele>315.0</ele><time>2026-05-01T08:13:24.769Z</time></trkpt><trkpt lat="39.5636018" lon="8.561071"><ele>316.3333333333333</ele><time>2026-05-01T08:13:25.768Z</time></trkpt><trkpt lat="39.5634586" lon="8.561167"><ele>317.66666666666663</ele><time>2026-05-01T08:13:26.768Z</time></trkpt><trkpt lat="39.5633159" lon="8.5612689"><ele>319.0</ele><time>2026-05-01T08:13:27.768Z</time></trkpt><trkpt lat="39.5631729" lon="8.5613657"><ele>322.3333333333333</ele><time>2026-05-01T08:13:28.768Z</time></trkpt><trkpt lat="39.5630308" lon="8.5614596"><ele>325.6666666666667</ele><time>2026-05-01T08:13:29.768Z</time></trkpt><trkpt lat="39.5628909" lon="8.5615528"><ele>329.0</ele><time>2026-05-01T08:13:30.768Z</time></trkpt><trkpt lat="39.5627502" lon="8.5616486"><ele>329.0</ele><time>2026-05-01T08:13:31.769Z</time></trkpt><trkpt lat="39.5626131" lon="8.561753"><ele>329.0</ele><time>2026-05-01T08:13:32.767Z</time></trkpt><trkpt lat="39.5624801" lon="8.5618657"><ele>329.0</ele><time>2026-05-01T08:13:33.768Z</time></trkpt><trkpt lat="39.5623506" lon="8.561987"><ele>330.0</ele><time>2026-05-01T08:13:34.768Z</time></trkpt><trkpt lat="39.5622251" lon="8.5621165"><ele>331.0</ele><time>2026-05-01T08:13:35.767Z</time></trkpt><trkpt lat="39.5621025" lon="8.5622446"><ele>332.0</ele><time>2026-05-01T08:13:36.768Z</time></trkpt><trkpt lat="39.5619817" lon="8.562363"><ele>332.0</ele><time>2026-05-01T08:13:37.767Z</time></trkpt><trkpt lat="39.5618662" lon="8.5624813"><ele>332.0</ele><time>2026-05-01T08:13:38.768Z</time></trkpt><trkpt lat="39.5617684" lon="8.5626174"><ele>332.0</ele><time>2026-05-01T08:13:39.768Z</time></trkpt><trkpt lat="39.5617014" lon="8.5627787"><ele>332.0</ele><time>2026-05-01T08:13:40.767Z</time></trkpt><trkpt lat="39.5616734" lon="8.5629663"><ele>334.75</ele><time>2026-05-01T08:13:41.768Z</time></trkpt><trkpt lat="39.561678" lon="8.563161"><ele>337.5</ele><time>2026-05-01T08:13:42.768Z</time></trkpt><trkpt lat="39.5617019" lon="8.5633508"><ele>340.25</ele><time>2026-05-01T08:13:43.768Z</time></trkpt><trkpt lat="39.5617106" lon="8.5635287"><ele>343.0</ele><time>2026-05-01T08:13:44.768Z</time></trkpt><trkpt lat="39.5616974" lon="8.5637044"><ele>344.75</ele><time>2026-05-01T08:13:45.768Z</time></trkpt><trkpt lat="39.5616569" lon="8.5638546"><ele>346.5</ele><time>2026-05-01T08:13:46.767Z</time></trkpt><trkpt lat="39.5615801" lon="8.563991"><ele>348.25</ele><time>2026-05-01T08:13:47.767Z</time></trkpt><trkpt lat="39.5614814" lon="8.5641137"><ele>350.0</ele><time>2026-05-01T08:13:48.769Z</time></trkpt><trkpt lat="39.5613625" lon="8.5642193"><ele>350.0</ele><time>2026-05-01T08:13:49.768Z</time></trkpt><trkpt lat="39.5612351" lon="8.5643168"><ele>350.0</ele><time>2026-05-01T08:13:50.768Z</time></trkpt><trkpt lat="39.5611062" lon="8.5644253"><ele>350.0</ele><time>2026-05-01T08:13:51.768Z</time></trkpt><trkpt lat="39.5609818" lon="8.5645525"><ele>350.6666666666667</ele><time>2026-05-01T08:13:52.768Z</time></trkpt><trkpt lat="39.5608619" lon="8.5646896"><ele>351.3333333333333</ele><time>2026-05-01T08:13:53.769Z</time></trkpt><trkpt lat="39.5607475" lon="8.5648422"><ele>352.0</ele><time>2026-05-01T08:13:54.767Z</time></trkpt><trkpt lat="39.5606394" lon="8.565"><ele>352.0</ele><time>2026-05-01T08:13:55.768Z</time></trkpt><trkpt lat="39.5605343" lon="8.5651629"><ele>352.0</ele><time>2026-05-01T08:13:56.768Z</time></trkpt><trkpt lat="39.5604281" lon="8.5653254"><ele>352.0</ele><time>2026-05-01T08:13:57.768Z</time></trkpt><trkpt lat="39.5603109" lon="8.5654705"><ele>353.0</ele><time>2026-05-01T08:13:58.768Z</time></trkpt><trkpt lat="39.5601799" lon="8.5656048"><ele>354.0</ele><time>2026-05-01T08:13:59.768Z</time></trkpt><trkpt lat="39.5600454" lon="8.5657299"><ele>355.0</ele><time>2026-05-01T08:14:00.767Z</time></trkpt><trkpt lat="39.5599167" lon="8.565857"><ele>355.0</ele><time>2026-05-01T08:14:01.767Z</time></trkpt><trkpt lat="39.5597918" lon="8.5659766"><ele>355.0</ele><time>2026-05-01T08:14:02.767Z</time></trkpt><trkpt lat="39.5596574" lon="8.5660848"><ele>355.0</ele><time>2026-05-01T08:14:03.768Z</time></trkpt><trkpt lat="39.5595183" lon="8.5661814"><ele>359.0</ele><time>2026-05-01T08:14:04.767Z</time></trkpt><trkpt lat="39.5593757" lon="8.5662482"><ele>363.0</ele><time>2026-05-01T08:14:05.768Z</time></trkpt><trkpt lat="39.5592248" lon="8.5662898"><ele>367.0</ele><time>2026-05-01T08:14:06.767Z</time></trkpt><trkpt lat="39.5590804" lon="8.5663219"><ele>367.0</ele><time>2026-05-01T08:14:07.767Z</time></trkpt><trkpt lat="39.5589409" lon="8.5663452"><ele>367.0</ele><time>2026-05-01T08:14:08.767Z</time></trkpt><trkpt lat="39.558802" lon="8.5663872"><ele>367.0</ele><time>2026-05-01T08:14:09.768Z</time></trkpt><trkpt lat="39.5586718" lon="8.5664633"><ele>367.0</ele><time>2026-05-01T08:14:10.769Z</time></trkpt><trkpt lat="39.5585481" lon="8.5665623"><ele>366.5</ele><time>2026-05-01T08:14:11.768Z</time></trkpt><trkpt lat="39.5584267" lon="8.5666726"><ele>366.0</ele><time>2026-05-01T08:14:12.768Z</time></trkpt><trkpt lat="39.5583048" lon="8.5667847"><ele>365.5</ele><time>2026-05-01T08:14:13.768Z</time></trkpt><trkpt lat="39.5581865" lon="8.5668939"><ele>365.0</ele><time>2026-05-01T08:14:14.769Z</time></trkpt><trkpt lat="39.5580695" lon="8.566992"><ele>363.25</ele><time>2026-05-01T08:14:15.769Z</time></trkpt><trkpt lat="39.5579607" lon="8.5671016"><ele>361.5</ele><time>2026-05-01T08:14:16.768Z</time></trkpt><trkpt lat="39.5578619" lon="8.5672318"><ele>359.75</ele><time>2026-05-01T08:14:17.768Z</time></trkpt><trkpt lat="39.5577781" lon="8.5673749"><ele>358.0</ele><time>2026-05-01T08:14:18.768Z</time></trkpt><trkpt lat="39.5577011" lon="8.5675329"><ele>358.0</ele><time>2026-05-01T08:14:19.768Z</time></trkpt><trkpt lat="39.557636" lon="8.5677051"><ele>358.0</ele><time>2026-05-01T08:14:20.768Z</time></trkpt><trkpt lat="39.5575842" lon="8.5678916"><ele>358.0</ele><time>2026-05-01T08:14:21.768Z</time></trkpt><trkpt lat="39.5575291" lon="8.5680772"><ele>361.66666666666663</ele><time>2026-05-01T08:14:22.769Z</time></trkpt><trkpt lat="39.5574718" lon="8.5682641"><ele>365.3333333333333</ele><time>2026-05-01T08:14:23.768Z</time></trkpt><trkpt lat="39.5574345" lon="8.5684631"><ele>369.0</ele><time>2026-05-01T08:14:24.767Z</time></trkpt><trkpt lat="39.5574036" lon="8.5686558"><ele>370.75</ele><time>2026-05-01T08:14:25.769Z</time></trkpt><trkpt lat="39.5573919" lon="8.5688534"><ele>372.5</ele><time>2026-05-01T08:14:26.768Z</time></trkpt><trkpt lat="39.5573843" lon="8.5690466"><ele>374.25</ele><time>2026-05-01T08:14:27.767Z</time></trkpt><trkpt lat="39.5573742" lon="8.569235"><ele>376.0</ele><time>2026-05-01T08:14:28.769Z</time></trkpt><trkpt lat="39.5573565" lon="8.5694161"><ele>376.0</ele><time>2026-05-01T08:14:29.769Z</time></trkpt><trkpt lat="39.5573303" lon="8.5695797"><ele>376.0</ele><time>2026-05-01T08:14:30.768Z</time></trkpt><trkpt lat="39.5572921" lon="8.5697452"><ele>376.0</ele><time>2026-05-01T08:14:31.767Z</time></trkpt><trkpt lat="39.5572563" lon="8.569896"><ele>376.0</ele><time>2026-05-01T08:14:32.767Z</time></trkpt><trkpt lat="39.5572234" lon="8.5700225"><ele>376.0</ele><time>2026-05-01T08:14:33.769Z</time></trkpt><trkpt lat="39.5572016" lon="8.5701294"><ele>376.0</ele><time>2026-05-01T08:14:34.768Z</time></trkpt><trkpt lat="39.5571721" lon="8.5702625"><ele>376.0</ele><time>2026-05-01T08:14:36.768Z</time></trkpt><trkpt lat="39.5571272" lon="8.5703201"><ele>376.0</ele><time>2026-05-01T08:14:38.767Z</time></trkpt><trkpt lat="39.5570547" lon="8.5702501"><ele>376.0</ele><time>2026-05-01T08:14:41.767Z</time></trkpt><trkpt lat="39.5570079" lon="8.570167"><ele>376.0</ele><time>2026-05-01T08:14:54.768Z</time></trkpt><trkpt lat="39.5569469" lon="8.5701032"><ele>375.5</ele><time>2026-05-01T08:14:56.767Z</time></trkpt><trkpt lat="39.5568719" lon="8.570064"><ele>375.0</ele><time>2026-05-01T08:14:59.769Z</time></trkpt><trkpt lat="39.5568397" lon="8.5699765"><ele>374.5</ele><time>2026-05-01T08:37:40.764Z</time></trkpt><trkpt lat="39.5567959" lon="8.5699095"><ele>374.0</ele><time>2026-05-01T08:37:44.763Z</time></trkpt><trkpt lat="39.5567502" lon="8.5698279"><ele>373.5</ele><time>2026-05-01T08:37:47.764Z</time></trkpt><trkpt lat="39.5566958" lon="8.5697248"><ele>373.0</ele><time>2026-05-01T08:37:50.764Z</time></trkpt><trkpt lat="39.5566379" lon="8.569621"><ele>372.5</ele><time>2026-05-01T08:37:52.765Z</time></trkpt><trkpt lat="39.5565755" lon="8.5694901"><ele>372.0</ele><time>2026-05-01T08:37:54.763Z</time></trkpt><trkpt lat="39.5565368" lon="8.5694068"><ele>371.5</ele><time>2026-05-01T08:37:55.765Z</time></trkpt><trkpt lat="39.5564868" lon="8.5693215"><ele>371.0</ele><time>2026-05-01T08:37:56.764Z</time></trkpt><trkpt lat="39.5564422" lon="8.5692298"><ele>370.5</ele><time>2026-05-01T08:37:57.764Z</time></trkpt><trkpt lat="39.5564029" lon="8.5691379"><ele>370.0</ele><time>2026-05-01T08:37:58.763Z</time></trkpt><trkpt lat="39.5563557" lon="8.5690503"><ele>370.0</ele><time>2026-05-01T08:37:59.763Z</time></trkpt><trkpt lat="39.5563075" lon="8.5689589"><ele>370.0</ele><time>2026-05-01T08:38:00.764Z</time></trkpt><trkpt lat="39.5562589" lon="8.5688806"><ele>370.0</ele><time>2026-05-01T08:38:01.765Z</time></trkpt><trkpt lat="39.5562024" lon="8.5688248"><ele>370.0</ele><time>2026-05-01T08:38:02.765Z</time></trkpt><trkpt lat="39.5561431" lon="8.5687801"><ele>370.0</ele><time>2026-05-01T08:38:03.763Z</time></trkpt><trkpt lat="39.5560203" lon="8.5687784"><ele>370.0</ele><time>2026-05-01T08:38:05.763Z</time></trkpt><trkpt lat="39.5559419" lon="8.5688589"><ele>370.8333333333333</ele><time>2026-05-01T08:38:06.763Z</time></trkpt><trkpt lat="39.5559062" lon="8.5689621"><ele>371.66666666666663</ele><time>2026-05-01T08:38:07.763Z</time></trkpt><trkpt lat="39.5558679" lon="8.5690638"><ele>372.5</ele><time>2026-05-01T08:38:08.764Z</time></trkpt><trkpt lat="39.5558342" lon="8.5691711"><ele>373.3333333333333</ele><time>2026-05-01T08:38:09.762Z</time></trkpt><trkpt lat="39.5558051" lon="8.5692822"><ele>374.1666666666667</ele><time>2026-05-01T08:38:10.763Z</time></trkpt><trkpt lat="39.5557677" lon="8.5693866"><ele>375.0</ele><time>2026-05-01T08:38:11.762Z</time></trkpt><trkpt lat="39.5557215" lon="8.5694813"><ele>374.8333333333333</ele><time>2026-05-01T08:38:12.762Z</time></trkpt><trkpt lat="39.5556668" lon="8.5695609"><ele>374.6666666666667</ele><time>2026-05-01T08:38:13.762Z</time></trkpt><trkpt lat="39.5556098" lon="8.5696257"><ele>374.5</ele><time>2026-05-01T08:38:14.763Z</time></trkpt><trkpt lat="39.5555574" lon="8.5696826"><ele>374.33333333333337</ele><time>2026-05-01T08:38:15.763Z</time></trkpt><trkpt lat="39.5555028" lon="8.5697299"><ele>374.1666666666667</ele><time>2026-05-01T08:38:16.764Z</time></trkpt><trkpt lat="39.5554122" lon="8.5697296"><ele>374.0</ele><time>2026-05-01T08:38:18.763Z</time></trkpt><trkpt lat="39.5553249" lon="8.569634"><ele>374.0</ele><time>2026-05-01T08:38:20.763Z</time></trkpt><trkpt lat="39.5552692" lon="8.5695385"><ele>374.0</ele><time>2026-05-01T08:38:21.762Z</time></trkpt><trkpt lat="39.5552116" lon="8.5694679"><ele>374.0</ele><time>2026-05-01T08:38:22.762Z</time></trkpt><trkpt lat="39.5551579" lon="8.5693867"><ele>374.0</ele><time>2026-05-01T08:38:23.762Z</time></trkpt><trkpt lat="39.5551132" lon="8.5693242"><ele>374.0</ele><time>2026-05-01T08:38:24.764Z</time></trkpt><trkpt lat="39.5550308" lon="8.5692299"><ele>374.0</ele><time>2026-05-01T08:38:26.763Z</time></trkpt><trkpt lat="39.5549736" lon="8.5691332"><ele>374.0</ele><time>2026-05-01T08:38:28.763Z</time></trkpt><trkpt lat="39.5549234" lon="8.5690478"><ele>374.0</ele><time>2026-05-01T08:38:30.763Z</time></trkpt><trkpt lat="39.5548677" lon="8.5689599"><ele>374.0</ele><time>2026-05-01T08:38:32.762Z</time></trkpt><trkpt lat="39.5548025" lon="8.5688553"><ele>374.0</ele><time>2026-05-01T08:38:34.763Z</time></trkpt><trkpt lat="39.554732" lon="8.568763"><ele>374.0</ele><time>2026-05-01T08:38:36.764Z</time></trkpt><trkpt lat="39.5546627" lon="8.5686671"><ele>373.83333333333337</ele><time>2026-05-01T08:38:38.763Z</time></trkpt><trkpt lat="39.5546015" lon="8.5685338"><ele>373.6666666666667</ele><time>2026-05-01T08:38:40.763Z</time></trkpt><trkpt lat="39.5545604" lon="8.5684649"><ele>373.5</ele><time>2026-05-01T08:38:41.763Z</time></trkpt><trkpt lat="39.5545244" lon="8.5683919"><ele>373.3333333333333</ele><time>2026-05-01T08:38:42.764Z</time></trkpt><trkpt lat="39.5544874" lon="8.5683024"><ele>373.16666666666663</ele><time>2026-05-01T08:38:43.763Z</time></trkpt><trkpt lat="39.554469" lon="8.5681872"><ele>373.0</ele><time>2026-05-01T08:38:44.763Z</time></trkpt><trkpt lat="39.5544673" lon="8.5680623"><ele>373.0</ele><time>2026-05-01T08:38:45.762Z</time></trkpt><trkpt lat="39.5544823" lon="8.5679321"><ele>373.0</ele><time>2026-05-01T08:38:46.764Z</time></trkpt><trkpt lat="39.5545063" lon="8.5678056"><ele>373.0</ele><time>2026-05-01T08:38:47.764Z</time></trkpt><trkpt lat="39.5545383" lon="8.5676927"><ele>373.0</ele><time>2026-05-01T08:38:48.763Z</time></trkpt><trkpt lat="39.5545704" lon="8.5675903"><ele>373.0</ele><time>2026-05-01T08:38:49.763Z</time></trkpt><trkpt lat="39.5545981" lon="8.5674855"><ele>369.66666666666663</ele><time>2026-05-01T08:38:50.762Z</time></trkpt><trkpt lat="39.5546146" lon="8.5673761"><ele>366.3333333333333</ele><time>2026-05-01T08:38:51.762Z</time></trkpt><trkpt lat="39.5546254" lon="8.5672563"><ele>363.0</ele><time>2026-05-01T08:38:52.763Z</time></trkpt><trkpt lat="39.5546293" lon="8.5671387"><ele>359.6666666666667</ele><time>2026-05-01T08:38:53.762Z</time></trkpt><trkpt lat="39.5546191" lon="8.5670307"><ele>356.33333333333337</ele><time>2026-05-01T08:38:54.763Z</time></trkpt><trkpt lat="39.5546" lon="8.5669236"><ele>353.0</ele><time>2026-05-01T08:38:55.764Z</time></trkpt><trkpt lat="39.5545828" lon="8.5668247"><ele>351.6666666666667</ele><time>2026-05-01T08:38:56.763Z</time></trkpt><trkpt lat="39.5545637" lon="8.5667224"><ele>350.33333333333337</ele><time>2026-05-01T08:38:57.763Z</time></trkpt><trkpt lat="39.5545427" lon="8.5666235"><ele>349.0</ele><time>2026-05-01T08:38:58.763Z</time></trkpt><trkpt lat="39.554517" lon="8.5665257"><ele>347.6666666666667</ele><time>2026-05-01T08:38:59.762Z</time></trkpt><trkpt lat="39.5544931" lon="8.5664325"><ele>346.3333333333333</ele><time>2026-05-01T08:39:00.763Z</time></trkpt><trkpt lat="39.5544719" lon="8.5663239"><ele>345.0</ele><time>2026-05-01T08:39:01.762Z</time></trkpt><trkpt lat="39.5544607" lon="8.5662074"><ele>346.6666666666667</ele><time>2026-05-01T08:39:02.763Z</time></trkpt><trkpt lat="39.5544511" lon="8.5660941"><ele>348.3333333333333</ele><time>2026-05-01T08:39:03.764Z</time></trkpt><trkpt lat="39.5544356" lon="8.5659883"><ele>350.0</ele><time>2026-05-01T08:39:04.763Z</time></trkpt><trkpt lat="39.5544029" lon="8.5659036"><ele>351.66666666666663</ele><time>2026-05-01T08:39:05.764Z</time></trkpt><trkpt lat="39.554368" lon="8.5658209"><ele>353.3333333333333</ele><time>2026-05-01T08:39:06.763Z</time></trkpt><trkpt lat="39.5543215" lon="8.5657433"><ele>355.0</ele><time>2026-05-01T08:39:07.762Z</time></trkpt><trkpt lat="39.5542647" lon="8.5656714"><ele>355.0</ele><time>2026-05-01T08:39:08.762Z</time></trkpt><trkpt lat="39.5541996" lon="8.5656114"><ele>355.0</ele><time>2026-05-01T08:39:09.763Z</time></trkpt><trkpt lat="39.5541251" lon="8.5655568"><ele>355.0</ele><time>2026-05-01T08:39:10.763Z</time></trkpt><trkpt lat="39.5540526" lon="8.5655139"><ele>355.0</ele><time>2026-05-01T08:39:11.762Z</time></trkpt><trkpt lat="39.5539776" lon="8.5654855"><ele>355.0</ele><time>2026-05-01T08:39:12.763Z</time></trkpt><trkpt lat="39.5538998" lon="8.5654636"><ele>355.0</ele><time>2026-05-01T08:39:13.762Z</time></trkpt><trkpt lat="39.5538169" lon="8.5654508"><ele>355.0</ele><time>2026-05-01T08:39:14.764Z</time></trkpt><trkpt lat="39.5537248" lon="8.565461"><ele>355.0</ele><time>2026-05-01T08:39:15.763Z</time></trkpt><trkpt lat="39.5536345" lon="8.565474"><ele>355.0</ele><time>2026-05-01T08:39:16.764Z</time></trkpt><trkpt lat="39.5535436" lon="8.5654797"><ele>355.0</ele><time>2026-05-01T08:39:17.763Z</time></trkpt><trkpt lat="39.5534598" lon="8.56549"><ele>355.0</ele><time>2026-05-01T08:39:18.762Z</time></trkpt><trkpt lat="39.5533872" lon="8.5655008"><ele>355.0</ele><time>2026-05-01T08:39:19.763Z</time></trkpt><trkpt lat="39.5532743" lon="8.565458"><ele>353.2</ele><time>2026-05-01T08:39:21.762Z</time></trkpt><trkpt lat="39.5532126" lon="8.5653138"><ele>351.4</ele><time>2026-05-01T08:39:23.763Z</time></trkpt><trkpt lat="39.5532097" lon="8.5652234"><ele>349.6</ele><time>2026-05-01T08:39:24.762Z</time></trkpt><trkpt lat="39.5532293" lon="8.5651038"><ele>347.8</ele><time>2026-05-01T08:39:25.764Z</time></trkpt><trkpt lat="39.5532668" lon="8.5649869"><ele>346.0</ele><time>2026-05-01T08:39:26.764Z</time></trkpt><trkpt lat="39.5533148" lon="8.5648809"><ele>346.0</ele><time>2026-05-01T08:39:27.763Z</time></trkpt><trkpt lat="39.5533782" lon="8.5647885"><ele>346.0</ele><time>2026-05-01T08:39:28.763Z</time></trkpt><trkpt lat="39.5534584" lon="8.5647056"><ele>346.0</ele><time>2026-05-01T08:39:29.764Z</time></trkpt><trkpt lat="39.5535522" lon="8.5646334"><ele>346.0</ele><time>2026-05-01T08:39:30.762Z</time></trkpt><trkpt lat="39.5536463" lon="8.5645636"><ele>346.0</ele><time>2026-05-01T08:39:31.763Z</time></trkpt><trkpt lat="39.5537302" lon="8.5645026"><ele>340.6</ele><time>2026-05-01T08:39:32.763Z</time></trkpt><trkpt lat="39.5538115" lon="8.5644382"><ele>335.20000000000005</ele><time>2026-05-01T08:39:33.763Z</time></trkpt><trkpt lat="39.5538785" lon="8.5643751"><ele>329.79999999999995</ele><time>2026-05-01T08:39:34.763Z</time></trkpt><trkpt lat="39.5539305" lon="8.5643106"><ele>324.4</ele><time>2026-05-01T08:39:35.763Z</time></trkpt><trkpt lat="39.5539591" lon="8.5642337"><ele>319.0</ele><time>2026-05-01T08:39:36.764Z</time></trkpt><trkpt lat="39.5539463" lon="8.5640607"><ele>319.0</ele><time>2026-05-01T08:39:38.764Z</time></trkpt><trkpt lat="39.5539214" lon="8.5639542"><ele>319.0</ele><time>2026-05-01T08:39:39.763Z</time></trkpt><trkpt lat="39.5538984" lon="8.5638381"><ele>319.0</ele><time>2026-05-01T08:39:40.763Z</time></trkpt><trkpt lat="39.5538897" lon="8.5637156"><ele>319.0</ele><time>2026-05-01T08:39:41.763Z</time></trkpt><trkpt lat="39.5538746" lon="8.5636048"><ele>319.0</ele><time>2026-05-01T08:39:42.762Z</time></trkpt><trkpt lat="39.5538538" lon="8.5635024"><ele>319.0</ele><time>2026-05-01T08:39:43.762Z</time></trkpt><trkpt lat="39.5538178" lon="8.5634022"><ele>317.4</ele><time>2026-05-01T08:39:44.763Z</time></trkpt><trkpt lat="39.553762" lon="8.5632956"><ele>315.79999999999995</ele><time>2026-05-01T08:39:45.762Z</time></trkpt><trkpt lat="39.553696" lon="8.5631917"><ele>314.20000000000005</ele><time>2026-05-01T08:39:46.762Z</time></trkpt><trkpt lat="39.5536248" lon="8.5630898"><ele>312.6</ele><time>2026-05-01T08:39:47.763Z</time></trkpt><trkpt lat="39.5535682" lon="8.5629863"><ele>311.0</ele><time>2026-05-01T08:39:48.763Z</time></trkpt><trkpt lat="39.5535311" lon="8.562881"><ele>313.6</ele><time>2026-05-01T08:39:49.762Z</time></trkpt><trkpt lat="39.5535141" lon="8.5627654"><ele>316.20000000000005</ele><time>2026-05-01T08:39:50.762Z</time></trkpt><trkpt lat="39.5535104" lon="8.5626397"><ele>318.79999999999995</ele><time>2026-05-01T08:39:51.763Z</time></trkpt><trkpt lat="39.5535198" lon="8.5625122"><ele>321.4</ele><time>2026-05-01T08:39:52.762Z</time></trkpt><trkpt lat="39.5535222" lon="8.5624031"><ele>324.0</ele><time>2026-05-01T08:39:53.763Z</time></trkpt><trkpt lat="39.553507" lon="8.5622989"><ele>324.0</ele><time>2026-05-01T08:39:54.763Z</time></trkpt><trkpt lat="39.5534821" lon="8.5622148"><ele>324.0</ele><time>2026-05-01T08:39:55.763Z</time></trkpt><trkpt lat="39.5534426" lon="8.5621499"><ele>324.0</ele><time>2026-05-01T08:39:56.764Z</time></trkpt><trkpt lat="39.553385" lon="8.5621002"><ele>324.0</ele><time>2026-05-01T08:39:57.764Z</time></trkpt><trkpt lat="39.5533178" lon="8.5620701"><ele>324.0</ele><time>2026-05-01T08:39:58.764Z</time></trkpt><trkpt lat="39.5532274" lon="8.5620728"><ele>324.0</ele><time>2026-05-01T08:39:59.763Z</time></trkpt><trkpt lat="39.5531317" lon="8.5620811"><ele>324.0</ele><time>2026-05-01T08:40:00.764Z</time></trkpt><trkpt lat="39.5530315" lon="8.5621006"><ele>324.0</ele><time>2026-05-01T08:40:01.764Z</time></trkpt><trkpt lat="39.5529293" lon="8.5621206"><ele>324.0</ele><time>2026-05-01T08:40:02.763Z</time></trkpt><trkpt lat="39.5528256" lon="8.562152"><ele>324.0</ele><time>2026-05-01T08:40:03.764Z</time></trkpt><trkpt lat="39.5527258" lon="8.562185"><ele>324.0</ele><time>2026-05-01T08:40:04.764Z</time></trkpt><trkpt lat="39.5526283" lon="8.5622093"><ele>324.6666666666667</ele><time>2026-05-01T08:40:05.762Z</time></trkpt><trkpt lat="39.5525475" lon="8.5622121"><ele>325.3333333333333</ele><time>2026-05-01T08:40:06.763Z</time></trkpt><trkpt lat="39.5524625" lon="8.5621965"><ele>326.0</ele><time>2026-05-01T08:40:07.763Z</time></trkpt><trkpt lat="39.5523714" lon="8.5621597"><ele>326.66666666666663</ele><time>2026-05-01T08:40:08.763Z</time></trkpt><trkpt lat="39.5522907" lon="8.5621043"><ele>327.3333333333333</ele><time>2026-05-01T08:40:09.764Z</time></trkpt><trkpt lat="39.5522145" lon="8.5620303"><ele>328.0</ele><time>2026-05-01T08:40:10.763Z</time></trkpt><trkpt lat="39.5521609" lon="8.5619532"><ele>324.66666666666663</ele><time>2026-05-01T08:40:11.763Z</time></trkpt><trkpt lat="39.5521273" lon="8.5618739"><ele>321.3333333333333</ele><time>2026-05-01T08:40:12.764Z</time></trkpt><trkpt lat="39.5521072" lon="8.5617925"><ele>318.0</ele><time>2026-05-01T08:40:13.764Z</time></trkpt><trkpt lat="39.5521157" lon="8.5617039"><ele>314.6666666666667</ele><time>2026-05-01T08:40:14.764Z</time></trkpt><trkpt lat="39.5521463" lon="8.5616229"><ele>311.33333333333337</ele><time>2026-05-01T08:40:15.763Z</time></trkpt><trkpt lat="39.5521967" lon="8.5615326"><ele>308.0</ele><time>2026-05-01T08:40:16.763Z</time></trkpt><trkpt lat="39.5522554" lon="8.5614394"><ele>308.0</ele><time>2026-05-01T08:40:17.764Z</time></trkpt><trkpt lat="39.5523195" lon="8.5613388"><ele>308.0</ele><time>2026-05-01T08:40:18.763Z</time></trkpt><trkpt lat="39.5523741" lon="8.5612476"><ele>308.0</ele><time>2026-05-01T08:40:19.762Z</time></trkpt><trkpt lat="39.552426" lon="8.5611528"><ele>308.0</ele><time>2026-05-01T08:40:20.764Z</time></trkpt><trkpt lat="39.5524796" lon="8.561043"><ele>308.0</ele><time>2026-05-01T08:40:21.762Z</time></trkpt><trkpt lat="39.5525221" lon="8.5609303"><ele>306.6</ele><time>2026-05-01T08:40:22.763Z</time></trkpt><trkpt lat="39.5525414" lon="8.560823"><ele>305.20000000000005</ele><time>2026-05-01T08:40:23.763Z</time></trkpt><trkpt lat="39.5525381" lon="8.5607061"><ele>303.8</ele><time>2026-05-01T08:40:24.763Z</time></trkpt><trkpt lat="39.5525155" lon="8.5605815"><ele>302.40000000000003</ele><time>2026-05-01T08:40:25.762Z</time></trkpt><trkpt lat="39.5524805" lon="8.5604641"><ele>301.0</ele><time>2026-05-01T08:40:26.762Z</time></trkpt><trkpt lat="39.552437" lon="8.5603748"><ele>301.5</ele><time>2026-05-01T08:40:27.763Z</time></trkpt><trkpt lat="39.552378" lon="8.5603109"><ele>302.0</ele><time>2026-05-01T08:40:28.763Z</time></trkpt><trkpt lat="39.5523017" lon="8.5602671"><ele>302.5</ele><time>2026-05-01T08:40:29.763Z</time></trkpt><trkpt lat="39.5522181" lon="8.5602528"><ele>303.0</ele><time>2026-05-01T08:40:30.764Z</time></trkpt><trkpt lat="39.5521248" lon="8.5602666"><ele>303.5</ele><time>2026-05-01T08:40:31.763Z</time></trkpt><trkpt lat="39.5520269" lon="8.5602813"><ele>304.0</ele><time>2026-05-01T08:40:32.762Z</time></trkpt><trkpt lat="39.5519414" lon="8.5602893"><ele>304.0</ele><time>2026-05-01T08:40:33.762Z</time></trkpt><trkpt lat="39.5518695" lon="8.5602844"><ele>304.0</ele><time>2026-05-01T08:40:34.764Z</time></trkpt><trkpt lat="39.5518075" lon="8.5602529"><ele>304.0</ele><time>2026-05-01T08:40:35.764Z</time></trkpt><trkpt lat="39.5517609" lon="8.5601943"><ele>304.0</ele><time>2026-05-01T08:40:36.762Z</time></trkpt><trkpt lat="39.5517322" lon="8.5601111"><ele>304.0</ele><time>2026-05-01T08:40:37.763Z</time></trkpt><trkpt lat="39.5517201" lon="8.5600208"><ele>304.0</ele><time>2026-05-01T08:40:38.762Z</time></trkpt><trkpt lat="39.5517317" lon="8.5599164"><ele>304.0</ele><time>2026-05-01T08:40:39.763Z</time></trkpt><trkpt lat="39.5517645" lon="8.5598028"><ele>304.0</ele><time>2026-05-01T08:40:40.762Z</time></trkpt><trkpt lat="39.5517918" lon="8.559695"><ele>304.0</ele><time>2026-05-01T08:40:41.763Z</time></trkpt><trkpt lat="39.5518135" lon="8.5595747"><ele>304.0</ele><time>2026-05-01T08:40:42.763Z</time></trkpt><trkpt lat="39.5518297" lon="8.5594413"><ele>304.0</ele><time>2026-05-01T08:40:43.762Z</time></trkpt><trkpt lat="39.5518399" lon="8.5593022"><ele>304.0</ele><time>2026-05-01T08:40:44.763Z</time></trkpt><trkpt lat="39.551849" lon="8.5591635"><ele>304.4</ele><time>2026-05-01T08:40:45.764Z</time></trkpt><trkpt lat="39.551844" lon="8.5590258"><ele>304.79999999999995</ele><time>2026-05-01T08:40:46.763Z</time></trkpt><trkpt lat="39.5518282" lon="8.5588802"><ele>305.20000000000005</ele><time>2026-05-01T08:40:47.763Z</time></trkpt><trkpt lat="39.5518078" lon="8.5587686"><ele>305.6</ele><time>2026-05-01T08:40:48.763Z</time></trkpt><trkpt lat="39.551777" lon="8.5586666"><ele>306.0</ele><time>2026-05-01T08:40:49.763Z</time></trkpt><trkpt lat="39.5517292" lon="8.5585837"><ele>304.8</ele><time>2026-05-01T08:40:50.764Z</time></trkpt><trkpt lat="39.5516598" lon="8.5584969"><ele>303.6</ele><time>2026-05-01T08:40:51.763Z</time></trkpt><trkpt lat="39.5515615" lon="8.558417"><ele>302.4</ele><time>2026-05-01T08:40:52.763Z</time></trkpt><trkpt lat="39.5514832" lon="8.5583309"><ele>301.2</ele><time>2026-05-01T08:40:53.762Z</time></trkpt><trkpt lat="39.5513874" lon="8.5582601"><ele>300.0</ele><time>2026-05-01T08:40:54.763Z</time></trkpt><trkpt lat="39.5512863" lon="8.5581816"><ele>300.6</ele><time>2026-05-01T08:40:55.762Z</time></trkpt><trkpt lat="39.551193" lon="8.5581041"><ele>301.2</ele><time>2026-05-01T08:40:56.764Z</time></trkpt><trkpt lat="39.5511036" lon="8.5580291"><ele>301.8</ele><time>2026-05-01T08:40:57.762Z</time></trkpt><trkpt lat="39.5510287" lon="8.5579481"><ele>302.4</ele><time>2026-05-01T08:40:58.762Z</time></trkpt><trkpt lat="39.5509738" lon="8.5578507"><ele>303.0</ele><time>2026-05-01T08:40:59.763Z</time></trkpt><trkpt lat="39.5509406" lon="8.5577432"><ele>303.0</ele><time>2026-05-01T08:41:00.763Z</time></trkpt><trkpt lat="39.5509238" lon="8.5576334"><ele>303.0</ele><time>2026-05-01T08:41:01.763Z</time></trkpt><trkpt lat="39.5509231" lon="8.5575067"><ele>303.0</ele><time>2026-05-01T08:41:02.763Z</time></trkpt><trkpt lat="39.5509109" lon="8.5573827"><ele>303.0</ele><time>2026-05-01T08:41:03.763Z</time></trkpt><trkpt lat="39.5508771" lon="8.5572795"><ele>303.0</ele><time>2026-05-01T08:41:04.763Z</time></trkpt><trkpt lat="39.5508242" lon="8.5571905"><ele>303.0</ele><time>2026-05-01T08:41:05.764Z</time></trkpt><trkpt lat="39.5507513" lon="8.5571271"><ele>303.0</ele><time>2026-05-01T08:41:06.764Z</time></trkpt><trkpt lat="39.5506605" lon="8.5570808"><ele>303.0</ele><time>2026-05-01T08:41:07.764Z</time></trkpt><trkpt lat="39.5505438" lon="8.5570501"><ele>303.0</ele><time>2026-05-01T08:41:08.763Z</time></trkpt><trkpt lat="39.5504251" lon="8.557023"><ele>303.0</ele><time>2026-05-01T08:41:09.763Z</time></trkpt><trkpt lat="39.5503043" lon="8.5569949"><ele>302.6666666666667</ele><time>2026-05-01T08:41:10.763Z</time></trkpt><trkpt lat="39.5502003" lon="8.556967"><ele>302.3333333333333</ele><time>2026-05-01T08:41:11.764Z</time></trkpt><trkpt lat="39.5501068" lon="8.5569336"><ele>302.0</ele><time>2026-05-01T08:41:12.763Z</time></trkpt><trkpt lat="39.5500323" lon="8.5568841"><ele>301.66666666666663</ele><time>2026-05-01T08:41:13.763Z</time></trkpt><trkpt lat="39.5499736" lon="8.5568154"><ele>301.3333333333333</ele><time>2026-05-01T08:41:14.764Z</time></trkpt><trkpt lat="39.5499337" lon="8.5567263"><ele>301.0</ele><time>2026-05-01T08:41:15.762Z</time></trkpt><trkpt lat="39.5499058" lon="8.556597"><ele>301.0</ele><time>2026-05-01T08:41:16.763Z</time></trkpt><trkpt lat="39.549886" lon="8.5564474"><ele>301.0</ele><time>2026-05-01T08:41:17.763Z</time></trkpt><trkpt lat="39.5498553" lon="8.5563194"><ele>301.0</ele><time>2026-05-01T08:41:18.763Z</time></trkpt><trkpt lat="39.5498105" lon="8.5561989"><ele>301.0</ele><time>2026-05-01T08:41:19.763Z</time></trkpt><trkpt lat="39.5497511" lon="8.5560865"><ele>301.0</ele><time>2026-05-01T08:41:20.763Z</time></trkpt><trkpt lat="39.5496966" lon="8.5559887"><ele>299.66666666666663</ele><time>2026-05-01T08:41:21.764Z</time></trkpt><trkpt lat="39.5496649" lon="8.5558961"><ele>298.3333333333333</ele><time>2026-05-01T08:41:22.764Z</time></trkpt><trkpt lat="39.5496561" lon="8.5558097"><ele>297.0</ele><time>2026-05-01T08:41:23.764Z</time></trkpt><trkpt lat="39.549669" lon="8.5557054"><ele>295.6666666666667</ele><time>2026-05-01T08:41:24.763Z</time></trkpt><trkpt lat="39.549708" lon="8.5555931"><ele>294.33333333333337</ele><time>2026-05-01T08:41:25.763Z</time></trkpt><trkpt lat="39.5497418" lon="8.5554628"><ele>293.0</ele><time>2026-05-01T08:41:26.763Z</time></trkpt><trkpt lat="39.5497586" lon="8.5553204"><ele>293.0</ele><time>2026-05-01T08:41:27.763Z</time></trkpt><trkpt lat="39.5497571" lon="8.5551794"><ele>293.0</ele><time>2026-05-01T08:41:28.762Z</time></trkpt><trkpt lat="39.5497347" lon="8.5550408"><ele>293.0</ele><time>2026-05-01T08:41:29.763Z</time></trkpt><trkpt lat="39.5497052" lon="8.5549042"><ele>293.0</ele><time>2026-05-01T08:41:30.762Z</time></trkpt><trkpt lat="39.5496743" lon="8.5547686"><ele>293.0</ele><time>2026-05-01T08:41:31.762Z</time></trkpt><trkpt lat="39.5496343" lon="8.5546271"><ele>290.4</ele><time>2026-05-01T08:41:32.763Z</time></trkpt><trkpt lat="39.5495808" lon="8.5544962"><ele>287.8</ele><time>2026-05-01T08:41:33.764Z</time></trkpt><trkpt lat="39.5495205" lon="8.5543838"><ele>285.2</ele><time>2026-05-01T08:41:34.764Z</time></trkpt><trkpt lat="39.5494541" lon="8.5543028"><ele>282.6</ele><time>2026-05-01T08:41:35.763Z</time></trkpt><trkpt lat="39.5493711" lon="8.5542344"><ele>280.0</ele><time>2026-05-01T08:41:36.763Z</time></trkpt><trkpt lat="39.5492764" lon="8.5541839"><ele>286.0</ele><time>2026-05-01T08:41:37.763Z</time></trkpt><trkpt lat="39.549177" lon="8.5541418"><ele>292.0</ele><time>2026-05-01T08:41:38.763Z</time></trkpt><trkpt lat="39.5490833" lon="8.5540751"><ele>298.0</ele><time>2026-05-01T08:41:39.762Z</time></trkpt><trkpt lat="39.5490093" lon="8.5539832"><ele>304.0</ele><time>2026-05-01T08:41:40.764Z</time></trkpt><trkpt lat="39.5489385" lon="8.5538761"><ele>310.0</ele><time>2026-05-01T08:41:41.761Z</time></trkpt><trkpt lat="39.5488801" lon="8.5537555"><ele>307.2</ele><time>2026-05-01T08:41:42.761Z</time></trkpt><trkpt lat="39.5488352" lon="8.5536255"><ele>304.4</ele><time>2026-05-01T08:41:43.762Z</time></trkpt><trkpt lat="39.5488046" lon="8.553495"><ele>301.6</ele><time>2026-05-01T08:41:44.762Z</time></trkpt><trkpt lat="39.5487929" lon="8.5533601"><ele>298.8</ele><time>2026-05-01T08:41:45.761Z</time></trkpt><trkpt lat="39.5487972" lon="8.5532314"><ele>296.0</ele><time>2026-05-01T08:41:46.763Z</time></trkpt><trkpt lat="39.5488189" lon="8.5531028"><ele>296.0</ele><time>2026-05-01T08:41:47.763Z</time></trkpt><trkpt lat="39.5488502" lon="8.552976"><ele>296.0</ele><time>2026-05-01T08:41:48.762Z</time></trkpt><trkpt lat="39.5488695" lon="8.5528573"><ele>296.0</ele><time>2026-05-01T08:41:49.762Z</time></trkpt><trkpt lat="39.5488638" lon="8.5527426"><ele>296.0</ele><time>2026-05-01T08:41:50.762Z</time></trkpt><trkpt lat="39.5488358" lon="8.5526392"><ele>296.0</ele><time>2026-05-01T08:41:51.761Z</time></trkpt><trkpt lat="39.5487889" lon="8.5525749"><ele>296.0</ele><time>2026-05-01T08:41:52.762Z</time></trkpt><trkpt lat="39.5487164" lon="8.5525451"><ele>299.6</ele><time>2026-05-01T08:41:53.762Z</time></trkpt><trkpt lat="39.5486178" lon="8.5525268"><ele>303.20000000000005</ele><time>2026-05-01T08:41:54.762Z</time></trkpt><trkpt lat="39.5485197" lon="8.5525173"><ele>306.79999999999995</ele><time>2026-05-01T08:41:55.761Z</time></trkpt><trkpt lat="39.5484248" lon="8.5525048"><ele>310.4</ele><time>2026-05-01T08:41:56.762Z</time></trkpt><trkpt lat="39.5483297" lon="8.5524876"><ele>314.0</ele><time>2026-05-01T08:41:57.762Z</time></trkpt><trkpt lat="39.5482336" lon="8.5524706"><ele>314.0</ele><time>2026-05-01T08:41:58.761Z</time></trkpt><trkpt lat="39.5481437" lon="8.5524537"><ele>314.0</ele><time>2026-05-01T08:41:59.761Z</time></trkpt><trkpt lat="39.5480522" lon="8.5524346"><ele>314.0</ele><time>2026-05-01T08:42:00.763Z</time></trkpt><trkpt lat="39.5479595" lon="8.5524111"><ele>314.0</ele><time>2026-05-01T08:42:01.761Z</time></trkpt><trkpt lat="39.5478674" lon="8.5523817"><ele>314.0</ele><time>2026-05-01T08:42:02.762Z</time></trkpt><trkpt lat="39.5477826" lon="8.5523391"><ele>314.4</ele><time>2026-05-01T08:42:03.762Z</time></trkpt><trkpt lat="39.5477012" lon="8.5522815"><ele>314.79999999999995</ele><time>2026-05-01T08:42:04.762Z</time></trkpt><trkpt lat="39.5476209" lon="8.5522108"><ele>315.20000000000005</ele><time>2026-05-01T08:42:05.761Z</time></trkpt><trkpt lat="39.5475487" lon="8.55213"><ele>315.6</ele><time>2026-05-01T08:42:06.762Z</time></trkpt><trkpt lat="39.5474861" lon="8.552037"><ele>316.0</ele><time>2026-05-01T08:42:07.761Z</time></trkpt><trkpt lat="39.547436" lon="8.5519346"><ele>316.0</ele><time>2026-05-01T08:42:08.761Z</time></trkpt><trkpt lat="39.5473947" lon="8.5518231"><ele>316.0</ele><time>2026-05-01T08:42:09.761Z</time></trkpt><trkpt lat="39.547362" lon="8.5517014"><ele>316.0</ele><time>2026-05-01T08:42:10.762Z</time></trkpt><trkpt lat="39.5473382" lon="8.551575"><ele>316.0</ele><time>2026-05-01T08:42:11.761Z</time></trkpt><trkpt lat="39.5473205" lon="8.5514471"><ele>316.0</ele><time>2026-05-01T08:42:12.761Z</time></trkpt><trkpt lat="39.5473062" lon="8.5513199"><ele>316.2</ele><time>2026-05-01T08:42:13.762Z</time></trkpt><trkpt lat="39.5472949" lon="8.5511906"><ele>316.40000000000003</ele><time>2026-05-01T08:42:14.763Z</time></trkpt><trkpt lat="39.547283" lon="8.5510688"><ele>316.6</ele><time>2026-05-01T08:42:15.763Z</time></trkpt><trkpt lat="39.5472982" lon="8.5509435"><ele>316.8</ele><time>2026-05-01T08:42:16.761Z</time></trkpt><trkpt lat="39.5473072" lon="8.5508152"><ele>317.0</ele><time>2026-05-01T08:42:17.761Z</time></trkpt><trkpt lat="39.5473296" lon="8.5506876"><ele>317.0</ele><time>2026-05-01T08:42:18.762Z</time></trkpt><trkpt lat="39.5473446" lon="8.5505542"><ele>317.0</ele><time>2026-05-01T08:42:19.763Z</time></trkpt><trkpt lat="39.5473635" lon="8.5504195"><ele>317.0</ele><time>2026-05-01T08:42:20.762Z</time></trkpt><trkpt lat="39.547384" lon="8.5502951"><ele>317.0</ele><time>2026-05-01T08:42:21.762Z</time></trkpt><trkpt lat="39.5473961" lon="8.5501722"><ele>317.0</ele><time>2026-05-01T08:42:22.762Z</time></trkpt><trkpt lat="39.5473894" lon="8.5500542"><ele>318.1666666666667</ele><time>2026-05-01T08:42:23.762Z</time></trkpt><trkpt lat="39.5473643" lon="8.5499455"><ele>319.33333333333337</ele><time>2026-05-01T08:42:24.762Z</time></trkpt><trkpt lat="39.5473165" lon="8.549856"><ele>320.5</ele><time>2026-05-01T08:42:25.762Z</time></trkpt><trkpt lat="39.5472612" lon="8.5497991"><ele>321.6666666666667</ele><time>2026-05-01T08:42:26.763Z</time></trkpt><trkpt lat="39.5471806" lon="8.5497426"><ele>322.8333333333333</ele><time>2026-05-01T08:42:27.762Z</time></trkpt><trkpt lat="39.5470788" lon="8.5497112"><ele>324.0</ele><time>2026-05-01T08:42:28.762Z</time></trkpt><trkpt lat="39.5469739" lon="8.5496933"><ele>325.0</ele><time>2026-05-01T08:42:29.763Z</time></trkpt><trkpt lat="39.5468908" lon="8.5496561"><ele>326.0</ele><time>2026-05-01T08:42:30.761Z</time></trkpt><trkpt lat="39.5468056" lon="8.5495875"><ele>327.0</ele><time>2026-05-01T08:42:31.761Z</time></trkpt><trkpt lat="39.546735" lon="8.5494993"><ele>328.0</ele><time>2026-05-01T08:42:32.761Z</time></trkpt><trkpt lat="39.5466863" lon="8.5493878"><ele>329.0</ele><time>2026-05-01T08:42:33.761Z</time></trkpt><trkpt lat="39.5466511" lon="8.5492595"><ele>329.0</ele><time>2026-05-01T08:42:34.763Z</time></trkpt><trkpt lat="39.5466311" lon="8.5491125"><ele>329.0</ele><time>2026-05-01T08:42:35.762Z</time></trkpt><trkpt lat="39.5466112" lon="8.5489557"><ele>329.0</ele><time>2026-05-01T08:42:36.763Z</time></trkpt><trkpt lat="39.546583" lon="8.5487997"><ele>329.0</ele><time>2026-05-01T08:42:37.763Z</time></trkpt><trkpt lat="39.5465409" lon="8.5486425"><ele>328.2</ele><time>2026-05-01T08:42:38.762Z</time></trkpt><trkpt lat="39.5464952" lon="8.5484924"><ele>327.4</ele><time>2026-05-01T08:42:39.762Z</time></trkpt><trkpt lat="39.5464429" lon="8.5483619"><ele>326.6</ele><time>2026-05-01T08:42:40.761Z</time></trkpt><trkpt lat="39.5463834" lon="8.5482595"><ele>325.8</ele><time>2026-05-01T08:42:41.762Z</time></trkpt><trkpt lat="39.5463001" lon="8.5481626"><ele>325.0</ele><time>2026-05-01T08:42:42.761Z</time></trkpt><trkpt lat="39.546201" lon="8.5480797"><ele>326.4</ele><time>2026-05-01T08:42:43.762Z</time></trkpt><trkpt lat="39.5461012" lon="8.5480053"><ele>327.8</ele><time>2026-05-01T08:42:44.761Z</time></trkpt><trkpt lat="39.546003" lon="8.5479399"><ele>329.20000000000005</ele><time>2026-05-01T08:42:45.762Z</time></trkpt><trkpt lat="39.5458985" lon="8.5478928"><ele>330.6</ele><time>2026-05-01T08:42:46.761Z</time></trkpt><trkpt lat="39.5457968" lon="8.5478606"><ele>332.0</ele><time>2026-05-01T08:42:47.762Z</time></trkpt><trkpt lat="39.5457026" lon="8.547814"><ele>332.0</ele><time>2026-05-01T08:42:48.763Z</time></trkpt><trkpt lat="39.5456265" lon="8.5477473"><ele>332.0</ele><time>2026-05-01T08:42:49.763Z</time></trkpt><trkpt lat="39.545569" lon="8.5476675"><ele>332.0</ele><time>2026-05-01T08:42:50.762Z</time></trkpt><trkpt lat="39.5455197" lon="8.5475569"><ele>332.0</ele><time>2026-05-01T08:42:51.761Z</time></trkpt><trkpt lat="39.5454928" lon="8.5474447"><ele>332.0</ele><time>2026-05-01T08:42:52.761Z</time></trkpt><trkpt lat="39.5454678" lon="8.5473076"><ele>332.0</ele><time>2026-05-01T08:42:53.762Z</time></trkpt><trkpt lat="39.5454294" lon="8.5471862"><ele>332.0</ele><time>2026-05-01T08:42:54.762Z</time></trkpt><trkpt lat="39.5453663" lon="8.5470833"><ele>332.0</ele><time>2026-05-01T08:42:55.763Z</time></trkpt><trkpt lat="39.545289" lon="8.547005"><ele>332.0</ele><time>2026-05-01T08:42:56.762Z</time></trkpt><trkpt lat="39.5451902" lon="8.5469451"><ele>332.0</ele><time>2026-05-01T08:42:57.763Z</time></trkpt><trkpt lat="39.5450702" lon="8.5468985"><ele>334.0</ele><time>2026-05-01T08:42:58.763Z</time></trkpt><trkpt lat="39.5449448" lon="8.5468667"><ele>336.0</ele><time>2026-05-01T08:42:59.762Z</time></trkpt><trkpt lat="39.5448246" lon="8.5468333"><ele>338.0</ele><time>2026-05-01T08:43:00.762Z</time></trkpt><trkpt lat="39.544706" lon="8.5467845"><ele>340.0</ele><time>2026-05-01T08:43:01.762Z</time></trkpt><trkpt lat="39.5445994" lon="8.5467376"><ele>338.4</ele><time>2026-05-01T08:43:02.762Z</time></trkpt><trkpt lat="39.5445112" lon="8.5466895"><ele>336.8</ele><time>2026-05-01T08:43:03.762Z</time></trkpt><trkpt lat="39.5444494" lon="8.5466421"><ele>335.20000000000005</ele><time>2026-05-01T08:43:04.763Z</time></trkpt><trkpt lat="39.5443762" lon="8.5464934"><ele>333.6</ele><time>2026-05-01T08:43:06.763Z</time></trkpt><trkpt lat="39.5443437" lon="8.5463758"><ele>332.0</ele><time>2026-05-01T08:43:07.762Z</time></trkpt><trkpt lat="39.5443097" lon="8.546271"><ele>333.1666666666667</ele><time>2026-05-01T08:43:08.762Z</time></trkpt><trkpt lat="39.544265" lon="8.5461786"><ele>334.33333333333337</ele><time>2026-05-01T08:43:09.761Z</time></trkpt><trkpt lat="39.5442104" lon="8.5460927"><ele>335.5</ele><time>2026-05-01T08:43:10.761Z</time></trkpt><trkpt lat="39.5441444" lon="8.5460028"><ele>336.6666666666667</ele><time>2026-05-01T08:43:11.762Z</time></trkpt><trkpt lat="39.5440743" lon="8.5459302"><ele>337.8333333333333</ele><time>2026-05-01T08:43:12.763Z</time></trkpt><trkpt lat="39.5440026" lon="8.5458666"><ele>339.0</ele><time>2026-05-01T08:43:13.763Z</time></trkpt><trkpt lat="39.5439111" lon="8.5458128"><ele>339.0</ele><time>2026-05-01T08:43:14.763Z</time></trkpt><trkpt lat="39.5438061" lon="8.5457654"><ele>339.0</ele><time>2026-05-01T08:43:15.763Z</time></trkpt><trkpt lat="39.5436967" lon="8.5457322"><ele>339.0</ele><time>2026-05-01T08:43:16.763Z</time></trkpt><trkpt lat="39.5435975" lon="8.5456957"><ele>339.0</ele><time>2026-05-01T08:43:17.763Z</time></trkpt><trkpt lat="39.5435048" lon="8.5456409"><ele>339.0</ele><time>2026-05-01T08:43:18.761Z</time></trkpt><trkpt lat="39.54343" lon="8.5455755"><ele>335.0</ele><time>2026-05-01T08:43:19.762Z</time></trkpt><trkpt lat="39.5433833" lon="8.5455103"><ele>331.0</ele><time>2026-05-01T08:43:20.762Z</time></trkpt><trkpt lat="39.5433765" lon="8.545394"><ele>327.0</ele><time>2026-05-01T08:43:22.762Z</time></trkpt><trkpt lat="39.5434446" lon="8.5453217"><ele>323.0</ele><time>2026-05-01T08:43:24.763Z</time></trkpt><trkpt lat="39.5435756" lon="8.5453433"><ele>319.0</ele><time>2026-05-01T08:43:26.762Z</time></trkpt><trkpt lat="39.5436466" lon="8.5453455"><ele>319.0</ele><time>2026-05-01T08:43:27.763Z</time></trkpt><trkpt lat="39.5437053" lon="8.5453159"><ele>319.0</ele><time>2026-05-01T08:43:28.763Z</time></trkpt><trkpt lat="39.5437548" lon="8.5452594"><ele>319.0</ele><time>2026-05-01T08:43:29.763Z</time></trkpt><trkpt lat="39.5437941" lon="8.545174"><ele>319.0</ele><time>2026-05-01T08:43:30.762Z</time></trkpt><trkpt lat="39.5438251" lon="8.5450746"><ele>319.0</ele><time>2026-05-01T08:43:31.763Z</time></trkpt><trkpt lat="39.5438492" lon="8.5449557"><ele>319.0</ele><time>2026-05-01T08:43:32.761Z</time></trkpt><trkpt lat="39.5438511" lon="8.544834"><ele>317.59999999999997</ele><time>2026-05-01T08:43:33.761Z</time></trkpt><trkpt lat="39.5438418" lon="8.5447178"><ele>316.2</ele><time>2026-05-01T08:43:34.762Z</time></trkpt><trkpt lat="39.5438285" lon="8.5446026"><ele>314.79999999999995</ele><time>2026-05-01T08:43:35.763Z</time></trkpt><trkpt lat="39.5437988" lon="8.5444676"><ele>313.4</ele><time>2026-05-01T08:43:36.763Z</time></trkpt><trkpt lat="39.5437586" lon="8.5443265"><ele>312.0</ele><time>2026-05-01T08:43:37.763Z</time></trkpt><trkpt lat="39.5437053" lon="8.5441903"><ele>312.0</ele><time>2026-05-01T08:43:38.762Z</time></trkpt><trkpt lat="39.5436411" lon="8.5440526"><ele>312.0</ele><time>2026-05-01T08:43:39.763Z</time></trkpt><trkpt lat="39.5435712" lon="8.5439232"><ele>312.0</ele><time>2026-05-01T08:43:40.762Z</time></trkpt><trkpt lat="39.5434921" lon="8.5438009"><ele>312.0</ele><time>2026-05-01T08:43:41.763Z</time></trkpt><trkpt lat="39.5434124" lon="8.5436818"><ele>314.75</ele><time>2026-05-01T08:43:42.762Z</time></trkpt><trkpt lat="39.5433327" lon="8.5435568"><ele>317.5</ele><time>2026-05-01T08:43:43.762Z</time></trkpt><trkpt lat="39.5432454" lon="8.5434343"><ele>320.25</ele><time>2026-05-01T08:43:44.762Z</time></trkpt><trkpt lat="39.5431578" lon="8.5433174"><ele>323.0</ele><time>2026-05-01T08:43:45.762Z</time></trkpt><trkpt lat="39.5430694" lon="8.5432216"><ele>323.0</ele><time>2026-05-01T08:43:46.762Z</time></trkpt><trkpt lat="39.5429905" lon="8.5431365"><ele>323.0</ele><time>2026-05-01T08:43:47.763Z</time></trkpt><trkpt lat="39.5429194" lon="8.5430667"><ele>323.0</ele><time>2026-05-01T08:43:48.763Z</time></trkpt><trkpt lat="39.5428426" lon="8.5430226"><ele>323.0</ele><time>2026-05-01T08:43:49.762Z</time></trkpt><trkpt lat="39.5427673" lon="8.5430054"><ele>323.0</ele><time>2026-05-01T08:43:50.761Z</time></trkpt><trkpt lat="39.5426888" lon="8.5430143"><ele>323.0</ele><time>2026-05-01T08:43:51.762Z</time></trkpt><trkpt lat="39.5425947" lon="8.5430435"><ele>318.75</ele><time>2026-05-01T08:43:52.761Z</time></trkpt><trkpt lat="39.5424975" lon="8.5430913"><ele>314.5</ele><time>2026-05-01T08:43:53.762Z</time></trkpt><trkpt lat="39.542394" lon="8.5431484"><ele>310.25</ele><time>2026-05-01T08:43:54.762Z</time></trkpt><trkpt lat="39.5422872" lon="8.5432111"><ele>306.0</ele><time>2026-05-01T08:43:55.762Z</time></trkpt><trkpt lat="39.5421801" lon="8.5432725"><ele>306.0</ele><time>2026-05-01T08:43:56.763Z</time></trkpt><trkpt lat="39.542085" lon="8.5433283"><ele>306.0</ele><time>2026-05-01T08:43:57.761Z</time></trkpt><trkpt lat="39.5419968" lon="8.5433673"><ele>306.0</ele><time>2026-05-01T08:43:58.761Z</time></trkpt><trkpt lat="39.5419149" lon="8.5433811"><ele>306.0</ele><time>2026-05-01T08:43:59.761Z</time></trkpt><trkpt lat="39.541836" lon="8.5433716"><ele>306.0</ele><time>2026-05-01T08:44:00.761Z</time></trkpt><trkpt lat="39.5417432" lon="8.5433363"><ele>305.2</ele><time>2026-05-01T08:44:01.761Z</time></trkpt><trkpt lat="39.5416403" lon="8.5432822"><ele>304.40000000000003</ele><time>2026-05-01T08:44:02.762Z</time></trkpt><trkpt lat="39.5415263" lon="8.5432269"><ele>303.6</ele><time>2026-05-01T08:44:03.763Z</time></trkpt><trkpt lat="39.5414284" lon="8.5431883"><ele>302.8</ele><time>2026-05-01T08:44:04.762Z</time></trkpt><trkpt lat="39.5413436" lon="8.5431385"><ele>302.0</ele><time>2026-05-01T08:44:05.763Z</time></trkpt><trkpt lat="39.5412692" lon="8.5430756"><ele>299.4</ele><time>2026-05-01T08:44:06.761Z</time></trkpt><trkpt lat="39.5411997" lon="8.5429972"><ele>296.79999999999995</ele><time>2026-05-01T08:44:07.761Z</time></trkpt><trkpt lat="39.541133" lon="8.5428954"><ele>294.2</ele><time>2026-05-01T08:44:08.762Z</time></trkpt><trkpt lat="39.541063" lon="8.5427776"><ele>291.59999999999997</ele><time>2026-05-01T08:44:09.762Z</time></trkpt><trkpt lat="39.5409952" lon="8.5426367"><ele>289.0</ele><time>2026-05-01T08:44:10.762Z</time></trkpt><trkpt lat="39.5409293" lon="8.5424935"><ele>289.0</ele><time>2026-05-01T08:44:11.761Z</time></trkpt><trkpt lat="39.5408684" lon="8.5423541"><ele>289.0</ele><time>2026-05-01T08:44:12.763Z</time></trkpt><trkpt lat="39.5408038" lon="8.5422259"><ele>289.0</ele><time>2026-05-01T08:44:13.763Z</time></trkpt><trkpt lat="39.5407421" lon="8.5421092"><ele>289.0</ele><time>2026-05-01T08:44:14.761Z</time></trkpt><trkpt lat="39.5406918" lon="8.5419967"><ele>289.8333333333333</ele><time>2026-05-01T08:44:15.762Z</time></trkpt><trkpt lat="39.540651" lon="8.5419018"><ele>290.66666666666663</ele><time>2026-05-01T08:44:16.762Z</time></trkpt><trkpt lat="39.5406347" lon="8.5418152"><ele>291.5</ele><time>2026-05-01T08:44:17.762Z</time></trkpt><trkpt lat="39.5406367" lon="8.5417312"><ele>292.3333333333333</ele><time>2026-05-01T08:44:18.763Z</time></trkpt><trkpt lat="39.5406543" lon="8.5416374"><ele>293.1666666666667</ele><time>2026-05-01T08:44:19.763Z</time></trkpt><trkpt lat="39.5407022" lon="8.5415333"><ele>294.0</ele><time>2026-05-01T08:44:20.761Z</time></trkpt><trkpt lat="39.5407394" lon="8.5414047"><ele>294.0</ele><time>2026-05-01T08:44:21.762Z</time></trkpt><trkpt lat="39.5407652" lon="8.5412683"><ele>294.0</ele><time>2026-05-01T08:44:22.761Z</time></trkpt><trkpt lat="39.5407829" lon="8.5411272"><ele>294.0</ele><time>2026-05-01T08:44:23.762Z</time></trkpt><trkpt lat="39.540808" lon="8.5409842"><ele>294.0</ele><time>2026-05-01T08:44:24.763Z</time></trkpt><trkpt lat="39.5408526" lon="8.5408441"><ele>294.0</ele><time>2026-05-01T08:44:25.762Z</time></trkpt><trkpt lat="39.5409006" lon="8.5407068"><ele>294.0</ele><time>2026-05-01T08:44:26.762Z</time></trkpt><trkpt lat="39.5409555" lon="8.5405932"><ele>294.0</ele><time>2026-05-01T08:44:27.762Z</time></trkpt><trkpt lat="39.5410059" lon="8.5404927"><ele>294.0</ele><time>2026-05-01T08:44:28.762Z</time></trkpt><trkpt lat="39.541051" lon="8.5403978"><ele>294.0</ele><time>2026-05-01T08:44:29.763Z</time></trkpt><trkpt lat="39.5410993" lon="8.5403281"><ele>294.0</ele><time>2026-05-01T08:44:30.762Z</time></trkpt><trkpt lat="39.5411645" lon="8.540276"><ele>294.0</ele><time>2026-05-01T08:44:31.762Z</time></trkpt><trkpt lat="39.5412502" lon="8.5402315"><ele>294.0</ele><time>2026-05-01T08:44:32.761Z</time></trkpt><trkpt lat="39.5413295" lon="8.5402006"><ele>294.0</ele><time>2026-05-01T08:44:33.762Z</time></trkpt><trkpt lat="39.5413931" lon="8.5401647"><ele>294.0</ele><time>2026-05-01T08:44:34.763Z</time></trkpt><trkpt lat="39.5414454" lon="8.5401125"><ele>294.0</ele><time>2026-05-01T08:44:35.763Z</time></trkpt><trkpt lat="39.5414825" lon="8.5400335"><ele>294.0</ele><time>2026-05-01T08:44:36.763Z</time></trkpt><trkpt lat="39.5415017" lon="8.5399416"><ele>294.0</ele><time>2026-05-01T08:44:37.761Z</time></trkpt><trkpt lat="39.5414968" lon="8.5398494"><ele>294.0</ele><time>2026-05-01T08:44:38.762Z</time></trkpt><trkpt lat="39.5414184" lon="8.5397192"><ele>294.0</ele><time>2026-05-01T08:44:40.763Z</time></trkpt><trkpt lat="39.5413315" lon="8.5396636"><ele>294.0</ele><time>2026-05-01T08:44:41.761Z</time></trkpt><trkpt lat="39.5412224" lon="8.5396183"><ele>294.0</ele><time>2026-05-01T08:44:42.762Z</time></trkpt><trkpt lat="39.5411145" lon="8.5395718"><ele>294.0</ele><time>2026-05-01T08:44:43.761Z</time></trkpt><trkpt lat="39.5410101" lon="8.5395281"><ele>294.0</ele><time>2026-05-01T08:44:44.762Z</time></trkpt><trkpt lat="39.540913" lon="8.5395053"><ele>293.5</ele><time>2026-05-01T08:44:45.762Z</time></trkpt><trkpt lat="39.540799" lon="8.5395059"><ele>293.0</ele><time>2026-05-01T08:44:46.761Z</time></trkpt><trkpt lat="39.5406855" lon="8.5395218"><ele>292.5</ele><time>2026-05-01T08:44:47.762Z</time></trkpt><trkpt lat="39.5405634" lon="8.5395331"><ele>292.0</ele><time>2026-05-01T08:44:48.763Z</time></trkpt><trkpt lat="39.5404348" lon="8.539534"><ele>288.4</ele><time>2026-05-01T08:44:49.761Z</time></trkpt><trkpt lat="39.5403166" lon="8.5395317"><ele>284.79999999999995</ele><time>2026-05-01T08:44:50.762Z</time></trkpt><trkpt lat="39.5402099" lon="8.5395335"><ele>281.2</ele><time>2026-05-01T08:44:51.762Z</time></trkpt><trkpt lat="39.5401132" lon="8.5395242"><ele>277.59999999999997</ele><time>2026-05-01T08:44:52.762Z</time></trkpt><trkpt lat="39.5400285" lon="8.5395071"><ele>274.0</ele><time>2026-05-01T08:44:53.761Z</time></trkpt><trkpt lat="39.5399481" lon="8.5394657"><ele>274.0</ele><time>2026-05-01T08:44:54.763Z</time></trkpt><trkpt lat="39.5398564" lon="8.5393987"><ele>274.0</ele><time>2026-05-01T08:44:55.761Z</time></trkpt><trkpt lat="39.5397609" lon="8.5393088"><ele>274.0</ele><time>2026-05-01T08:44:56.761Z</time></trkpt><trkpt lat="39.5396493" lon="8.5392175"><ele>274.0</ele><time>2026-05-01T08:44:57.761Z</time></trkpt><trkpt lat="39.5395281" lon="8.5391408"><ele>272.0</ele><time>2026-05-01T08:44:58.762Z</time></trkpt><trkpt lat="39.5394336" lon="8.5390657"><ele>270.0</ele><time>2026-05-01T08:44:59.762Z</time></trkpt><trkpt lat="39.5393543" lon="8.5389933"><ele>268.0</ele><time>2026-05-01T08:45:00.762Z</time></trkpt><trkpt lat="39.5393006" lon="8.5389224"><ele>266.0</ele><time>2026-05-01T08:45:01.762Z</time></trkpt><trkpt lat="39.5392718" lon="8.5388443"><ele>264.0</ele><time>2026-05-01T08:45:02.762Z</time></trkpt><trkpt lat="39.5392872" lon="8.5386769"><ele>264.0</ele><time>2026-05-01T08:45:04.761Z</time></trkpt><trkpt lat="39.5393338" lon="8.5385613"><ele>264.0</ele><time>2026-05-01T08:45:05.762Z</time></trkpt><trkpt lat="39.5393552" lon="8.5384693"><ele>264.0</ele><time>2026-05-01T08:45:06.762Z</time></trkpt><trkpt lat="39.539335" lon="8.5383309"><ele>264.0</ele><time>2026-05-01T08:45:08.761Z</time></trkpt><trkpt lat="39.5392833" lon="8.5382776"><ele>264.0</ele><time>2026-05-01T08:45:09.761Z</time></trkpt><trkpt lat="39.5392074" lon="8.538248"><ele>264.0</ele><time>2026-05-01T08:45:10.762Z</time></trkpt><trkpt lat="39.5391069" lon="8.538234"><ele>264.0</ele><time>2026-05-01T08:45:11.762Z</time></trkpt><trkpt lat="39.5390291" lon="8.5382098"><ele>264.0</ele><time>2026-05-01T08:45:12.763Z</time></trkpt><trkpt lat="39.5389452" lon="8.5381704"><ele>264.0</ele><time>2026-05-01T08:45:13.762Z</time></trkpt><trkpt lat="39.5388782" lon="8.5381169"><ele>264.0</ele><time>2026-05-01T08:45:14.763Z</time></trkpt><trkpt lat="39.5388283" lon="8.5380473"><ele>264.0</ele><time>2026-05-01T08:45:15.761Z</time></trkpt><trkpt lat="39.5387961" lon="8.5379671"><ele>264.0</ele><time>2026-05-01T08:45:16.762Z</time></trkpt><trkpt lat="39.5387824" lon="8.5378737"><ele>265.1666666666667</ele><time>2026-05-01T08:45:17.762Z</time></trkpt><trkpt lat="39.5387795" lon="8.5377725"><ele>266.3333333333333</ele><time>2026-05-01T08:45:18.763Z</time></trkpt><trkpt lat="39.5387768" lon="8.5376908"><ele>267.5</ele><time>2026-05-01T08:45:19.761Z</time></trkpt><trkpt lat="39.538737" lon="8.5375926"><ele>268.66666666666663</ele><time>2026-05-01T08:45:21.762Z</time></trkpt><trkpt lat="39.5386569" lon="8.5376089"><ele>269.8333333333333</ele><time>2026-05-01T08:45:24.763Z</time></trkpt><trkpt lat="39.5385523" lon="8.5376984"><ele>271.0</ele><time>2026-05-01T08:45:26.763Z</time></trkpt><trkpt lat="39.5385017" lon="8.5377541"><ele>268.66666666666663</ele><time>2026-05-01T08:45:27.762Z</time></trkpt><trkpt lat="39.5384477" lon="8.5378052"><ele>266.3333333333333</ele><time>2026-05-01T08:45:28.762Z</time></trkpt><trkpt lat="39.5383816" lon="8.5378482"><ele>264.0</ele><time>2026-05-01T08:45:29.762Z</time></trkpt><trkpt lat="39.5383191" lon="8.5378649"><ele>261.6666666666667</ele><time>2026-05-01T08:45:30.762Z</time></trkpt><trkpt lat="39.5382019" lon="8.5378024"><ele>259.33333333333337</ele><time>2026-05-01T08:45:32.762Z</time></trkpt><trkpt lat="39.5381465" lon="8.5377347"><ele>257.0</ele><time>2026-05-01T08:45:33.762Z</time></trkpt><trkpt lat="39.5380974" lon="8.5376476"><ele>257.0</ele><time>2026-05-01T08:45:34.762Z</time></trkpt><trkpt lat="39.5380461" lon="8.5375496"><ele>257.0</ele><time>2026-05-01T08:45:35.762Z</time></trkpt><trkpt lat="39.5379942" lon="8.5374497"><ele>257.0</ele><time>2026-05-01T08:45:36.763Z</time></trkpt><trkpt lat="39.5379344" lon="8.5373512"><ele>257.0</ele><time>2026-05-01T08:45:37.761Z</time></trkpt><trkpt lat="39.5378707" lon="8.5372542"><ele>257.0</ele><time>2026-05-01T08:45:38.762Z</time></trkpt><trkpt lat="39.5378047" lon="8.5371587"><ele>254.2</ele><time>2026-05-01T08:45:39.763Z</time></trkpt><trkpt lat="39.5377316" lon="8.5370603"><ele>251.39999999999998</ele><time>2026-05-01T08:45:40.763Z</time></trkpt><trkpt lat="39.5376556" lon="8.5369636"><ele>248.60000000000002</ele><time>2026-05-01T08:45:41.762Z</time></trkpt><trkpt lat="39.5375887" lon="8.5368767"><ele>245.8</ele><time>2026-05-01T08:45:42.762Z</time></trkpt><trkpt lat="39.5375292" lon="8.5367938"><ele>243.0</ele><time>2026-05-01T08:45:43.762Z</time></trkpt><trkpt lat="39.5374833" lon="8.5367154"><ele>242.66666666666666</ele><time>2026-05-01T08:45:44.762Z</time></trkpt><trkpt lat="39.5374561" lon="8.5366394"><ele>242.33333333333331</ele><time>2026-05-01T08:45:45.762Z</time></trkpt><trkpt lat="39.5374645" lon="8.5364734"><ele>242.0</ele><time>2026-05-01T08:45:47.762Z</time></trkpt><trkpt lat="39.5374995" lon="8.5363818"><ele>241.66666666666666</ele><time>2026-05-01T08:45:48.761Z</time></trkpt><trkpt lat="39.5375449" lon="8.5362906"><ele>241.33333333333331</ele><time>2026-05-01T08:45:49.76Z</time></trkpt><trkpt lat="39.5376022" lon="8.5362109"><ele>241.0</ele><time>2026-05-01T08:45:50.762Z</time></trkpt><trkpt lat="39.5376604" lon="8.5361162"><ele>241.8</ele><time>2026-05-01T08:45:51.762Z</time></trkpt><trkpt lat="39.5377103" lon="8.5360321"><ele>242.60000000000002</ele><time>2026-05-01T08:45:52.761Z</time></trkpt><trkpt lat="39.5377574" lon="8.5359564"><ele>243.4</ele><time>2026-05-01T08:45:53.761Z</time></trkpt><trkpt lat="39.5377915" lon="8.5358219"><ele>244.2</ele><time>2026-05-01T08:45:55.761Z</time></trkpt><trkpt lat="39.5377273" lon="8.535732"><ele>245.0</ele><time>2026-05-01T08:45:57.76Z</time></trkpt><trkpt lat="39.5376222" lon="8.5357522"><ele>245.00000000000003</ele><time>2026-05-01T08:45:59.76Z</time></trkpt><trkpt lat="39.5375701" lon="8.5357991"><ele>245.0</ele><time>2026-05-01T08:46:00.762Z</time></trkpt><trkpt lat="39.5375106" lon="8.5358491"><ele>245.0</ele><time>2026-05-01T08:46:01.76Z</time></trkpt><trkpt lat="39.537438" lon="8.5358966"><ele>245.0</ele><time>2026-05-01T08:46:02.761Z</time></trkpt><trkpt lat="39.5373598" lon="8.5359576"><ele>245.00000000000003</ele><time>2026-05-01T08:46:03.761Z</time></trkpt><trkpt lat="39.5372862" lon="8.5360333"><ele>245.0</ele><time>2026-05-01T08:46:04.762Z</time></trkpt><trkpt lat="39.5372051" lon="8.5361183"><ele>245.00000000000003</ele><time>2026-05-01T08:46:05.761Z</time></trkpt><trkpt lat="39.5371286" lon="8.5362003"><ele>245.0</ele><time>2026-05-01T08:46:06.761Z</time></trkpt><trkpt lat="39.537055" lon="8.5362681"><ele>245.0</ele><time>2026-05-01T08:46:07.761Z</time></trkpt><trkpt lat="39.5369891" lon="8.5363284"><ele>245.0</ele><time>2026-05-01T08:46:08.761Z</time></trkpt><trkpt lat="39.5369185" lon="8.5363626"><ele>245.00000000000003</ele><time>2026-05-01T08:46:09.761Z</time></trkpt><trkpt lat="39.5368488" lon="8.5363729"><ele>245.0</ele><time>2026-05-01T08:46:10.761Z</time></trkpt><trkpt lat="39.5367777" lon="8.5363579"><ele>243.8</ele><time>2026-05-01T08:46:11.761Z</time></trkpt><trkpt lat="39.5367015" lon="8.536318"><ele>242.6</ele><time>2026-05-01T08:46:12.76Z</time></trkpt><trkpt lat="39.536625" lon="8.5362484"><ele>241.39999999999998</ele><time>2026-05-01T08:46:13.761Z</time></trkpt><trkpt lat="39.536562" lon="8.536171"><ele>240.2</ele><time>2026-05-01T08:46:14.761Z</time></trkpt><trkpt lat="39.5364849" lon="8.5360853"><ele>239.0</ele><time>2026-05-01T08:46:15.762Z</time></trkpt><trkpt lat="39.5363973" lon="8.5360115"><ele>239.0</ele><time>2026-05-01T08:46:16.761Z</time></trkpt><trkpt lat="39.5363081" lon="8.5359462"><ele>238.99999999999997</ele><time>2026-05-01T08:46:17.761Z</time></trkpt><trkpt lat="39.5362273" lon="8.5359081"><ele>238.99999999999997</ele><time>2026-05-01T08:46:18.76Z</time></trkpt><trkpt lat="39.536166" lon="8.5358662"><ele>239.0</ele><time>2026-05-01T08:46:19.76Z</time></trkpt><trkpt lat="39.5361101" lon="8.535816"><ele>239.0</ele><time>2026-05-01T08:46:20.76Z</time></trkpt><trkpt lat="39.5360644" lon="8.5356598"><ele>233.79999999999998</ele><time>2026-05-01T08:46:22.762Z</time></trkpt><trkpt lat="39.536068" lon="8.5355649"><ele>228.59999999999997</ele><time>2026-05-01T08:46:23.762Z</time></trkpt><trkpt lat="39.5360857" lon="8.5354485"><ele>223.4</ele><time>2026-05-01T08:46:24.76Z</time></trkpt><trkpt lat="39.5360972" lon="8.5353327"><ele>218.2</ele><time>2026-05-01T08:46:25.761Z</time></trkpt><trkpt lat="39.5360987" lon="8.5352047"><ele>213.0</ele><time>2026-05-01T08:46:26.761Z</time></trkpt><trkpt lat="39.5360833" lon="8.5350773"><ele>213.0</ele><time>2026-05-01T08:46:27.76Z</time></trkpt><trkpt lat="39.5360558" lon="8.5349441"><ele>213.0</ele><time>2026-05-01T08:46:28.761Z</time></trkpt><trkpt lat="39.5360084" lon="8.5348129"><ele>213.0</ele><time>2026-05-01T08:46:29.762Z</time></trkpt><trkpt lat="39.5359596" lon="8.5346933"><ele>213.0</ele><time>2026-05-01T08:46:30.762Z</time></trkpt><trkpt lat="39.5358954" lon="8.5346096"><ele>213.0</ele><time>2026-05-01T08:46:31.761Z</time></trkpt><trkpt lat="39.5358538" lon="8.5345323"><ele>212.8</ele><time>2026-05-01T08:46:32.761Z</time></trkpt><trkpt lat="39.5358342" lon="8.5344527"><ele>212.60000000000002</ele><time>2026-05-01T08:46:33.761Z</time></trkpt><trkpt lat="39.5358353" lon="8.5343424"><ele>212.39999999999998</ele><time>2026-05-01T08:46:34.761Z</time></trkpt><trkpt lat="39.5358641" lon="8.5342263"><ele>212.2</ele><time>2026-05-01T08:46:35.76Z</time></trkpt><trkpt lat="39.5359044" lon="8.5341039"><ele>212.0</ele><time>2026-05-01T08:46:36.761Z</time></trkpt><trkpt lat="39.5359536" lon="8.5339799"><ele>212.0</ele><time>2026-05-01T08:46:37.762Z</time></trkpt><trkpt lat="39.5360072" lon="8.533858"><ele>212.0</ele><time>2026-05-01T08:46:38.762Z</time></trkpt><trkpt lat="39.5360715" lon="8.5337341"><ele>212.0</ele><time>2026-05-01T08:46:39.762Z</time></trkpt><trkpt lat="39.5361406" lon="8.5336168"><ele>212.0</ele><time>2026-05-01T08:46:40.762Z</time></trkpt><trkpt lat="39.5362103" lon="8.5335242"><ele>212.0</ele><time>2026-05-01T08:46:41.76Z</time></trkpt><trkpt lat="39.5362737" lon="8.5334439"><ele>210.50000000000003</ele><time>2026-05-01T08:46:42.76Z</time></trkpt><trkpt lat="39.5363382" lon="8.5333615"><ele>209.0</ele><time>2026-05-01T08:46:43.76Z</time></trkpt><trkpt lat="39.5363796" lon="8.5332868"><ele>207.5</ele><time>2026-05-01T08:46:44.761Z</time></trkpt><trkpt lat="39.5363918" lon="8.5331556"><ele>206.0</ele><time>2026-05-01T08:46:46.76Z</time></trkpt><trkpt lat="39.5363103" lon="8.5330654"><ele>204.50000000000003</ele><time>2026-05-01T08:46:48.762Z</time></trkpt><trkpt lat="39.5362441" lon="8.5330526"><ele>203.0</ele><time>2026-05-01T08:46:49.76Z</time></trkpt><trkpt lat="39.5361539" lon="8.5330655"><ele>203.00000000000003</ele><time>2026-05-01T08:46:50.76Z</time></trkpt><trkpt lat="39.536067" lon="8.5330817"><ele>203.0</ele><time>2026-05-01T08:46:51.762Z</time></trkpt><trkpt lat="39.5359824" lon="8.5330811"><ele>203.0</ele><time>2026-05-01T08:46:52.761Z</time></trkpt><trkpt lat="39.5359083" lon="8.5330644"><ele>203.0</ele><time>2026-05-01T08:46:53.76Z</time></trkpt><trkpt lat="39.535836" lon="8.5330194"><ele>203.00000000000003</ele><time>2026-05-01T08:46:54.762Z</time></trkpt><trkpt lat="39.5357613" lon="8.5329452"><ele>203.0</ele><time>2026-05-01T08:46:55.761Z</time></trkpt><trkpt lat="39.5356816" lon="8.5328586"><ele>206.25</ele><time>2026-05-01T08:46:56.762Z</time></trkpt><trkpt lat="39.5355946" lon="8.5327657"><ele>209.5</ele><time>2026-05-01T08:46:57.762Z</time></trkpt><trkpt lat="39.5355061" lon="8.5326695"><ele>212.75</ele><time>2026-05-01T08:46:58.761Z</time></trkpt><trkpt lat="39.5354208" lon="8.5325622"><ele>216.0</ele><time>2026-05-01T08:46:59.761Z</time></trkpt><trkpt lat="39.5353431" lon="8.5324425"><ele>210.0</ele><time>2026-05-01T08:47:00.761Z</time></trkpt><trkpt lat="39.5352742" lon="8.5323183"><ele>204.0</ele><time>2026-05-01T08:47:01.762Z</time></trkpt><trkpt lat="39.5352192" lon="8.5321843"><ele>198.0</ele><time>2026-05-01T08:47:02.76Z</time></trkpt><trkpt lat="39.535176" lon="8.53204"><ele>192.0</ele><time>2026-05-01T08:47:03.76Z</time></trkpt><trkpt lat="39.535147" lon="8.5318823"><ele>192.0</ele><time>2026-05-01T08:47:04.76Z</time></trkpt><trkpt lat="39.5351246" lon="8.5317158"><ele>192.0</ele><time>2026-05-01T08:47:05.761Z</time></trkpt><trkpt lat="39.5351081" lon="8.5315448"><ele>192.0</ele><time>2026-05-01T08:47:06.76Z</time></trkpt><trkpt lat="39.5350952" lon="8.5313724"><ele>192.0</ele><time>2026-05-01T08:47:07.76Z</time></trkpt><trkpt lat="39.5350786" lon="8.5311989"><ele>191.75</ele><time>2026-05-01T08:47:08.76Z</time></trkpt><trkpt lat="39.5350585" lon="8.5310243"><ele>191.5</ele><time>2026-05-01T08:47:09.76Z</time></trkpt><trkpt lat="39.5350379" lon="8.5308653"><ele>191.25</ele><time>2026-05-01T08:47:10.76Z</time></trkpt><trkpt lat="39.5350123" lon="8.5307244"><ele>191.0</ele><time>2026-05-01T08:47:11.76Z</time></trkpt><trkpt lat="39.5349913" lon="8.5306013"><ele>191.0</ele><time>2026-05-01T08:47:12.762Z</time></trkpt><trkpt lat="39.5349704" lon="8.5304886"><ele>191.0</ele><time>2026-05-01T08:47:13.762Z</time></trkpt><trkpt lat="39.5349351" lon="8.5303897"><ele>191.0</ele><time>2026-05-01T08:47:14.761Z</time></trkpt><trkpt lat="39.5348833" lon="8.5302968"><ele>191.0</ele><time>2026-05-01T08:47:15.761Z</time></trkpt><trkpt lat="39.534814" lon="8.5302081"><ele>191.0</ele><time>2026-05-01T08:47:16.761Z</time></trkpt><trkpt lat="39.5347391" lon="8.5301411"><ele>190.5</ele><time>2026-05-01T08:47:17.76Z</time></trkpt><trkpt lat="39.5346625" lon="8.5300931"><ele>190.0</ele><time>2026-05-01T08:47:18.76Z</time></trkpt><trkpt lat="39.5345836" lon="8.5300705"><ele>189.5</ele><time>2026-05-01T08:47:19.761Z</time></trkpt><trkpt lat="39.5345045" lon="8.5300608"><ele>189.0</ele><time>2026-05-01T08:47:20.761Z</time></trkpt><trkpt lat="39.5344341" lon="8.5300434"><ele>188.5</ele><time>2026-05-01T08:47:21.762Z</time></trkpt><trkpt lat="39.534376" lon="8.5300108"><ele>188.0</ele><time>2026-05-01T08:47:22.761Z</time></trkpt><trkpt lat="39.5343154" lon="8.5298959"><ele>187.0</ele><time>2026-05-01T08:47:24.761Z</time></trkpt><trkpt lat="39.53434" lon="8.5297403"><ele>186.0</ele><time>2026-05-01T08:47:26.76Z</time></trkpt><trkpt lat="39.5343842" lon="8.5296569"><ele>185.0</ele><time>2026-05-01T08:47:27.761Z</time></trkpt><trkpt lat="39.534438" lon="8.5295675"><ele>184.0</ele><time>2026-05-01T08:47:28.761Z</time></trkpt><trkpt lat="39.5344803" lon="8.5294814"><ele>183.0</ele><time>2026-05-01T08:47:29.76Z</time></trkpt><trkpt lat="39.5345055" lon="8.529393"><ele>182.0</ele><time>2026-05-01T08:47:30.761Z</time></trkpt><trkpt lat="39.5345081" lon="8.5293018"><ele>181.8</ele><time>2026-05-01T08:47:31.761Z</time></trkpt><trkpt lat="39.5344872" lon="8.5292109"><ele>181.6</ele><time>2026-05-01T08:47:32.761Z</time></trkpt><trkpt lat="39.5344466" lon="8.5290987"><ele>181.4</ele><time>2026-05-01T08:47:33.761Z</time></trkpt><trkpt lat="39.5344052" lon="8.5289679"><ele>181.20000000000002</ele><time>2026-05-01T08:47:34.761Z</time></trkpt><trkpt lat="39.534359" lon="8.5288268"><ele>181.0</ele><time>2026-05-01T08:47:35.76Z</time></trkpt><trkpt lat="39.5343134" lon="8.528673"><ele>179.25</ele><time>2026-05-01T08:47:36.761Z</time></trkpt><trkpt lat="39.534264" lon="8.5285127"><ele>177.5</ele><time>2026-05-01T08:47:37.761Z</time></trkpt><trkpt lat="39.534213" lon="8.5283419"><ele>175.75</ele><time>2026-05-01T08:47:38.761Z</time></trkpt><trkpt lat="39.5341689" lon="8.5281715"><ele>174.0</ele><time>2026-05-01T08:47:39.761Z</time></trkpt><trkpt lat="39.5341221" lon="8.5280056"><ele>175.25</ele><time>2026-05-01T08:47:40.76Z</time></trkpt><trkpt lat="39.5340735" lon="8.5278462"><ele>176.5</ele><time>2026-05-01T08:47:41.761Z</time></trkpt><trkpt lat="39.534023" lon="8.5276875"><ele>177.75</ele><time>2026-05-01T08:47:42.761Z</time></trkpt><trkpt lat="39.5339751" lon="8.527525"><ele>179.0</ele><time>2026-05-01T08:47:43.762Z</time></trkpt><trkpt lat="39.5339277" lon="8.5273628"><ele>179.0</ele><time>2026-05-01T08:47:44.762Z</time></trkpt><trkpt lat="39.53388" lon="8.5272058"><ele>179.0</ele><time>2026-05-01T08:47:45.76Z</time></trkpt><trkpt lat="39.533839" lon="8.527065"><ele>179.0</ele><time>2026-05-01T08:47:46.762Z</time></trkpt><trkpt lat="39.5338028" lon="8.5269363"><ele>179.0</ele><time>2026-05-01T08:47:47.762Z</time></trkpt><trkpt lat="39.5337692" lon="8.5268171"><ele>178.0</ele><time>2026-05-01T08:47:48.761Z</time></trkpt><trkpt lat="39.5337347" lon="8.5267174"><ele>177.0</ele><time>2026-05-01T08:47:49.762Z</time></trkpt><trkpt lat="39.5337106" lon="8.5266323"><ele>176.0</ele><time>2026-05-01T08:47:50.761Z</time></trkpt><trkpt lat="39.5336764" lon="8.5264902"><ele>175.0</ele><time>2026-05-01T08:47:52.76Z</time></trkpt><trkpt lat="39.5336547" lon="8.5264117"><ele>174.0</ele><time>2026-05-01T08:47:53.761Z</time></trkpt><trkpt lat="39.5336147" lon="8.5262565"><ele>173.28571428571428</ele><time>2026-05-01T08:47:55.762Z</time></trkpt><trkpt lat="39.5335921" lon="8.5261709"><ele>172.57142857142858</ele><time>2026-05-01T08:47:56.76Z</time></trkpt><trkpt lat="39.5335674" lon="8.5260831"><ele>171.85714285714286</ele><time>2026-05-01T08:47:57.76Z</time></trkpt><trkpt lat="39.533544" lon="8.526"><ele>171.14285714285714</ele><time>2026-05-01T08:47:58.761Z</time></trkpt><trkpt lat="39.5335174" lon="8.525913"><ele>170.42857142857142</ele><time>2026-05-01T08:47:59.761Z</time></trkpt><trkpt lat="39.5334923" lon="8.5258242"><ele>169.71428571428572</ele><time>2026-05-01T08:48:00.762Z</time></trkpt><trkpt lat="39.5334707" lon="8.5257361"><ele>169.0</ele><time>2026-05-01T08:48:01.76Z</time></trkpt><trkpt lat="39.5334457" lon="8.5256481"><ele>169.0</ele><time>2026-05-01T08:48:02.761Z</time></trkpt><trkpt lat="39.5334247" lon="8.5255625"><ele>169.0</ele><time>2026-05-01T08:48:03.76Z</time></trkpt><trkpt lat="39.5333992" lon="8.5254822"><ele>169.0</ele><time>2026-05-01T08:48:04.762Z</time></trkpt><trkpt lat="39.533373" lon="8.5253978"><ele>169.0</ele><time>2026-05-01T08:48:05.761Z</time></trkpt><trkpt lat="39.5333497" lon="8.5253119"><ele>169.0</ele><time>2026-05-01T08:48:06.761Z</time></trkpt><trkpt lat="39.53333" lon="8.5252244"><ele>169.0</ele><time>2026-05-01T08:48:07.761Z</time></trkpt><trkpt lat="39.5333029" lon="8.5251337"><ele>169.0</ele><time>2026-05-01T08:48:08.76Z</time></trkpt><trkpt lat="39.5332797" lon="8.5250477"><ele>168.83333333333334</ele><time>2026-05-01T08:48:09.761Z</time></trkpt><trkpt lat="39.5332483" lon="8.5249594"><ele>168.66666666666669</ele><time>2026-05-01T08:48:10.762Z</time></trkpt><trkpt lat="39.5332213" lon="8.5248686"><ele>168.5</ele><time>2026-05-01T08:48:11.761Z</time></trkpt><trkpt lat="39.5331939" lon="8.5247687"><ele>168.33333333333334</ele><time>2026-05-01T08:48:12.76Z</time></trkpt><trkpt lat="39.5331658" lon="8.5246615"><ele>168.16666666666666</ele><time>2026-05-01T08:48:13.761Z</time></trkpt><trkpt lat="39.5331366" lon="8.5245418"><ele>168.0</ele><time>2026-05-01T08:48:14.761Z</time></trkpt><trkpt lat="39.5331001" lon="8.5244139"><ele>167.0</ele><time>2026-05-01T08:48:15.761Z</time></trkpt><trkpt lat="39.5330641" lon="8.5242809"><ele>166.0</ele><time>2026-05-01T08:48:16.761Z</time></trkpt><trkpt lat="39.5330277" lon="8.5241465"><ele>165.0</ele><time>2026-05-01T08:48:17.761Z</time></trkpt><trkpt lat="39.5329887" lon="8.5240109"><ele>164.0</ele><time>2026-05-01T08:48:18.761Z</time></trkpt><trkpt lat="39.5329399" lon="8.5238818"><ele>163.0</ele><time>2026-05-01T08:48:19.761Z</time></trkpt><trkpt lat="39.5328849" lon="8.5237592"><ele>163.0</ele><time>2026-05-01T08:48:20.762Z</time></trkpt><trkpt lat="39.5328256" lon="8.5236488"><ele>163.0</ele><time>2026-05-01T08:48:21.76Z</time></trkpt><trkpt lat="39.5327565" lon="8.5235567"><ele>163.0</ele><time>2026-05-01T08:48:22.76Z</time></trkpt><trkpt lat="39.5326715" lon="8.5234775"><ele>163.0</ele><time>2026-05-01T08:48:23.76Z</time></trkpt><trkpt lat="39.5325744" lon="8.5234147"><ele>163.0</ele><time>2026-05-01T08:48:24.762Z</time></trkpt><trkpt lat="39.5324754" lon="8.5233462"><ele>163.0</ele><time>2026-05-01T08:48:25.761Z</time></trkpt><trkpt lat="39.532379" lon="8.5232731"><ele>163.0</ele><time>2026-05-01T08:48:26.762Z</time></trkpt><trkpt lat="39.5322919" lon="8.5231841"><ele>163.0</ele><time>2026-05-01T08:48:27.761Z</time></trkpt><trkpt lat="39.5322128" lon="8.5230816"><ele>163.0</ele><time>2026-05-01T08:48:28.761Z</time></trkpt><trkpt lat="39.5321479" lon="8.5229685"><ele>163.0</ele><time>2026-05-01T08:48:29.76Z</time></trkpt><trkpt lat="39.5321041" lon="8.5228504"><ele>163.60000000000002</ele><time>2026-05-01T08:48:30.76Z</time></trkpt><trkpt lat="39.5320816" lon="8.5227297"><ele>164.20000000000002</ele><time>2026-05-01T08:48:31.76Z</time></trkpt><trkpt lat="39.5320755" lon="8.5225988"><ele>164.8</ele><time>2026-05-01T08:48:32.762Z</time></trkpt><trkpt lat="39.532077" lon="8.5224605"><ele>165.4</ele><time>2026-05-01T08:48:33.76Z</time></trkpt><trkpt lat="39.5320785" lon="8.5223113"><ele>166.0</ele><time>2026-05-01T08:48:34.762Z</time></trkpt><trkpt lat="39.5320768" lon="8.5221633"><ele>166.8</ele><time>2026-05-01T08:48:35.761Z</time></trkpt><trkpt lat="39.5320699" lon="8.522014"><ele>167.60000000000002</ele><time>2026-05-01T08:48:36.762Z</time></trkpt><trkpt lat="39.532037" lon="8.5218543"><ele>168.4</ele><time>2026-05-01T08:48:37.761Z</time></trkpt><trkpt lat="39.5320092" lon="8.5217106"><ele>169.2</ele><time>2026-05-01T08:48:38.76Z</time></trkpt><trkpt lat="39.5319796" lon="8.5215988"><ele>170.0</ele><time>2026-05-01T08:48:39.761Z</time></trkpt><trkpt lat="39.5319309" lon="8.5215132"><ele>170.0</ele><time>2026-05-01T08:48:40.76Z</time></trkpt><trkpt lat="39.531873" lon="8.5214637"><ele>170.0</ele><time>2026-05-01T08:48:41.761Z</time></trkpt><trkpt lat="39.5318061" lon="8.5214507"><ele>170.0</ele><time>2026-05-01T08:48:42.762Z</time></trkpt><trkpt lat="39.5317138" lon="8.52148"><ele>170.0</ele><time>2026-05-01T08:48:43.761Z</time></trkpt><trkpt lat="39.5316086" lon="8.5215527"><ele>170.0</ele><time>2026-05-01T08:48:44.762Z</time></trkpt><trkpt lat="39.5315017" lon="8.521628"><ele>170.0</ele><time>2026-05-01T08:48:45.762Z</time></trkpt><trkpt lat="39.5314211" lon="8.5217038"><ele>170.0</ele><time>2026-05-01T08:48:46.762Z</time></trkpt><trkpt lat="39.5313738" lon="8.521785"><ele>170.0</ele><time>2026-05-01T08:48:47.76Z</time></trkpt><trkpt lat="39.5313416" lon="8.52191"><ele>170.0</ele><time>2026-05-01T08:48:48.761Z</time></trkpt><trkpt lat="39.5313346" lon="8.5220398"><ele>170.0</ele><time>2026-05-01T08:48:49.761Z</time></trkpt><trkpt lat="39.531328" lon="8.5221767"><ele>171.2</ele><time>2026-05-01T08:48:50.762Z</time></trkpt><trkpt lat="39.5313421" lon="8.5223071"><ele>172.4</ele><time>2026-05-01T08:48:51.761Z</time></trkpt><trkpt lat="39.5313771" lon="8.522425"><ele>173.60000000000002</ele><time>2026-05-01T08:48:52.76Z</time></trkpt><trkpt lat="39.5314098" lon="8.5225452"><ele>174.8</ele><time>2026-05-01T08:48:53.762Z</time></trkpt><trkpt lat="39.5314141" lon="8.5226327"><ele>176.0</ele><time>2026-05-01T08:48:54.761Z</time></trkpt><trkpt lat="39.5313429" lon="8.5227654"><ele>176.0</ele><time>2026-05-01T08:48:56.761Z</time></trkpt><trkpt lat="39.531229" lon="8.522768"><ele>176.0</ele><time>2026-05-01T08:48:58.761Z</time></trkpt><trkpt lat="39.5311707" lon="8.5227224"><ele>176.0</ele><time>2026-05-01T08:48:59.76Z</time></trkpt><trkpt lat="39.5311234" lon="8.5226351"><ele>176.0</ele><time>2026-05-01T08:49:00.761Z</time></trkpt><trkpt lat="39.5310804" lon="8.5224994"><ele>176.0</ele><time>2026-05-01T08:49:01.761Z</time></trkpt><trkpt lat="39.5310372" lon="8.5223614"><ele>178.25</ele><time>2026-05-01T08:49:02.762Z</time></trkpt><trkpt lat="39.5310022" lon="8.5222157"><ele>180.5</ele><time>2026-05-01T08:49:03.762Z</time></trkpt><trkpt lat="39.5309792" lon="8.522071"><ele>182.75</ele><time>2026-05-01T08:49:04.761Z</time></trkpt><trkpt lat="39.5309796" lon="8.5219239"><ele>185.0</ele><time>2026-05-01T08:49:05.76Z</time></trkpt><trkpt lat="39.5309976" lon="8.5217672"><ele>185.0</ele><time>2026-05-01T08:49:06.76Z</time></trkpt><trkpt lat="39.531014" lon="8.5216299"><ele>185.0</ele><time>2026-05-01T08:49:07.761Z</time></trkpt><trkpt lat="39.5310081" lon="8.5215174"><ele>185.0</ele><time>2026-05-01T08:49:08.761Z</time></trkpt><trkpt lat="39.5309809" lon="8.5214043"><ele>185.0</ele><time>2026-05-01T08:49:09.76Z</time></trkpt><trkpt lat="39.5309312" lon="8.521333"><ele>185.0</ele><time>2026-05-01T08:49:10.76Z</time></trkpt><trkpt lat="39.5308486" lon="8.5212702"><ele>183.5</ele><time>2026-05-01T08:49:11.762Z</time></trkpt><trkpt lat="39.5307374" lon="8.5212123"><ele>182.0</ele><time>2026-05-01T08:49:12.761Z</time></trkpt><trkpt lat="39.5306312" lon="8.5211469"><ele>180.5</ele><time>2026-05-01T08:49:13.762Z</time></trkpt><trkpt lat="39.5305204" lon="8.5210902"><ele>179.0</ele><time>2026-05-01T08:49:14.761Z</time></trkpt><trkpt lat="39.5304093" lon="8.5210163"><ele>182.39999999999998</ele><time>2026-05-01T08:49:15.761Z</time></trkpt><trkpt lat="39.5303142" lon="8.520967"><ele>185.8</ele><time>2026-05-01T08:49:16.76Z</time></trkpt><trkpt lat="39.5302157" lon="8.5209485"><ele>189.2</ele><time>2026-05-01T08:49:17.76Z</time></trkpt><trkpt lat="39.5301044" lon="8.5209544"><ele>192.60000000000002</ele><time>2026-05-01T08:49:18.761Z</time></trkpt><trkpt lat="39.5299991" lon="8.520989"><ele>196.0</ele><time>2026-05-01T08:49:19.76Z</time></trkpt><trkpt lat="39.5299086" lon="8.5210388"><ele>196.0</ele><time>2026-05-01T08:49:20.762Z</time></trkpt><trkpt lat="39.5298211" lon="8.521091"><ele>196.0</ele><time>2026-05-01T08:49:21.762Z</time></trkpt><trkpt lat="39.5297535" lon="8.5211076"><ele>196.0</ele><time>2026-05-01T08:49:22.76Z</time></trkpt><trkpt lat="39.5296797" lon="8.521112"><ele>196.0</ele><time>2026-05-01T08:49:23.76Z</time></trkpt><trkpt lat="39.5295768" lon="8.5210445"><ele>196.0</ele><time>2026-05-01T08:49:25.761Z</time></trkpt><trkpt lat="39.5295523" lon="8.5209046"><ele>196.0</ele><time>2026-05-01T08:49:27.76Z</time></trkpt><trkpt lat="39.5295837" lon="8.5208075"><ele>196.0</ele><time>2026-05-01T08:49:28.761Z</time></trkpt><trkpt lat="39.5296389" lon="8.5206929"><ele>196.0</ele><time>2026-05-01T08:49:29.761Z</time></trkpt><trkpt lat="39.5296987" lon="8.5205713"><ele>196.0</ele><time>2026-05-01T08:49:30.761Z</time></trkpt><trkpt lat="39.5297709" lon="8.5204263"><ele>196.0</ele><time>2026-05-01T08:49:31.761Z</time></trkpt><trkpt lat="39.5298537" lon="8.5202845"><ele>198.4</ele><time>2026-05-01T08:49:32.761Z</time></trkpt><trkpt lat="39.5299375" lon="8.5201683"><ele>200.8</ele><time>2026-05-01T08:49:33.76Z</time></trkpt><trkpt lat="39.5300255" lon="8.520075"><ele>203.20000000000002</ele><time>2026-05-01T08:49:34.761Z</time></trkpt><trkpt lat="39.5301192" lon="8.5199969"><ele>205.60000000000002</ele><time>2026-05-01T08:49:35.759Z</time></trkpt><trkpt lat="39.5302114" lon="8.5199511"><ele>208.0</ele><time>2026-05-01T08:49:36.76Z</time></trkpt><trkpt lat="39.5303164" lon="8.5199295"><ele>205.4</ele><time>2026-05-01T08:49:37.761Z</time></trkpt><trkpt lat="39.5304235" lon="8.5199224"><ele>202.8</ele><time>2026-05-01T08:49:38.759Z</time></trkpt><trkpt lat="39.53053" lon="8.5199054"><ele>200.2</ele><time>2026-05-01T08:49:39.759Z</time></trkpt><trkpt lat="39.530623" lon="8.5198601"><ele>197.6</ele><time>2026-05-01T08:49:40.759Z</time></trkpt><trkpt lat="39.5307074" lon="8.5197931"><ele>195.0</ele><time>2026-05-01T08:49:41.76Z</time></trkpt><trkpt lat="39.5307959" lon="8.5197141"><ele>195.0</ele><time>2026-05-01T08:49:42.761Z</time></trkpt><trkpt lat="39.5308894" lon="8.5196329"><ele>195.0</ele><time>2026-05-01T08:49:43.76Z</time></trkpt><trkpt lat="39.5309872" lon="8.5195695"><ele>195.0</ele><time>2026-05-01T08:49:44.76Z</time></trkpt><trkpt lat="39.5310959" lon="8.5195027"><ele>195.0</ele><time>2026-05-01T08:49:45.76Z</time></trkpt><trkpt lat="39.5312105" lon="8.5194503"><ele>195.6</ele><time>2026-05-01T08:49:46.76Z</time></trkpt><trkpt lat="39.5313227" lon="8.5193944"><ele>196.2</ele><time>2026-05-01T08:49:47.76Z</time></trkpt><trkpt lat="39.5314178" lon="8.5193243"><ele>196.8</ele><time>2026-05-01T08:49:48.759Z</time></trkpt><trkpt lat="39.5314943" lon="8.5192355"><ele>197.4</ele><time>2026-05-01T08:49:49.76Z</time></trkpt><trkpt lat="39.5315512" lon="8.5191342"><ele>198.0</ele><time>2026-05-01T08:49:50.76Z</time></trkpt><trkpt lat="39.5315894" lon="8.519018"><ele>198.0</ele><time>2026-05-01T08:49:51.759Z</time></trkpt><trkpt lat="39.5316069" lon="8.5188762"><ele>198.0</ele><time>2026-05-01T08:49:52.761Z</time></trkpt><trkpt lat="39.531599" lon="8.5187248"><ele>198.0</ele><time>2026-05-01T08:49:53.761Z</time></trkpt><trkpt lat="39.5315694" lon="8.5185563"><ele>198.0</ele><time>2026-05-01T08:49:54.76Z</time></trkpt><trkpt lat="39.5315341" lon="8.5183951"><ele>196.5</ele><time>2026-05-01T08:49:55.76Z</time></trkpt><trkpt lat="39.5314901" lon="8.5182405"><ele>195.0</ele><time>2026-05-01T08:49:56.76Z</time></trkpt><trkpt lat="39.5314278" lon="8.5180897"><ele>193.5</ele><time>2026-05-01T08:49:57.76Z</time></trkpt><trkpt lat="39.5313476" lon="8.5179489"><ele>192.0</ele><time>2026-05-01T08:49:58.76Z</time></trkpt><trkpt lat="39.5312759" lon="8.517828"><ele>197.0</ele><time>2026-05-01T08:49:59.761Z</time></trkpt><trkpt lat="39.5311907" lon="8.5177237"><ele>202.0</ele><time>2026-05-01T08:50:00.759Z</time></trkpt><trkpt lat="39.5310819" lon="8.5176284"><ele>207.0</ele><time>2026-05-01T08:50:01.76Z</time></trkpt><trkpt lat="39.5309751" lon="8.5175506"><ele>212.0</ele><time>2026-05-01T08:50:02.761Z</time></trkpt><trkpt lat="39.5308729" lon="8.5174921"><ele>212.0</ele><time>2026-05-01T08:50:03.76Z</time></trkpt><trkpt lat="39.5307776" lon="8.5174572"><ele>212.0</ele><time>2026-05-01T08:50:04.76Z</time></trkpt><trkpt lat="39.5306896" lon="8.5174523"><ele>212.0</ele><time>2026-05-01T08:50:05.761Z</time></trkpt><trkpt lat="39.5305983" lon="8.5174836"><ele>212.0</ele><time>2026-05-01T08:50:06.76Z</time></trkpt><trkpt lat="39.5304931" lon="8.5175499"><ele>212.0</ele><time>2026-05-01T08:50:07.759Z</time></trkpt><trkpt lat="39.5303801" lon="8.5176227"><ele>211.5</ele><time>2026-05-01T08:50:08.761Z</time></trkpt><trkpt lat="39.5302554" lon="8.5176964"><ele>211.0</ele><time>2026-05-01T08:50:09.76Z</time></trkpt><trkpt lat="39.5301254" lon="8.5177822"><ele>210.5</ele><time>2026-05-01T08:50:10.759Z</time></trkpt><trkpt lat="39.529991" lon="8.5178673"><ele>210.0</ele><time>2026-05-01T08:50:11.759Z</time></trkpt><trkpt lat="39.5298533" lon="8.5179577"><ele>214.66666666666669</ele><time>2026-05-01T08:50:12.76Z</time></trkpt><trkpt lat="39.5297143" lon="8.5180446"><ele>219.33333333333334</ele><time>2026-05-01T08:50:13.761Z</time></trkpt><trkpt lat="39.529574" lon="8.5181232"><ele>224.0</ele><time>2026-05-01T08:50:14.76Z</time></trkpt><trkpt lat="39.5294332" lon="8.5182021"><ele>224.0</ele><time>2026-05-01T08:50:15.759Z</time></trkpt><trkpt lat="39.5293185" lon="8.5182653"><ele>224.0</ele><time>2026-05-01T08:50:16.76Z</time></trkpt><trkpt lat="39.5292102" lon="8.5183309"><ele>224.0</ele><time>2026-05-01T08:50:17.76Z</time></trkpt><trkpt lat="39.5291133" lon="8.5184126"><ele>224.0</ele><time>2026-05-01T08:50:18.759Z</time></trkpt><trkpt lat="39.5290352" lon="8.518511"><ele>224.00000000000003</ele><time>2026-05-01T08:50:19.761Z</time></trkpt><trkpt lat="39.5289763" lon="8.5186205"><ele>224.0</ele><time>2026-05-01T08:50:20.759Z</time></trkpt><trkpt lat="39.5289318" lon="8.5187371"><ele>224.0</ele><time>2026-05-01T08:50:21.76Z</time></trkpt><trkpt lat="39.5288818" lon="8.5188198"><ele>224.0</ele><time>2026-05-01T08:50:22.759Z</time></trkpt><trkpt lat="39.5288161" lon="8.5188807"><ele>224.00000000000003</ele><time>2026-05-01T08:50:23.761Z</time></trkpt><trkpt lat="39.5287479" lon="8.5189142"><ele>224.0</ele><time>2026-05-01T08:50:24.759Z</time></trkpt><trkpt lat="39.5286683" lon="8.5189187"><ele>224.39999999999998</ele><time>2026-05-01T08:50:25.759Z</time></trkpt><trkpt lat="39.5285738" lon="8.5188886"><ele>224.79999999999998</ele><time>2026-05-01T08:50:26.759Z</time></trkpt><trkpt lat="39.5284725" lon="8.5188427"><ele>225.20000000000002</ele><time>2026-05-01T08:50:27.759Z</time></trkpt><trkpt lat="39.5283757" lon="8.5187858"><ele>225.60000000000002</ele><time>2026-05-01T08:50:28.759Z</time></trkpt><trkpt lat="39.5282962" lon="8.5187106"><ele>226.0</ele><time>2026-05-01T08:50:29.76Z</time></trkpt><trkpt lat="39.5282387" lon="8.5186463"><ele>225.99999999999997</ele><time>2026-05-01T08:50:30.76Z</time></trkpt><trkpt lat="39.5281856" lon="8.5185871"><ele>226.0</ele><time>2026-05-01T08:50:31.761Z</time></trkpt><trkpt lat="39.5281279" lon="8.5185409"><ele>226.0</ele><time>2026-05-01T08:50:32.761Z</time></trkpt><trkpt lat="39.528057" lon="8.5184935"><ele>226.0</ele><time>2026-05-01T08:50:33.761Z</time></trkpt><trkpt lat="39.5279851" lon="8.5184416"><ele>225.99999999999997</ele><time>2026-05-01T08:50:34.761Z</time></trkpt><trkpt lat="39.5279086" lon="8.5183727"><ele>226.0</ele><time>2026-05-01T08:50:35.761Z</time></trkpt><trkpt lat="39.527818" lon="8.5183164"><ele>228.60000000000002</ele><time>2026-05-01T08:50:36.76Z</time></trkpt><trkpt lat="39.5277191" lon="8.5182831"><ele>231.20000000000002</ele><time>2026-05-01T08:50:37.76Z</time></trkpt><trkpt lat="39.527618" lon="8.518275"><ele>233.79999999999998</ele><time>2026-05-01T08:50:38.761Z</time></trkpt><trkpt lat="39.5275149" lon="8.5182817"><ele>236.39999999999998</ele><time>2026-05-01T08:50:39.761Z</time></trkpt><trkpt lat="39.5274166" lon="8.5183091"><ele>239.0</ele><time>2026-05-01T08:50:40.759Z</time></trkpt><trkpt lat="39.5273182" lon="8.5183607"><ele>239.0</ele><time>2026-05-01T08:50:41.76Z</time></trkpt><trkpt lat="39.5272304" lon="8.518419"><ele>238.99999999999997</ele><time>2026-05-01T08:50:42.761Z</time></trkpt><trkpt lat="39.5271378" lon="8.518494"><ele>238.99999999999997</ele><time>2026-05-01T08:50:43.76Z</time></trkpt><trkpt lat="39.5270539" lon="8.5185675"><ele>239.0</ele><time>2026-05-01T08:50:44.759Z</time></trkpt><trkpt lat="39.5269558" lon="8.5186543"><ele>239.0</ele><time>2026-05-01T08:50:45.761Z</time></trkpt><trkpt lat="39.526848" lon="8.5187515"><ele>244.0</ele><time>2026-05-01T08:50:46.761Z</time></trkpt><trkpt lat="39.526739" lon="8.5188451"><ele>249.0</ele><time>2026-05-01T08:50:47.76Z</time></trkpt><trkpt lat="39.526631" lon="8.5189275"><ele>254.0</ele><time>2026-05-01T08:50:48.759Z</time></trkpt><trkpt lat="39.5265347" lon="8.5190087"><ele>259.0</ele><time>2026-05-01T08:50:49.761Z</time></trkpt><trkpt lat="39.5264497" lon="8.5190913"><ele>259.0</ele><time>2026-05-01T08:50:50.759Z</time></trkpt><trkpt lat="39.5263787" lon="8.5191953"><ele>259.0</ele><time>2026-05-01T08:50:51.761Z</time></trkpt><trkpt lat="39.526315" lon="8.5193122"><ele>259.0</ele><time>2026-05-01T08:50:52.761Z</time></trkpt><trkpt lat="39.5262634" lon="8.5194141"><ele>259.0</ele><time>2026-05-01T08:50:53.76Z</time></trkpt><trkpt lat="39.5262083" lon="8.5194904"><ele>259.0</ele><time>2026-05-01T08:50:54.76Z</time></trkpt><trkpt lat="39.5261487" lon="8.5195442"><ele>260.75</ele><time>2026-05-01T08:50:55.76Z</time></trkpt><trkpt lat="39.5260303" lon="8.5195299"><ele>262.5</ele><time>2026-05-01T08:50:57.76Z</time></trkpt><trkpt lat="39.5259639" lon="8.5193733"><ele>264.25</ele><time>2026-05-01T08:50:59.761Z</time></trkpt><trkpt lat="39.5259746" lon="8.5192588"><ele>266.0</ele><time>2026-05-01T08:51:00.76Z</time></trkpt><trkpt lat="39.526007" lon="8.5191125"><ele>266.0</ele><time>2026-05-01T08:51:01.76Z</time></trkpt><trkpt lat="39.5260525" lon="8.5189602"><ele>266.0</ele><time>2026-05-01T08:51:02.759Z</time></trkpt><trkpt lat="39.5260885" lon="8.5187815"><ele>266.0</ele><time>2026-05-01T08:51:03.759Z</time></trkpt><trkpt lat="39.5261244" lon="8.5185826"><ele>266.0</ele><time>2026-05-01T08:51:04.761Z</time></trkpt><trkpt lat="39.526166" lon="8.5184021"><ele>267.0</ele><time>2026-05-01T08:51:05.76Z</time></trkpt><trkpt lat="39.5261963" lon="8.5182419"><ele>268.0</ele><time>2026-05-01T08:51:06.761Z</time></trkpt><trkpt lat="39.5262076" lon="8.5180762"><ele>269.0</ele><time>2026-05-01T08:51:07.761Z</time></trkpt><trkpt lat="39.5262098" lon="8.5179245"><ele>270.0</ele><time>2026-05-01T08:51:08.761Z</time></trkpt><trkpt lat="39.5262053" lon="8.5177798"><ele>270.0</ele><time>2026-05-01T08:51:09.76Z</time></trkpt><trkpt lat="39.5261894" lon="8.5176343"><ele>270.0</ele><time>2026-05-01T08:51:10.76Z</time></trkpt><trkpt lat="39.5261579" lon="8.5175234"><ele>270.0</ele><time>2026-05-01T08:51:11.76Z</time></trkpt><trkpt lat="39.5260926" lon="8.5174354"><ele>270.0</ele><time>2026-05-01T08:51:12.76Z</time></trkpt><trkpt lat="39.5260018" lon="8.5173651"><ele>270.0</ele><time>2026-05-01T08:51:13.76Z</time></trkpt><trkpt lat="39.5259137" lon="8.5173298"><ele>270.0</ele><time>2026-05-01T08:51:14.76Z</time></trkpt><trkpt lat="39.5258063" lon="8.5173158"><ele>270.0</ele><time>2026-05-01T08:51:15.76Z</time></trkpt><trkpt lat="39.5256941" lon="8.5173192"><ele>270.0</ele><time>2026-05-01T08:51:16.76Z</time></trkpt><trkpt lat="39.5255827" lon="8.5173292"><ele>270.0</ele><time>2026-05-01T08:51:17.761Z</time></trkpt><trkpt lat="39.5254666" lon="8.5173156"><ele>270.0</ele><time>2026-05-01T08:51:18.761Z</time></trkpt><trkpt lat="39.5253521" lon="8.5172867"><ele>273.6</ele><time>2026-05-01T08:51:19.76Z</time></trkpt><trkpt lat="39.5252591" lon="8.5172355"><ele>277.2</ele><time>2026-05-01T08:51:20.76Z</time></trkpt><trkpt lat="39.5251989" lon="8.5171693"><ele>280.8</ele><time>2026-05-01T08:51:21.761Z</time></trkpt><trkpt lat="39.525174" lon="8.517024"><ele>284.4</ele><time>2026-05-01T08:51:23.76Z</time></trkpt><trkpt lat="39.5252137" lon="8.5169556"><ele>288.0</ele><time>2026-05-01T08:51:24.76Z</time></trkpt><trkpt lat="39.5252878" lon="8.5168918"><ele>289.0</ele><time>2026-05-01T08:51:25.759Z</time></trkpt><trkpt lat="39.525374" lon="8.5168206"><ele>290.0</ele><time>2026-05-01T08:51:26.76Z</time></trkpt><trkpt lat="39.5254519" lon="8.5167248"><ele>291.0</ele><time>2026-05-01T08:51:27.759Z</time></trkpt><trkpt lat="39.5255232" lon="8.5165941"><ele>292.0</ele><time>2026-05-01T08:51:28.76Z</time></trkpt><trkpt lat="39.5255817" lon="8.5164644"><ele>293.0</ele><time>2026-05-01T08:51:29.759Z</time></trkpt><trkpt lat="39.5256305" lon="8.5163169"><ele>289.75</ele><time>2026-05-01T08:51:30.76Z</time></trkpt><trkpt lat="39.5256728" lon="8.5161707"><ele>286.5</ele><time>2026-05-01T08:51:31.76Z</time></trkpt><trkpt lat="39.5257025" lon="8.5160266"><ele>283.25</ele><time>2026-05-01T08:51:32.759Z</time></trkpt><trkpt lat="39.5257147" lon="8.5158817"><ele>280.0</ele><time>2026-05-01T08:51:33.76Z</time></trkpt><trkpt lat="39.525706" lon="8.5157167"><ele>280.0</ele><time>2026-05-01T08:51:34.761Z</time></trkpt><trkpt lat="39.5256749" lon="8.5155403"><ele>280.0</ele><time>2026-05-01T08:51:35.76Z</time></trkpt><trkpt lat="39.5256319" lon="8.515358"><ele>280.0</ele><time>2026-05-01T08:51:36.761Z</time></trkpt><trkpt lat="39.5255884" lon="8.5152112"><ele>280.0</ele><time>2026-05-01T08:51:37.76Z</time></trkpt><trkpt lat="39.5255551" lon="8.5150821"><ele>280.0</ele><time>2026-05-01T08:51:38.76Z</time></trkpt><trkpt lat="39.5255226" lon="8.5149684"><ele>280.0</ele><time>2026-05-01T08:51:39.761Z</time></trkpt><trkpt lat="39.525496" lon="8.5148558"><ele>280.0</ele><time>2026-05-01T08:51:40.76Z</time></trkpt><trkpt lat="39.5254714" lon="8.5147641"><ele>280.0</ele><time>2026-05-01T08:51:41.759Z</time></trkpt><trkpt lat="39.5254444" lon="8.5146822"><ele>280.0</ele><time>2026-05-01T08:51:42.76Z</time></trkpt><trkpt lat="39.5254196" lon="8.5146047"><ele>280.0</ele><time>2026-05-01T08:51:43.761Z</time></trkpt><trkpt lat="39.5253943" lon="8.5144572"><ele>281.2</ele><time>2026-05-01T08:51:45.76Z</time></trkpt><trkpt lat="39.5254195" lon="8.5143104"><ele>282.4</ele><time>2026-05-01T08:51:47.761Z</time></trkpt><trkpt lat="39.5254823" lon="8.5141978"><ele>283.6</ele><time>2026-05-01T08:51:49.76Z</time></trkpt><trkpt lat="39.5255228" lon="8.5140838"><ele>284.8</ele><time>2026-05-01T08:51:51.76Z</time></trkpt><trkpt lat="39.5255326" lon="8.5139518"><ele>286.0</ele><time>2026-05-01T08:51:53.76Z</time></trkpt><trkpt lat="39.5255258" lon="8.5138685"><ele>286.0</ele><time>2026-05-01T08:51:54.759Z</time></trkpt><trkpt lat="39.5255129" lon="8.5137631"><ele>286.0</ele><time>2026-05-01T08:51:55.759Z</time></trkpt><trkpt lat="39.5255137" lon="8.5136667"><ele>286.0</ele><time>2026-05-01T08:51:56.76Z</time></trkpt><trkpt lat="39.5255318" lon="8.513556"><ele>286.0</ele><time>2026-05-01T08:51:57.759Z</time></trkpt><trkpt lat="39.5255525" lon="8.5134401"><ele>286.0</ele><time>2026-05-01T08:51:58.759Z</time></trkpt><trkpt lat="39.5255536" lon="8.5133256"><ele>286.0</ele><time>2026-05-01T08:51:59.761Z</time></trkpt><trkpt lat="39.5255304" lon="8.5132253"><ele>288.40000000000003</ele><time>2026-05-01T08:52:00.76Z</time></trkpt><trkpt lat="39.5254781" lon="8.5131285"><ele>290.8</ele><time>2026-05-01T08:52:01.76Z</time></trkpt><trkpt lat="39.5254095" lon="8.5130629"><ele>293.20000000000005</ele><time>2026-05-01T08:52:02.761Z</time></trkpt><trkpt lat="39.5253173" lon="8.5130221"><ele>295.6</ele><time>2026-05-01T08:52:03.759Z</time></trkpt><trkpt lat="39.525225" lon="8.5130217"><ele>298.0</ele><time>2026-05-01T08:52:04.76Z</time></trkpt><trkpt lat="39.5251379" lon="8.5130507"><ele>298.8</ele><time>2026-05-01T08:52:05.761Z</time></trkpt><trkpt lat="39.5250459" lon="8.5130898"><ele>299.6</ele><time>2026-05-01T08:52:06.76Z</time></trkpt><trkpt lat="39.5249461" lon="8.5131056"><ele>300.4</ele><time>2026-05-01T08:52:07.76Z</time></trkpt><trkpt lat="39.5248307" lon="8.513113"><ele>301.2</ele><time>2026-05-01T08:52:08.759Z</time></trkpt><trkpt lat="39.5247116" lon="8.5131101"><ele>302.0</ele><time>2026-05-01T08:52:09.76Z</time></trkpt><trkpt lat="39.5246165" lon="8.5130909"><ele>299.1666666666667</ele><time>2026-05-01T08:52:10.761Z</time></trkpt><trkpt lat="39.5245372" lon="8.5130573"><ele>296.33333333333337</ele><time>2026-05-01T08:52:11.761Z</time></trkpt><trkpt lat="39.5244609" lon="8.5130451"><ele>293.5</ele><time>2026-05-01T08:52:12.761Z</time></trkpt><trkpt lat="39.5243771" lon="8.5130631"><ele>290.6666666666667</ele><time>2026-05-01T08:52:13.76Z</time></trkpt><trkpt lat="39.5243166" lon="8.5131047"><ele>287.8333333333333</ele><time>2026-05-01T08:52:14.76Z</time></trkpt><trkpt lat="39.5242682" lon="8.5131842"><ele>285.0</ele><time>2026-05-01T08:52:15.76Z</time></trkpt><trkpt lat="39.524229" lon="8.5133023"><ele>285.0</ele><time>2026-05-01T08:52:16.761Z</time></trkpt><trkpt lat="39.5241941" lon="8.5134433"><ele>285.0</ele><time>2026-05-01T08:52:17.76Z</time></trkpt><trkpt lat="39.5241542" lon="8.5135785"><ele>285.0</ele><time>2026-05-01T08:52:18.76Z</time></trkpt><trkpt lat="39.5240955" lon="8.5137045"><ele>285.0</ele><time>2026-05-01T08:52:19.76Z</time></trkpt><trkpt lat="39.5240447" lon="8.5138162"><ele>285.0</ele><time>2026-05-01T08:52:20.761Z</time></trkpt><trkpt lat="39.5239904" lon="8.5138979"><ele>284.3333333333333</ele><time>2026-05-01T08:52:21.76Z</time></trkpt><trkpt lat="39.5239326" lon="8.5139449"><ele>283.6666666666667</ele><time>2026-05-01T08:52:22.761Z</time></trkpt><trkpt lat="39.523858" lon="8.513955"><ele>283.0</ele><time>2026-05-01T08:52:23.759Z</time></trkpt><trkpt lat="39.523761" lon="8.5139384"><ele>282.33333333333337</ele><time>2026-05-01T08:52:24.759Z</time></trkpt><trkpt lat="39.5236706" lon="8.5139205"><ele>281.6666666666667</ele><time>2026-05-01T08:52:25.76Z</time></trkpt><trkpt lat="39.5235949" lon="8.51393"><ele>281.0</ele><time>2026-05-01T08:52:26.76Z</time></trkpt><trkpt lat="39.5235286" lon="8.5139708"><ele>281.0</ele><time>2026-05-01T08:52:27.759Z</time></trkpt><trkpt lat="39.5234789" lon="8.5140541"><ele>281.0</ele><time>2026-05-01T08:52:28.76Z</time></trkpt><trkpt lat="39.5234231" lon="8.5141672"><ele>281.0</ele><time>2026-05-01T08:52:29.76Z</time></trkpt><trkpt lat="39.5233555" lon="8.5142671"><ele>281.0</ele><time>2026-05-01T08:52:30.759Z</time></trkpt><trkpt lat="39.5232587" lon="8.5143573"><ele>281.0</ele><time>2026-05-01T08:52:31.759Z</time></trkpt><trkpt lat="39.5231253" lon="8.5144443"><ele>281.0</ele><time>2026-05-01T08:52:32.76Z</time></trkpt><trkpt lat="39.5230024" lon="8.5145057"><ele>281.0</ele><time>2026-05-01T08:52:33.761Z</time></trkpt><trkpt lat="39.5228742" lon="8.5145684"><ele>281.0</ele><time>2026-05-01T08:52:34.76Z</time></trkpt><trkpt lat="39.5227543" lon="8.5146522"><ele>281.0</ele><time>2026-05-01T08:52:35.76Z</time></trkpt><trkpt lat="39.5226532" lon="8.5147417"><ele>282.2</ele><time>2026-05-01T08:52:36.761Z</time></trkpt><trkpt lat="39.5225652" lon="8.5148102"><ele>283.40000000000003</ele><time>2026-05-01T08:52:37.76Z</time></trkpt><trkpt lat="39.5224747" lon="8.5148469"><ele>284.6</ele><time>2026-05-01T08:52:38.761Z</time></trkpt><trkpt lat="39.52239" lon="8.5148505"><ele>285.8</ele><time>2026-05-01T08:52:39.761Z</time></trkpt><trkpt lat="39.522311" lon="8.5148192"><ele>287.0</ele><time>2026-05-01T08:52:40.76Z</time></trkpt><trkpt lat="39.522231" lon="8.5147578"><ele>287.0</ele><time>2026-05-01T08:52:41.759Z</time></trkpt><trkpt lat="39.522187" lon="8.5146905"><ele>287.0</ele><time>2026-05-01T08:52:42.76Z</time></trkpt><trkpt lat="39.5221677" lon="8.5145942"><ele>287.0</ele><time>2026-05-01T08:52:43.761Z</time></trkpt><trkpt lat="39.5221747" lon="8.514468"><ele>287.0</ele><time>2026-05-01T08:52:44.761Z</time></trkpt><trkpt lat="39.522205" lon="8.5143322"><ele>287.0</ele><time>2026-05-01T08:52:45.759Z</time></trkpt><trkpt lat="39.5222501" lon="8.5141834"><ele>284.0</ele><time>2026-05-01T08:52:46.76Z</time></trkpt><trkpt lat="39.522302" lon="8.5140441"><ele>281.0</ele><time>2026-05-01T08:52:47.76Z</time></trkpt><trkpt lat="39.5223533" lon="8.5139377"><ele>278.0</ele><time>2026-05-01T08:52:48.76Z</time></trkpt><trkpt lat="39.5224044" lon="8.5138247"><ele>275.0</ele><time>2026-05-01T08:52:49.76Z</time></trkpt><trkpt lat="39.5224392" lon="8.5136894"><ele>272.0</ele><time>2026-05-01T08:52:50.759Z</time></trkpt><trkpt lat="39.5224474" lon="8.5135475"><ele>271.0</ele><time>2026-05-01T08:52:51.759Z</time></trkpt><trkpt lat="39.5224344" lon="8.5133935"><ele>270.0</ele><time>2026-05-01T08:52:52.76Z</time></trkpt><trkpt lat="39.5224193" lon="8.5132463"><ele>269.0</ele><time>2026-05-01T08:52:53.759Z</time></trkpt><trkpt lat="39.5224251" lon="8.5130968"><ele>268.0</ele><time>2026-05-01T08:52:54.759Z</time></trkpt><trkpt lat="39.5224485" lon="8.5129398"><ele>266.5</ele><time>2026-05-01T08:52:55.76Z</time></trkpt><trkpt lat="39.5224805" lon="8.5127739"><ele>265.0</ele><time>2026-05-01T08:52:56.759Z</time></trkpt><trkpt lat="39.5225018" lon="8.5126088"><ele>263.5</ele><time>2026-05-01T08:52:57.761Z</time></trkpt><trkpt lat="39.5225127" lon="8.512462"><ele>262.0</ele><time>2026-05-01T08:52:58.761Z</time></trkpt><trkpt lat="39.5225017" lon="8.5123308"><ele>262.0</ele><time>2026-05-01T08:52:59.76Z</time></trkpt><trkpt lat="39.5224635" lon="8.5122042"><ele>262.0</ele><time>2026-05-01T08:53:00.759Z</time></trkpt><trkpt lat="39.522413" lon="8.5121056"><ele>262.0</ele><time>2026-05-01T08:53:01.76Z</time></trkpt><trkpt lat="39.5223391" lon="8.5120418"><ele>262.0</ele><time>2026-05-01T08:53:02.761Z</time></trkpt><trkpt lat="39.5222544" lon="8.5120041"><ele>262.0</ele><time>2026-05-01T08:53:03.761Z</time></trkpt><trkpt lat="39.5221442" lon="8.5119941"><ele>263.4</ele><time>2026-05-01T08:53:04.76Z</time></trkpt><trkpt lat="39.5220308" lon="8.5119938"><ele>264.79999999999995</ele><time>2026-05-01T08:53:05.76Z</time></trkpt><trkpt lat="39.5219361" lon="8.5119763"><ele>266.2</ele><time>2026-05-01T08:53:06.76Z</time></trkpt><trkpt lat="39.5218455" lon="8.5119434"><ele>267.59999999999997</ele><time>2026-05-01T08:53:07.76Z</time></trkpt><trkpt lat="39.5218048" lon="8.5118739"><ele>269.0</ele><time>2026-05-01T08:53:08.76Z</time></trkpt><trkpt lat="39.5217612" lon="8.5117795"><ele>269.0</ele><time>2026-05-01T08:53:09.761Z</time></trkpt><trkpt lat="39.5217532" lon="8.5116711"><ele>269.0</ele><time>2026-05-01T08:53:10.76Z</time></trkpt><trkpt lat="39.5217625" lon="8.5115461"><ele>269.0</ele><time>2026-05-01T08:53:11.76Z</time></trkpt><trkpt lat="39.5217786" lon="8.511446"><ele>269.0</ele><time>2026-05-01T08:53:12.76Z</time></trkpt><trkpt lat="39.5217824" lon="8.5113593"><ele>269.0</ele><time>2026-05-01T08:53:13.761Z</time></trkpt><trkpt lat="39.5217602" lon="8.5112612"><ele>269.0</ele><time>2026-05-01T08:53:14.761Z</time></trkpt><trkpt lat="39.5217068" lon="8.5111837"><ele>266.33333333333337</ele><time>2026-05-01T08:53:15.759Z</time></trkpt><trkpt lat="39.5216357" lon="8.5111054"><ele>263.6666666666667</ele><time>2026-05-01T08:53:16.761Z</time></trkpt><trkpt lat="39.5215823" lon="8.5110215"><ele>261.0</ele><time>2026-05-01T08:53:18.761Z</time></trkpt><trkpt lat="39.5215925" lon="8.5109379"><ele>258.3333333333333</ele><time>2026-05-01T08:53:32.759Z</time></trkpt><trkpt lat="39.5215789" lon="8.5108291"><ele>255.66666666666666</ele><time>2026-05-01T08:54:00.76Z</time></trkpt><trkpt lat="39.5215996" lon="8.5107072"><ele>253.0</ele><time>2026-05-01T08:54:01.76Z</time></trkpt><trkpt lat="39.5216029" lon="8.5106065"><ele>253.0</ele><time>2026-05-01T08:54:02.759Z</time></trkpt><trkpt lat="39.5215898" lon="8.510479"><ele>253.0</ele><time>2026-05-01T08:54:03.76Z</time></trkpt><trkpt lat="39.5215565" lon="8.5103506"><ele>253.0</ele><time>2026-05-01T08:54:04.758Z</time></trkpt><trkpt lat="39.5215131" lon="8.5102164"><ele>253.0</ele><time>2026-05-01T08:54:05.759Z</time></trkpt><trkpt lat="39.5214706" lon="8.5101059"><ele>253.0</ele><time>2026-05-01T08:54:06.759Z</time></trkpt><trkpt lat="39.5214214" lon="8.5100106"><ele>249.8</ele><time>2026-05-01T08:54:07.759Z</time></trkpt><trkpt lat="39.5213609" lon="8.5099345"><ele>246.60000000000002</ele><time>2026-05-01T08:54:08.758Z</time></trkpt><trkpt lat="39.5212773" lon="8.5098878"><ele>243.39999999999998</ele><time>2026-05-01T08:54:09.758Z</time></trkpt><trkpt lat="39.5211768" lon="8.5098854"><ele>240.2</ele><time>2026-05-01T08:54:10.758Z</time></trkpt><trkpt lat="39.5210771" lon="8.5099227"><ele>237.0</ele><time>2026-05-01T08:54:11.759Z</time></trkpt><trkpt lat="39.5209831" lon="8.5099935"><ele>237.0</ele><time>2026-05-01T08:54:12.759Z</time></trkpt><trkpt lat="39.5209019" lon="8.5100976"><ele>237.0</ele><time>2026-05-01T08:54:13.758Z</time></trkpt><trkpt lat="39.5208479" lon="8.5102124"><ele>237.0</ele><time>2026-05-01T08:54:14.758Z</time></trkpt><trkpt lat="39.5208026" lon="8.5103189"><ele>237.0</ele><time>2026-05-01T08:54:15.759Z</time></trkpt><trkpt lat="39.5207393" lon="8.5104007"><ele>237.0</ele><time>2026-05-01T08:54:16.758Z</time></trkpt><trkpt lat="39.520662" lon="8.5104395"><ele>237.0</ele><time>2026-05-01T08:54:17.758Z</time></trkpt><trkpt lat="39.5205764" lon="8.5104356"><ele>237.0</ele><time>2026-05-01T08:54:18.759Z</time></trkpt><trkpt lat="39.5204932" lon="8.510397"><ele>237.0</ele><time>2026-05-01T08:54:19.758Z</time></trkpt><trkpt lat="39.5204082" lon="8.5103559"><ele>237.0</ele><time>2026-05-01T08:54:20.758Z</time></trkpt><trkpt lat="39.520324" lon="8.5103483"><ele>237.0</ele><time>2026-05-01T08:54:21.759Z</time></trkpt><trkpt lat="39.5202485" lon="8.5103702"><ele>237.0</ele><time>2026-05-01T08:54:22.76Z</time></trkpt><trkpt lat="39.5201896" lon="8.5104307"><ele>236.33333333333334</ele><time>2026-05-01T08:54:23.758Z</time></trkpt><trkpt lat="39.5201525" lon="8.5105181"><ele>235.66666666666669</ele><time>2026-05-01T08:54:24.759Z</time></trkpt><trkpt lat="39.5201162" lon="8.5105852"><ele>235.0</ele><time>2026-05-01T08:54:25.76Z</time></trkpt><trkpt lat="39.5200145" lon="8.5105954"><ele>234.33333333333334</ele><time>2026-05-01T08:54:27.758Z</time></trkpt><trkpt lat="39.5199591" lon="8.5105518"><ele>233.66666666666669</ele><time>2026-05-01T08:54:28.758Z</time></trkpt><trkpt lat="39.519946" lon="8.510421"><ele>233.0</ele><time>2026-05-01T08:54:30.758Z</time></trkpt><trkpt lat="39.5199782" lon="8.5103351"><ele>233.00000000000003</ele><time>2026-05-01T08:54:31.76Z</time></trkpt><trkpt lat="39.5199989" lon="8.510251"><ele>233.0</ele><time>2026-05-01T08:54:32.759Z</time></trkpt><trkpt lat="39.5199497" lon="8.5101142"><ele>233.0</ele><time>2026-05-01T08:54:34.759Z</time></trkpt><trkpt lat="39.5198731" lon="8.5100358"><ele>233.0</ele><time>2026-05-01T08:54:36.758Z</time></trkpt><trkpt lat="39.5198616" lon="8.5099201"><ele>233.00000000000003</ele><time>2026-05-01T08:54:38.758Z</time></trkpt><trkpt lat="39.5199308" lon="8.5099061"><ele>233.0</ele><time>2026-05-01T08:54:39.759Z</time></trkpt><trkpt lat="39.519998" lon="8.5099154"><ele>233.0</ele><time>2026-05-01T08:54:40.758Z</time></trkpt><trkpt lat="39.5200685" lon="8.5099371"><ele>233.0</ele><time>2026-05-01T08:54:41.758Z</time></trkpt><trkpt lat="39.5201357" lon="8.5099486"><ele>233.0</ele><time>2026-05-01T08:54:42.759Z</time></trkpt><trkpt lat="39.5201995" lon="8.5099679"><ele>233.0</ele><time>2026-05-01T08:54:43.759Z</time></trkpt><trkpt lat="39.5202688" lon="8.5099797"><ele>233.0</ele><time>2026-05-01T08:54:44.759Z</time></trkpt><trkpt lat="39.5203329" lon="8.5099954"><ele>233.0</ele><time>2026-05-01T08:54:45.758Z</time></trkpt><trkpt lat="39.5203962" lon="8.5100024"><ele>233.0</ele><time>2026-05-01T08:54:46.759Z</time></trkpt><trkpt lat="39.5204647" lon="8.5099899"><ele>233.8</ele><time>2026-05-01T08:54:47.76Z</time></trkpt><trkpt lat="39.5205417" lon="8.5099508"><ele>234.60000000000002</ele><time>2026-05-01T08:54:48.759Z</time></trkpt><trkpt lat="39.5206154" lon="8.5098738"><ele>235.39999999999998</ele><time>2026-05-01T08:54:49.76Z</time></trkpt><trkpt lat="39.5206896" lon="8.509771"><ele>236.2</ele><time>2026-05-01T08:54:50.759Z</time></trkpt><trkpt lat="39.5207607" lon="8.5096639"><ele>237.0</ele><time>2026-05-01T08:54:51.76Z</time></trkpt><trkpt lat="39.5208288" lon="8.5095549"><ele>232.8</ele><time>2026-05-01T08:54:52.758Z</time></trkpt><trkpt lat="39.5208925" lon="8.5094404"><ele>228.6</ele><time>2026-05-01T08:54:53.76Z</time></trkpt><trkpt lat="39.52095" lon="8.5093309"><ele>224.40000000000003</ele><time>2026-05-01T08:54:54.759Z</time></trkpt><trkpt lat="39.5210064" lon="8.5092271"><ele>220.20000000000002</ele><time>2026-05-01T08:54:55.758Z</time></trkpt><trkpt lat="39.5210658" lon="8.5091294"><ele>216.0</ele><time>2026-05-01T08:54:56.759Z</time></trkpt><trkpt lat="39.5211378" lon="8.5090385"><ele>216.0</ele><time>2026-05-01T08:54:57.759Z</time></trkpt><trkpt lat="39.5212103" lon="8.5089537"><ele>216.0</ele><time>2026-05-01T08:54:58.76Z</time></trkpt><trkpt lat="39.5212943" lon="8.5088949"><ele>216.0</ele><time>2026-05-01T08:54:59.759Z</time></trkpt><trkpt lat="39.5213738" lon="8.5088537"><ele>216.0</ele><time>2026-05-01T08:55:00.76Z</time></trkpt><trkpt lat="39.521457" lon="8.50885"><ele>216.0</ele><time>2026-05-01T08:55:01.76Z</time></trkpt><trkpt lat="39.5215391" lon="8.50888"><ele>216.0</ele><time>2026-05-01T08:55:02.76Z</time></trkpt><trkpt lat="39.5215999" lon="8.5089489"><ele>214.4</ele><time>2026-05-01T08:55:03.76Z</time></trkpt><trkpt lat="39.5216531" lon="8.5090592"><ele>212.8</ele><time>2026-05-01T08:55:04.758Z</time></trkpt><trkpt lat="39.5217156" lon="8.5091744"><ele>211.20000000000002</ele><time>2026-05-01T08:55:05.758Z</time></trkpt><trkpt lat="39.5217785" lon="8.5092763"><ele>209.60000000000002</ele><time>2026-05-01T08:55:06.759Z</time></trkpt><trkpt lat="39.5218431" lon="8.5093795"><ele>208.0</ele><time>2026-05-01T08:55:07.759Z</time></trkpt><trkpt lat="39.5219123" lon="8.5094763"><ele>208.0</ele><time>2026-05-01T08:55:08.759Z</time></trkpt><trkpt lat="39.521977" lon="8.5095752"><ele>208.0</ele><time>2026-05-01T08:55:09.759Z</time></trkpt><trkpt lat="39.5220506" lon="8.5096727"><ele>208.0</ele><time>2026-05-01T08:55:10.759Z</time></trkpt><trkpt lat="39.522126" lon="8.5097537"><ele>208.0</ele><time>2026-05-01T08:55:11.759Z</time></trkpt><trkpt lat="39.522195" lon="8.5098339"><ele>208.0</ele><time>2026-05-01T08:55:12.759Z</time></trkpt><trkpt lat="39.5222665" lon="8.5099162"><ele>207.60000000000002</ele><time>2026-05-01T08:55:13.759Z</time></trkpt><trkpt lat="39.5223439" lon="8.5099793"><ele>207.20000000000002</ele><time>2026-05-01T08:55:14.758Z</time></trkpt><trkpt lat="39.5224267" lon="8.5100157"><ele>206.8</ele><time>2026-05-01T08:55:15.758Z</time></trkpt><trkpt lat="39.5225065" lon="8.5100326"><ele>206.4</ele><time>2026-05-01T08:55:16.759Z</time></trkpt><trkpt lat="39.5226016" lon="8.5100511"><ele>206.0</ele><time>2026-05-01T08:55:17.759Z</time></trkpt><trkpt lat="39.5226997" lon="8.5100838"><ele>206.00000000000003</ele><time>2026-05-01T08:55:18.759Z</time></trkpt><trkpt lat="39.5227833" lon="8.5101329"><ele>206.0</ele><time>2026-05-01T08:55:19.758Z</time></trkpt><trkpt lat="39.5228643" lon="8.5101729"><ele>206.0</ele><time>2026-05-01T08:55:20.759Z</time></trkpt><trkpt lat="39.5229475" lon="8.5101965"><ele>206.0</ele><time>2026-05-01T08:55:21.76Z</time></trkpt><trkpt lat="39.5230294" lon="8.5102058"><ele>206.00000000000003</ele><time>2026-05-01T08:55:22.759Z</time></trkpt><trkpt lat="39.5231075" lon="8.5101955"><ele>206.0</ele><time>2026-05-01T08:55:23.76Z</time></trkpt><trkpt lat="39.5231735" lon="8.5101804"><ele>206.20000000000002</ele><time>2026-05-01T08:55:24.759Z</time></trkpt><trkpt lat="39.5232371" lon="8.5101521"><ele>206.4</ele><time>2026-05-01T08:55:25.759Z</time></trkpt><trkpt lat="39.5232957" lon="8.5100485"><ele>206.6</ele><time>2026-05-01T08:55:27.759Z</time></trkpt><trkpt lat="39.5232647" lon="8.5099002"><ele>206.8</ele><time>2026-05-01T08:55:29.76Z</time></trkpt><trkpt lat="39.5232102" lon="8.5098252"><ele>207.0</ele><time>2026-05-01T08:55:30.759Z</time></trkpt><trkpt lat="39.5231257" lon="8.5097787"><ele>207.0</ele><time>2026-05-01T08:55:31.759Z</time></trkpt><trkpt lat="39.5230173" lon="8.5097472"><ele>207.0</ele><time>2026-05-01T08:55:32.76Z</time></trkpt><trkpt lat="39.5228817" lon="8.509695"><ele>207.0</ele><time>2026-05-01T08:55:33.759Z</time></trkpt><trkpt lat="39.5227488" lon="8.5096186"><ele>207.0</ele><time>2026-05-01T08:55:34.758Z</time></trkpt><trkpt lat="39.5226333" lon="8.5095465"><ele>205.75</ele><time>2026-05-01T08:55:35.759Z</time></trkpt><trkpt lat="39.5225271" lon="8.5094619"><ele>204.5</ele><time>2026-05-01T08:55:36.759Z</time></trkpt><trkpt lat="39.5224504" lon="8.5093609"><ele>203.25</ele><time>2026-05-01T08:55:37.759Z</time></trkpt><trkpt lat="39.5223743" lon="8.5092128"><ele>202.0</ele><time>2026-05-01T08:55:38.759Z</time></trkpt><trkpt lat="39.5223138" lon="8.5090399"><ele>202.0</ele><time>2026-05-01T08:55:39.76Z</time></trkpt><trkpt lat="39.5222538" lon="8.5088494"><ele>202.0</ele><time>2026-05-01T08:55:40.758Z</time></trkpt><trkpt lat="39.522192" lon="8.508654"><ele>202.0</ele><time>2026-05-01T08:55:41.759Z</time></trkpt><trkpt lat="39.5221228" lon="8.5084646"><ele>198.33333333333331</ele><time>2026-05-01T08:55:42.759Z</time></trkpt><trkpt lat="39.5220435" lon="8.5082787"><ele>194.66666666666666</ele><time>2026-05-01T08:55:43.76Z</time></trkpt><trkpt lat="39.5219578" lon="8.5081007"><ele>191.0</ele><time>2026-05-01T08:55:44.759Z</time></trkpt><trkpt lat="39.5218638" lon="8.5079292"><ele>188.33333333333331</ele><time>2026-05-01T08:55:45.76Z</time></trkpt><trkpt lat="39.5217892" lon="8.507754"><ele>185.66666666666666</ele><time>2026-05-01T08:55:46.76Z</time></trkpt><trkpt lat="39.5217356" lon="8.5075642"><ele>183.0</ele><time>2026-05-01T08:55:47.76Z</time></trkpt><trkpt lat="39.5216797" lon="8.5073754"><ele>183.0</ele><time>2026-05-01T08:55:48.759Z</time></trkpt><trkpt lat="39.5216241" lon="8.507189"><ele>183.0</ele><time>2026-05-01T08:55:49.76Z</time></trkpt><trkpt lat="39.5215823" lon="8.506992"><ele>183.0</ele><time>2026-05-01T08:55:50.759Z</time></trkpt><trkpt lat="39.5215624" lon="8.5067901"><ele>182.0</ele><time>2026-05-01T08:55:51.758Z</time></trkpt><trkpt lat="39.5215574" lon="8.5065983"><ele>181.0</ele><time>2026-05-01T08:55:52.759Z</time></trkpt><trkpt lat="39.5215504" lon="8.5064228"><ele>180.0</ele><time>2026-05-01T08:55:53.759Z</time></trkpt><trkpt lat="39.5215137" lon="8.5062586"><ele>179.0</ele><time>2026-05-01T08:55:54.759Z</time></trkpt><trkpt lat="39.5214547" lon="8.5061181"><ele>179.0</ele><time>2026-05-01T08:55:55.76Z</time></trkpt><trkpt lat="39.5214053" lon="8.505997"><ele>179.0</ele><time>2026-05-01T08:55:56.758Z</time></trkpt><trkpt lat="39.5213924" lon="8.5058709"><ele>179.0</ele><time>2026-05-01T08:55:57.76Z</time></trkpt><trkpt lat="39.5214089" lon="8.5057292"><ele>179.0</ele><time>2026-05-01T08:55:58.759Z</time></trkpt><trkpt lat="39.5214263" lon="8.505575"><ele>179.0</ele><time>2026-05-01T08:55:59.759Z</time></trkpt><trkpt lat="39.5214068" lon="8.5054217"><ele>180.0</ele><time>2026-05-01T08:56:00.759Z</time></trkpt><trkpt lat="39.5213604" lon="8.5052757"><ele>181.0</ele><time>2026-05-01T08:56:01.759Z</time></trkpt><trkpt lat="39.5213065" lon="8.5051292"><ele>182.0</ele><time>2026-05-01T08:56:02.759Z</time></trkpt><trkpt lat="39.5212478" lon="8.5049808"><ele>183.0</ele><time>2026-05-01T08:56:03.76Z</time></trkpt><trkpt lat="39.5211848" lon="8.50483"><ele>179.33333333333334</ele><time>2026-05-01T08:56:04.759Z</time></trkpt><trkpt lat="39.5211082" lon="8.5046699"><ele>175.66666666666669</ele><time>2026-05-01T08:56:05.76Z</time></trkpt><trkpt lat="39.5210218" lon="8.5045035"><ele>172.0</ele><time>2026-05-01T08:56:06.759Z</time></trkpt><trkpt lat="39.5209298" lon="8.5043423"><ele>170.75</ele><time>2026-05-01T08:56:07.759Z</time></trkpt><trkpt lat="39.520848" lon="8.5041942"><ele>169.5</ele><time>2026-05-01T08:56:08.76Z</time></trkpt><trkpt lat="39.5207722" lon="8.5040801"><ele>168.25</ele><time>2026-05-01T08:56:09.759Z</time></trkpt><trkpt lat="39.5206889" lon="8.5040012"><ele>167.0</ele><time>2026-05-01T08:56:10.76Z</time></trkpt><trkpt lat="39.5206018" lon="8.5039616"><ele>167.0</ele><time>2026-05-01T08:56:11.759Z</time></trkpt><trkpt lat="39.520509" lon="8.5039836"><ele>167.0</ele><time>2026-05-01T08:56:12.758Z</time></trkpt><trkpt lat="39.5204192" lon="8.5040428"><ele>167.0</ele><time>2026-05-01T08:56:13.758Z</time></trkpt><trkpt lat="39.5203427" lon="8.5041058"><ele>167.0</ele><time>2026-05-01T08:56:14.759Z</time></trkpt><trkpt lat="39.5202708" lon="8.5041308"><ele>167.0</ele><time>2026-05-01T08:56:15.76Z</time></trkpt><trkpt lat="39.5202056" lon="8.5041224"><ele>167.0</ele><time>2026-05-01T08:56:16.759Z</time></trkpt><trkpt lat="39.5201192" lon="8.5040478"><ele>166.8</ele><time>2026-05-01T08:56:18.759Z</time></trkpt><trkpt lat="39.520085" lon="8.5039732"><ele>166.6</ele><time>2026-05-01T08:56:19.758Z</time></trkpt><trkpt lat="39.5200612" lon="8.5038597"><ele>166.4</ele><time>2026-05-01T08:56:20.758Z</time></trkpt><trkpt lat="39.5200381" lon="8.5037168"><ele>166.20000000000002</ele><time>2026-05-01T08:56:21.758Z</time></trkpt><trkpt lat="39.5200137" lon="8.5035587"><ele>166.0</ele><time>2026-05-01T08:56:22.758Z</time></trkpt><trkpt lat="39.5199832" lon="8.5033945"><ele>164.75</ele><time>2026-05-01T08:56:23.758Z</time></trkpt><trkpt lat="39.5199481" lon="8.5032255"><ele>163.5</ele><time>2026-05-01T08:56:24.758Z</time></trkpt><trkpt lat="39.5199159" lon="8.5030599"><ele>162.25</ele><time>2026-05-01T08:56:25.76Z</time></trkpt><trkpt lat="39.5198944" lon="8.5029001"><ele>161.0</ele><time>2026-05-01T08:56:26.759Z</time></trkpt><trkpt lat="39.5198642" lon="8.5027601"><ele>160.60000000000002</ele><time>2026-05-01T08:56:27.76Z</time></trkpt><trkpt lat="39.5198191" lon="8.5026285"><ele>160.20000000000002</ele><time>2026-05-01T08:56:28.759Z</time></trkpt><trkpt lat="39.5197501" lon="8.5025105"><ele>159.8</ele><time>2026-05-01T08:56:29.76Z</time></trkpt><trkpt lat="39.5196686" lon="8.502413"><ele>159.4</ele><time>2026-05-01T08:56:30.759Z</time></trkpt><trkpt lat="39.5195877" lon="8.5023344"><ele>159.0</ele><time>2026-05-01T08:56:31.759Z</time></trkpt><trkpt lat="39.5195303" lon="8.5022475"><ele>159.16666666666666</ele><time>2026-05-01T08:56:32.759Z</time></trkpt><trkpt lat="39.5195091" lon="8.502162"><ele>159.33333333333334</ele><time>2026-05-01T08:56:33.759Z</time></trkpt><trkpt lat="39.519574" lon="8.5020257"><ele>159.5</ele><time>2026-05-01T08:56:35.76Z</time></trkpt><trkpt lat="39.5196328" lon="8.5019498"><ele>159.66666666666669</ele><time>2026-05-01T08:56:36.758Z</time></trkpt><trkpt lat="39.5196595" lon="8.5018567"><ele>159.83333333333334</ele><time>2026-05-01T08:56:37.76Z</time></trkpt><trkpt lat="39.5196681" lon="8.5017427"><ele>160.0</ele><time>2026-05-01T08:56:38.759Z</time></trkpt><trkpt lat="39.5196442" lon="8.5016266"><ele>160.0</ele><time>2026-05-01T08:56:39.759Z</time></trkpt><trkpt lat="39.5195972" lon="8.5015067"><ele>160.0</ele><time>2026-05-01T08:56:40.759Z</time></trkpt><trkpt lat="39.5195209" lon="8.5014018"><ele>160.0</ele><time>2026-05-01T08:56:41.759Z</time></trkpt><trkpt lat="39.5194439" lon="8.5012888"><ele>160.0</ele><time>2026-05-01T08:56:42.759Z</time></trkpt><trkpt lat="39.5193844" lon="8.5011644"><ele>160.0</ele><time>2026-05-01T08:56:43.759Z</time></trkpt><trkpt lat="39.5193544" lon="8.5010359"><ele>156.8</ele><time>2026-05-01T08:56:44.759Z</time></trkpt><trkpt lat="39.5193277" lon="8.5009041"><ele>153.6</ele><time>2026-05-01T08:56:45.759Z</time></trkpt><trkpt lat="39.5192782" lon="8.5007748"><ele>150.4</ele><time>2026-05-01T08:56:46.759Z</time></trkpt><trkpt lat="39.5192031" lon="8.5006607"><ele>147.2</ele><time>2026-05-01T08:56:47.759Z</time></trkpt><trkpt lat="39.519114" lon="8.5005711"><ele>144.0</ele><time>2026-05-01T08:56:48.758Z</time></trkpt><trkpt lat="39.5190234" lon="8.5005175"><ele>144.0</ele><time>2026-05-01T08:56:49.759Z</time></trkpt><trkpt lat="39.5189199" lon="8.5004881"><ele>144.0</ele><time>2026-05-01T08:56:50.759Z</time></trkpt><trkpt lat="39.5187988" lon="8.5004997"><ele>144.0</ele><time>2026-05-01T08:56:51.759Z</time></trkpt><trkpt lat="39.5186718" lon="8.5005236"><ele>144.0</ele><time>2026-05-01T08:56:52.76Z</time></trkpt><trkpt lat="39.5185481" lon="8.5005374"><ele>144.25</ele><time>2026-05-01T08:56:53.76Z</time></trkpt><trkpt lat="39.518428" lon="8.5005293"><ele>144.5</ele><time>2026-05-01T08:56:54.759Z</time></trkpt><trkpt lat="39.5183206" lon="8.5004986"><ele>144.75</ele><time>2026-05-01T08:56:55.76Z</time></trkpt><trkpt lat="39.5182174" lon="8.5004434"><ele>145.0</ele><time>2026-05-01T08:56:56.759Z</time></trkpt><trkpt lat="39.5181365" lon="8.5003513"><ele>144.5</ele><time>2026-05-01T08:56:57.759Z</time></trkpt><trkpt lat="39.5180649" lon="8.5002171"><ele>144.0</ele><time>2026-05-01T08:56:58.758Z</time></trkpt><trkpt lat="39.5179891" lon="8.5000635"><ele>143.5</ele><time>2026-05-01T08:56:59.759Z</time></trkpt><trkpt lat="39.5178966" lon="8.4999123"><ele>143.0</ele><time>2026-05-01T08:57:00.76Z</time></trkpt><trkpt lat="39.5177939" lon="8.4997636"><ele>143.0</ele><time>2026-05-01T08:57:01.76Z</time></trkpt><trkpt lat="39.5176869" lon="8.4996087"><ele>143.0</ele><time>2026-05-01T08:57:02.76Z</time></trkpt><trkpt lat="39.5175985" lon="8.4994794"><ele>143.0</ele><time>2026-05-01T08:57:03.759Z</time></trkpt><trkpt lat="39.5175069" lon="8.499374"><ele>143.0</ele><time>2026-05-01T08:57:04.759Z</time></trkpt><trkpt lat="39.5173921" lon="8.499293"><ele>140.25</ele><time>2026-05-01T08:57:05.759Z</time></trkpt><trkpt lat="39.5172619" lon="8.4992428"><ele>137.5</ele><time>2026-05-01T08:57:06.759Z</time></trkpt><trkpt lat="39.5171248" lon="8.4992107"><ele>134.75</ele><time>2026-05-01T08:57:07.759Z</time></trkpt><trkpt lat="39.5170008" lon="8.4991878"><ele>132.0</ele><time>2026-05-01T08:57:08.76Z</time></trkpt><trkpt lat="39.5169037" lon="8.4991427"><ele>131.4</ele><time>2026-05-01T08:57:09.76Z</time></trkpt><trkpt lat="39.516819" lon="8.4990701"><ele>130.79999999999998</ele><time>2026-05-01T08:57:10.758Z</time></trkpt><trkpt lat="39.5167767" lon="8.4989456"><ele>130.2</ele><time>2026-05-01T08:57:11.759Z</time></trkpt><trkpt lat="39.5167504" lon="8.4988265"><ele>129.6</ele><time>2026-05-01T08:57:12.759Z</time></trkpt><trkpt lat="39.5167012" lon="8.4987103"><ele>129.0</ele><time>2026-05-01T08:57:13.759Z</time></trkpt><trkpt lat="39.5166216" lon="8.4986057"><ele>128.5</ele><time>2026-05-01T08:57:14.76Z</time></trkpt><trkpt lat="39.5165331" lon="8.4985201"><ele>128.0</ele><time>2026-05-01T08:57:15.759Z</time></trkpt><trkpt lat="39.5164309" lon="8.4984517"><ele>127.5</ele><time>2026-05-01T08:57:16.758Z</time></trkpt><trkpt lat="39.5163231" lon="8.4983809"><ele>127.0</ele><time>2026-05-01T08:57:17.758Z</time></trkpt><trkpt lat="39.5162205" lon="8.4982945"><ele>126.19999999999999</ele><time>2026-05-01T08:57:18.759Z</time></trkpt><trkpt lat="39.516121" lon="8.4982006"><ele>125.39999999999999</ele><time>2026-05-01T08:57:19.759Z</time></trkpt><trkpt lat="39.5160341" lon="8.4981141"><ele>124.60000000000001</ele><time>2026-05-01T08:57:20.758Z</time></trkpt><trkpt lat="39.515962" lon="8.4980393"><ele>123.80000000000001</ele><time>2026-05-01T08:57:21.758Z</time></trkpt><trkpt lat="39.5158966" lon="8.4979543"><ele>123.0</ele><time>2026-05-01T08:57:22.759Z</time></trkpt><trkpt lat="39.515857" lon="8.4978526"><ele>122.2</ele><time>2026-05-01T08:57:23.76Z</time></trkpt><trkpt lat="39.5158361" lon="8.4977225"><ele>121.4</ele><time>2026-05-01T08:57:24.759Z</time></trkpt><trkpt lat="39.5158309" lon="8.4975793"><ele>120.60000000000001</ele><time>2026-05-01T08:57:25.76Z</time></trkpt><trkpt lat="39.5158345" lon="8.4974297"><ele>119.80000000000001</ele><time>2026-05-01T08:57:26.76Z</time></trkpt><trkpt lat="39.5158398" lon="8.4972811"><ele>119.0</ele><time>2026-05-01T08:57:27.759Z</time></trkpt><trkpt lat="39.5158409" lon="8.4971386"><ele>119.2</ele><time>2026-05-01T08:57:28.758Z</time></trkpt><trkpt lat="39.5158361" lon="8.4969993"><ele>119.4</ele><time>2026-05-01T08:57:29.759Z</time></trkpt><trkpt lat="39.5158246" lon="8.4968664"><ele>119.6</ele><time>2026-05-01T08:57:30.758Z</time></trkpt><trkpt lat="39.5158025" lon="8.4967326"><ele>119.8</ele><time>2026-05-01T08:57:31.759Z</time></trkpt><trkpt lat="39.5157737" lon="8.4965989"><ele>120.0</ele><time>2026-05-01T08:57:32.759Z</time></trkpt><trkpt lat="39.5157422" lon="8.4964667"><ele>120.0</ele><time>2026-05-01T08:57:33.76Z</time></trkpt><trkpt lat="39.5157108" lon="8.4963258"><ele>120.0</ele><time>2026-05-01T08:57:34.759Z</time></trkpt><trkpt lat="39.5156704" lon="8.4961769"><ele>120.0</ele><time>2026-05-01T08:57:35.76Z</time></trkpt><trkpt lat="39.5156228" lon="8.4960171"><ele>120.0</ele><time>2026-05-01T08:57:36.759Z</time></trkpt><trkpt lat="39.5155663" lon="8.4958511"><ele>121.25</ele><time>2026-05-01T08:57:37.76Z</time></trkpt><trkpt lat="39.5155063" lon="8.495685"><ele>122.5</ele><time>2026-05-01T08:57:38.759Z</time></trkpt><trkpt lat="39.5154439" lon="8.4955222"><ele>123.75</ele><time>2026-05-01T08:57:39.76Z</time></trkpt><trkpt lat="39.5153786" lon="8.4953552"><ele>125.0</ele><time>2026-05-01T08:57:40.759Z</time></trkpt><trkpt lat="39.5153173" lon="8.4951768"><ele>121.25</ele><time>2026-05-01T08:57:41.758Z</time></trkpt><trkpt lat="39.5152594" lon="8.4950081"><ele>117.5</ele><time>2026-05-01T08:57:42.758Z</time></trkpt><trkpt lat="39.5151985" lon="8.4948543"><ele>113.75</ele><time>2026-05-01T08:57:43.757Z</time></trkpt><trkpt lat="39.5151378" lon="8.4947145"><ele>110.0</ele><time>2026-05-01T08:57:44.757Z</time></trkpt><trkpt lat="39.5150819" lon="8.4945781"><ele>109.6</ele><time>2026-05-01T08:57:45.758Z</time></trkpt><trkpt lat="39.5150329" lon="8.4944502"><ele>109.2</ele><time>2026-05-01T08:57:46.758Z</time></trkpt><trkpt lat="39.5149971" lon="8.4943324"><ele>108.80000000000001</ele><time>2026-05-01T08:57:47.758Z</time></trkpt><trkpt lat="39.5149743" lon="8.4942212"><ele>108.4</ele><time>2026-05-01T08:57:48.759Z</time></trkpt><trkpt lat="39.514978" lon="8.4941128"><ele>108.0</ele><time>2026-05-01T08:57:49.758Z</time></trkpt><trkpt lat="39.514999" lon="8.4940183"><ele>108.0</ele><time>2026-05-01T08:57:50.759Z</time></trkpt><trkpt lat="39.5150229" lon="8.4939317"><ele>108.0</ele><time>2026-05-01T08:57:51.758Z</time></trkpt><trkpt lat="39.5150434" lon="8.4938441"><ele>108.0</ele><time>2026-05-01T08:57:52.759Z</time></trkpt><trkpt lat="39.5150575" lon="8.4937638"><ele>108.0</ele><time>2026-05-01T08:57:53.758Z</time></trkpt><trkpt lat="39.5150496" lon="8.4936785"><ele>108.0</ele><time>2026-05-01T08:57:54.758Z</time></trkpt><trkpt lat="39.5149773" lon="8.4935676"><ele>108.0</ele><time>2026-05-01T08:57:56.758Z</time></trkpt><trkpt lat="39.5148773" lon="8.4935555"><ele>107.2</ele><time>2026-05-01T08:57:58.758Z</time></trkpt><trkpt lat="39.5147671" lon="8.4935803"><ele>106.4</ele><time>2026-05-01T08:58:00.757Z</time></trkpt><trkpt lat="39.5146607" lon="8.49362"><ele>105.60000000000001</ele><time>2026-05-01T08:58:02.758Z</time></trkpt><trkpt lat="39.514581" lon="8.4937205"><ele>104.80000000000001</ele><time>2026-05-01T08:58:04.759Z</time></trkpt><trkpt lat="39.5145356" lon="8.4937772"><ele>104.0</ele><time>2026-05-01T08:58:05.758Z</time></trkpt><trkpt lat="39.5144311" lon="8.4938553"><ele>105.6</ele><time>2026-05-01T08:58:07.759Z</time></trkpt><trkpt lat="39.5143321" lon="8.4938456"><ele>107.2</ele><time>2026-05-01T08:58:09.757Z</time></trkpt><trkpt lat="39.5142259" lon="8.4938259"><ele>108.79999999999998</ele><time>2026-05-01T08:58:11.757Z</time></trkpt><trkpt lat="39.5141474" lon="8.4937587"><ele>110.39999999999999</ele><time>2026-05-01T08:58:13.757Z</time></trkpt><trkpt lat="39.514033" lon="8.4936736"><ele>112.0</ele><time>2026-05-01T08:58:15.759Z</time></trkpt><trkpt lat="39.5139678" lon="8.4936523"><ele>112.0</ele><time>2026-05-01T08:58:16.759Z</time></trkpt><trkpt lat="39.5138546" lon="8.4936785"><ele>112.0</ele><time>2026-05-01T08:58:18.759Z</time></trkpt><trkpt lat="39.5137794" lon="8.4937876"><ele>112.0</ele><time>2026-05-01T08:58:20.758Z</time></trkpt><trkpt lat="39.5137043" lon="8.493923"><ele>112.0</ele><time>2026-05-01T08:58:22.757Z</time></trkpt><trkpt lat="39.5136168" lon="8.4940004"><ele>113.00000000000001</ele><time>2026-05-01T08:58:24.758Z</time></trkpt><trkpt lat="39.5135296" lon="8.4940639"><ele>114.0</ele><time>2026-05-01T08:58:26.757Z</time></trkpt><trkpt lat="39.513441" lon="8.4940933"><ele>115.0</ele><time>2026-05-01T08:58:28.758Z</time></trkpt><trkpt lat="39.5133805" lon="8.4941291"><ele>116.0</ele><time>2026-05-01T08:58:29.759Z</time></trkpt><trkpt lat="39.5133209" lon="8.4941718"><ele>117.00000000000001</ele><time>2026-05-01T08:58:30.758Z</time></trkpt><trkpt lat="39.5132031" lon="8.4942188"><ele>118.0</ele><time>2026-05-01T08:58:32.758Z</time></trkpt><trkpt lat="39.5131302" lon="8.4942362"><ele>118.00000000000001</ele><time>2026-05-01T08:58:33.758Z</time></trkpt><trkpt lat="39.5130578" lon="8.4942525"><ele>118.0</ele><time>2026-05-01T08:58:34.759Z</time></trkpt><trkpt lat="39.5129911" lon="8.494272"><ele>118.0</ele><time>2026-05-01T08:58:35.757Z</time></trkpt><trkpt lat="39.5129224" lon="8.4942901"><ele>118.0</ele><time>2026-05-01T08:58:36.758Z</time></trkpt><trkpt lat="39.5128502" lon="8.4943101"><ele>118.00000000000001</ele><time>2026-05-01T08:58:37.759Z</time></trkpt><trkpt lat="39.5127787" lon="8.4943448"><ele>118.0</ele><time>2026-05-01T08:58:38.759Z</time></trkpt><trkpt lat="39.512707" lon="8.4944098"><ele>118.83333333333334</ele><time>2026-05-01T08:58:39.757Z</time></trkpt><trkpt lat="39.5126333" lon="8.4944858"><ele>119.66666666666667</ele><time>2026-05-01T08:58:40.759Z</time></trkpt><trkpt lat="39.5125645" lon="8.4945545"><ele>120.5</ele><time>2026-05-01T08:58:41.759Z</time></trkpt><trkpt lat="39.5125061" lon="8.4945991"><ele>121.33333333333334</ele><time>2026-05-01T08:58:42.757Z</time></trkpt><trkpt lat="39.5124438" lon="8.4946175"><ele>122.16666666666667</ele><time>2026-05-01T08:58:43.757Z</time></trkpt><trkpt lat="39.5123665" lon="8.494628"><ele>123.0</ele><time>2026-05-01T08:58:44.758Z</time></trkpt><trkpt lat="39.5122838" lon="8.4946296"><ele>123.0</ele><time>2026-05-01T08:58:45.759Z</time></trkpt><trkpt lat="39.5121986" lon="8.494616"><ele>123.0</ele><time>2026-05-01T08:58:46.758Z</time></trkpt><trkpt lat="39.5121139" lon="8.4945913"><ele>123.0</ele><time>2026-05-01T08:58:47.758Z</time></trkpt><trkpt lat="39.5120365" lon="8.4945686"><ele>123.0</ele><time>2026-05-01T08:58:48.758Z</time></trkpt><trkpt lat="39.511964" lon="8.4945561"><ele>123.0</ele><time>2026-05-01T08:58:49.757Z</time></trkpt><trkpt lat="39.5118986" lon="8.4945443"><ele>123.0</ele><time>2026-05-01T08:58:50.758Z</time></trkpt><trkpt lat="39.5118196" lon="8.4945379"><ele>124.66666666666667</ele><time>2026-05-01T08:58:51.758Z</time></trkpt><trkpt lat="39.5117479" lon="8.4945201"><ele>126.33333333333334</ele><time>2026-05-01T08:58:52.758Z</time></trkpt><trkpt lat="39.5116777" lon="8.494488"><ele>128.0</ele><time>2026-05-01T08:58:53.758Z</time></trkpt><trkpt lat="39.5116083" lon="8.4944687"><ele>129.66666666666669</ele><time>2026-05-01T08:58:54.758Z</time></trkpt><trkpt lat="39.5115366" lon="8.4944675"><ele>131.33333333333334</ele><time>2026-05-01T08:58:55.757Z</time></trkpt><trkpt lat="39.5114298" lon="8.4944992"><ele>133.0</ele><time>2026-05-01T08:58:57.757Z</time></trkpt><trkpt lat="39.5113171" lon="8.4945043"><ele>133.0</ele><time>2026-05-01T08:58:59.757Z</time></trkpt><trkpt lat="39.5112455" lon="8.4944925"><ele>133.0</ele><time>2026-05-01T08:59:00.757Z</time></trkpt><trkpt lat="39.5111698" lon="8.4944777"><ele>133.0</ele><time>2026-05-01T08:59:01.759Z</time></trkpt><trkpt lat="39.5110938" lon="8.4944665"><ele>133.0</ele><time>2026-05-01T08:59:02.758Z</time></trkpt><trkpt lat="39.5110152" lon="8.4944698"><ele>133.0</ele><time>2026-05-01T08:59:03.759Z</time></trkpt><trkpt lat="39.5109287" lon="8.4944917"><ele>133.0</ele><time>2026-05-01T08:59:04.759Z</time></trkpt><trkpt lat="39.5108419" lon="8.4945228"><ele>133.6</ele><time>2026-05-01T08:59:05.758Z</time></trkpt><trkpt lat="39.5107549" lon="8.4945621"><ele>134.20000000000002</ele><time>2026-05-01T08:59:06.759Z</time></trkpt><trkpt lat="39.5106569" lon="8.4946081"><ele>134.8</ele><time>2026-05-01T08:59:07.759Z</time></trkpt><trkpt lat="39.5105594" lon="8.4946513"><ele>135.4</ele><time>2026-05-01T08:59:08.757Z</time></trkpt><trkpt lat="39.5104656" lon="8.4946863"><ele>136.0</ele><time>2026-05-01T08:59:09.757Z</time></trkpt><trkpt lat="39.5103725" lon="8.4947316"><ele>137.0</ele><time>2026-05-01T08:59:10.758Z</time></trkpt><trkpt lat="39.5102758" lon="8.4947746"><ele>138.0</ele><time>2026-05-01T08:59:11.757Z</time></trkpt><trkpt lat="39.5102017" lon="8.4948082"><ele>139.0</ele><time>2026-05-01T08:59:12.759Z</time></trkpt><trkpt lat="39.5101305" lon="8.4948448"><ele>140.0</ele><time>2026-05-01T08:59:13.759Z</time></trkpt><trkpt lat="39.5100554" lon="8.4948707"><ele>141.0</ele><time>2026-05-01T08:59:14.759Z</time></trkpt><trkpt lat="39.5099827" lon="8.4948976"><ele>142.0</ele><time>2026-05-01T08:59:15.757Z</time></trkpt><trkpt lat="39.509914" lon="8.4949368"><ele>142.0</ele><time>2026-05-01T08:59:16.757Z</time></trkpt><trkpt lat="39.5098522" lon="8.4949912"><ele>142.0</ele><time>2026-05-01T08:59:17.757Z</time></trkpt><trkpt lat="39.5097919" lon="8.4950462"><ele>142.0</ele><time>2026-05-01T08:59:18.757Z</time></trkpt><trkpt lat="39.5097302" lon="8.4950853"><ele>142.0</ele><time>2026-05-01T08:59:19.757Z</time></trkpt><trkpt lat="39.5096623" lon="8.4951271"><ele>142.0</ele><time>2026-05-01T08:59:20.757Z</time></trkpt><trkpt lat="39.5095832" lon="8.495156"><ele>142.0</ele><time>2026-05-01T08:59:21.759Z</time></trkpt><trkpt lat="39.5095041" lon="8.4951816"><ele>143.0</ele><time>2026-05-01T08:59:22.759Z</time></trkpt><trkpt lat="39.5094173" lon="8.4952017"><ele>144.0</ele><time>2026-05-01T08:59:23.758Z</time></trkpt><trkpt lat="39.5093224" lon="8.4952276"><ele>145.0</ele><time>2026-05-01T08:59:24.757Z</time></trkpt><trkpt lat="39.5092298" lon="8.4952588"><ele>146.0</ele><time>2026-05-01T08:59:25.758Z</time></trkpt><trkpt lat="39.5091462" lon="8.4952972"><ele>147.0</ele><time>2026-05-01T08:59:26.759Z</time></trkpt><trkpt lat="39.5090746" lon="8.4953532"><ele>147.0</ele><time>2026-05-01T08:59:27.759Z</time></trkpt><trkpt lat="39.5090082" lon="8.4954151"><ele>147.0</ele><time>2026-05-01T08:59:28.758Z</time></trkpt><trkpt lat="39.5089489" lon="8.4955066"><ele>147.0</ele><time>2026-05-01T08:59:30.758Z</time></trkpt><trkpt lat="39.5088875" lon="8.4955503"><ele>147.0</ele><time>2026-05-01T08:59:41.758Z</time></trkpt><trkpt lat="39.508799" lon="8.4955948"><ele>147.0</ele><time>2026-05-01T08:59:43.758Z</time></trkpt><trkpt lat="39.5086873" lon="8.4956671"><ele>148.5</ele><time>2026-05-01T08:59:45.758Z</time></trkpt><trkpt lat="39.5085985" lon="8.4957523"><ele>150.0</ele><time>2026-05-01T08:59:47.759Z</time></trkpt><trkpt lat="39.5085349" lon="8.4957536"><ele>151.5</ele><time>2026-05-01T08:59:50.758Z</time></trkpt><trkpt lat="39.5085539" lon="8.4956462"><ele>153.0</ele><time>2026-05-01T08:59:52.759Z</time></trkpt><trkpt lat="39.5085712" lon="8.4955583"><ele>154.5</ele><time>2026-05-01T08:59:54.758Z</time></trkpt><trkpt lat="39.5085825" lon="8.4954581"><ele>156.0</ele><time>2026-05-01T09:00:00.759Z</time></trkpt><trkpt lat="39.5086148" lon="8.495324"><ele>157.0</ele><time>2026-05-01T09:00:02.757Z</time></trkpt><trkpt lat="39.508615" lon="8.4951755"><ele>158.0</ele><time>2026-05-01T09:00:04.758Z</time></trkpt><trkpt lat="39.5085932" lon="8.4950974"><ele>159.0</ele><time>2026-05-01T09:00:05.758Z</time></trkpt><trkpt lat="39.5085751" lon="8.4950146"><ele>160.0</ele><time>2026-05-01T09:00:06.759Z</time></trkpt><trkpt lat="39.5085925" lon="8.4948771"><ele>161.0</ele><time>2026-05-01T09:00:08.758Z</time></trkpt><trkpt lat="39.5086757" lon="8.494834"><ele>162.0</ele><time>2026-05-01T09:00:10.757Z</time></trkpt><trkpt lat="39.5087838" lon="8.4948755"><ele>158.25</ele><time>2026-05-01T09:00:12.758Z</time></trkpt><trkpt lat="39.5088963" lon="8.4948361"><ele>154.5</ele><time>2026-05-01T09:00:14.759Z</time></trkpt><trkpt lat="39.5090027" lon="8.4947697"><ele>150.75</ele><time>2026-05-01T09:00:16.759Z</time></trkpt><trkpt lat="39.5091061" lon="8.4946928"><ele>147.0</ele><time>2026-05-01T09:00:18.758Z</time></trkpt><trkpt lat="39.5092103" lon="8.4946177"><ele>151.75</ele><time>2026-05-01T09:00:20.757Z</time></trkpt><trkpt lat="39.5093126" lon="8.4945436"><ele>156.5</ele><time>2026-05-01T09:00:22.758Z</time></trkpt><trkpt lat="39.509414" lon="8.4944635"><ele>161.25</ele><time>2026-05-01T09:00:24.758Z</time></trkpt><trkpt lat="39.5094834" lon="8.4943572"><ele>166.0</ele><time>2026-05-01T09:00:26.758Z</time></trkpt><trkpt lat="39.5095093" lon="8.4942181"><ele>166.0</ele><time>2026-05-01T09:00:28.758Z</time></trkpt><trkpt lat="39.50951" lon="8.4940692"><ele>166.0</ele><time>2026-05-01T09:00:30.758Z</time></trkpt><trkpt lat="39.5094722" lon="8.4939345"><ele>166.0</ele><time>2026-05-01T09:00:32.759Z</time></trkpt><trkpt lat="39.5094451" lon="8.4937869"><ele>166.0</ele><time>2026-05-01T09:00:34.759Z</time></trkpt><trkpt lat="39.5094815" lon="8.4936563"><ele>166.0</ele><time>2026-05-01T09:00:36.758Z</time></trkpt><trkpt lat="39.5095055" lon="8.4935116"><ele>166.0</ele><time>2026-05-01T09:00:38.758Z</time></trkpt><trkpt lat="39.5095307" lon="8.4933935"><ele>166.0</ele><time>2026-05-01T09:00:40.758Z</time></trkpt><trkpt lat="39.509578" lon="8.4933253"><ele>166.0</ele><time>2026-05-01T09:00:42.757Z</time></trkpt><trkpt lat="39.5096603" lon="8.4933141"><ele>166.0</ele><time>2026-05-01T09:00:44.758Z</time></trkpt><trkpt lat="39.5097362" lon="8.4933862"><ele>166.0</ele><time>2026-05-01T09:00:46.757Z</time></trkpt><trkpt lat="39.5098311" lon="8.4934897"><ele>166.0</ele><time>2026-05-01T09:00:48.758Z</time></trkpt><trkpt lat="39.5098813" lon="8.4935446"><ele>166.0</ele><time>2026-05-01T09:00:49.758Z</time></trkpt><trkpt lat="39.5099328" lon="8.4935975"><ele>166.0</ele><time>2026-05-01T09:00:50.757Z</time></trkpt><trkpt lat="39.5099827" lon="8.4936473"><ele>166.0</ele><time>2026-05-01T09:00:51.757Z</time></trkpt><trkpt lat="39.5100668" lon="8.493714"><ele>166.0</ele><time>2026-05-01T09:00:53.758Z</time></trkpt><trkpt lat="39.5101622" lon="8.4936667"><ele>166.0</ele><time>2026-05-01T09:00:55.757Z</time></trkpt><trkpt lat="39.510186" lon="8.4935285"><ele>166.0</ele><time>2026-05-01T09:00:57.758Z</time></trkpt><trkpt lat="39.5101544" lon="8.493363"><ele>166.0</ele><time>2026-05-01T09:00:59.757Z</time></trkpt><trkpt lat="39.5101407" lon="8.4932713"><ele>166.0</ele><time>2026-05-01T09:01:00.757Z</time></trkpt><trkpt lat="39.510126" lon="8.4931784"><ele>166.0</ele><time>2026-05-01T09:01:01.758Z</time></trkpt><trkpt lat="39.5101051" lon="8.4930957"><ele>166.0</ele><time>2026-05-01T09:01:02.757Z</time></trkpt><trkpt lat="39.5100864" lon="8.493015"><ele>166.0</ele><time>2026-05-01T09:01:03.757Z</time></trkpt><trkpt lat="39.510063" lon="8.4929298"><ele>166.0</ele><time>2026-05-01T09:01:04.758Z</time></trkpt><trkpt lat="39.5100287" lon="8.4928406"><ele>166.0</ele><time>2026-05-01T09:01:05.758Z</time></trkpt><trkpt lat="39.5099891" lon="8.4927541"><ele>166.0</ele><time>2026-05-01T09:01:06.757Z</time></trkpt><trkpt lat="39.5099493" lon="8.4926702"><ele>166.0</ele><time>2026-05-01T09:01:07.759Z</time></trkpt><trkpt lat="39.5099177" lon="8.492575"><ele>166.0</ele><time>2026-05-01T09:01:08.759Z</time></trkpt><trkpt lat="39.5098974" lon="8.4924804"><ele>167.0</ele><time>2026-05-01T09:01:09.758Z</time></trkpt><trkpt lat="39.5098622" lon="8.4923259"><ele>168.0</ele><time>2026-05-01T09:01:11.758Z</time></trkpt><trkpt lat="39.5098056" lon="8.4921985"><ele>169.0</ele><time>2026-05-01T09:01:13.759Z</time></trkpt><trkpt lat="39.5097602" lon="8.4921373"><ele>170.0</ele><time>2026-05-01T09:01:14.758Z</time></trkpt><trkpt lat="39.5097193" lon="8.4920673"><ele>171.0</ele><time>2026-05-01T09:01:15.758Z</time></trkpt><trkpt lat="39.5096958" lon="8.4919463"><ele>173.20000000000002</ele><time>2026-05-01T09:01:17.758Z</time></trkpt><trkpt lat="39.5097487" lon="8.4918548"><ele>175.4</ele><time>2026-05-01T09:01:19.759Z</time></trkpt><trkpt lat="39.5098615" lon="8.4918273"><ele>177.6</ele><time>2026-05-01T09:01:21.757Z</time></trkpt><trkpt lat="39.5099372" lon="8.491843"><ele>179.8</ele><time>2026-05-01T09:01:22.759Z</time></trkpt><trkpt lat="39.5100194" lon="8.4918679"><ele>182.0</ele><time>2026-05-01T09:01:23.758Z</time></trkpt><trkpt lat="39.5101064" lon="8.4918803"><ele>182.0</ele><time>2026-05-01T09:01:24.758Z</time></trkpt><trkpt lat="39.5101899" lon="8.4919025"><ele>182.0</ele><time>2026-05-01T09:01:25.756Z</time></trkpt><trkpt lat="39.5102613" lon="8.4919383"><ele>182.0</ele><time>2026-05-01T09:01:26.756Z</time></trkpt><trkpt lat="39.5103248" lon="8.4919694"><ele>182.0</ele><time>2026-05-01T09:01:27.756Z</time></trkpt><trkpt lat="39.5104128" lon="8.4919799"><ele>182.0</ele><time>2026-05-01T09:01:29.758Z</time></trkpt><trkpt lat="39.5104448" lon="8.4918847"><ele>182.0</ele><time>2026-05-01T09:01:31.757Z</time></trkpt><trkpt lat="39.5103823" lon="8.4917743"><ele>182.0</ele><time>2026-05-01T09:01:33.757Z</time></trkpt><trkpt lat="39.5103285" lon="8.4917163"><ele>182.0</ele><time>2026-05-01T09:01:34.756Z</time></trkpt><trkpt lat="39.5102835" lon="8.4916375"><ele>182.0</ele><time>2026-05-01T09:01:35.757Z</time></trkpt><trkpt lat="39.510255" lon="8.4915058"><ele>182.0</ele><time>2026-05-01T09:01:37.757Z</time></trkpt><trkpt lat="39.5103141" lon="8.4913993"><ele>182.0</ele><time>2026-05-01T09:01:39.756Z</time></trkpt><trkpt lat="39.5103561" lon="8.4913383"><ele>182.0</ele><time>2026-05-01T09:01:40.756Z</time></trkpt><trkpt lat="39.5103972" lon="8.4912733"><ele>180.16666666666666</ele><time>2026-05-01T09:01:41.758Z</time></trkpt><trkpt lat="39.5104208" lon="8.4911905"><ele>178.33333333333331</ele><time>2026-05-01T09:01:42.756Z</time></trkpt><trkpt lat="39.5104254" lon="8.4911018"><ele>176.5</ele><time>2026-05-01T09:01:43.756Z</time></trkpt><trkpt lat="39.5104152" lon="8.4910075"><ele>174.66666666666666</ele><time>2026-05-01T09:01:44.756Z</time></trkpt><trkpt lat="39.5103989" lon="8.4909015"><ele>172.83333333333334</ele><time>2026-05-01T09:01:45.757Z</time></trkpt><trkpt lat="39.5104044" lon="8.490794"><ele>171.0</ele><time>2026-05-01T09:01:46.758Z</time></trkpt><trkpt lat="39.5104043" lon="8.4906876"><ele>176.60000000000002</ele><time>2026-05-01T09:01:47.758Z</time></trkpt><trkpt lat="39.5103835" lon="8.4905963"><ele>182.2</ele><time>2026-05-01T09:01:48.757Z</time></trkpt><trkpt lat="39.5103445" lon="8.4905032"><ele>187.8</ele><time>2026-05-01T09:01:49.757Z</time></trkpt><trkpt lat="39.5102833" lon="8.490374"><ele>193.39999999999998</ele><time>2026-05-01T09:01:51.758Z</time></trkpt><trkpt lat="39.5102846" lon="8.490213"><ele>199.0</ele><time>2026-05-01T09:01:53.756Z</time></trkpt><trkpt lat="39.5102953" lon="8.4901258"><ele>199.49999999999997</ele><time>2026-05-01T09:01:54.757Z</time></trkpt><trkpt lat="39.5102976" lon="8.4900357"><ele>200.0</ele><time>2026-05-01T09:01:55.757Z</time></trkpt><trkpt lat="39.5102739" lon="8.4899526"><ele>200.5</ele><time>2026-05-01T09:01:56.757Z</time></trkpt><trkpt lat="39.5102354" lon="8.4898549"><ele>201.0</ele><time>2026-05-01T09:01:57.756Z</time></trkpt><trkpt lat="39.5102052" lon="8.4897711"><ele>201.49999999999997</ele><time>2026-05-01T09:01:58.756Z</time></trkpt><trkpt lat="39.5102214" lon="8.4896233"><ele>202.0</ele><time>2026-05-01T09:02:00.756Z</time></trkpt><trkpt lat="39.5102557" lon="8.4895508"><ele>201.99999999999997</ele><time>2026-05-01T09:02:01.757Z</time></trkpt><trkpt lat="39.5103013" lon="8.4894844"><ele>202.0</ele><time>2026-05-01T09:02:02.757Z</time></trkpt><trkpt lat="39.5103581" lon="8.4894333"><ele>202.0</ele><time>2026-05-01T09:02:03.757Z</time></trkpt><trkpt lat="39.5104255" lon="8.4893936"><ele>202.0</ele><time>2026-05-01T09:02:04.757Z</time></trkpt><trkpt lat="39.5104928" lon="8.4893803"><ele>201.99999999999997</ele><time>2026-05-01T09:02:05.757Z</time></trkpt><trkpt lat="39.5106009" lon="8.4893458"><ele>202.0</ele><time>2026-05-01T09:02:07.757Z</time></trkpt><trkpt lat="39.5106325" lon="8.4892396"><ele>201.99999999999997</ele><time>2026-05-01T09:02:09.757Z</time></trkpt><trkpt lat="39.5105585" lon="8.4892379"><ele>202.0</ele><time>2026-05-01T09:02:10.758Z</time></trkpt><trkpt lat="39.5104457" lon="8.4892778"><ele>202.0</ele><time>2026-05-01T09:02:12.758Z</time></trkpt><trkpt lat="39.5103665" lon="8.4893034"><ele>202.0</ele><time>2026-05-01T09:02:13.756Z</time></trkpt><trkpt lat="39.5102819" lon="8.4893331"><ele>201.99999999999997</ele><time>2026-05-01T09:02:14.756Z</time></trkpt><trkpt lat="39.5102056" lon="8.4893496"><ele>202.0</ele><time>2026-05-01T09:02:15.757Z</time></trkpt><trkpt lat="39.5101457" lon="8.489383"><ele>201.99999999999997</ele><time>2026-05-01T09:02:16.758Z</time></trkpt><trkpt lat="39.5100997" lon="8.4894427"><ele>202.0</ele><time>2026-05-01T09:02:17.757Z</time></trkpt><trkpt lat="39.5100642" lon="8.4895272"><ele>202.0</ele><time>2026-05-01T09:02:18.756Z</time></trkpt><trkpt lat="39.5100231" lon="8.4896152"><ele>202.0</ele><time>2026-05-01T09:02:19.757Z</time></trkpt><trkpt lat="39.5099833" lon="8.4896918"><ele>201.99999999999997</ele><time>2026-05-01T09:02:20.758Z</time></trkpt><trkpt lat="39.5099556" lon="8.4897894"><ele>202.0</ele><time>2026-05-01T09:02:21.757Z</time></trkpt><trkpt lat="39.5099335" lon="8.4899001"><ele>201.99999999999997</ele><time>2026-05-01T09:02:22.758Z</time></trkpt><trkpt lat="39.5099202" lon="8.4900049"><ele>202.0</ele><time>2026-05-01T09:02:23.756Z</time></trkpt><trkpt lat="39.5099145" lon="8.490108"><ele>202.0</ele><time>2026-05-01T09:02:24.757Z</time></trkpt><trkpt lat="39.5099081" lon="8.4902055"><ele>202.0</ele><time>2026-05-01T09:02:25.757Z</time></trkpt><trkpt lat="39.5098936" lon="8.4903005"><ele>201.99999999999997</ele><time>2026-05-01T09:02:26.757Z</time></trkpt><trkpt lat="39.5098934" lon="8.4903883"><ele>202.0</ele><time>2026-05-01T09:02:27.758Z</time></trkpt><trkpt lat="39.5098788" lon="8.4905001"><ele>201.99999999999997</ele><time>2026-05-01T09:02:29.756Z</time></trkpt><trkpt lat="39.5098133" lon="8.4904969"><ele>202.0</ele><time>2026-05-01T09:02:32.758Z</time></trkpt><trkpt lat="39.5098099" lon="8.49037"><ele>202.0</ele><time>2026-05-01T09:02:34.757Z</time></trkpt><trkpt lat="39.5097848" lon="8.4902143"><ele>202.0</ele><time>2026-05-01T09:02:36.757Z</time></trkpt><trkpt lat="39.5097737" lon="8.4901276"><ele>201.99999999999997</ele><time>2026-05-01T09:02:37.757Z</time></trkpt><trkpt lat="39.5097623" lon="8.4900409"><ele>202.0</ele><time>2026-05-01T09:02:38.756Z</time></trkpt><trkpt lat="39.5097374" lon="8.4899517"><ele>201.99999999999997</ele><time>2026-05-01T09:02:39.757Z</time></trkpt><trkpt lat="39.5097047" lon="8.4898595"><ele>202.0</ele><time>2026-05-01T09:02:40.757Z</time></trkpt><trkpt lat="39.5096605" lon="8.489765"><ele>202.0</ele><time>2026-05-01T09:02:41.758Z</time></trkpt><trkpt lat="39.5096207" lon="8.4896833"><ele>202.0</ele><time>2026-05-01T09:02:42.757Z</time></trkpt><trkpt lat="39.5095846" lon="8.4895995"><ele>201.99999999999997</ele><time>2026-05-01T09:02:44.757Z</time></trkpt><trkpt lat="39.5094739" lon="8.4895874"><ele>202.0</ele><time>2026-05-01T09:03:03.758Z</time></trkpt><trkpt lat="39.5093456" lon="8.4896192"><ele>203.33333333333331</ele><time>2026-05-01T09:03:05.757Z</time></trkpt><trkpt lat="39.5092443" lon="8.4896682"><ele>204.66666666666666</ele><time>2026-05-01T09:03:07.757Z</time></trkpt><trkpt lat="39.5091499" lon="8.4897612"><ele>206.0</ele><time>2026-05-01T09:03:09.758Z</time></trkpt><trkpt lat="39.5091038" lon="8.489828"><ele>207.33333333333331</ele><time>2026-05-01T09:03:10.757Z</time></trkpt><trkpt lat="39.5090656" lon="8.4899029"><ele>208.66666666666666</ele><time>2026-05-01T09:03:11.757Z</time></trkpt><trkpt lat="39.5090304" lon="8.4899849"><ele>210.0</ele><time>2026-05-01T09:03:12.757Z</time></trkpt><trkpt lat="39.5090068" lon="8.4900703"><ele>210.0</ele><time>2026-05-01T09:03:13.756Z</time></trkpt><trkpt lat="39.5090017" lon="8.4902406"><ele>210.0</ele><time>2026-05-01T09:03:15.757Z</time></trkpt><trkpt lat="39.509006" lon="8.4903479"><ele>210.0</ele><time>2026-05-01T09:03:16.757Z</time></trkpt><trkpt lat="39.5090095" lon="8.4904537"><ele>210.0</ele><time>2026-05-01T09:03:17.756Z</time></trkpt><trkpt lat="39.5090014" lon="8.4905347"><ele>210.0</ele><time>2026-05-01T09:03:18.757Z</time></trkpt><trkpt lat="39.5089115" lon="8.4906649"><ele>210.66666666666666</ele><time>2026-05-01T09:03:20.757Z</time></trkpt><trkpt lat="39.5088389" lon="8.4907269"><ele>211.33333333333331</ele><time>2026-05-01T09:03:21.757Z</time></trkpt><trkpt lat="39.5087568" lon="8.4907758"><ele>212.0</ele><time>2026-05-01T09:03:22.757Z</time></trkpt><trkpt lat="39.5086848" lon="8.4908286"><ele>212.66666666666666</ele><time>2026-05-01T09:03:23.758Z</time></trkpt><trkpt lat="39.5086288" lon="8.4909007"><ele>213.33333333333331</ele><time>2026-05-01T09:03:24.757Z</time></trkpt><trkpt lat="39.5085734" lon="8.4909821"><ele>214.0</ele><time>2026-05-01T09:03:25.756Z</time></trkpt><trkpt lat="39.5085255" lon="8.4910488"><ele>212.33333333333331</ele><time>2026-05-01T09:03:26.757Z</time></trkpt><trkpt lat="39.5084163" lon="8.4911079"><ele>210.66666666666666</ele><time>2026-05-01T09:03:28.756Z</time></trkpt><trkpt lat="39.5083517" lon="8.4910969"><ele>209.0</ele><time>2026-05-01T09:03:29.757Z</time></trkpt><trkpt lat="39.5082758" lon="8.4910836"><ele>207.33333333333331</ele><time>2026-05-01T09:03:30.758Z</time></trkpt><trkpt lat="39.508198" lon="8.4910622"><ele>205.66666666666666</ele><time>2026-05-01T09:03:31.758Z</time></trkpt><trkpt lat="39.5081152" lon="8.4910357"><ele>204.0</ele><time>2026-05-01T09:03:32.757Z</time></trkpt><trkpt lat="39.5080341" lon="8.4910031"><ele>204.0</ele><time>2026-05-01T09:03:33.757Z</time></trkpt><trkpt lat="39.5079597" lon="8.4909892"><ele>204.0</ele><time>2026-05-01T09:03:34.756Z</time></trkpt><trkpt lat="39.5078855" lon="8.4909991"><ele>204.0</ele><time>2026-05-01T09:03:35.757Z</time></trkpt><trkpt lat="39.507818" lon="8.4910329"><ele>204.0</ele><time>2026-05-01T09:03:36.758Z</time></trkpt><trkpt lat="39.5077573" lon="8.4910862"><ele>204.0</ele><time>2026-05-01T09:03:37.758Z</time></trkpt><trkpt lat="39.5077152" lon="8.4911663"><ele>204.0</ele><time>2026-05-01T09:03:38.758Z</time></trkpt><trkpt lat="39.5076779" lon="8.4912487"><ele>204.0</ele><time>2026-05-01T09:03:39.757Z</time></trkpt><trkpt lat="39.5076318" lon="8.4914123"><ele>205.0</ele><time>2026-05-01T09:03:41.758Z</time></trkpt><trkpt lat="39.5076089" lon="8.4915042"><ele>206.0</ele><time>2026-05-01T09:03:42.758Z</time></trkpt><trkpt lat="39.5075808" lon="8.491587"><ele>207.0</ele><time>2026-05-01T09:03:43.757Z</time></trkpt><trkpt lat="39.5074799" lon="8.4917122"><ele>208.0</ele><time>2026-05-01T09:03:45.757Z</time></trkpt><trkpt lat="39.5074193" lon="8.4917794"><ele>209.0</ele><time>2026-05-01T09:03:46.757Z</time></trkpt><trkpt lat="39.5073322" lon="8.4918645"><ele>209.00000000000003</ele><time>2026-05-01T09:03:48.757Z</time></trkpt><trkpt lat="39.5072601" lon="8.4918753"><ele>209.0</ele><time>2026-05-01T09:03:50.756Z</time></trkpt><trkpt lat="39.5071725" lon="8.4918365"><ele>209.0</ele><time>2026-05-01T09:03:52.757Z</time></trkpt><trkpt lat="39.5071122" lon="8.4917731"><ele>209.0</ele><time>2026-05-01T09:03:54.756Z</time></trkpt><trkpt lat="39.5070703" lon="8.4916561"><ele>209.00000000000003</ele><time>2026-05-01T09:03:56.757Z</time></trkpt><trkpt lat="39.507008" lon="8.4915585"><ele>209.0</ele><time>2026-05-01T09:03:58.757Z</time></trkpt><trkpt lat="39.506916" lon="8.4915201"><ele>207.6</ele><time>2026-05-01T09:04:00.757Z</time></trkpt><trkpt lat="39.5068504" lon="8.4915376"><ele>206.2</ele><time>2026-05-01T09:04:01.758Z</time></trkpt><trkpt lat="39.5067742" lon="8.4915722"><ele>204.79999999999998</ele><time>2026-05-01T09:04:02.758Z</time></trkpt><trkpt lat="39.5067011" lon="8.4916051"><ele>203.39999999999998</ele><time>2026-05-01T09:04:03.757Z</time></trkpt><trkpt lat="39.5065912" lon="8.4916365"><ele>202.0</ele><time>2026-05-01T09:04:05.757Z</time></trkpt><trkpt lat="39.5064681" lon="8.4916272"><ele>201.99999999999997</ele><time>2026-05-01T09:04:07.756Z</time></trkpt><trkpt lat="39.5063503" lon="8.4916573"><ele>202.0</ele><time>2026-05-01T09:04:09.756Z</time></trkpt><trkpt lat="39.506291" lon="8.4917033"><ele>202.0</ele><time>2026-05-01T09:04:10.756Z</time></trkpt><trkpt lat="39.5062353" lon="8.4917561"><ele>202.0</ele><time>2026-05-01T09:04:11.757Z</time></trkpt><trkpt lat="39.5061869" lon="8.4918128"><ele>201.99999999999997</ele><time>2026-05-01T09:04:12.757Z</time></trkpt><trkpt lat="39.5060891" lon="8.4918516"><ele>202.0</ele><time>2026-05-01T09:04:14.756Z</time></trkpt><trkpt lat="39.5060139" lon="8.4917927"><ele>201.66666666666666</ele><time>2026-05-01T09:04:16.756Z</time></trkpt><trkpt lat="39.5059939" lon="8.4916562"><ele>201.33333333333331</ele><time>2026-05-01T09:04:18.758Z</time></trkpt><trkpt lat="39.505984" lon="8.4915645"><ele>201.0</ele><time>2026-05-01T09:04:19.757Z</time></trkpt><trkpt lat="39.5059752" lon="8.4914703"><ele>200.66666666666669</ele><time>2026-05-01T09:04:20.756Z</time></trkpt><trkpt lat="39.505959" lon="8.4913728"><ele>200.33333333333334</ele><time>2026-05-01T09:04:21.756Z</time></trkpt><trkpt lat="39.5059473" lon="8.4912738"><ele>200.0</ele><time>2026-05-01T09:04:22.757Z</time></trkpt><trkpt lat="39.5059537" lon="8.4911745"><ele>200.00000000000003</ele><time>2026-05-01T09:04:23.757Z</time></trkpt><trkpt lat="39.5059763" lon="8.4910871"><ele>200.0</ele><time>2026-05-01T09:04:24.757Z</time></trkpt><trkpt lat="39.5060124" lon="8.4910011"><ele>200.0</ele><time>2026-05-01T09:04:25.757Z</time></trkpt><trkpt lat="39.5060567" lon="8.49092"><ele>200.0</ele><time>2026-05-01T09:04:26.757Z</time></trkpt><trkpt lat="39.5061089" lon="8.4908426"><ele>200.00000000000003</ele><time>2026-05-01T09:04:27.758Z</time></trkpt><trkpt lat="39.5061414" lon="8.4907644"><ele>200.0</ele><time>2026-05-01T09:04:28.757Z</time></trkpt><trkpt lat="39.5061631" lon="8.4906478"><ele>200.00000000000003</ele><time>2026-05-01T09:04:30.758Z</time></trkpt><trkpt lat="39.5061356" lon="8.4905079"><ele>200.0</ele><time>2026-05-01T09:04:32.757Z</time></trkpt><trkpt lat="39.5061028" lon="8.4904284"><ele>200.0</ele><time>2026-05-01T09:04:33.758Z</time></trkpt><trkpt lat="39.506062" lon="8.4903476"><ele>200.0</ele><time>2026-05-01T09:04:34.757Z</time></trkpt><trkpt lat="39.5060151" lon="8.4902674"><ele>200.00000000000003</ele><time>2026-05-01T09:04:35.756Z</time></trkpt><trkpt lat="39.505963" lon="8.490205"><ele>200.0</ele><time>2026-05-01T09:04:36.757Z</time></trkpt><trkpt lat="39.5059064" lon="8.4901675"><ele>197.50000000000003</ele><time>2026-05-01T09:04:37.758Z</time></trkpt><trkpt lat="39.5058352" lon="8.4901469"><ele>195.0</ele><time>2026-05-01T09:04:38.758Z</time></trkpt><trkpt lat="39.5057573" lon="8.4901397"><ele>192.5</ele><time>2026-05-01T09:04:39.757Z</time></trkpt><trkpt lat="39.5056807" lon="8.4901296"><ele>190.0</ele><time>2026-05-01T09:04:40.757Z</time></trkpt><trkpt lat="39.5055733" lon="8.4901088"><ele>187.5</ele><time>2026-05-01T09:04:42.758Z</time></trkpt><trkpt lat="39.5054806" lon="8.4900954"><ele>185.0</ele><time>2026-05-01T09:04:44.757Z</time></trkpt><trkpt lat="39.5054204" lon="8.4900154"><ele>185.0</ele><time>2026-05-01T09:04:46.756Z</time></trkpt><trkpt lat="39.5054219" lon="8.4898881"><ele>185.0</ele><time>2026-05-01T09:04:48.756Z</time></trkpt><trkpt lat="39.5054404" lon="8.4898022"><ele>185.0</ele><time>2026-05-01T09:04:49.757Z</time></trkpt><trkpt lat="39.5054977" lon="8.4896548"><ele>185.0</ele><time>2026-05-01T09:04:51.756Z</time></trkpt><trkpt lat="39.5055401" lon="8.4895782"><ele>185.0</ele><time>2026-05-01T09:04:52.756Z</time></trkpt><trkpt lat="39.5055912" lon="8.489461"><ele>183.0</ele><time>2026-05-01T09:04:54.756Z</time></trkpt><trkpt lat="39.5056012" lon="8.4893343"><ele>181.0</ele><time>2026-05-01T09:04:56.757Z</time></trkpt><trkpt lat="39.5056183" lon="8.4892541"><ele>179.0</ele><time>2026-05-01T09:04:57.755Z</time></trkpt><trkpt lat="39.5056406" lon="8.4891686"><ele>177.0</ele><time>2026-05-01T09:04:58.756Z</time></trkpt><trkpt lat="39.5056788" lon="8.489083"><ele>175.0</ele><time>2026-05-01T09:04:59.756Z</time></trkpt><trkpt lat="39.5057185" lon="8.4889957"><ele>173.0</ele><time>2026-05-01T09:05:00.755Z</time></trkpt><trkpt lat="39.505758" lon="8.4889195"><ele>173.0</ele><time>2026-05-01T09:05:01.755Z</time></trkpt><trkpt lat="39.5058075" lon="8.4887949"><ele>173.0</ele><time>2026-05-01T09:05:03.756Z</time></trkpt><trkpt lat="39.5058001" lon="8.4886927"><ele>173.0</ele><time>2026-05-01T09:05:05.756Z</time></trkpt><trkpt lat="39.5057197" lon="8.4886366"><ele>173.0</ele><time>2026-05-01T09:05:07.755Z</time></trkpt><trkpt lat="39.5056553" lon="8.4886368"><ele>173.0</ele><time>2026-05-01T09:05:08.756Z</time></trkpt><trkpt lat="39.5055888" lon="8.4886524"><ele>173.0</ele><time>2026-05-01T09:05:09.757Z</time></trkpt><trkpt lat="39.5054906" lon="8.4886916"><ele>171.5</ele><time>2026-05-01T09:05:11.755Z</time></trkpt><trkpt lat="39.5054207" lon="8.4887321"><ele>170.0</ele><time>2026-05-01T09:05:12.756Z</time></trkpt><trkpt lat="39.505345" lon="8.4887661"><ele>168.5</ele><time>2026-05-01T09:05:13.757Z</time></trkpt><trkpt lat="39.5052642" lon="8.4888034"><ele>167.0</ele><time>2026-05-01T09:05:14.756Z</time></trkpt><trkpt lat="39.505184" lon="8.4888494"><ele>165.5</ele><time>2026-05-01T09:05:15.756Z</time></trkpt><trkpt lat="39.5051168" lon="8.4888731"><ele>164.0</ele><time>2026-05-01T09:05:16.755Z</time></trkpt><trkpt lat="39.5050045" lon="8.4888154"><ele>167.0</ele><time>2026-05-01T09:05:18.757Z</time></trkpt><trkpt lat="39.5048965" lon="8.4887839"><ele>170.0</ele><time>2026-05-01T09:05:20.756Z</time></trkpt><trkpt lat="39.5048301" lon="8.4887974"><ele>173.0</ele><time>2026-05-01T09:05:21.755Z</time></trkpt><trkpt lat="39.5047569" lon="8.4888317"><ele>176.0</ele><time>2026-05-01T09:05:22.755Z</time></trkpt><trkpt lat="39.5046712" lon="8.4888647"><ele>179.0</ele><time>2026-05-01T09:05:23.755Z</time></trkpt><trkpt lat="39.5045849" lon="8.4889076"><ele>182.0</ele><time>2026-05-01T09:05:24.757Z</time></trkpt><trkpt lat="39.5045076" lon="8.4889516"><ele>182.16666666666666</ele><time>2026-05-01T09:05:25.756Z</time></trkpt><trkpt lat="39.5043991" lon="8.4889528"><ele>182.33333333333331</ele><time>2026-05-01T09:05:27.755Z</time></trkpt><trkpt lat="39.5043644" lon="8.4888593"><ele>182.5</ele><time>2026-05-01T09:05:29.757Z</time></trkpt><trkpt lat="39.5044224" lon="8.4887595"><ele>182.66666666666666</ele><time>2026-05-01T09:05:31.757Z</time></trkpt><trkpt lat="39.5044684" lon="8.4886958"><ele>182.83333333333334</ele><time>2026-05-01T09:05:32.755Z</time></trkpt><trkpt lat="39.5044992" lon="8.4886094"><ele>183.0</ele><time>2026-05-01T09:05:33.756Z</time></trkpt><trkpt lat="39.5045173" lon="8.4885125"><ele>181.66666666666666</ele><time>2026-05-01T09:05:34.756Z</time></trkpt><trkpt lat="39.5045321" lon="8.4884099"><ele>180.33333333333334</ele><time>2026-05-01T09:05:35.756Z</time></trkpt><trkpt lat="39.5045649" lon="8.4883207"><ele>179.0</ele><time>2026-05-01T09:05:36.755Z</time></trkpt><trkpt lat="39.5046151" lon="8.4882235"><ele>177.66666666666669</ele><time>2026-05-01T09:05:37.755Z</time></trkpt><trkpt lat="39.5046772" lon="8.4881344"><ele>176.33333333333334</ele><time>2026-05-01T09:05:38.756Z</time></trkpt><trkpt lat="39.50475" lon="8.488054"><ele>175.0</ele><time>2026-05-01T09:05:39.757Z</time></trkpt><trkpt lat="39.5048097" lon="8.4879746"><ele>172.4</ele><time>2026-05-01T09:05:40.757Z</time></trkpt><trkpt lat="39.5048497" lon="8.4878869"><ele>169.8</ele><time>2026-05-01T09:05:41.757Z</time></trkpt><trkpt lat="39.504888" lon="8.4877771"><ele>167.2</ele><time>2026-05-01T09:05:42.756Z</time></trkpt><trkpt lat="39.5049353" lon="8.4876546"><ele>164.6</ele><time>2026-05-01T09:05:43.757Z</time></trkpt><trkpt lat="39.5049886" lon="8.48754"><ele>162.0</ele><time>2026-05-01T09:05:44.756Z</time></trkpt><trkpt lat="39.5050312" lon="8.4874405"><ele>162.0</ele><time>2026-05-01T09:05:45.756Z</time></trkpt><trkpt lat="39.5050584" lon="8.4873347"><ele>162.0</ele><time>2026-05-01T09:05:46.755Z</time></trkpt><trkpt lat="39.5050907" lon="8.4872217"><ele>162.0</ele><time>2026-05-01T09:05:47.757Z</time></trkpt><trkpt lat="39.5051364" lon="8.4871363"><ele>162.0</ele><time>2026-05-01T09:05:48.756Z</time></trkpt><trkpt lat="39.5051782" lon="8.4870631"><ele>162.0</ele><time>2026-05-01T09:05:49.756Z</time></trkpt><trkpt lat="39.505226" lon="8.486939"><ele>162.0</ele><time>2026-05-01T09:05:51.757Z</time></trkpt><trkpt lat="39.5052099" lon="8.4868294"><ele>161.0</ele><time>2026-05-01T09:05:53.757Z</time></trkpt><trkpt lat="39.5051357" lon="8.4867096"><ele>160.0</ele><time>2026-05-01T09:05:55.756Z</time></trkpt><trkpt lat="39.5051366" lon="8.4865836"><ele>159.0</ele><time>2026-05-01T09:05:57.756Z</time></trkpt><trkpt lat="39.5052158" lon="8.4864644"><ele>158.0</ele><time>2026-05-01T09:05:59.756Z</time></trkpt><trkpt lat="39.5052586" lon="8.4863946"><ele>157.0</ele><time>2026-05-01T09:06:00.755Z</time></trkpt><trkpt lat="39.5053089" lon="8.4862629"><ele>157.0</ele><time>2026-05-01T09:06:02.756Z</time></trkpt><trkpt lat="39.5052811" lon="8.4861471"><ele>157.0</ele><time>2026-05-01T09:06:04.757Z</time></trkpt><trkpt lat="39.5051941" lon="8.4861128"><ele>157.0</ele><time>2026-05-01T09:06:06.756Z</time></trkpt><trkpt lat="39.5050971" lon="8.4861545"><ele>157.0</ele><time>2026-05-01T09:06:08.756Z</time></trkpt><trkpt lat="39.5050335" lon="8.4861944"><ele>157.0</ele><time>2026-05-01T09:06:09.757Z</time></trkpt><trkpt lat="39.5049754" lon="8.4862465"><ele>157.0</ele><time>2026-05-01T09:06:10.756Z</time></trkpt><trkpt lat="39.5049013" lon="8.4863041"><ele>157.0</ele><time>2026-05-01T09:06:11.755Z</time></trkpt><trkpt lat="39.5048216" lon="8.4863469"><ele>157.0</ele><time>2026-05-01T09:06:12.755Z</time></trkpt><trkpt lat="39.5047367" lon="8.4863699"><ele>157.0</ele><time>2026-05-01T09:06:13.756Z</time></trkpt><trkpt lat="39.5046529" lon="8.4863623"><ele>157.0</ele><time>2026-05-01T09:06:14.756Z</time></trkpt><trkpt lat="39.5045766" lon="8.4863401"><ele>157.0</ele><time>2026-05-01T09:06:15.757Z</time></trkpt><trkpt lat="39.504493" lon="8.4863235"><ele>157.0</ele><time>2026-05-01T09:06:16.756Z</time></trkpt><trkpt lat="39.5044022" lon="8.4863069"><ele>156.0</ele><time>2026-05-01T09:06:17.755Z</time></trkpt><trkpt lat="39.5043226" lon="8.4862717"><ele>155.0</ele><time>2026-05-01T09:06:18.755Z</time></trkpt><trkpt lat="39.5042449" lon="8.4862169"><ele>154.0</ele><time>2026-05-01T09:06:19.755Z</time></trkpt><trkpt lat="39.5041687" lon="8.4861543"><ele>153.0</ele><time>2026-05-01T09:06:20.755Z</time></trkpt><trkpt lat="39.5041081" lon="8.4860903"><ele>152.0</ele><time>2026-05-01T09:06:21.755Z</time></trkpt><trkpt lat="39.5040455" lon="8.48604"><ele>151.0</ele><time>2026-05-01T09:06:22.755Z</time></trkpt><trkpt lat="39.5039756" lon="8.4860177"><ele>151.0</ele><time>2026-05-01T09:06:23.755Z</time></trkpt><trkpt lat="39.5039042" lon="8.4860233"><ele>151.0</ele><time>2026-05-01T09:06:24.755Z</time></trkpt><trkpt lat="39.5038218" lon="8.4861103"><ele>151.0</ele><time>2026-05-01T09:06:26.755Z</time></trkpt><trkpt lat="39.5038325" lon="8.4862604"><ele>151.0</ele><time>2026-05-01T09:06:28.756Z</time></trkpt><trkpt lat="39.5038752" lon="8.4863424"><ele>151.0</ele><time>2026-05-01T09:06:29.756Z</time></trkpt><trkpt lat="39.5039162" lon="8.4864209"><ele>151.0</ele><time>2026-05-01T09:06:30.756Z</time></trkpt><trkpt lat="39.5039389" lon="8.4865679"><ele>151.0</ele><time>2026-05-01T09:06:32.756Z</time></trkpt><trkpt lat="39.5038859" lon="8.4866446"><ele>151.0</ele><time>2026-05-01T09:06:34.756Z</time></trkpt><trkpt lat="39.5037653" lon="8.4865987"><ele>151.0</ele><time>2026-05-01T09:06:36.756Z</time></trkpt><trkpt lat="39.5037046" lon="8.4865768"><ele>151.0</ele><time>2026-05-01T09:06:37.757Z</time></trkpt><trkpt lat="39.5036238" lon="8.4865398"><ele>151.0</ele><time>2026-05-01T09:06:38.757Z</time></trkpt><trkpt lat="39.503556" lon="8.486495"><ele>151.0</ele><time>2026-05-01T09:06:39.756Z</time></trkpt><trkpt lat="39.5035036" lon="8.486447"><ele>150.0</ele><time>2026-05-01T09:06:40.756Z</time></trkpt><trkpt lat="39.5034157" lon="8.4864278"><ele>149.0</ele><time>2026-05-01T09:06:42.757Z</time></trkpt><trkpt lat="39.5033004" lon="8.4864765"><ele>148.0</ele><time>2026-05-01T09:06:44.757Z</time></trkpt><trkpt lat="39.503232" lon="8.486514"><ele>147.0</ele><time>2026-05-01T09:06:45.757Z</time></trkpt><trkpt lat="39.5031668" lon="8.4865981"><ele>146.0</ele><time>2026-05-01T09:06:47.757Z</time></trkpt><trkpt lat="39.5030945" lon="8.4866362"><ele>146.0</ele><time>2026-05-01T09:06:49.756Z</time></trkpt><trkpt lat="39.5030302" lon="8.48659"><ele>146.0</ele><time>2026-05-01T09:06:51.755Z</time></trkpt><trkpt lat="39.5030123" lon="8.4864597"><ele>146.0</ele><time>2026-05-01T09:06:53.756Z</time></trkpt><trkpt lat="39.5030318" lon="8.4863736"><ele>146.0</ele><time>2026-05-01T09:06:54.755Z</time></trkpt><trkpt lat="39.5030882" lon="8.4862465"><ele>146.0</ele><time>2026-05-01T09:06:56.756Z</time></trkpt><trkpt lat="39.5031273" lon="8.486157"><ele>146.0</ele><time>2026-05-01T09:06:57.757Z</time></trkpt><trkpt lat="39.5031651" lon="8.4860599"><ele>144.0</ele><time>2026-05-01T09:06:58.756Z</time></trkpt><trkpt lat="39.5032005" lon="8.4859517"><ele>142.0</ele><time>2026-05-01T09:06:59.757Z</time></trkpt><trkpt lat="39.5032197" lon="8.485846"><ele>140.0</ele><time>2026-05-01T09:07:00.756Z</time></trkpt><trkpt lat="39.5032236" lon="8.4857452"><ele>138.0</ele><time>2026-05-01T09:07:01.755Z</time></trkpt><trkpt lat="39.5032073" lon="8.4856369"><ele>136.0</ele><time>2026-05-01T09:07:02.756Z</time></trkpt><trkpt lat="39.5031866" lon="8.485558"><ele>134.0</ele><time>2026-05-01T09:07:03.755Z</time></trkpt><trkpt lat="39.5031286" lon="8.4854636"><ele>132.83333333333331</ele><time>2026-05-01T09:07:05.755Z</time></trkpt><trkpt lat="39.5030797" lon="8.4854082"><ele>131.66666666666666</ele><time>2026-05-01T09:07:06.756Z</time></trkpt><trkpt lat="39.5030564" lon="8.4852864"><ele>130.5</ele><time>2026-05-01T09:07:08.755Z</time></trkpt><trkpt lat="39.5030979" lon="8.4851691"><ele>129.33333333333334</ele><time>2026-05-01T09:07:10.756Z</time></trkpt><trkpt lat="39.5031307" lon="8.4850886"><ele>128.16666666666669</ele><time>2026-05-01T09:07:12.755Z</time></trkpt><trkpt lat="39.5031733" lon="8.4850157"><ele>127.0</ele><time>2026-05-01T09:07:14.757Z</time></trkpt><trkpt lat="39.5032276" lon="8.4849296"><ele>127.0</ele><time>2026-05-01T09:07:16.757Z</time></trkpt><trkpt lat="39.5032884" lon="8.4848575"><ele>126.99999999999999</ele><time>2026-05-01T09:07:18.756Z</time></trkpt><trkpt lat="39.5033388" lon="8.4847524"><ele>126.99999999999999</ele><time>2026-05-01T09:07:20.757Z</time></trkpt><trkpt lat="39.5033209" lon="8.4846345"><ele>127.0</ele><time>2026-05-01T09:07:22.755Z</time></trkpt><trkpt lat="39.503271" lon="8.4844763"><ele>127.0</ele><time>2026-05-01T09:07:24.756Z</time></trkpt><trkpt lat="39.5032441" lon="8.4844024"><ele>126.50000000000001</ele><time>2026-05-01T09:07:25.755Z</time></trkpt><trkpt lat="39.5032061" lon="8.4843287"><ele>126.0</ele><time>2026-05-01T09:07:26.757Z</time></trkpt><trkpt lat="39.5031053" lon="8.4842415"><ele>125.5</ele><time>2026-05-01T09:07:28.756Z</time></trkpt><trkpt lat="39.5030235" lon="8.4842217"><ele>125.0</ele><time>2026-05-01T09:07:30.756Z</time></trkpt><trkpt lat="39.5029606" lon="8.4841809"><ele>124.50000000000001</ele><time>2026-05-01T09:07:58.756Z</time></trkpt><trkpt lat="39.5029727" lon="8.4840748"><ele>124.0</ele><time>2026-05-01T09:08:43.755Z</time></trkpt><trkpt lat="39.503003" lon="8.4840003"><ele>124.00000000000001</ele><time>2026-05-01T09:08:44.755Z</time></trkpt><trkpt lat="39.5030751" lon="8.4838609"><ele>124.0</ele><time>2026-05-01T09:08:46.755Z</time></trkpt><trkpt lat="39.5031083" lon="8.4837711"><ele>124.0</ele><time>2026-05-01T09:08:47.755Z</time></trkpt><trkpt lat="39.5031357" lon="8.4836698"><ele>124.0</ele><time>2026-05-01T09:08:48.754Z</time></trkpt><trkpt lat="39.5031636" lon="8.4835912"><ele>124.00000000000001</ele><time>2026-05-01T09:08:49.754Z</time></trkpt><trkpt lat="39.5031871" lon="8.4835068"><ele>124.0</ele><time>2026-05-01T09:08:50.755Z</time></trkpt><trkpt lat="39.5032018" lon="8.4833686"><ele>122.83333333333334</ele><time>2026-05-01T09:08:52.755Z</time></trkpt><trkpt lat="39.5032056" lon="8.483235"><ele>121.66666666666667</ele><time>2026-05-01T09:08:54.756Z</time></trkpt><trkpt lat="39.5032304" lon="8.4831443"><ele>120.5</ele><time>2026-05-01T09:08:55.754Z</time></trkpt><trkpt lat="39.5032466" lon="8.4830245"><ele>119.33333333333334</ele><time>2026-05-01T09:08:57.754Z</time></trkpt><trkpt lat="39.5031931" lon="8.4829718"><ele>118.16666666666667</ele><time>2026-05-01T09:09:01.754Z</time></trkpt><trkpt lat="39.5030964" lon="8.4830239"><ele>117.0</ele><time>2026-05-01T09:09:04.755Z</time></trkpt><trkpt lat="39.5030019" lon="8.4830708"><ele>117.0</ele><time>2026-05-01T09:09:06.755Z</time></trkpt><trkpt lat="39.5029425" lon="8.4831269"><ele>116.99999999999999</ele><time>2026-05-01T09:09:07.755Z</time></trkpt><trkpt lat="39.5028507" lon="8.483236"><ele>116.99999999999999</ele><time>2026-05-01T09:09:09.755Z</time></trkpt><trkpt lat="39.5028016" lon="8.4833063"><ele>117.0</ele><time>2026-05-01T09:09:10.755Z</time></trkpt><trkpt lat="39.5026968" lon="8.4833971"><ele>117.0</ele><time>2026-05-01T09:09:12.755Z</time></trkpt><trkpt lat="39.5026391" lon="8.4834472"><ele>117.0</ele><time>2026-05-01T09:09:13.755Z</time></trkpt><trkpt lat="39.5025599" lon="8.4834739"><ele>117.0</ele><time>2026-05-01T09:09:14.755Z</time></trkpt><trkpt lat="39.5024759" lon="8.4834863"><ele>117.0</ele><time>2026-05-01T09:09:15.755Z</time></trkpt><trkpt lat="39.5023901" lon="8.4835039"><ele>117.0</ele><time>2026-05-01T09:09:16.755Z</time></trkpt><trkpt lat="39.5023034" lon="8.4835194"><ele>117.0</ele><time>2026-05-01T09:09:17.756Z</time></trkpt><trkpt lat="39.5022162" lon="8.4835458"><ele>117.0</ele><time>2026-05-01T09:09:18.755Z</time></trkpt><trkpt lat="39.5021334" lon="8.4835846"><ele>116.5</ele><time>2026-05-01T09:09:19.756Z</time></trkpt><trkpt lat="39.5020492" lon="8.4836141"><ele>116.0</ele><time>2026-05-01T09:09:20.755Z</time></trkpt><trkpt lat="39.5019618" lon="8.4836338"><ele>115.5</ele><time>2026-05-01T09:09:21.756Z</time></trkpt><trkpt lat="39.5018823" lon="8.4836208"><ele>115.0</ele><time>2026-05-01T09:09:22.755Z</time></trkpt><trkpt lat="39.5018081" lon="8.4836251"><ele>114.5</ele><time>2026-05-01T09:09:23.755Z</time></trkpt><trkpt lat="39.5017022" lon="8.483599"><ele>114.0</ele><time>2026-05-01T09:09:25.754Z</time></trkpt><trkpt lat="39.5015976" lon="8.483546"><ele>114.0</ele><time>2026-05-01T09:09:27.755Z</time></trkpt><trkpt lat="39.5014707" lon="8.4834705"><ele>114.0</ele><time>2026-05-01T09:09:29.755Z</time></trkpt><trkpt lat="39.5013965" lon="8.4834118"><ele>114.0</ele><time>2026-05-01T09:09:30.754Z</time></trkpt><trkpt lat="39.5013162" lon="8.483339"><ele>114.0</ele><time>2026-05-01T09:09:31.756Z</time></trkpt><trkpt lat="39.501233" lon="8.4832801"><ele>114.0</ele><time>2026-05-01T09:09:32.755Z</time></trkpt><trkpt lat="39.501153" lon="8.4832318"><ele>115.6</ele><time>2026-05-01T09:09:33.755Z</time></trkpt><trkpt lat="39.5010589" lon="8.4831825"><ele>117.2</ele><time>2026-05-01T09:09:34.755Z</time></trkpt><trkpt lat="39.5009582" lon="8.4831222"><ele>118.79999999999998</ele><time>2026-05-01T09:09:35.756Z</time></trkpt><trkpt lat="39.5008554" lon="8.4830635"><ele>120.39999999999999</ele><time>2026-05-01T09:09:36.755Z</time></trkpt><trkpt lat="39.5007589" lon="8.4829982"><ele>122.0</ele><time>2026-05-01T09:09:37.756Z</time></trkpt><trkpt lat="39.5006783" lon="8.4829321"><ele>121.49999999999999</ele><time>2026-05-01T09:09:38.755Z</time></trkpt><trkpt lat="39.500606" lon="8.4828764"><ele>121.0</ele><time>2026-05-01T09:09:39.755Z</time></trkpt><trkpt lat="39.5005369" lon="8.4828272"><ele>120.5</ele><time>2026-05-01T09:09:40.756Z</time></trkpt><trkpt lat="39.5004595" lon="8.4827828"><ele>120.0</ele><time>2026-05-01T09:09:41.755Z</time></trkpt><trkpt lat="39.5003793" lon="8.4827494"><ele>119.49999999999999</ele><time>2026-05-01T09:09:42.755Z</time></trkpt><trkpt lat="39.5002949" lon="8.4827243"><ele>119.0</ele><time>2026-05-01T09:09:43.755Z</time></trkpt><trkpt lat="39.5002114" lon="8.482709"><ele>118.99999999999999</ele><time>2026-05-01T09:09:44.756Z</time></trkpt><trkpt lat="39.5001311" lon="8.4826812"><ele>119.0</ele><time>2026-05-01T09:09:45.754Z</time></trkpt><trkpt lat="39.5000553" lon="8.4826537"><ele>119.0</ele><time>2026-05-01T09:09:46.756Z</time></trkpt><trkpt lat="39.4999757" lon="8.4826303"><ele>119.0</ele><time>2026-05-01T09:09:47.754Z</time></trkpt><trkpt lat="39.4998895" lon="8.4825848"><ele>118.99999999999999</ele><time>2026-05-01T09:09:48.754Z</time></trkpt><trkpt lat="39.4998048" lon="8.4825469"><ele>119.0</ele><time>2026-05-01T09:09:49.756Z</time></trkpt><trkpt lat="39.4997208" lon="8.4824976"><ele>119.0</ele><time>2026-05-01T09:09:50.755Z</time></trkpt><trkpt lat="39.4996418" lon="8.4824596"><ele>119.0</ele><time>2026-05-01T09:09:51.755Z</time></trkpt><trkpt lat="39.4995647" lon="8.4824484"><ele>119.0</ele><time>2026-05-01T09:09:52.754Z</time></trkpt><trkpt lat="39.4994689" lon="8.4824252"><ele>119.0</ele><time>2026-05-01T09:09:53.754Z</time></trkpt><trkpt lat="39.4993746" lon="8.4824031"><ele>119.0</ele><time>2026-05-01T09:09:54.756Z</time></trkpt><trkpt lat="39.499277" lon="8.4823738"><ele>119.4</ele><time>2026-05-01T09:09:55.756Z</time></trkpt><trkpt lat="39.4991872" lon="8.4823283"><ele>119.80000000000001</ele><time>2026-05-01T09:09:56.754Z</time></trkpt><trkpt lat="39.499084" lon="8.4822812"><ele>120.19999999999999</ele><time>2026-05-01T09:09:57.754Z</time></trkpt><trkpt lat="39.4989917" lon="8.4822279"><ele>120.6</ele><time>2026-05-01T09:09:58.755Z</time></trkpt><trkpt lat="39.4989027" lon="8.4821654"><ele>121.0</ele><time>2026-05-01T09:09:59.755Z</time></trkpt><trkpt lat="39.4988067" lon="8.4820951"><ele>121.33333333333334</ele><time>2026-05-01T09:10:00.754Z</time></trkpt><trkpt lat="39.4987193" lon="8.4820187"><ele>121.66666666666667</ele><time>2026-05-01T09:10:01.756Z</time></trkpt><trkpt lat="39.4986388" lon="8.4819451"><ele>122.0</ele><time>2026-05-01T09:10:02.755Z</time></trkpt><trkpt lat="39.4985664" lon="8.4818859"><ele>122.33333333333334</ele><time>2026-05-01T09:10:03.754Z</time></trkpt><trkpt lat="39.4984935" lon="8.4818468"><ele>122.66666666666667</ele><time>2026-05-01T09:10:04.757Z</time></trkpt><trkpt lat="39.4984219" lon="8.4818303"><ele>123.0</ele><time>2026-05-01T09:10:05.755Z</time></trkpt><trkpt lat="39.4983095" lon="8.4818623"><ele>123.0</ele><time>2026-05-01T09:10:07.754Z</time></trkpt><trkpt lat="39.4982345" lon="8.4819653"><ele>123.0</ele><time>2026-05-01T09:10:09.755Z</time></trkpt><trkpt lat="39.4982158" lon="8.4820643"><ele>123.0</ele><time>2026-05-01T09:10:10.756Z</time></trkpt><trkpt lat="39.4981783" lon="8.4821436"><ele>123.0</ele><time>2026-05-01T09:10:11.756Z</time></trkpt><trkpt lat="39.4981298" lon="8.4822183"><ele>123.0</ele><time>2026-05-01T09:10:12.754Z</time></trkpt><trkpt lat="39.4980737" lon="8.4822883"><ele>123.0</ele><time>2026-05-01T09:10:13.754Z</time></trkpt><trkpt lat="39.4980091" lon="8.4823652"><ele>124.0</ele><time>2026-05-01T09:10:14.754Z</time></trkpt><trkpt lat="39.4979566" lon="8.4824277"><ele>125.0</ele><time>2026-05-01T09:10:15.754Z</time></trkpt><trkpt lat="39.4978433" lon="8.4824776"><ele>126.0</ele><time>2026-05-01T09:10:17.756Z</time></trkpt><trkpt lat="39.4977849" lon="8.4825652"><ele>127.0</ele><time>2026-05-01T09:10:19.754Z</time></trkpt><trkpt lat="39.4978203" lon="8.4826517"><ele>128.0</ele><time>2026-05-01T09:15:38.752Z</time></trkpt><trkpt lat="39.4977739" lon="8.4827347"><ele>129.0</ele><time>2026-05-01T09:15:42.752Z</time></trkpt><trkpt lat="39.4977536" lon="8.4828413"><ele>129.0</ele><time>2026-05-01T09:15:45.753Z</time></trkpt><trkpt lat="39.4977228" lon="8.4829242"><ele>129.0</ele><time>2026-05-01T09:15:47.754Z</time></trkpt><trkpt lat="39.4976981" lon="8.483033"><ele>129.0</ele><time>2026-05-01T09:15:49.754Z</time></trkpt><trkpt lat="39.4977106" lon="8.483167"><ele>129.0</ele><time>2026-05-01T09:15:51.753Z</time></trkpt><trkpt lat="39.4977523" lon="8.4832974"><ele>129.0</ele><time>2026-05-01T09:15:53.752Z</time></trkpt><trkpt lat="39.4978173" lon="8.4834318"><ele>130.16666666666666</ele><time>2026-05-01T09:15:55.753Z</time></trkpt><trkpt lat="39.4978848" lon="8.4835672"><ele>131.33333333333334</ele><time>2026-05-01T09:15:57.752Z</time></trkpt><trkpt lat="39.4979255" lon="8.4836478"><ele>132.5</ele><time>2026-05-01T09:15:58.753Z</time></trkpt><trkpt lat="39.4979671" lon="8.483725"><ele>133.66666666666669</ele><time>2026-05-01T09:15:59.754Z</time></trkpt><trkpt lat="39.4980119" lon="8.4838076"><ele>134.83333333333334</ele><time>2026-05-01T09:16:00.753Z</time></trkpt><trkpt lat="39.4980616" lon="8.4838881"><ele>136.0</ele><time>2026-05-01T09:16:01.753Z</time></trkpt><trkpt lat="39.4981078" lon="8.483974"><ele>136.5</ele><time>2026-05-01T09:16:02.753Z</time></trkpt><trkpt lat="39.4981524" lon="8.4840578"><ele>137.0</ele><time>2026-05-01T09:16:03.754Z</time></trkpt><trkpt lat="39.4981991" lon="8.4841391"><ele>137.5</ele><time>2026-05-01T09:16:04.754Z</time></trkpt><trkpt lat="39.4982304" lon="8.4842292"><ele>138.0</ele><time>2026-05-01T09:16:05.753Z</time></trkpt><trkpt lat="39.4982441" lon="8.4843132"><ele>138.5</ele><time>2026-05-01T09:16:06.752Z</time></trkpt><trkpt lat="39.4982596" lon="8.4844185"><ele>139.0</ele><time>2026-05-01T09:16:07.752Z</time></trkpt><trkpt lat="39.498266" lon="8.484533"><ele>139.8</ele><time>2026-05-01T09:16:08.753Z</time></trkpt><trkpt lat="39.4982737" lon="8.4846463"><ele>140.60000000000002</ele><time>2026-05-01T09:16:09.753Z</time></trkpt><trkpt lat="39.4982689" lon="8.4847647"><ele>141.4</ele><time>2026-05-01T09:16:10.753Z</time></trkpt><trkpt lat="39.4982653" lon="8.4848832"><ele>142.20000000000002</ele><time>2026-05-01T09:16:11.754Z</time></trkpt><trkpt lat="39.4982781" lon="8.4850047"><ele>143.0</ele><time>2026-05-01T09:16:12.752Z</time></trkpt><trkpt lat="39.4982864" lon="8.4851208"><ele>143.0</ele><time>2026-05-01T09:16:13.752Z</time></trkpt><trkpt lat="39.4982837" lon="8.4852308"><ele>143.0</ele><time>2026-05-01T09:16:14.753Z</time></trkpt><trkpt lat="39.4982734" lon="8.4853224"><ele>143.0</ele><time>2026-05-01T09:16:15.753Z</time></trkpt><trkpt lat="39.4982892" lon="8.4854107"><ele>143.0</ele><time>2026-05-01T09:16:16.753Z</time></trkpt><trkpt lat="39.4983342" lon="8.4854994"><ele>143.0</ele><time>2026-05-01T09:16:17.754Z</time></trkpt><trkpt lat="39.4983794" lon="8.4855847"><ele>143.0</ele><time>2026-05-01T09:16:18.753Z</time></trkpt><trkpt lat="39.4984045" lon="8.4856796"><ele>143.0</ele><time>2026-05-01T09:16:19.753Z</time></trkpt><trkpt lat="39.4984305" lon="8.4857541"><ele>143.0</ele><time>2026-05-01T09:16:20.752Z</time></trkpt><trkpt lat="39.4985402" lon="8.4858874"><ele>143.0</ele><time>2026-05-01T09:16:22.752Z</time></trkpt><trkpt lat="39.4986084" lon="8.4859452"><ele>143.0</ele><time>2026-05-01T09:16:23.753Z</time></trkpt><trkpt lat="39.4986667" lon="8.4860263"><ele>143.0</ele><time>2026-05-01T09:16:24.753Z</time></trkpt><trkpt lat="39.4987031" lon="8.4861047"><ele>143.0</ele><time>2026-05-01T09:16:25.753Z</time></trkpt><trkpt lat="39.4987198" lon="8.4861914"><ele>143.0</ele><time>2026-05-01T09:16:26.752Z</time></trkpt><trkpt lat="39.4987218" lon="8.4863025"><ele>143.0</ele><time>2026-05-01T09:16:27.753Z</time></trkpt><trkpt lat="39.4987105" lon="8.4864226"><ele>143.0</ele><time>2026-05-01T09:16:28.753Z</time></trkpt><trkpt lat="39.4987114" lon="8.486534"><ele>143.0</ele><time>2026-05-01T09:16:29.752Z</time></trkpt><trkpt lat="39.4987273" lon="8.4866333"><ele>143.0</ele><time>2026-05-01T09:16:30.754Z</time></trkpt><trkpt lat="39.4987403" lon="8.4867476"><ele>145.0</ele><time>2026-05-01T09:16:31.753Z</time></trkpt><trkpt lat="39.4987498" lon="8.4868611"><ele>147.0</ele><time>2026-05-01T09:16:32.753Z</time></trkpt><trkpt lat="39.4987647" lon="8.4869787"><ele>149.0</ele><time>2026-05-01T09:16:33.752Z</time></trkpt><trkpt lat="39.4987751" lon="8.487095"><ele>151.0</ele><time>2026-05-01T09:16:34.753Z</time></trkpt><trkpt lat="39.4987672" lon="8.4872135"><ele>153.0</ele><time>2026-05-01T09:16:35.752Z</time></trkpt><trkpt lat="39.4987522" lon="8.4873286"><ele>154.66666666666666</ele><time>2026-05-01T09:16:36.752Z</time></trkpt><trkpt lat="39.4987347" lon="8.4874357"><ele>156.33333333333334</ele><time>2026-05-01T09:16:37.753Z</time></trkpt><trkpt lat="39.4987155" lon="8.4875365"><ele>158.0</ele><time>2026-05-01T09:16:38.753Z</time></trkpt><trkpt lat="39.4987048" lon="8.4876237"><ele>159.66666666666669</ele><time>2026-05-01T09:16:39.754Z</time></trkpt><trkpt lat="39.4986859" lon="8.4877243"><ele>161.33333333333334</ele><time>2026-05-01T09:16:40.753Z</time></trkpt><trkpt lat="39.498605" lon="8.4878672"><ele>163.0</ele><time>2026-05-01T09:16:42.752Z</time></trkpt><trkpt lat="39.4985474" lon="8.4879368"><ele>163.0</ele><time>2026-05-01T09:16:43.754Z</time></trkpt><trkpt lat="39.4984918" lon="8.4880218"><ele>163.0</ele><time>2026-05-01T09:16:44.753Z</time></trkpt><trkpt lat="39.4984419" lon="8.4881132"><ele>163.0</ele><time>2026-05-01T09:16:45.752Z</time></trkpt><trkpt lat="39.4983899" lon="8.4882027"><ele>163.0</ele><time>2026-05-01T09:16:46.753Z</time></trkpt><trkpt lat="39.4983393" lon="8.4882985"><ele>163.0</ele><time>2026-05-01T09:16:47.752Z</time></trkpt><trkpt lat="39.4982919" lon="8.4884064"><ele>163.0</ele><time>2026-05-01T09:16:48.753Z</time></trkpt><trkpt lat="39.4982452" lon="8.4885194"><ele>163.0</ele><time>2026-05-01T09:16:49.753Z</time></trkpt><trkpt lat="39.498199" lon="8.4886275"><ele>163.0</ele><time>2026-05-01T09:16:50.752Z</time></trkpt><trkpt lat="39.4981546" lon="8.4887361"><ele>163.0</ele><time>2026-05-01T09:16:51.753Z</time></trkpt><trkpt lat="39.4981108" lon="8.4888396"><ele>163.0</ele><time>2026-05-01T09:16:52.752Z</time></trkpt><trkpt lat="39.4980682" lon="8.4889461"><ele>163.0</ele><time>2026-05-01T09:16:53.754Z</time></trkpt><trkpt lat="39.4980197" lon="8.4890513"><ele>162.60000000000002</ele><time>2026-05-01T09:16:54.754Z</time></trkpt><trkpt lat="39.4979733" lon="8.4891575"><ele>162.20000000000002</ele><time>2026-05-01T09:16:55.753Z</time></trkpt><trkpt lat="39.4979244" lon="8.4892636"><ele>161.8</ele><time>2026-05-01T09:16:56.753Z</time></trkpt><trkpt lat="39.4978799" lon="8.4893667"><ele>161.4</ele><time>2026-05-01T09:16:57.753Z</time></trkpt><trkpt lat="39.4978326" lon="8.489462"><ele>161.0</ele><time>2026-05-01T09:16:58.753Z</time></trkpt><trkpt lat="39.4977844" lon="8.4895548"><ele>163.66666666666666</ele><time>2026-05-01T09:16:59.752Z</time></trkpt><trkpt lat="39.4977564" lon="8.4896378"><ele>166.33333333333331</ele><time>2026-05-01T09:17:00.753Z</time></trkpt><trkpt lat="39.4976876" lon="8.4897449"><ele>169.0</ele><time>2026-05-01T09:17:02.752Z</time></trkpt><trkpt lat="39.497637" lon="8.4897957"><ele>171.66666666666666</ele><time>2026-05-01T09:17:03.752Z</time></trkpt><trkpt lat="39.4975997" lon="8.4899268"><ele>174.33333333333334</ele><time>2026-05-01T09:17:05.752Z</time></trkpt><trkpt lat="39.4976144" lon="8.4900442"><ele>177.0</ele><time>2026-05-01T09:17:07.753Z</time></trkpt><trkpt lat="39.4975769" lon="8.4902144"><ele>177.0</ele><time>2026-05-01T09:17:09.752Z</time></trkpt><trkpt lat="39.4975463" lon="8.4902997"><ele>177.0</ele><time>2026-05-01T09:17:10.753Z</time></trkpt><trkpt lat="39.4974977" lon="8.4903786"><ele>177.0</ele><time>2026-05-01T09:17:11.753Z</time></trkpt><trkpt lat="39.497441" lon="8.4904315"><ele>177.0</ele><time>2026-05-01T09:17:12.752Z</time></trkpt><trkpt lat="39.4973786" lon="8.4904721"><ele>177.0</ele><time>2026-05-01T09:17:13.753Z</time></trkpt><trkpt lat="39.497311" lon="8.4905109"><ele>177.0</ele><time>2026-05-01T09:17:14.752Z</time></trkpt><trkpt lat="39.4972479" lon="8.4905325"><ele>177.0</ele><time>2026-05-01T09:17:15.752Z</time></trkpt><trkpt lat="39.4971553" lon="8.4906255"><ele>175.85714285714286</ele><time>2026-05-01T09:17:17.753Z</time></trkpt><trkpt lat="39.4971294" lon="8.4907004"><ele>174.7142857142857</ele><time>2026-05-01T09:17:18.753Z</time></trkpt><trkpt lat="39.4971125" lon="8.4907934"><ele>173.57142857142856</ele><time>2026-05-01T09:17:19.751Z</time></trkpt><trkpt lat="39.4970827" lon="8.4908735"><ele>172.42857142857144</ele><time>2026-05-01T09:17:20.752Z</time></trkpt><trkpt lat="39.4970367" lon="8.490944"><ele>171.28571428571428</ele><time>2026-05-01T09:17:21.752Z</time></trkpt><trkpt lat="39.4969766" lon="8.4910181"><ele>170.14285714285714</ele><time>2026-05-01T09:17:22.751Z</time></trkpt><trkpt lat="39.4969194" lon="8.4910857"><ele>169.0</ele><time>2026-05-01T09:17:23.753Z</time></trkpt><trkpt lat="39.4968016" lon="8.4911721"><ele>171.5</ele><time>2026-05-01T09:17:25.751Z</time></trkpt><trkpt lat="39.4967377" lon="8.4912279"><ele>174.0</ele><time>2026-05-01T09:17:26.752Z</time></trkpt><trkpt lat="39.4966748" lon="8.4912924"><ele>176.5</ele><time>2026-05-01T09:17:27.753Z</time></trkpt><trkpt lat="39.4966185" lon="8.4913716"><ele>179.0</ele><time>2026-05-01T09:17:28.752Z</time></trkpt><trkpt lat="39.4965753" lon="8.4914576"><ele>181.5</ele><time>2026-05-01T09:17:29.752Z</time></trkpt><trkpt lat="39.4965255" lon="8.4915194"><ele>184.0</ele><time>2026-05-01T09:17:30.752Z</time></trkpt><trkpt lat="39.4964649" lon="8.4915579"><ele>184.0</ele><time>2026-05-01T09:17:31.752Z</time></trkpt><trkpt lat="39.4964033" lon="8.4915834"><ele>184.0</ele><time>2026-05-01T09:17:32.753Z</time></trkpt><trkpt lat="39.4963278" lon="8.4917082"><ele>184.0</ele><time>2026-05-01T09:17:34.751Z</time></trkpt><trkpt lat="39.4962711" lon="8.4918524"><ele>184.0</ele><time>2026-05-01T09:17:36.753Z</time></trkpt><trkpt lat="39.4962112" lon="8.4919782"><ele>184.0</ele><time>2026-05-01T09:17:38.753Z</time></trkpt><trkpt lat="39.4960876" lon="8.4919975"><ele>187.39999999999998</ele><time>2026-05-01T09:17:40.751Z</time></trkpt><trkpt lat="39.495996" lon="8.4920496"><ele>190.8</ele><time>2026-05-01T09:17:42.751Z</time></trkpt><trkpt lat="39.4960117" lon="8.4921797"><ele>194.2</ele><time>2026-05-01T09:17:44.753Z</time></trkpt><trkpt lat="39.4960309" lon="8.4922696"><ele>197.60000000000002</ele><time>2026-05-01T09:17:45.753Z</time></trkpt><trkpt lat="39.4959892" lon="8.4924202"><ele>201.0</ele><time>2026-05-01T09:17:47.752Z</time></trkpt><trkpt lat="39.4959399" lon="8.4924868"><ele>201.0</ele><time>2026-05-01T09:17:48.751Z</time></trkpt><trkpt lat="39.4958854" lon="8.4925522"><ele>201.0</ele><time>2026-05-01T09:17:49.752Z</time></trkpt><trkpt lat="39.4958326" lon="8.4926166"><ele>201.0</ele><time>2026-05-01T09:17:50.752Z</time></trkpt><trkpt lat="39.4957337" lon="8.4926865"><ele>201.0</ele><time>2026-05-01T09:17:52.751Z</time></trkpt><trkpt lat="39.4956699" lon="8.4927072"><ele>201.0</ele><time>2026-05-01T09:17:53.751Z</time></trkpt><trkpt lat="39.495552" lon="8.4927605"><ele>201.0</ele><time>2026-05-01T09:17:55.752Z</time></trkpt><trkpt lat="39.4954785" lon="8.492803"><ele>201.0</ele><time>2026-05-01T09:17:57.752Z</time></trkpt><trkpt lat="39.4954901" lon="8.4928948"><ele>201.0</ele><time>2026-05-01T09:18:28.752Z</time></trkpt><trkpt lat="39.4955159" lon="8.4929916"><ele>201.0</ele><time>2026-05-01T09:18:30.751Z</time></trkpt><trkpt lat="39.4955808" lon="8.4931199"><ele>201.0</ele><time>2026-05-01T09:18:32.753Z</time></trkpt><trkpt lat="39.4955734" lon="8.4932393"><ele>201.0</ele><time>2026-05-01T09:18:34.753Z</time></trkpt><trkpt lat="39.4955089" lon="8.4933748"><ele>200.83333333333334</ele><time>2026-05-01T09:18:36.752Z</time></trkpt><trkpt lat="39.4954852" lon="8.4934713"><ele>200.66666666666669</ele><time>2026-05-01T09:18:37.753Z</time></trkpt><trkpt lat="39.4954637" lon="8.4935704"><ele>200.5</ele><time>2026-05-01T09:18:38.753Z</time></trkpt><trkpt lat="39.4954418" lon="8.4936633"><ele>200.33333333333334</ele><time>2026-05-01T09:18:39.752Z</time></trkpt><trkpt lat="39.4954115" lon="8.4937449"><ele>200.16666666666669</ele><time>2026-05-01T09:18:40.752Z</time></trkpt><trkpt lat="39.4953792" lon="8.4938258"><ele>200.0</ele><time>2026-05-01T09:18:41.753Z</time></trkpt><trkpt lat="39.4953106" lon="8.4939547"><ele>204.8</ele><time>2026-05-01T09:18:43.752Z</time></trkpt><trkpt lat="39.4952263" lon="8.4940582"><ele>209.6</ele><time>2026-05-01T09:18:45.752Z</time></trkpt><trkpt lat="39.4951385" lon="8.4941293"><ele>214.39999999999998</ele><time>2026-05-01T09:18:47.752Z</time></trkpt><trkpt lat="39.4950456" lon="8.4941586"><ele>219.2</ele><time>2026-05-01T09:18:49.753Z</time></trkpt><trkpt lat="39.4950093" lon="8.4942751"><ele>224.0</ele><time>2026-05-01T09:18:51.752Z</time></trkpt><trkpt lat="39.4950006" lon="8.4944222"><ele>224.00000000000003</ele><time>2026-05-01T09:18:53.753Z</time></trkpt><trkpt lat="39.4949985" lon="8.4945046"><ele>224.0</ele><time>2026-05-01T09:18:54.752Z</time></trkpt><trkpt lat="39.4949847" lon="8.4945898"><ele>224.0</ele><time>2026-05-01T09:18:55.752Z</time></trkpt><trkpt lat="39.4949638" lon="8.4946851"><ele>224.0</ele><time>2026-05-01T09:18:56.752Z</time></trkpt><trkpt lat="39.4949413" lon="8.4947816"><ele>224.00000000000003</ele><time>2026-05-01T09:18:57.751Z</time></trkpt><trkpt lat="39.4949263" lon="8.4948859"><ele>224.0</ele><time>2026-05-01T09:18:58.752Z</time></trkpt><trkpt lat="39.4949238" lon="8.4949969"><ele>224.33333333333334</ele><time>2026-05-01T09:18:59.752Z</time></trkpt><trkpt lat="39.4949305" lon="8.4951087"><ele>224.66666666666669</ele><time>2026-05-01T09:19:00.751Z</time></trkpt><trkpt lat="39.4949455" lon="8.4952252"><ele>225.0</ele><time>2026-05-01T09:19:01.752Z</time></trkpt><trkpt lat="39.4949581" lon="8.4953431"><ele>225.33333333333331</ele><time>2026-05-01T09:19:02.752Z</time></trkpt><trkpt lat="39.4949771" lon="8.4954555"><ele>225.66666666666666</ele><time>2026-05-01T09:19:03.751Z</time></trkpt><trkpt lat="39.4949988" lon="8.495547"><ele>226.0</ele><time>2026-05-01T09:19:04.752Z</time></trkpt><trkpt lat="39.4950268" lon="8.495633"><ele>227.83333333333331</ele><time>2026-05-01T09:19:05.751Z</time></trkpt><trkpt lat="39.4950542" lon="8.4957174"><ele>229.66666666666666</ele><time>2026-05-01T09:19:06.753Z</time></trkpt><trkpt lat="39.4950824" lon="8.4958051"><ele>231.5</ele><time>2026-05-01T09:19:07.752Z</time></trkpt><trkpt lat="39.4951203" lon="8.49589"><ele>233.33333333333331</ele><time>2026-05-01T09:19:08.751Z</time></trkpt><trkpt lat="39.495162" lon="8.4959705"><ele>235.16666666666666</ele><time>2026-05-01T09:19:09.752Z</time></trkpt><trkpt lat="39.4951969" lon="8.496052"><ele>237.0</ele><time>2026-05-01T09:19:10.751Z</time></trkpt><trkpt lat="39.4952323" lon="8.4961959"><ele>238.83333333333334</ele><time>2026-05-01T09:19:12.753Z</time></trkpt><trkpt lat="39.4952427" lon="8.4962817"><ele>240.66666666666669</ele><time>2026-05-01T09:19:13.753Z</time></trkpt><trkpt lat="39.4952346" lon="8.4964294"><ele>242.5</ele><time>2026-05-01T09:19:15.752Z</time></trkpt><trkpt lat="39.4952307" lon="8.496551"><ele>244.33333333333334</ele><time>2026-05-01T09:19:17.751Z</time></trkpt><trkpt lat="39.4951981" lon="8.4966474"><ele>246.16666666666669</ele><time>2026-05-01T09:19:19.752Z</time></trkpt><trkpt lat="39.4951311" lon="8.4966732"><ele>248.0</ele><time>2026-05-01T09:19:21.753Z</time></trkpt><trkpt lat="39.4950636" lon="8.4965845"><ele>248.0</ele><time>2026-05-01T09:19:23.752Z</time></trkpt><trkpt lat="39.4950523" lon="8.4964137"><ele>248.0</ele><time>2026-05-01T09:19:25.752Z</time></trkpt><trkpt lat="39.4950291" lon="8.4963092"><ele>248.0</ele><time>2026-05-01T09:19:26.752Z</time></trkpt><trkpt lat="39.4949872" lon="8.4962072"><ele>248.0</ele><time>2026-05-01T09:19:27.753Z</time></trkpt><trkpt lat="39.4949445" lon="8.4961228"><ele>248.0</ele><time>2026-05-01T09:19:28.751Z</time></trkpt><trkpt lat="39.494859" lon="8.4961034"><ele>248.00000000000003</ele><time>2026-05-01T09:19:30.752Z</time></trkpt><trkpt lat="39.4948575" lon="8.4962038"><ele>248.0</ele><time>2026-05-01T09:19:32.752Z</time></trkpt><trkpt lat="39.4949115" lon="8.4963659"><ele>248.0</ele><time>2026-05-01T09:19:34.751Z</time></trkpt><trkpt lat="39.4949231" lon="8.4964546"><ele>248.0</ele><time>2026-05-01T09:19:35.752Z</time></trkpt><trkpt lat="39.4949234" lon="8.4965478"><ele>248.00000000000003</ele><time>2026-05-01T09:19:36.752Z</time></trkpt><trkpt lat="39.4949175" lon="8.4966467"><ele>248.0</ele><time>2026-05-01T09:19:37.751Z</time></trkpt><trkpt lat="39.4949191" lon="8.4967556"><ele>248.0</ele><time>2026-05-01T09:19:38.752Z</time></trkpt><trkpt lat="39.4949266" lon="8.4968633"><ele>248.00000000000003</ele><time>2026-05-01T09:19:39.751Z</time></trkpt><trkpt lat="39.4949351" lon="8.4969501"><ele>248.0</ele><time>2026-05-01T09:19:40.752Z</time></trkpt><trkpt lat="39.4949422" lon="8.4970437"><ele>248.0</ele><time>2026-05-01T09:19:41.753Z</time></trkpt><trkpt lat="39.4949497" lon="8.4971432"><ele>248.00000000000003</ele><time>2026-05-01T09:19:42.752Z</time></trkpt><trkpt lat="39.4949598" lon="8.4972423"><ele>248.0</ele><time>2026-05-01T09:19:43.751Z</time></trkpt><trkpt lat="39.4949626" lon="8.4973334"><ele>248.0</ele><time>2026-05-01T09:19:44.751Z</time></trkpt><trkpt lat="39.494916" lon="8.4974955"><ele>249.66666666666669</ele><time>2026-05-01T09:19:46.752Z</time></trkpt><trkpt lat="39.4948645" lon="8.4975582"><ele>251.33333333333334</ele><time>2026-05-01T09:19:47.751Z</time></trkpt><trkpt lat="39.4948094" lon="8.497632"><ele>253.0</ele><time>2026-05-01T09:19:48.752Z</time></trkpt><trkpt lat="39.4947623" lon="8.497712"><ele>254.66666666666669</ele><time>2026-05-01T09:19:49.752Z</time></trkpt><trkpt lat="39.4947136" lon="8.497788"><ele>256.3333333333333</ele><time>2026-05-01T09:19:50.752Z</time></trkpt><trkpt lat="39.4946758" lon="8.4978686"><ele>258.0</ele><time>2026-05-01T09:19:51.751Z</time></trkpt><trkpt lat="39.4946346" lon="8.4979595"><ele>261.0</ele><time>2026-05-01T09:19:52.753Z</time></trkpt><trkpt lat="39.4945825" lon="8.4980297"><ele>264.0</ele><time>2026-05-01T09:19:53.752Z</time></trkpt><trkpt lat="39.4945308" lon="8.4980879"><ele>267.0</ele><time>2026-05-01T09:19:54.752Z</time></trkpt><trkpt lat="39.494512" lon="8.4981778"><ele>270.0</ele><time>2026-05-01T09:19:55.751Z</time></trkpt><trkpt lat="39.4945221" lon="8.4982585"><ele>273.0</ele><time>2026-05-01T09:19:56.752Z</time></trkpt><trkpt lat="39.4946106" lon="8.4983323"><ele>276.0</ele><time>2026-05-01T09:19:58.752Z</time></trkpt><trkpt lat="39.4947196" lon="8.4982768"><ele>276.0</ele><time>2026-05-01T09:20:00.753Z</time></trkpt><trkpt lat="39.494797" lon="8.4982417"><ele>276.0</ele><time>2026-05-01T09:20:01.751Z</time></trkpt><trkpt lat="39.4948865" lon="8.4982258"><ele>276.0</ele><time>2026-05-01T09:20:02.752Z</time></trkpt><trkpt lat="39.4949725" lon="8.4982158"><ele>276.0</ele><time>2026-05-01T09:20:03.753Z</time></trkpt><trkpt lat="39.4950457" lon="8.4981877"><ele>276.0</ele><time>2026-05-01T09:20:04.752Z</time></trkpt><trkpt lat="39.4951023" lon="8.4981432"><ele>276.0</ele><time>2026-05-01T09:20:05.752Z</time></trkpt><trkpt lat="39.4951504" lon="8.4980712"><ele>276.0</ele><time>2026-05-01T09:20:06.751Z</time></trkpt><trkpt lat="39.495207" lon="8.4979856"><ele>276.0</ele><time>2026-05-01T09:20:07.752Z</time></trkpt><trkpt lat="39.4952725" lon="8.4979257"><ele>276.0</ele><time>2026-05-01T09:20:08.752Z</time></trkpt><trkpt lat="39.495348" lon="8.4978632"><ele>276.0</ele><time>2026-05-01T09:20:09.751Z</time></trkpt><trkpt lat="39.4954266" lon="8.497807"><ele>276.0</ele><time>2026-05-01T09:20:10.753Z</time></trkpt><trkpt lat="39.4954837" lon="8.4977391"><ele>276.0</ele><time>2026-05-01T09:20:11.752Z</time></trkpt><trkpt lat="39.4955321" lon="8.4976618"><ele>277.0</ele><time>2026-05-01T09:20:12.751Z</time></trkpt><trkpt lat="39.49559" lon="8.4975556"><ele>278.0</ele><time>2026-05-01T09:20:14.752Z</time></trkpt><trkpt lat="39.4956401" lon="8.4974861"><ele>279.0</ele><time>2026-05-01T09:20:15.752Z</time></trkpt><trkpt lat="39.4956998" lon="8.4974168"><ele>280.0</ele><time>2026-05-01T09:20:16.752Z</time></trkpt><trkpt lat="39.4957471" lon="8.4973024"><ele>281.0</ele><time>2026-05-01T09:20:18.752Z</time></trkpt><trkpt lat="39.4958195" lon="8.4972908"><ele>282.0</ele><time>2026-05-01T09:20:20.752Z</time></trkpt><trkpt lat="39.4958352" lon="8.4973914"><ele>282.0</ele><time>2026-05-01T09:20:22.751Z</time></trkpt><trkpt lat="39.4957855" lon="8.4974564"><ele>282.0</ele><time>2026-05-01T09:20:23.751Z</time></trkpt><trkpt lat="39.4957327" lon="8.4975156"><ele>282.0</ele><time>2026-05-01T09:20:24.752Z</time></trkpt><trkpt lat="39.4956769" lon="8.4975992"><ele>282.0</ele><time>2026-05-01T09:20:25.752Z</time></trkpt><trkpt lat="39.4956392" lon="8.4977024"><ele>282.0</ele><time>2026-05-01T09:20:26.753Z</time></trkpt><trkpt lat="39.4956142" lon="8.4978077"><ele>282.0</ele><time>2026-05-01T09:20:27.752Z</time></trkpt><trkpt lat="39.4955771" lon="8.4978842"><ele>280.8</ele><time>2026-05-01T09:20:28.753Z</time></trkpt><trkpt lat="39.4955216" lon="8.4979687"><ele>279.6</ele><time>2026-05-01T09:20:29.752Z</time></trkpt><trkpt lat="39.4954618" lon="8.4980598"><ele>278.40000000000003</ele><time>2026-05-01T09:20:30.753Z</time></trkpt><trkpt lat="39.4954026" lon="8.4981671"><ele>277.2</ele><time>2026-05-01T09:20:31.752Z</time></trkpt><trkpt lat="39.4953462" lon="8.4982755"><ele>276.0</ele><time>2026-05-01T09:20:32.752Z</time></trkpt><trkpt lat="39.4952981" lon="8.4983829"><ele>276.0</ele><time>2026-05-01T09:20:33.752Z</time></trkpt><trkpt lat="39.4952646" lon="8.4984736"><ele>276.0</ele><time>2026-05-01T09:20:34.753Z</time></trkpt><trkpt lat="39.4952481" lon="8.4985744"><ele>276.0</ele><time>2026-05-01T09:20:35.751Z</time></trkpt><trkpt lat="39.495176" lon="8.4987"><ele>276.0</ele><time>2026-05-01T09:20:37.752Z</time></trkpt><trkpt lat="39.4951059" lon="8.498723"><ele>276.0</ele><time>2026-05-01T09:20:38.752Z</time></trkpt><trkpt lat="39.4950234" lon="8.4987346"><ele>276.0</ele><time>2026-05-01T09:20:39.752Z</time></trkpt><trkpt lat="39.4949421" lon="8.4987432"><ele>279.1666666666667</ele><time>2026-05-01T09:20:40.752Z</time></trkpt><trkpt lat="39.4948646" lon="8.4987771"><ele>282.3333333333333</ele><time>2026-05-01T09:20:41.751Z</time></trkpt><trkpt lat="39.4947924" lon="8.4988332"><ele>285.5</ele><time>2026-05-01T09:20:42.751Z</time></trkpt><trkpt lat="39.4947262" lon="8.498909"><ele>288.66666666666663</ele><time>2026-05-01T09:20:43.751Z</time></trkpt><trkpt lat="39.4946613" lon="8.4989936"><ele>291.8333333333333</ele><time>2026-05-01T09:20:44.752Z</time></trkpt><trkpt lat="39.4945888" lon="8.4990696"><ele>295.0</ele><time>2026-05-01T09:20:45.75Z</time></trkpt><trkpt lat="39.4945083" lon="8.499131"><ele>295.0</ele><time>2026-05-01T09:20:46.751Z</time></trkpt><trkpt lat="39.4944276" lon="8.4991815"><ele>295.0</ele><time>2026-05-01T09:20:47.75Z</time></trkpt><trkpt lat="39.4943409" lon="8.4992318"><ele>295.0</ele><time>2026-05-01T09:20:48.752Z</time></trkpt><trkpt lat="39.4942557" lon="8.4992834"><ele>295.0</ele><time>2026-05-01T09:20:49.752Z</time></trkpt><trkpt lat="39.4941731" lon="8.4993094"><ele>295.0</ele><time>2026-05-01T09:20:50.751Z</time></trkpt><trkpt lat="39.494091" lon="8.4993134"><ele>295.0</ele><time>2026-05-01T09:20:51.752Z</time></trkpt><trkpt lat="39.4940129" lon="8.4993022"><ele>295.0</ele><time>2026-05-01T09:20:52.751Z</time></trkpt><trkpt lat="39.4939465" lon="8.4992679"><ele>295.0</ele><time>2026-05-01T09:20:53.751Z</time></trkpt><trkpt lat="39.4938939" lon="8.4992179"><ele>295.0</ele><time>2026-05-01T09:20:54.752Z</time></trkpt><trkpt lat="39.4938521" lon="8.4991417"><ele>295.0</ele><time>2026-05-01T09:20:55.75Z</time></trkpt><trkpt lat="39.4938292" lon="8.4990552"><ele>295.0</ele><time>2026-05-01T09:20:56.752Z</time></trkpt><trkpt lat="39.4938302" lon="8.4989544"><ele>295.0</ele><time>2026-05-01T09:20:57.751Z</time></trkpt><trkpt lat="39.4938513" lon="8.4988294"><ele>293.16666666666663</ele><time>2026-05-01T09:20:58.751Z</time></trkpt><trkpt lat="39.4938813" lon="8.4987083"><ele>291.3333333333333</ele><time>2026-05-01T09:20:59.751Z</time></trkpt><trkpt lat="39.4939045" lon="8.4986097"><ele>289.5</ele><time>2026-05-01T09:21:00.751Z</time></trkpt><trkpt lat="39.4939077" lon="8.4985072"><ele>287.6666666666667</ele><time>2026-05-01T09:21:01.75Z</time></trkpt><trkpt lat="39.4938978" lon="8.4983874"><ele>285.83333333333337</ele><time>2026-05-01T09:21:02.75Z</time></trkpt><trkpt lat="39.493902" lon="8.4982662"><ele>284.0</ele><time>2026-05-01T09:21:03.75Z</time></trkpt><trkpt lat="39.4939145" lon="8.4981575"><ele>284.0</ele><time>2026-05-01T09:21:04.752Z</time></trkpt><trkpt lat="39.4939351" lon="8.4980331"><ele>284.0</ele><time>2026-05-01T09:21:05.751Z</time></trkpt><trkpt lat="39.4939464" lon="8.4979152"><ele>284.0</ele><time>2026-05-01T09:21:06.751Z</time></trkpt><trkpt lat="39.4939561" lon="8.4978004"><ele>284.0</ele><time>2026-05-01T09:21:07.752Z</time></trkpt><trkpt lat="39.493963" lon="8.4976937"><ele>284.0</ele><time>2026-05-01T09:21:08.751Z</time></trkpt><trkpt lat="39.4939743" lon="8.4976035"><ele>284.0</ele><time>2026-05-01T09:21:09.75Z</time></trkpt><trkpt lat="39.4940045" lon="8.4975065"><ele>284.6666666666667</ele><time>2026-05-01T09:21:10.751Z</time></trkpt><trkpt lat="39.4940431" lon="8.4974085"><ele>285.33333333333337</ele><time>2026-05-01T09:21:11.752Z</time></trkpt><trkpt lat="39.4940537" lon="8.4973106"><ele>286.0</ele><time>2026-05-01T09:21:12.751Z</time></trkpt><trkpt lat="39.4940468" lon="8.4971954"><ele>286.6666666666667</ele><time>2026-05-01T09:21:13.751Z</time></trkpt><trkpt lat="39.4940203" lon="8.4971004"><ele>287.3333333333333</ele><time>2026-05-01T09:21:14.75Z</time></trkpt><trkpt lat="39.4939781" lon="8.496978"><ele>288.0</ele><time>2026-05-01T09:21:15.75Z</time></trkpt><trkpt lat="39.4939477" lon="8.4968766"><ele>286.5</ele><time>2026-05-01T09:21:16.751Z</time></trkpt><trkpt lat="39.4939046" lon="8.4968055"><ele>285.0</ele><time>2026-05-01T09:21:17.752Z</time></trkpt><trkpt lat="39.4938433" lon="8.4967494"><ele>283.5</ele><time>2026-05-01T09:21:18.752Z</time></trkpt><trkpt lat="39.4937649" lon="8.4967154"><ele>282.0</ele><time>2026-05-01T09:21:19.751Z</time></trkpt><trkpt lat="39.4936851" lon="8.4966988"><ele>280.5</ele><time>2026-05-01T09:21:20.751Z</time></trkpt><trkpt lat="39.4936109" lon="8.4966766"><ele>279.0</ele><time>2026-05-01T09:21:21.752Z</time></trkpt><trkpt lat="39.493523" lon="8.4966491"><ele>282.5</ele><time>2026-05-01T09:21:22.751Z</time></trkpt><trkpt lat="39.4934353" lon="8.4966184"><ele>286.0</ele><time>2026-05-01T09:21:23.751Z</time></trkpt><trkpt lat="39.4933491" lon="8.4965957"><ele>289.5</ele><time>2026-05-01T09:21:24.752Z</time></trkpt><trkpt lat="39.4932619" lon="8.4966093"><ele>293.0</ele><time>2026-05-01T09:21:25.751Z</time></trkpt><trkpt lat="39.4931709" lon="8.4966517"><ele>296.5</ele><time>2026-05-01T09:21:26.75Z</time></trkpt><trkpt lat="39.4931104" lon="8.4967114"><ele>300.0</ele><time>2026-05-01T09:21:27.752Z</time></trkpt><trkpt lat="39.4930547" lon="8.4967972"><ele>299.99999999999994</ele><time>2026-05-01T09:21:28.751Z</time></trkpt><trkpt lat="39.4930003" lon="8.4968739"><ele>300.0</ele><time>2026-05-01T09:21:29.751Z</time></trkpt><trkpt lat="39.492941" lon="8.4969337"><ele>300.0</ele><time>2026-05-01T09:21:30.75Z</time></trkpt><trkpt lat="39.4928759" lon="8.4969704"><ele>300.0</ele><time>2026-05-01T09:21:31.75Z</time></trkpt><trkpt lat="39.4928012" lon="8.4969776"><ele>300.0</ele><time>2026-05-01T09:21:32.751Z</time></trkpt><trkpt lat="39.4927346" lon="8.4969509"><ele>299.99999999999994</ele><time>2026-05-01T09:21:33.75Z</time></trkpt><trkpt lat="39.492672" lon="8.4969099"><ele>300.0</ele><time>2026-05-01T09:21:34.75Z</time></trkpt><trkpt lat="39.4926232" lon="8.4968549"><ele>303.2</ele><time>2026-05-01T09:21:35.75Z</time></trkpt><trkpt lat="39.4925699" lon="8.4967506"><ele>306.4</ele><time>2026-05-01T09:21:37.751Z</time></trkpt><trkpt lat="39.4925594" lon="8.496652"><ele>309.6</ele><time>2026-05-01T09:21:39.751Z</time></trkpt><trkpt lat="39.4925623" lon="8.4965119"><ele>312.8</ele><time>2026-05-01T09:21:41.751Z</time></trkpt><trkpt lat="39.492554" lon="8.4963614"><ele>316.0</ele><time>2026-05-01T09:21:43.75Z</time></trkpt><trkpt lat="39.4925342" lon="8.4962831"><ele>316.0</ele><time>2026-05-01T09:21:44.751Z</time></trkpt><trkpt lat="39.492514" lon="8.4961979"><ele>316.0</ele><time>2026-05-01T09:21:45.751Z</time></trkpt><trkpt lat="39.4925067" lon="8.4960842"><ele>316.0</ele><time>2026-05-01T09:21:47.751Z</time></trkpt><trkpt lat="39.4924409" lon="8.496034"><ele>316.0</ele><time>2026-05-01T09:21:49.751Z</time></trkpt><trkpt lat="39.4924047" lon="8.4961165"><ele>316.0</ele><time>2026-05-01T09:21:51.752Z</time></trkpt><trkpt lat="39.4924421" lon="8.4962571"><ele>316.0</ele><time>2026-05-01T09:21:53.751Z</time></trkpt><trkpt lat="39.4924511" lon="8.496353"><ele>316.0</ele><time>2026-05-01T09:21:54.75Z</time></trkpt><trkpt lat="39.4924383" lon="8.496446"><ele>316.0</ele><time>2026-05-01T09:21:55.751Z</time></trkpt><trkpt lat="39.492405" lon="8.4965445"><ele>316.0</ele><time>2026-05-01T09:21:56.751Z</time></trkpt><trkpt lat="39.4923819" lon="8.4966246"><ele>316.0</ele><time>2026-05-01T09:21:57.75Z</time></trkpt><trkpt lat="39.4923771" lon="8.4967561"><ele>316.0</ele><time>2026-05-01T09:21:59.75Z</time></trkpt><trkpt lat="39.4923852" lon="8.4969187"><ele>316.0</ele><time>2026-05-01T09:22:01.752Z</time></trkpt><trkpt lat="39.4923491" lon="8.4970386"><ele>318.66666666666663</ele><time>2026-05-01T09:22:03.75Z</time></trkpt><trkpt lat="39.492339" lon="8.4971255"><ele>321.3333333333333</ele><time>2026-05-01T09:22:04.75Z</time></trkpt><trkpt lat="39.4923416" lon="8.4972128"><ele>324.0</ele><time>2026-05-01T09:22:05.75Z</time></trkpt><trkpt lat="39.4923647" lon="8.497293"><ele>326.6666666666667</ele><time>2026-05-01T09:22:06.75Z</time></trkpt><trkpt lat="39.4924391" lon="8.4974008"><ele>329.33333333333337</ele><time>2026-05-01T09:22:08.751Z</time></trkpt><trkpt lat="39.4925103" lon="8.4974942"><ele>332.0</ele><time>2026-05-01T09:22:10.752Z</time></trkpt><trkpt lat="39.492562" lon="8.4975632"><ele>332.0</ele><time>2026-05-01T09:22:11.751Z</time></trkpt><trkpt lat="39.4926151" lon="8.4976107"><ele>332.0</ele><time>2026-05-01T09:22:12.75Z</time></trkpt><trkpt lat="39.4926864" lon="8.4976434"><ele>332.0</ele><time>2026-05-01T09:22:13.75Z</time></trkpt><trkpt lat="39.492757" lon="8.4976619"><ele>332.0</ele><time>2026-05-01T09:22:14.751Z</time></trkpt><trkpt lat="39.4928353" lon="8.4976637"><ele>332.0</ele><time>2026-05-01T09:22:15.751Z</time></trkpt><trkpt lat="39.4929128" lon="8.4976517"><ele>332.0</ele><time>2026-05-01T09:22:16.751Z</time></trkpt><trkpt lat="39.4929894" lon="8.4976309"><ele>332.0</ele><time>2026-05-01T09:22:17.751Z</time></trkpt><trkpt lat="39.4930644" lon="8.4976227"><ele>332.0</ele><time>2026-05-01T09:22:18.752Z</time></trkpt><trkpt lat="39.4931478" lon="8.4976869"><ele>332.0</ele><time>2026-05-01T09:22:20.752Z</time></trkpt><trkpt lat="39.4931085" lon="8.4977708"><ele>332.0</ele><time>2026-05-01T09:22:22.75Z</time></trkpt><trkpt lat="39.4930206" lon="8.4977401"><ele>332.0</ele><time>2026-05-01T09:22:24.751Z</time></trkpt><trkpt lat="39.4929074" lon="8.4977487"><ele>332.0</ele><time>2026-05-01T09:22:26.751Z</time></trkpt><trkpt lat="39.4928346" lon="8.4977665"><ele>332.0</ele><time>2026-05-01T09:22:27.751Z</time></trkpt><trkpt lat="39.4927305" lon="8.4978213"><ele>332.0</ele><time>2026-05-01T09:22:29.751Z</time></trkpt><trkpt lat="39.4926189" lon="8.497846"><ele>332.0</ele><time>2026-05-01T09:22:31.75Z</time></trkpt><trkpt lat="39.4925028" lon="8.4978187"><ele>332.0</ele><time>2026-05-01T09:22:33.751Z</time></trkpt><trkpt lat="39.4924362" lon="8.497806"><ele>332.0</ele><time>2026-05-01T09:22:34.752Z</time></trkpt><trkpt lat="39.4923689" lon="8.4978031"><ele>332.0</ele><time>2026-05-01T09:22:35.75Z</time></trkpt><trkpt lat="39.4922826" lon="8.4977897"><ele>332.0</ele><time>2026-05-01T09:22:37.752Z</time></trkpt><trkpt lat="39.4921889" lon="8.4977006"><ele>332.0</ele><time>2026-05-01T09:22:39.751Z</time></trkpt><trkpt lat="39.4921315" lon="8.4976541"><ele>332.0</ele><time>2026-05-01T09:22:40.75Z</time></trkpt><trkpt lat="39.4920541" lon="8.497605"><ele>332.0</ele><time>2026-05-01T09:22:41.75Z</time></trkpt><trkpt lat="39.4919876" lon="8.4975406"><ele>332.0</ele><time>2026-05-01T09:22:42.751Z</time></trkpt><trkpt lat="39.4919387" lon="8.4974694"><ele>332.0</ele><time>2026-05-01T09:22:43.752Z</time></trkpt><trkpt lat="39.4919134" lon="8.4973821"><ele>332.0</ele><time>2026-05-01T09:22:44.75Z</time></trkpt><trkpt lat="39.4919126" lon="8.4972884"><ele>332.0</ele><time>2026-05-01T09:22:45.751Z</time></trkpt><trkpt lat="39.4919247" lon="8.4971969"><ele>332.0</ele><time>2026-05-01T09:22:46.751Z</time></trkpt><trkpt lat="39.491873" lon="8.4970775"><ele>332.0</ele><time>2026-05-01T09:22:48.751Z</time></trkpt><trkpt lat="39.4918171" lon="8.4971225"><ele>332.0</ele><time>2026-05-01T09:22:50.75Z</time></trkpt><trkpt lat="39.4918288" lon="8.4972531"><ele>334.4285714285714</ele><time>2026-05-01T09:22:52.751Z</time></trkpt><trkpt lat="39.4918442" lon="8.4973486"><ele>336.8571428571429</ele><time>2026-05-01T09:22:53.752Z</time></trkpt><trkpt lat="39.4918455" lon="8.497439"><ele>339.2857142857143</ele><time>2026-05-01T09:22:54.752Z</time></trkpt><trkpt lat="39.4918412" lon="8.4975311"><ele>341.71428571428567</ele><time>2026-05-01T09:22:55.751Z</time></trkpt><trkpt lat="39.4918559" lon="8.4976189"><ele>344.1428571428571</ele><time>2026-05-01T09:22:56.751Z</time></trkpt><trkpt lat="39.4918834" lon="8.4976974"><ele>346.57142857142856</ele><time>2026-05-01T09:22:57.752Z</time></trkpt><trkpt lat="39.4919304" lon="8.4977551"><ele>349.0</ele><time>2026-05-01T09:22:58.752Z</time></trkpt><trkpt lat="39.4919846" lon="8.4978267"><ele>349.0</ele><time>2026-05-01T09:22:59.751Z</time></trkpt><trkpt lat="39.4920322" lon="8.4979055"><ele>349.0</ele><time>2026-05-01T09:23:00.751Z</time></trkpt><trkpt lat="39.4920813" lon="8.4979866"><ele>349.0</ele><time>2026-05-01T09:23:01.752Z</time></trkpt><trkpt lat="39.4921482" lon="8.4980616"><ele>349.0</ele><time>2026-05-01T09:23:02.752Z</time></trkpt><trkpt lat="39.4922209" lon="8.4981327"><ele>349.0</ele><time>2026-05-01T09:23:03.752Z</time></trkpt><trkpt lat="39.4922946" lon="8.4981855"><ele>349.0</ele><time>2026-05-01T09:23:04.752Z</time></trkpt><trkpt lat="39.4923711" lon="8.4982208"><ele>349.6</ele><time>2026-05-01T09:23:05.751Z</time></trkpt><trkpt lat="39.4924328" lon="8.4982671"><ele>350.2</ele><time>2026-05-01T09:23:06.751Z</time></trkpt><trkpt lat="39.4925047" lon="8.4984002"><ele>350.8</ele><time>2026-05-01T09:23:08.751Z</time></trkpt><trkpt lat="39.4925122" lon="8.4984866"><ele>351.40000000000003</ele><time>2026-05-01T09:23:09.751Z</time></trkpt><trkpt lat="39.4925046" lon="8.4985688"><ele>352.0</ele><time>2026-05-01T09:23:10.751Z</time></trkpt><trkpt lat="39.492464" lon="8.4987228"><ele>351.6</ele><time>2026-05-01T09:23:12.75Z</time></trkpt><trkpt lat="39.4924023" lon="8.4988735"><ele>351.20000000000005</ele><time>2026-05-01T09:23:14.751Z</time></trkpt><trkpt lat="39.4923358" lon="8.4989899"><ele>350.8</ele><time>2026-05-01T09:23:16.751Z</time></trkpt><trkpt lat="39.4922421" lon="8.4990857"><ele>350.4</ele><time>2026-05-01T09:23:18.751Z</time></trkpt><trkpt lat="39.492186" lon="8.4991292"><ele>350.0</ele><time>2026-05-01T09:23:19.751Z</time></trkpt><trkpt lat="39.4921285" lon="8.4991635"><ele>354.83333333333337</ele><time>2026-05-01T09:23:20.752Z</time></trkpt><trkpt lat="39.4920676" lon="8.4992061"><ele>359.6666666666667</ele><time>2026-05-01T09:23:21.751Z</time></trkpt><trkpt lat="39.4920049" lon="8.4992541"><ele>364.5</ele><time>2026-05-01T09:23:22.75Z</time></trkpt><trkpt lat="39.4919508" lon="8.4992998"><ele>369.3333333333333</ele><time>2026-05-01T09:23:23.751Z</time></trkpt><trkpt lat="39.4918546" lon="8.4993722"><ele>374.16666666666663</ele><time>2026-05-01T09:23:25.751Z</time></trkpt><trkpt lat="39.4917968" lon="8.4994181"><ele>379.0</ele><time>2026-05-01T09:23:26.751Z</time></trkpt><trkpt lat="39.4917457" lon="8.4994787"><ele>379.0</ele><time>2026-05-01T09:23:27.75Z</time></trkpt><trkpt lat="39.4916917" lon="8.4995474"><ele>379.0</ele><time>2026-05-01T09:23:28.751Z</time></trkpt><trkpt lat="39.491638" lon="8.4995926"><ele>379.0</ele><time>2026-05-01T09:23:29.752Z</time></trkpt><trkpt lat="39.4915357" lon="8.4996804"><ele>379.0</ele><time>2026-05-01T09:23:31.751Z</time></trkpt><trkpt lat="39.4914944" lon="8.4997556"><ele>379.0</ele><time>2026-05-01T09:23:32.752Z</time></trkpt><trkpt lat="39.4914685" lon="8.4998333"><ele>379.0</ele><time>2026-05-01T09:23:33.751Z</time></trkpt><trkpt lat="39.4914464" lon="8.499911"><ele>377.79999999999995</ele><time>2026-05-01T09:23:34.75Z</time></trkpt><trkpt lat="39.4913794" lon="8.5000378"><ele>376.59999999999997</ele><time>2026-05-01T09:23:36.752Z</time></trkpt><trkpt lat="39.4913188" lon="8.5001926"><ele>375.4</ele><time>2026-05-01T09:23:38.75Z</time></trkpt><trkpt lat="39.4913121" lon="8.5002879"><ele>374.2</ele><time>2026-05-01T09:23:39.752Z</time></trkpt><trkpt lat="39.4913238" lon="8.5003861"><ele>373.0</ele><time>2026-05-01T09:23:40.75Z</time></trkpt><trkpt lat="39.4913498" lon="8.5004734"><ele>375.5</ele><time>2026-05-01T09:23:41.751Z</time></trkpt><trkpt lat="39.4913965" lon="8.5005486"><ele>378.0</ele><time>2026-05-01T09:23:42.751Z</time></trkpt><trkpt lat="39.4914601" lon="8.5006151"><ele>380.5</ele><time>2026-05-01T09:23:43.752Z</time></trkpt><trkpt lat="39.49153" lon="8.5006615"><ele>383.0</ele><time>2026-05-01T09:23:44.751Z</time></trkpt><trkpt lat="39.4915979" lon="8.5007066"><ele>385.50000000000006</ele><time>2026-05-01T09:23:45.752Z</time></trkpt><trkpt lat="39.491674" lon="8.5007659"><ele>388.0</ele><time>2026-05-01T09:23:46.75Z</time></trkpt><trkpt lat="39.4917508" lon="8.5008301"><ele>388.00000000000006</ele><time>2026-05-01T09:23:47.751Z</time></trkpt><trkpt lat="39.4918172" lon="8.5008732"><ele>388.0</ele><time>2026-05-01T09:23:48.751Z</time></trkpt><trkpt lat="39.4918827" lon="8.5008936"><ele>388.0</ele><time>2026-05-01T09:23:49.75Z</time></trkpt><trkpt lat="39.4919604" lon="8.5009451"><ele>388.0</ele><time>2026-05-01T09:23:51.751Z</time></trkpt><trkpt lat="39.4919348" lon="8.5010218"><ele>388.00000000000006</ele><time>2026-05-01T09:23:53.75Z</time></trkpt><trkpt lat="39.4918449" lon="8.5010227"><ele>388.0</ele><time>2026-05-01T09:23:55.751Z</time></trkpt><trkpt lat="39.4917815" lon="8.5009935"><ele>388.00000000000006</ele><time>2026-05-01T09:23:56.75Z</time></trkpt><trkpt lat="39.491703" lon="8.5009539"><ele>388.0</ele><time>2026-05-01T09:23:57.751Z</time></trkpt><trkpt lat="39.4916207" lon="8.5009114"><ele>388.0</ele><time>2026-05-01T09:23:58.751Z</time></trkpt><trkpt lat="39.4915357" lon="8.5008673"><ele>388.0</ele><time>2026-05-01T09:23:59.75Z</time></trkpt><trkpt lat="39.4914423" lon="8.5008348"><ele>388.00000000000006</ele><time>2026-05-01T09:24:00.751Z</time></trkpt><trkpt lat="39.491356" lon="8.5008107"><ele>388.0</ele><time>2026-05-01T09:24:01.75Z</time></trkpt><trkpt lat="39.4912866" lon="8.5007762"><ele>390.2</ele><time>2026-05-01T09:24:02.751Z</time></trkpt><trkpt lat="39.4912217" lon="8.5007149"><ele>392.4</ele><time>2026-05-01T09:24:03.752Z</time></trkpt><trkpt lat="39.4911555" lon="8.5006155"><ele>394.59999999999997</ele><time>2026-05-01T09:24:04.751Z</time></trkpt><trkpt lat="39.4911002" lon="8.500502"><ele>396.79999999999995</ele><time>2026-05-01T09:24:05.75Z</time></trkpt><trkpt lat="39.4910618" lon="8.5003925"><ele>399.0</ele><time>2026-05-01T09:24:06.751Z</time></trkpt><trkpt lat="39.491041" lon="8.5002771"><ele>399.0</ele><time>2026-05-01T09:24:07.751Z</time></trkpt><trkpt lat="39.4910392" lon="8.5001615"><ele>399.0</ele><time>2026-05-01T09:24:08.752Z</time></trkpt><trkpt lat="39.4910559" lon="8.5000473"><ele>399.0</ele><time>2026-05-01T09:24:09.751Z</time></trkpt><trkpt lat="39.4910868" lon="8.4999496"><ele>399.0</ele><time>2026-05-01T09:24:10.751Z</time></trkpt><trkpt lat="39.4911205" lon="8.4998341"><ele>399.0</ele><time>2026-05-01T09:24:11.752Z</time></trkpt><trkpt lat="39.4911603" lon="8.499724"><ele>399.0</ele><time>2026-05-01T09:24:12.752Z</time></trkpt><trkpt lat="39.491199" lon="8.4996232"><ele>399.0</ele><time>2026-05-01T09:24:13.75Z</time></trkpt><trkpt lat="39.4912114" lon="8.4995283"><ele>399.0</ele><time>2026-05-01T09:24:14.75Z</time></trkpt><trkpt lat="39.4911816" lon="8.4994161"><ele>399.0</ele><time>2026-05-01T09:24:16.75Z</time></trkpt><trkpt lat="39.4910973" lon="8.4993602"><ele>399.0</ele><time>2026-05-01T09:24:19.751Z</time></trkpt><trkpt lat="39.4909852" lon="8.4993556"><ele>397.2</ele><time>2026-05-01T09:24:21.75Z</time></trkpt><trkpt lat="39.4908579" lon="8.4993853"><ele>395.4</ele><time>2026-05-01T09:24:23.751Z</time></trkpt><trkpt lat="39.4907951" lon="8.4993968"><ele>393.6</ele><time>2026-05-01T09:24:24.752Z</time></trkpt><trkpt lat="39.4907286" lon="8.4994095"><ele>391.8</ele><time>2026-05-01T09:24:25.751Z</time></trkpt><trkpt lat="39.4906024" lon="8.4994371"><ele>390.0</ele><time>2026-05-01T09:24:27.749Z</time></trkpt><trkpt lat="39.4905329" lon="8.4994398"><ele>392.8333333333333</ele><time>2026-05-01T09:24:28.75Z</time></trkpt><trkpt lat="39.4904194" lon="8.4993844"><ele>395.66666666666663</ele><time>2026-05-01T09:24:30.749Z</time></trkpt><trkpt lat="39.4903583" lon="8.49934"><ele>398.5</ele><time>2026-05-01T09:24:31.749Z</time></trkpt><trkpt lat="39.4902982" lon="8.4992815"><ele>401.3333333333333</ele><time>2026-05-01T09:24:32.75Z</time></trkpt><trkpt lat="39.4902441" lon="8.4992047"><ele>404.16666666666663</ele><time>2026-05-01T09:24:33.749Z</time></trkpt><trkpt lat="39.4901923" lon="8.4991304"><ele>407.0</ele><time>2026-05-01T09:24:34.75Z</time></trkpt><trkpt lat="39.4901379" lon="8.4990776"><ele>407.0</ele><time>2026-05-01T09:24:35.751Z</time></trkpt><trkpt lat="39.4900185" lon="8.4990468"><ele>407.0</ele><time>2026-05-01T09:24:37.75Z</time></trkpt><trkpt lat="39.4899492" lon="8.499007"><ele>407.0</ele><time>2026-05-01T09:24:38.75Z</time></trkpt><trkpt lat="39.4898759" lon="8.4989684"><ele>407.0</ele><time>2026-05-01T09:24:39.751Z</time></trkpt><trkpt lat="39.489808" lon="8.4989309"><ele>407.0</ele><time>2026-05-01T09:24:40.751Z</time></trkpt><trkpt lat="39.4896975" lon="8.4988718"><ele>407.0</ele><time>2026-05-01T09:24:42.75Z</time></trkpt><trkpt lat="39.4896367" lon="8.4988482"><ele>407.0</ele><time>2026-05-01T09:24:43.751Z</time></trkpt><trkpt lat="39.4895247" lon="8.4987976"><ele>407.0</ele><time>2026-05-01T09:24:45.75Z</time></trkpt><trkpt lat="39.489402" lon="8.4987928"><ele>407.0</ele><time>2026-05-01T09:24:47.751Z</time></trkpt><trkpt lat="39.489291" lon="8.4987548"><ele>407.0</ele><time>2026-05-01T09:24:49.75Z</time></trkpt><trkpt lat="39.4892294" lon="8.4987364"><ele>406.8333333333333</ele><time>2026-05-01T09:24:50.749Z</time></trkpt><trkpt lat="39.4891337" lon="8.4986752"><ele>406.66666666666663</ele><time>2026-05-01T09:24:52.75Z</time></trkpt><trkpt lat="39.4890494" lon="8.4986511"><ele>406.5</ele><time>2026-05-01T09:24:54.75Z</time></trkpt><trkpt lat="39.4889838" lon="8.4986545"><ele>406.33333333333337</ele><time>2026-05-01T09:24:57.749Z</time></trkpt><trkpt lat="39.4890033" lon="8.4987326"><ele>406.1666666666667</ele><time>2026-05-01T09:25:01.75Z</time></trkpt><trkpt lat="39.4890646" lon="8.4987869"><ele>406.0</ele><time>2026-05-01T09:25:13.751Z</time></trkpt><trkpt lat="39.4891193" lon="8.4988363"><ele>410.25</ele><time>2026-05-01T09:25:30.749Z</time></trkpt><trkpt lat="39.4892058" lon="8.4988725"><ele>414.5</ele><time>2026-05-01T09:25:31.751Z</time></trkpt><trkpt lat="39.4893153" lon="8.4989186"><ele>418.75</ele><time>2026-05-01T09:25:32.75Z</time></trkpt><trkpt lat="39.4894446" lon="8.4989968"><ele>423.0</ele><time>2026-05-01T09:25:33.75Z</time></trkpt><trkpt lat="39.4895819" lon="8.4991103"><ele>423.0</ele><time>2026-05-01T09:25:34.75Z</time></trkpt><trkpt lat="39.4897179" lon="8.4992627"><ele>423.0</ele><time>2026-05-01T09:25:35.749Z</time></trkpt><trkpt lat="39.4898518" lon="8.4994508"><ele>423.0</ele><time>2026-05-01T09:25:36.749Z</time></trkpt><trkpt lat="39.4899571" lon="8.4996289"><ele>423.0</ele><time>2026-05-01T09:25:37.75Z</time></trkpt><trkpt lat="39.4900361" lon="8.4997953"><ele>423.0</ele><time>2026-05-01T09:25:38.75Z</time></trkpt><trkpt lat="39.4900886" lon="8.4999488"><ele>423.0</ele><time>2026-05-01T09:25:39.75Z</time></trkpt><trkpt lat="39.4901201" lon="8.5000853"><ele>423.0</ele><time>2026-05-01T09:25:40.749Z</time></trkpt><trkpt lat="39.4901164" lon="8.5002211"><ele>423.0</ele><time>2026-05-01T09:25:41.75Z</time></trkpt><trkpt lat="39.4900823" lon="8.5003574"><ele>423.0</ele><time>2026-05-01T09:25:42.75Z</time></trkpt><trkpt lat="39.4900131" lon="8.5004909"><ele>423.0</ele><time>2026-05-01T09:25:43.75Z</time></trkpt><trkpt lat="39.4899175" lon="8.5006175"><ele>423.0</ele><time>2026-05-01T09:25:44.749Z</time></trkpt><trkpt lat="39.4898016" lon="8.5007359"><ele>423.5</ele><time>2026-05-01T09:25:45.751Z</time></trkpt><trkpt lat="39.4896786" lon="8.5008477"><ele>424.0</ele><time>2026-05-01T09:25:46.749Z</time></trkpt><trkpt lat="39.4895601" lon="8.5009615"><ele>424.5</ele><time>2026-05-01T09:25:47.749Z</time></trkpt><trkpt lat="39.4894574" lon="8.5010904"><ele>425.0</ele><time>2026-05-01T09:25:48.75Z</time></trkpt><trkpt lat="39.4893654" lon="8.5012259"><ele>428.5</ele><time>2026-05-01T09:25:49.75Z</time></trkpt><trkpt lat="39.4892806" lon="8.5013594"><ele>432.0</ele><time>2026-05-01T09:25:50.751Z</time></trkpt><trkpt lat="39.489205" lon="8.5014883"><ele>435.5</ele><time>2026-05-01T09:25:51.75Z</time></trkpt><trkpt lat="39.4891421" lon="8.5016132"><ele>439.0</ele><time>2026-05-01T09:25:52.749Z</time></trkpt><trkpt lat="39.4890856" lon="8.5017332"><ele>439.0</ele><time>2026-05-01T09:25:53.749Z</time></trkpt><trkpt lat="39.4890314" lon="8.501858"><ele>439.0</ele><time>2026-05-01T09:25:54.75Z</time></trkpt><trkpt lat="39.4889735" lon="8.5019962"><ele>439.0</ele><time>2026-05-01T09:25:55.749Z</time></trkpt><trkpt lat="39.4889126" lon="8.5021489"><ele>439.0</ele><time>2026-05-01T09:25:56.75Z</time></trkpt><trkpt lat="39.4888419" lon="8.5023157"><ele>440.0</ele><time>2026-05-01T09:25:57.749Z</time></trkpt><trkpt lat="39.4887662" lon="8.5024909"><ele>441.0</ele><time>2026-05-01T09:25:58.749Z</time></trkpt><trkpt lat="39.4886965" lon="8.5026693"><ele>442.0</ele><time>2026-05-01T09:25:59.749Z</time></trkpt><trkpt lat="39.4886326" lon="8.5028385"><ele>438.25</ele><time>2026-05-01T09:26:00.749Z</time></trkpt><trkpt lat="39.4885728" lon="8.5029997"><ele>434.5</ele><time>2026-05-01T09:26:01.749Z</time></trkpt><trkpt lat="39.4885178" lon="8.5031513"><ele>430.75</ele><time>2026-05-01T09:26:02.75Z</time></trkpt><trkpt lat="39.4884653" lon="8.5032969"><ele>427.0</ele><time>2026-05-01T09:26:03.751Z</time></trkpt><trkpt lat="39.4884126" lon="8.5034254"><ele>427.0</ele><time>2026-05-01T09:26:04.75Z</time></trkpt><trkpt lat="39.4883454" lon="8.5035489"><ele>427.0</ele><time>2026-05-01T09:26:05.749Z</time></trkpt><trkpt lat="39.488249" lon="8.5036657"><ele>427.0</ele><time>2026-05-01T09:26:06.75Z</time></trkpt><trkpt lat="39.488119" lon="8.5037606"><ele>427.0</ele><time>2026-05-01T09:26:07.75Z</time></trkpt><trkpt lat="39.4879707" lon="8.503842"><ele>427.0</ele><time>2026-05-01T09:26:08.749Z</time></trkpt><trkpt lat="39.4878158" lon="8.5038999"><ele>427.0</ele><time>2026-05-01T09:26:09.75Z</time></trkpt><trkpt lat="39.4876726" lon="8.5039262"><ele>427.0</ele><time>2026-05-01T09:26:10.75Z</time></trkpt><trkpt lat="39.487537" lon="8.5039189"><ele>427.0</ele><time>2026-05-01T09:26:11.75Z</time></trkpt><trkpt lat="39.4874025" lon="8.5038776"><ele>427.0</ele><time>2026-05-01T09:26:12.75Z</time></trkpt><trkpt lat="39.4872607" lon="8.5038102"><ele>427.0</ele><time>2026-05-01T09:26:13.751Z</time></trkpt><trkpt lat="39.4871151" lon="8.5037312"><ele>427.0</ele><time>2026-05-01T09:26:14.751Z</time></trkpt><trkpt lat="39.4869622" lon="8.5036491"><ele>422.25</ele><time>2026-05-01T09:26:15.75Z</time></trkpt><trkpt lat="39.4868188" lon="8.5035722"><ele>417.5</ele><time>2026-05-01T09:26:16.749Z</time></trkpt><trkpt lat="39.4866859" lon="8.5035037"><ele>412.75</ele><time>2026-05-01T09:26:17.749Z</time></trkpt><trkpt lat="39.486563" lon="8.50344"><ele>408.0</ele><time>2026-05-01T09:26:18.75Z</time></trkpt><trkpt lat="39.4864424" lon="8.5033838"><ele>408.0</ele><time>2026-05-01T09:26:19.75Z</time></trkpt><trkpt lat="39.4863231" lon="8.5033537"><ele>408.0</ele><time>2026-05-01T09:26:20.75Z</time></trkpt><trkpt lat="39.486199" lon="8.5033576"><ele>408.0</ele><time>2026-05-01T09:26:21.751Z</time></trkpt><trkpt lat="39.4860878" lon="8.5033958"><ele>408.0</ele><time>2026-05-01T09:26:22.751Z</time></trkpt><trkpt lat="39.4859913" lon="8.5034593"><ele>406.0</ele><time>2026-05-01T09:26:23.75Z</time></trkpt><trkpt lat="39.4859188" lon="8.5035596"><ele>404.0</ele><time>2026-05-01T09:26:24.751Z</time></trkpt><trkpt lat="39.4858701" lon="8.5036959"><ele>402.0</ele><time>2026-05-01T09:26:25.751Z</time></trkpt><trkpt lat="39.4858429" lon="8.5038497"><ele>400.0</ele><time>2026-05-01T09:26:26.749Z</time></trkpt><trkpt lat="39.4858096" lon="8.5040037"><ele>400.0</ele><time>2026-05-01T09:26:27.75Z</time></trkpt><trkpt lat="39.4857393" lon="8.5041418"><ele>400.0</ele><time>2026-05-01T09:26:28.75Z</time></trkpt><trkpt lat="39.4856381" lon="8.504259"><ele>400.0</ele><time>2026-05-01T09:26:29.751Z</time></trkpt><trkpt lat="39.485515" lon="8.5043434"><ele>400.0</ele><time>2026-05-01T09:26:30.751Z</time></trkpt><trkpt lat="39.4853893" lon="8.5044281"><ele>397.5</ele><time>2026-05-01T09:26:31.751Z</time></trkpt><trkpt lat="39.4852693" lon="8.5045034"><ele>395.0</ele><time>2026-05-01T09:26:32.751Z</time></trkpt><trkpt lat="39.4851462" lon="8.5045799"><ele>392.5</ele><time>2026-05-01T09:26:33.75Z</time></trkpt><trkpt lat="39.4850226" lon="8.5046539"><ele>390.0</ele><time>2026-05-01T09:26:34.75Z</time></trkpt><trkpt lat="39.4849" lon="8.5047304"><ele>390.0</ele><time>2026-05-01T09:26:35.75Z</time></trkpt><trkpt lat="39.4847808" lon="8.5048012"><ele>390.0</ele><time>2026-05-01T09:26:36.75Z</time></trkpt><trkpt lat="39.484666" lon="8.5048587"><ele>390.0</ele><time>2026-05-01T09:26:37.749Z</time></trkpt><trkpt lat="39.4845576" lon="8.5049071"><ele>390.0</ele><time>2026-05-01T09:26:38.75Z</time></trkpt><trkpt lat="39.4844564" lon="8.5049533"><ele>389.0</ele><time>2026-05-01T09:26:39.75Z</time></trkpt><trkpt lat="39.4843582" lon="8.5050076"><ele>388.0</ele><time>2026-05-01T09:26:40.75Z</time></trkpt><trkpt lat="39.4842629" lon="8.5051072"><ele>387.0</ele><time>2026-05-01T09:26:41.749Z</time></trkpt><trkpt lat="39.4841784" lon="8.5052267"><ele>386.0</ele><time>2026-05-01T09:26:42.751Z</time></trkpt><trkpt lat="39.4840937" lon="8.5053532"><ele>385.75</ele><time>2026-05-01T09:26:43.75Z</time></trkpt><trkpt lat="39.4840071" lon="8.5054806"><ele>385.5</ele><time>2026-05-01T09:26:44.75Z</time></trkpt><trkpt lat="39.4839204" lon="8.50561"><ele>385.25</ele><time>2026-05-01T09:26:45.75Z</time></trkpt><trkpt lat="39.4838285" lon="8.5057388"><ele>385.0</ele><time>2026-05-01T09:26:46.75Z</time></trkpt><trkpt lat="39.4837309" lon="8.5058673"><ele>384.0</ele><time>2026-05-01T09:26:47.75Z</time></trkpt><trkpt lat="39.4836195" lon="8.5059798"><ele>383.0</ele><time>2026-05-01T09:26:48.75Z</time></trkpt><trkpt lat="39.4834913" lon="8.5060624"><ele>382.0</ele><time>2026-05-01T09:26:49.75Z</time></trkpt><trkpt lat="39.4833446" lon="8.5061257"><ele>381.0</ele><time>2026-05-01T09:26:50.75Z</time></trkpt><trkpt lat="39.4831877" lon="8.5061776"><ele>381.0</ele><time>2026-05-01T09:26:51.749Z</time></trkpt><trkpt lat="39.4830265" lon="8.5062179"><ele>381.0</ele><time>2026-05-01T09:26:52.751Z</time></trkpt><trkpt lat="39.4828706" lon="8.5062508"><ele>381.0</ele><time>2026-05-01T09:26:53.749Z</time></trkpt><trkpt lat="39.4827281" lon="8.5062765"><ele>378.8</ele><time>2026-05-01T09:26:54.75Z</time></trkpt><trkpt lat="39.4826009" lon="8.5062939"><ele>376.6</ele><time>2026-05-01T09:26:55.75Z</time></trkpt><trkpt lat="39.4824963" lon="8.506288"><ele>374.4</ele><time>2026-05-01T09:26:56.751Z</time></trkpt><trkpt lat="39.4824165" lon="8.5062455"><ele>372.2</ele><time>2026-05-01T09:26:57.749Z</time></trkpt><trkpt lat="39.4823653" lon="8.5061684"><ele>370.0</ele><time>2026-05-01T09:26:58.75Z</time></trkpt><trkpt lat="39.4823582" lon="8.5060612"><ele>369.5</ele><time>2026-05-01T09:26:59.75Z</time></trkpt><trkpt lat="39.4823918" lon="8.5059328"><ele>369.0</ele><time>2026-05-01T09:27:00.75Z</time></trkpt><trkpt lat="39.4824578" lon="8.5057913"><ele>368.5</ele><time>2026-05-01T09:27:01.749Z</time></trkpt><trkpt lat="39.4825267" lon="8.5056444"><ele>368.0</ele><time>2026-05-01T09:27:02.749Z</time></trkpt><trkpt lat="39.4826068" lon="8.5054944"><ele>371.25</ele><time>2026-05-01T09:27:03.75Z</time></trkpt><trkpt lat="39.482705" lon="8.5053626"><ele>374.5</ele><time>2026-05-01T09:27:04.75Z</time></trkpt><trkpt lat="39.4828159" lon="8.5052584"><ele>377.75</ele><time>2026-05-01T09:27:05.751Z</time></trkpt><trkpt lat="39.482913" lon="8.5051656"><ele>381.0</ele><time>2026-05-01T09:27:06.75Z</time></trkpt><trkpt lat="39.4829871" lon="8.5050694"><ele>381.0</ele><time>2026-05-01T09:27:07.751Z</time></trkpt><trkpt lat="39.4830302" lon="8.5049644"><ele>381.0</ele><time>2026-05-01T09:27:08.75Z</time></trkpt><trkpt lat="39.4830426" lon="8.5048447"><ele>381.0</ele><time>2026-05-01T09:27:09.75Z</time></trkpt><trkpt lat="39.4830034" lon="8.5047115"><ele>381.0</ele><time>2026-05-01T09:27:10.75Z</time></trkpt><trkpt lat="39.4829453" lon="8.5045789"><ele>381.0</ele><time>2026-05-01T09:27:11.749Z</time></trkpt><trkpt lat="39.4828847" lon="8.5044276"><ele>368.5</ele><time>2026-05-01T09:27:12.75Z</time></trkpt><trkpt lat="39.4828267" lon="8.5042556"><ele>356.0</ele><time>2026-05-01T09:27:13.749Z</time></trkpt><trkpt lat="39.4827825" lon="8.5040777"><ele>343.5</ele><time>2026-05-01T09:27:14.751Z</time></trkpt><trkpt lat="39.4827565" lon="8.503915"><ele>331.0</ele><time>2026-05-01T09:27:15.75Z</time></trkpt><trkpt lat="39.4827461" lon="8.5037533"><ele>329.0</ele><time>2026-05-01T09:27:16.75Z</time></trkpt><trkpt lat="39.4828111" lon="8.5036086"><ele>327.0</ele><time>2026-05-01T09:27:17.749Z</time></trkpt><trkpt lat="39.4829099" lon="8.503459"><ele>325.0</ele><time>2026-05-01T09:27:18.75Z</time></trkpt><trkpt lat="39.4830125" lon="8.5033113"><ele>323.0</ele><time>2026-05-01T09:27:19.75Z</time></trkpt><trkpt lat="39.483113" lon="8.503179"><ele>331.0</ele><time>2026-05-01T09:27:20.75Z</time></trkpt><trkpt lat="39.483207" lon="8.503081"><ele>339.0</ele><time>2026-05-01T09:27:21.75Z</time></trkpt><trkpt lat="39.4833173" lon="8.503018"><ele>347.0</ele><time>2026-05-01T09:27:22.75Z</time></trkpt><trkpt lat="39.4834567" lon="8.5029916"><ele>355.0</ele><time>2026-05-01T09:27:23.75Z</time></trkpt><trkpt lat="39.483602" lon="8.502981"><ele>355.0</ele><time>2026-05-01T09:27:24.751Z</time></trkpt><trkpt lat="39.4837399" lon="8.502967"><ele>355.0</ele><time>2026-05-01T09:27:25.75Z</time></trkpt><trkpt lat="39.4838741" lon="8.5029689"><ele>355.0</ele><time>2026-05-01T09:27:26.75Z</time></trkpt><trkpt lat="39.4839851" lon="8.5029451"><ele>355.0</ele><time>2026-05-01T09:27:27.751Z</time></trkpt><trkpt lat="39.4840716" lon="8.5028936"><ele>355.6</ele><time>2026-05-01T09:27:28.749Z</time></trkpt><trkpt lat="39.4841295" lon="8.5028034"><ele>356.2</ele><time>2026-05-01T09:27:29.749Z</time></trkpt><trkpt lat="39.4841458" lon="8.5026826"><ele>356.79999999999995</ele><time>2026-05-01T09:27:30.75Z</time></trkpt><trkpt lat="39.4841104" lon="8.5025484"><ele>357.4</ele><time>2026-05-01T09:27:31.75Z</time></trkpt><trkpt lat="39.4840398" lon="8.5024196"><ele>358.0</ele><time>2026-05-01T09:27:32.75Z</time></trkpt><trkpt lat="39.4839576" lon="8.5022852"><ele>358.0</ele><time>2026-05-01T09:27:33.749Z</time></trkpt><trkpt lat="39.4838736" lon="8.502152"><ele>358.0</ele><time>2026-05-01T09:27:34.75Z</time></trkpt><trkpt lat="39.4837838" lon="8.5020372"><ele>358.0</ele><time>2026-05-01T09:27:35.749Z</time></trkpt><trkpt lat="39.4836902" lon="8.5019429"><ele>358.0</ele><time>2026-05-01T09:27:36.751Z</time></trkpt><trkpt lat="39.4836147" lon="8.5018525"><ele>357.4</ele><time>2026-05-01T09:27:37.751Z</time></trkpt><trkpt lat="39.4835772" lon="8.5017454"><ele>356.79999999999995</ele><time>2026-05-01T09:27:38.751Z</time></trkpt><trkpt lat="39.4835841" lon="8.5016305"><ele>356.2</ele><time>2026-05-01T09:27:39.749Z</time></trkpt><trkpt lat="39.4836276" lon="8.5015285"><ele>355.6</ele><time>2026-05-01T09:27:40.749Z</time></trkpt><trkpt lat="39.483716" lon="8.5014358"><ele>355.0</ele><time>2026-05-01T09:27:41.75Z</time></trkpt><trkpt lat="39.4838276" lon="8.5013502"><ele>355.0</ele><time>2026-05-01T09:27:42.75Z</time></trkpt><trkpt lat="39.4839222" lon="8.5012617"><ele>355.0</ele><time>2026-05-01T09:27:43.75Z</time></trkpt><trkpt lat="39.4839933" lon="8.5011616"><ele>355.0</ele><time>2026-05-01T09:27:44.751Z</time></trkpt><trkpt lat="39.4840268" lon="8.5010344"><ele>355.0</ele><time>2026-05-01T09:27:45.75Z</time></trkpt><trkpt lat="39.4840114" lon="8.5009114"><ele>355.0</ele><time>2026-05-01T09:27:46.75Z</time></trkpt><trkpt lat="39.4839517" lon="8.500794"><ele>352.0</ele><time>2026-05-01T09:27:47.749Z</time></trkpt><trkpt lat="39.4838653" lon="8.5007019"><ele>349.0</ele><time>2026-05-01T09:27:48.749Z</time></trkpt><trkpt lat="39.4838002" lon="8.500587"><ele>346.0</ele><time>2026-05-01T09:27:49.75Z</time></trkpt><trkpt lat="39.4837578" lon="8.5004339"><ele>343.0</ele><time>2026-05-01T09:27:50.75Z</time></trkpt><trkpt lat="39.483758" lon="8.5002814"><ele>342.25</ele><time>2026-05-01T09:27:51.751Z</time></trkpt><trkpt lat="39.4838039" lon="8.5001365"><ele>341.5</ele><time>2026-05-01T09:27:52.75Z</time></trkpt><trkpt lat="39.4838629" lon="8.5000112"><ele>340.75</ele><time>2026-05-01T09:27:53.75Z</time></trkpt><trkpt lat="39.4838931" lon="8.4998683"><ele>340.0</ele><time>2026-05-01T09:27:54.749Z</time></trkpt><trkpt lat="39.4839034" lon="8.4997181"><ele>339.4</ele><time>2026-05-01T09:27:55.75Z</time></trkpt><trkpt lat="39.4839083" lon="8.4995699"><ele>338.8</ele><time>2026-05-01T09:27:56.751Z</time></trkpt><trkpt lat="39.4839139" lon="8.4994371"><ele>338.20000000000005</ele><time>2026-05-01T09:27:57.749Z</time></trkpt><trkpt lat="39.4839159" lon="8.4993114"><ele>337.6</ele><time>2026-05-01T09:27:58.749Z</time></trkpt><trkpt lat="39.4839158" lon="8.4991928"><ele>337.0</ele><time>2026-05-01T09:27:59.75Z</time></trkpt><trkpt lat="39.4839038" lon="8.4990921"><ele>337.0</ele><time>2026-05-01T09:28:00.751Z</time></trkpt><trkpt lat="39.4838701" lon="8.4989974"><ele>337.0</ele><time>2026-05-01T09:28:01.749Z</time></trkpt><trkpt lat="39.4838062" lon="8.498927"><ele>337.0</ele><time>2026-05-01T09:28:02.749Z</time></trkpt><trkpt lat="39.4837234" lon="8.4988832"><ele>337.0</ele><time>2026-05-01T09:28:03.749Z</time></trkpt><trkpt lat="39.4836291" lon="8.4988766"><ele>337.0</ele><time>2026-05-01T09:28:04.749Z</time></trkpt><trkpt lat="39.4835324" lon="8.4988867"><ele>337.0</ele><time>2026-05-01T09:28:05.75Z</time></trkpt><trkpt lat="39.4834361" lon="8.4989106"><ele>333.0</ele><time>2026-05-01T09:28:06.749Z</time></trkpt><trkpt lat="39.4833352" lon="8.4989404"><ele>329.0</ele><time>2026-05-01T09:28:07.749Z</time></trkpt><trkpt lat="39.4832372" lon="8.4989719"><ele>325.0</ele><time>2026-05-01T09:28:08.75Z</time></trkpt><trkpt lat="39.4831428" lon="8.4989985"><ele>321.0</ele><time>2026-05-01T09:28:09.749Z</time></trkpt><trkpt lat="39.483051" lon="8.4990156"><ele>317.0</ele><time>2026-05-01T09:28:10.749Z</time></trkpt><trkpt lat="39.4829595" lon="8.4990119"><ele>313.83333333333337</ele><time>2026-05-01T09:28:11.749Z</time></trkpt><trkpt lat="39.4828675" lon="8.4989893"><ele>310.6666666666667</ele><time>2026-05-01T09:28:12.75Z</time></trkpt><trkpt lat="39.482782" lon="8.498954"><ele>307.5</ele><time>2026-05-01T09:28:13.75Z</time></trkpt><trkpt lat="39.4826982" lon="8.4989101"><ele>304.3333333333333</ele><time>2026-05-01T09:28:14.75Z</time></trkpt><trkpt lat="39.4826164" lon="8.4988619"><ele>301.16666666666663</ele><time>2026-05-01T09:28:15.75Z</time></trkpt><trkpt lat="39.4825374" lon="8.4988201"><ele>298.0</ele><time>2026-05-01T09:28:16.75Z</time></trkpt><trkpt lat="39.482452" lon="8.4987781"><ele>298.0</ele><time>2026-05-01T09:28:17.748Z</time></trkpt><trkpt lat="39.4823663" lon="8.4987331"><ele>298.0</ele><time>2026-05-01T09:28:18.748Z</time></trkpt><trkpt lat="39.4822846" lon="8.4986841"><ele>298.0</ele><time>2026-05-01T09:28:19.748Z</time></trkpt><trkpt lat="39.4822064" lon="8.4986353"><ele>298.0</ele><time>2026-05-01T09:28:20.749Z</time></trkpt><trkpt lat="39.482127" lon="8.4985842"><ele>298.0</ele><time>2026-05-01T09:28:21.748Z</time></trkpt><trkpt lat="39.4820504" lon="8.4985225"><ele>298.0</ele><time>2026-05-01T09:28:22.748Z</time></trkpt><trkpt lat="39.4819894" lon="8.4984336"><ele>298.0</ele><time>2026-05-01T09:28:23.749Z</time></trkpt><trkpt lat="39.4819282" lon="8.4983188"><ele>298.0</ele><time>2026-05-01T09:28:24.749Z</time></trkpt><trkpt lat="39.4818818" lon="8.4982026"><ele>298.0</ele><time>2026-05-01T09:28:25.749Z</time></trkpt><trkpt lat="39.4818449" lon="8.4980932"><ele>298.0</ele><time>2026-05-01T09:28:26.75Z</time></trkpt><trkpt lat="39.4818097" lon="8.4979906"><ele>298.0</ele><time>2026-05-01T09:28:27.749Z</time></trkpt><trkpt lat="39.4817706" lon="8.4978964"><ele>301.8333333333333</ele><time>2026-05-01T09:28:28.75Z</time></trkpt><trkpt lat="39.4817217" lon="8.4978103"><ele>305.66666666666663</ele><time>2026-05-01T09:28:29.75Z</time></trkpt><trkpt lat="39.4816675" lon="8.49773"><ele>309.5</ele><time>2026-05-01T09:28:30.749Z</time></trkpt><trkpt lat="39.4816008" lon="8.4976681"><ele>313.3333333333333</ele><time>2026-05-01T09:28:31.75Z</time></trkpt><trkpt lat="39.4815198" lon="8.4976289"><ele>317.1666666666667</ele><time>2026-05-01T09:28:32.75Z</time></trkpt><trkpt lat="39.4814125" lon="8.4976161"><ele>321.0</ele><time>2026-05-01T09:28:33.749Z</time></trkpt><trkpt lat="39.4812685" lon="8.4976225"><ele>317.0</ele><time>2026-05-01T09:28:34.75Z</time></trkpt><trkpt lat="39.481104" lon="8.4976276"><ele>313.0</ele><time>2026-05-01T09:28:35.75Z</time></trkpt><trkpt lat="39.480927" lon="8.4976363"><ele>309.0</ele><time>2026-05-01T09:28:36.749Z</time></trkpt><trkpt lat="39.4807539" lon="8.4976461"><ele>309.0</ele><time>2026-05-01T09:28:37.749Z</time></trkpt><trkpt lat="39.4805878" lon="8.4976592"><ele>309.0</ele><time>2026-05-01T09:28:38.748Z</time></trkpt><trkpt lat="39.480437" lon="8.4976655"><ele>309.0</ele><time>2026-05-01T09:28:39.749Z</time></trkpt><trkpt lat="39.4802982" lon="8.4976576"><ele>306.25</ele><time>2026-05-01T09:28:40.748Z</time></trkpt><trkpt lat="39.480174" lon="8.4976237"><ele>303.5</ele><time>2026-05-01T09:28:41.748Z</time></trkpt><trkpt lat="39.4800655" lon="8.4975643"><ele>300.75</ele><time>2026-05-01T09:28:42.75Z</time></trkpt><trkpt lat="39.479978" lon="8.4974853"><ele>298.0</ele><time>2026-05-01T09:28:43.75Z</time></trkpt><trkpt lat="39.4799122" lon="8.4973821"><ele>298.0</ele><time>2026-05-01T09:28:44.749Z</time></trkpt><trkpt lat="39.4798665" lon="8.4972734"><ele>298.0</ele><time>2026-05-01T09:28:45.748Z</time></trkpt><trkpt lat="39.4798466" lon="8.4971556"><ele>298.0</ele><time>2026-05-01T09:28:46.748Z</time></trkpt><trkpt lat="39.479849" lon="8.4970313"><ele>298.0</ele><time>2026-05-01T09:28:47.749Z</time></trkpt><trkpt lat="39.4798699" lon="8.4969085"><ele>298.0</ele><time>2026-05-01T09:28:48.75Z</time></trkpt><trkpt lat="39.4799048" lon="8.4968041"><ele>298.16666666666663</ele><time>2026-05-01T09:28:49.749Z</time></trkpt><trkpt lat="39.479943" lon="8.4967059"><ele>298.3333333333333</ele><time>2026-05-01T09:28:50.749Z</time></trkpt><trkpt lat="39.4799789" lon="8.4966069"><ele>298.5</ele><time>2026-05-01T09:28:51.748Z</time></trkpt><trkpt lat="39.480009" lon="8.4965074"><ele>298.6666666666667</ele><time>2026-05-01T09:28:52.75Z</time></trkpt><trkpt lat="39.4800262" lon="8.4964089"><ele>298.83333333333337</ele><time>2026-05-01T09:28:53.748Z</time></trkpt><trkpt lat="39.4800291" lon="8.4963097"><ele>299.0</ele><time>2026-05-01T09:28:54.749Z</time></trkpt><trkpt lat="39.4800187" lon="8.4962129"><ele>301.5</ele><time>2026-05-01T09:28:55.749Z</time></trkpt><trkpt lat="39.479994" lon="8.496124"><ele>304.0</ele><time>2026-05-01T09:28:56.748Z</time></trkpt><trkpt lat="39.4799514" lon="8.4960421"><ele>306.5</ele><time>2026-05-01T09:28:57.75Z</time></trkpt><trkpt lat="39.479895" lon="8.4959708"><ele>309.0</ele><time>2026-05-01T09:28:58.748Z</time></trkpt><trkpt lat="39.4798282" lon="8.4959034"><ele>311.5</ele><time>2026-05-01T09:28:59.748Z</time></trkpt><trkpt lat="39.4797536" lon="8.4958576"><ele>314.0</ele><time>2026-05-01T09:29:00.748Z</time></trkpt><trkpt lat="39.479671" lon="8.4958422"><ele>312.5</ele><time>2026-05-01T09:29:01.749Z</time></trkpt><trkpt lat="39.4795782" lon="8.4958753"><ele>311.0</ele><time>2026-05-01T09:29:02.749Z</time></trkpt><trkpt lat="39.4794737" lon="8.4959509"><ele>309.5</ele><time>2026-05-01T09:29:03.749Z</time></trkpt><trkpt lat="39.4793434" lon="8.4960471"><ele>308.0</ele><time>2026-05-01T09:29:04.749Z</time></trkpt><trkpt lat="39.4791926" lon="8.4961438"><ele>301.6666666666667</ele><time>2026-05-01T09:29:05.749Z</time></trkpt><trkpt lat="39.4790448" lon="8.4962734"><ele>295.3333333333333</ele><time>2026-05-01T09:29:06.75Z</time></trkpt><trkpt lat="39.4788971" lon="8.4964292"><ele>289.0</ele><time>2026-05-01T09:29:07.75Z</time></trkpt><trkpt lat="39.4787446" lon="8.4965792"><ele>289.0</ele><time>2026-05-01T09:29:08.749Z</time></trkpt><trkpt lat="39.4785867" lon="8.4967246"><ele>289.0</ele><time>2026-05-01T09:29:09.749Z</time></trkpt><trkpt lat="39.4784358" lon="8.4968658"><ele>289.0</ele><time>2026-05-01T09:29:10.749Z</time></trkpt><trkpt lat="39.4782987" lon="8.4970046"><ele>282.66666666666663</ele><time>2026-05-01T09:29:11.75Z</time></trkpt><trkpt lat="39.4781671" lon="8.4971367"><ele>276.3333333333333</ele><time>2026-05-01T09:29:12.749Z</time></trkpt><trkpt lat="39.4780297" lon="8.4972403"><ele>270.0</ele><time>2026-05-01T09:29:13.749Z</time></trkpt><trkpt lat="39.4778956" lon="8.4973176"><ele>270.0</ele><time>2026-05-01T09:29:14.749Z</time></trkpt><trkpt lat="39.4777641" lon="8.4973751"><ele>270.0</ele><time>2026-05-01T09:29:15.75Z</time></trkpt><trkpt lat="39.4776273" lon="8.4973916"><ele>270.0</ele><time>2026-05-01T09:29:16.749Z</time></trkpt><trkpt lat="39.4774903" lon="8.4973712"><ele>270.0</ele><time>2026-05-01T09:29:17.75Z</time></trkpt><trkpt lat="39.4773716" lon="8.4973189"><ele>270.0</ele><time>2026-05-01T09:29:18.749Z</time></trkpt><trkpt lat="39.4772856" lon="8.4972383"><ele>270.0</ele><time>2026-05-01T09:29:19.75Z</time></trkpt><trkpt lat="39.4772256" lon="8.4971226"><ele>270.0</ele><time>2026-05-01T09:29:20.749Z</time></trkpt><trkpt lat="39.4772042" lon="8.4969792"><ele>270.0</ele><time>2026-05-01T09:29:21.749Z</time></trkpt><trkpt lat="39.4772193" lon="8.4968107"><ele>271.0</ele><time>2026-05-01T09:29:22.748Z</time></trkpt><trkpt lat="39.4772627" lon="8.4966487"><ele>272.0</ele><time>2026-05-01T09:29:23.749Z</time></trkpt><trkpt lat="39.4773099" lon="8.4965003"><ele>273.0</ele><time>2026-05-01T09:29:24.749Z</time></trkpt><trkpt lat="39.4773262" lon="8.4963558"><ele>274.0</ele><time>2026-05-01T09:29:25.749Z</time></trkpt><trkpt lat="39.4773036" lon="8.4962069"><ele>274.0</ele><time>2026-05-01T09:29:26.748Z</time></trkpt><trkpt lat="39.4772517" lon="8.4960784"><ele>274.0</ele><time>2026-05-01T09:29:27.749Z</time></trkpt><trkpt lat="39.4772201" lon="8.4959531"><ele>274.0</ele><time>2026-05-01T09:29:28.75Z</time></trkpt><trkpt lat="39.4772265" lon="8.4958216"><ele>274.0</ele><time>2026-05-01T09:29:29.749Z</time></trkpt><trkpt lat="39.4772757" lon="8.4957217"><ele>274.0</ele><time>2026-05-01T09:29:30.749Z</time></trkpt><trkpt lat="39.4773493" lon="8.495651"><ele>274.0</ele><time>2026-05-01T09:29:31.75Z</time></trkpt><trkpt lat="39.4774399" lon="8.4956007"><ele>274.0</ele><time>2026-05-01T09:29:32.749Z</time></trkpt><trkpt lat="39.4774899" lon="8.4955026"><ele>274.0</ele><time>2026-05-01T09:29:33.749Z</time></trkpt><trkpt lat="39.4775049" lon="8.4953943"><ele>274.0</ele><time>2026-05-01T09:29:34.748Z</time></trkpt><trkpt lat="39.4775097" lon="8.495292"><ele>274.0</ele><time>2026-05-01T09:29:35.749Z</time></trkpt><trkpt lat="39.4774963" lon="8.495185"><ele>274.0</ele><time>2026-05-01T09:29:36.75Z</time></trkpt><trkpt lat="39.4774545" lon="8.4950873"><ele>274.0</ele><time>2026-05-01T09:29:37.749Z</time></trkpt><trkpt lat="39.4773899" lon="8.4950188"><ele>274.0</ele><time>2026-05-01T09:29:38.749Z</time></trkpt><trkpt lat="39.4773188" lon="8.4949626"><ele>274.0</ele><time>2026-05-01T09:29:39.75Z</time></trkpt><trkpt lat="39.4772362" lon="8.4949104"><ele>274.0</ele><time>2026-05-01T09:29:40.749Z</time></trkpt><trkpt lat="39.4771588" lon="8.4948359"><ele>274.0</ele><time>2026-05-01T09:29:41.75Z</time></trkpt><trkpt lat="39.4770928" lon="8.4947379"><ele>268.59999999999997</ele><time>2026-05-01T09:29:42.75Z</time></trkpt><trkpt lat="39.4770465" lon="8.4946237"><ele>263.2</ele><time>2026-05-01T09:29:43.748Z</time></trkpt><trkpt lat="39.4770246" lon="8.4945013"><ele>257.79999999999995</ele><time>2026-05-01T09:29:44.749Z</time></trkpt><trkpt lat="39.4770252" lon="8.4943747"><ele>252.39999999999998</ele><time>2026-05-01T09:29:45.749Z</time></trkpt><trkpt lat="39.4770425" lon="8.4942514"><ele>247.0</ele><time>2026-05-01T09:29:46.748Z</time></trkpt><trkpt lat="39.4770658" lon="8.4941311"><ele>246.99999999999997</ele><time>2026-05-01T09:29:47.75Z</time></trkpt><trkpt lat="39.4770797" lon="8.4940097"><ele>247.0</ele><time>2026-05-01T09:29:48.749Z</time></trkpt><trkpt lat="39.4770854" lon="8.4938976"><ele>247.0</ele><time>2026-05-01T09:29:49.749Z</time></trkpt><trkpt lat="39.4770847" lon="8.4937983"><ele>247.0</ele><time>2026-05-01T09:29:50.749Z</time></trkpt><trkpt lat="39.4770687" lon="8.4937135"><ele>246.99999999999997</ele><time>2026-05-01T09:29:51.75Z</time></trkpt><trkpt lat="39.4770341" lon="8.4936424"><ele>247.0</ele><time>2026-05-01T09:29:52.749Z</time></trkpt><trkpt lat="39.4769738" lon="8.4935987"><ele>251.16666666666666</ele><time>2026-05-01T09:29:53.75Z</time></trkpt><trkpt lat="39.4769011" lon="8.4935857"><ele>255.33333333333331</ele><time>2026-05-01T09:29:54.75Z</time></trkpt><trkpt lat="39.4768239" lon="8.4935952"><ele>259.5</ele><time>2026-05-01T09:29:55.749Z</time></trkpt><trkpt lat="39.4767499" lon="8.4936269"><ele>263.6666666666667</ele><time>2026-05-01T09:29:56.748Z</time></trkpt><trkpt lat="39.4766721" lon="8.4936749"><ele>267.83333333333337</ele><time>2026-05-01T09:29:57.75Z</time></trkpt><trkpt lat="39.476588" lon="8.4937169"><ele>272.0</ele><time>2026-05-01T09:29:58.749Z</time></trkpt><trkpt lat="39.4764993" lon="8.493732"><ele>272.0</ele><time>2026-05-01T09:29:59.749Z</time></trkpt><trkpt lat="39.4764144" lon="8.4937261"><ele>272.0</ele><time>2026-05-01T09:30:00.749Z</time></trkpt><trkpt lat="39.4763356" lon="8.4936887"><ele>272.0</ele><time>2026-05-01T09:30:01.748Z</time></trkpt><trkpt lat="39.4762658" lon="8.4936292"><ele>272.0</ele><time>2026-05-01T09:30:02.749Z</time></trkpt><trkpt lat="39.4762015" lon="8.4935815"><ele>272.0</ele><time>2026-05-01T09:30:03.75Z</time></trkpt><trkpt lat="39.4761205" lon="8.4935632"><ele>272.0</ele><time>2026-05-01T09:30:04.749Z</time></trkpt><trkpt lat="39.4760423" lon="8.4935811"><ele>271.6</ele><time>2026-05-01T09:30:05.75Z</time></trkpt><trkpt lat="39.4759693" lon="8.4936411"><ele>271.2</ele><time>2026-05-01T09:30:06.749Z</time></trkpt><trkpt lat="39.4759061" lon="8.4937165"><ele>270.8</ele><time>2026-05-01T09:30:07.749Z</time></trkpt><trkpt lat="39.4758533" lon="8.4938066"><ele>270.4</ele><time>2026-05-01T09:30:08.749Z</time></trkpt><trkpt lat="39.4758071" lon="8.493917"><ele>270.0</ele><time>2026-05-01T09:30:09.749Z</time></trkpt><trkpt lat="39.4757599" lon="8.4940271"><ele>266.0</ele><time>2026-05-01T09:30:10.748Z</time></trkpt><trkpt lat="39.4757122" lon="8.4941282"><ele>262.0</ele><time>2026-05-01T09:30:11.75Z</time></trkpt><trkpt lat="39.4756565" lon="8.4942202"><ele>258.0</ele><time>2026-05-01T09:30:12.749Z</time></trkpt><trkpt lat="39.4755954" lon="8.4942928"><ele>254.0</ele><time>2026-05-01T09:30:13.749Z</time></trkpt><trkpt lat="39.4755319" lon="8.494345"><ele>250.0</ele><time>2026-05-01T09:30:14.749Z</time></trkpt><trkpt lat="39.4754613" lon="8.494372"><ele>246.0</ele><time>2026-05-01T09:30:15.75Z</time></trkpt><trkpt lat="39.4753867" lon="8.4943802"><ele>246.0</ele><time>2026-05-01T09:30:16.75Z</time></trkpt><trkpt lat="39.4752911" lon="8.494374"><ele>246.0</ele><time>2026-05-01T09:30:17.749Z</time></trkpt><trkpt lat="39.4751661" lon="8.4943439"><ele>246.0</ele><time>2026-05-01T09:30:18.749Z</time></trkpt><trkpt lat="39.4750062" lon="8.4942912"><ele>246.0</ele><time>2026-05-01T09:30:19.749Z</time></trkpt><trkpt lat="39.4748331" lon="8.4942294"><ele>246.0</ele><time>2026-05-01T09:30:20.75Z</time></trkpt><trkpt lat="39.4746583" lon="8.4941639"><ele>246.0</ele><time>2026-05-01T09:30:21.749Z</time></trkpt><trkpt lat="39.4744953" lon="8.4941034"><ele>246.0</ele><time>2026-05-01T09:30:22.749Z</time></trkpt><trkpt lat="39.4743438" lon="8.494032"><ele>249.66666666666669</ele><time>2026-05-01T09:30:23.749Z</time></trkpt><trkpt lat="39.4742031" lon="8.4939387"><ele>253.33333333333334</ele><time>2026-05-01T09:30:24.749Z</time></trkpt><trkpt lat="39.4740697" lon="8.4938321"><ele>257.0</ele><time>2026-05-01T09:30:25.749Z</time></trkpt><trkpt lat="39.4739343" lon="8.493755"><ele>257.0</ele><time>2026-05-01T09:30:26.748Z</time></trkpt><trkpt lat="39.4737843" lon="8.493725"><ele>257.0</ele><time>2026-05-01T09:30:27.749Z</time></trkpt><trkpt lat="39.4736415" lon="8.4936977"><ele>257.0</ele><time>2026-05-01T09:30:28.749Z</time></trkpt><trkpt lat="39.473505" lon="8.4936408"><ele>257.0</ele><time>2026-05-01T09:30:29.748Z</time></trkpt><trkpt lat="39.4733872" lon="8.4935424"><ele>249.25</ele><time>2026-05-01T09:30:30.749Z</time></trkpt><trkpt lat="39.4733031" lon="8.493433"><ele>241.5</ele><time>2026-05-01T09:30:31.75Z</time></trkpt><trkpt lat="39.4732589" lon="8.4932853"><ele>233.75</ele><time>2026-05-01T09:30:32.75Z</time></trkpt><trkpt lat="39.4732532" lon="8.493113"><ele>226.0</ele><time>2026-05-01T09:30:33.749Z</time></trkpt><trkpt lat="39.4732738" lon="8.4929433"><ele>229.5</ele><time>2026-05-01T09:30:34.75Z</time></trkpt><trkpt lat="39.473259" lon="8.4927838"><ele>233.0</ele><time>2026-05-01T09:30:35.75Z</time></trkpt><trkpt lat="39.4731979" lon="8.4926302"><ele>236.5</ele><time>2026-05-01T09:30:36.748Z</time></trkpt><trkpt lat="39.4730994" lon="8.4925085"><ele>240.0</ele><time>2026-05-01T09:30:37.748Z</time></trkpt><trkpt lat="39.472993" lon="8.492407"><ele>231.66666666666669</ele><time>2026-05-01T09:30:38.748Z</time></trkpt><trkpt lat="39.4729117" lon="8.4922529"><ele>223.33333333333334</ele><time>2026-05-01T09:30:39.749Z</time></trkpt><trkpt lat="39.4728381" lon="8.4920907"><ele>215.0</ele><time>2026-05-01T09:30:40.749Z</time></trkpt><trkpt lat="39.4728292" lon="8.4918656"><ele>215.0</ele><time>2026-05-01T09:30:41.749Z</time></trkpt><trkpt lat="39.4728314" lon="8.4916813"><ele>215.0</ele><time>2026-05-01T09:30:42.749Z</time></trkpt><trkpt lat="39.4728346" lon="8.4915217"><ele>215.0</ele><time>2026-05-01T09:30:43.749Z</time></trkpt><trkpt lat="39.472811" lon="8.4913741"><ele>215.0</ele><time>2026-05-01T09:30:44.749Z</time></trkpt><trkpt lat="39.4727449" lon="8.4912653"><ele>219.75</ele><time>2026-05-01T09:30:45.749Z</time></trkpt><trkpt lat="39.4726385" lon="8.4911945"><ele>224.5</ele><time>2026-05-01T09:30:46.749Z</time></trkpt><trkpt lat="39.4724926" lon="8.4911584"><ele>229.25</ele><time>2026-05-01T09:30:47.748Z</time></trkpt><trkpt lat="39.4723292" lon="8.4911369"><ele>234.0</ele><time>2026-05-01T09:30:48.749Z</time></trkpt><trkpt lat="39.4721667" lon="8.4911109"><ele>231.0</ele><time>2026-05-01T09:30:49.749Z</time></trkpt><trkpt lat="39.4719978" lon="8.4910824"><ele>228.0</ele><time>2026-05-01T09:30:50.749Z</time></trkpt><trkpt lat="39.4718334" lon="8.4910516"><ele>225.0</ele><time>2026-05-01T09:30:51.749Z</time></trkpt><trkpt lat="39.4716715" lon="8.4910269"><ele>225.0</ele><time>2026-05-01T09:30:52.748Z</time></trkpt><trkpt lat="39.4715152" lon="8.4910154"><ele>225.0</ele><time>2026-05-01T09:30:53.749Z</time></trkpt><trkpt lat="39.4713591" lon="8.4910137"><ele>225.0</ele><time>2026-05-01T09:30:54.748Z</time></trkpt><trkpt lat="39.471205" lon="8.4910334"><ele>224.33333333333331</ele><time>2026-05-01T09:30:55.748Z</time></trkpt><trkpt lat="39.4710551" lon="8.4910665"><ele>223.66666666666666</ele><time>2026-05-01T09:30:56.748Z</time></trkpt><trkpt lat="39.4709052" lon="8.4910857"><ele>223.0</ele><time>2026-05-01T09:30:57.749Z</time></trkpt><trkpt lat="39.4707528" lon="8.4910649"><ele>223.0</ele><time>2026-05-01T09:30:58.749Z</time></trkpt><trkpt lat="39.4705987" lon="8.4910209"><ele>223.0</ele><time>2026-05-01T09:30:59.748Z</time></trkpt><trkpt lat="39.4704493" lon="8.4909616"><ele>223.0</ele><time>2026-05-01T09:31:00.748Z</time></trkpt><trkpt lat="39.4703075" lon="8.4908981"><ele>217.33333333333331</ele><time>2026-05-01T09:31:01.749Z</time></trkpt><trkpt lat="39.4701784" lon="8.4908032"><ele>211.66666666666669</ele><time>2026-05-01T09:31:02.749Z</time></trkpt><trkpt lat="39.4700649" lon="8.4906668"><ele>206.0</ele><time>2026-05-01T09:31:03.749Z</time></trkpt><trkpt lat="39.4699736" lon="8.490494"><ele>213.0</ele><time>2026-05-01T09:31:04.748Z</time></trkpt><trkpt lat="39.4698843" lon="8.4903173"><ele>220.0</ele><time>2026-05-01T09:31:05.749Z</time></trkpt><trkpt lat="39.4697678" lon="8.490158"><ele>227.0</ele><time>2026-05-01T09:31:06.748Z</time></trkpt><trkpt lat="39.4696284" lon="8.4900223"><ele>215.0</ele><time>2026-05-01T09:31:07.749Z</time></trkpt><trkpt lat="39.4694742" lon="8.4899027"><ele>203.0</ele><time>2026-05-01T09:31:08.749Z</time></trkpt><trkpt lat="39.4693157" lon="8.4897884"><ele>191.0</ele><time>2026-05-01T09:31:09.749Z</time></trkpt><trkpt lat="39.4691568" lon="8.4896727"><ele>190.0</ele><time>2026-05-01T09:31:10.748Z</time></trkpt><trkpt lat="39.4690057" lon="8.4895665"><ele>189.0</ele><time>2026-05-01T09:31:11.748Z</time></trkpt><trkpt lat="39.4688634" lon="8.4894693"><ele>188.0</ele><time>2026-05-01T09:31:12.748Z</time></trkpt><trkpt lat="39.468731" lon="8.4893739"><ele>188.0</ele><time>2026-05-01T09:31:13.749Z</time></trkpt><trkpt lat="39.4686233" lon="8.4892685"><ele>188.0</ele><time>2026-05-01T09:31:14.748Z</time></trkpt><trkpt lat="39.4685473" lon="8.489134"><ele>188.0</ele><time>2026-05-01T09:31:15.749Z</time></trkpt><trkpt lat="39.468509" lon="8.4889683"><ele>188.0</ele><time>2026-05-01T09:31:16.748Z</time></trkpt><trkpt lat="39.4685151" lon="8.4887745"><ele>188.5</ele><time>2026-05-01T09:31:17.748Z</time></trkpt><trkpt lat="39.4685504" lon="8.4885897"><ele>189.0</ele><time>2026-05-01T09:31:18.749Z</time></trkpt><trkpt lat="39.468581" lon="8.4884228"><ele>189.5</ele><time>2026-05-01T09:31:19.749Z</time></trkpt><trkpt lat="39.4685949" lon="8.4882645"><ele>190.0</ele><time>2026-05-01T09:31:20.748Z</time></trkpt><trkpt lat="39.4685765" lon="8.4881212"><ele>190.0</ele><time>2026-05-01T09:31:21.748Z</time></trkpt><trkpt lat="39.4685145" lon="8.4880025"><ele>190.0</ele><time>2026-05-01T09:31:22.748Z</time></trkpt><trkpt lat="39.4684196" lon="8.487924"><ele>190.0</ele><time>2026-05-01T09:31:23.749Z</time></trkpt><trkpt lat="39.4683005" lon="8.4878911"><ele>190.0</ele><time>2026-05-01T09:31:24.75Z</time></trkpt><trkpt lat="39.4681673" lon="8.487908"><ele>190.0</ele><time>2026-05-01T09:31:25.75Z</time></trkpt><trkpt lat="39.4680172" lon="8.4879537"><ele>190.0</ele><time>2026-05-01T09:31:26.749Z</time></trkpt><trkpt lat="39.4678654" lon="8.4879959"><ele>190.0</ele><time>2026-05-01T09:31:27.749Z</time></trkpt><trkpt lat="39.4677151" lon="8.4880325"><ele>186.5</ele><time>2026-05-01T09:31:28.748Z</time></trkpt><trkpt lat="39.4675784" lon="8.4880757"><ele>183.0</ele><time>2026-05-01T09:31:29.749Z</time></trkpt><trkpt lat="39.4674576" lon="8.4881407"><ele>179.5</ele><time>2026-05-01T09:31:30.749Z</time></trkpt><trkpt lat="39.4673546" lon="8.488222"><ele>176.0</ele><time>2026-05-01T09:31:31.749Z</time></trkpt><trkpt lat="39.4672459" lon="8.4882776"><ele>176.0</ele><time>2026-05-01T09:31:32.748Z</time></trkpt><trkpt lat="39.4671279" lon="8.4882926"><ele>176.0</ele><time>2026-05-01T09:31:33.749Z</time></trkpt><trkpt lat="39.4670047" lon="8.4882577"><ele>176.0</ele><time>2026-05-01T09:31:34.75Z</time></trkpt><trkpt lat="39.4668881" lon="8.4881791"><ele>176.0</ele><time>2026-05-01T09:31:35.749Z</time></trkpt><trkpt lat="39.4668041" lon="8.4880937"><ele>174.20000000000002</ele><time>2026-05-01T09:31:36.749Z</time></trkpt><trkpt lat="39.4667544" lon="8.4879863"><ele>172.4</ele><time>2026-05-01T09:31:37.749Z</time></trkpt><trkpt lat="39.4667446" lon="8.4878647"><ele>170.6</ele><time>2026-05-01T09:31:38.748Z</time></trkpt><trkpt lat="39.4667758" lon="8.4877396"><ele>168.8</ele><time>2026-05-01T09:31:39.749Z</time></trkpt><trkpt lat="39.4668193" lon="8.4876184"><ele>167.0</ele><time>2026-05-01T09:31:40.748Z</time></trkpt><trkpt lat="39.4668258" lon="8.4874714"><ele>167.0</ele><time>2026-05-01T09:31:41.749Z</time></trkpt><trkpt lat="39.466791" lon="8.4873233"><ele>167.0</ele><time>2026-05-01T09:31:42.749Z</time></trkpt><trkpt lat="39.4667332" lon="8.4872004"><ele>167.0</ele><time>2026-05-01T09:31:43.748Z</time></trkpt><trkpt lat="39.4667007" lon="8.487067"><ele>167.0</ele><time>2026-05-01T09:31:44.748Z</time></trkpt><trkpt lat="39.466709" lon="8.4869225"><ele>166.25</ele><time>2026-05-01T09:31:45.749Z</time></trkpt><trkpt lat="39.4667543" lon="8.4867786"><ele>165.5</ele><time>2026-05-01T09:31:46.749Z</time></trkpt><trkpt lat="39.4668086" lon="8.4866411"><ele>164.75</ele><time>2026-05-01T09:31:47.749Z</time></trkpt><trkpt lat="39.4668284" lon="8.4864945"><ele>164.0</ele><time>2026-05-01T09:31:48.749Z</time></trkpt><trkpt lat="39.4668066" lon="8.4863587"><ele>165.39999999999998</ele><time>2026-05-01T09:31:49.749Z</time></trkpt><trkpt lat="39.4667441" lon="8.4862548"><ele>166.8</ele><time>2026-05-01T09:31:50.749Z</time></trkpt><trkpt lat="39.4666498" lon="8.4861984"><ele>168.2</ele><time>2026-05-01T09:31:51.748Z</time></trkpt><trkpt lat="39.4665481" lon="8.4861814"><ele>169.60000000000002</ele><time>2026-05-01T09:31:52.748Z</time></trkpt><trkpt lat="39.4664613" lon="8.486131"><ele>171.0</ele><time>2026-05-01T09:31:53.749Z</time></trkpt><trkpt lat="39.4663976" lon="8.4860327"><ele>171.0</ele><time>2026-05-01T09:31:54.749Z</time></trkpt><trkpt lat="39.4663673" lon="8.4858986"><ele>171.0</ele><time>2026-05-01T09:31:55.749Z</time></trkpt><trkpt lat="39.4663624" lon="8.485745"><ele>171.0</ele><time>2026-05-01T09:31:56.749Z</time></trkpt><trkpt lat="39.4663173" lon="8.4856058"><ele>171.0</ele><time>2026-05-01T09:31:57.749Z</time></trkpt><trkpt lat="39.4662362" lon="8.4854991"><ele>166.75</ele><time>2026-05-01T09:31:58.748Z</time></trkpt><trkpt lat="39.4661444" lon="8.4854091"><ele>162.5</ele><time>2026-05-01T09:31:59.748Z</time></trkpt><trkpt lat="39.4660641" lon="8.4852669"><ele>158.25</ele><time>2026-05-01T09:32:00.748Z</time></trkpt><trkpt lat="39.4660016" lon="8.4851034"><ele>154.0</ele><time>2026-05-01T09:32:01.748Z</time></trkpt><trkpt lat="39.4659401" lon="8.4849443"><ele>154.0</ele><time>2026-05-01T09:32:02.748Z</time></trkpt><trkpt lat="39.465869" lon="8.4847958"><ele>154.0</ele><time>2026-05-01T09:32:03.748Z</time></trkpt><trkpt lat="39.4657743" lon="8.4846707"><ele>154.0</ele><time>2026-05-01T09:32:04.747Z</time></trkpt><trkpt lat="39.465661" lon="8.4845768"><ele>154.0</ele><time>2026-05-01T09:32:05.747Z</time></trkpt><trkpt lat="39.4655386" lon="8.4845011"><ele>151.75</ele><time>2026-05-01T09:32:06.748Z</time></trkpt><trkpt lat="39.4654229" lon="8.4844247"><ele>149.5</ele><time>2026-05-01T09:32:07.748Z</time></trkpt><trkpt lat="39.4653085" lon="8.4843598"><ele>147.25</ele><time>2026-05-01T09:32:08.748Z</time></trkpt><trkpt lat="39.4651959" lon="8.4842935"><ele>145.0</ele><time>2026-05-01T09:32:09.748Z</time></trkpt><trkpt lat="39.4650856" lon="8.4842305"><ele>145.0</ele><time>2026-05-01T09:32:10.748Z</time></trkpt><trkpt lat="39.464984" lon="8.4841516"><ele>145.0</ele><time>2026-05-01T09:32:11.749Z</time></trkpt><trkpt lat="39.4649165" lon="8.4840425"><ele>145.0</ele><time>2026-05-01T09:32:12.748Z</time></trkpt><trkpt lat="39.4648872" lon="8.4839014"><ele>145.0</ele><time>2026-05-01T09:32:13.747Z</time></trkpt><trkpt lat="39.4649054" lon="8.4837535"><ele>143.25</ele><time>2026-05-01T09:32:14.748Z</time></trkpt><trkpt lat="39.4649636" lon="8.4836043"><ele>141.5</ele><time>2026-05-01T09:32:15.748Z</time></trkpt><trkpt lat="39.4650445" lon="8.4834762"><ele>139.75</ele><time>2026-05-01T09:32:16.749Z</time></trkpt><trkpt lat="39.4651414" lon="8.4833795"><ele>138.0</ele><time>2026-05-01T09:32:17.748Z</time></trkpt><trkpt lat="39.4652393" lon="8.4832975"><ele>138.0</ele><time>2026-05-01T09:32:18.748Z</time></trkpt><trkpt lat="39.4653157" lon="8.4831968"><ele>138.0</ele><time>2026-05-01T09:32:19.748Z</time></trkpt><trkpt lat="39.4653434" lon="8.4830637"><ele>138.0</ele><time>2026-05-01T09:32:20.748Z</time></trkpt><trkpt lat="39.4653329" lon="8.4829272"><ele>138.0</ele><time>2026-05-01T09:32:21.748Z</time></trkpt><trkpt lat="39.465287" lon="8.4828027"><ele>138.0</ele><time>2026-05-01T09:32:22.749Z</time></trkpt><trkpt lat="39.4652376" lon="8.4826757"><ele>134.5</ele><time>2026-05-01T09:32:23.749Z</time></trkpt><trkpt lat="39.4652342" lon="8.4825296"><ele>131.0</ele><time>2026-05-01T09:32:24.748Z</time></trkpt><trkpt lat="39.4652497" lon="8.4823658"><ele>127.5</ele><time>2026-05-01T09:32:25.748Z</time></trkpt><trkpt lat="39.4653499" lon="8.4822557"><ele>124.0</ele><time>2026-05-01T09:32:26.748Z</time></trkpt><trkpt lat="39.46545" lon="8.4821556"><ele>128.0</ele><time>2026-05-01T09:32:27.748Z</time></trkpt><trkpt lat="39.4655558" lon="8.4820855"><ele>132.0</ele><time>2026-05-01T09:32:28.747Z</time></trkpt><trkpt lat="39.4656471" lon="8.4820066"><ele>136.0</ele><time>2026-05-01T09:32:29.748Z</time></trkpt><trkpt lat="39.4657251" lon="8.4819181"><ele>140.0</ele><time>2026-05-01T09:32:30.748Z</time></trkpt><trkpt lat="39.4657796" lon="8.481816"><ele>144.0</ele><time>2026-05-01T09:32:31.747Z</time></trkpt><trkpt lat="39.4657916" lon="8.4817006"><ele>144.0</ele><time>2026-05-01T09:32:32.748Z</time></trkpt><trkpt lat="39.4657558" lon="8.4815849"><ele>144.0</ele><time>2026-05-01T09:32:33.748Z</time></trkpt><trkpt lat="39.4656727" lon="8.4814994"><ele>144.0</ele><time>2026-05-01T09:32:34.748Z</time></trkpt><trkpt lat="39.4655628" lon="8.4814475"><ele>144.0</ele><time>2026-05-01T09:32:35.748Z</time></trkpt><trkpt lat="39.4654336" lon="8.4814141"><ele>138.5</ele><time>2026-05-01T09:32:36.747Z</time></trkpt><trkpt lat="39.465294" lon="8.4814023"><ele>133.0</ele><time>2026-05-01T09:32:37.749Z</time></trkpt><trkpt lat="39.4651546" lon="8.4814167"><ele>127.5</ele><time>2026-05-01T09:32:38.747Z</time></trkpt><trkpt lat="39.4650142" lon="8.481442"><ele>122.0</ele><time>2026-05-01T09:32:39.749Z</time></trkpt><trkpt lat="39.4648776" lon="8.4814716"><ele>122.0</ele><time>2026-05-01T09:32:40.749Z</time></trkpt><trkpt lat="39.4647523" lon="8.4815027"><ele>122.0</ele><time>2026-05-01T09:32:41.747Z</time></trkpt><trkpt lat="39.4646361" lon="8.481515"><ele>122.0</ele><time>2026-05-01T09:32:42.748Z</time></trkpt><trkpt lat="39.4645313" lon="8.481488"><ele>122.0</ele><time>2026-05-01T09:32:43.747Z</time></trkpt><trkpt lat="39.4644468" lon="8.481412"><ele>119.6</ele><time>2026-05-01T09:32:44.748Z</time></trkpt><trkpt lat="39.4643963" lon="8.4813014"><ele>117.19999999999999</ele><time>2026-05-01T09:32:45.748Z</time></trkpt><trkpt lat="39.4643912" lon="8.4811711"><ele>114.8</ele><time>2026-05-01T09:32:46.748Z</time></trkpt><trkpt lat="39.4644183" lon="8.4810347"><ele>112.4</ele><time>2026-05-01T09:32:47.748Z</time></trkpt><trkpt lat="39.4644382" lon="8.4809056"><ele>110.0</ele><time>2026-05-01T09:32:48.748Z</time></trkpt><trkpt lat="39.4644184" lon="8.4807802"><ele>110.0</ele><time>2026-05-01T09:32:49.748Z</time></trkpt><trkpt lat="39.4643602" lon="8.4806755"><ele>110.0</ele><time>2026-05-01T09:32:50.748Z</time></trkpt><trkpt lat="39.4642562" lon="8.4806296"><ele>110.0</ele><time>2026-05-01T09:32:51.748Z</time></trkpt><trkpt lat="39.4641344" lon="8.4806173"><ele>110.0</ele><time>2026-05-01T09:32:52.748Z</time></trkpt><trkpt lat="39.4640061" lon="8.4806208"><ele>110.0</ele><time>2026-05-01T09:32:53.747Z</time></trkpt><trkpt lat="39.4638758" lon="8.4806229"><ele>110.0</ele><time>2026-05-01T09:32:54.749Z</time></trkpt><trkpt lat="39.4637441" lon="8.4806241"><ele>110.0</ele><time>2026-05-01T09:32:55.748Z</time></trkpt><trkpt lat="39.4636213" lon="8.4806134"><ele>110.0</ele><time>2026-05-01T09:32:56.748Z</time></trkpt><trkpt lat="39.4635121" lon="8.4805821"><ele>109.75</ele><time>2026-05-01T09:32:57.747Z</time></trkpt><trkpt lat="39.4634166" lon="8.4804986"><ele>109.5</ele><time>2026-05-01T09:32:58.748Z</time></trkpt><trkpt lat="39.4633349" lon="8.4803692"><ele>109.25</ele><time>2026-05-01T09:32:59.748Z</time></trkpt><trkpt lat="39.4632615" lon="8.4802164"><ele>109.0</ele><time>2026-05-01T09:33:00.748Z</time></trkpt><trkpt lat="39.4631873" lon="8.480057"><ele>109.0</ele><time>2026-05-01T09:33:01.748Z</time></trkpt><trkpt lat="39.4631111" lon="8.4799012"><ele>109.0</ele><time>2026-05-01T09:33:02.749Z</time></trkpt><trkpt lat="39.4630309" lon="8.4797451"><ele>109.0</ele><time>2026-05-01T09:33:03.749Z</time></trkpt><trkpt lat="39.4629505" lon="8.4795913"><ele>109.0</ele><time>2026-05-01T09:33:04.749Z</time></trkpt><trkpt lat="39.4628764" lon="8.4794438"><ele>104.0</ele><time>2026-05-01T09:33:05.748Z</time></trkpt><trkpt lat="39.4628047" lon="8.4793084"><ele>99.0</ele><time>2026-05-01T09:33:06.748Z</time></trkpt><trkpt lat="39.4627401" lon="8.4791848"><ele>94.0</ele><time>2026-05-01T09:33:07.747Z</time></trkpt><trkpt lat="39.4627016" lon="8.4790576"><ele>89.0</ele><time>2026-05-01T09:33:08.747Z</time></trkpt><trkpt lat="39.4627002" lon="8.4789213"><ele>89.0</ele><time>2026-05-01T09:33:09.747Z</time></trkpt><trkpt lat="39.4627467" lon="8.4787776"><ele>89.0</ele><time>2026-05-01T09:33:10.747Z</time></trkpt><trkpt lat="39.4628324" lon="8.4786408"><ele>89.0</ele><time>2026-05-01T09:33:11.748Z</time></trkpt><trkpt lat="39.4629333" lon="8.4785126"><ele>89.0</ele><time>2026-05-01T09:33:12.747Z</time></trkpt><trkpt lat="39.4630331" lon="8.4783798"><ele>91.75</ele><time>2026-05-01T09:33:13.749Z</time></trkpt><trkpt lat="39.4631276" lon="8.478242"><ele>94.5</ele><time>2026-05-01T09:33:14.748Z</time></trkpt><trkpt lat="39.4632199" lon="8.4781044"><ele>97.25</ele><time>2026-05-01T09:33:15.748Z</time></trkpt><trkpt lat="39.4633071" lon="8.4779743"><ele>100.0</ele><time>2026-05-01T09:33:16.748Z</time></trkpt><trkpt lat="39.4633838" lon="8.4778659"><ele>100.0</ele><time>2026-05-01T09:33:17.748Z</time></trkpt><trkpt lat="39.4634464" lon="8.4777589"><ele>100.0</ele><time>2026-05-01T09:33:18.749Z</time></trkpt><trkpt lat="39.4634726" lon="8.4776354"><ele>100.0</ele><time>2026-05-01T09:33:19.748Z</time></trkpt><trkpt lat="39.4634584" lon="8.4775123"><ele>100.0</ele><time>2026-05-01T09:33:20.749Z</time></trkpt><trkpt lat="39.4634013" lon="8.4774334"><ele>100.0</ele><time>2026-05-01T09:33:21.748Z</time></trkpt><trkpt lat="39.4633202" lon="8.4774055"><ele>100.0</ele><time>2026-05-01T09:33:22.747Z</time></trkpt><trkpt lat="39.4632301" lon="8.4774415"><ele>100.0</ele><time>2026-05-01T09:33:23.748Z</time></trkpt><trkpt lat="39.4631421" lon="8.4775256"><ele>100.0</ele><time>2026-05-01T09:33:24.747Z</time></trkpt><trkpt lat="39.4630437" lon="8.4776225"><ele>100.0</ele><time>2026-05-01T09:33:25.748Z</time></trkpt><trkpt lat="39.4629363" lon="8.4777235"><ele>100.0</ele><time>2026-05-01T09:33:26.747Z</time></trkpt><trkpt lat="39.4628225" lon="8.4778157"><ele>100.0</ele><time>2026-05-01T09:33:27.747Z</time></trkpt><trkpt lat="39.4627007" lon="8.4778965"><ele>100.0</ele><time>2026-05-01T09:33:28.747Z</time></trkpt><trkpt lat="39.4625679" lon="8.4779528"><ele>100.0</ele><time>2026-05-01T09:33:29.748Z</time></trkpt><trkpt lat="39.4624332" lon="8.4779922"><ele>96.75</ele><time>2026-05-01T09:33:30.747Z</time></trkpt><trkpt lat="39.462298" lon="8.478024"><ele>93.5</ele><time>2026-05-01T09:33:31.748Z</time></trkpt><trkpt lat="39.4621676" lon="8.4780826"><ele>90.25</ele><time>2026-05-01T09:33:32.747Z</time></trkpt><trkpt lat="39.4620358" lon="8.4781869"><ele>87.0</ele><time>2026-05-01T09:33:33.749Z</time></trkpt><trkpt lat="39.4619196" lon="8.4783245"><ele>87.0</ele><time>2026-05-01T09:33:34.748Z</time></trkpt><trkpt lat="39.4618242" lon="8.478488"><ele>87.0</ele><time>2026-05-01T09:33:35.748Z</time></trkpt><trkpt lat="39.4617315" lon="8.4786643"><ele>87.0</ele><time>2026-05-01T09:33:36.748Z</time></trkpt><trkpt lat="39.461641" lon="8.4788401"><ele>82.33333333333333</ele><time>2026-05-01T09:33:37.749Z</time></trkpt><trkpt lat="39.4615485" lon="8.4790173"><ele>77.66666666666666</ele><time>2026-05-01T09:33:38.749Z</time></trkpt><trkpt lat="39.4614525" lon="8.4791843"><ele>73.0</ele><time>2026-05-01T09:33:39.747Z</time></trkpt><trkpt lat="39.4613518" lon="8.4793282"><ele>73.75</ele><time>2026-05-01T09:33:40.747Z</time></trkpt><trkpt lat="39.4612613" lon="8.479452"><ele>74.5</ele><time>2026-05-01T09:33:41.748Z</time></trkpt><trkpt lat="39.4611793" lon="8.4795688"><ele>75.25</ele><time>2026-05-01T09:33:42.748Z</time></trkpt><trkpt lat="39.4610831" lon="8.4796502"><ele>76.0</ele><time>2026-05-01T09:33:43.747Z</time></trkpt><trkpt lat="39.4609699" lon="8.4796984"><ele>76.0</ele><time>2026-05-01T09:33:44.748Z</time></trkpt><trkpt lat="39.4608537" lon="8.4796884"><ele>76.0</ele><time>2026-05-01T09:33:45.747Z</time></trkpt><trkpt lat="39.4607317" lon="8.4796227"><ele>76.0</ele><time>2026-05-01T09:33:46.747Z</time></trkpt><trkpt lat="39.4606124" lon="8.4795282"><ele>76.0</ele><time>2026-05-01T09:33:47.748Z</time></trkpt><trkpt lat="39.4604897" lon="8.4794327"><ele>72.5</ele><time>2026-05-01T09:33:48.747Z</time></trkpt><trkpt lat="39.4603638" lon="8.4793344"><ele>69.0</ele><time>2026-05-01T09:33:49.748Z</time></trkpt><trkpt lat="39.4602376" lon="8.4792288"><ele>65.5</ele><time>2026-05-01T09:33:50.747Z</time></trkpt><trkpt lat="39.4601205" lon="8.4791112"><ele>62.0</ele><time>2026-05-01T09:33:51.748Z</time></trkpt><trkpt lat="39.4600345" lon="8.4789791"><ele>62.0</ele><time>2026-05-01T09:33:52.748Z</time></trkpt><trkpt lat="39.4599555" lon="8.4788551"><ele>62.0</ele><time>2026-05-01T09:33:53.748Z</time></trkpt><trkpt lat="39.459845" lon="8.4787797"><ele>62.0</ele><time>2026-05-01T09:33:54.749Z</time></trkpt><trkpt lat="39.4597072" lon="8.4787522"><ele>62.0</ele><time>2026-05-01T09:33:55.748Z</time></trkpt><trkpt lat="39.4595604" lon="8.4787616"><ele>63.333333333333336</ele><time>2026-05-01T09:33:56.748Z</time></trkpt><trkpt lat="39.4594065" lon="8.4787647"><ele>64.66666666666667</ele><time>2026-05-01T09:33:57.748Z</time></trkpt><trkpt lat="39.4592486" lon="8.4787561"><ele>66.0</ele><time>2026-05-01T09:33:58.749Z</time></trkpt><trkpt lat="39.4590902" lon="8.4787399"><ele>66.0</ele><time>2026-05-01T09:33:59.748Z</time></trkpt><trkpt lat="39.4589313" lon="8.4787141"><ele>66.0</ele><time>2026-05-01T09:34:00.748Z</time></trkpt><trkpt lat="39.4587699" lon="8.4786791"><ele>66.0</ele><time>2026-05-01T09:34:01.748Z</time></trkpt><trkpt lat="39.4586112" lon="8.4786433"><ele>63.0</ele><time>2026-05-01T09:34:02.748Z</time></trkpt><trkpt lat="39.4584523" lon="8.478603"><ele>60.0</ele><time>2026-05-01T09:34:03.747Z</time></trkpt><trkpt lat="39.4582943" lon="8.4785521"><ele>57.0</ele><time>2026-05-01T09:34:04.747Z</time></trkpt><trkpt lat="39.4581386" lon="8.4784989"><ele>57.0</ele><time>2026-05-01T09:34:05.747Z</time></trkpt><trkpt lat="39.4579833" lon="8.4784454"><ele>57.0</ele><time>2026-05-01T09:34:06.747Z</time></trkpt><trkpt lat="39.4578307" lon="8.4783942"><ele>57.0</ele><time>2026-05-01T09:34:07.747Z</time></trkpt><trkpt lat="39.4576793" lon="8.4783472"><ele>54.33333333333333</ele><time>2026-05-01T09:34:08.749Z</time></trkpt><trkpt lat="39.4575283" lon="8.4783101"><ele>51.666666666666664</ele><time>2026-05-01T09:34:09.748Z</time></trkpt><trkpt lat="39.4573763" lon="8.4783075"><ele>49.0</ele><time>2026-05-01T09:34:10.748Z</time></trkpt><trkpt lat="39.4572273" lon="8.4783347"><ele>48.0</ele><time>2026-05-01T09:34:11.749Z</time></trkpt><trkpt lat="39.4570822" lon="8.4783828"><ele>47.0</ele><time>2026-05-01T09:34:12.747Z</time></trkpt><trkpt lat="39.4569394" lon="8.4784395"><ele>46.0</ele><time>2026-05-01T09:34:13.748Z</time></trkpt><trkpt lat="39.4567911" lon="8.4784789"><ele>46.0</ele><time>2026-05-01T09:34:14.748Z</time></trkpt><trkpt lat="39.456641" lon="8.4785029"><ele>46.0</ele><time>2026-05-01T09:34:15.748Z</time></trkpt><trkpt lat="39.4564846" lon="8.4785086"><ele>46.0</ele><time>2026-05-01T09:34:16.748Z</time></trkpt><trkpt lat="39.4563245" lon="8.4785009"><ele>44.66666666666667</ele><time>2026-05-01T09:34:17.748Z</time></trkpt><trkpt lat="39.4561577" lon="8.4784853"><ele>43.333333333333336</ele><time>2026-05-01T09:34:18.747Z</time></trkpt><trkpt lat="39.4559902" lon="8.4784682"><ele>42.0</ele><time>2026-05-01T09:34:19.748Z</time></trkpt><trkpt lat="39.4558203" lon="8.4784535"><ele>42.0</ele><time>2026-05-01T09:34:20.747Z</time></trkpt><trkpt lat="39.4556487" lon="8.4784491"><ele>42.0</ele><time>2026-05-01T09:34:21.748Z</time></trkpt><trkpt lat="39.4554785" lon="8.4784484"><ele>42.0</ele><time>2026-05-01T09:34:22.747Z</time></trkpt><trkpt lat="39.4553095" lon="8.4784496"><ele>41.0</ele><time>2026-05-01T09:34:23.747Z</time></trkpt><trkpt lat="39.4551431" lon="8.4784526"><ele>40.0</ele><time>2026-05-01T09:34:24.748Z</time></trkpt><trkpt lat="39.4549726" lon="8.4784584"><ele>39.0</ele><time>2026-05-01T09:34:25.748Z</time></trkpt><trkpt lat="39.4548053" lon="8.4784612"><ele>39.0</ele><time>2026-05-01T09:34:26.748Z</time></trkpt><trkpt lat="39.454642" lon="8.4784626"><ele>39.0</ele><time>2026-05-01T09:34:27.747Z</time></trkpt><trkpt lat="39.4544836" lon="8.4784654"><ele>39.0</ele><time>2026-05-01T09:34:28.747Z</time></trkpt><trkpt lat="39.4543295" lon="8.4784667"><ele>39.0</ele><time>2026-05-01T09:34:29.747Z</time></trkpt><trkpt lat="39.4541789" lon="8.4784662"><ele>39.0</ele><time>2026-05-01T09:34:30.749Z</time></trkpt><trkpt lat="39.454036" lon="8.4784721"><ele>39.0</ele><time>2026-05-01T09:34:31.748Z</time></trkpt><trkpt lat="39.4539084" lon="8.4784841"><ele>39.0</ele><time>2026-05-01T09:34:32.747Z</time></trkpt><trkpt lat="39.4537966" lon="8.4785224"><ele>39.0</ele><time>2026-05-01T09:34:33.747Z</time></trkpt><trkpt lat="39.4537017" lon="8.4785916"><ele>39.0</ele><time>2026-05-01T09:34:34.748Z</time></trkpt><trkpt lat="39.4536256" lon="8.4786919"><ele>39.0</ele><time>2026-05-01T09:34:35.749Z</time></trkpt><trkpt lat="39.4535612" lon="8.4787865"><ele>39.0</ele><time>2026-05-01T09:34:36.749Z</time></trkpt><trkpt lat="39.453498" lon="8.4788775"><ele>39.0</ele><time>2026-05-01T09:34:37.747Z</time></trkpt><trkpt lat="39.4534319" lon="8.4789506"><ele>39.0</ele><time>2026-05-01T09:34:38.747Z</time></trkpt><trkpt lat="39.4533593" lon="8.4790077"><ele>39.0</ele><time>2026-05-01T09:34:39.748Z</time></trkpt><trkpt lat="39.4532732" lon="8.479034"><ele>39.0</ele><time>2026-05-01T09:34:40.749Z</time></trkpt><trkpt lat="39.4531676" lon="8.4790389"><ele>39.0</ele><time>2026-05-01T09:34:41.748Z</time></trkpt><trkpt lat="39.4530468" lon="8.4790214"><ele>39.0</ele><time>2026-05-01T09:34:42.747Z</time></trkpt><trkpt lat="39.4529138" lon="8.4789978"><ele>38.0</ele><time>2026-05-01T09:34:43.747Z</time></trkpt><trkpt lat="39.4527749" lon="8.4789682"><ele>37.0</ele><time>2026-05-01T09:34:44.748Z</time></trkpt><trkpt lat="39.4526262" lon="8.4789375"><ele>36.0</ele><time>2026-05-01T09:34:45.748Z</time></trkpt><trkpt lat="39.4524778" lon="8.478904"><ele>35.0</ele><time>2026-05-01T09:34:46.749Z</time></trkpt><trkpt lat="39.4523266" lon="8.4788694"><ele>35.0</ele><time>2026-05-01T09:34:47.749Z</time></trkpt><trkpt lat="39.4521772" lon="8.4788355"><ele>35.0</ele><time>2026-05-01T09:34:48.749Z</time></trkpt><trkpt lat="39.4520253" lon="8.478799"><ele>35.0</ele><time>2026-05-01T09:34:49.748Z</time></trkpt><trkpt lat="39.4518744" lon="8.4787529"><ele>35.0</ele><time>2026-05-01T09:34:50.749Z</time></trkpt><trkpt lat="39.4517307" lon="8.4786891"><ele>35.0</ele><time>2026-05-01T09:34:51.748Z</time></trkpt><trkpt lat="39.4515935" lon="8.4786122"><ele>35.0</ele><time>2026-05-01T09:34:52.748Z</time></trkpt><trkpt lat="39.4514614" lon="8.4785371"><ele>35.0</ele><time>2026-05-01T09:34:53.748Z</time></trkpt><trkpt lat="39.4513259" lon="8.4784719"><ele>35.75</ele><time>2026-05-01T09:34:54.747Z</time></trkpt><trkpt lat="39.4511852" lon="8.478437"><ele>36.5</ele><time>2026-05-01T09:34:55.748Z</time></trkpt><trkpt lat="39.4510456" lon="8.4784313"><ele>37.25</ele><time>2026-05-01T09:34:56.747Z</time></trkpt><trkpt lat="39.4509176" lon="8.4784341"><ele>38.0</ele><time>2026-05-01T09:34:57.747Z</time></trkpt><trkpt lat="39.4508082" lon="8.4784047"><ele>38.0</ele><time>2026-05-01T09:34:58.747Z</time></trkpt><trkpt lat="39.4506998" lon="8.4783331"><ele>38.0</ele><time>2026-05-01T09:34:59.747Z</time></trkpt><trkpt lat="39.4506163" lon="8.4782194"><ele>38.0</ele><time>2026-05-01T09:35:00.747Z</time></trkpt><trkpt lat="39.4505512" lon="8.4780729"><ele>38.0</ele><time>2026-05-01T09:35:01.747Z</time></trkpt><trkpt lat="39.4505168" lon="8.4778876"><ele>36.666666666666664</ele><time>2026-05-01T09:35:02.749Z</time></trkpt><trkpt lat="39.4504772" lon="8.4776982"><ele>35.333333333333336</ele><time>2026-05-01T09:35:03.747Z</time></trkpt><trkpt lat="39.4504343" lon="8.477506"><ele>34.0</ele><time>2026-05-01T09:35:04.748Z</time></trkpt><trkpt lat="39.4503933" lon="8.4773056"><ele>35.333333333333336</ele><time>2026-05-01T09:35:05.747Z</time></trkpt><trkpt lat="39.4503494" lon="8.4771028"><ele>36.666666666666664</ele><time>2026-05-01T09:35:06.747Z</time></trkpt><trkpt lat="39.4503092" lon="8.4768998"><ele>38.0</ele><time>2026-05-01T09:35:07.748Z</time></trkpt><trkpt lat="39.4502688" lon="8.4767"><ele>38.0</ele><time>2026-05-01T09:35:08.748Z</time></trkpt><trkpt lat="39.4502281" lon="8.4765011"><ele>38.0</ele><time>2026-05-01T09:35:09.749Z</time></trkpt><trkpt lat="39.450184" lon="8.4763036"><ele>38.0</ele><time>2026-05-01T09:35:10.748Z</time></trkpt><trkpt lat="39.4501472" lon="8.4761073"><ele>38.0</ele><time>2026-05-01T09:35:11.748Z</time></trkpt><trkpt lat="39.4501387" lon="8.4759059"><ele>38.0</ele><time>2026-05-01T09:35:12.748Z</time></trkpt><trkpt lat="39.4501557" lon="8.4756939"><ele>38.0</ele><time>2026-05-01T09:35:13.749Z</time></trkpt><trkpt lat="39.4501853" lon="8.4754864"><ele>40.0</ele><time>2026-05-01T09:35:14.749Z</time></trkpt><trkpt lat="39.4502192" lon="8.4752735"><ele>42.0</ele><time>2026-05-01T09:35:15.747Z</time></trkpt><trkpt lat="39.4502533" lon="8.4750595"><ele>44.0</ele><time>2026-05-01T09:35:16.746Z</time></trkpt><trkpt lat="39.4502891" lon="8.4748472"><ele>44.0</ele><time>2026-05-01T09:35:17.746Z</time></trkpt><trkpt lat="39.4503221" lon="8.4746375"><ele>44.0</ele><time>2026-05-01T09:35:18.747Z</time></trkpt><trkpt lat="39.45035" lon="8.4744154"><ele>44.0</ele><time>2026-05-01T09:35:19.746Z</time></trkpt><trkpt lat="39.450365" lon="8.4741875"><ele>44.0</ele><time>2026-05-01T09:35:20.747Z</time></trkpt><trkpt lat="39.4503706" lon="8.47396"><ele>44.0</ele><time>2026-05-01T09:35:21.746Z</time></trkpt><trkpt lat="39.450374" lon="8.4737339"><ele>44.0</ele><time>2026-05-01T09:35:22.746Z</time></trkpt><trkpt lat="39.4503866" lon="8.4735124"><ele>45.0</ele><time>2026-05-01T09:35:23.747Z</time></trkpt><trkpt lat="39.4504112" lon="8.4732935"><ele>46.0</ele><time>2026-05-01T09:35:24.746Z</time></trkpt><trkpt lat="39.4504482" lon="8.4730818"><ele>47.0</ele><time>2026-05-01T09:35:25.746Z</time></trkpt><trkpt lat="39.4504871" lon="8.4728704"><ele>41.0</ele><time>2026-05-01T09:35:26.747Z</time></trkpt><trkpt lat="39.450511" lon="8.4726543"><ele>35.0</ele><time>2026-05-01T09:35:27.746Z</time></trkpt><trkpt lat="39.4505182" lon="8.4724337"><ele>29.0</ele><time>2026-05-01T09:35:28.746Z</time></trkpt><trkpt lat="39.4505127" lon="8.4722079"><ele>28.666666666666664</ele><time>2026-05-01T09:35:29.747Z</time></trkpt><trkpt lat="39.4505047" lon="8.4719799"><ele>28.333333333333336</ele><time>2026-05-01T09:35:30.746Z</time></trkpt><trkpt lat="39.4504955" lon="8.4717508"><ele>28.0</ele><time>2026-05-01T09:35:31.747Z</time></trkpt><trkpt lat="39.4504859" lon="8.4715182"><ele>28.0</ele><time>2026-05-01T09:35:32.747Z</time></trkpt><trkpt lat="39.4504745" lon="8.4712833"><ele>28.0</ele><time>2026-05-01T09:35:33.747Z</time></trkpt><trkpt lat="39.4504606" lon="8.4710489"><ele>28.0</ele><time>2026-05-01T09:35:34.747Z</time></trkpt><trkpt lat="39.4504458" lon="8.470812"><ele>34.66666666666667</ele><time>2026-05-01T09:35:35.746Z</time></trkpt><trkpt lat="39.4504285" lon="8.4705759"><ele>41.333333333333336</ele><time>2026-05-01T09:35:36.746Z</time></trkpt><trkpt lat="39.4504099" lon="8.4703378"><ele>48.0</ele><time>2026-05-01T09:35:37.747Z</time></trkpt><trkpt lat="39.45039" lon="8.4701008"><ele>48.0</ele><time>2026-05-01T09:35:38.747Z</time></trkpt><trkpt lat="39.4503674" lon="8.4698691"><ele>48.0</ele><time>2026-05-01T09:35:39.747Z</time></trkpt><trkpt lat="39.4503426" lon="8.4696385"><ele>48.0</ele><time>2026-05-01T09:35:40.747Z</time></trkpt><trkpt lat="39.4503154" lon="8.4694083"><ele>45.0</ele><time>2026-05-01T09:35:41.747Z</time></trkpt><trkpt lat="39.4502924" lon="8.4691806"><ele>42.0</ele><time>2026-05-01T09:35:42.747Z</time></trkpt><trkpt lat="39.4502784" lon="8.4689581"><ele>39.0</ele><time>2026-05-01T09:35:43.746Z</time></trkpt><trkpt lat="39.4502802" lon="8.4687519"><ele>37.25</ele><time>2026-05-01T09:35:44.747Z</time></trkpt><trkpt lat="39.4502863" lon="8.4685666"><ele>35.5</ele><time>2026-05-01T09:35:45.746Z</time></trkpt><trkpt lat="39.4502853" lon="8.4683944"><ele>33.75</ele><time>2026-05-01T09:35:46.747Z</time></trkpt><trkpt lat="39.450242" lon="8.4682259"><ele>32.0</ele><time>2026-05-01T09:35:47.746Z</time></trkpt><trkpt lat="39.4501678" lon="8.4680784"><ele>32.0</ele><time>2026-05-01T09:35:48.746Z</time></trkpt><trkpt lat="39.4500675" lon="8.467975"><ele>32.0</ele><time>2026-05-01T09:35:49.746Z</time></trkpt><trkpt lat="39.449948" lon="8.4679119"><ele>32.0</ele><time>2026-05-01T09:35:50.748Z</time></trkpt><trkpt lat="39.449807" lon="8.4678919"><ele>32.0</ele><time>2026-05-01T09:35:51.748Z</time></trkpt><trkpt lat="39.4496612" lon="8.4679078"><ele>32.33333333333333</ele><time>2026-05-01T09:35:52.747Z</time></trkpt><trkpt lat="39.4495087" lon="8.4679351"><ele>32.666666666666664</ele><time>2026-05-01T09:35:53.746Z</time></trkpt><trkpt lat="39.4493608" lon="8.4679526"><ele>33.0</ele><time>2026-05-01T09:35:54.746Z</time></trkpt><trkpt lat="39.449212" lon="8.4679488"><ele>31.666666666666664</ele><time>2026-05-01T09:35:55.747Z</time></trkpt><trkpt lat="39.4490601" lon="8.4679147"><ele>30.333333333333332</ele><time>2026-05-01T09:35:56.747Z</time></trkpt><trkpt lat="39.448912" lon="8.4678517"><ele>29.0</ele><time>2026-05-01T09:35:57.746Z</time></trkpt><trkpt lat="39.4487656" lon="8.46779"><ele>29.0</ele><time>2026-05-01T09:35:58.746Z</time></trkpt><trkpt lat="39.4486213" lon="8.4677313"><ele>29.0</ele><time>2026-05-01T09:35:59.747Z</time></trkpt><trkpt lat="39.448478" lon="8.4676728"><ele>29.0</ele><time>2026-05-01T09:36:00.747Z</time></trkpt><trkpt lat="39.4483415" lon="8.4676099"><ele>29.0</ele><time>2026-05-01T09:36:01.748Z</time></trkpt><trkpt lat="39.4482057" lon="8.4675316"><ele>29.0</ele><time>2026-05-01T09:36:02.748Z</time></trkpt><trkpt lat="39.4480749" lon="8.4674389"><ele>29.0</ele><time>2026-05-01T09:36:03.746Z</time></trkpt><trkpt lat="39.4479469" lon="8.4673281"><ele>29.0</ele><time>2026-05-01T09:36:04.746Z</time></trkpt><trkpt lat="39.4478286" lon="8.4671874"><ele>29.0</ele><time>2026-05-01T09:36:05.746Z</time></trkpt><trkpt lat="39.4477179" lon="8.4670414"><ele>29.0</ele><time>2026-05-01T09:36:06.747Z</time></trkpt><trkpt lat="39.4476161" lon="8.4669002"><ele>29.0</ele><time>2026-05-01T09:36:07.746Z</time></trkpt><trkpt lat="39.4475356" lon="8.4667461"><ele>29.0</ele><time>2026-05-01T09:36:08.746Z</time></trkpt><trkpt lat="39.4474785" lon="8.4665615"><ele>29.0</ele><time>2026-05-01T09:36:09.747Z</time></trkpt><trkpt lat="39.4474486" lon="8.4663598"><ele>29.0</ele><time>2026-05-01T09:36:10.747Z</time></trkpt><trkpt lat="39.4474406" lon="8.4661508"><ele>28.333333333333332</ele><time>2026-05-01T09:36:11.746Z</time></trkpt><trkpt lat="39.4474392" lon="8.4659443"><ele>27.666666666666664</ele><time>2026-05-01T09:36:12.747Z</time></trkpt><trkpt lat="39.4474427" lon="8.4657403"><ele>27.0</ele><time>2026-05-01T09:36:13.746Z</time></trkpt><trkpt lat="39.4474414" lon="8.4655388"><ele>26.333333333333336</ele><time>2026-05-01T09:36:14.746Z</time></trkpt><trkpt lat="39.4474334" lon="8.4653373"><ele>25.666666666666668</ele><time>2026-05-01T09:36:15.747Z</time></trkpt><trkpt lat="39.4474134" lon="8.4651351"><ele>25.0</ele><time>2026-05-01T09:36:16.748Z</time></trkpt><trkpt lat="39.4473796" lon="8.4649303"><ele>25.0</ele><time>2026-05-01T09:36:17.746Z</time></trkpt><trkpt lat="39.4473404" lon="8.4647234"><ele>25.0</ele><time>2026-05-01T09:36:18.748Z</time></trkpt><trkpt lat="39.4473051" lon="8.4645137"><ele>25.0</ele><time>2026-05-01T09:36:19.748Z</time></trkpt><trkpt lat="39.4472731" lon="8.4642999"><ele>24.333333333333336</ele><time>2026-05-01T09:36:20.748Z</time></trkpt><trkpt lat="39.4472404" lon="8.4640894"><ele>23.666666666666668</ele><time>2026-05-01T09:36:21.747Z</time></trkpt><trkpt lat="39.4472029" lon="8.4638787"><ele>23.0</ele><time>2026-05-01T09:36:22.748Z</time></trkpt><trkpt lat="39.4471632" lon="8.4636691"><ele>25.0</ele><time>2026-05-01T09:36:23.746Z</time></trkpt><trkpt lat="39.4471229" lon="8.463458"><ele>27.0</ele><time>2026-05-01T09:36:24.747Z</time></trkpt><trkpt lat="39.4470847" lon="8.4632496"><ele>29.0</ele><time>2026-05-01T09:36:25.747Z</time></trkpt><trkpt lat="39.4470508" lon="8.4630464"><ele>27.0</ele><time>2026-05-01T09:36:26.746Z</time></trkpt><trkpt lat="39.4470217" lon="8.4628427"><ele>25.0</ele><time>2026-05-01T09:36:27.746Z</time></trkpt><trkpt lat="39.4470049" lon="8.4626374"><ele>23.0</ele><time>2026-05-01T09:36:28.746Z</time></trkpt><trkpt lat="39.4470172" lon="8.4624344"><ele>23.0</ele><time>2026-05-01T09:36:29.746Z</time></trkpt><trkpt lat="39.4470612" lon="8.4622261"><ele>23.0</ele><time>2026-05-01T09:36:30.746Z</time></trkpt><trkpt lat="39.4471211" lon="8.4620189"><ele>23.0</ele><time>2026-05-01T09:36:31.746Z</time></trkpt><trkpt lat="39.4471876" lon="8.461811"><ele>23.0</ele><time>2026-05-01T09:36:32.747Z</time></trkpt><trkpt lat="39.4472564" lon="8.4616026"><ele>23.0</ele><time>2026-05-01T09:36:33.748Z</time></trkpt><trkpt lat="39.4473249" lon="8.4613932"><ele>23.0</ele><time>2026-05-01T09:36:34.748Z</time></trkpt><trkpt lat="39.4473907" lon="8.4611839"><ele>24.666666666666668</ele><time>2026-05-01T09:36:35.747Z</time></trkpt><trkpt lat="39.4474564" lon="8.4609719"><ele>26.333333333333336</ele><time>2026-05-01T09:36:36.747Z</time></trkpt><trkpt lat="39.4475248" lon="8.460764"><ele>28.0</ele><time>2026-05-01T09:36:37.748Z</time></trkpt><trkpt lat="39.4475896" lon="8.46056"><ele>31.0</ele><time>2026-05-01T09:36:38.747Z</time></trkpt><trkpt lat="39.4476564" lon="8.460357"><ele>34.0</ele><time>2026-05-01T09:36:39.748Z</time></trkpt><trkpt lat="39.4477246" lon="8.4601543"><ele>37.0</ele><time>2026-05-01T09:36:40.747Z</time></trkpt><trkpt lat="39.4477945" lon="8.459953"><ele>37.0</ele><time>2026-05-01T09:36:41.746Z</time></trkpt><trkpt lat="39.4478711" lon="8.4597504"><ele>37.0</ele><time>2026-05-01T09:36:42.746Z</time></trkpt><trkpt lat="39.4479547" lon="8.4595562"><ele>37.0</ele><time>2026-05-01T09:36:43.747Z</time></trkpt><trkpt lat="39.4480425" lon="8.4593672"><ele>33.333333333333336</ele><time>2026-05-01T09:36:44.746Z</time></trkpt><trkpt lat="39.4481263" lon="8.4591796"><ele>29.666666666666664</ele><time>2026-05-01T09:36:45.746Z</time></trkpt><trkpt lat="39.4481971" lon="8.4589874"><ele>26.0</ele><time>2026-05-01T09:36:46.748Z</time></trkpt><trkpt lat="39.448259" lon="8.4587872"><ele>27.0</ele><time>2026-05-01T09:36:47.748Z</time></trkpt><trkpt lat="39.4483077" lon="8.4585784"><ele>28.0</ele><time>2026-05-01T09:36:48.747Z</time></trkpt><trkpt lat="39.4483461" lon="8.4583818"><ele>29.0</ele><time>2026-05-01T09:36:49.747Z</time></trkpt><trkpt lat="39.4483799" lon="8.4581999"><ele>29.0</ele><time>2026-05-01T09:36:50.747Z</time></trkpt><trkpt lat="39.4484126" lon="8.458035"><ele>29.0</ele><time>2026-05-01T09:36:51.748Z</time></trkpt><trkpt lat="39.4484462" lon="8.4578866"><ele>29.0</ele><time>2026-05-01T09:36:52.746Z</time></trkpt><trkpt lat="39.4484819" lon="8.4577492"><ele>29.0</ele><time>2026-05-01T09:36:53.746Z</time></trkpt><trkpt lat="39.448524" lon="8.4576112"><ele>28.75</ele><time>2026-05-01T09:36:54.746Z</time></trkpt><trkpt lat="39.448576" lon="8.4574696"><ele>28.5</ele><time>2026-05-01T09:36:55.746Z</time></trkpt><trkpt lat="39.4486422" lon="8.4573263"><ele>28.25</ele><time>2026-05-01T09:36:56.747Z</time></trkpt><trkpt lat="39.4487205" lon="8.4571782"><ele>28.0</ele><time>2026-05-01T09:36:57.746Z</time></trkpt><trkpt lat="39.4488067" lon="8.4570271"><ele>28.0</ele><time>2026-05-01T09:36:58.746Z</time></trkpt><trkpt lat="39.4489005" lon="8.4568741"><ele>28.0</ele><time>2026-05-01T09:36:59.746Z</time></trkpt><trkpt lat="39.4489931" lon="8.4567125"><ele>28.0</ele><time>2026-05-01T09:37:00.746Z</time></trkpt><trkpt lat="39.4490872" lon="8.4565518"><ele>28.0</ele><time>2026-05-01T09:37:01.746Z</time></trkpt><trkpt lat="39.4491837" lon="8.4563891"><ele>28.0</ele><time>2026-05-01T09:37:02.747Z</time></trkpt><trkpt lat="39.4492808" lon="8.4562312"><ele>28.0</ele><time>2026-05-01T09:37:03.747Z</time></trkpt><trkpt lat="39.4493743" lon="8.4560807"><ele>31.0</ele><time>2026-05-01T09:37:04.746Z</time></trkpt><trkpt lat="39.4494556" lon="8.4559261"><ele>34.0</ele><time>2026-05-01T09:37:05.747Z</time></trkpt><trkpt lat="39.4495128" lon="8.4557565"><ele>37.0</ele><time>2026-05-01T09:37:06.748Z</time></trkpt><trkpt lat="39.4495507" lon="8.4555717"><ele>40.0</ele><time>2026-05-01T09:37:07.746Z</time></trkpt><trkpt lat="39.4495781" lon="8.4553875"><ele>42.25</ele><time>2026-05-01T09:37:08.747Z</time></trkpt><trkpt lat="39.4496031" lon="8.4552082"><ele>44.5</ele><time>2026-05-01T09:37:09.747Z</time></trkpt><trkpt lat="39.4496273" lon="8.4550371"><ele>46.75</ele><time>2026-05-01T09:37:10.746Z</time></trkpt><trkpt lat="39.4496513" lon="8.4548717"><ele>49.0</ele><time>2026-05-01T09:37:11.747Z</time></trkpt><trkpt lat="39.4496725" lon="8.4547131"><ele>42.25</ele><time>2026-05-01T09:37:12.747Z</time></trkpt><trkpt lat="39.4496935" lon="8.4545613"><ele>35.5</ele><time>2026-05-01T09:37:13.747Z</time></trkpt><trkpt lat="39.4497112" lon="8.4544139"><ele>28.75</ele><time>2026-05-01T09:37:14.748Z</time></trkpt><trkpt lat="39.4497208" lon="8.4542531"><ele>22.0</ele><time>2026-05-01T09:37:15.747Z</time></trkpt><trkpt lat="39.4497179" lon="8.4540792"><ele>22.0</ele><time>2026-05-01T09:37:16.748Z</time></trkpt><trkpt lat="39.4497064" lon="8.4539034"><ele>22.0</ele><time>2026-05-01T09:37:17.748Z</time></trkpt><trkpt lat="39.4496974" lon="8.4537255"><ele>22.0</ele><time>2026-05-01T09:37:18.748Z</time></trkpt><trkpt lat="39.4496872" lon="8.4535396"><ele>22.0</ele><time>2026-05-01T09:37:19.748Z</time></trkpt><trkpt lat="39.4496777" lon="8.4533517"><ele>21.5</ele><time>2026-05-01T09:37:20.748Z</time></trkpt><trkpt lat="39.4496683" lon="8.4531689"><ele>21.0</ele><time>2026-05-01T09:37:21.746Z</time></trkpt><trkpt lat="39.4496584" lon="8.4529871"><ele>20.5</ele><time>2026-05-01T09:37:22.746Z</time></trkpt><trkpt lat="39.4496449" lon="8.4528023"><ele>20.0</ele><time>2026-05-01T09:37:23.746Z</time></trkpt><trkpt lat="39.4496291" lon="8.4526161"><ele>22.75</ele><time>2026-05-01T09:37:24.746Z</time></trkpt><trkpt lat="39.4496116" lon="8.45243"><ele>25.5</ele><time>2026-05-01T09:37:25.747Z</time></trkpt><trkpt lat="39.4495971" lon="8.4522447"><ele>28.25</ele><time>2026-05-01T09:37:26.748Z</time></trkpt><trkpt lat="39.4495882" lon="8.4520626"><ele>31.0</ele><time>2026-05-01T09:37:27.748Z</time></trkpt><trkpt lat="39.4495778" lon="8.4518972"><ele>31.0</ele><time>2026-05-01T09:37:28.748Z</time></trkpt><trkpt lat="39.4495749" lon="8.4517477"><ele>31.0</ele><time>2026-05-01T09:37:29.747Z</time></trkpt><trkpt lat="39.4495906" lon="8.4516061"><ele>31.0</ele><time>2026-05-01T09:37:30.747Z</time></trkpt><trkpt lat="39.4496216" lon="8.4514543"><ele>31.0</ele><time>2026-05-01T09:37:31.747Z</time></trkpt><trkpt lat="39.4496624" lon="8.4512972"><ele>28.0</ele><time>2026-05-01T09:37:32.748Z</time></trkpt><trkpt lat="39.4497096" lon="8.4511395"><ele>25.0</ele><time>2026-05-01T09:37:33.748Z</time></trkpt><trkpt lat="39.4497571" lon="8.4509795"><ele>22.0</ele><time>2026-05-01T09:37:34.747Z</time></trkpt><trkpt lat="39.4498048" lon="8.4508182"><ele>19.0</ele><time>2026-05-01T09:37:35.747Z</time></trkpt><trkpt lat="39.4498547" lon="8.4506609"><ele>19.0</ele><time>2026-05-01T09:37:36.746Z</time></trkpt><trkpt lat="39.4499041" lon="8.4505054"><ele>19.0</ele><time>2026-05-01T09:37:37.746Z</time></trkpt><trkpt lat="39.4499473" lon="8.4503607"><ele>19.0</ele><time>2026-05-01T09:37:38.747Z</time></trkpt><trkpt lat="39.449986" lon="8.4502304"><ele>19.0</ele><time>2026-05-01T09:37:39.747Z</time></trkpt><trkpt lat="39.4500189" lon="8.4500991"><ele>19.25</ele><time>2026-05-01T09:37:40.747Z</time></trkpt><trkpt lat="39.4500326" lon="8.44996"><ele>19.5</ele><time>2026-05-01T09:37:41.747Z</time></trkpt><trkpt lat="39.4500204" lon="8.4498197"><ele>19.75</ele><time>2026-05-01T09:37:42.747Z</time></trkpt><trkpt lat="39.4499759" lon="8.4496822"><ele>20.0</ele><time>2026-05-01T09:37:43.747Z</time></trkpt><trkpt lat="39.4498989" lon="8.4495421"><ele>19.25</ele><time>2026-05-01T09:37:44.747Z</time></trkpt><trkpt lat="39.4498067" lon="8.4493985"><ele>18.5</ele><time>2026-05-01T09:37:45.748Z</time></trkpt><trkpt lat="39.4497182" lon="8.4492605"><ele>17.75</ele><time>2026-05-01T09:37:46.747Z</time></trkpt><trkpt lat="39.4496364" lon="8.4491341"><ele>17.0</ele><time>2026-05-01T09:37:47.747Z</time></trkpt><trkpt lat="39.4495582" lon="8.4490162"><ele>16.75</ele><time>2026-05-01T09:37:48.746Z</time></trkpt><trkpt lat="39.4494835" lon="8.4489052"><ele>16.5</ele><time>2026-05-01T09:37:49.747Z</time></trkpt><trkpt lat="39.4494074" lon="8.4487985"><ele>16.25</ele><time>2026-05-01T09:37:50.747Z</time></trkpt><trkpt lat="39.4493208" lon="8.4487008"><ele>16.0</ele><time>2026-05-01T09:37:51.746Z</time></trkpt><trkpt lat="39.4492134" lon="8.4486146"><ele>16.0</ele><time>2026-05-01T09:37:52.747Z</time></trkpt><trkpt lat="39.449081" lon="8.4485516"><ele>16.0</ele><time>2026-05-01T09:37:53.747Z</time></trkpt><trkpt lat="39.4489328" lon="8.4484971"><ele>16.0</ele><time>2026-05-01T09:37:54.748Z</time></trkpt><trkpt lat="39.448778" lon="8.4484441"><ele>16.666666666666664</ele><time>2026-05-01T09:37:55.747Z</time></trkpt><trkpt lat="39.448621" lon="8.4483817"><ele>17.333333333333332</ele><time>2026-05-01T09:37:56.747Z</time></trkpt><trkpt lat="39.4484614" lon="8.4483157"><ele>18.0</ele><time>2026-05-01T09:37:57.748Z</time></trkpt><trkpt lat="39.4482965" lon="8.4482413"><ele>18.0</ele><time>2026-05-01T09:37:58.747Z</time></trkpt><trkpt lat="39.4481329" lon="8.4481715"><ele>18.0</ele><time>2026-05-01T09:37:59.748Z</time></trkpt><trkpt lat="39.447968" lon="8.4481052"><ele>18.0</ele><time>2026-05-01T09:38:00.747Z</time></trkpt><trkpt lat="39.4478008" lon="8.448043"><ele>16.666666666666668</ele><time>2026-05-01T09:38:01.748Z</time></trkpt><trkpt lat="39.4476344" lon="8.4479803"><ele>15.333333333333334</ele><time>2026-05-01T09:38:02.747Z</time></trkpt><trkpt lat="39.4474732" lon="8.4479232"><ele>14.0</ele><time>2026-05-01T09:38:03.748Z</time></trkpt><trkpt lat="39.4473146" lon="8.4478674"><ele>14.0</ele><time>2026-05-01T09:38:04.747Z</time></trkpt><trkpt lat="39.4471618" lon="8.4478127"><ele>14.0</ele><time>2026-05-01T09:38:05.747Z</time></trkpt><trkpt lat="39.4470152" lon="8.4477457"><ele>14.0</ele><time>2026-05-01T09:38:06.747Z</time></trkpt><trkpt lat="39.4468771" lon="8.4476549"><ele>15.0</ele><time>2026-05-01T09:38:07.748Z</time></trkpt><trkpt lat="39.4467458" lon="8.4475302"><ele>16.0</ele><time>2026-05-01T09:38:08.747Z</time></trkpt><trkpt lat="39.4466182" lon="8.4473917"><ele>17.0</ele><time>2026-05-01T09:38:09.747Z</time></trkpt><trkpt lat="39.4464899" lon="8.4472493"><ele>18.0</ele><time>2026-05-01T09:38:10.746Z</time></trkpt><trkpt lat="39.4463603" lon="8.4471052"><ele>19.0</ele><time>2026-05-01T09:38:11.747Z</time></trkpt><trkpt lat="39.4462294" lon="8.446961"><ele>20.0</ele><time>2026-05-01T09:38:12.746Z</time></trkpt><trkpt lat="39.4461017" lon="8.4468126"><ele>20.0</ele><time>2026-05-01T09:38:13.747Z</time></trkpt><trkpt lat="39.4459821" lon="8.4466567"><ele>20.0</ele><time>2026-05-01T09:38:14.747Z</time></trkpt><trkpt lat="39.4458709" lon="8.4464931"><ele>20.0</ele><time>2026-05-01T09:38:15.747Z</time></trkpt><trkpt lat="39.4457631" lon="8.4463271"><ele>20.666666666666668</ele><time>2026-05-01T09:38:16.746Z</time></trkpt><trkpt lat="39.445647" lon="8.4461692"><ele>21.333333333333332</ele><time>2026-05-01T09:38:17.746Z</time></trkpt><trkpt lat="39.4455176" lon="8.4460242"><ele>22.0</ele><time>2026-05-01T09:38:18.748Z</time></trkpt><trkpt lat="39.4453873" lon="8.4458862"><ele>22.0</ele><time>2026-05-01T09:38:19.747Z</time></trkpt><trkpt lat="39.4452592" lon="8.4457511"><ele>22.0</ele><time>2026-05-01T09:38:20.747Z</time></trkpt><trkpt lat="39.4451346" lon="8.4456205"><ele>22.0</ele><time>2026-05-01T09:38:21.746Z</time></trkpt><trkpt lat="39.4450144" lon="8.4454935"><ele>20.0</ele><time>2026-05-01T09:38:22.746Z</time></trkpt><trkpt lat="39.4449071" lon="8.4453837"><ele>18.0</ele><time>2026-05-01T09:38:23.748Z</time></trkpt><trkpt lat="39.4448138" lon="8.4452818"><ele>16.0</ele><time>2026-05-01T09:38:24.747Z</time></trkpt><trkpt lat="39.4447291" lon="8.4451802"><ele>14.0</ele><time>2026-05-01T09:38:25.747Z</time></trkpt><trkpt lat="39.4446616" lon="8.445089"><ele>14.000000000000002</ele><time>2026-05-01T09:38:26.746Z</time></trkpt><trkpt lat="39.4446021" lon="8.444995"><ele>14.0</ele><time>2026-05-01T09:38:27.748Z</time></trkpt><trkpt lat="39.4445417" lon="8.4449038"><ele>14.0</ele><time>2026-05-01T09:38:28.747Z</time></trkpt><trkpt lat="39.4444838" lon="8.4448116"><ele>14.0</ele><time>2026-05-01T09:38:29.747Z</time></trkpt><trkpt lat="39.4444291" lon="8.4447249"><ele>14.000000000000002</ele><time>2026-05-01T09:38:30.747Z</time></trkpt><trkpt lat="39.4443768" lon="8.4446444"><ele>14.0</ele><time>2026-05-01T09:38:31.747Z</time></trkpt><trkpt lat="39.4443298" lon="8.4445674"><ele>14.0</ele><time>2026-05-01T09:38:32.747Z</time></trkpt><trkpt lat="39.4442753" lon="8.4445148"><ele>14.0</ele><time>2026-05-01T09:38:33.746Z</time></trkpt><trkpt lat="39.4442028" lon="8.4444899"><ele>14.0</ele><time>2026-05-01T09:38:34.746Z</time></trkpt><trkpt lat="39.444128" lon="8.4444866"><ele>14.0</ele><time>2026-05-01T09:38:35.748Z</time></trkpt><trkpt lat="39.4440582" lon="8.4445001"><ele>14.0</ele><time>2026-05-01T09:38:36.746Z</time></trkpt><trkpt lat="39.4439886" lon="8.4445109"><ele>14.0</ele><time>2026-05-01T09:38:37.746Z</time></trkpt><trkpt lat="39.4439153" lon="8.444506"><ele>14.0</ele><time>2026-05-01T09:38:38.746Z</time></trkpt><trkpt lat="39.4438313" lon="8.4444815"><ele>14.166666666666668</ele><time>2026-05-01T09:38:39.746Z</time></trkpt><trkpt lat="39.443752" lon="8.4444327"><ele>14.333333333333334</ele><time>2026-05-01T09:38:40.746Z</time></trkpt><trkpt lat="39.4436866" lon="8.4443557"><ele>14.5</ele><time>2026-05-01T09:38:41.747Z</time></trkpt><trkpt lat="39.4436367" lon="8.444273"><ele>14.666666666666668</ele><time>2026-05-01T09:38:42.747Z</time></trkpt><trkpt lat="39.4435864" lon="8.4441924"><ele>14.833333333333334</ele><time>2026-05-01T09:38:43.747Z</time></trkpt><trkpt lat="39.443529" lon="8.4441119"><ele>15.0</ele><time>2026-05-01T09:38:44.745Z</time></trkpt><trkpt lat="39.4434636" lon="8.4440274"><ele>15.0</ele><time>2026-05-01T09:38:45.746Z</time></trkpt><trkpt lat="39.4433991" lon="8.4439325"><ele>15.0</ele><time>2026-05-01T09:38:46.745Z</time></trkpt><trkpt lat="39.4433316" lon="8.4438306"><ele>15.0</ele><time>2026-05-01T09:38:47.745Z</time></trkpt><trkpt lat="39.4432629" lon="8.4437243"><ele>15.0</ele><time>2026-05-01T09:38:48.747Z</time></trkpt><trkpt lat="39.4431923" lon="8.443613"><ele>15.0</ele><time>2026-05-01T09:38:49.746Z</time></trkpt><trkpt lat="39.4431176" lon="8.4434981"><ele>15.333333333333334</ele><time>2026-05-01T09:38:50.746Z</time></trkpt><trkpt lat="39.4430505" lon="8.443387"><ele>15.666666666666668</ele><time>2026-05-01T09:38:51.746Z</time></trkpt><trkpt lat="39.4429906" lon="8.4433125"><ele>16.0</ele><time>2026-05-01T09:38:52.746Z</time></trkpt><trkpt lat="39.4429282" lon="8.4432781"><ele>16.333333333333336</ele><time>2026-05-01T09:38:53.746Z</time></trkpt><trkpt lat="39.4428566" lon="8.4432807"><ele>16.666666666666668</ele><time>2026-05-01T09:38:54.746Z</time></trkpt><trkpt lat="39.4427777" lon="8.4433255"><ele>17.0</ele><time>2026-05-01T09:38:55.745Z</time></trkpt><trkpt lat="39.4427157" lon="8.4433563"><ele>18.166666666666668</ele><time>2026-05-01T09:38:56.746Z</time></trkpt><trkpt lat="39.4425994" lon="8.4433162"><ele>19.333333333333336</ele><time>2026-05-01T09:38:58.745Z</time></trkpt><trkpt lat="39.442548" lon="8.4432496"><ele>20.5</ele><time>2026-05-01T09:38:59.745Z</time></trkpt><trkpt lat="39.4425055" lon="8.443148"><ele>21.666666666666668</ele><time>2026-05-01T09:39:00.746Z</time></trkpt><trkpt lat="39.4424874" lon="8.4430535"><ele>22.833333333333332</ele><time>2026-05-01T09:39:01.745Z</time></trkpt><trkpt lat="39.4424976" lon="8.4429667"><ele>24.0</ele><time>2026-05-01T09:39:02.747Z</time></trkpt><trkpt lat="39.4425314" lon="8.4428965"><ele>24.0</ele><time>2026-05-01T09:39:03.746Z</time></trkpt><trkpt lat="39.4425861" lon="8.4428512"><ele>24.0</ele><time>2026-05-01T09:39:04.747Z</time></trkpt><trkpt lat="39.4426575" lon="8.4428534"><ele>24.0</ele><time>2026-05-01T09:39:05.745Z</time></trkpt><trkpt lat="39.4427441" lon="8.4429045"><ele>24.0</ele><time>2026-05-01T09:39:06.745Z</time></trkpt><trkpt lat="39.4428376" lon="8.4429697"><ele>24.0</ele><time>2026-05-01T09:39:07.746Z</time></trkpt><trkpt lat="39.4429311" lon="8.4429987"><ele>24.0</ele><time>2026-05-01T09:39:08.746Z</time></trkpt><trkpt lat="39.4430243" lon="8.4429987"><ele>25.4</ele><time>2026-05-01T09:39:09.745Z</time></trkpt><trkpt lat="39.4431177" lon="8.442954"><ele>26.799999999999997</ele><time>2026-05-01T09:39:10.747Z</time></trkpt><trkpt lat="39.443202" lon="8.4428839"><ele>28.200000000000003</ele><time>2026-05-01T09:39:11.745Z</time></trkpt><trkpt lat="39.4432658" lon="8.4427863"><ele>29.6</ele><time>2026-05-01T09:39:12.746Z</time></trkpt><trkpt lat="39.4433138" lon="8.4426774"><ele>31.0</ele><time>2026-05-01T09:39:13.745Z</time></trkpt><trkpt lat="39.4433343" lon="8.4425408"><ele>31.0</ele><time>2026-05-01T09:39:14.747Z</time></trkpt><trkpt lat="39.4433547" lon="8.4424082"><ele>31.0</ele><time>2026-05-01T09:39:15.745Z</time></trkpt><trkpt lat="39.443368" lon="8.4422856"><ele>31.0</ele><time>2026-05-01T09:39:16.746Z</time></trkpt><trkpt lat="39.4434137" lon="8.4422092"><ele>31.0</ele><time>2026-05-01T09:39:17.746Z</time></trkpt><trkpt lat="39.4434719" lon="8.4421094"><ele>31.0</ele><time>2026-05-01T09:39:18.745Z</time></trkpt><trkpt lat="39.4435399" lon="8.4420011"><ele>32.8</ele><time>2026-05-01T09:39:19.745Z</time></trkpt><trkpt lat="39.4436104" lon="8.4418936"><ele>34.6</ele><time>2026-05-01T09:39:20.747Z</time></trkpt><trkpt lat="39.4436763" lon="8.4417892"><ele>36.4</ele><time>2026-05-01T09:39:21.746Z</time></trkpt><trkpt lat="39.4437316" lon="8.4416929"><ele>38.2</ele><time>2026-05-01T09:39:22.746Z</time></trkpt><trkpt lat="39.4437624" lon="8.4415874"><ele>40.0</ele><time>2026-05-01T09:39:23.747Z</time></trkpt><trkpt lat="39.443759" lon="8.4414713"><ele>40.0</ele><time>2026-05-01T09:39:24.747Z</time></trkpt><trkpt lat="39.4437287" lon="8.441354"><ele>40.0</ele><time>2026-05-01T09:39:25.746Z</time></trkpt><trkpt lat="39.4436718" lon="8.4412637"><ele>40.0</ele><time>2026-05-01T09:39:26.745Z</time></trkpt><trkpt lat="39.4435909" lon="8.4412001"><ele>40.0</ele><time>2026-05-01T09:39:27.746Z</time></trkpt><trkpt lat="39.4435075" lon="8.4411845"><ele>40.0</ele><time>2026-05-01T09:39:28.747Z</time></trkpt><trkpt lat="39.4434051" lon="8.4412068"><ele>40.0</ele><time>2026-05-01T09:39:29.746Z</time></trkpt><trkpt lat="39.44331" lon="8.4412648"><ele>40.0</ele><time>2026-05-01T09:39:30.746Z</time></trkpt><trkpt lat="39.4432244" lon="8.4413411"><ele>40.0</ele><time>2026-05-01T09:39:31.745Z</time></trkpt><trkpt lat="39.4431457" lon="8.4414074"><ele>40.0</ele><time>2026-05-01T09:39:32.746Z</time></trkpt><trkpt lat="39.44307" lon="8.4414752"><ele>40.0</ele><time>2026-05-01T09:39:33.746Z</time></trkpt><trkpt lat="39.4430017" lon="8.4415525"><ele>41.333333333333336</ele><time>2026-05-01T09:39:34.747Z</time></trkpt><trkpt lat="39.4429459" lon="8.4416332"><ele>42.66666666666667</ele><time>2026-05-01T09:39:35.747Z</time></trkpt><trkpt lat="39.442893" lon="8.44169"><ele>44.0</ele><time>2026-05-01T09:39:36.747Z</time></trkpt><trkpt lat="39.4428384" lon="8.4417335"><ele>45.333333333333336</ele><time>2026-05-01T09:39:37.746Z</time></trkpt><trkpt lat="39.4427459" lon="8.4417369"><ele>46.666666666666664</ele><time>2026-05-01T09:39:39.747Z</time></trkpt><trkpt lat="39.4426878" lon="8.4417026"><ele>48.0</ele><time>2026-05-01T09:39:40.745Z</time></trkpt><trkpt lat="39.4426286" lon="8.441633"><ele>48.0</ele><time>2026-05-01T09:39:41.746Z</time></trkpt><trkpt lat="39.4425743" lon="8.4415583"><ele>48.0</ele><time>2026-05-01T09:39:42.746Z</time></trkpt><trkpt lat="39.4425326" lon="8.4414771"><ele>48.0</ele><time>2026-05-01T09:39:43.746Z</time></trkpt><trkpt lat="39.4425234" lon="8.4413794"><ele>48.0</ele><time>2026-05-01T09:39:44.746Z</time></trkpt><trkpt lat="39.442537" lon="8.4412803"><ele>48.0</ele><time>2026-05-01T09:39:45.746Z</time></trkpt><trkpt lat="39.4425651" lon="8.4411696"><ele>48.0</ele><time>2026-05-01T09:39:46.746Z</time></trkpt><trkpt lat="39.4425786" lon="8.4410675"><ele>47.5</ele><time>2026-05-01T09:39:47.745Z</time></trkpt><trkpt lat="39.442555" lon="8.4409666"><ele>47.0</ele><time>2026-05-01T09:39:48.746Z</time></trkpt><trkpt lat="39.4425031" lon="8.4408721"><ele>46.5</ele><time>2026-05-01T09:39:49.746Z</time></trkpt><trkpt lat="39.4424366" lon="8.4408154"><ele>46.0</ele><time>2026-05-01T09:39:50.746Z</time></trkpt><trkpt lat="39.4423507" lon="8.4407769"><ele>45.5</ele><time>2026-05-01T09:39:51.746Z</time></trkpt><trkpt lat="39.4422524" lon="8.4407396"><ele>45.0</ele><time>2026-05-01T09:39:52.746Z</time></trkpt><trkpt lat="39.4421427" lon="8.4406985"><ele>48.5</ele><time>2026-05-01T09:39:53.746Z</time></trkpt><trkpt lat="39.4420127" lon="8.4406727"><ele>52.0</ele><time>2026-05-01T09:39:54.745Z</time></trkpt><trkpt lat="39.4418824" lon="8.4406603"><ele>55.5</ele><time>2026-05-01T09:39:55.747Z</time></trkpt><trkpt lat="39.4417603" lon="8.4406657"><ele>59.0</ele><time>2026-05-01T09:39:56.746Z</time></trkpt><trkpt lat="39.4416357" lon="8.4406949"><ele>59.0</ele><time>2026-05-01T09:39:57.745Z</time></trkpt><trkpt lat="39.4415251" lon="8.4407239"><ele>59.00000000000001</ele><time>2026-05-01T09:39:58.746Z</time></trkpt><trkpt lat="39.4414248" lon="8.4407298"><ele>59.00000000000001</ele><time>2026-05-01T09:39:59.746Z</time></trkpt><trkpt lat="39.4413381" lon="8.4407148"><ele>59.0</ele><time>2026-05-01T09:40:00.746Z</time></trkpt><trkpt lat="39.4412702" lon="8.4406561"><ele>59.0</ele><time>2026-05-01T09:40:01.747Z</time></trkpt><trkpt lat="39.4412023" lon="8.4405617"><ele>61.0</ele><time>2026-05-01T09:40:02.747Z</time></trkpt><trkpt lat="39.4411338" lon="8.4404477"><ele>63.00000000000001</ele><time>2026-05-01T09:40:03.745Z</time></trkpt><trkpt lat="39.4410518" lon="8.4403353"><ele>65.0</ele><time>2026-05-01T09:40:04.745Z</time></trkpt><trkpt lat="39.4409804" lon="8.440239"><ele>67.0</ele><time>2026-05-01T09:40:05.746Z</time></trkpt><trkpt lat="39.4409432" lon="8.4401486"><ele>69.0</ele><time>2026-05-01T09:40:06.747Z</time></trkpt><trkpt lat="39.4409429" lon="8.4400649"><ele>69.0</ele><time>2026-05-01T09:40:07.745Z</time></trkpt><trkpt lat="39.4409749" lon="8.4399712"><ele>69.0</ele><time>2026-05-01T09:40:08.746Z</time></trkpt><trkpt lat="39.4410338" lon="8.4398705"><ele>69.0</ele><time>2026-05-01T09:40:09.746Z</time></trkpt><trkpt lat="39.4410999" lon="8.4397733"><ele>69.0</ele><time>2026-05-01T09:40:10.746Z</time></trkpt><trkpt lat="39.4411405" lon="8.4396669"><ele>69.0</ele><time>2026-05-01T09:40:11.746Z</time></trkpt><trkpt lat="39.4411644" lon="8.4395355"><ele>70.4</ele><time>2026-05-01T09:40:12.746Z</time></trkpt><trkpt lat="39.441197" lon="8.4394367"><ele>71.80000000000001</ele><time>2026-05-01T09:40:13.745Z</time></trkpt><trkpt lat="39.4412556" lon="8.4393564"><ele>73.19999999999999</ele><time>2026-05-01T09:40:14.746Z</time></trkpt><trkpt lat="39.4413354" lon="8.4392745"><ele>74.6</ele><time>2026-05-01T09:40:15.746Z</time></trkpt><trkpt lat="39.4414336" lon="8.4392195"><ele>76.0</ele><time>2026-05-01T09:40:16.747Z</time></trkpt><trkpt lat="39.4415407" lon="8.4391933"><ele>74.2</ele><time>2026-05-01T09:40:17.745Z</time></trkpt><trkpt lat="39.441622" lon="8.4391582"><ele>72.39999999999999</ele><time>2026-05-01T09:40:18.746Z</time></trkpt><trkpt lat="39.4416846" lon="8.4390847"><ele>70.6</ele><time>2026-05-01T09:40:19.746Z</time></trkpt><trkpt lat="39.4417161" lon="8.4389849"><ele>68.8</ele><time>2026-05-01T09:40:20.747Z</time></trkpt><trkpt lat="39.4417252" lon="8.438848"><ele>67.0</ele><time>2026-05-01T09:40:21.746Z</time></trkpt><trkpt lat="39.4417435" lon="8.4387173"><ele>67.0</ele><time>2026-05-01T09:40:22.747Z</time></trkpt><trkpt lat="39.4417817" lon="8.4385801"><ele>67.0</ele><time>2026-05-01T09:40:23.746Z</time></trkpt><trkpt lat="39.4417939" lon="8.4384335"><ele>67.0</ele><time>2026-05-01T09:40:24.745Z</time></trkpt><trkpt lat="39.4417803" lon="8.4382688"><ele>67.0</ele><time>2026-05-01T09:40:25.746Z</time></trkpt><trkpt lat="39.4417422" lon="8.4381024"><ele>67.0</ele><time>2026-05-01T09:40:26.747Z</time></trkpt><trkpt lat="39.4416874" lon="8.4379785"><ele>67.0</ele><time>2026-05-01T09:40:27.746Z</time></trkpt><trkpt lat="39.4416107" lon="8.4378836"><ele>67.0</ele><time>2026-05-01T09:40:28.745Z</time></trkpt><trkpt lat="39.4415114" lon="8.4378043"><ele>67.0</ele><time>2026-05-01T09:40:29.745Z</time></trkpt><trkpt lat="39.4413832" lon="8.4377503"><ele>66.0</ele><time>2026-05-01T09:40:30.746Z</time></trkpt><trkpt lat="39.4412836" lon="8.4377112"><ele>65.0</ele><time>2026-05-01T09:40:31.746Z</time></trkpt><trkpt lat="39.4412005" lon="8.4377116"><ele>64.0</ele><time>2026-05-01T09:40:32.745Z</time></trkpt><trkpt lat="39.4411185" lon="8.4377594"><ele>63.0</ele><time>2026-05-01T09:40:33.746Z</time></trkpt><trkpt lat="39.4410646" lon="8.4378345"><ele>62.0</ele><time>2026-05-01T09:40:34.747Z</time></trkpt><trkpt lat="39.4410315" lon="8.4379622"><ele>64.25</ele><time>2026-05-01T09:40:35.746Z</time></trkpt><trkpt lat="39.4410199" lon="8.4381111"><ele>66.5</ele><time>2026-05-01T09:40:36.745Z</time></trkpt><trkpt lat="39.4409957" lon="8.4382718"><ele>68.75</ele><time>2026-05-01T09:40:37.745Z</time></trkpt><trkpt lat="39.4409671" lon="8.4384449"><ele>71.0</ele><time>2026-05-01T09:40:38.747Z</time></trkpt><trkpt lat="39.4409567" lon="8.4386113"><ele>71.0</ele><time>2026-05-01T09:40:39.746Z</time></trkpt><trkpt lat="39.4409421" lon="8.438733"><ele>71.0</ele><time>2026-05-01T09:40:40.747Z</time></trkpt><trkpt lat="39.4409065" lon="8.438823"><ele>71.0</ele><time>2026-05-01T09:40:41.746Z</time></trkpt><trkpt lat="39.4408482" lon="8.4388796"><ele>71.0</ele><time>2026-05-01T09:40:42.746Z</time></trkpt><trkpt lat="39.4407706" lon="8.4388978"><ele>71.0</ele><time>2026-05-01T09:40:43.745Z</time></trkpt><trkpt lat="39.4406698" lon="8.4388841"><ele>71.0</ele><time>2026-05-01T09:40:44.747Z</time></trkpt><trkpt lat="39.4405622" lon="8.4388603"><ele>72.2</ele><time>2026-05-01T09:40:45.747Z</time></trkpt><trkpt lat="39.4404607" lon="8.438868"><ele>73.39999999999999</ele><time>2026-05-01T09:40:46.746Z</time></trkpt><trkpt lat="39.4403692" lon="8.4389131"><ele>74.6</ele><time>2026-05-01T09:40:47.745Z</time></trkpt><trkpt lat="39.440304" lon="8.438988"><ele>75.8</ele><time>2026-05-01T09:40:48.746Z</time></trkpt><trkpt lat="39.4402587" lon="8.4390967"><ele>77.0</ele><time>2026-05-01T09:40:49.745Z</time></trkpt><trkpt lat="39.4402343" lon="8.4392232"><ele>77.0</ele><time>2026-05-01T09:40:50.746Z</time></trkpt><trkpt lat="39.4401931" lon="8.4393071"><ele>77.0</ele><time>2026-05-01T09:40:51.746Z</time></trkpt><trkpt lat="39.4401342" lon="8.4393633"><ele>77.0</ele><time>2026-05-01T09:40:52.747Z</time></trkpt><trkpt lat="39.4399886" lon="8.4393629"><ele>77.0</ele><time>2026-05-01T09:40:54.746Z</time></trkpt><trkpt lat="39.4399067" lon="8.4393456"><ele>77.0</ele><time>2026-05-01T09:40:55.746Z</time></trkpt><trkpt lat="39.4398409" lon="8.4393785"><ele>77.0</ele><time>2026-05-01T09:40:56.746Z</time></trkpt><trkpt lat="39.4397835" lon="8.4394464"><ele>77.0</ele><time>2026-05-01T09:40:57.745Z</time></trkpt><trkpt lat="39.4397451" lon="8.4395551"><ele>77.0</ele><time>2026-05-01T09:40:58.745Z</time></trkpt><trkpt lat="39.4397072" lon="8.4396532"><ele>77.0</ele><time>2026-05-01T09:40:59.747Z</time></trkpt><trkpt lat="39.439658" lon="8.4397065"><ele>77.0</ele><time>2026-05-01T09:41:00.745Z</time></trkpt><trkpt lat="39.4395945" lon="8.4397177"><ele>77.0</ele><time>2026-05-01T09:41:01.746Z</time></trkpt><trkpt lat="39.4395077" lon="8.4396942"><ele>77.0</ele><time>2026-05-01T09:41:02.745Z</time></trkpt><trkpt lat="39.4394005" lon="8.4396857"><ele>79.0</ele><time>2026-05-01T09:41:03.745Z</time></trkpt><trkpt lat="39.4392973" lon="8.4396563"><ele>81.0</ele><time>2026-05-01T09:41:04.747Z</time></trkpt><trkpt lat="39.439215" lon="8.4395828"><ele>83.0</ele><time>2026-05-01T09:41:05.746Z</time></trkpt><trkpt lat="39.4391512" lon="8.4394903"><ele>85.0</ele><time>2026-05-01T09:41:06.745Z</time></trkpt><trkpt lat="39.4391191" lon="8.4393789"><ele>87.0</ele><time>2026-05-01T09:41:07.746Z</time></trkpt><trkpt lat="39.4391059" lon="8.4392491"><ele>87.0</ele><time>2026-05-01T09:41:08.746Z</time></trkpt><trkpt lat="39.4390735" lon="8.4391041"><ele>87.0</ele><time>2026-05-01T09:41:09.746Z</time></trkpt><trkpt lat="39.4390502" lon="8.4389607"><ele>87.0</ele><time>2026-05-01T09:41:10.746Z</time></trkpt><trkpt lat="39.4390601" lon="8.4388094"><ele>87.0</ele><time>2026-05-01T09:41:11.747Z</time></trkpt><trkpt lat="39.4390971" lon="8.4386435"><ele>86.25</ele><time>2026-05-01T09:41:12.746Z</time></trkpt><trkpt lat="39.4391258" lon="8.4384682"><ele>85.5</ele><time>2026-05-01T09:41:13.747Z</time></trkpt><trkpt lat="39.4391328" lon="8.4382802"><ele>84.75</ele><time>2026-05-01T09:41:14.745Z</time></trkpt><trkpt lat="39.4391242" lon="8.4381244"><ele>84.0</ele><time>2026-05-01T09:41:15.747Z</time></trkpt><trkpt lat="39.4390979" lon="8.4380011"><ele>84.6</ele><time>2026-05-01T09:41:16.747Z</time></trkpt><trkpt lat="39.4390577" lon="8.4379151"><ele>85.2</ele><time>2026-05-01T09:41:17.747Z</time></trkpt><trkpt lat="39.4390055" lon="8.4378666"><ele>85.8</ele><time>2026-05-01T09:41:18.746Z</time></trkpt><trkpt lat="39.4389206" lon="8.4378549"><ele>86.39999999999999</ele><time>2026-05-01T09:41:19.746Z</time></trkpt><trkpt lat="39.4388141" lon="8.4378892"><ele>87.0</ele><time>2026-05-01T09:41:20.746Z</time></trkpt><trkpt lat="39.4387008" lon="8.4379404"><ele>87.0</ele><time>2026-05-01T09:41:21.746Z</time></trkpt><trkpt lat="39.4385941" lon="8.4379563"><ele>87.0</ele><time>2026-05-01T09:41:22.745Z</time></trkpt><trkpt lat="39.4384783" lon="8.43795"><ele>87.0</ele><time>2026-05-01T09:41:23.745Z</time></trkpt><trkpt lat="39.4383698" lon="8.4379657"><ele>87.0</ele><time>2026-05-01T09:41:24.747Z</time></trkpt><trkpt lat="39.4382508" lon="8.4380289"><ele>88.25</ele><time>2026-05-01T09:41:25.747Z</time></trkpt><trkpt lat="39.4381293" lon="8.4381352"><ele>89.5</ele><time>2026-05-01T09:41:26.745Z</time></trkpt><trkpt lat="39.4380048" lon="8.4382489"><ele>90.75</ele><time>2026-05-01T09:41:27.746Z</time></trkpt><trkpt lat="39.43789" lon="8.4383505"><ele>92.0</ele><time>2026-05-01T09:41:28.746Z</time></trkpt><trkpt lat="39.4378031" lon="8.4384413"><ele>92.0</ele><time>2026-05-01T09:41:29.746Z</time></trkpt><trkpt lat="39.4377386" lon="8.4385369"><ele>92.0</ele><time>2026-05-01T09:41:30.746Z</time></trkpt><trkpt lat="39.4377045" lon="8.4386624"><ele>92.0</ele><time>2026-05-01T09:41:31.745Z</time></trkpt><trkpt lat="39.4377061" lon="8.4387853"><ele>92.0</ele><time>2026-05-01T09:41:32.747Z</time></trkpt><trkpt lat="39.4377421" lon="8.4389089"><ele>92.0</ele><time>2026-05-01T09:41:33.746Z</time></trkpt><trkpt lat="39.437821" lon="8.4390334"><ele>91.25</ele><time>2026-05-01T09:41:34.747Z</time></trkpt><trkpt lat="39.4379191" lon="8.4391701"><ele>90.5</ele><time>2026-05-01T09:41:35.746Z</time></trkpt><trkpt lat="39.4379851" lon="8.4392947"><ele>89.75</ele><time>2026-05-01T09:41:36.746Z</time></trkpt><trkpt lat="39.4380376" lon="8.4394261"><ele>89.0</ele><time>2026-05-01T09:41:37.746Z</time></trkpt><trkpt lat="39.4380601" lon="8.4395573"><ele>93.75</ele><time>2026-05-01T09:41:38.745Z</time></trkpt><trkpt lat="39.4380701" lon="8.4397213"><ele>98.5</ele><time>2026-05-01T09:41:39.746Z</time></trkpt><trkpt lat="39.4380567" lon="8.4399139"><ele>103.25</ele><time>2026-05-01T09:41:40.747Z</time></trkpt><trkpt lat="39.438061" lon="8.4400832"><ele>108.0</ele><time>2026-05-01T09:41:41.746Z</time></trkpt><trkpt lat="39.4380854" lon="8.4402483"><ele>108.0</ele><time>2026-05-01T09:41:42.746Z</time></trkpt><trkpt lat="39.4381205" lon="8.440373"><ele>108.00000000000001</ele><time>2026-05-01T09:41:43.746Z</time></trkpt><trkpt lat="39.4381854" lon="8.4404898"><ele>108.00000000000001</ele><time>2026-05-01T09:41:44.746Z</time></trkpt><trkpt lat="39.438274" lon="8.4405857"><ele>108.0</ele><time>2026-05-01T09:41:45.746Z</time></trkpt><trkpt lat="39.4383441" lon="8.4406877"><ele>108.0</ele><time>2026-05-01T09:41:46.746Z</time></trkpt><trkpt lat="39.4384082" lon="8.4407999"><ele>107.80000000000001</ele><time>2026-05-01T09:41:47.746Z</time></trkpt><trkpt lat="39.4384536" lon="8.4409307"><ele>107.60000000000001</ele><time>2026-05-01T09:41:48.745Z</time></trkpt><trkpt lat="39.4384768" lon="8.4410341"><ele>107.39999999999999</ele><time>2026-05-01T09:41:49.746Z</time></trkpt><trkpt lat="39.4384698" lon="8.4411366"><ele>107.19999999999999</ele><time>2026-05-01T09:41:50.746Z</time></trkpt><trkpt lat="39.4384305" lon="8.4412576"><ele>107.0</ele><time>2026-05-01T09:41:51.746Z</time></trkpt><trkpt lat="39.4383704" lon="8.4413829"><ele>107.0</ele><time>2026-05-01T09:41:52.746Z</time></trkpt><trkpt lat="39.4382953" lon="8.4415134"><ele>107.0</ele><time>2026-05-01T09:41:53.745Z</time></trkpt><trkpt lat="39.4382146" lon="8.4416426"><ele>107.0</ele><time>2026-05-01T09:41:54.745Z</time></trkpt><trkpt lat="39.4381382" lon="8.441775"><ele>107.0</ele><time>2026-05-01T09:41:55.745Z</time></trkpt><trkpt lat="39.4380676" lon="8.441866"><ele>107.0</ele><time>2026-05-01T09:41:56.747Z</time></trkpt><trkpt lat="39.4379921" lon="8.4419261"><ele>106.99999999999999</ele><time>2026-05-01T09:41:57.745Z</time></trkpt><trkpt lat="39.4378882" lon="8.4419877"><ele>106.99999999999999</ele><time>2026-05-01T09:41:58.746Z</time></trkpt><trkpt lat="39.43777" lon="8.4420317"><ele>107.0</ele><time>2026-05-01T09:41:59.747Z</time></trkpt><trkpt lat="39.4376764" lon="8.4420828"><ele>107.0</ele><time>2026-05-01T09:42:00.746Z</time></trkpt><trkpt lat="39.4376002" lon="8.4420921"><ele>105.25</ele><time>2026-05-01T09:42:01.746Z</time></trkpt><trkpt lat="39.4375255" lon="8.4420656"><ele>103.5</ele><time>2026-05-01T09:42:02.746Z</time></trkpt><trkpt lat="39.4374357" lon="8.4419936"><ele>101.75</ele><time>2026-05-01T09:42:03.746Z</time></trkpt><trkpt lat="39.4373416" lon="8.4418754"><ele>100.0</ele><time>2026-05-01T09:42:04.745Z</time></trkpt><trkpt lat="39.4372395" lon="8.4417388"><ele>101.4</ele><time>2026-05-01T09:42:05.746Z</time></trkpt><trkpt lat="39.4371271" lon="8.4416106"><ele>102.8</ele><time>2026-05-01T09:42:06.745Z</time></trkpt><trkpt lat="39.4370428" lon="8.4415212"><ele>104.19999999999999</ele><time>2026-05-01T09:42:07.746Z</time></trkpt><trkpt lat="39.4369664" lon="8.4414688"><ele>105.6</ele><time>2026-05-01T09:42:08.747Z</time></trkpt><trkpt lat="39.4368705" lon="8.4414592"><ele>107.0</ele><time>2026-05-01T09:42:09.745Z</time></trkpt><trkpt lat="39.4367427" lon="8.441489"><ele>107.0</ele><time>2026-05-01T09:42:10.746Z</time></trkpt><trkpt lat="39.4366226" lon="8.4415431"><ele>106.99999999999999</ele><time>2026-05-01T09:42:11.746Z</time></trkpt><trkpt lat="39.4365323" lon="8.4415969"><ele>106.99999999999999</ele><time>2026-05-01T09:42:12.747Z</time></trkpt><trkpt lat="39.4364569" lon="8.4416822"><ele>107.0</ele><time>2026-05-01T09:42:13.746Z</time></trkpt><trkpt lat="39.4364063" lon="8.4417972"><ele>107.0</ele><time>2026-05-01T09:42:14.745Z</time></trkpt><trkpt lat="39.43638" lon="8.4419451"><ele>107.0</ele><time>2026-05-01T09:42:15.746Z</time></trkpt><trkpt lat="39.436361" lon="8.4420639"><ele>106.99999999999999</ele><time>2026-05-01T09:42:16.746Z</time></trkpt><trkpt lat="39.4363173" lon="8.4421508"><ele>106.99999999999999</ele><time>2026-05-01T09:42:17.747Z</time></trkpt><trkpt lat="39.4362555" lon="8.4422122"><ele>107.0</ele><time>2026-05-01T09:42:18.745Z</time></trkpt><trkpt lat="39.4361652" lon="8.4422474"><ele>107.0</ele><time>2026-05-01T09:42:19.744Z</time></trkpt><trkpt lat="39.4360501" lon="8.4422565"><ele>105.66666666666666</ele><time>2026-05-01T09:42:20.746Z</time></trkpt><trkpt lat="39.4359567" lon="8.4422524"><ele>104.33333333333333</ele><time>2026-05-01T09:42:21.745Z</time></trkpt><trkpt lat="39.4358774" lon="8.442229"><ele>103.0</ele><time>2026-05-01T09:42:22.745Z</time></trkpt><trkpt lat="39.435824" lon="8.4421767"><ele>101.66666666666666</ele><time>2026-05-01T09:42:23.744Z</time></trkpt><trkpt lat="39.4357682" lon="8.4420766"><ele>100.33333333333333</ele><time>2026-05-01T09:42:24.744Z</time></trkpt><trkpt lat="39.4357121" lon="8.4419748"><ele>99.0</ele><time>2026-05-01T09:42:25.744Z</time></trkpt><trkpt lat="39.4356286" lon="8.4419127"><ele>99.0</ele><time>2026-05-01T09:42:26.744Z</time></trkpt><trkpt lat="39.4355157" lon="8.4418618"><ele>99.0</ele><time>2026-05-01T09:42:27.744Z</time></trkpt><trkpt lat="39.4353892" lon="8.4418205"><ele>99.0</ele><time>2026-05-01T09:42:28.744Z</time></trkpt><trkpt lat="39.4352559" lon="8.4417915"><ele>99.0</ele><time>2026-05-01T09:42:29.745Z</time></trkpt><trkpt lat="39.4351353" lon="8.4417921"><ele>99.4</ele><time>2026-05-01T09:42:30.746Z</time></trkpt><trkpt lat="39.4350325" lon="8.4418105"><ele>99.80000000000001</ele><time>2026-05-01T09:42:31.744Z</time></trkpt><trkpt lat="39.4349467" lon="8.4418632"><ele>100.19999999999999</ele><time>2026-05-01T09:42:32.745Z</time></trkpt><trkpt lat="39.4348627" lon="8.4419614"><ele>100.6</ele><time>2026-05-01T09:42:33.744Z</time></trkpt><trkpt lat="39.4347914" lon="8.4421058"><ele>101.0</ele><time>2026-05-01T09:42:34.746Z</time></trkpt><trkpt lat="39.4347387" lon="8.4422821"><ele>106.33333333333333</ele><time>2026-05-01T09:42:35.745Z</time></trkpt><trkpt lat="39.4347005" lon="8.4424918"><ele>111.66666666666666</ele><time>2026-05-01T09:42:36.745Z</time></trkpt><trkpt lat="39.4346754" lon="8.4427089"><ele>117.0</ele><time>2026-05-01T09:42:37.745Z</time></trkpt><trkpt lat="39.4346496" lon="8.4429015"><ele>115.75</ele><time>2026-05-01T09:42:38.746Z</time></trkpt><trkpt lat="39.4346072" lon="8.4430751"><ele>114.5</ele><time>2026-05-01T09:42:39.744Z</time></trkpt><trkpt lat="39.4345532" lon="8.443242"><ele>113.25</ele><time>2026-05-01T09:42:40.744Z</time></trkpt><trkpt lat="39.4345002" lon="8.44338"><ele>112.0</ele><time>2026-05-01T09:42:41.745Z</time></trkpt><trkpt lat="39.4344431" lon="8.4434909"><ele>112.00000000000001</ele><time>2026-05-01T09:42:42.744Z</time></trkpt><trkpt lat="39.4343804" lon="8.4435607"><ele>112.0</ele><time>2026-05-01T09:42:43.744Z</time></trkpt><trkpt lat="39.4343012" lon="8.4436039"><ele>112.0</ele><time>2026-05-01T09:42:44.745Z</time></trkpt><trkpt lat="39.434218" lon="8.4436082"><ele>112.0</ele><time>2026-05-01T09:42:45.745Z</time></trkpt><trkpt lat="39.4341359" lon="8.4435745"><ele>112.00000000000001</ele><time>2026-05-01T09:42:46.744Z</time></trkpt><trkpt lat="39.4340612" lon="8.4435093"><ele>112.0</ele><time>2026-05-01T09:42:47.745Z</time></trkpt><trkpt lat="39.4340034" lon="8.4434217"><ele>112.0</ele><time>2026-05-01T09:42:48.746Z</time></trkpt><trkpt lat="39.433962" lon="8.4433201"><ele>111.99999999999999</ele><time>2026-05-01T09:42:49.746Z</time></trkpt><trkpt lat="39.433931" lon="8.4431838"><ele>111.99999999999999</ele><time>2026-05-01T09:42:50.745Z</time></trkpt><trkpt lat="39.4339023" lon="8.4430575"><ele>112.0</ele><time>2026-05-01T09:42:51.745Z</time></trkpt><trkpt lat="39.4338524" lon="8.4429545"><ele>112.0</ele><time>2026-05-01T09:42:52.745Z</time></trkpt><trkpt lat="39.4337779" lon="8.4428717"><ele>112.6</ele><time>2026-05-01T09:42:53.746Z</time></trkpt><trkpt lat="39.4336788" lon="8.4428205"><ele>113.19999999999999</ele><time>2026-05-01T09:42:54.746Z</time></trkpt><trkpt lat="39.433593" lon="8.4428166"><ele>113.8</ele><time>2026-05-01T09:42:55.745Z</time></trkpt><trkpt lat="39.4335001" lon="8.4428514"><ele>114.4</ele><time>2026-05-01T09:42:56.745Z</time></trkpt><trkpt lat="39.433417" lon="8.4429316"><ele>115.0</ele><time>2026-05-01T09:42:57.745Z</time></trkpt><trkpt lat="39.4333376" lon="8.4430569"><ele>115.0</ele><time>2026-05-01T09:42:58.745Z</time></trkpt><trkpt lat="39.4332577" lon="8.443163"><ele>115.0</ele><time>2026-05-01T09:42:59.746Z</time></trkpt><trkpt lat="39.4331581" lon="8.4432514"><ele>115.0</ele><time>2026-05-01T09:43:00.745Z</time></trkpt><trkpt lat="39.4330227" lon="8.4433263"><ele>115.0</ele><time>2026-05-01T09:43:01.744Z</time></trkpt><trkpt lat="39.4328662" lon="8.4433994"><ele>113.0</ele><time>2026-05-01T09:43:02.745Z</time></trkpt><trkpt lat="39.4327124" lon="8.4434841"><ele>111.0</ele><time>2026-05-01T09:43:03.746Z</time></trkpt><trkpt lat="39.432594" lon="8.4435464"><ele>109.0</ele><time>2026-05-01T09:43:04.746Z</time></trkpt><trkpt lat="39.4324975" lon="8.4436132"><ele>107.0</ele><time>2026-05-01T09:43:05.744Z</time></trkpt><trkpt lat="39.4324168" lon="8.4437035"><ele>107.5</ele><time>2026-05-01T09:43:06.745Z</time></trkpt><trkpt lat="39.4323386" lon="8.4438438"><ele>108.0</ele><time>2026-05-01T09:43:07.744Z</time></trkpt><trkpt lat="39.4322635" lon="8.4440029"><ele>108.5</ele><time>2026-05-01T09:43:08.745Z</time></trkpt><trkpt lat="39.432181" lon="8.4441207"><ele>109.0</ele><time>2026-05-01T09:43:09.745Z</time></trkpt><trkpt lat="39.4320768" lon="8.4442185"><ele>109.0</ele><time>2026-05-01T09:43:10.745Z</time></trkpt><trkpt lat="39.4319604" lon="8.4442989"><ele>109.0</ele><time>2026-05-01T09:43:11.746Z</time></trkpt><trkpt lat="39.4318307" lon="8.4443963"><ele>109.0</ele><time>2026-05-01T09:43:12.745Z</time></trkpt><trkpt lat="39.4317088" lon="8.4444952"><ele>109.0</ele><time>2026-05-01T09:43:13.744Z</time></trkpt><trkpt lat="39.4315917" lon="8.4445883"><ele>109.25</ele><time>2026-05-01T09:43:14.745Z</time></trkpt><trkpt lat="39.4314785" lon="8.444668"><ele>109.5</ele><time>2026-05-01T09:43:15.744Z</time></trkpt><trkpt lat="39.4313687" lon="8.444745"><ele>109.75</ele><time>2026-05-01T09:43:16.744Z</time></trkpt><trkpt lat="39.4312662" lon="8.4448267"><ele>110.0</ele><time>2026-05-01T09:43:17.746Z</time></trkpt><trkpt lat="39.4311706" lon="8.4449091"><ele>110.0</ele><time>2026-05-01T09:43:18.746Z</time></trkpt><trkpt lat="39.4310763" lon="8.4449905"><ele>110.0</ele><time>2026-05-01T09:43:19.745Z</time></trkpt><trkpt lat="39.4309845" lon="8.4450752"><ele>110.0</ele><time>2026-05-01T09:43:20.744Z</time></trkpt><trkpt lat="39.430887" lon="8.4451662"><ele>110.0</ele><time>2026-05-01T09:43:21.745Z</time></trkpt><trkpt lat="39.4307873" lon="8.4452602"><ele>110.0</ele><time>2026-05-01T09:43:22.745Z</time></trkpt><trkpt lat="39.4306898" lon="8.4453447"><ele>110.0</ele><time>2026-05-01T09:43:23.745Z</time></trkpt><trkpt lat="39.4306005" lon="8.4454359"><ele>110.0</ele><time>2026-05-01T09:43:24.745Z</time></trkpt><trkpt lat="39.4305172" lon="8.4455335"><ele>110.0</ele><time>2026-05-01T09:43:25.744Z</time></trkpt><trkpt lat="39.4304478" lon="8.4456574"><ele>106.75</ele><time>2026-05-01T09:43:26.745Z</time></trkpt><trkpt lat="39.4303973" lon="8.4457958"><ele>103.5</ele><time>2026-05-01T09:43:27.745Z</time></trkpt><trkpt lat="39.4303626" lon="8.4459372"><ele>100.25</ele><time>2026-05-01T09:43:28.744Z</time></trkpt><trkpt lat="39.4303309" lon="8.4460873"><ele>97.0</ele><time>2026-05-01T09:43:29.746Z</time></trkpt><trkpt lat="39.4302888" lon="8.4462294"><ele>99.39999999999999</ele><time>2026-05-01T09:43:30.746Z</time></trkpt><trkpt lat="39.4302454" lon="8.4463647"><ele>101.8</ele><time>2026-05-01T09:43:31.746Z</time></trkpt><trkpt lat="39.4302041" lon="8.4465009"><ele>104.2</ele><time>2026-05-01T09:43:32.745Z</time></trkpt><trkpt lat="39.4301614" lon="8.4466252"><ele>106.6</ele><time>2026-05-01T09:43:33.746Z</time></trkpt><trkpt lat="39.4301134" lon="8.4467323"><ele>109.0</ele><time>2026-05-01T09:43:34.745Z</time></trkpt><trkpt lat="39.4300685" lon="8.4468116"><ele>109.00000000000001</ele><time>2026-05-01T09:43:35.744Z</time></trkpt><trkpt lat="39.4300324" lon="8.4468916"><ele>109.0</ele><time>2026-05-01T09:43:36.746Z</time></trkpt><trkpt lat="39.4300008" lon="8.4469669"><ele>109.0</ele><time>2026-05-01T09:43:37.746Z</time></trkpt><trkpt lat="39.4299845" lon="8.4470469"><ele>109.0</ele><time>2026-05-01T09:43:38.745Z</time></trkpt><trkpt lat="39.4299424" lon="8.4471684"><ele>109.00000000000001</ele><time>2026-05-01T09:43:40.746Z</time></trkpt><trkpt lat="39.4299012" lon="8.4472533"><ele>109.0</ele><time>2026-05-01T09:43:42.745Z</time></trkpt><trkpt lat="39.4298427" lon="8.4473338"><ele>107.66666666666667</ele><time>2026-05-01T09:43:45.746Z</time></trkpt><trkpt lat="39.4297768" lon="8.4473726"><ele>106.33333333333334</ele><time>2026-05-01T09:43:47.745Z</time></trkpt><trkpt lat="39.4296926" lon="8.4474215"><ele>105.0</ele><time>2026-05-01T09:43:49.744Z</time></trkpt><trkpt lat="39.4295892" lon="8.4474619"><ele>103.66666666666666</ele><time>2026-05-01T09:43:51.746Z</time></trkpt><trkpt lat="39.4294875" lon="8.4474193"><ele>102.33333333333333</ele><time>2026-05-01T09:43:53.746Z</time></trkpt><trkpt lat="39.429443" lon="8.4473553"><ele>101.0</ele><time>2026-05-01T09:43:54.745Z</time></trkpt><trkpt lat="39.4294118" lon="8.4472796"><ele>100.99999999999999</ele><time>2026-05-01T09:43:55.745Z</time></trkpt><trkpt lat="39.4293792" lon="8.4471842"><ele>101.0</ele><time>2026-05-01T09:43:56.746Z</time></trkpt><trkpt lat="39.4293282" lon="8.4471181"><ele>101.0</ele><time>2026-05-01T09:43:57.744Z</time></trkpt><trkpt lat="39.4292125" lon="8.4470893"><ele>101.0</ele><time>2026-05-01T09:43:59.746Z</time></trkpt><trkpt lat="39.4291459" lon="8.4471375"><ele>100.99999999999999</ele><time>2026-05-01T09:44:00.744Z</time></trkpt><trkpt lat="39.4290689" lon="8.4472211"><ele>101.0</ele><time>2026-05-01T09:44:01.745Z</time></trkpt><trkpt lat="39.4289989" lon="8.4473555"><ele>101.0</ele><time>2026-05-01T09:44:02.745Z</time></trkpt><trkpt lat="39.4289257" lon="8.4474979"><ele>101.0</ele><time>2026-05-01T09:44:03.744Z</time></trkpt><trkpt lat="39.4288469" lon="8.4476318"><ele>101.0</ele><time>2026-05-01T09:44:04.745Z</time></trkpt><trkpt lat="39.4287654" lon="8.4477401"><ele>101.0</ele><time>2026-05-01T09:44:05.746Z</time></trkpt><trkpt lat="39.4286983" lon="8.4478342"><ele>97.33333333333333</ele><time>2026-05-01T09:44:06.745Z</time></trkpt><trkpt lat="39.4286479" lon="8.447919"><ele>93.66666666666666</ele><time>2026-05-01T09:44:07.744Z</time></trkpt><trkpt lat="39.4286333" lon="8.4480085"><ele>90.0</ele><time>2026-05-01T09:44:08.745Z</time></trkpt><trkpt lat="39.4286412" lon="8.4481203"><ele>86.33333333333333</ele><time>2026-05-01T09:44:09.744Z</time></trkpt><trkpt lat="39.4286824" lon="8.4482327"><ele>82.66666666666666</ele><time>2026-05-01T09:44:10.746Z</time></trkpt><trkpt lat="39.4287333" lon="8.4483602"><ele>79.0</ele><time>2026-05-01T09:44:11.745Z</time></trkpt><trkpt lat="39.428756" lon="8.4484976"><ele>79.0</ele><time>2026-05-01T09:44:12.744Z</time></trkpt><trkpt lat="39.4287659" lon="8.4486545"><ele>79.0</ele><time>2026-05-01T09:44:13.746Z</time></trkpt><trkpt lat="39.4287675" lon="8.448786"><ele>79.0</ele><time>2026-05-01T09:44:14.746Z</time></trkpt><trkpt lat="39.4287777" lon="8.4489193"><ele>79.0</ele><time>2026-05-01T09:44:15.745Z</time></trkpt><trkpt lat="39.4288069" lon="8.4490605"><ele>79.0</ele><time>2026-05-01T09:44:16.745Z</time></trkpt><trkpt lat="39.4288245" lon="8.44918"><ele>79.0</ele><time>2026-05-01T09:44:17.746Z</time></trkpt><trkpt lat="39.4288225" lon="8.449274"><ele>79.0</ele><time>2026-05-01T09:44:18.745Z</time></trkpt><trkpt lat="39.428794" lon="8.4493713"><ele>79.0</ele><time>2026-05-01T09:44:19.744Z</time></trkpt><trkpt lat="39.4287387" lon="8.4494694"><ele>79.0</ele><time>2026-05-01T09:44:20.746Z</time></trkpt><trkpt lat="39.4286612" lon="8.4495739"><ele>79.0</ele><time>2026-05-01T09:44:21.745Z</time></trkpt><trkpt lat="39.4285853" lon="8.4496581"><ele>79.0</ele><time>2026-05-01T09:44:22.746Z</time></trkpt><trkpt lat="39.4285115" lon="8.4497091"><ele>79.0</ele><time>2026-05-01T09:44:23.746Z</time></trkpt><trkpt lat="39.4284444" lon="8.4497272"><ele>79.0</ele><time>2026-05-01T09:44:24.745Z</time></trkpt><trkpt lat="39.4283662" lon="8.4497262"><ele>79.0</ele><time>2026-05-01T09:44:25.744Z</time></trkpt><trkpt lat="39.4282846" lon="8.4497067"><ele>79.0</ele><time>2026-05-01T09:44:26.744Z</time></trkpt><trkpt lat="39.4281978" lon="8.4496263"><ele>79.0</ele><time>2026-05-01T09:44:27.745Z</time></trkpt><trkpt lat="39.428138" lon="8.4495437"><ele>79.0</ele><time>2026-05-01T09:44:28.745Z</time></trkpt><trkpt lat="39.4280935" lon="8.4494433"><ele>79.0</ele><time>2026-05-01T09:44:29.744Z</time></trkpt><trkpt lat="39.4280668" lon="8.4493208"><ele>79.0</ele><time>2026-05-01T09:44:30.745Z</time></trkpt><trkpt lat="39.4280265" lon="8.4492291"><ele>79.0</ele><time>2026-05-01T09:44:31.745Z</time></trkpt><trkpt lat="39.4279608" lon="8.4491309"><ele>79.0</ele><time>2026-05-01T09:44:32.744Z</time></trkpt><trkpt lat="39.427882" lon="8.4490589"><ele>80.0</ele><time>2026-05-01T09:44:33.745Z</time></trkpt><trkpt lat="39.4277897" lon="8.4489907"><ele>81.0</ele><time>2026-05-01T09:44:34.745Z</time></trkpt><trkpt lat="39.4277201" lon="8.4489269"><ele>82.0</ele><time>2026-05-01T09:44:35.744Z</time></trkpt><trkpt lat="39.4276666" lon="8.4488533"><ele>83.0</ele><time>2026-05-01T09:44:36.745Z</time></trkpt><trkpt lat="39.4276234" lon="8.4487681"><ele>84.0</ele><time>2026-05-01T09:44:37.745Z</time></trkpt><trkpt lat="39.4276054" lon="8.448659"><ele>85.0</ele><time>2026-05-01T09:44:38.746Z</time></trkpt><trkpt lat="39.4275744" lon="8.4485414"><ele>85.0</ele><time>2026-05-01T09:44:39.745Z</time></trkpt><trkpt lat="39.4275237" lon="8.4484205"><ele>85.0</ele><time>2026-05-01T09:44:40.744Z</time></trkpt><trkpt lat="39.4274503" lon="8.4482937"><ele>85.0</ele><time>2026-05-01T09:44:41.745Z</time></trkpt><trkpt lat="39.4273639" lon="8.4481726"><ele>85.0</ele><time>2026-05-01T09:44:42.744Z</time></trkpt><trkpt lat="39.4272661" lon="8.4480839"><ele>85.0</ele><time>2026-05-01T09:44:43.744Z</time></trkpt><trkpt lat="39.4271505" lon="8.448017"><ele>85.0</ele><time>2026-05-01T09:44:44.745Z</time></trkpt><trkpt lat="39.4270264" lon="8.4479721"><ele>85.0</ele><time>2026-05-01T09:44:45.745Z</time></trkpt><trkpt lat="39.4269232" lon="8.4479331"><ele>85.0</ele><time>2026-05-01T09:44:46.746Z</time></trkpt><trkpt lat="39.4268459" lon="8.4478887"><ele>85.0</ele><time>2026-05-01T09:44:47.744Z</time></trkpt><trkpt lat="39.4267951" lon="8.4478273"><ele>87.8</ele><time>2026-05-01T09:44:48.745Z</time></trkpt><trkpt lat="39.426758" lon="8.4477387"><ele>90.6</ele><time>2026-05-01T09:44:49.745Z</time></trkpt><trkpt lat="39.4267453" lon="8.4476347"><ele>93.4</ele><time>2026-05-01T09:44:50.745Z</time></trkpt><trkpt lat="39.426739" lon="8.4475334"><ele>96.2</ele><time>2026-05-01T09:44:51.745Z</time></trkpt><trkpt lat="39.4267856" lon="8.4473985"><ele>99.0</ele><time>2026-05-01T09:44:52.744Z</time></trkpt><trkpt lat="39.426823" lon="8.4472778"><ele>99.0</ele><time>2026-05-01T09:44:53.746Z</time></trkpt><trkpt lat="39.4268483" lon="8.4471416"><ele>99.0</ele><time>2026-05-01T09:44:54.746Z</time></trkpt><trkpt lat="39.4268647" lon="8.4469814"><ele>99.0</ele><time>2026-05-01T09:44:55.745Z</time></trkpt><trkpt lat="39.4268718" lon="8.4468143"><ele>99.0</ele><time>2026-05-01T09:44:56.744Z</time></trkpt><trkpt lat="39.4268796" lon="8.4466445"><ele>99.4</ele><time>2026-05-01T09:44:57.745Z</time></trkpt><trkpt lat="39.4268716" lon="8.4464915"><ele>99.80000000000001</ele><time>2026-05-01T09:44:58.745Z</time></trkpt><trkpt lat="39.4268495" lon="8.4463509"><ele>100.19999999999999</ele><time>2026-05-01T09:44:59.746Z</time></trkpt><trkpt lat="39.4268237" lon="8.4462345"><ele>100.6</ele><time>2026-05-01T09:45:00.745Z</time></trkpt><trkpt lat="39.4268246" lon="8.4461269"><ele>101.0</ele><time>2026-05-01T09:45:01.744Z</time></trkpt><trkpt lat="39.4268486" lon="8.4460215"><ele>101.4</ele><time>2026-05-01T09:45:02.746Z</time></trkpt><trkpt lat="39.4268867" lon="8.4459071"><ele>101.8</ele><time>2026-05-01T09:45:03.746Z</time></trkpt><trkpt lat="39.4269005" lon="8.4458004"><ele>102.2</ele><time>2026-05-01T09:45:04.745Z</time></trkpt><trkpt lat="39.4268828" lon="8.4456897"><ele>102.60000000000001</ele><time>2026-05-01T09:45:05.744Z</time></trkpt><trkpt lat="39.4268324" lon="8.44557"><ele>103.0</ele><time>2026-05-01T09:45:06.744Z</time></trkpt><trkpt lat="39.4267654" lon="8.4454415"><ele>103.25</ele><time>2026-05-01T09:45:07.744Z</time></trkpt><trkpt lat="39.4267186" lon="8.4453109"><ele>103.5</ele><time>2026-05-01T09:45:08.746Z</time></trkpt><trkpt lat="39.4266882" lon="8.4451515"><ele>103.75</ele><time>2026-05-01T09:45:09.745Z</time></trkpt><trkpt lat="39.4266702" lon="8.4449822"><ele>104.0</ele><time>2026-05-01T09:45:10.745Z</time></trkpt><trkpt lat="39.4266478" lon="8.444832"><ele>104.0</ele><time>2026-05-01T09:45:11.746Z</time></trkpt><trkpt lat="39.4266187" lon="8.4447059"><ele>104.0</ele><time>2026-05-01T09:45:12.746Z</time></trkpt><trkpt lat="39.4265825" lon="8.4446093"><ele>104.0</ele><time>2026-05-01T09:45:13.746Z</time></trkpt><trkpt lat="39.4265267" lon="8.4445314"><ele>104.0</ele><time>2026-05-01T09:45:14.745Z</time></trkpt><trkpt lat="39.426452" lon="8.4444798"><ele>104.0</ele><time>2026-05-01T09:45:15.745Z</time></trkpt><trkpt lat="39.4263506" lon="8.4444481"><ele>105.5</ele><time>2026-05-01T09:45:16.745Z</time></trkpt><trkpt lat="39.4262364" lon="8.4444226"><ele>107.0</ele><time>2026-05-01T09:45:17.746Z</time></trkpt><trkpt lat="39.4261082" lon="8.4444105"><ele>108.5</ele><time>2026-05-01T09:45:18.746Z</time></trkpt><trkpt lat="39.4260015" lon="8.4444192"><ele>110.0</ele><time>2026-05-01T09:45:19.745Z</time></trkpt><trkpt lat="39.4259015" lon="8.4444326"><ele>109.99999999999999</ele><time>2026-05-01T09:45:20.745Z</time></trkpt><trkpt lat="39.4258095" lon="8.444436"><ele>110.0</ele><time>2026-05-01T09:45:21.745Z</time></trkpt><trkpt lat="39.4257339" lon="8.4444174"><ele>110.0</ele><time>2026-05-01T09:45:22.745Z</time></trkpt><trkpt lat="39.4256701" lon="8.4443796"><ele>110.0</ele><time>2026-05-01T09:45:23.746Z</time></trkpt><trkpt lat="39.4256121" lon="8.444326"><ele>109.99999999999999</ele><time>2026-05-01T09:45:24.745Z</time></trkpt><trkpt lat="39.4255695" lon="8.4442072"><ele>110.0</ele><time>2026-05-01T09:45:26.744Z</time></trkpt><trkpt lat="39.4255712" lon="8.4441101"><ele>109.99999999999999</ele><time>2026-05-01T09:45:27.746Z</time></trkpt><trkpt lat="39.4255871" lon="8.4439935"><ele>110.0</ele><time>2026-05-01T09:45:28.745Z</time></trkpt><trkpt lat="39.425611" lon="8.4439136"><ele>110.0</ele><time>2026-05-01T09:45:29.745Z</time></trkpt><trkpt lat="39.4256612" lon="8.4438174"><ele>110.0</ele><time>2026-05-01T09:45:30.744Z</time></trkpt><trkpt lat="39.4257073" lon="8.4437431"><ele>109.99999999999999</ele><time>2026-05-01T09:45:31.745Z</time></trkpt><trkpt lat="39.4257722" lon="8.4436983"><ele>110.0</ele><time>2026-05-01T09:45:32.745Z</time></trkpt><trkpt lat="39.4258452" lon="8.4436763"><ele>109.99999999999999</ele><time>2026-05-01T09:45:33.745Z</time></trkpt><trkpt lat="39.4259148" lon="8.4436837"><ele>110.0</ele><time>2026-05-01T09:45:34.746Z</time></trkpt><trkpt lat="39.4259866" lon="8.4436995"><ele>110.0</ele><time>2026-05-01T09:45:35.745Z</time></trkpt><trkpt lat="39.4260641" lon="8.443722"><ele>110.0</ele><time>2026-05-01T09:45:36.744Z</time></trkpt><trkpt lat="39.4261386" lon="8.4437489"><ele>109.99999999999999</ele><time>2026-05-01T09:45:37.746Z</time></trkpt><trkpt lat="39.4262532" lon="8.4438027"><ele>110.0</ele><time>2026-05-01T09:45:39.745Z</time></trkpt><trkpt lat="39.4263707" lon="8.4437875"><ele>111.33333333333333</ele><time>2026-05-01T09:45:41.745Z</time></trkpt><trkpt lat="39.4264383" lon="8.4437606"><ele>112.66666666666666</ele><time>2026-05-01T09:45:42.745Z</time></trkpt><trkpt lat="39.4265139" lon="8.4437208"><ele>114.0</ele><time>2026-05-01T09:45:43.744Z</time></trkpt><trkpt lat="39.4265967" lon="8.4436774"><ele>115.33333333333334</ele><time>2026-05-01T09:45:44.744Z</time></trkpt><trkpt lat="39.4266771" lon="8.4436282"><ele>116.66666666666667</ele><time>2026-05-01T09:45:45.745Z</time></trkpt><trkpt lat="39.4267459" lon="8.4435601"><ele>118.0</ele><time>2026-05-01T09:45:46.744Z</time></trkpt><trkpt lat="39.4268066" lon="8.4434649"><ele>118.00000000000001</ele><time>2026-05-01T09:45:47.745Z</time></trkpt><trkpt lat="39.4268535" lon="8.4433558"><ele>118.0</ele><time>2026-05-01T09:45:48.746Z</time></trkpt><trkpt lat="39.426883" lon="8.4432464"><ele>118.0</ele><time>2026-05-01T09:45:49.745Z</time></trkpt><trkpt lat="39.4268937" lon="8.4431409"><ele>118.0</ele><time>2026-05-01T09:45:50.744Z</time></trkpt><trkpt lat="39.4268875" lon="8.4430496"><ele>118.00000000000001</ele><time>2026-05-01T09:45:51.745Z</time></trkpt><trkpt lat="39.426883" lon="8.4429549"><ele>118.0</ele><time>2026-05-01T09:45:52.745Z</time></trkpt><trkpt lat="39.4268663" lon="8.4428526"><ele>119.33333333333334</ele><time>2026-05-01T09:45:53.745Z</time></trkpt><trkpt lat="39.4268388" lon="8.442741"><ele>120.66666666666667</ele><time>2026-05-01T09:45:54.746Z</time></trkpt><trkpt lat="39.4268065" lon="8.442663"><ele>122.0</ele><time>2026-05-01T09:45:55.745Z</time></trkpt><trkpt lat="39.4266954" lon="8.4426098"><ele>123.33333333333334</ele><time>2026-05-01T09:45:57.746Z</time></trkpt><trkpt lat="39.4266234" lon="8.4426445"><ele>124.66666666666667</ele><time>2026-05-01T09:45:58.744Z</time></trkpt><trkpt lat="39.4265515" lon="8.4427241"><ele>126.0</ele><time>2026-05-01T09:45:59.746Z</time></trkpt><trkpt lat="39.4264862" lon="8.4428327"><ele>126.0</ele><time>2026-05-01T09:46:00.745Z</time></trkpt><trkpt lat="39.4264274" lon="8.442956"><ele>126.0</ele><time>2026-05-01T09:46:01.745Z</time></trkpt><trkpt lat="39.4263791" lon="8.4430918"><ele>126.0</ele><time>2026-05-01T09:46:02.745Z</time></trkpt><trkpt lat="39.4263358" lon="8.4431906"><ele>126.0</ele><time>2026-05-01T09:46:03.744Z</time></trkpt><trkpt lat="39.426294" lon="8.4432551"><ele>126.0</ele><time>2026-05-01T09:46:04.745Z</time></trkpt><trkpt lat="39.4261926" lon="8.4432662"><ele>125.6</ele><time>2026-05-01T09:46:06.744Z</time></trkpt><trkpt lat="39.4261452" lon="8.4431309"><ele>125.19999999999999</ele><time>2026-05-01T09:46:08.743Z</time></trkpt><trkpt lat="39.4261644" lon="8.4430365"><ele>124.80000000000001</ele><time>2026-05-01T09:46:09.744Z</time></trkpt><trkpt lat="39.4261923" lon="8.4429353"><ele>124.4</ele><time>2026-05-01T09:46:10.745Z</time></trkpt><trkpt lat="39.4262175" lon="8.442822"><ele>124.0</ele><time>2026-05-01T09:46:11.743Z</time></trkpt><trkpt lat="39.4262388" lon="8.442695"><ele>127.6</ele><time>2026-05-01T09:46:12.743Z</time></trkpt><trkpt lat="39.4262474" lon="8.4425919"><ele>131.2</ele><time>2026-05-01T09:46:13.743Z</time></trkpt><trkpt lat="39.4262325" lon="8.4425058"><ele>134.79999999999998</ele><time>2026-05-01T09:46:14.745Z</time></trkpt><trkpt lat="39.4261269" lon="8.4424573"><ele>138.4</ele><time>2026-05-01T09:46:16.744Z</time></trkpt><trkpt lat="39.4260355" lon="8.4425837"><ele>142.0</ele><time>2026-05-01T09:46:18.745Z</time></trkpt><trkpt lat="39.426023" lon="8.4426911"><ele>142.0</ele><time>2026-05-01T09:46:19.744Z</time></trkpt><trkpt lat="39.4260232" lon="8.4428035"><ele>142.0</ele><time>2026-05-01T09:46:20.743Z</time></trkpt><trkpt lat="39.4260136" lon="8.442891"><ele>142.0</ele><time>2026-05-01T09:46:21.744Z</time></trkpt><trkpt lat="39.4259185" lon="8.4429706"><ele>142.0</ele><time>2026-05-01T09:46:23.743Z</time></trkpt><trkpt lat="39.4258397" lon="8.4428866"><ele>142.0</ele><time>2026-05-01T09:46:25.745Z</time></trkpt><trkpt lat="39.4258364" lon="8.4427914"><ele>142.0</ele><time>2026-05-01T09:46:26.743Z</time></trkpt><trkpt lat="39.4258578" lon="8.4426828"><ele>142.0</ele><time>2026-05-01T09:46:27.743Z</time></trkpt><trkpt lat="39.4258802" lon="8.4425611"><ele>142.0</ele><time>2026-05-01T09:46:28.744Z</time></trkpt><trkpt lat="39.4258831" lon="8.4424248"><ele>142.0</ele><time>2026-05-01T09:46:29.745Z</time></trkpt><trkpt lat="39.4258776" lon="8.4422906"><ele>142.0</ele><time>2026-05-01T09:46:30.745Z</time></trkpt><trkpt lat="39.4258932" lon="8.4421886"><ele>142.0</ele><time>2026-05-01T09:46:31.745Z</time></trkpt><trkpt lat="39.4259222" lon="8.4420815"><ele>142.0</ele><time>2026-05-01T09:46:32.743Z</time></trkpt><trkpt lat="39.4259357" lon="8.4419958"><ele>142.0</ele><time>2026-05-01T09:46:33.743Z</time></trkpt><trkpt lat="39.4258805" lon="8.4418805"><ele>142.0</ele><time>2026-05-01T09:46:35.745Z</time></trkpt><trkpt lat="39.4258162" lon="8.4418807"><ele>142.0</ele><time>2026-05-01T09:46:36.744Z</time></trkpt><trkpt lat="39.4257654" lon="8.4419389"><ele>142.0</ele><time>2026-05-01T09:46:37.744Z</time></trkpt><trkpt lat="39.4257456" lon="8.4420289"><ele>142.0</ele><time>2026-05-01T09:46:38.743Z</time></trkpt><trkpt lat="39.4257333" lon="8.4421539"><ele>142.0</ele><time>2026-05-01T09:46:39.745Z</time></trkpt><trkpt lat="39.425722" lon="8.4422796"><ele>142.0</ele><time>2026-05-01T09:46:40.744Z</time></trkpt><trkpt lat="39.4256992" lon="8.4424024"><ele>142.0</ele><time>2026-05-01T09:46:41.745Z</time></trkpt><trkpt lat="39.4256627" lon="8.4425096"><ele>142.0</ele><time>2026-05-01T09:46:42.743Z</time></trkpt><trkpt lat="39.4256112" lon="8.4425819"><ele>142.0</ele><time>2026-05-01T09:46:43.744Z</time></trkpt><trkpt lat="39.4255009" lon="8.4425931"><ele>142.0</ele><time>2026-05-01T09:46:45.745Z</time></trkpt><trkpt lat="39.4254561" lon="8.4425323"><ele>142.0</ele><time>2026-05-01T09:46:48.744Z</time></trkpt><trkpt lat="39.425456" lon="8.4424479"><ele>142.0</ele><time>2026-05-01T09:46:52.744Z</time></trkpt><trkpt lat="39.4255175" lon="8.4423413"><ele>142.0</ele><time>2026-05-01T09:47:04.745Z</time></trkpt><trkpt lat="39.4255541" lon="8.4422507"><ele>142.0</ele><time>2026-05-01T09:47:05.743Z</time></trkpt><trkpt lat="39.4255742" lon="8.4421398"><ele>142.0</ele><time>2026-05-01T09:47:06.744Z</time></trkpt><trkpt lat="39.4255855" lon="8.4420084"><ele>144.2</ele><time>2026-05-01T09:47:07.745Z</time></trkpt><trkpt lat="39.4256017" lon="8.4418664"><ele>146.39999999999998</ele><time>2026-05-01T09:47:08.744Z</time></trkpt><trkpt lat="39.4256187" lon="8.44172"><ele>148.60000000000002</ele><time>2026-05-01T09:47:09.745Z</time></trkpt><trkpt lat="39.4256253" lon="8.4415823"><ele>150.8</ele><time>2026-05-01T09:47:10.744Z</time></trkpt><trkpt lat="39.4256014" lon="8.4414643"><ele>153.0</ele><time>2026-05-01T09:47:11.744Z</time></trkpt><trkpt lat="39.4255535" lon="8.4413501"><ele>156.8</ele><time>2026-05-01T09:47:12.744Z</time></trkpt><trkpt lat="39.4254801" lon="8.4412522"><ele>160.60000000000002</ele><time>2026-05-01T09:47:13.744Z</time></trkpt><trkpt lat="39.4253854" lon="8.4411653"><ele>164.39999999999998</ele><time>2026-05-01T09:47:14.743Z</time></trkpt><trkpt lat="39.4252913" lon="8.4410962"><ele>168.2</ele><time>2026-05-01T09:47:15.744Z</time></trkpt><trkpt lat="39.4252229" lon="8.4410395"><ele>172.0</ele><time>2026-05-01T09:47:16.745Z</time></trkpt><trkpt lat="39.4251712" lon="8.4409659"><ele>172.16666666666669</ele><time>2026-05-01T09:47:17.744Z</time></trkpt><trkpt lat="39.4251316" lon="8.440874"><ele>172.33333333333334</ele><time>2026-05-01T09:47:18.744Z</time></trkpt><trkpt lat="39.4250958" lon="8.4407964"><ele>172.5</ele><time>2026-05-01T09:47:19.743Z</time></trkpt><trkpt lat="39.4250392" lon="8.4407522"><ele>172.66666666666666</ele><time>2026-05-01T09:47:20.744Z</time></trkpt><trkpt lat="39.42497" lon="8.440739"><ele>172.83333333333331</ele><time>2026-05-01T09:47:21.744Z</time></trkpt><trkpt lat="39.424907" lon="8.4408551"><ele>173.0</ele><time>2026-05-01T09:47:23.743Z</time></trkpt><trkpt lat="39.42492" lon="8.4409469"><ele>173.0</ele><time>2026-05-01T09:47:24.743Z</time></trkpt><trkpt lat="39.4249616" lon="8.4410467"><ele>173.0</ele><time>2026-05-01T09:47:25.745Z</time></trkpt><trkpt lat="39.4250213" lon="8.4411542"><ele>173.0</ele><time>2026-05-01T09:47:26.744Z</time></trkpt><trkpt lat="39.4250649" lon="8.441251"><ele>173.0</ele><time>2026-05-01T09:47:27.743Z</time></trkpt><trkpt lat="39.4250532" lon="8.4413945"><ele>173.0</ele><time>2026-05-01T09:47:29.745Z</time></trkpt><trkpt lat="39.4249535" lon="8.4414361"><ele>173.0</ele><time>2026-05-01T09:47:31.743Z</time></trkpt><trkpt lat="39.4248814" lon="8.4413489"><ele>173.0</ele><time>2026-05-01T09:47:33.743Z</time></trkpt><trkpt lat="39.4248522" lon="8.4412705"><ele>173.0</ele><time>2026-05-01T09:47:34.744Z</time></trkpt><trkpt lat="39.4248262" lon="8.4411604"><ele>173.0</ele><time>2026-05-01T09:47:35.745Z</time></trkpt><trkpt lat="39.4247919" lon="8.4410473"><ele>173.0</ele><time>2026-05-01T09:47:36.743Z</time></trkpt><trkpt lat="39.4247331" lon="8.4409286"><ele>173.0</ele><time>2026-05-01T09:47:37.745Z</time></trkpt><trkpt lat="39.4246844" lon="8.4407971"><ele>173.0</ele><time>2026-05-01T09:47:38.744Z</time></trkpt><trkpt lat="39.4246608" lon="8.4406936"><ele>173.0</ele><time>2026-05-01T09:47:39.744Z</time></trkpt><trkpt lat="39.4246579" lon="8.4405933"><ele>173.0</ele><time>2026-05-01T09:47:40.743Z</time></trkpt><trkpt lat="39.4246767" lon="8.4405073"><ele>173.0</ele><time>2026-05-01T09:47:41.743Z</time></trkpt><trkpt lat="39.424719" lon="8.4404323"><ele>173.0</ele><time>2026-05-01T09:47:42.743Z</time></trkpt><trkpt lat="39.4247805" lon="8.4403491"><ele>176.2</ele><time>2026-05-01T09:47:43.745Z</time></trkpt><trkpt lat="39.4248339" lon="8.4402545"><ele>179.4</ele><time>2026-05-01T09:47:44.745Z</time></trkpt><trkpt lat="39.4248778" lon="8.4401545"><ele>182.6</ele><time>2026-05-01T09:47:45.745Z</time></trkpt><trkpt lat="39.4249235" lon="8.440078"><ele>185.79999999999998</ele><time>2026-05-01T09:47:46.745Z</time></trkpt><trkpt lat="39.42504" lon="8.4400193"><ele>189.0</ele><time>2026-05-01T09:47:48.744Z</time></trkpt><trkpt lat="39.4251243" lon="8.4400249"><ele>189.0</ele><time>2026-05-01T09:47:49.744Z</time></trkpt><trkpt lat="39.42521" lon="8.4400337"><ele>189.0</ele><time>2026-05-01T09:47:50.743Z</time></trkpt><trkpt lat="39.4252864" lon="8.4400174"><ele>189.0</ele><time>2026-05-01T09:47:51.744Z</time></trkpt><trkpt lat="39.4253633" lon="8.439965"><ele>189.0</ele><time>2026-05-01T09:47:52.745Z</time></trkpt><trkpt lat="39.4254376" lon="8.4399191"><ele>189.0</ele><time>2026-05-01T09:47:53.744Z</time></trkpt><trkpt lat="39.4255598" lon="8.4399496"><ele>190.0</ele><time>2026-05-01T09:47:55.743Z</time></trkpt><trkpt lat="39.4256196" lon="8.439997"><ele>191.0</ele><time>2026-05-01T09:47:56.744Z</time></trkpt><trkpt lat="39.4257022" lon="8.4400663"><ele>192.0</ele><time>2026-05-01T09:47:57.745Z</time></trkpt><trkpt lat="39.4258056" lon="8.44015"><ele>193.0</ele><time>2026-05-01T09:47:58.743Z</time></trkpt><trkpt lat="39.4259269" lon="8.4402463"><ele>194.0</ele><time>2026-05-01T09:47:59.743Z</time></trkpt><trkpt lat="39.4260434" lon="8.4403388"><ele>194.0</ele><time>2026-05-01T09:48:00.744Z</time></trkpt><trkpt lat="39.4261426" lon="8.4404072"><ele>194.0</ele><time>2026-05-01T09:48:01.745Z</time></trkpt><trkpt lat="39.4262216" lon="8.4404534"><ele>194.0</ele><time>2026-05-01T09:48:02.745Z</time></trkpt><trkpt lat="39.4262846" lon="8.4404598"><ele>194.0</ele><time>2026-05-01T09:48:03.745Z</time></trkpt><trkpt lat="39.4263517" lon="8.4403644"><ele>194.0</ele><time>2026-05-01T09:48:05.745Z</time></trkpt><trkpt lat="39.4262964" lon="8.4402262"><ele>194.0</ele><time>2026-05-01T09:48:07.743Z</time></trkpt><trkpt lat="39.4262196" lon="8.4401507"><ele>194.0</ele><time>2026-05-01T09:48:08.743Z</time></trkpt><trkpt lat="39.4261223" lon="8.4400996"><ele>194.0</ele><time>2026-05-01T09:48:09.743Z</time></trkpt><trkpt lat="39.4260237" lon="8.4400564"><ele>194.0</ele><time>2026-05-01T09:48:10.743Z</time></trkpt><trkpt lat="39.4259434" lon="8.440014"><ele>194.0</ele><time>2026-05-01T09:48:11.743Z</time></trkpt><trkpt lat="39.425875" lon="8.4399536"><ele>194.0</ele><time>2026-05-01T09:48:12.744Z</time></trkpt><trkpt lat="39.425819" lon="8.4398698"><ele>194.0</ele><time>2026-05-01T09:48:13.744Z</time></trkpt><trkpt lat="39.4257772" lon="8.4397558"><ele>194.0</ele><time>2026-05-01T09:48:14.745Z</time></trkpt><trkpt lat="39.425756" lon="8.4396218"><ele>194.0</ele><time>2026-05-01T09:48:15.743Z</time></trkpt><trkpt lat="39.4257386" lon="8.4394939"><ele>194.0</ele><time>2026-05-01T09:48:16.743Z</time></trkpt><trkpt lat="39.4256999" lon="8.4393941"><ele>198.33333333333334</ele><time>2026-05-01T09:48:17.743Z</time></trkpt><trkpt lat="39.425643" lon="8.4393259"><ele>202.66666666666669</ele><time>2026-05-01T09:48:18.743Z</time></trkpt><trkpt lat="39.4255712" lon="8.4393001"><ele>207.0</ele><time>2026-05-01T09:48:19.743Z</time></trkpt><trkpt lat="39.4254862" lon="8.4393125"><ele>211.33333333333331</ele><time>2026-05-01T09:48:20.744Z</time></trkpt><trkpt lat="39.4253919" lon="8.4393601"><ele>215.66666666666666</ele><time>2026-05-01T09:48:21.744Z</time></trkpt><trkpt lat="39.4252963" lon="8.4394247"><ele>220.0</ele><time>2026-05-01T09:48:22.744Z</time></trkpt><trkpt lat="39.4252032" lon="8.4394679"><ele>220.0</ele><time>2026-05-01T09:48:23.744Z</time></trkpt><trkpt lat="39.4251171" lon="8.4394752"><ele>220.0</ele><time>2026-05-01T09:48:24.745Z</time></trkpt><trkpt lat="39.425025" lon="8.4394487"><ele>220.0</ele><time>2026-05-01T09:48:25.743Z</time></trkpt><trkpt lat="39.4249377" lon="8.4394071"><ele>220.0</ele><time>2026-05-01T09:48:26.744Z</time></trkpt><trkpt lat="39.4248656" lon="8.4393645"><ele>220.0</ele><time>2026-05-01T09:48:27.745Z</time></trkpt><trkpt lat="39.4247851" lon="8.4392637"><ele>220.0</ele><time>2026-05-01T09:48:29.744Z</time></trkpt><trkpt lat="39.4247409" lon="8.4391737"><ele>220.0</ele><time>2026-05-01T09:48:30.743Z</time></trkpt><trkpt lat="39.4246894" lon="8.4390498"><ele>220.0</ele><time>2026-05-01T09:48:31.745Z</time></trkpt><trkpt lat="39.4246336" lon="8.4388986"><ele>220.0</ele><time>2026-05-01T09:48:32.744Z</time></trkpt><trkpt lat="39.4245617" lon="8.4387227"><ele>220.75</ele><time>2026-05-01T09:48:33.744Z</time></trkpt><trkpt lat="39.4244982" lon="8.4385507"><ele>221.5</ele><time>2026-05-01T09:48:34.743Z</time></trkpt><trkpt lat="39.4244431" lon="8.4383899"><ele>222.25</ele><time>2026-05-01T09:48:35.745Z</time></trkpt><trkpt lat="39.4244018" lon="8.4382555"><ele>223.0</ele><time>2026-05-01T09:48:36.745Z</time></trkpt><trkpt lat="39.4243689" lon="8.4381471"><ele>222.99999999999997</ele><time>2026-05-01T09:48:37.745Z</time></trkpt><trkpt lat="39.4243449" lon="8.4380652"><ele>223.0</ele><time>2026-05-01T09:48:38.744Z</time></trkpt><trkpt lat="39.4243192" lon="8.4379803"><ele>223.0</ele><time>2026-05-01T09:48:40.744Z</time></trkpt><trkpt lat="39.4242684" lon="8.437924"><ele>223.0</ele><time>2026-05-01T09:48:49.744Z</time></trkpt><trkpt lat="39.4243263" lon="8.4379572"><ele>222.99999999999997</ele><time>2026-05-01T10:06:01.738Z</time></trkpt><trkpt lat="39.424365" lon="8.4378723"><ele>223.0</ele><time>2026-05-01T10:06:11.739Z</time></trkpt><trkpt lat="39.4243778" lon="8.4376826"><ele>218.2</ele><time>2026-05-01T10:06:13.739Z</time></trkpt><trkpt lat="39.4243809" lon="8.4375662"><ele>213.4</ele><time>2026-05-01T10:06:14.738Z</time></trkpt><trkpt lat="39.424406" lon="8.4374412"><ele>208.6</ele><time>2026-05-01T10:06:15.74Z</time></trkpt><trkpt lat="39.424458" lon="8.4373118"><ele>203.79999999999998</ele><time>2026-05-01T10:06:16.739Z</time></trkpt><trkpt lat="39.4245351" lon="8.4371776"><ele>199.0</ele><time>2026-05-01T10:06:17.739Z</time></trkpt><trkpt lat="39.4246383" lon="8.4370679"><ele>199.0</ele><time>2026-05-01T10:06:18.74Z</time></trkpt><trkpt lat="39.4247123" lon="8.4369786"><ele>199.0</ele><time>2026-05-01T10:06:19.74Z</time></trkpt><trkpt lat="39.4247719" lon="8.4369216"><ele>199.0</ele><time>2026-05-01T10:06:20.739Z</time></trkpt><trkpt lat="39.4248225" lon="8.4368028"><ele>199.0</ele><time>2026-05-01T10:06:22.738Z</time></trkpt><trkpt lat="39.4247624" lon="8.436728"><ele>199.0</ele><time>2026-05-01T10:06:24.739Z</time></trkpt><trkpt lat="39.4246669" lon="8.436787"><ele>199.0</ele><time>2026-05-01T10:06:26.739Z</time></trkpt><trkpt lat="39.424616" lon="8.4369014"><ele>199.0</ele><time>2026-05-01T10:06:27.739Z</time></trkpt><trkpt lat="39.424554" lon="8.4369996"><ele>199.0</ele><time>2026-05-01T10:06:28.74Z</time></trkpt><trkpt lat="39.4244714" lon="8.4371005"><ele>199.0</ele><time>2026-05-01T10:06:29.738Z</time></trkpt><trkpt lat="39.4243747" lon="8.4372074"><ele>199.0</ele><time>2026-05-01T10:06:30.738Z</time></trkpt><trkpt lat="39.4243012" lon="8.4373092"><ele>199.0</ele><time>2026-05-01T10:06:31.739Z</time></trkpt><trkpt lat="39.4242415" lon="8.4374165"><ele>199.0</ele><time>2026-05-01T10:06:32.739Z</time></trkpt><trkpt lat="39.4241977" lon="8.4375031"><ele>199.0</ele><time>2026-05-01T10:06:33.739Z</time></trkpt><trkpt lat="39.4241258" lon="8.4375731"><ele>199.0</ele><time>2026-05-01T10:06:35.737Z</time></trkpt><trkpt lat="39.4240441" lon="8.4374943"><ele>199.0</ele><time>2026-05-01T10:06:37.737Z</time></trkpt><trkpt lat="39.4240771" lon="8.4373652"><ele>198.99999999999997</ele><time>2026-05-01T10:06:39.738Z</time></trkpt><trkpt lat="39.4241338" lon="8.4372939"><ele>199.0</ele><time>2026-05-01T10:06:40.737Z</time></trkpt><trkpt lat="39.4241856" lon="8.4372277"><ele>199.0</ele><time>2026-05-01T10:06:41.738Z</time></trkpt><trkpt lat="39.4242417" lon="8.4371535"><ele>199.0</ele><time>2026-05-01T10:06:42.738Z</time></trkpt><trkpt lat="39.424298" lon="8.4370719"><ele>198.99999999999997</ele><time>2026-05-01T10:06:43.738Z</time></trkpt><trkpt lat="39.4243572" lon="8.4369714"><ele>199.0</ele><time>2026-05-01T10:06:44.738Z</time></trkpt><trkpt lat="39.4244116" lon="8.4368639"><ele>198.99999999999997</ele><time>2026-05-01T10:06:45.738Z</time></trkpt><trkpt lat="39.4244468" lon="8.4367423"><ele>199.0</ele><time>2026-05-01T10:06:46.738Z</time></trkpt><trkpt lat="39.4244726" lon="8.4366211"><ele>199.0</ele><time>2026-05-01T10:06:47.738Z</time></trkpt><trkpt lat="39.4245029" lon="8.4365213"><ele>199.0</ele><time>2026-05-01T10:06:48.738Z</time></trkpt><trkpt lat="39.4245288" lon="8.436419"><ele>198.99999999999997</ele><time>2026-05-01T10:06:49.738Z</time></trkpt><trkpt lat="39.4245586" lon="8.4363419"><ele>199.0</ele><time>2026-05-01T10:06:50.739Z</time></trkpt><trkpt lat="39.424702" lon="8.4363242"><ele>194.83333333333331</ele><time>2026-05-01T10:06:51.738Z</time></trkpt><trkpt lat="39.424761" lon="8.4362749"><ele>190.66666666666666</ele><time>2026-05-01T10:06:52.737Z</time></trkpt><trkpt lat="39.4248131" lon="8.4362099"><ele>186.5</ele><time>2026-05-01T10:06:53.737Z</time></trkpt><trkpt lat="39.4248424" lon="8.4361117"><ele>182.33333333333331</ele><time>2026-05-01T10:06:54.738Z</time></trkpt><trkpt lat="39.424876" lon="8.4360008"><ele>178.16666666666666</ele><time>2026-05-01T10:06:55.739Z</time></trkpt><trkpt lat="39.4249298" lon="8.4359048"><ele>174.0</ele><time>2026-05-01T10:06:56.738Z</time></trkpt><trkpt lat="39.4249853" lon="8.4358366"><ele>174.0</ele><time>2026-05-01T10:06:57.738Z</time></trkpt><trkpt lat="39.4250535" lon="8.4357653"><ele>174.0</ele><time>2026-05-01T10:06:58.739Z</time></trkpt><trkpt lat="39.425134" lon="8.4356963"><ele>174.0</ele><time>2026-05-01T10:06:59.738Z</time></trkpt><trkpt lat="39.4252124" lon="8.4356456"><ele>174.0</ele><time>2026-05-01T10:07:00.737Z</time></trkpt><trkpt lat="39.4253072" lon="8.4355918"><ele>174.0</ele><time>2026-05-01T10:07:01.738Z</time></trkpt><trkpt lat="39.4254048" lon="8.4355295"><ele>176.16666666666666</ele><time>2026-05-01T10:07:02.738Z</time></trkpt><trkpt lat="39.425484" lon="8.4354666"><ele>178.33333333333334</ele><time>2026-05-01T10:07:03.738Z</time></trkpt><trkpt lat="39.4255443" lon="8.4354053"><ele>180.5</ele><time>2026-05-01T10:07:04.738Z</time></trkpt><trkpt lat="39.4255891" lon="8.435259"><ele>182.66666666666669</ele><time>2026-05-01T10:07:06.738Z</time></trkpt><trkpt lat="39.4255706" lon="8.435172"><ele>184.83333333333334</ele><time>2026-05-01T10:07:07.738Z</time></trkpt><trkpt lat="39.4255276" lon="8.4350953"><ele>187.0</ele><time>2026-05-01T10:07:08.737Z</time></trkpt><trkpt lat="39.42546" lon="8.435023"><ele>187.0</ele><time>2026-05-01T10:07:09.737Z</time></trkpt><trkpt lat="39.4254028" lon="8.4349482"><ele>187.0</ele><time>2026-05-01T10:07:10.738Z</time></trkpt><trkpt lat="39.4253804" lon="8.4348026"><ele>187.0</ele><time>2026-05-01T10:07:12.738Z</time></trkpt><trkpt lat="39.4254099" lon="8.4347153"><ele>187.0</ele><time>2026-05-01T10:07:13.738Z</time></trkpt><trkpt lat="39.4254651" lon="8.4346429"><ele>187.0</ele><time>2026-05-01T10:07:14.738Z</time></trkpt><trkpt lat="39.425525" lon="8.4345697"><ele>187.0</ele><time>2026-05-01T10:07:15.739Z</time></trkpt><trkpt lat="39.4255557" lon="8.4344175"><ele>187.0</ele><time>2026-05-01T10:07:17.738Z</time></trkpt><trkpt lat="39.4255341" lon="8.4343366"><ele>187.0</ele><time>2026-05-01T10:07:18.737Z</time></trkpt><trkpt lat="39.4254891" lon="8.4342635"><ele>187.0</ele><time>2026-05-01T10:07:19.738Z</time></trkpt><trkpt lat="39.425431" lon="8.4341809"><ele>187.0</ele><time>2026-05-01T10:07:20.738Z</time></trkpt><trkpt lat="39.4253596" lon="8.4340902"><ele>187.0</ele><time>2026-05-01T10:07:21.737Z</time></trkpt><trkpt lat="39.4252754" lon="8.4339901"><ele>187.0</ele><time>2026-05-01T10:07:22.737Z</time></trkpt><trkpt lat="39.4251939" lon="8.4338807"><ele>184.0</ele><time>2026-05-01T10:07:23.738Z</time></trkpt><trkpt lat="39.4251237" lon="8.4337961"><ele>181.0</ele><time>2026-05-01T10:07:24.737Z</time></trkpt><trkpt lat="39.4250558" lon="8.4337349"><ele>178.0</ele><time>2026-05-01T10:07:25.738Z</time></trkpt><trkpt lat="39.4249748" lon="8.4336972"><ele>175.0</ele><time>2026-05-01T10:07:26.737Z</time></trkpt><trkpt lat="39.4248865" lon="8.4336811"><ele>172.0</ele><time>2026-05-01T10:07:27.739Z</time></trkpt><trkpt lat="39.4248017" lon="8.433695"><ele>169.0</ele><time>2026-05-01T10:07:28.739Z</time></trkpt><trkpt lat="39.4247082" lon="8.4336965"><ele>164.39999999999998</ele><time>2026-05-01T10:07:29.737Z</time></trkpt><trkpt lat="39.4246283" lon="8.4336722"><ele>159.79999999999998</ele><time>2026-05-01T10:07:30.738Z</time></trkpt><trkpt lat="39.4245488" lon="8.4336242"><ele>155.2</ele><time>2026-05-01T10:07:31.739Z</time></trkpt><trkpt lat="39.4244689" lon="8.4335593"><ele>150.6</ele><time>2026-05-01T10:07:32.739Z</time></trkpt><trkpt lat="39.4243959" lon="8.4334853"><ele>146.0</ele><time>2026-05-01T10:07:33.739Z</time></trkpt><trkpt lat="39.4243265" lon="8.4333837"><ele>146.0</ele><time>2026-05-01T10:07:34.739Z</time></trkpt><trkpt lat="39.4242759" lon="8.4332848"><ele>146.0</ele><time>2026-05-01T10:07:35.739Z</time></trkpt><trkpt lat="39.4242212" lon="8.4332141"><ele>146.0</ele><time>2026-05-01T10:07:36.737Z</time></trkpt><trkpt lat="39.4241562" lon="8.4331565"><ele>146.0</ele><time>2026-05-01T10:07:37.738Z</time></trkpt><trkpt lat="39.424083" lon="8.4331194"><ele>146.0</ele><time>2026-05-01T10:07:38.737Z</time></trkpt><trkpt lat="39.4239872" lon="8.4330319"><ele>146.0</ele><time>2026-05-01T10:07:40.738Z</time></trkpt><trkpt lat="39.4239838" lon="8.4329017"><ele>145.2</ele><time>2026-05-01T10:07:42.739Z</time></trkpt><trkpt lat="39.4240685" lon="8.4328277"><ele>144.39999999999998</ele><time>2026-05-01T10:07:44.738Z</time></trkpt><trkpt lat="39.4241933" lon="8.43288"><ele>143.6</ele><time>2026-05-01T10:07:46.738Z</time></trkpt><trkpt lat="39.4242671" lon="8.4329229"><ele>142.79999999999998</ele><time>2026-05-01T10:07:47.739Z</time></trkpt><trkpt lat="39.4243269" lon="8.4329528"><ele>142.0</ele><time>2026-05-01T10:07:48.738Z</time></trkpt><trkpt lat="39.4244273" lon="8.4329135"><ele>142.0</ele><time>2026-05-01T10:07:50.739Z</time></trkpt><trkpt lat="39.4244752" lon="8.4327618"><ele>142.0</ele><time>2026-05-01T10:07:52.738Z</time></trkpt><trkpt lat="39.4244698" lon="8.4326508"><ele>142.0</ele><time>2026-05-01T10:07:53.738Z</time></trkpt><trkpt lat="39.4244449" lon="8.432529"><ele>142.0</ele><time>2026-05-01T10:07:54.737Z</time></trkpt><trkpt lat="39.4244115" lon="8.4323975"><ele>142.0</ele><time>2026-05-01T10:07:55.737Z</time></trkpt><trkpt lat="39.4243807" lon="8.4322534"><ele>139.2</ele><time>2026-05-01T10:07:56.737Z</time></trkpt><trkpt lat="39.4243534" lon="8.4320992"><ele>136.39999999999998</ele><time>2026-05-01T10:07:57.737Z</time></trkpt><trkpt lat="39.4243275" lon="8.4319677"><ele>133.60000000000002</ele><time>2026-05-01T10:07:58.737Z</time></trkpt><trkpt lat="39.4243085" lon="8.4318599"><ele>130.8</ele><time>2026-05-01T10:07:59.738Z</time></trkpt><trkpt lat="39.4243049" lon="8.4317692"><ele>128.0</ele><time>2026-05-01T10:08:00.737Z</time></trkpt><trkpt lat="39.4243678" lon="8.4316518"><ele>127.99999999999999</ele><time>2026-05-01T10:08:02.737Z</time></trkpt><trkpt lat="39.4244321" lon="8.4316121"><ele>128.0</ele><time>2026-05-01T10:08:03.738Z</time></trkpt><trkpt lat="39.42451" lon="8.4315787"><ele>128.0</ele><time>2026-05-01T10:08:04.739Z</time></trkpt><trkpt lat="39.4245619" lon="8.4315238"><ele>128.0</ele><time>2026-05-01T10:08:05.739Z</time></trkpt><trkpt lat="39.4245922" lon="8.431381"><ele>127.99999999999999</ele><time>2026-05-01T10:08:07.738Z</time></trkpt><trkpt lat="39.4245646" lon="8.4312864"><ele>128.0</ele><time>2026-05-01T10:08:08.738Z</time></trkpt><trkpt lat="39.4245081" lon="8.4311864"><ele>126.4</ele><time>2026-05-01T10:08:09.737Z</time></trkpt><trkpt lat="39.4244329" lon="8.4310673"><ele>124.80000000000001</ele><time>2026-05-01T10:08:10.738Z</time></trkpt><trkpt lat="39.4243589" lon="8.4309662"><ele>123.2</ele><time>2026-05-01T10:08:11.738Z</time></trkpt><trkpt lat="39.4242975" lon="8.4308743"><ele>121.6</ele><time>2026-05-01T10:08:12.738Z</time></trkpt><trkpt lat="39.424257" lon="8.4307758"><ele>120.0</ele><time>2026-05-01T10:08:13.738Z</time></trkpt><trkpt lat="39.4242501" lon="8.430693"><ele>120.0</ele><time>2026-05-01T10:08:14.738Z</time></trkpt><trkpt lat="39.4243285" lon="8.430552"><ele>120.0</ele><time>2026-05-01T10:08:16.737Z</time></trkpt><trkpt lat="39.4244111" lon="8.4304916"><ele>120.0</ele><time>2026-05-01T10:08:17.738Z</time></trkpt><trkpt lat="39.4244659" lon="8.4304159"><ele>120.0</ele><time>2026-05-01T10:08:18.737Z</time></trkpt><trkpt lat="39.4244973" lon="8.4303331"><ele>120.0</ele><time>2026-05-01T10:08:19.737Z</time></trkpt><trkpt lat="39.4245071" lon="8.4302411"><ele>118.5</ele><time>2026-05-01T10:08:20.738Z</time></trkpt><trkpt lat="39.4244897" lon="8.4301473"><ele>117.0</ele><time>2026-05-01T10:08:21.737Z</time></trkpt><trkpt lat="39.4244488" lon="8.4300556"><ele>115.5</ele><time>2026-05-01T10:08:22.737Z</time></trkpt><trkpt lat="39.4243831" lon="8.429951"><ele>114.0</ele><time>2026-05-01T10:08:23.738Z</time></trkpt><trkpt lat="39.4243457" lon="8.4298469"><ele>112.5</ele><time>2026-05-01T10:08:24.738Z</time></trkpt><trkpt lat="39.4243218" lon="8.4297315"><ele>111.0</ele><time>2026-05-01T10:08:25.738Z</time></trkpt><trkpt lat="39.4243208" lon="8.4296232"><ele>111.0</ele><time>2026-05-01T10:08:26.737Z</time></trkpt><trkpt lat="39.4243132" lon="8.4295304"><ele>111.0</ele><time>2026-05-01T10:08:27.738Z</time></trkpt><trkpt lat="39.4242471" lon="8.4294194"><ele>111.0</ele><time>2026-05-01T10:08:29.738Z</time></trkpt><trkpt lat="39.4241629" lon="8.4294896"><ele>111.0</ele><time>2026-05-01T10:08:31.737Z</time></trkpt><trkpt lat="39.4241467" lon="8.4295976"><ele>111.0</ele><time>2026-05-01T10:08:32.737Z</time></trkpt><trkpt lat="39.4241682" lon="8.4297225"><ele>111.0</ele><time>2026-05-01T10:08:33.737Z</time></trkpt><trkpt lat="39.4242146" lon="8.4298733"><ele>111.0</ele><time>2026-05-01T10:08:34.738Z</time></trkpt><trkpt lat="39.4242507" lon="8.4299974"><ele>111.0</ele><time>2026-05-01T10:08:35.737Z</time></trkpt><trkpt lat="39.4242704" lon="8.4300931"><ele>111.0</ele><time>2026-05-01T10:08:36.739Z</time></trkpt><trkpt lat="39.4242486" lon="8.430242"><ele>111.0</ele><time>2026-05-01T10:08:38.738Z</time></trkpt><trkpt lat="39.4241392" lon="8.430318"><ele>111.0</ele><time>2026-05-01T10:08:40.737Z</time></trkpt><trkpt lat="39.4240573" lon="8.4303293"><ele>111.0</ele><time>2026-05-01T10:08:41.739Z</time></trkpt><trkpt lat="39.423981" lon="8.4303346"><ele>111.0</ele><time>2026-05-01T10:08:42.739Z</time></trkpt><trkpt lat="39.4239124" lon="8.4303594"><ele>111.0</ele><time>2026-05-01T10:08:43.739Z</time></trkpt><trkpt lat="39.4238573" lon="8.4304148"><ele>111.0</ele><time>2026-05-01T10:08:44.739Z</time></trkpt><trkpt lat="39.4238251" lon="8.4304849"><ele>111.0</ele><time>2026-05-01T10:08:45.739Z</time></trkpt><trkpt lat="39.4238224" lon="8.4305757"><ele>111.0</ele><time>2026-05-01T10:08:46.739Z</time></trkpt><trkpt lat="39.4238442" lon="8.4306645"><ele>112.5</ele><time>2026-05-01T10:08:47.738Z</time></trkpt><trkpt lat="39.4238628" lon="8.4307481"><ele>114.0</ele><time>2026-05-01T10:08:48.739Z</time></trkpt><trkpt lat="39.4239171" lon="8.430813"><ele>115.5</ele><time>2026-05-01T10:08:49.738Z</time></trkpt><trkpt lat="39.423981" lon="8.4309505"><ele>117.0</ele><time>2026-05-01T10:08:51.738Z</time></trkpt><trkpt lat="39.4239425" lon="8.4310195"><ele>118.5</ele><time>2026-05-01T10:08:52.739Z</time></trkpt><trkpt lat="39.4239087" lon="8.4310887"><ele>120.0</ele><time>2026-05-01T10:08:53.739Z</time></trkpt><trkpt lat="39.4238509" lon="8.4311432"><ele>117.2</ele><time>2026-05-01T10:08:54.739Z</time></trkpt><trkpt lat="39.4237791" lon="8.4311472"><ele>114.4</ele><time>2026-05-01T10:08:55.739Z</time></trkpt><trkpt lat="39.4237063" lon="8.4311453"><ele>111.6</ele><time>2026-05-01T10:08:56.737Z</time></trkpt><trkpt lat="39.4236296" lon="8.431254"><ele>108.8</ele><time>2026-05-01T10:08:58.738Z</time></trkpt><trkpt lat="39.4235972" lon="8.4313526"><ele>106.0</ele><time>2026-05-01T10:08:59.737Z</time></trkpt><trkpt lat="39.4235143" lon="8.4314449"><ele>106.0</ele><time>2026-05-01T10:09:01.739Z</time></trkpt><trkpt lat="39.4234401" lon="8.4314602"><ele>106.0</ele><time>2026-05-01T10:09:02.738Z</time></trkpt><trkpt lat="39.4233605" lon="8.4314653"><ele>106.0</ele><time>2026-05-01T10:09:03.738Z</time></trkpt><trkpt lat="39.4232611" lon="8.4314793"><ele>106.0</ele><time>2026-05-01T10:09:04.739Z</time></trkpt><trkpt lat="39.4231615" lon="8.4315541"><ele>106.0</ele><time>2026-05-01T10:09:05.738Z</time></trkpt><trkpt lat="39.4230709" lon="8.4316059"><ele>105.33333333333334</ele><time>2026-05-01T10:09:06.737Z</time></trkpt><trkpt lat="39.4229777" lon="8.4316315"><ele>104.66666666666667</ele><time>2026-05-01T10:09:07.738Z</time></trkpt><trkpt lat="39.4228739" lon="8.4316386"><ele>104.0</ele><time>2026-05-01T10:09:08.738Z</time></trkpt><trkpt lat="39.4227897" lon="8.4316296"><ele>103.33333333333334</ele><time>2026-05-01T10:09:09.738Z</time></trkpt><trkpt lat="39.4227203" lon="8.4315945"><ele>102.66666666666667</ele><time>2026-05-01T10:09:10.737Z</time></trkpt><trkpt lat="39.4226622" lon="8.43153"><ele>102.0</ele><time>2026-05-01T10:09:11.738Z</time></trkpt><trkpt lat="39.4226057" lon="8.4314378"><ele>102.0</ele><time>2026-05-01T10:09:12.738Z</time></trkpt><trkpt lat="39.4225518" lon="8.4313684"><ele>102.0</ele><time>2026-05-01T10:09:13.738Z</time></trkpt><trkpt lat="39.4224845" lon="8.4313267"><ele>102.0</ele><time>2026-05-01T10:09:14.739Z</time></trkpt><trkpt lat="39.4223966" lon="8.431313"><ele>102.0</ele><time>2026-05-01T10:09:15.739Z</time></trkpt><trkpt lat="39.4223233" lon="8.4312999"><ele>102.0</ele><time>2026-05-01T10:09:16.738Z</time></trkpt><trkpt lat="39.4222292" lon="8.4312873"><ele>102.0</ele><time>2026-05-01T10:09:17.738Z</time></trkpt><trkpt lat="39.4221349" lon="8.4312569"><ele>100.33333333333333</ele><time>2026-05-01T10:09:18.739Z</time></trkpt><trkpt lat="39.422083" lon="8.4311762"><ele>98.66666666666667</ele><time>2026-05-01T10:09:19.739Z</time></trkpt><trkpt lat="39.422039" lon="8.4310776"><ele>97.0</ele><time>2026-05-01T10:09:21.739Z</time></trkpt><trkpt lat="39.4220626" lon="8.430945"><ele>95.33333333333334</ele><time>2026-05-01T10:09:23.737Z</time></trkpt><trkpt lat="39.4221023" lon="8.4308669"><ele>93.66666666666667</ele><time>2026-05-01T10:09:24.737Z</time></trkpt><trkpt lat="39.4221638" lon="8.4307845"><ele>92.0</ele><time>2026-05-01T10:09:25.737Z</time></trkpt><trkpt lat="39.4222378" lon="8.4306944"><ele>92.0</ele><time>2026-05-01T10:09:26.739Z</time></trkpt><trkpt lat="39.4223223" lon="8.4306072"><ele>92.0</ele><time>2026-05-01T10:09:27.738Z</time></trkpt><trkpt lat="39.4224142" lon="8.4305243"><ele>92.0</ele><time>2026-05-01T10:09:28.739Z</time></trkpt><trkpt lat="39.4225" lon="8.430473"><ele>92.0</ele><time>2026-05-01T10:09:29.739Z</time></trkpt><trkpt lat="39.4225848" lon="8.4304529"><ele>92.0</ele><time>2026-05-01T10:09:30.739Z</time></trkpt><trkpt lat="39.4226602" lon="8.4304204"><ele>93.0</ele><time>2026-05-01T10:09:31.737Z</time></trkpt><trkpt lat="39.4227179" lon="8.4303489"><ele>94.0</ele><time>2026-05-01T10:09:32.738Z</time></trkpt><trkpt lat="39.4227502" lon="8.4302477"><ele>95.0</ele><time>2026-05-01T10:09:33.737Z</time></trkpt><trkpt lat="39.4227605" lon="8.4301239"><ele>96.0</ele><time>2026-05-01T10:09:34.739Z</time></trkpt><trkpt lat="39.4227693" lon="8.4299974"><ele>96.99999999999999</ele><time>2026-05-01T10:09:35.736Z</time></trkpt><trkpt lat="39.4227753" lon="8.4298832"><ele>98.0</ele><time>2026-05-01T10:09:36.736Z</time></trkpt><trkpt lat="39.4227829" lon="8.4297782"><ele>98.0</ele><time>2026-05-01T10:09:37.737Z</time></trkpt><trkpt lat="39.4228155" lon="8.4296889"><ele>98.0</ele><time>2026-05-01T10:09:38.737Z</time></trkpt><trkpt lat="39.4228629" lon="8.429622"><ele>98.0</ele><time>2026-05-01T10:09:39.737Z</time></trkpt><trkpt lat="39.422909" lon="8.4295638"><ele>98.0</ele><time>2026-05-01T10:09:40.736Z</time></trkpt><trkpt lat="39.4229439" lon="8.429487"><ele>98.0</ele><time>2026-05-01T10:09:41.737Z</time></trkpt><trkpt lat="39.4229583" lon="8.4294022"><ele>98.0</ele><time>2026-05-01T10:09:42.737Z</time></trkpt><trkpt lat="39.4229682" lon="8.4293135"><ele>98.0</ele><time>2026-05-01T10:09:43.737Z</time></trkpt><trkpt lat="39.4229615" lon="8.4292186"><ele>99.4</ele><time>2026-05-01T10:09:44.736Z</time></trkpt><trkpt lat="39.4229554" lon="8.4291108"><ele>100.80000000000001</ele><time>2026-05-01T10:09:45.737Z</time></trkpt><trkpt lat="39.4229587" lon="8.4290003"><ele>102.2</ele><time>2026-05-01T10:09:46.737Z</time></trkpt><trkpt lat="39.4229899" lon="8.4288971"><ele>103.6</ele><time>2026-05-01T10:09:47.737Z</time></trkpt><trkpt lat="39.4230565" lon="8.4287966"><ele>105.0</ele><time>2026-05-01T10:09:48.737Z</time></trkpt><trkpt lat="39.4231398" lon="8.428686"><ele>98.0</ele><time>2026-05-01T10:09:49.738Z</time></trkpt><trkpt lat="39.4232313" lon="8.4285758"><ele>91.0</ele><time>2026-05-01T10:09:50.737Z</time></trkpt><trkpt lat="39.4233081" lon="8.4284585"><ele>84.0</ele><time>2026-05-01T10:09:51.738Z</time></trkpt><trkpt lat="39.4233743" lon="8.428325"><ele>77.0</ele><time>2026-05-01T10:09:52.736Z</time></trkpt><trkpt lat="39.4234358" lon="8.4281837"><ele>77.0</ele><time>2026-05-01T10:09:53.736Z</time></trkpt><trkpt lat="39.4235001" lon="8.4280637"><ele>77.0</ele><time>2026-05-01T10:09:54.737Z</time></trkpt><trkpt lat="39.4235727" lon="8.427957"><ele>77.0</ele><time>2026-05-01T10:09:55.738Z</time></trkpt><trkpt lat="39.4236343" lon="8.4278615"><ele>77.0</ele><time>2026-05-01T10:09:56.738Z</time></trkpt><trkpt lat="39.4236794" lon="8.4277754"><ele>77.0</ele><time>2026-05-01T10:09:57.736Z</time></trkpt><trkpt lat="39.423709" lon="8.4276713"><ele>77.25</ele><time>2026-05-01T10:09:58.738Z</time></trkpt><trkpt lat="39.4237236" lon="8.4275536"><ele>77.5</ele><time>2026-05-01T10:09:59.738Z</time></trkpt><trkpt lat="39.4237262" lon="8.4274073"><ele>77.75</ele><time>2026-05-01T10:10:00.736Z</time></trkpt><trkpt lat="39.4237283" lon="8.4272467"><ele>78.0</ele><time>2026-05-01T10:10:01.737Z</time></trkpt><trkpt lat="39.4237285" lon="8.4270746"><ele>77.0</ele><time>2026-05-01T10:10:02.737Z</time></trkpt><trkpt lat="39.4237224" lon="8.4268934"><ele>76.0</ele><time>2026-05-01T10:10:03.738Z</time></trkpt><trkpt lat="39.4237068" lon="8.4267006"><ele>75.0</ele><time>2026-05-01T10:10:04.736Z</time></trkpt><trkpt lat="39.423683" lon="8.4265039"><ele>74.0</ele><time>2026-05-01T10:10:05.736Z</time></trkpt><trkpt lat="39.4236626" lon="8.4263069"><ele>72.5</ele><time>2026-05-01T10:10:06.736Z</time></trkpt><trkpt lat="39.4236424" lon="8.4261149"><ele>71.0</ele><time>2026-05-01T10:10:07.737Z</time></trkpt><trkpt lat="39.4236231" lon="8.4259249"><ele>69.5</ele><time>2026-05-01T10:10:08.737Z</time></trkpt><trkpt lat="39.4236024" lon="8.4257318"><ele>68.0</ele><time>2026-05-01T10:10:09.737Z</time></trkpt><trkpt lat="39.4235857" lon="8.4255432"><ele>67.0</ele><time>2026-05-01T10:10:10.736Z</time></trkpt><trkpt lat="39.4235682" lon="8.425354"><ele>66.0</ele><time>2026-05-01T10:10:11.737Z</time></trkpt><trkpt lat="39.4235542" lon="8.4251812"><ele>65.0</ele><time>2026-05-01T10:10:12.736Z</time></trkpt><trkpt lat="39.4235604" lon="8.4250163"><ele>64.0</ele><time>2026-05-01T10:10:13.738Z</time></trkpt><trkpt lat="39.4235905" lon="8.4248459"><ele>64.0</ele><time>2026-05-01T10:10:14.736Z</time></trkpt><trkpt lat="39.4236375" lon="8.4246686"><ele>64.0</ele><time>2026-05-01T10:10:15.737Z</time></trkpt><trkpt lat="39.4236922" lon="8.4245029"><ele>64.0</ele><time>2026-05-01T10:10:16.737Z</time></trkpt><trkpt lat="39.4237435" lon="8.424337"><ele>64.0</ele><time>2026-05-01T10:10:17.737Z</time></trkpt><trkpt lat="39.423799" lon="8.424206"><ele>63.5</ele><time>2026-05-01T10:10:18.736Z</time></trkpt><trkpt lat="39.423833" lon="8.4240858"><ele>63.0</ele><time>2026-05-01T10:10:19.738Z</time></trkpt><trkpt lat="39.4238347" lon="8.4239557"><ele>62.5</ele><time>2026-05-01T10:10:20.737Z</time></trkpt><trkpt lat="39.4237858" lon="8.4237847"><ele>62.0</ele><time>2026-05-01T10:10:21.736Z</time></trkpt><trkpt lat="39.4237295" lon="8.4236103"><ele>62.0</ele><time>2026-05-01T10:10:22.736Z</time></trkpt><trkpt lat="39.4236657" lon="8.42342"><ele>62.0</ele><time>2026-05-01T10:10:23.737Z</time></trkpt><trkpt lat="39.4236004" lon="8.4232249"><ele>62.0</ele><time>2026-05-01T10:10:24.737Z</time></trkpt><trkpt lat="39.4235318" lon="8.423024"><ele>59.0</ele><time>2026-05-01T10:10:25.738Z</time></trkpt><trkpt lat="39.4234694" lon="8.4228272"><ele>56.0</ele><time>2026-05-01T10:10:26.737Z</time></trkpt><trkpt lat="39.4234074" lon="8.4226279"><ele>53.0</ele><time>2026-05-01T10:10:27.737Z</time></trkpt><trkpt lat="39.4233437" lon="8.4224293"><ele>53.0</ele><time>2026-05-01T10:10:28.736Z</time></trkpt><trkpt lat="39.4232851" lon="8.4222293"><ele>53.0</ele><time>2026-05-01T10:10:29.737Z</time></trkpt><trkpt lat="39.4232335" lon="8.4220321"><ele>53.0</ele><time>2026-05-01T10:10:30.737Z</time></trkpt><trkpt lat="39.4231902" lon="8.4218341"><ele>51.66666666666667</ele><time>2026-05-01T10:10:31.738Z</time></trkpt><trkpt lat="39.4231456" lon="8.4216454"><ele>50.33333333333333</ele><time>2026-05-01T10:10:32.738Z</time></trkpt><trkpt lat="39.4231013" lon="8.4214579"><ele>49.0</ele><time>2026-05-01T10:10:33.737Z</time></trkpt><trkpt lat="39.4230557" lon="8.4212707"><ele>48.666666666666664</ele><time>2026-05-01T10:10:34.737Z</time></trkpt><trkpt lat="39.4229998" lon="8.4210827"><ele>48.33333333333333</ele><time>2026-05-01T10:10:35.737Z</time></trkpt><trkpt lat="39.4229356" lon="8.4208996"><ele>48.0</ele><time>2026-05-01T10:10:36.737Z</time></trkpt><trkpt lat="39.4228591" lon="8.4207208"><ele>47.666666666666664</ele><time>2026-05-01T10:10:37.737Z</time></trkpt><trkpt lat="39.4227812" lon="8.4205486"><ele>47.33333333333333</ele><time>2026-05-01T10:10:38.737Z</time></trkpt><trkpt lat="39.4227008" lon="8.4203767"><ele>47.0</ele><time>2026-05-01T10:10:39.736Z</time></trkpt><trkpt lat="39.4226232" lon="8.4202067"><ele>45.5</ele><time>2026-05-01T10:10:40.737Z</time></trkpt><trkpt lat="39.4225536" lon="8.4200516"><ele>44.0</ele><time>2026-05-01T10:10:41.738Z</time></trkpt><trkpt lat="39.4224891" lon="8.4199107"><ele>42.5</ele><time>2026-05-01T10:10:42.738Z</time></trkpt><trkpt lat="39.4224236" lon="8.4197728"><ele>41.0</ele><time>2026-05-01T10:10:43.737Z</time></trkpt><trkpt lat="39.4223602" lon="8.4196303"><ele>40.5</ele><time>2026-05-01T10:10:44.737Z</time></trkpt><trkpt lat="39.4222954" lon="8.419486"><ele>40.0</ele><time>2026-05-01T10:10:45.738Z</time></trkpt><trkpt lat="39.422234" lon="8.4193404"><ele>39.5</ele><time>2026-05-01T10:10:46.736Z</time></trkpt><trkpt lat="39.422184" lon="8.4192135"><ele>39.0</ele><time>2026-05-01T10:10:47.737Z</time></trkpt><trkpt lat="39.4221187" lon="8.419071"><ele>38.4</ele><time>2026-05-01T10:10:48.738Z</time></trkpt><trkpt lat="39.4220595" lon="8.4189656"><ele>37.8</ele><time>2026-05-01T10:10:49.737Z</time></trkpt><trkpt lat="39.4220096" lon="8.4188648"><ele>37.2</ele><time>2026-05-01T10:10:50.737Z</time></trkpt><trkpt lat="39.421938" lon="8.4187811"><ele>36.6</ele><time>2026-05-01T10:10:51.738Z</time></trkpt><trkpt lat="39.4218508" lon="8.4186999"><ele>36.0</ele><time>2026-05-01T10:10:52.736Z</time></trkpt><trkpt lat="39.4217561" lon="8.4186319"><ele>36.0</ele><time>2026-05-01T10:10:53.737Z</time></trkpt><trkpt lat="39.4216434" lon="8.4185564"><ele>36.0</ele><time>2026-05-01T10:10:54.737Z</time></trkpt><trkpt lat="39.421536" lon="8.4184902"><ele>36.0</ele><time>2026-05-01T10:10:55.736Z</time></trkpt><trkpt lat="39.4214236" lon="8.4184199"><ele>36.0</ele><time>2026-05-01T10:10:56.737Z</time></trkpt><trkpt lat="39.4213083" lon="8.4183361"><ele>36.0</ele><time>2026-05-01T10:10:57.736Z</time></trkpt><trkpt lat="39.4211942" lon="8.4182585"><ele>36.0</ele><time>2026-05-01T10:10:58.736Z</time></trkpt><trkpt lat="39.4210789" lon="8.4181759"><ele>36.0</ele><time>2026-05-01T10:10:59.738Z</time></trkpt><trkpt lat="39.4209754" lon="8.4181006"><ele>36.0</ele><time>2026-05-01T10:11:00.736Z</time></trkpt><trkpt lat="39.4208813" lon="8.4180241"><ele>34.5</ele><time>2026-05-01T10:11:01.737Z</time></trkpt><trkpt lat="39.420796" lon="8.4179207"><ele>33.0</ele><time>2026-05-01T10:11:02.738Z</time></trkpt><trkpt lat="39.4207201" lon="8.4177996"><ele>31.5</ele><time>2026-05-01T10:11:03.737Z</time></trkpt><trkpt lat="39.4206641" lon="8.4176723"><ele>30.0</ele><time>2026-05-01T10:11:04.737Z</time></trkpt><trkpt lat="39.4206045" lon="8.4175241"><ele>30.0</ele><time>2026-05-01T10:11:05.737Z</time></trkpt><trkpt lat="39.4205419" lon="8.4173739"><ele>30.0</ele><time>2026-05-01T10:11:06.738Z</time></trkpt><trkpt lat="39.4204768" lon="8.4172157"><ele>30.0</ele><time>2026-05-01T10:11:07.736Z</time></trkpt><trkpt lat="39.4204118" lon="8.4170542"><ele>30.0</ele><time>2026-05-01T10:11:08.736Z</time></trkpt><trkpt lat="39.4203465" lon="8.4168881"><ele>31.25</ele><time>2026-05-01T10:11:09.736Z</time></trkpt><trkpt lat="39.4202838" lon="8.4167266"><ele>32.5</ele><time>2026-05-01T10:11:10.736Z</time></trkpt><trkpt lat="39.4202295" lon="8.4165884"><ele>33.75</ele><time>2026-05-01T10:11:11.737Z</time></trkpt><trkpt lat="39.4201745" lon="8.4164603"><ele>35.0</ele><time>2026-05-01T10:11:12.737Z</time></trkpt><trkpt lat="39.4200993" lon="8.4163558"><ele>33.75</ele><time>2026-05-01T10:11:13.737Z</time></trkpt><trkpt lat="39.4200065" lon="8.4162788"><ele>32.5</ele><time>2026-05-01T10:11:14.737Z</time></trkpt><trkpt lat="39.419892" lon="8.4162341"><ele>31.25</ele><time>2026-05-01T10:11:15.737Z</time></trkpt><trkpt lat="39.4197685" lon="8.4162125"><ele>30.0</ele><time>2026-05-01T10:11:16.736Z</time></trkpt><trkpt lat="39.4196439" lon="8.4162123"><ele>30.0</ele><time>2026-05-01T10:11:17.736Z</time></trkpt><trkpt lat="39.4195203" lon="8.4161872"><ele>30.0</ele><time>2026-05-01T10:11:18.736Z</time></trkpt><trkpt lat="39.4194116" lon="8.4161494"><ele>30.0</ele><time>2026-05-01T10:11:19.738Z</time></trkpt><trkpt lat="39.419337" lon="8.4161057"><ele>30.0</ele><time>2026-05-01T10:11:20.736Z</time></trkpt><trkpt lat="39.4192663" lon="8.4160328"><ele>30.0</ele><time>2026-05-01T10:11:21.736Z</time></trkpt><trkpt lat="39.4192088" lon="8.4159296"><ele>30.0</ele><time>2026-05-01T10:11:22.737Z</time></trkpt><trkpt lat="39.4191696" lon="8.4158089"><ele>30.0</ele><time>2026-05-01T10:11:23.737Z</time></trkpt><trkpt lat="39.4191394" lon="8.4156863"><ele>30.0</ele><time>2026-05-01T10:11:24.737Z</time></trkpt><trkpt lat="39.4191269" lon="8.415553"><ele>30.0</ele><time>2026-05-01T10:11:25.738Z</time></trkpt><trkpt lat="39.4191254" lon="8.415418"><ele>30.0</ele><time>2026-05-01T10:11:26.736Z</time></trkpt><trkpt lat="39.4191171" lon="8.4152796"><ele>28.4</ele><time>2026-05-01T10:11:27.736Z</time></trkpt><trkpt lat="39.4191124" lon="8.4151414"><ele>26.8</ele><time>2026-05-01T10:11:28.736Z</time></trkpt><trkpt lat="39.4191321" lon="8.4149711"><ele>25.200000000000003</ele><time>2026-05-01T10:11:29.737Z</time></trkpt><trkpt lat="39.4191249" lon="8.4148352"><ele>23.6</ele><time>2026-05-01T10:11:30.736Z</time></trkpt><trkpt lat="39.4190979" lon="8.4147192"><ele>22.0</ele><time>2026-05-01T10:11:31.738Z</time></trkpt><trkpt lat="39.4190692" lon="8.4146043"><ele>20.8</ele><time>2026-05-01T10:11:32.738Z</time></trkpt><trkpt lat="39.4189566" lon="8.4145554"><ele>19.6</ele><time>2026-05-01T10:11:33.736Z</time></trkpt><trkpt lat="39.4188537" lon="8.4145306"><ele>18.400000000000002</ele><time>2026-05-01T10:11:34.736Z</time></trkpt><trkpt lat="39.4187503" lon="8.4144907"><ele>17.200000000000003</ele><time>2026-05-01T10:11:35.737Z</time></trkpt><trkpt lat="39.4186642" lon="8.4144046"><ele>16.0</ele><time>2026-05-01T10:11:36.737Z</time></trkpt><trkpt lat="39.418584" lon="8.4142844"><ele>16.75</ele><time>2026-05-01T10:11:37.736Z</time></trkpt><trkpt lat="39.4185031" lon="8.414153"><ele>17.5</ele><time>2026-05-01T10:11:38.737Z</time></trkpt><trkpt lat="39.4184298" lon="8.4140347"><ele>18.25</ele><time>2026-05-01T10:11:39.736Z</time></trkpt><trkpt lat="39.4183603" lon="8.4139222"><ele>19.0</ele><time>2026-05-01T10:11:40.737Z</time></trkpt><trkpt lat="39.4182995" lon="8.4138079"><ele>19.0</ele><time>2026-05-01T10:11:41.737Z</time></trkpt><trkpt lat="39.4182448" lon="8.4136956"><ele>19.0</ele><time>2026-05-01T10:11:42.738Z</time></trkpt><trkpt lat="39.4181808" lon="8.4135906"><ele>19.0</ele><time>2026-05-01T10:11:43.738Z</time></trkpt><trkpt lat="39.4180978" lon="8.4135035"><ele>19.0</ele><time>2026-05-01T10:11:44.737Z</time></trkpt><trkpt lat="39.4179944" lon="8.4134377"><ele>19.0</ele><time>2026-05-01T10:11:45.736Z</time></trkpt><trkpt lat="39.4178803" lon="8.4133897"><ele>22.5</ele><time>2026-05-01T10:11:46.737Z</time></trkpt><trkpt lat="39.4177573" lon="8.4133391"><ele>26.0</ele><time>2026-05-01T10:11:47.736Z</time></trkpt><trkpt lat="39.4176512" lon="8.4132849"><ele>29.5</ele><time>2026-05-01T10:11:48.736Z</time></trkpt><trkpt lat="39.4175466" lon="8.413204"><ele>33.0</ele><time>2026-05-01T10:11:49.737Z</time></trkpt><trkpt lat="39.4174508" lon="8.4131083"><ele>33.0</ele><time>2026-05-01T10:11:50.737Z</time></trkpt><trkpt lat="39.4173626" lon="8.4129995"><ele>33.0</ele><time>2026-05-01T10:11:51.736Z</time></trkpt><trkpt lat="39.4172891" lon="8.4128942"><ele>33.0</ele><time>2026-05-01T10:11:52.737Z</time></trkpt><trkpt lat="39.4172317" lon="8.4127779"><ele>33.0</ele><time>2026-05-01T10:11:53.737Z</time></trkpt><trkpt lat="39.417196" lon="8.4126701"><ele>33.0</ele><time>2026-05-01T10:11:54.736Z</time></trkpt><trkpt lat="39.417175" lon="8.4125507"><ele>32.4</ele><time>2026-05-01T10:11:55.736Z</time></trkpt><trkpt lat="39.4171734" lon="8.4124242"><ele>31.799999999999997</ele><time>2026-05-01T10:11:56.737Z</time></trkpt><trkpt lat="39.4171766" lon="8.4122866"><ele>31.2</ele><time>2026-05-01T10:11:57.737Z</time></trkpt><trkpt lat="39.4171848" lon="8.4121649"><ele>30.6</ele><time>2026-05-01T10:11:58.736Z</time></trkpt><trkpt lat="39.417189" lon="8.4120543"><ele>30.0</ele><time>2026-05-01T10:11:59.736Z</time></trkpt><trkpt lat="39.4172003" lon="8.4119469"><ele>29.833333333333332</ele><time>2026-05-01T10:12:00.738Z</time></trkpt><trkpt lat="39.4172145" lon="8.4118399"><ele>29.666666666666664</ele><time>2026-05-01T10:12:01.736Z</time></trkpt><trkpt lat="39.4172202" lon="8.4117079"><ele>29.5</ele><time>2026-05-01T10:12:03.738Z</time></trkpt><trkpt lat="39.4172326" lon="8.4116122"><ele>29.333333333333332</ele><time>2026-05-01T10:12:06.737Z</time></trkpt><trkpt lat="39.4172873" lon="8.4115427"><ele>29.166666666666664</ele><time>2026-05-01T10:12:16.738Z</time></trkpt><trkpt lat="39.4173613" lon="8.4114676"><ele>29.0</ele><time>2026-05-01T10:12:18.738Z</time></trkpt><trkpt lat="39.4174453" lon="8.4114456"><ele>28.999999999999996</ele><time>2026-05-01T10:12:21.736Z</time></trkpt><trkpt lat="39.417529" lon="8.4115119"><ele>29.0</ele><time>2026-05-01T10:12:24.736Z</time></trkpt><trkpt lat="39.417615" lon="8.4115406"><ele>29.0</ele><time>2026-05-01T10:12:26.737Z</time></trkpt><trkpt lat="39.4177104" lon="8.4115854"><ele>29.0</ele><time>2026-05-01T10:12:28.737Z</time></trkpt><trkpt lat="39.4177874" lon="8.4116128"><ele>28.999999999999996</ele><time>2026-05-01T10:12:30.737Z</time></trkpt><trkpt lat="39.4178596" lon="8.4116178"><ele>29.0</ele><time>2026-05-01T10:12:33.737Z</time></trkpt><trkpt lat="39.4179255" lon="8.4116386"><ele>26.999999999999996</ele><time>2026-05-01T10:12:36.736Z</time></trkpt><trkpt lat="39.4179893" lon="8.4116666"><ele>25.0</ele><time>2026-05-01T10:12:38.735Z</time></trkpt><trkpt lat="39.4180532" lon="8.4117151"><ele>23.0</ele><time>2026-05-01T10:12:40.736Z</time></trkpt><trkpt lat="39.4181283" lon="8.4117677"><ele>21.0</ele><time>2026-05-01T10:12:42.735Z</time></trkpt><trkpt lat="39.4182277" lon="8.411778"><ele>19.0</ele><time>2026-05-01T10:12:44.736Z</time></trkpt><trkpt lat="39.4183373" lon="8.411758"><ele>17.0</ele><time>2026-05-01T10:12:46.737Z</time></trkpt><trkpt lat="39.4184477" lon="8.4116842"><ele>17.0</ele><time>2026-05-01T10:12:48.736Z</time></trkpt><trkpt lat="39.4185089" lon="8.4116596"><ele>17.0</ele><time>2026-05-01T10:12:49.737Z</time></trkpt><trkpt lat="39.4186251" lon="8.4116182"><ele>17.0</ele><time>2026-05-01T10:12:51.736Z</time></trkpt><trkpt lat="39.4187135" lon="8.4116147"><ele>17.0</ele><time>2026-05-01T10:12:53.737Z</time></trkpt><trkpt lat="39.4186768" lon="8.4115454"><ele>17.0</ele><time>2026-05-01T10:15:09.736Z</time></trkpt><trkpt lat="39.4186294" lon="8.4116097"><ele>17.0</ele><time>2026-05-01T10:17:30.735Z</time></trkpt><trkpt lat="39.4185573" lon="8.4116534"><ele>17.0</ele><time>2026-05-01T10:17:32.734Z</time></trkpt><trkpt lat="39.4184788" lon="8.4117109"><ele>17.0</ele><time>2026-05-01T10:17:34.734Z</time></trkpt><trkpt lat="39.4183915" lon="8.4117699"><ele>17.0</ele><time>2026-05-01T10:17:36.735Z</time></trkpt><trkpt lat="39.4182827" lon="8.4117466"><ele>17.0</ele><time>2026-05-01T10:17:38.735Z</time></trkpt><trkpt lat="39.418219" lon="8.4117238"><ele>17.0</ele><time>2026-05-01T10:17:39.734Z</time></trkpt><trkpt lat="39.4181489" lon="8.4117003"><ele>17.0</ele><time>2026-05-01T10:17:40.735Z</time></trkpt><trkpt lat="39.4180626" lon="8.4116797"><ele>19.4</ele><time>2026-05-01T10:17:41.735Z</time></trkpt><trkpt lat="39.4179652" lon="8.4116551"><ele>21.799999999999997</ele><time>2026-05-01T10:17:42.735Z</time></trkpt><trkpt lat="39.4178711" lon="8.4116164"><ele>24.2</ele><time>2026-05-01T10:17:43.735Z</time></trkpt><trkpt lat="39.417775" lon="8.4115653"><ele>26.599999999999998</ele><time>2026-05-01T10:17:44.735Z</time></trkpt><trkpt lat="39.4176702" lon="8.41152"><ele>29.0</ele><time>2026-05-01T10:17:45.735Z</time></trkpt><trkpt lat="39.4175564" lon="8.4114944"><ele>28.999999999999996</ele><time>2026-05-01T10:17:46.734Z</time></trkpt><trkpt lat="39.4174683" lon="8.4115003"><ele>29.0</ele><time>2026-05-01T10:17:47.734Z</time></trkpt><trkpt lat="39.4173992" lon="8.4115126"><ele>29.0</ele><time>2026-05-01T10:17:48.734Z</time></trkpt><trkpt lat="39.4173236" lon="8.4115285"><ele>29.0</ele><time>2026-05-01T10:17:50.736Z</time></trkpt><trkpt lat="39.4172344" lon="8.4115155"><ele>28.999999999999996</ele><time>2026-05-01T10:17:54.735Z</time></trkpt><trkpt lat="39.4171659" lon="8.4114854"><ele>29.0</ele><time>2026-05-01T10:17:55.736Z</time></trkpt><trkpt lat="39.4170707" lon="8.4114576"><ele>29.25</ele><time>2026-05-01T10:17:56.735Z</time></trkpt><trkpt lat="39.4169571" lon="8.4114213"><ele>29.5</ele><time>2026-05-01T10:17:57.734Z</time></trkpt><trkpt lat="39.4168325" lon="8.4113765"><ele>29.75</ele><time>2026-05-01T10:17:58.734Z</time></trkpt><trkpt lat="39.4166987" lon="8.4113291"><ele>30.0</ele><time>2026-05-01T10:17:59.735Z</time></trkpt><trkpt lat="39.4165566" lon="8.4112795"><ele>30.0</ele><time>2026-05-01T10:18:00.735Z</time></trkpt><trkpt lat="39.4164036" lon="8.4112322"><ele>30.0</ele><time>2026-05-01T10:18:01.736Z</time></trkpt><trkpt lat="39.4162471" lon="8.4111812"><ele>30.0</ele><time>2026-05-01T10:18:02.735Z</time></trkpt><trkpt lat="39.4160853" lon="8.4111332"><ele>32.333333333333336</ele><time>2026-05-01T10:18:03.736Z</time></trkpt><trkpt lat="39.4159185" lon="8.411084"><ele>34.66666666666667</ele><time>2026-05-01T10:18:04.735Z</time></trkpt><trkpt lat="39.41574" lon="8.4110349"><ele>37.0</ele><time>2026-05-01T10:18:05.734Z</time></trkpt><trkpt lat="39.4155508" lon="8.4109891"><ele>40.0</ele><time>2026-05-01T10:18:06.734Z</time></trkpt><trkpt lat="39.4153522" lon="8.4109457"><ele>43.0</ele><time>2026-05-01T10:18:07.736Z</time></trkpt><trkpt lat="39.4151521" lon="8.4109016"><ele>46.0</ele><time>2026-05-01T10:18:08.735Z</time></trkpt><trkpt lat="39.4149653" lon="8.4108653"><ele>46.0</ele><time>2026-05-01T10:18:09.736Z</time></trkpt><trkpt lat="39.4147997" lon="8.4108468"><ele>46.0</ele><time>2026-05-01T10:18:10.735Z</time></trkpt><trkpt lat="39.4146571" lon="8.4108162"><ele>46.0</ele><time>2026-05-01T10:18:11.734Z</time></trkpt><trkpt lat="39.41453" lon="8.4107441"><ele>47.25</ele><time>2026-05-01T10:18:12.735Z</time></trkpt><trkpt lat="39.4144276" lon="8.410625"><ele>48.5</ele><time>2026-05-01T10:18:13.734Z</time></trkpt><trkpt lat="39.4143535" lon="8.4104669"><ele>49.75</ele><time>2026-05-01T10:18:14.734Z</time></trkpt><trkpt lat="39.4142879" lon="8.4103091"><ele>51.0</ele><time>2026-05-01T10:18:15.734Z</time></trkpt><trkpt lat="39.414217" lon="8.4101613"><ele>51.0</ele><time>2026-05-01T10:18:16.735Z</time></trkpt><trkpt lat="39.4141332" lon="8.4100326"><ele>51.0</ele><time>2026-05-01T10:18:17.735Z</time></trkpt><trkpt lat="39.4140178" lon="8.4099242"><ele>51.0</ele><time>2026-05-01T10:18:18.734Z</time></trkpt><trkpt lat="39.4138785" lon="8.4098529"><ele>51.0</ele><time>2026-05-01T10:18:19.736Z</time></trkpt><trkpt lat="39.4137332" lon="8.4098019"><ele>51.0</ele><time>2026-05-01T10:18:20.734Z</time></trkpt><trkpt lat="39.4135907" lon="8.4097502"><ele>51.0</ele><time>2026-05-01T10:18:21.736Z</time></trkpt><trkpt lat="39.4134512" lon="8.4096887"><ele>51.0</ele><time>2026-05-01T10:18:22.736Z</time></trkpt><trkpt lat="39.4133161" lon="8.4096327"><ele>51.0</ele><time>2026-05-01T10:18:23.735Z</time></trkpt><trkpt lat="39.4131922" lon="8.4095814"><ele>51.0</ele><time>2026-05-01T10:18:24.735Z</time></trkpt><trkpt lat="39.41308" lon="8.4095075"><ele>51.0</ele><time>2026-05-01T10:18:25.734Z</time></trkpt><trkpt lat="39.4129921" lon="8.4093841"><ele>51.0</ele><time>2026-05-01T10:18:26.734Z</time></trkpt><trkpt lat="39.412936" lon="8.4092129"><ele>51.0</ele><time>2026-05-01T10:18:27.735Z</time></trkpt><trkpt lat="39.4129129" lon="8.4090189"><ele>53.75</ele><time>2026-05-01T10:18:28.735Z</time></trkpt><trkpt lat="39.4128928" lon="8.4088246"><ele>56.5</ele><time>2026-05-01T10:18:29.735Z</time></trkpt><trkpt lat="39.4128727" lon="8.4086357"><ele>59.25</ele><time>2026-05-01T10:18:30.736Z</time></trkpt><trkpt lat="39.4128531" lon="8.4084492"><ele>62.0</ele><time>2026-05-01T10:18:31.735Z</time></trkpt><trkpt lat="39.4128299" lon="8.4082688"><ele>62.0</ele><time>2026-05-01T10:18:32.735Z</time></trkpt><trkpt lat="39.4127792" lon="8.4080903"><ele>62.0</ele><time>2026-05-01T10:18:33.735Z</time></trkpt><trkpt lat="39.412698" lon="8.4079218"><ele>62.0</ele><time>2026-05-01T10:18:34.735Z</time></trkpt><trkpt lat="39.412606" lon="8.4077702"><ele>62.0</ele><time>2026-05-01T10:18:35.735Z</time></trkpt><trkpt lat="39.412511" lon="8.4076284"><ele>60.333333333333336</ele><time>2026-05-01T10:18:36.735Z</time></trkpt><trkpt lat="39.4124068" lon="8.4074882"><ele>58.66666666666667</ele><time>2026-05-01T10:18:37.736Z</time></trkpt><trkpt lat="39.4123038" lon="8.4073431"><ele>57.0</ele><time>2026-05-01T10:18:38.735Z</time></trkpt><trkpt lat="39.4122068" lon="8.4071987"><ele>58.25</ele><time>2026-05-01T10:18:39.734Z</time></trkpt><trkpt lat="39.4121089" lon="8.407056"><ele>59.5</ele><time>2026-05-01T10:18:40.735Z</time></trkpt><trkpt lat="39.4119991" lon="8.4069185"><ele>60.75</ele><time>2026-05-01T10:18:41.734Z</time></trkpt><trkpt lat="39.4118784" lon="8.4068068"><ele>62.0</ele><time>2026-05-01T10:18:42.734Z</time></trkpt><trkpt lat="39.4117384" lon="8.4067215"><ele>62.0</ele><time>2026-05-01T10:18:43.735Z</time></trkpt><trkpt lat="39.4115991" lon="8.4066424"><ele>62.0</ele><time>2026-05-01T10:18:44.734Z</time></trkpt><trkpt lat="39.4114644" lon="8.4065715"><ele>62.0</ele><time>2026-05-01T10:18:45.734Z</time></trkpt><trkpt lat="39.4113299" lon="8.406503"><ele>62.0</ele><time>2026-05-01T10:18:46.734Z</time></trkpt><trkpt lat="39.4111934" lon="8.4064366"><ele>62.66666666666667</ele><time>2026-05-01T10:18:47.735Z</time></trkpt><trkpt lat="39.4110537" lon="8.4063649"><ele>63.33333333333333</ele><time>2026-05-01T10:18:48.735Z</time></trkpt><trkpt lat="39.4109128" lon="8.4062887"><ele>64.0</ele><time>2026-05-01T10:18:49.735Z</time></trkpt><trkpt lat="39.4107739" lon="8.4062148"><ele>64.0</ele><time>2026-05-01T10:18:50.735Z</time></trkpt><trkpt lat="39.4106304" lon="8.4061548"><ele>64.0</ele><time>2026-05-01T10:18:51.734Z</time></trkpt><trkpt lat="39.4104761" lon="8.4061278"><ele>64.0</ele><time>2026-05-01T10:18:52.736Z</time></trkpt><trkpt lat="39.4103183" lon="8.4061201"><ele>65.33333333333333</ele><time>2026-05-01T10:18:53.735Z</time></trkpt><trkpt lat="39.4101593" lon="8.4061214"><ele>66.66666666666667</ele><time>2026-05-01T10:18:54.736Z</time></trkpt><trkpt lat="39.4099985" lon="8.4061232"><ele>68.0</ele><time>2026-05-01T10:18:55.735Z</time></trkpt><trkpt lat="39.4098358" lon="8.4061224"><ele>68.0</ele><time>2026-05-01T10:18:56.735Z</time></trkpt><trkpt lat="39.4096731" lon="8.4061206"><ele>68.0</ele><time>2026-05-01T10:18:57.735Z</time></trkpt><trkpt lat="39.4095098" lon="8.4061194"><ele>68.0</ele><time>2026-05-01T10:18:58.736Z</time></trkpt><trkpt lat="39.4093456" lon="8.4061191"><ele>67.66666666666667</ele><time>2026-05-01T10:18:59.736Z</time></trkpt><trkpt lat="39.4091828" lon="8.4061178"><ele>67.33333333333333</ele><time>2026-05-01T10:19:00.735Z</time></trkpt><trkpt lat="39.4090228" lon="8.4061111"><ele>67.0</ele><time>2026-05-01T10:19:01.736Z</time></trkpt><trkpt lat="39.4088609" lon="8.4060839"><ele>69.66666666666666</ele><time>2026-05-01T10:19:02.735Z</time></trkpt><trkpt lat="39.408699" lon="8.4060261"><ele>72.33333333333333</ele><time>2026-05-01T10:19:03.736Z</time></trkpt><trkpt lat="39.4085415" lon="8.4059401"><ele>75.0</ele><time>2026-05-01T10:19:04.735Z</time></trkpt><trkpt lat="39.4083834" lon="8.4058453"><ele>75.0</ele><time>2026-05-01T10:19:05.735Z</time></trkpt><trkpt lat="39.4082252" lon="8.4057506"><ele>75.0</ele><time>2026-05-01T10:19:06.734Z</time></trkpt><trkpt lat="39.4080694" lon="8.405658"><ele>75.0</ele><time>2026-05-01T10:19:07.735Z</time></trkpt><trkpt lat="39.407915" lon="8.4055717"><ele>71.33333333333333</ele><time>2026-05-01T10:19:08.735Z</time></trkpt><trkpt lat="39.4077608" lon="8.4054884"><ele>67.66666666666666</ele><time>2026-05-01T10:19:09.735Z</time></trkpt><trkpt lat="39.4076082" lon="8.4054037"><ele>64.0</ele><time>2026-05-01T10:19:10.734Z</time></trkpt><trkpt lat="39.4074579" lon="8.4053174"><ele>64.0</ele><time>2026-05-01T10:19:11.736Z</time></trkpt><trkpt lat="39.4073082" lon="8.4052283"><ele>64.0</ele><time>2026-05-01T10:19:12.736Z</time></trkpt><trkpt lat="39.4071584" lon="8.4051383"><ele>64.0</ele><time>2026-05-01T10:19:13.735Z</time></trkpt><trkpt lat="39.4070091" lon="8.405047"><ele>67.66666666666666</ele><time>2026-05-01T10:19:14.736Z</time></trkpt><trkpt lat="39.4068596" lon="8.4049579"><ele>71.33333333333333</ele><time>2026-05-01T10:19:15.736Z</time></trkpt><trkpt lat="39.406713" lon="8.4048719"><ele>75.0</ele><time>2026-05-01T10:19:16.735Z</time></trkpt><trkpt lat="39.4065701" lon="8.4047902"><ele>75.0</ele><time>2026-05-01T10:19:17.735Z</time></trkpt><trkpt lat="39.4064263" lon="8.4047194"><ele>75.0</ele><time>2026-05-01T10:19:18.734Z</time></trkpt><trkpt lat="39.4062754" lon="8.4046871"><ele>75.0</ele><time>2026-05-01T10:19:19.735Z</time></trkpt><trkpt lat="39.4061179" lon="8.4047068"><ele>77.66666666666667</ele><time>2026-05-01T10:19:20.736Z</time></trkpt><trkpt lat="39.405966" lon="8.4047631"><ele>80.33333333333334</ele><time>2026-05-01T10:19:21.735Z</time></trkpt><trkpt lat="39.4058072" lon="8.4048088"><ele>83.0</ele><time>2026-05-01T10:19:22.736Z</time></trkpt><trkpt lat="39.4056384" lon="8.404826"><ele>80.0</ele><time>2026-05-01T10:19:23.734Z</time></trkpt><trkpt lat="39.4054673" lon="8.404841"><ele>77.0</ele><time>2026-05-01T10:19:24.734Z</time></trkpt><trkpt lat="39.4053043" lon="8.4048581"><ele>74.0</ele><time>2026-05-01T10:19:25.735Z</time></trkpt><trkpt lat="39.4051415" lon="8.4048647"><ele>74.0</ele><time>2026-05-01T10:19:26.735Z</time></trkpt><trkpt lat="39.4049769" lon="8.4048527"><ele>74.0</ele><time>2026-05-01T10:19:27.735Z</time></trkpt><trkpt lat="39.4048133" lon="8.4048184"><ele>74.0</ele><time>2026-05-01T10:19:28.735Z</time></trkpt><trkpt lat="39.4046537" lon="8.4047653"><ele>67.0</ele><time>2026-05-01T10:19:29.736Z</time></trkpt><trkpt lat="39.4044972" lon="8.4047053"><ele>60.0</ele><time>2026-05-01T10:19:30.735Z</time></trkpt><trkpt lat="39.4043422" lon="8.4046459"><ele>53.0</ele><time>2026-05-01T10:19:31.735Z</time></trkpt><trkpt lat="39.4041882" lon="8.4045792"><ele>53.0</ele><time>2026-05-01T10:19:32.736Z</time></trkpt><trkpt lat="39.4040376" lon="8.4045007"><ele>53.0</ele><time>2026-05-01T10:19:33.735Z</time></trkpt><trkpt lat="39.4038945" lon="8.4044076"><ele>53.0</ele><time>2026-05-01T10:19:34.734Z</time></trkpt><trkpt lat="39.4037515" lon="8.404315"><ele>55.5</ele><time>2026-05-01T10:19:35.735Z</time></trkpt><trkpt lat="39.4036094" lon="8.4042298"><ele>58.0</ele><time>2026-05-01T10:19:36.735Z</time></trkpt><trkpt lat="39.4034737" lon="8.4041479"><ele>60.5</ele><time>2026-05-01T10:19:37.736Z</time></trkpt><trkpt lat="39.4033487" lon="8.404061"><ele>63.0</ele><time>2026-05-01T10:19:38.735Z</time></trkpt><trkpt lat="39.4032321" lon="8.4039452"><ele>63.0</ele><time>2026-05-01T10:19:39.734Z</time></trkpt><trkpt lat="39.4031278" lon="8.4037942"><ele>63.0</ele><time>2026-05-01T10:19:40.735Z</time></trkpt><trkpt lat="39.4030409" lon="8.4036233"><ele>63.0</ele><time>2026-05-01T10:19:41.733Z</time></trkpt><trkpt lat="39.4029584" lon="8.4034461"><ele>63.0</ele><time>2026-05-01T10:19:42.734Z</time></trkpt><trkpt lat="39.4028736" lon="8.4032709"><ele>63.0</ele><time>2026-05-01T10:19:43.735Z</time></trkpt><trkpt lat="39.4027879" lon="8.4031113"><ele>63.0</ele><time>2026-05-01T10:19:44.734Z</time></trkpt><trkpt lat="39.4026999" lon="8.4029836"><ele>63.0</ele><time>2026-05-01T10:19:45.735Z</time></trkpt><trkpt lat="39.402586" lon="8.4028788"><ele>55.666666666666664</ele><time>2026-05-01T10:19:46.734Z</time></trkpt><trkpt lat="39.4024363" lon="8.4028124"><ele>48.33333333333333</ele><time>2026-05-01T10:19:47.733Z</time></trkpt><trkpt lat="39.4022872" lon="8.402776"><ele>41.0</ele><time>2026-05-01T10:19:48.734Z</time></trkpt><trkpt lat="39.402142" lon="8.4027417"><ele>41.0</ele><time>2026-05-01T10:19:49.735Z</time></trkpt><trkpt lat="39.4019965" lon="8.4027137"><ele>41.0</ele><time>2026-05-01T10:19:50.734Z</time></trkpt><trkpt lat="39.4018446" lon="8.4026892"><ele>41.0</ele><time>2026-05-01T10:19:51.735Z</time></trkpt><trkpt lat="39.4016965" lon="8.4026602"><ele>41.0</ele><time>2026-05-01T10:19:52.733Z</time></trkpt><trkpt lat="39.4015482" lon="8.4026267"><ele>41.0</ele><time>2026-05-01T10:19:53.733Z</time></trkpt><trkpt lat="39.4014039" lon="8.4026061"><ele>41.0</ele><time>2026-05-01T10:19:54.734Z</time></trkpt><trkpt lat="39.4012644" lon="8.4025897"><ele>41.0</ele><time>2026-05-01T10:19:55.733Z</time></trkpt><trkpt lat="39.4011354" lon="8.4025386"><ele>37.25</ele><time>2026-05-01T10:19:56.733Z</time></trkpt><trkpt lat="39.4010147" lon="8.4024524"><ele>33.5</ele><time>2026-05-01T10:19:57.735Z</time></trkpt><trkpt lat="39.4009067" lon="8.4023465"><ele>29.75</ele><time>2026-05-01T10:19:58.734Z</time></trkpt><trkpt lat="39.4008005" lon="8.4022461"><ele>26.0</ele><time>2026-05-01T10:19:59.734Z</time></trkpt><trkpt lat="39.4006929" lon="8.4021586"><ele>26.0</ele><time>2026-05-01T10:20:00.734Z</time></trkpt><trkpt lat="39.4005892" lon="8.4021079"><ele>26.0</ele><time>2026-05-01T10:20:01.734Z</time></trkpt><trkpt lat="39.4004701" lon="8.4020973"><ele>26.0</ele><time>2026-05-01T10:20:02.733Z</time></trkpt><trkpt lat="39.4003611" lon="8.4021272"><ele>26.0</ele><time>2026-05-01T10:20:03.733Z</time></trkpt><trkpt lat="39.4002544" lon="8.402164"><ele>32.666666666666664</ele><time>2026-05-01T10:20:04.734Z</time></trkpt><trkpt lat="39.4001585" lon="8.4021987"><ele>39.33333333333333</ele><time>2026-05-01T10:20:05.734Z</time></trkpt><trkpt lat="39.4000755" lon="8.4022332"><ele>46.0</ele><time>2026-05-01T10:20:06.734Z</time></trkpt><trkpt lat="39.4000029" lon="8.4022708"><ele>52.666666666666664</ele><time>2026-05-01T10:20:07.735Z</time></trkpt><trkpt lat="39.3999079" lon="8.4023131"><ele>59.333333333333336</ele><time>2026-05-01T10:20:09.733Z</time></trkpt><trkpt lat="39.3998271" lon="8.4023255"><ele>66.0</ele><time>2026-05-01T10:20:40.734Z</time></trkpt><trkpt lat="39.3997672" lon="8.402369"><ele>66.0</ele><time>2026-05-01T10:20:44.735Z</time></trkpt><trkpt lat="39.3996962" lon="8.4024081"><ele>66.0</ele><time>2026-05-01T10:29:41.731Z</time></trkpt><trkpt lat="39.3996591" lon="8.4024803"><ele>66.0</ele><time>2026-05-01T10:31:44.731Z</time></trkpt><trkpt lat="39.3997401" lon="8.4024783"><ele>66.0</ele><time>2026-05-01T10:31:46.731Z</time></trkpt><trkpt lat="39.3998267" lon="8.402438"><ele>66.0</ele><time>2026-05-01T10:31:48.729Z</time></trkpt><trkpt lat="39.3998042" lon="8.4025419"><ele>66.0</ele><time>2026-05-01T10:31:51.73Z</time></trkpt><trkpt lat="39.3997225" lon="8.402581"><ele>66.0</ele><time>2026-05-01T10:31:53.73Z</time></trkpt><trkpt lat="39.3996786" lon="8.402647"><ele>66.0</ele><time>2026-05-01T10:31:55.731Z</time></trkpt><trkpt lat="39.3996107" lon="8.402693"><ele>66.0</ele><time>2026-05-01T10:32:25.73Z</time></trkpt><trkpt lat="39.3995549" lon="8.4027359"><ele>66.0</ele><time>2026-05-01T10:32:26.729Z</time></trkpt><trkpt lat="39.39952" lon="8.4028077"><ele>66.0</ele><time>2026-05-01T10:32:27.73Z</time></trkpt><trkpt lat="39.3995354" lon="8.4028925"><ele>66.0</ele><time>2026-05-01T10:32:30.729Z</time></trkpt><trkpt lat="39.3996451" lon="8.4028706"><ele>66.0</ele><time>2026-05-01T10:32:32.731Z</time></trkpt><trkpt lat="39.399719" lon="8.4028381"><ele>66.0</ele><time>2026-05-01T10:32:33.73Z</time></trkpt><trkpt lat="39.3997838" lon="8.4028099"><ele>66.0</ele><time>2026-05-01T10:32:34.73Z</time></trkpt><trkpt lat="39.3998562" lon="8.4027734"><ele>66.0</ele><time>2026-05-01T10:32:35.729Z</time></trkpt><trkpt lat="39.399926" lon="8.402725"><ele>66.0</ele><time>2026-05-01T10:32:36.729Z</time></trkpt><trkpt lat="39.4000001" lon="8.4026827"><ele>66.0</ele><time>2026-05-01T10:32:37.73Z</time></trkpt><trkpt lat="39.4000761" lon="8.4026511"><ele>66.0</ele><time>2026-05-01T10:32:38.731Z</time></trkpt><trkpt lat="39.4001562" lon="8.4026257"><ele>66.0</ele><time>2026-05-01T10:32:39.73Z</time></trkpt><trkpt lat="39.4002265" lon="8.4025918"><ele>66.0</ele><time>2026-05-01T10:32:40.729Z</time></trkpt><trkpt lat="39.4002957" lon="8.4025584"><ele>66.0</ele><time>2026-05-01T10:32:41.73Z</time></trkpt><trkpt lat="39.4003659" lon="8.4025329"><ele>66.0</ele><time>2026-05-01T10:32:42.729Z</time></trkpt><trkpt lat="39.4004336" lon="8.402512"><ele>66.0</ele><time>2026-05-01T10:32:43.731Z</time></trkpt><trkpt lat="39.4004992" lon="8.4025199"><ele>66.0</ele><time>2026-05-01T10:32:44.73Z</time></trkpt><trkpt lat="39.4005971" lon="8.4025764"><ele>64.8</ele><time>2026-05-01T10:32:46.73Z</time></trkpt><trkpt lat="39.4006996" lon="8.4026502"><ele>63.599999999999994</ele><time>2026-05-01T10:32:48.73Z</time></trkpt><trkpt lat="39.4007514" lon="8.4027798"><ele>62.4</ele><time>2026-05-01T10:32:50.729Z</time></trkpt><trkpt lat="39.400777" lon="8.4029139"><ele>61.2</ele><time>2026-05-01T10:32:52.73Z</time></trkpt><trkpt lat="39.4007437" lon="8.4030514"><ele>60.0</ele><time>2026-05-01T10:32:54.73Z</time></trkpt><trkpt lat="39.400695" lon="8.4031683"><ele>64.0</ele><time>2026-05-01T10:32:56.73Z</time></trkpt><trkpt lat="39.400649" lon="8.4032446"><ele>68.0</ele><time>2026-05-01T10:32:58.729Z</time></trkpt><trkpt lat="39.4005607" lon="8.4032672"><ele>72.0</ele><time>2026-05-01T10:33:00.731Z</time></trkpt><trkpt lat="39.4004951" lon="8.4032689"><ele>76.0</ele><time>2026-05-01T10:33:01.73Z</time></trkpt><trkpt lat="39.4003637" lon="8.4032867"><ele>80.0</ele><time>2026-05-01T10:33:03.729Z</time></trkpt><trkpt lat="39.4002871" lon="8.4032927"><ele>84.0</ele><time>2026-05-01T10:33:04.729Z</time></trkpt><trkpt lat="39.4002022" lon="8.4033111"><ele>84.0</ele><time>2026-05-01T10:33:05.731Z</time></trkpt><trkpt lat="39.4001175" lon="8.4033321"><ele>84.0</ele><time>2026-05-01T10:33:06.73Z</time></trkpt><trkpt lat="39.4000316" lon="8.4033535"><ele>84.0</ele><time>2026-05-01T10:33:07.73Z</time></trkpt><trkpt lat="39.3999523" lon="8.4033795"><ele>84.0</ele><time>2026-05-01T10:33:08.73Z</time></trkpt><trkpt lat="39.3998667" lon="8.4033947"><ele>84.0</ele><time>2026-05-01T10:33:09.731Z</time></trkpt><trkpt lat="39.3997824" lon="8.4034004"><ele>84.0</ele><time>2026-05-01T10:33:10.73Z</time></trkpt><trkpt lat="39.3997064" lon="8.4034195"><ele>82.57142857142857</ele><time>2026-05-01T10:33:11.731Z</time></trkpt><trkpt lat="39.399633" lon="8.4034497"><ele>81.14285714285714</ele><time>2026-05-01T10:33:12.73Z</time></trkpt><trkpt lat="39.3995644" lon="8.4034913"><ele>79.71428571428572</ele><time>2026-05-01T10:33:13.73Z</time></trkpt><trkpt lat="39.3995025" lon="8.4035237"><ele>78.28571428571428</ele><time>2026-05-01T10:33:14.73Z</time></trkpt><trkpt lat="39.3994414" lon="8.4035485"><ele>76.85714285714286</ele><time>2026-05-01T10:33:15.729Z</time></trkpt><trkpt lat="39.3993754" lon="8.4035568"><ele>75.42857142857143</ele><time>2026-05-01T10:33:16.73Z</time></trkpt><trkpt lat="39.3993049" lon="8.4035711"><ele>74.0</ele><time>2026-05-01T10:33:17.729Z</time></trkpt><trkpt lat="39.3992377" lon="8.4035854"><ele>74.0</ele><time>2026-05-01T10:33:18.73Z</time></trkpt><trkpt lat="39.3991118" lon="8.4035923"><ele>74.0</ele><time>2026-05-01T10:33:20.731Z</time></trkpt><trkpt lat="39.3990376" lon="8.403603"><ele>74.0</ele><time>2026-05-01T10:33:21.729Z</time></trkpt><trkpt lat="39.3989513" lon="8.4036046"><ele>74.0</ele><time>2026-05-01T10:33:22.73Z</time></trkpt><trkpt lat="39.3988558" lon="8.4035949"><ele>74.0</ele><time>2026-05-01T10:33:23.73Z</time></trkpt><trkpt lat="39.3987516" lon="8.4035889"><ele>73.2</ele><time>2026-05-01T10:33:24.731Z</time></trkpt><trkpt lat="39.3986468" lon="8.4036069"><ele>72.4</ele><time>2026-05-01T10:33:25.73Z</time></trkpt><trkpt lat="39.3985513" lon="8.4036367"><ele>71.6</ele><time>2026-05-01T10:33:26.73Z</time></trkpt><trkpt lat="39.3984605" lon="8.4036613"><ele>70.8</ele><time>2026-05-01T10:33:27.729Z</time></trkpt><trkpt lat="39.3983693" lon="8.4036829"><ele>70.0</ele><time>2026-05-01T10:33:28.73Z</time></trkpt><trkpt lat="39.3982771" lon="8.4037061"><ele>70.0</ele><time>2026-05-01T10:33:29.73Z</time></trkpt><trkpt lat="39.3981834" lon="8.403723"><ele>70.0</ele><time>2026-05-01T10:33:30.729Z</time></trkpt><trkpt lat="39.3980917" lon="8.4037359"><ele>70.0</ele><time>2026-05-01T10:33:31.73Z</time></trkpt><trkpt lat="39.3979985" lon="8.4037486"><ele>70.0</ele><time>2026-05-01T10:33:32.731Z</time></trkpt><trkpt lat="39.3979052" lon="8.4037609"><ele>70.0</ele><time>2026-05-01T10:33:33.73Z</time></trkpt><trkpt lat="39.3978112" lon="8.4037718"><ele>69.83333333333333</ele><time>2026-05-01T10:33:34.731Z</time></trkpt><trkpt lat="39.3977184" lon="8.4037764"><ele>69.66666666666666</ele><time>2026-05-01T10:33:35.731Z</time></trkpt><trkpt lat="39.3976282" lon="8.4037718"><ele>69.5</ele><time>2026-05-01T10:33:36.731Z</time></trkpt><trkpt lat="39.3975429" lon="8.4037714"><ele>69.33333333333333</ele><time>2026-05-01T10:33:37.73Z</time></trkpt><trkpt lat="39.3974666" lon="8.4037807"><ele>69.16666666666667</ele><time>2026-05-01T10:33:38.729Z</time></trkpt><trkpt lat="39.3973822" lon="8.403794"><ele>69.0</ele><time>2026-05-01T10:33:39.728Z</time></trkpt><trkpt lat="39.397298" lon="8.4038031"><ele>69.0</ele><time>2026-05-01T10:33:40.729Z</time></trkpt><trkpt lat="39.3972138" lon="8.403808"><ele>69.0</ele><time>2026-05-01T10:33:41.729Z</time></trkpt><trkpt lat="39.3971289" lon="8.4037997"><ele>69.0</ele><time>2026-05-01T10:33:42.729Z</time></trkpt><trkpt lat="39.3970378" lon="8.4037889"><ele>69.0</ele><time>2026-05-01T10:33:43.729Z</time></trkpt><trkpt lat="39.3969437" lon="8.4037779"><ele>69.0</ele><time>2026-05-01T10:33:44.728Z</time></trkpt><trkpt lat="39.3968484" lon="8.4037659"><ele>69.8</ele><time>2026-05-01T10:33:45.729Z</time></trkpt><trkpt lat="39.3967534" lon="8.4037587"><ele>70.60000000000001</ele><time>2026-05-01T10:33:46.729Z</time></trkpt><trkpt lat="39.396659" lon="8.403744"><ele>71.4</ele><time>2026-05-01T10:33:47.728Z</time></trkpt><trkpt lat="39.3965678" lon="8.4037294"><ele>72.2</ele><time>2026-05-01T10:33:48.728Z</time></trkpt><trkpt lat="39.3964773" lon="8.4037153"><ele>73.0</ele><time>2026-05-01T10:33:49.729Z</time></trkpt><trkpt lat="39.3963921" lon="8.4036997"><ele>72.33333333333333</ele><time>2026-05-01T10:33:50.728Z</time></trkpt><trkpt lat="39.3963077" lon="8.4036963"><ele>71.66666666666666</ele><time>2026-05-01T10:33:51.728Z</time></trkpt><trkpt lat="39.3962193" lon="8.4037098"><ele>71.0</ele><time>2026-05-01T10:33:52.729Z</time></trkpt><trkpt lat="39.3961379" lon="8.4037444"><ele>70.33333333333333</ele><time>2026-05-01T10:33:53.729Z</time></trkpt><trkpt lat="39.3960513" lon="8.4037799"><ele>69.66666666666667</ele><time>2026-05-01T10:33:54.729Z</time></trkpt><trkpt lat="39.3959694" lon="8.4038255"><ele>69.0</ele><time>2026-05-01T10:33:55.728Z</time></trkpt><trkpt lat="39.3958867" lon="8.4038884"><ele>70.0</ele><time>2026-05-01T10:33:56.729Z</time></trkpt><trkpt lat="39.395801" lon="8.4039649"><ele>71.0</ele><time>2026-05-01T10:33:57.729Z</time></trkpt><trkpt lat="39.3957182" lon="8.4040528"><ele>72.0</ele><time>2026-05-01T10:33:58.73Z</time></trkpt><trkpt lat="39.3956303" lon="8.4041469"><ele>73.0</ele><time>2026-05-01T10:33:59.73Z</time></trkpt><trkpt lat="39.3955383" lon="8.4042544"><ele>74.0</ele><time>2026-05-01T10:34:00.73Z</time></trkpt><trkpt lat="39.3954448" lon="8.4043629"><ele>74.0</ele><time>2026-05-01T10:34:01.729Z</time></trkpt><trkpt lat="39.3953536" lon="8.4044696"><ele>74.0</ele><time>2026-05-01T10:34:02.729Z</time></trkpt><trkpt lat="39.3952612" lon="8.40457"><ele>74.0</ele><time>2026-05-01T10:34:03.73Z</time></trkpt><trkpt lat="39.3951607" lon="8.4046661"><ele>74.0</ele><time>2026-05-01T10:34:04.729Z</time></trkpt><trkpt lat="39.3950461" lon="8.4047508"><ele>78.25</ele><time>2026-05-01T10:34:05.729Z</time></trkpt><trkpt lat="39.3949245" lon="8.4048264"><ele>82.5</ele><time>2026-05-01T10:34:06.729Z</time></trkpt><trkpt lat="39.3948018" lon="8.404893"><ele>86.75</ele><time>2026-05-01T10:34:07.729Z</time></trkpt><trkpt lat="39.3946776" lon="8.404949"><ele>91.0</ele><time>2026-05-01T10:34:08.729Z</time></trkpt><trkpt lat="39.3945518" lon="8.4049956"><ele>91.0</ele><time>2026-05-01T10:34:09.729Z</time></trkpt><trkpt lat="39.3944304" lon="8.4050325"><ele>91.0</ele><time>2026-05-01T10:34:10.729Z</time></trkpt><trkpt lat="39.3943089" lon="8.4050456"><ele>91.0</ele><time>2026-05-01T10:34:11.729Z</time></trkpt><trkpt lat="39.3941876" lon="8.4050461"><ele>91.0</ele><time>2026-05-01T10:34:12.73Z</time></trkpt><trkpt lat="39.3940648" lon="8.4050478"><ele>91.0</ele><time>2026-05-01T10:34:13.73Z</time></trkpt><trkpt lat="39.3939473" lon="8.4050652"><ele>91.0</ele><time>2026-05-01T10:34:14.729Z</time></trkpt><trkpt lat="39.3938415" lon="8.4051085"><ele>91.0</ele><time>2026-05-01T10:34:15.728Z</time></trkpt><trkpt lat="39.3937646" lon="8.4051586"><ele>91.0</ele><time>2026-05-01T10:34:16.729Z</time></trkpt><trkpt lat="39.3936943" lon="8.405239"><ele>91.0</ele><time>2026-05-01T10:34:18.729Z</time></trkpt><trkpt lat="39.393793" lon="8.4053267"><ele>91.0</ele><time>2026-05-01T10:34:21.73Z</time></trkpt><trkpt lat="39.393873" lon="8.4053252"><ele>91.0</ele><time>2026-05-01T10:34:22.729Z</time></trkpt><trkpt lat="39.3939617" lon="8.4053397"><ele>91.0</ele><time>2026-05-01T10:34:23.729Z</time></trkpt><trkpt lat="39.3940635" lon="8.4053884"><ele>91.0</ele><time>2026-05-01T10:34:24.728Z</time></trkpt><trkpt lat="39.3941681" lon="8.4054527"><ele>91.0</ele><time>2026-05-01T10:34:25.728Z</time></trkpt><trkpt lat="39.3942761" lon="8.4055371"><ele>97.25</ele><time>2026-05-01T10:34:26.729Z</time></trkpt><trkpt lat="39.394394" lon="8.4056067"><ele>103.5</ele><time>2026-05-01T10:34:27.73Z</time></trkpt><trkpt lat="39.3945198" lon="8.4056665"><ele>109.75</ele><time>2026-05-01T10:34:28.729Z</time></trkpt><trkpt lat="39.3946423" lon="8.4057132"><ele>116.0</ele><time>2026-05-01T10:34:29.728Z</time></trkpt><trkpt lat="39.3947721" lon="8.4057513"><ele>116.0</ele><time>2026-05-01T10:34:30.73Z</time></trkpt><trkpt lat="39.3949034" lon="8.4057886"><ele>116.0</ele><time>2026-05-01T10:34:31.729Z</time></trkpt><trkpt lat="39.3950396" lon="8.4058289"><ele>116.0</ele><time>2026-05-01T10:34:32.729Z</time></trkpt><trkpt lat="39.3951777" lon="8.4058602"><ele>116.0</ele><time>2026-05-01T10:34:33.728Z</time></trkpt><trkpt lat="39.3953181" lon="8.4058887"><ele>116.0</ele><time>2026-05-01T10:34:34.728Z</time></trkpt><trkpt lat="39.3954571" lon="8.4059159"><ele>116.0</ele><time>2026-05-01T10:34:35.729Z</time></trkpt><trkpt lat="39.3955931" lon="8.4059486"><ele>116.0</ele><time>2026-05-01T10:34:36.728Z</time></trkpt><trkpt lat="39.3957235" lon="8.4059832"><ele>116.0</ele><time>2026-05-01T10:34:37.729Z</time></trkpt><trkpt lat="39.3958561" lon="8.4060113"><ele>116.75</ele><time>2026-05-01T10:34:38.729Z</time></trkpt><trkpt lat="39.3959868" lon="8.4060417"><ele>117.5</ele><time>2026-05-01T10:34:39.729Z</time></trkpt><trkpt lat="39.3961081" lon="8.4060753"><ele>118.25</ele><time>2026-05-01T10:34:40.729Z</time></trkpt><trkpt lat="39.3962202" lon="8.4061108"><ele>119.0</ele><time>2026-05-01T10:34:41.728Z</time></trkpt><trkpt lat="39.3963208" lon="8.4061649"><ele>120.4</ele><time>2026-05-01T10:34:42.728Z</time></trkpt><trkpt lat="39.3964105" lon="8.4062432"><ele>121.80000000000001</ele><time>2026-05-01T10:34:43.73Z</time></trkpt><trkpt lat="39.3964775" lon="8.4063441"><ele>123.19999999999999</ele><time>2026-05-01T10:34:44.729Z</time></trkpt><trkpt lat="39.3965246" lon="8.4064458"><ele>124.6</ele><time>2026-05-01T10:34:45.73Z</time></trkpt><trkpt lat="39.3965889" lon="8.4065277"><ele>126.0</ele><time>2026-05-01T10:34:46.73Z</time></trkpt><trkpt lat="39.3966658" lon="8.4065596"><ele>126.0</ele><time>2026-05-01T10:34:47.729Z</time></trkpt><trkpt lat="39.3967442" lon="8.4065483"><ele>126.0</ele><time>2026-05-01T10:34:48.728Z</time></trkpt><trkpt lat="39.396821" lon="8.4064993"><ele>126.0</ele><time>2026-05-01T10:34:49.729Z</time></trkpt><trkpt lat="39.3968769" lon="8.4064107"><ele>126.0</ele><time>2026-05-01T10:34:50.729Z</time></trkpt><trkpt lat="39.3969131" lon="8.4062996"><ele>126.0</ele><time>2026-05-01T10:34:51.73Z</time></trkpt><trkpt lat="39.3969505" lon="8.4061855"><ele>126.0</ele><time>2026-05-01T10:34:52.729Z</time></trkpt><trkpt lat="39.3970095" lon="8.4060701"><ele>126.0</ele><time>2026-05-01T10:34:53.73Z</time></trkpt><trkpt lat="39.3970876" lon="8.4059536"><ele>126.0</ele><time>2026-05-01T10:34:54.729Z</time></trkpt><trkpt lat="39.3971674" lon="8.4058292"><ele>126.0</ele><time>2026-05-01T10:34:55.729Z</time></trkpt><trkpt lat="39.39725" lon="8.4056956"><ele>126.0</ele><time>2026-05-01T10:34:56.729Z</time></trkpt><trkpt lat="39.3973371" lon="8.405573"><ele>126.25</ele><time>2026-05-01T10:34:57.729Z</time></trkpt><trkpt lat="39.3974275" lon="8.4054741"><ele>126.5</ele><time>2026-05-01T10:34:58.729Z</time></trkpt><trkpt lat="39.3975235" lon="8.4054111"><ele>126.75</ele><time>2026-05-01T10:34:59.728Z</time></trkpt><trkpt lat="39.3976357" lon="8.4053844"><ele>127.0</ele><time>2026-05-01T10:35:00.73Z</time></trkpt><trkpt lat="39.3977512" lon="8.4053734"><ele>127.0</ele><time>2026-05-01T10:35:01.73Z</time></trkpt><trkpt lat="39.3978696" lon="8.4053723"><ele>127.0</ele><time>2026-05-01T10:35:02.729Z</time></trkpt><trkpt lat="39.3979915" lon="8.4053784"><ele>127.0</ele><time>2026-05-01T10:35:03.728Z</time></trkpt><trkpt lat="39.3981167" lon="8.4053874"><ele>127.0</ele><time>2026-05-01T10:35:04.728Z</time></trkpt><trkpt lat="39.398242" lon="8.4053978"><ele>129.25</ele><time>2026-05-01T10:35:05.729Z</time></trkpt><trkpt lat="39.3983706" lon="8.4054226"><ele>131.5</ele><time>2026-05-01T10:35:06.728Z</time></trkpt><trkpt lat="39.3985002" lon="8.4054687"><ele>133.75</ele><time>2026-05-01T10:35:07.728Z</time></trkpt><trkpt lat="39.3986238" lon="8.4055327"><ele>136.0</ele><time>2026-05-01T10:35:08.729Z</time></trkpt><trkpt lat="39.3987505" lon="8.4056202"><ele>144.5</ele><time>2026-05-01T10:35:09.729Z</time></trkpt><trkpt lat="39.3988747" lon="8.4057108"><ele>153.0</ele><time>2026-05-01T10:35:10.728Z</time></trkpt><trkpt lat="39.3990004" lon="8.4057916"><ele>161.5</ele><time>2026-05-01T10:35:11.729Z</time></trkpt><trkpt lat="39.3991245" lon="8.4058646"><ele>170.0</ele><time>2026-05-01T10:35:12.73Z</time></trkpt><trkpt lat="39.3992496" lon="8.4059282"><ele>170.0</ele><time>2026-05-01T10:35:13.729Z</time></trkpt><trkpt lat="39.3993784" lon="8.4059668"><ele>170.0</ele><time>2026-05-01T10:35:14.728Z</time></trkpt><trkpt lat="39.3995105" lon="8.4059842"><ele>170.0</ele><time>2026-05-01T10:35:15.728Z</time></trkpt><trkpt lat="39.3996375" lon="8.4059682"><ele>170.0</ele><time>2026-05-01T10:35:16.728Z</time></trkpt><trkpt lat="39.3997626" lon="8.4059172"><ele>172.5</ele><time>2026-05-01T10:35:17.729Z</time></trkpt><trkpt lat="39.3998779" lon="8.4058362"><ele>175.0</ele><time>2026-05-01T10:35:18.73Z</time></trkpt><trkpt lat="39.3999917" lon="8.4057526"><ele>177.5</ele><time>2026-05-01T10:35:19.729Z</time></trkpt><trkpt lat="39.4001015" lon="8.4056902"><ele>180.0</ele><time>2026-05-01T10:35:20.73Z</time></trkpt><trkpt lat="39.4002092" lon="8.4056624"><ele>180.0</ele><time>2026-05-01T10:35:21.729Z</time></trkpt><trkpt lat="39.4003257" lon="8.4056537"><ele>180.0</ele><time>2026-05-01T10:35:22.729Z</time></trkpt><trkpt lat="39.4004464" lon="8.4056637"><ele>180.0</ele><time>2026-05-01T10:35:23.73Z</time></trkpt><trkpt lat="39.4005611" lon="8.4056885"><ele>180.0</ele><time>2026-05-01T10:35:24.729Z</time></trkpt><trkpt lat="39.4006796" lon="8.4057245"><ele>182.0</ele><time>2026-05-01T10:35:25.729Z</time></trkpt><trkpt lat="39.4007986" lon="8.4057638"><ele>184.0</ele><time>2026-05-01T10:35:26.729Z</time></trkpt><trkpt lat="39.4009136" lon="8.4058192"><ele>186.0</ele><time>2026-05-01T10:35:27.729Z</time></trkpt><trkpt lat="39.4010231" lon="8.4058909"><ele>188.0</ele><time>2026-05-01T10:35:28.73Z</time></trkpt><trkpt lat="39.4011271" lon="8.4059595"><ele>188.0</ele><time>2026-05-01T10:35:29.729Z</time></trkpt><trkpt lat="39.4012327" lon="8.4060318"><ele>188.0</ele><time>2026-05-01T10:35:30.729Z</time></trkpt><trkpt lat="39.4013352" lon="8.4061138"><ele>188.0</ele><time>2026-05-01T10:35:31.73Z</time></trkpt><trkpt lat="39.4014354" lon="8.406207"><ele>188.0</ele><time>2026-05-01T10:35:32.73Z</time></trkpt><trkpt lat="39.4015334" lon="8.4063073"><ele>192.25</ele><time>2026-05-01T10:35:33.728Z</time></trkpt><trkpt lat="39.4016308" lon="8.4064201"><ele>196.5</ele><time>2026-05-01T10:35:34.729Z</time></trkpt><trkpt lat="39.4017189" lon="8.4065373"><ele>200.75</ele><time>2026-05-01T10:35:35.73Z</time></trkpt><trkpt lat="39.4018052" lon="8.4066595"><ele>205.0</ele><time>2026-05-01T10:35:36.73Z</time></trkpt><trkpt lat="39.4018817" lon="8.4067893"><ele>205.0</ele><time>2026-05-01T10:35:37.728Z</time></trkpt><trkpt lat="39.4019437" lon="8.4069325"><ele>205.0</ele><time>2026-05-01T10:35:38.729Z</time></trkpt><trkpt lat="39.4020088" lon="8.407074"><ele>205.0</ele><time>2026-05-01T10:35:39.729Z</time></trkpt><trkpt lat="39.4020683" lon="8.4071846"><ele>205.0</ele><time>2026-05-01T10:35:40.729Z</time></trkpt><trkpt lat="39.4021388" lon="8.4072441"><ele>205.0</ele><time>2026-05-01T10:35:41.73Z</time></trkpt><trkpt lat="39.4022227" lon="8.4072489"><ele>204.0</ele><time>2026-05-01T10:35:42.728Z</time></trkpt><trkpt lat="39.4022985" lon="8.4071908"><ele>203.0</ele><time>2026-05-01T10:35:43.729Z</time></trkpt><trkpt lat="39.4023814" lon="8.4071045"><ele>202.0</ele><time>2026-05-01T10:35:44.729Z</time></trkpt><trkpt lat="39.4024688" lon="8.4070135"><ele>201.0</ele><time>2026-05-01T10:35:45.728Z</time></trkpt><trkpt lat="39.4025557" lon="8.4069126"><ele>200.0</ele><time>2026-05-01T10:35:46.729Z</time></trkpt><trkpt lat="39.4026373" lon="8.4068095"><ele>200.0</ele><time>2026-05-01T10:35:47.729Z</time></trkpt><trkpt lat="39.4027109" lon="8.40672"><ele>200.0</ele><time>2026-05-01T10:35:48.729Z</time></trkpt><trkpt lat="39.4027794" lon="8.406677"><ele>200.0</ele><time>2026-05-01T10:35:49.729Z</time></trkpt><trkpt lat="39.4028686" lon="8.4066656"><ele>200.0</ele><time>2026-05-01T10:35:50.729Z</time></trkpt><trkpt lat="39.4029622" lon="8.4066908"><ele>200.0</ele><time>2026-05-01T10:35:51.728Z</time></trkpt><trkpt lat="39.4030587" lon="8.4067206"><ele>201.6</ele><time>2026-05-01T10:35:52.73Z</time></trkpt><trkpt lat="39.4031607" lon="8.4067555"><ele>203.2</ele><time>2026-05-01T10:35:53.73Z</time></trkpt><trkpt lat="39.403258" lon="8.4067905"><ele>204.8</ele><time>2026-05-01T10:35:54.728Z</time></trkpt><trkpt lat="39.4033643" lon="8.4068307"><ele>206.4</ele><time>2026-05-01T10:35:55.728Z</time></trkpt><trkpt lat="39.4034716" lon="8.406874"><ele>208.0</ele><time>2026-05-01T10:35:56.729Z</time></trkpt><trkpt lat="39.40358" lon="8.4069279"><ele>208.0</ele><time>2026-05-01T10:35:57.73Z</time></trkpt><trkpt lat="39.403688" lon="8.4069922"><ele>208.0</ele><time>2026-05-01T10:35:58.729Z</time></trkpt><trkpt lat="39.4037935" lon="8.4070636"><ele>208.0</ele><time>2026-05-01T10:35:59.729Z</time></trkpt><trkpt lat="39.4038948" lon="8.4071445"><ele>208.0</ele><time>2026-05-01T10:36:00.728Z</time></trkpt><trkpt lat="39.4039881" lon="8.4072409"><ele>214.75</ele><time>2026-05-01T10:36:01.729Z</time></trkpt><trkpt lat="39.4040778" lon="8.4073461"><ele>221.5</ele><time>2026-05-01T10:36:02.728Z</time></trkpt><trkpt lat="39.4041647" lon="8.4074728"><ele>228.25</ele><time>2026-05-01T10:36:03.729Z</time></trkpt><trkpt lat="39.4042422" lon="8.4076085"><ele>235.0</ele><time>2026-05-01T10:36:04.73Z</time></trkpt><trkpt lat="39.4043363" lon="8.4077246"><ele>235.0</ele><time>2026-05-01T10:36:05.729Z</time></trkpt><trkpt lat="39.40444" lon="8.4077952"><ele>235.0</ele><time>2026-05-01T10:36:06.728Z</time></trkpt><trkpt lat="39.4045526" lon="8.4078284"><ele>235.0</ele><time>2026-05-01T10:36:07.728Z</time></trkpt><trkpt lat="39.4046701" lon="8.4078303"><ele>235.0</ele><time>2026-05-01T10:36:08.729Z</time></trkpt><trkpt lat="39.4047779" lon="8.4078376"><ele>230.8</ele><time>2026-05-01T10:36:09.729Z</time></trkpt><trkpt lat="39.4048699" lon="8.4078693"><ele>226.6</ele><time>2026-05-01T10:36:10.729Z</time></trkpt><trkpt lat="39.4049649" lon="8.4079177"><ele>222.39999999999998</ele><time>2026-05-01T10:36:11.728Z</time></trkpt><trkpt lat="39.4050398" lon="8.4079952"><ele>218.2</ele><time>2026-05-01T10:36:12.729Z</time></trkpt><trkpt lat="39.4051131" lon="8.4081062"><ele>214.0</ele><time>2026-05-01T10:36:13.729Z</time></trkpt><trkpt lat="39.4051847" lon="8.4082269"><ele>224.75</ele><time>2026-05-01T10:36:14.73Z</time></trkpt><trkpt lat="39.4052542" lon="8.4083508"><ele>235.5</ele><time>2026-05-01T10:36:15.73Z</time></trkpt><trkpt lat="39.4053173" lon="8.4084769"><ele>246.25</ele><time>2026-05-01T10:36:16.729Z</time></trkpt><trkpt lat="39.4053773" lon="8.4086106"><ele>257.0</ele><time>2026-05-01T10:36:17.73Z</time></trkpt><trkpt lat="39.4054496" lon="8.4087199"><ele>253.6</ele><time>2026-05-01T10:36:18.728Z</time></trkpt><trkpt lat="39.405527" lon="8.408818"><ele>250.2</ele><time>2026-05-01T10:36:19.729Z</time></trkpt><trkpt lat="39.4055953" lon="8.4089183"><ele>246.8</ele><time>2026-05-01T10:36:20.729Z</time></trkpt><trkpt lat="39.4056565" lon="8.4090214"><ele>243.4</ele><time>2026-05-01T10:36:21.729Z</time></trkpt><trkpt lat="39.4057149" lon="8.4091339"><ele>240.0</ele><time>2026-05-01T10:36:22.729Z</time></trkpt><trkpt lat="39.4057569" lon="8.4092596"><ele>240.0</ele><time>2026-05-01T10:36:23.729Z</time></trkpt><trkpt lat="39.4058021" lon="8.4093744"><ele>240.0</ele><time>2026-05-01T10:36:24.73Z</time></trkpt><trkpt lat="39.4058711" lon="8.409459"><ele>240.0</ele><time>2026-05-01T10:36:25.728Z</time></trkpt><trkpt lat="39.4059319" lon="8.4095427"><ele>240.0</ele><time>2026-05-01T10:36:26.728Z</time></trkpt><trkpt lat="39.4059703" lon="8.4096498"><ele>240.0</ele><time>2026-05-01T10:36:27.729Z</time></trkpt><trkpt lat="39.4059972" lon="8.4097644"><ele>245.8</ele><time>2026-05-01T10:36:28.73Z</time></trkpt><trkpt lat="39.4060378" lon="8.4098787"><ele>251.6</ele><time>2026-05-01T10:36:29.731Z</time></trkpt><trkpt lat="39.4061037" lon="8.4099714"><ele>257.4</ele><time>2026-05-01T10:36:30.729Z</time></trkpt><trkpt lat="39.406181" lon="8.4100339"><ele>263.2</ele><time>2026-05-01T10:36:31.729Z</time></trkpt><trkpt lat="39.4062503" lon="8.4101046"><ele>269.0</ele><time>2026-05-01T10:36:32.73Z</time></trkpt><trkpt lat="39.406303" lon="8.4102018"><ele>271.4</ele><time>2026-05-01T10:36:33.728Z</time></trkpt><trkpt lat="39.4063423" lon="8.4103097"><ele>273.79999999999995</ele><time>2026-05-01T10:36:34.73Z</time></trkpt><trkpt lat="39.4063671" lon="8.4104222"><ele>276.20000000000005</ele><time>2026-05-01T10:36:35.73Z</time></trkpt><trkpt lat="39.4063653" lon="8.4105364"><ele>278.6</ele><time>2026-05-01T10:36:36.729Z</time></trkpt><trkpt lat="39.4063431" lon="8.4106543"><ele>281.0</ele><time>2026-05-01T10:36:37.73Z</time></trkpt><trkpt lat="39.4063177" lon="8.4107766"><ele>281.0</ele><time>2026-05-01T10:36:38.728Z</time></trkpt><trkpt lat="39.4062942" lon="8.4109043"><ele>281.0</ele><time>2026-05-01T10:36:39.728Z</time></trkpt><trkpt lat="39.4062782" lon="8.4110359"><ele>281.0</ele><time>2026-05-01T10:36:40.729Z</time></trkpt><trkpt lat="39.4062574" lon="8.4111746"><ele>281.0</ele><time>2026-05-01T10:36:41.729Z</time></trkpt><trkpt lat="39.4062285" lon="8.4113117"><ele>281.0</ele><time>2026-05-01T10:36:42.729Z</time></trkpt><trkpt lat="39.4061906" lon="8.4114481"><ele>278.5</ele><time>2026-05-01T10:36:43.729Z</time></trkpt><trkpt lat="39.4061409" lon="8.4115726"><ele>276.0</ele><time>2026-05-01T10:36:44.729Z</time></trkpt><trkpt lat="39.40607" lon="8.411691"><ele>273.5</ele><time>2026-05-01T10:36:45.728Z</time></trkpt><trkpt lat="39.405983" lon="8.4117997"><ele>271.0</ele><time>2026-05-01T10:36:46.729Z</time></trkpt><trkpt lat="39.4058914" lon="8.4119094"><ele>271.0</ele><time>2026-05-01T10:36:47.729Z</time></trkpt><trkpt lat="39.4057978" lon="8.4120174"><ele>271.0</ele><time>2026-05-01T10:36:48.728Z</time></trkpt><trkpt lat="39.4056983" lon="8.4121172"><ele>271.0</ele><time>2026-05-01T10:36:49.727Z</time></trkpt><trkpt lat="39.4055952" lon="8.4122119"><ele>271.0</ele><time>2026-05-01T10:36:50.728Z</time></trkpt><trkpt lat="39.40549" lon="8.4122935"><ele>275.25</ele><time>2026-05-01T10:36:51.727Z</time></trkpt><trkpt lat="39.4053822" lon="8.4123796"><ele>279.5</ele><time>2026-05-01T10:36:52.728Z</time></trkpt><trkpt lat="39.4052797" lon="8.4124813"><ele>283.75</ele><time>2026-05-01T10:36:53.729Z</time></trkpt><trkpt lat="39.4051854" lon="8.4126039"><ele>288.0</ele><time>2026-05-01T10:36:54.728Z</time></trkpt><trkpt lat="39.4051006" lon="8.4127347"><ele>288.0</ele><time>2026-05-01T10:36:55.728Z</time></trkpt><trkpt lat="39.4050209" lon="8.4128626"><ele>288.0</ele><time>2026-05-01T10:36:56.728Z</time></trkpt><trkpt lat="39.4049417" lon="8.4129888"><ele>288.0</ele><time>2026-05-01T10:36:57.728Z</time></trkpt><trkpt lat="39.4048776" lon="8.4131149"><ele>288.0</ele><time>2026-05-01T10:36:58.729Z</time></trkpt><trkpt lat="39.4048307" lon="8.4132397"><ele>286.8333333333333</ele><time>2026-05-01T10:36:59.728Z</time></trkpt><trkpt lat="39.4048139" lon="8.4133535"><ele>285.6666666666667</ele><time>2026-05-01T10:37:00.727Z</time></trkpt><trkpt lat="39.4048262" lon="8.413447"><ele>284.5</ele><time>2026-05-01T10:37:01.729Z</time></trkpt><trkpt lat="39.404865" lon="8.4135167"><ele>283.33333333333337</ele><time>2026-05-01T10:37:02.728Z</time></trkpt><trkpt lat="39.4049347" lon="8.4135669"><ele>282.1666666666667</ele><time>2026-05-01T10:37:03.728Z</time></trkpt><trkpt lat="39.4050289" lon="8.4136001"><ele>281.0</ele><time>2026-05-01T10:37:04.728Z</time></trkpt><trkpt lat="39.4051284" lon="8.4136325"><ele>281.0</ele><time>2026-05-01T10:37:05.729Z</time></trkpt><trkpt lat="39.4052222" lon="8.4136654"><ele>281.0</ele><time>2026-05-01T10:37:06.728Z</time></trkpt><trkpt lat="39.4053034" lon="8.4137006"><ele>281.0</ele><time>2026-05-01T10:37:07.728Z</time></trkpt><trkpt lat="39.4053646" lon="8.4137581"><ele>281.0</ele><time>2026-05-01T10:37:08.727Z</time></trkpt><trkpt lat="39.4054106" lon="8.4138472"><ele>281.0</ele><time>2026-05-01T10:37:09.728Z</time></trkpt><trkpt lat="39.4054352" lon="8.4139559"><ele>281.0</ele><time>2026-05-01T10:37:10.728Z</time></trkpt><trkpt lat="39.4054415" lon="8.4140829"><ele>285.6</ele><time>2026-05-01T10:37:11.728Z</time></trkpt><trkpt lat="39.4054356" lon="8.414219"><ele>290.20000000000005</ele><time>2026-05-01T10:37:12.728Z</time></trkpt><trkpt lat="39.4054321" lon="8.4143563"><ele>294.79999999999995</ele><time>2026-05-01T10:37:13.727Z</time></trkpt><trkpt lat="39.4054289" lon="8.4144876"><ele>299.4</ele><time>2026-05-01T10:37:14.727Z</time></trkpt><trkpt lat="39.4054475" lon="8.4146046"><ele>304.0</ele><time>2026-05-01T10:37:15.727Z</time></trkpt><trkpt lat="39.4055001" lon="8.4146997"><ele>306.0</ele><time>2026-05-01T10:37:16.728Z</time></trkpt><trkpt lat="39.4055794" lon="8.4147632"><ele>308.0</ele><time>2026-05-01T10:37:17.727Z</time></trkpt><trkpt lat="39.4056623" lon="8.4147855"><ele>310.0</ele><time>2026-05-01T10:37:18.727Z</time></trkpt><trkpt lat="39.4057534" lon="8.4147564"><ele>312.0</ele><time>2026-05-01T10:37:19.727Z</time></trkpt><trkpt lat="39.4058418" lon="8.414715"><ele>314.0</ele><time>2026-05-01T10:37:20.728Z</time></trkpt><trkpt lat="39.4059232" lon="8.4146865"><ele>314.0</ele><time>2026-05-01T10:37:21.728Z</time></trkpt><trkpt lat="39.4060029" lon="8.4146614"><ele>314.0</ele><time>2026-05-01T10:37:22.729Z</time></trkpt><trkpt lat="39.4061171" lon="8.414624"><ele>314.0</ele><time>2026-05-01T10:37:23.727Z</time></trkpt><trkpt lat="39.4062293" lon="8.4145791"><ele>314.0</ele><time>2026-05-01T10:37:24.728Z</time></trkpt><trkpt lat="39.4063514" lon="8.4145284"><ele>314.0</ele><time>2026-05-01T10:37:25.728Z</time></trkpt><trkpt lat="39.4064765" lon="8.4144762"><ele>310.5</ele><time>2026-05-01T10:37:26.728Z</time></trkpt><trkpt lat="39.4066055" lon="8.4144193"><ele>307.0</ele><time>2026-05-01T10:37:27.729Z</time></trkpt><trkpt lat="39.4067451" lon="8.4143568"><ele>303.5</ele><time>2026-05-01T10:37:28.728Z</time></trkpt><trkpt lat="39.4068447" lon="8.4143127"><ele>300.0</ele><time>2026-05-01T10:37:29.727Z</time></trkpt><trkpt lat="39.4069405" lon="8.4143015"><ele>300.0</ele><time>2026-05-01T10:37:30.728Z</time></trkpt><trkpt lat="39.407042" lon="8.4143182"><ele>300.0</ele><time>2026-05-01T10:37:31.727Z</time></trkpt><trkpt lat="39.4071455" lon="8.4143438"><ele>300.0</ele><time>2026-05-01T10:37:32.728Z</time></trkpt><trkpt lat="39.4072562" lon="8.4143617"><ele>300.0</ele><time>2026-05-01T10:37:33.728Z</time></trkpt><trkpt lat="39.4073583" lon="8.4143747"><ele>300.0</ele><time>2026-05-01T10:37:34.729Z</time></trkpt><trkpt lat="39.4074391" lon="8.4144133"><ele>298.6</ele><time>2026-05-01T10:37:35.728Z</time></trkpt><trkpt lat="39.4075047" lon="8.4144828"><ele>297.2</ele><time>2026-05-01T10:37:36.728Z</time></trkpt><trkpt lat="39.4075629" lon="8.4145722"><ele>295.8</ele><time>2026-05-01T10:37:37.729Z</time></trkpt><trkpt lat="39.4076189" lon="8.4146842"><ele>294.4</ele><time>2026-05-01T10:37:38.728Z</time></trkpt><trkpt lat="39.407667" lon="8.4148113"><ele>293.0</ele><time>2026-05-01T10:37:39.727Z</time></trkpt><trkpt lat="39.4077033" lon="8.4149546"><ele>300.0</ele><time>2026-05-01T10:37:40.728Z</time></trkpt><trkpt lat="39.407744" lon="8.4150961"><ele>307.0</ele><time>2026-05-01T10:37:41.728Z</time></trkpt><trkpt lat="39.407795" lon="8.4152069"><ele>314.0</ele><time>2026-05-01T10:37:42.728Z</time></trkpt><trkpt lat="39.4078408" lon="8.4152949"><ele>321.0</ele><time>2026-05-01T10:37:43.728Z</time></trkpt><trkpt lat="39.4078656" lon="8.4154049"><ele>328.0</ele><time>2026-05-01T10:37:44.727Z</time></trkpt><trkpt lat="39.4078655" lon="8.4155322"><ele>331.4</ele><time>2026-05-01T10:37:45.727Z</time></trkpt><trkpt lat="39.4078607" lon="8.4156713"><ele>334.79999999999995</ele><time>2026-05-01T10:37:46.728Z</time></trkpt><trkpt lat="39.4078585" lon="8.415801"><ele>338.2</ele><time>2026-05-01T10:37:47.729Z</time></trkpt><trkpt lat="39.4078464" lon="8.4159031"><ele>341.6</ele><time>2026-05-01T10:37:48.728Z</time></trkpt><trkpt lat="39.4078045" lon="8.4160101"><ele>345.0</ele><time>2026-05-01T10:37:49.727Z</time></trkpt><trkpt lat="39.4077482" lon="8.4161103"><ele>345.0</ele><time>2026-05-01T10:37:50.727Z</time></trkpt><trkpt lat="39.4077185" lon="8.4162298"><ele>345.0</ele><time>2026-05-01T10:37:51.728Z</time></trkpt><trkpt lat="39.4077139" lon="8.4163672"><ele>345.0</ele><time>2026-05-01T10:37:52.727Z</time></trkpt><trkpt lat="39.4077105" lon="8.4165119"><ele>345.0</ele><time>2026-05-01T10:37:53.728Z</time></trkpt><trkpt lat="39.4076936" lon="8.4166564"><ele>345.0</ele><time>2026-05-01T10:37:54.728Z</time></trkpt><trkpt lat="39.4076854" lon="8.4168015"><ele>344.8</ele><time>2026-05-01T10:37:55.727Z</time></trkpt><trkpt lat="39.4076806" lon="8.4169448"><ele>344.6</ele><time>2026-05-01T10:37:56.729Z</time></trkpt><trkpt lat="39.4076644" lon="8.417081"><ele>344.4</ele><time>2026-05-01T10:37:57.727Z</time></trkpt><trkpt lat="39.4076618" lon="8.4171998"><ele>344.2</ele><time>2026-05-01T10:37:58.729Z</time></trkpt><trkpt lat="39.407696" lon="8.4172964"><ele>344.0</ele><time>2026-05-01T10:37:59.727Z</time></trkpt><trkpt lat="39.4077697" lon="8.4173751"><ele>346.2</ele><time>2026-05-01T10:38:00.729Z</time></trkpt><trkpt lat="39.407861" lon="8.4174176"><ele>348.4</ele><time>2026-05-01T10:38:01.727Z</time></trkpt><trkpt lat="39.4079693" lon="8.417447"><ele>350.6</ele><time>2026-05-01T10:38:02.728Z</time></trkpt><trkpt lat="39.4080834" lon="8.4174867"><ele>352.8</ele><time>2026-05-01T10:38:03.727Z</time></trkpt><trkpt lat="39.4081931" lon="8.4175583"><ele>355.0</ele><time>2026-05-01T10:38:04.728Z</time></trkpt><trkpt lat="39.4083014" lon="8.4176346"><ele>349.2</ele><time>2026-05-01T10:38:05.727Z</time></trkpt><trkpt lat="39.4084182" lon="8.4176757"><ele>343.4</ele><time>2026-05-01T10:38:06.728Z</time></trkpt><trkpt lat="39.4085256" lon="8.4176908"><ele>337.6</ele><time>2026-05-01T10:38:07.729Z</time></trkpt><trkpt lat="39.4086245" lon="8.417709"><ele>331.8</ele><time>2026-05-01T10:38:08.728Z</time></trkpt><trkpt lat="39.4087249" lon="8.4177519"><ele>326.0</ele><time>2026-05-01T10:38:09.727Z</time></trkpt><trkpt lat="39.408813" lon="8.4178224"><ele>324.0</ele><time>2026-05-01T10:38:10.728Z</time></trkpt><trkpt lat="39.4088833" lon="8.4178895"><ele>322.0</ele><time>2026-05-01T10:38:11.727Z</time></trkpt><trkpt lat="39.4089346" lon="8.4179532"><ele>320.0</ele><time>2026-05-01T10:38:12.728Z</time></trkpt><trkpt lat="39.4089555" lon="8.4180327"><ele>318.0</ele><time>2026-05-01T10:38:13.727Z</time></trkpt><trkpt lat="39.4089495" lon="8.4181302"><ele>316.0</ele><time>2026-05-01T10:38:14.727Z</time></trkpt><trkpt lat="39.4089116" lon="8.4182345"><ele>314.0</ele><time>2026-05-01T10:38:15.729Z</time></trkpt><trkpt lat="39.4088561" lon="8.4183534"><ele>325.5</ele><time>2026-05-01T10:38:16.729Z</time></trkpt><trkpt lat="39.4087944" lon="8.4184923"><ele>337.0</ele><time>2026-05-01T10:38:17.729Z</time></trkpt><trkpt lat="39.4087142" lon="8.4186389"><ele>348.5</ele><time>2026-05-01T10:38:18.728Z</time></trkpt><trkpt lat="39.4086219" lon="8.4187875"><ele>360.0</ele><time>2026-05-01T10:38:19.729Z</time></trkpt><trkpt lat="39.4085552" lon="8.4189476"><ele>360.0</ele><time>2026-05-01T10:38:20.728Z</time></trkpt><trkpt lat="39.408508" lon="8.4191188"><ele>360.0</ele><time>2026-05-01T10:38:21.728Z</time></trkpt><trkpt lat="39.4084807" lon="8.4192845"><ele>360.0</ele><time>2026-05-01T10:38:22.729Z</time></trkpt><trkpt lat="39.4084503" lon="8.4194572"><ele>360.0</ele><time>2026-05-01T10:38:23.727Z</time></trkpt><trkpt lat="39.4084017" lon="8.4196205"><ele>358.8</ele><time>2026-05-01T10:38:24.729Z</time></trkpt><trkpt lat="39.4083614" lon="8.4197739"><ele>357.6</ele><time>2026-05-01T10:38:25.727Z</time></trkpt><trkpt lat="39.4083432" lon="8.4199091"><ele>356.4</ele><time>2026-05-01T10:38:26.728Z</time></trkpt><trkpt lat="39.4083425" lon="8.4200259"><ele>355.2</ele><time>2026-05-01T10:38:27.728Z</time></trkpt><trkpt lat="39.4083641" lon="8.4201327"><ele>354.0</ele><time>2026-05-01T10:38:28.727Z</time></trkpt><trkpt lat="39.4084052" lon="8.4202323"><ele>354.0</ele><time>2026-05-01T10:38:29.729Z</time></trkpt><trkpt lat="39.4084561" lon="8.4203258"><ele>354.0</ele><time>2026-05-01T10:38:30.729Z</time></trkpt><trkpt lat="39.4084602" lon="8.4204658"><ele>354.0</ele><time>2026-05-01T10:38:32.729Z</time></trkpt><trkpt lat="39.4083487" lon="8.4205566"><ele>354.0</ele><time>2026-05-01T10:38:34.728Z</time></trkpt><trkpt lat="39.4082531" lon="8.4206184"><ele>354.0</ele><time>2026-05-01T10:38:35.727Z</time></trkpt><trkpt lat="39.4081515" lon="8.4207131"><ele>350.25</ele><time>2026-05-01T10:38:36.728Z</time></trkpt><trkpt lat="39.408037" lon="8.4208008"><ele>346.5</ele><time>2026-05-01T10:38:37.727Z</time></trkpt><trkpt lat="39.4079176" lon="8.4208681"><ele>342.75</ele><time>2026-05-01T10:38:38.729Z</time></trkpt><trkpt lat="39.407795" lon="8.4209596"><ele>339.0</ele><time>2026-05-01T10:38:39.728Z</time></trkpt><trkpt lat="39.4076745" lon="8.4210729"><ele>343.6</ele><time>2026-05-01T10:38:40.727Z</time></trkpt><trkpt lat="39.407574" lon="8.4211816"><ele>348.2</ele><time>2026-05-01T10:38:41.729Z</time></trkpt><trkpt lat="39.4074933" lon="8.4212851"><ele>352.8</ele><time>2026-05-01T10:38:42.728Z</time></trkpt><trkpt lat="39.407442" lon="8.4213932"><ele>357.40000000000003</ele><time>2026-05-01T10:38:43.728Z</time></trkpt><trkpt lat="39.4074181" lon="8.4215223"><ele>362.0</ele><time>2026-05-01T10:38:44.727Z</time></trkpt><trkpt lat="39.4074091" lon="8.4216734"><ele>362.0</ele><time>2026-05-01T10:38:45.727Z</time></trkpt><trkpt lat="39.4074216" lon="8.4218477"><ele>362.0</ele><time>2026-05-01T10:38:46.727Z</time></trkpt><trkpt lat="39.4074359" lon="8.4220374"><ele>362.0</ele><time>2026-05-01T10:38:47.728Z</time></trkpt><trkpt lat="39.4074422" lon="8.4222072"><ele>362.0</ele><time>2026-05-01T10:38:48.728Z</time></trkpt><trkpt lat="39.4074431" lon="8.4223342"><ele>361.20000000000005</ele><time>2026-05-01T10:38:49.728Z</time></trkpt><trkpt lat="39.4074304" lon="8.4224551"><ele>360.4</ele><time>2026-05-01T10:38:50.728Z</time></trkpt><trkpt lat="39.4073928" lon="8.4225561"><ele>359.6</ele><time>2026-05-01T10:38:51.729Z</time></trkpt><trkpt lat="39.407328" lon="8.4226742"><ele>358.79999999999995</ele><time>2026-05-01T10:38:52.729Z</time></trkpt><trkpt lat="39.4072506" lon="8.4227932"><ele>358.0</ele><time>2026-05-01T10:38:53.728Z</time></trkpt><trkpt lat="39.4071759" lon="8.4229438"><ele>365.25</ele><time>2026-05-01T10:38:54.728Z</time></trkpt><trkpt lat="39.4071019" lon="8.4231029"><ele>372.5</ele><time>2026-05-01T10:38:55.728Z</time></trkpt><trkpt lat="39.4070366" lon="8.423248"><ele>379.75</ele><time>2026-05-01T10:38:56.728Z</time></trkpt><trkpt lat="39.4069871" lon="8.4233701"><ele>387.0</ele><time>2026-05-01T10:38:57.727Z</time></trkpt><trkpt lat="39.4069416" lon="8.4234565"><ele>387.0</ele><time>2026-05-01T10:38:58.727Z</time></trkpt><trkpt lat="39.4068337" lon="8.4235238"><ele>387.0</ele><time>2026-05-01T10:39:00.727Z</time></trkpt><trkpt lat="39.4067579" lon="8.4235087"><ele>387.0</ele><time>2026-05-01T10:39:01.728Z</time></trkpt><trkpt lat="39.4066718" lon="8.4234697"><ele>387.0</ele><time>2026-05-01T10:39:02.729Z</time></trkpt><trkpt lat="39.4065657" lon="8.423427"><ele>387.0</ele><time>2026-05-01T10:39:03.728Z</time></trkpt><trkpt lat="39.4064407" lon="8.4233977"><ele>390.25</ele><time>2026-05-01T10:39:04.728Z</time></trkpt><trkpt lat="39.4063144" lon="8.4233916"><ele>393.5</ele><time>2026-05-01T10:39:05.728Z</time></trkpt><trkpt lat="39.4061695" lon="8.4234141"><ele>396.75</ele><time>2026-05-01T10:39:06.729Z</time></trkpt><trkpt lat="39.4060155" lon="8.4234648"><ele>400.0</ele><time>2026-05-01T10:39:07.727Z</time></trkpt><trkpt lat="39.4058568" lon="8.4235372"><ele>400.0</ele><time>2026-05-01T10:39:08.729Z</time></trkpt><trkpt lat="39.4057238" lon="8.4236213"><ele>400.0</ele><time>2026-05-01T10:39:09.729Z</time></trkpt><trkpt lat="39.4055899" lon="8.4237225"><ele>400.0</ele><time>2026-05-01T10:39:10.728Z</time></trkpt><trkpt lat="39.4054717" lon="8.4237922"><ele>400.0</ele><time>2026-05-01T10:39:11.728Z</time></trkpt><trkpt lat="39.4053625" lon="8.4238452"><ele>400.2</ele><time>2026-05-01T10:39:12.728Z</time></trkpt><trkpt lat="39.4052858" lon="8.4239058"><ele>400.4</ele><time>2026-05-01T10:39:13.728Z</time></trkpt><trkpt lat="39.4052193" lon="8.4239941"><ele>400.6</ele><time>2026-05-01T10:39:14.728Z</time></trkpt><trkpt lat="39.4051666" lon="8.4241022"><ele>400.8</ele><time>2026-05-01T10:39:15.727Z</time></trkpt><trkpt lat="39.4051416" lon="8.4242276"><ele>401.0</ele><time>2026-05-01T10:39:16.727Z</time></trkpt><trkpt lat="39.4051269" lon="8.4243796"><ele>401.0</ele><time>2026-05-01T10:39:17.728Z</time></trkpt><trkpt lat="39.4051101" lon="8.4245429"><ele>401.0</ele><time>2026-05-01T10:39:18.729Z</time></trkpt><trkpt lat="39.40508" lon="8.4246975"><ele>401.0</ele><time>2026-05-01T10:39:19.728Z</time></trkpt><trkpt lat="39.4050273" lon="8.4248489"><ele>401.0</ele><time>2026-05-01T10:39:20.727Z</time></trkpt><trkpt lat="39.4049569" lon="8.4250045"><ele>401.66666666666663</ele><time>2026-05-01T10:39:21.727Z</time></trkpt><trkpt lat="39.4048647" lon="8.425163"><ele>402.33333333333337</ele><time>2026-05-01T10:39:22.728Z</time></trkpt><trkpt lat="39.4047689" lon="8.4253364"><ele>403.0</ele><time>2026-05-01T10:39:23.729Z</time></trkpt><trkpt lat="39.4046658" lon="8.4255224"><ele>406.0</ele><time>2026-05-01T10:39:24.729Z</time></trkpt><trkpt lat="39.4045654" lon="8.4256976"><ele>409.0</ele><time>2026-05-01T10:39:25.728Z</time></trkpt><trkpt lat="39.4044591" lon="8.4258529"><ele>412.0</ele><time>2026-05-01T10:39:26.728Z</time></trkpt><trkpt lat="39.4043472" lon="8.4259835"><ele>412.0</ele><time>2026-05-01T10:39:27.728Z</time></trkpt><trkpt lat="39.4042486" lon="8.4260971"><ele>412.0</ele><time>2026-05-01T10:39:28.728Z</time></trkpt><trkpt lat="39.4041728" lon="8.4261931"><ele>412.0</ele><time>2026-05-01T10:39:29.728Z</time></trkpt><trkpt lat="39.4041291" lon="8.4262852"><ele>412.0</ele><time>2026-05-01T10:39:30.728Z</time></trkpt><trkpt lat="39.4040949" lon="8.4263829"><ele>412.0</ele><time>2026-05-01T10:39:31.727Z</time></trkpt><trkpt lat="39.4041081" lon="8.4264814"><ele>411.6666666666667</ele><time>2026-05-01T10:39:32.728Z</time></trkpt><trkpt lat="39.4041392" lon="8.4265841"><ele>411.33333333333337</ele><time>2026-05-01T10:39:33.727Z</time></trkpt><trkpt lat="39.404196" lon="8.4266706"><ele>411.0</ele><time>2026-05-01T10:39:34.729Z</time></trkpt><trkpt lat="39.4042678" lon="8.4267411"><ele>410.66666666666663</ele><time>2026-05-01T10:39:35.727Z</time></trkpt><trkpt lat="39.4043263" lon="8.4268486"><ele>410.3333333333333</ele><time>2026-05-01T10:39:37.728Z</time></trkpt><trkpt lat="39.4043311" lon="8.4269386"><ele>410.0</ele><time>2026-05-01T10:39:39.728Z</time></trkpt><trkpt lat="39.4043205" lon="8.4270538"><ele>412.4</ele><time>2026-05-01T10:39:41.728Z</time></trkpt><trkpt lat="39.4043423" lon="8.4271577"><ele>414.8</ele><time>2026-05-01T10:39:48.727Z</time></trkpt><trkpt lat="39.4043781" lon="8.4272991"><ele>417.20000000000005</ele><time>2026-05-01T10:39:50.729Z</time></trkpt><trkpt lat="39.4043937" lon="8.4274023"><ele>419.6</ele><time>2026-05-01T10:39:51.728Z</time></trkpt><trkpt lat="39.4044236" lon="8.4275271"><ele>422.0</ele><time>2026-05-01T10:39:52.727Z</time></trkpt><trkpt lat="39.4044562" lon="8.4276686"><ele>422.0</ele><time>2026-05-01T10:39:53.728Z</time></trkpt><trkpt lat="39.4044853" lon="8.4278349"><ele>422.0</ele><time>2026-05-01T10:39:54.728Z</time></trkpt><trkpt lat="39.4045081" lon="8.428003"><ele>422.0</ele><time>2026-05-01T10:39:55.728Z</time></trkpt><trkpt lat="39.4045334" lon="8.4281882"><ele>422.0</ele><time>2026-05-01T10:39:56.727Z</time></trkpt><trkpt lat="39.4045636" lon="8.4283727"><ele>427.5</ele><time>2026-05-01T10:39:57.728Z</time></trkpt><trkpt lat="39.4045934" lon="8.4285641"><ele>433.0</ele><time>2026-05-01T10:39:58.729Z</time></trkpt><trkpt lat="39.4046261" lon="8.4287591"><ele>438.5</ele><time>2026-05-01T10:39:59.727Z</time></trkpt><trkpt lat="39.4046416" lon="8.42892"><ele>444.0</ele><time>2026-05-01T10:40:00.728Z</time></trkpt><trkpt lat="39.4046568" lon="8.4290523"><ele>444.4</ele><time>2026-05-01T10:40:01.727Z</time></trkpt><trkpt lat="39.404688" lon="8.4291925"><ele>444.79999999999995</ele><time>2026-05-01T10:40:02.727Z</time></trkpt><trkpt lat="39.4047258" lon="8.4293174"><ele>445.20000000000005</ele><time>2026-05-01T10:40:03.729Z</time></trkpt><trkpt lat="39.4047708" lon="8.4294548"><ele>445.6</ele><time>2026-05-01T10:40:04.727Z</time></trkpt><trkpt lat="39.4048241" lon="8.4295908"><ele>446.0</ele><time>2026-05-01T10:40:05.728Z</time></trkpt><trkpt lat="39.4048841" lon="8.4297369"><ele>448.25</ele><time>2026-05-01T10:40:06.727Z</time></trkpt><trkpt lat="39.4049478" lon="8.4298879"><ele>450.5</ele><time>2026-05-01T10:40:07.728Z</time></trkpt><trkpt lat="39.405016" lon="8.4300502"><ele>452.75</ele><time>2026-05-01T10:40:08.729Z</time></trkpt><trkpt lat="39.4050882" lon="8.4301992"><ele>455.0</ele><time>2026-05-01T10:40:09.728Z</time></trkpt><trkpt lat="39.4051591" lon="8.430345"><ele>456.5</ele><time>2026-05-01T10:40:10.728Z</time></trkpt><trkpt lat="39.4052196" lon="8.430496"><ele>458.0</ele><time>2026-05-01T10:40:11.728Z</time></trkpt><trkpt lat="39.4052674" lon="8.4306509"><ele>459.5</ele><time>2026-05-01T10:40:12.728Z</time></trkpt><trkpt lat="39.4053143" lon="8.4308209"><ele>461.0</ele><time>2026-05-01T10:40:13.728Z</time></trkpt><trkpt lat="39.4053745" lon="8.4309942"><ele>461.0</ele><time>2026-05-01T10:40:14.727Z</time></trkpt><trkpt lat="39.4054314" lon="8.4311552"><ele>461.0</ele><time>2026-05-01T10:40:15.728Z</time></trkpt><trkpt lat="39.4054748" lon="8.4312827"><ele>461.0</ele><time>2026-05-01T10:40:16.728Z</time></trkpt><trkpt lat="39.4055047" lon="8.4313845"><ele>461.0</ele><time>2026-05-01T10:40:17.728Z</time></trkpt><trkpt lat="39.4055163" lon="8.4314678"><ele>461.0</ele><time>2026-05-01T10:40:18.726Z</time></trkpt><trkpt lat="39.4054696" lon="8.4316282"><ele>462.25</ele><time>2026-05-01T10:40:20.727Z</time></trkpt><trkpt lat="39.4054048" lon="8.4317198"><ele>463.5</ele><time>2026-05-01T10:40:21.726Z</time></trkpt><trkpt lat="39.4053265" lon="8.4318181"><ele>464.75</ele><time>2026-05-01T10:40:22.727Z</time></trkpt><trkpt lat="39.4052397" lon="8.4319377"><ele>466.0</ele><time>2026-05-01T10:40:23.728Z</time></trkpt><trkpt lat="39.4051347" lon="8.4320698"><ele>468.0</ele><time>2026-05-01T10:40:24.727Z</time></trkpt><trkpt lat="39.4050377" lon="8.4321865"><ele>470.0</ele><time>2026-05-01T10:40:25.726Z</time></trkpt><trkpt lat="39.4049624" lon="8.4322796"><ele>472.0</ele><time>2026-05-01T10:40:26.727Z</time></trkpt><trkpt lat="39.4049042" lon="8.4323687"><ele>474.0</ele><time>2026-05-01T10:40:27.726Z</time></trkpt><trkpt lat="39.4048564" lon="8.4324767"><ele>476.0</ele><time>2026-05-01T10:40:28.726Z</time></trkpt><trkpt lat="39.4048102" lon="8.4326082"><ele>476.0</ele><time>2026-05-01T10:40:29.727Z</time></trkpt><trkpt lat="39.4047655" lon="8.432709"><ele>476.0</ele><time>2026-05-01T10:40:30.727Z</time></trkpt><trkpt lat="39.404706" lon="8.4327929"><ele>476.0</ele><time>2026-05-01T10:40:31.726Z</time></trkpt><trkpt lat="39.4046227" lon="8.4328702"><ele>476.0</ele><time>2026-05-01T10:40:32.727Z</time></trkpt><trkpt lat="39.404529" lon="8.4329292"><ele>476.0</ele><time>2026-05-01T10:40:33.727Z</time></trkpt><trkpt lat="39.4044206" lon="8.4329717"><ele>479.0</ele><time>2026-05-01T10:40:34.727Z</time></trkpt><trkpt lat="39.4042963" lon="8.4330009"><ele>482.0</ele><time>2026-05-01T10:40:35.727Z</time></trkpt><trkpt lat="39.4041576" lon="8.4330378"><ele>485.0</ele><time>2026-05-01T10:40:36.727Z</time></trkpt><trkpt lat="39.4040215" lon="8.4330897"><ele>488.0</ele><time>2026-05-01T10:40:37.727Z</time></trkpt><trkpt lat="39.4038797" lon="8.4331427"><ele>489.75</ele><time>2026-05-01T10:40:38.727Z</time></trkpt><trkpt lat="39.4037476" lon="8.4331887"><ele>491.5</ele><time>2026-05-01T10:40:39.726Z</time></trkpt><trkpt lat="39.4036188" lon="8.4332447"><ele>493.25</ele><time>2026-05-01T10:40:40.726Z</time></trkpt><trkpt lat="39.40348" lon="8.4333219"><ele>495.0</ele><time>2026-05-01T10:40:41.726Z</time></trkpt><trkpt lat="39.4033282" lon="8.433413"><ele>495.0</ele><time>2026-05-01T10:40:42.726Z</time></trkpt><trkpt lat="39.4031676" lon="8.4335131"><ele>495.0</ele><time>2026-05-01T10:40:43.727Z</time></trkpt><trkpt lat="39.403031" lon="8.4335888"><ele>495.0</ele><time>2026-05-01T10:40:44.726Z</time></trkpt><trkpt lat="39.4028957" lon="8.4336479"><ele>497.0</ele><time>2026-05-01T10:40:45.726Z</time></trkpt><trkpt lat="39.4027621" lon="8.43369"><ele>499.0</ele><time>2026-05-01T10:40:46.727Z</time></trkpt><trkpt lat="39.4026194" lon="8.4337195"><ele>501.0</ele><time>2026-05-01T10:40:47.726Z</time></trkpt><trkpt lat="39.4024757" lon="8.4337462"><ele>503.0</ele><time>2026-05-01T10:40:48.727Z</time></trkpt><trkpt lat="39.4023441" lon="8.4337735"><ele>503.0</ele><time>2026-05-01T10:40:49.727Z</time></trkpt><trkpt lat="39.4022437" lon="8.4337911"><ele>502.99999999999994</ele><time>2026-05-01T10:40:50.728Z</time></trkpt><trkpt lat="39.4021716" lon="8.4338196"><ele>502.99999999999994</ele><time>2026-05-01T10:40:51.728Z</time></trkpt><trkpt lat="39.4020993" lon="8.4339529"><ele>503.0</ele><time>2026-05-01T10:40:53.728Z</time></trkpt><trkpt lat="39.4020948" lon="8.4340611"><ele>503.0</ele><time>2026-05-01T10:40:54.726Z</time></trkpt><trkpt lat="39.4021187" lon="8.4341902"><ele>503.75</ele><time>2026-05-01T10:40:55.727Z</time></trkpt><trkpt lat="39.4021675" lon="8.4343215"><ele>504.5</ele><time>2026-05-01T10:40:56.726Z</time></trkpt><trkpt lat="39.4022275" lon="8.4344534"><ele>505.25</ele><time>2026-05-01T10:40:57.727Z</time></trkpt><trkpt lat="39.402286" lon="8.434584"><ele>506.0</ele><time>2026-05-01T10:40:58.727Z</time></trkpt><trkpt lat="39.4023423" lon="8.434717"><ele>504.6</ele><time>2026-05-01T10:40:59.727Z</time></trkpt><trkpt lat="39.4023839" lon="8.4348448"><ele>503.20000000000005</ele><time>2026-05-01T10:41:00.727Z</time></trkpt><trkpt lat="39.4024065" lon="8.4349697"><ele>501.79999999999995</ele><time>2026-05-01T10:41:01.727Z</time></trkpt><trkpt lat="39.4024228" lon="8.4350968"><ele>500.4</ele><time>2026-05-01T10:41:02.727Z</time></trkpt><trkpt lat="39.4024507" lon="8.4352058"><ele>499.0</ele><time>2026-05-01T10:41:03.727Z</time></trkpt><trkpt lat="39.4024953" lon="8.4353058"><ele>499.0</ele><time>2026-05-01T10:41:04.728Z</time></trkpt><trkpt lat="39.4025678" lon="8.4354066"><ele>499.0</ele><time>2026-05-01T10:41:05.727Z</time></trkpt><trkpt lat="39.4026633" lon="8.4355122"><ele>499.0</ele><time>2026-05-01T10:41:06.726Z</time></trkpt><trkpt lat="39.4027508" lon="8.4356166"><ele>499.0</ele><time>2026-05-01T10:41:07.727Z</time></trkpt><trkpt lat="39.4028318" lon="8.4357351"><ele>500.5</ele><time>2026-05-01T10:41:08.726Z</time></trkpt><trkpt lat="39.4029047" lon="8.4358621"><ele>502.0</ele><time>2026-05-01T10:41:09.726Z</time></trkpt><trkpt lat="39.4029698" lon="8.4360039"><ele>503.5</ele><time>2026-05-01T10:41:10.728Z</time></trkpt><trkpt lat="39.4030273" lon="8.43614"><ele>505.0</ele><time>2026-05-01T10:41:11.728Z</time></trkpt><trkpt lat="39.4031011" lon="8.4362674"><ele>498.75</ele><time>2026-05-01T10:41:12.727Z</time></trkpt><trkpt lat="39.4031877" lon="8.4363959"><ele>492.5</ele><time>2026-05-01T10:41:13.728Z</time></trkpt><trkpt lat="39.4032839" lon="8.4365234"><ele>486.25</ele><time>2026-05-01T10:41:14.727Z</time></trkpt><trkpt lat="39.4033913" lon="8.4366479"><ele>480.0</ele><time>2026-05-01T10:41:15.728Z</time></trkpt><trkpt lat="39.4035051" lon="8.4367716"><ele>480.0</ele><time>2026-05-01T10:41:16.727Z</time></trkpt><trkpt lat="39.4036042" lon="8.4368814"><ele>480.0</ele><time>2026-05-01T10:41:17.727Z</time></trkpt><trkpt lat="39.403697" lon="8.436968"><ele>480.0</ele><time>2026-05-01T10:41:18.728Z</time></trkpt><trkpt lat="39.4037763" lon="8.4370341"><ele>480.0</ele><time>2026-05-01T10:41:19.727Z</time></trkpt><trkpt lat="39.4038389" lon="8.4370947"><ele>480.0</ele><time>2026-05-01T10:41:20.728Z</time></trkpt><trkpt lat="39.4038925" lon="8.4371854"><ele>479.5</ele><time>2026-05-01T10:41:21.728Z</time></trkpt><trkpt lat="39.4039496" lon="8.4373053"><ele>479.0</ele><time>2026-05-01T10:41:22.727Z</time></trkpt><trkpt lat="39.404004" lon="8.4374416"><ele>478.5</ele><time>2026-05-01T10:41:23.728Z</time></trkpt><trkpt lat="39.4040516" lon="8.4375973"><ele>478.0</ele><time>2026-05-01T10:41:24.726Z</time></trkpt><trkpt lat="39.4040874" lon="8.4377463"><ele>478.0</ele><time>2026-05-01T10:41:25.727Z</time></trkpt><trkpt lat="39.4041348" lon="8.4378728"><ele>477.99999999999994</ele><time>2026-05-01T10:41:26.728Z</time></trkpt><trkpt lat="39.4041989" lon="8.4379904"><ele>477.99999999999994</ele><time>2026-05-01T10:41:27.728Z</time></trkpt><trkpt lat="39.4042787" lon="8.4381088"><ele>478.0</ele><time>2026-05-01T10:41:28.728Z</time></trkpt><trkpt lat="39.4043213" lon="8.438205"><ele>478.0</ele><time>2026-05-01T10:41:29.727Z</time></trkpt><trkpt lat="39.4043464" lon="8.4383205"><ele>475.75</ele><time>2026-05-01T10:41:30.727Z</time></trkpt><trkpt lat="39.4043562" lon="8.4384751"><ele>473.5</ele><time>2026-05-01T10:41:31.726Z</time></trkpt><trkpt lat="39.4043623" lon="8.4386583"><ele>471.25</ele><time>2026-05-01T10:41:32.727Z</time></trkpt><trkpt lat="39.404363" lon="8.4388288"><ele>469.0</ele><time>2026-05-01T10:41:33.728Z</time></trkpt><trkpt lat="39.4043504" lon="8.4390019"><ele>468.6</ele><time>2026-05-01T10:41:34.727Z</time></trkpt><trkpt lat="39.4043382" lon="8.4391543"><ele>468.2</ele><time>2026-05-01T10:41:35.727Z</time></trkpt><trkpt lat="39.4043262" lon="8.4392828"><ele>467.80000000000007</ele><time>2026-05-01T10:41:36.727Z</time></trkpt><trkpt lat="39.4043213" lon="8.439404"><ele>467.40000000000003</ele><time>2026-05-01T10:41:37.727Z</time></trkpt><trkpt lat="39.4043249" lon="8.4395556"><ele>467.0</ele><time>2026-05-01T10:41:38.727Z</time></trkpt><trkpt lat="39.4043266" lon="8.4396834"><ele>468.16666666666663</ele><time>2026-05-01T10:41:39.728Z</time></trkpt><trkpt lat="39.404319" lon="8.4397858"><ele>469.3333333333333</ele><time>2026-05-01T10:41:40.727Z</time></trkpt><trkpt lat="39.4042954" lon="8.4398711"><ele>470.5</ele><time>2026-05-01T10:41:41.727Z</time></trkpt><trkpt lat="39.4042374" lon="8.4399408"><ele>471.66666666666663</ele><time>2026-05-01T10:41:43.726Z</time></trkpt><trkpt lat="39.4041725" lon="8.4399332"><ele>472.8333333333333</ele><time>2026-05-01T10:41:50.727Z</time></trkpt><trkpt lat="39.404074" lon="8.4398808"><ele>474.0</ele><time>2026-05-01T10:41:52.728Z</time></trkpt><trkpt lat="39.403994" lon="8.4398279"><ele>474.0</ele><time>2026-05-01T10:41:53.727Z</time></trkpt><trkpt lat="39.403894" lon="8.4397706"><ele>474.0</ele><time>2026-05-01T10:41:54.727Z</time></trkpt><trkpt lat="39.4037742" lon="8.4397153"><ele>474.0</ele><time>2026-05-01T10:41:55.726Z</time></trkpt><trkpt lat="39.4036417" lon="8.4396511"><ele>474.0</ele><time>2026-05-01T10:41:56.728Z</time></trkpt><trkpt lat="39.403536" lon="8.4395978"><ele>473.0</ele><time>2026-05-01T10:41:57.727Z</time></trkpt><trkpt lat="39.403442" lon="8.4395646"><ele>472.0</ele><time>2026-05-01T10:41:58.726Z</time></trkpt><trkpt lat="39.4033653" lon="8.439557"><ele>471.0</ele><time>2026-05-01T10:41:59.727Z</time></trkpt><trkpt lat="39.4032952" lon="8.4395751"><ele>470.0</ele><time>2026-05-01T10:42:00.727Z</time></trkpt><trkpt lat="39.4032417" lon="8.4396394"><ele>469.0</ele><time>2026-05-01T10:42:01.727Z</time></trkpt><trkpt lat="39.4031841" lon="8.4397601"><ele>468.0</ele><time>2026-05-01T10:42:02.727Z</time></trkpt><trkpt lat="39.4031268" lon="8.4399268"><ele>471.25</ele><time>2026-05-01T10:42:03.727Z</time></trkpt><trkpt lat="39.4030652" lon="8.4400935"><ele>474.5</ele><time>2026-05-01T10:42:04.726Z</time></trkpt><trkpt lat="39.4029982" lon="8.4402276"><ele>477.75</ele><time>2026-05-01T10:42:05.728Z</time></trkpt><trkpt lat="39.4029451" lon="8.440345"><ele>481.0</ele><time>2026-05-01T10:42:06.727Z</time></trkpt><trkpt lat="39.4029026" lon="8.4404426"><ele>483.6</ele><time>2026-05-01T10:42:07.726Z</time></trkpt><trkpt lat="39.4028736" lon="8.4405358"><ele>486.20000000000005</ele><time>2026-05-01T10:42:08.727Z</time></trkpt><trkpt lat="39.4028348" lon="8.4406498"><ele>488.79999999999995</ele><time>2026-05-01T10:42:09.727Z</time></trkpt><trkpt lat="39.402797" lon="8.440782"><ele>491.4</ele><time>2026-05-01T10:42:10.727Z</time></trkpt><trkpt lat="39.4027486" lon="8.4409222"><ele>494.0</ele><time>2026-05-01T10:42:11.727Z</time></trkpt><trkpt lat="39.4026932" lon="8.441058"><ele>494.0</ele><time>2026-05-01T10:42:12.727Z</time></trkpt><trkpt lat="39.4026489" lon="8.4412137"><ele>494.0</ele><time>2026-05-01T10:42:13.727Z</time></trkpt><trkpt lat="39.4026155" lon="8.4413853"><ele>494.0</ele><time>2026-05-01T10:42:14.727Z</time></trkpt><trkpt lat="39.4025953" lon="8.4415386"><ele>494.0</ele><time>2026-05-01T10:42:15.728Z</time></trkpt><trkpt lat="39.4025666" lon="8.4416772"><ele>494.4</ele><time>2026-05-01T10:42:16.726Z</time></trkpt><trkpt lat="39.4025401" lon="8.4418397"><ele>494.79999999999995</ele><time>2026-05-01T10:42:17.727Z</time></trkpt><trkpt lat="39.4025183" lon="8.4419851"><ele>495.20000000000005</ele><time>2026-05-01T10:42:18.727Z</time></trkpt><trkpt lat="39.4024984" lon="8.4420982"><ele>495.6</ele><time>2026-05-01T10:42:19.727Z</time></trkpt><trkpt lat="39.4024704" lon="8.4421869"><ele>496.0</ele><time>2026-05-01T10:42:20.726Z</time></trkpt><trkpt lat="39.4024255" lon="8.4422711"><ele>497.50000000000006</ele><time>2026-05-01T10:42:21.728Z</time></trkpt><trkpt lat="39.4023708" lon="8.442322"><ele>499.0</ele><time>2026-05-01T10:42:22.727Z</time></trkpt><trkpt lat="39.402307" lon="8.442345"><ele>500.5</ele><time>2026-05-01T10:42:23.726Z</time></trkpt><trkpt lat="39.4022393" lon="8.4423285"><ele>502.0</ele><time>2026-05-01T10:42:24.727Z</time></trkpt><trkpt lat="39.4021536" lon="8.4422785"><ele>503.50000000000006</ele><time>2026-05-01T10:42:25.727Z</time></trkpt><trkpt lat="39.4020562" lon="8.4422035"><ele>505.0</ele><time>2026-05-01T10:42:26.726Z</time></trkpt><trkpt lat="39.40196" lon="8.4421381"><ele>504.75</ele><time>2026-05-01T10:42:27.726Z</time></trkpt><trkpt lat="39.4018488" lon="8.4420823"><ele>504.5</ele><time>2026-05-01T10:42:28.728Z</time></trkpt><trkpt lat="39.4017232" lon="8.4420305"><ele>504.25</ele><time>2026-05-01T10:42:29.726Z</time></trkpt><trkpt lat="39.4016185" lon="8.441995"><ele>504.0</ele><time>2026-05-01T10:42:30.728Z</time></trkpt><trkpt lat="39.4015161" lon="8.4419806"><ele>504.0</ele><time>2026-05-01T10:42:31.727Z</time></trkpt><trkpt lat="39.4014263" lon="8.4419804"><ele>504.0</ele><time>2026-05-01T10:42:32.728Z</time></trkpt><trkpt lat="39.401348" lon="8.441998"><ele>504.0</ele><time>2026-05-01T10:42:33.728Z</time></trkpt><trkpt lat="39.4012517" lon="8.4420391"><ele>504.0</ele><time>2026-05-01T10:42:34.727Z</time></trkpt><trkpt lat="39.4011317" lon="8.4421028"><ele>504.0</ele><time>2026-05-01T10:42:35.727Z</time></trkpt><trkpt lat="39.400995" lon="8.4421875"><ele>504.75</ele><time>2026-05-01T10:42:36.727Z</time></trkpt><trkpt lat="39.4008707" lon="8.4422538"><ele>505.5</ele><time>2026-05-01T10:42:37.727Z</time></trkpt><trkpt lat="39.4007483" lon="8.4423093"><ele>506.25</ele><time>2026-05-01T10:42:38.728Z</time></trkpt><trkpt lat="39.4006284" lon="8.4423709"><ele>507.0</ele><time>2026-05-01T10:42:39.728Z</time></trkpt><trkpt lat="39.4004689" lon="8.4423514"><ele>507.0</ele><time>2026-05-01T10:42:40.728Z</time></trkpt><trkpt lat="39.4003308" lon="8.4423868"><ele>507.0</ele><time>2026-05-01T10:42:41.728Z</time></trkpt><trkpt lat="39.4001789" lon="8.4424132"><ele>507.0</ele><time>2026-05-01T10:42:42.728Z</time></trkpt><trkpt lat="39.4000346" lon="8.4424471"><ele>507.0</ele><time>2026-05-01T10:42:43.728Z</time></trkpt><trkpt lat="39.3998857" lon="8.4424832"><ele>507.0</ele><time>2026-05-01T10:42:44.726Z</time></trkpt><trkpt lat="39.3997485" lon="8.4425268"><ele>507.0</ele><time>2026-05-01T10:42:45.727Z</time></trkpt><trkpt lat="39.3996302" lon="8.4425642"><ele>507.0</ele><time>2026-05-01T10:42:46.728Z</time></trkpt><trkpt lat="39.3995052" lon="8.4426053"><ele>507.0</ele><time>2026-05-01T10:42:47.727Z</time></trkpt><trkpt lat="39.3993777" lon="8.4426581"><ele>505.66666666666663</ele><time>2026-05-01T10:42:48.728Z</time></trkpt><trkpt lat="39.3992233" lon="8.4427299"><ele>504.3333333333333</ele><time>2026-05-01T10:42:49.727Z</time></trkpt><trkpt lat="39.3990724" lon="8.4427981"><ele>503.0</ele><time>2026-05-01T10:42:50.726Z</time></trkpt><trkpt lat="39.3989485" lon="8.4428521"><ele>503.0</ele><time>2026-05-01T10:42:51.727Z</time></trkpt><trkpt lat="39.3988401" lon="8.4429007"><ele>503.0</ele><time>2026-05-01T10:42:52.727Z</time></trkpt><trkpt lat="39.3987249" lon="8.4429235"><ele>503.0</ele><time>2026-05-01T10:42:53.728Z</time></trkpt><trkpt lat="39.3986014" lon="8.4429363"><ele>503.0</ele><time>2026-05-01T10:42:54.726Z</time></trkpt><trkpt lat="39.3984743" lon="8.4429608"><ele>507.75</ele><time>2026-05-01T10:42:55.726Z</time></trkpt><trkpt lat="39.3983471" lon="8.4429836"><ele>512.5</ele><time>2026-05-01T10:42:56.727Z</time></trkpt><trkpt lat="39.3982136" lon="8.4430229"><ele>517.25</ele><time>2026-05-01T10:42:57.726Z</time></trkpt><trkpt lat="39.3980793" lon="8.4430697"><ele>522.0</ele><time>2026-05-01T10:42:58.726Z</time></trkpt><trkpt lat="39.3979438" lon="8.4431231"><ele>522.0</ele><time>2026-05-01T10:42:59.726Z</time></trkpt><trkpt lat="39.397803" lon="8.4431711"><ele>522.0</ele><time>2026-05-01T10:43:00.727Z</time></trkpt><trkpt lat="39.3976593" lon="8.4432061"><ele>522.0</ele><time>2026-05-01T10:43:01.728Z</time></trkpt><trkpt lat="39.3975054" lon="8.4432449"><ele>522.0</ele><time>2026-05-01T10:43:02.728Z</time></trkpt><trkpt lat="39.3973523" lon="8.4432786"><ele>522.0</ele><time>2026-05-01T10:43:03.726Z</time></trkpt><trkpt lat="39.397227" lon="8.4433117"><ele>522.0</ele><time>2026-05-01T10:43:04.728Z</time></trkpt><trkpt lat="39.3971174" lon="8.4433369"><ele>522.0</ele><time>2026-05-01T10:43:05.726Z</time></trkpt><trkpt lat="39.3970292" lon="8.4433704"><ele>522.0</ele><time>2026-05-01T10:43:06.726Z</time></trkpt><trkpt lat="39.396953" lon="8.4434299"><ele>522.0</ele><time>2026-05-01T10:43:07.726Z</time></trkpt><trkpt lat="39.3968798" lon="8.4434973"><ele>521.6</ele><time>2026-05-01T10:43:08.726Z</time></trkpt><trkpt lat="39.3968105" lon="8.4435458"><ele>521.2</ele><time>2026-05-01T10:43:09.727Z</time></trkpt><trkpt lat="39.3967161" lon="8.4436122"><ele>520.8</ele><time>2026-05-01T10:43:10.726Z</time></trkpt><trkpt lat="39.3966198" lon="8.443688"><ele>520.4</ele><time>2026-05-01T10:43:11.727Z</time></trkpt><trkpt lat="39.3965407" lon="8.4437518"><ele>520.0</ele><time>2026-05-01T10:43:12.727Z</time></trkpt><trkpt lat="39.3964613" lon="8.4438092"><ele>519.0</ele><time>2026-05-01T10:43:13.727Z</time></trkpt><trkpt lat="39.3963788" lon="8.4438722"><ele>518.0</ele><time>2026-05-01T10:43:14.728Z</time></trkpt><trkpt lat="39.3963093" lon="8.4439619"><ele>517.0</ele><time>2026-05-01T10:43:15.726Z</time></trkpt><trkpt lat="39.3962319" lon="8.4440729"><ele>516.0</ele><time>2026-05-01T10:43:16.727Z</time></trkpt><trkpt lat="39.3961388" lon="8.4442034"><ele>515.0</ele><time>2026-05-01T10:43:17.727Z</time></trkpt><trkpt lat="39.3960711" lon="8.4443061"><ele>515.0</ele><time>2026-05-01T10:43:18.727Z</time></trkpt><trkpt lat="39.3960203" lon="8.4443973"><ele>515.0</ele><time>2026-05-01T10:43:19.727Z</time></trkpt><trkpt lat="39.3959812" lon="8.4444745"><ele>515.0</ele><time>2026-05-01T10:43:20.727Z</time></trkpt><trkpt lat="39.3959504" lon="8.444547"><ele>515.0</ele><time>2026-05-01T10:43:21.728Z</time></trkpt><trkpt lat="39.3959117" lon="8.4446346"><ele>515.0</ele><time>2026-05-01T10:43:22.727Z</time></trkpt><trkpt lat="39.3958651" lon="8.4447284"><ele>515.0</ele><time>2026-05-01T10:43:23.726Z</time></trkpt><trkpt lat="39.3958227" lon="8.4448273"><ele>517.2</ele><time>2026-05-01T10:43:24.727Z</time></trkpt><trkpt lat="39.3957886" lon="8.4449056"><ele>519.4</ele><time>2026-05-01T10:43:25.726Z</time></trkpt><trkpt lat="39.3957329" lon="8.4450224"><ele>521.6</ele><time>2026-05-01T10:43:27.727Z</time></trkpt><trkpt lat="39.3957025" lon="8.445119"><ele>523.8</ele><time>2026-05-01T10:43:29.726Z</time></trkpt><trkpt lat="39.3956752" lon="8.4451975"><ele>526.0</ele><time>2026-05-01T10:43:32.728Z</time></trkpt><trkpt lat="39.3955983" lon="8.445357"><ele>526.4</ele><time>2026-05-01T10:43:36.726Z</time></trkpt><trkpt lat="39.3955601" lon="8.4454719"><ele>526.8</ele><time>2026-05-01T10:43:37.727Z</time></trkpt><trkpt lat="39.3955178" lon="8.44559"><ele>527.1999999999999</ele><time>2026-05-01T10:43:38.727Z</time></trkpt><trkpt lat="39.3954713" lon="8.4457165"><ele>527.6</ele><time>2026-05-01T10:43:39.728Z</time></trkpt><trkpt lat="39.3954188" lon="8.4458382"><ele>528.0</ele><time>2026-05-01T10:43:40.727Z</time></trkpt><trkpt lat="39.3953709" lon="8.4459377"><ele>525.8333333333334</ele><time>2026-05-01T10:43:41.727Z</time></trkpt><trkpt lat="39.3953087" lon="8.4460508"><ele>523.6666666666666</ele><time>2026-05-01T10:43:42.727Z</time></trkpt><trkpt lat="39.3952577" lon="8.4461516"><ele>521.5</ele><time>2026-05-01T10:43:43.727Z</time></trkpt><trkpt lat="39.3952134" lon="8.4462366"><ele>519.3333333333333</ele><time>2026-05-01T10:43:44.728Z</time></trkpt><trkpt lat="39.3951614" lon="8.4462993"><ele>517.1666666666666</ele><time>2026-05-01T10:43:45.727Z</time></trkpt><trkpt lat="39.395081" lon="8.4463548"><ele>515.0</ele><time>2026-05-01T10:43:46.728Z</time></trkpt><trkpt lat="39.3949752" lon="8.4464009"><ele>515.0</ele><time>2026-05-01T10:43:47.726Z</time></trkpt><trkpt lat="39.3948802" lon="8.4464587"><ele>515.0</ele><time>2026-05-01T10:43:48.726Z</time></trkpt><trkpt lat="39.3948104" lon="8.4465061"><ele>515.0</ele><time>2026-05-01T10:43:49.726Z</time></trkpt><trkpt lat="39.3947405" lon="8.4465327"><ele>515.0</ele><time>2026-05-01T10:43:50.727Z</time></trkpt><trkpt lat="39.3946546" lon="8.4465376"><ele>515.0</ele><time>2026-05-01T10:43:51.727Z</time></trkpt><trkpt lat="39.3945584" lon="8.4465267"><ele>515.0</ele><time>2026-05-01T10:43:52.727Z</time></trkpt><trkpt lat="39.3944566" lon="8.4465028"><ele>512.8</ele><time>2026-05-01T10:43:53.726Z</time></trkpt><trkpt lat="39.3943572" lon="8.4464813"><ele>510.6</ele><time>2026-05-01T10:43:54.728Z</time></trkpt><trkpt lat="39.3942402" lon="8.4464632"><ele>508.4</ele><time>2026-05-01T10:43:55.727Z</time></trkpt><trkpt lat="39.3941247" lon="8.4464363"><ele>506.2</ele><time>2026-05-01T10:43:56.727Z</time></trkpt><trkpt lat="39.3940156" lon="8.446399"><ele>504.0</ele><time>2026-05-01T10:43:57.727Z</time></trkpt><trkpt lat="39.3939058" lon="8.446363"><ele>503.5</ele><time>2026-05-01T10:43:58.726Z</time></trkpt><trkpt lat="39.3937987" lon="8.4463496"><ele>503.0</ele><time>2026-05-01T10:43:59.727Z</time></trkpt><trkpt lat="39.3936716" lon="8.4463283"><ele>502.5</ele><time>2026-05-01T10:44:00.728Z</time></trkpt><trkpt lat="39.3935422" lon="8.4462893"><ele>502.0</ele><time>2026-05-01T10:44:01.726Z</time></trkpt><trkpt lat="39.3934398" lon="8.4462632"><ele>502.0</ele><time>2026-05-01T10:44:02.727Z</time></trkpt><trkpt lat="39.3933454" lon="8.4462577"><ele>502.0</ele><time>2026-05-01T10:44:03.726Z</time></trkpt><trkpt lat="39.3932405" lon="8.4462712"><ele>502.0</ele><time>2026-05-01T10:44:04.726Z</time></trkpt><trkpt lat="39.3931242" lon="8.4463162"><ele>502.0</ele><time>2026-05-01T10:44:05.727Z</time></trkpt><trkpt lat="39.392999" lon="8.4463807"><ele>500.0</ele><time>2026-05-01T10:44:06.728Z</time></trkpt><trkpt lat="39.3928744" lon="8.4464626"><ele>498.0</ele><time>2026-05-01T10:44:07.726Z</time></trkpt><trkpt lat="39.3927492" lon="8.4465503"><ele>496.0</ele><time>2026-05-01T10:44:08.728Z</time></trkpt><trkpt lat="39.3926302" lon="8.4466274"><ele>494.0</ele><time>2026-05-01T10:44:09.727Z</time></trkpt><trkpt lat="39.392509" lon="8.4467061"><ele>494.0</ele><time>2026-05-01T10:44:10.727Z</time></trkpt><trkpt lat="39.3923841" lon="8.4467713"><ele>494.0</ele><time>2026-05-01T10:44:11.727Z</time></trkpt><trkpt lat="39.3922617" lon="8.4468357"><ele>494.0</ele><time>2026-05-01T10:44:12.726Z</time></trkpt><trkpt lat="39.3921427" lon="8.4468999"><ele>494.0</ele><time>2026-05-01T10:44:13.727Z</time></trkpt><trkpt lat="39.3920155" lon="8.4469571"><ele>492.5</ele><time>2026-05-01T10:44:14.728Z</time></trkpt><trkpt lat="39.3918844" lon="8.4470079"><ele>491.0</ele><time>2026-05-01T10:44:15.728Z</time></trkpt><trkpt lat="39.3917602" lon="8.4470526"><ele>489.5</ele><time>2026-05-01T10:44:16.727Z</time></trkpt><trkpt lat="39.3916521" lon="8.4471049"><ele>488.0</ele><time>2026-05-01T10:44:17.726Z</time></trkpt><trkpt lat="39.3915415" lon="8.4471732"><ele>488.0</ele><time>2026-05-01T10:44:18.728Z</time></trkpt><trkpt lat="39.3914206" lon="8.4472505"><ele>488.0</ele><time>2026-05-01T10:44:19.728Z</time></trkpt><trkpt lat="39.3912942" lon="8.4473256"><ele>488.0</ele><time>2026-05-01T10:44:20.727Z</time></trkpt><trkpt lat="39.3911683" lon="8.4473965"><ele>488.0</ele><time>2026-05-01T10:44:21.726Z</time></trkpt><trkpt lat="39.3910568" lon="8.4474522"><ele>492.0</ele><time>2026-05-01T10:44:22.726Z</time></trkpt><trkpt lat="39.3909437" lon="8.4474968"><ele>496.0</ele><time>2026-05-01T10:44:23.726Z</time></trkpt><trkpt lat="39.3908152" lon="8.4475371"><ele>500.0</ele><time>2026-05-01T10:44:24.726Z</time></trkpt><trkpt lat="39.390684" lon="8.4475818"><ele>504.0</ele><time>2026-05-01T10:44:25.727Z</time></trkpt><trkpt lat="39.3905812" lon="8.4476138"><ele>503.3333333333333</ele><time>2026-05-01T10:44:26.726Z</time></trkpt><trkpt lat="39.3905054" lon="8.4476505"><ele>502.66666666666663</ele><time>2026-05-01T10:44:27.726Z</time></trkpt><trkpt lat="39.3904488" lon="8.4476987"><ele>502.0</ele><time>2026-05-01T10:44:29.726Z</time></trkpt><trkpt lat="39.3904289" lon="8.4477789"><ele>501.3333333333333</ele><time>2026-05-01T10:44:31.726Z</time></trkpt><trkpt lat="39.3903497" lon="8.4478082"><ele>500.66666666666663</ele><time>2026-05-01T10:44:33.727Z</time></trkpt><trkpt lat="39.3902751" lon="8.4477937"><ele>500.0</ele><time>2026-05-01T10:44:34.725Z</time></trkpt><trkpt lat="39.3901959" lon="8.447782"><ele>499.99999999999994</ele><time>2026-05-01T10:44:35.726Z</time></trkpt><trkpt lat="39.3901342" lon="8.4477583"><ele>500.0</ele><time>2026-05-01T10:44:36.727Z</time></trkpt><trkpt lat="39.3900767" lon="8.4477221"><ele>500.0</ele><time>2026-05-01T10:44:37.726Z</time></trkpt><trkpt lat="39.390003" lon="8.4476767"><ele>500.0</ele><time>2026-05-01T10:44:38.727Z</time></trkpt><trkpt lat="39.3899129" lon="8.4476406"><ele>499.99999999999994</ele><time>2026-05-01T10:44:39.726Z</time></trkpt><trkpt lat="39.38981" lon="8.4476112"><ele>500.0</ele><time>2026-05-01T10:44:40.726Z</time></trkpt><trkpt lat="39.3897185" lon="8.4475913"><ele>497.99999999999994</ele><time>2026-05-01T10:44:41.726Z</time></trkpt><trkpt lat="39.3896324" lon="8.4475739"><ele>496.0</ele><time>2026-05-01T10:44:42.727Z</time></trkpt><trkpt lat="39.3895385" lon="8.4475769"><ele>494.0</ele><time>2026-05-01T10:44:43.726Z</time></trkpt><trkpt lat="39.3894542" lon="8.4476022"><ele>492.0</ele><time>2026-05-01T10:44:44.726Z</time></trkpt><trkpt lat="39.3893635" lon="8.4476456"><ele>489.99999999999994</ele><time>2026-05-01T10:44:45.725Z</time></trkpt><trkpt lat="39.3892826" lon="8.4476746"><ele>488.0</ele><time>2026-05-01T10:44:46.725Z</time></trkpt><trkpt lat="39.3892029" lon="8.4476786"><ele>487.99999999999994</ele><time>2026-05-01T10:44:47.725Z</time></trkpt><trkpt lat="39.3891341" lon="8.4476638"><ele>488.0</ele><time>2026-05-01T10:44:48.725Z</time></trkpt><trkpt lat="39.3890288" lon="8.4476281"><ele>488.0</ele><time>2026-05-01T10:44:50.726Z</time></trkpt><trkpt lat="39.3889529" lon="8.4476417"><ele>488.0</ele><time>2026-05-01T10:44:51.727Z</time></trkpt><trkpt lat="39.3888782" lon="8.4476692"><ele>487.99999999999994</ele><time>2026-05-01T10:44:52.726Z</time></trkpt><trkpt lat="39.3887871" lon="8.4477082"><ele>488.0</ele><time>2026-05-01T10:44:53.725Z</time></trkpt><trkpt lat="39.3886957" lon="8.4477429"><ele>488.3333333333333</ele><time>2026-05-01T10:44:54.726Z</time></trkpt><trkpt lat="39.3886169" lon="8.4477738"><ele>488.66666666666663</ele><time>2026-05-01T10:44:55.725Z</time></trkpt><trkpt lat="39.3885292" lon="8.4478099"><ele>489.0</ele><time>2026-05-01T10:44:56.726Z</time></trkpt><trkpt lat="39.3884423" lon="8.4478587"><ele>489.33333333333337</ele><time>2026-05-01T10:44:57.727Z</time></trkpt><trkpt lat="39.3883686" lon="8.447917"><ele>489.6666666666667</ele><time>2026-05-01T10:44:58.726Z</time></trkpt><trkpt lat="39.3883055" lon="8.447986"><ele>490.0</ele><time>2026-05-01T10:44:59.727Z</time></trkpt><trkpt lat="39.3882417" lon="8.4480537"><ele>485.0</ele><time>2026-05-01T10:45:00.727Z</time></trkpt><trkpt lat="39.3881769" lon="8.4481097"><ele>480.0</ele><time>2026-05-01T10:45:01.725Z</time></trkpt><trkpt lat="39.3880975" lon="8.4481679"><ele>475.0</ele><time>2026-05-01T10:45:02.726Z</time></trkpt><trkpt lat="39.3880089" lon="8.4482244"><ele>470.0</ele><time>2026-05-01T10:45:03.725Z</time></trkpt><trkpt lat="39.3879067" lon="8.4482806"><ele>465.0</ele><time>2026-05-01T10:45:04.727Z</time></trkpt><trkpt lat="39.3878057" lon="8.4483288"><ele>465.0</ele><time>2026-05-01T10:45:05.726Z</time></trkpt><trkpt lat="39.3877001" lon="8.4483677"><ele>465.0</ele><time>2026-05-01T10:45:06.727Z</time></trkpt><trkpt lat="39.3876033" lon="8.4484139"><ele>465.0</ele><time>2026-05-01T10:45:07.726Z</time></trkpt><trkpt lat="39.387519" lon="8.448444"><ele>465.0</ele><time>2026-05-01T10:45:08.726Z</time></trkpt><trkpt lat="39.3874462" lon="8.4484523"><ele>465.0</ele><time>2026-05-01T10:45:09.726Z</time></trkpt><trkpt lat="39.3873816" lon="8.4484439"><ele>465.0</ele><time>2026-05-01T10:45:10.726Z</time></trkpt><trkpt lat="39.3873211" lon="8.4484208"><ele>465.0</ele><time>2026-05-01T10:45:11.725Z</time></trkpt><trkpt lat="39.3872267" lon="8.4483573"><ele>465.0</ele><time>2026-05-01T10:45:13.727Z</time></trkpt><trkpt lat="39.3871124" lon="8.4483318"><ele>465.0</ele><time>2026-05-01T10:45:15.727Z</time></trkpt><trkpt lat="39.3870418" lon="8.4483328"><ele>465.0</ele><time>2026-05-01T10:45:16.725Z</time></trkpt><trkpt lat="39.3869588" lon="8.4483473"><ele>465.0</ele><time>2026-05-01T10:45:17.727Z</time></trkpt><trkpt lat="39.3868674" lon="8.4483807"><ele>463.5</ele><time>2026-05-01T10:45:18.726Z</time></trkpt><trkpt lat="39.3867752" lon="8.4484101"><ele>462.0</ele><time>2026-05-01T10:45:19.725Z</time></trkpt><trkpt lat="39.3867056" lon="8.448432"><ele>460.5</ele><time>2026-05-01T10:45:20.725Z</time></trkpt><trkpt lat="39.386607" lon="8.4484677"><ele>459.0</ele><time>2026-05-01T10:45:22.725Z</time></trkpt><trkpt lat="39.3865219" lon="8.4485011"><ele>457.5</ele><time>2026-05-01T10:45:24.725Z</time></trkpt><trkpt lat="39.3864547" lon="8.4485255"><ele>456.0</ele><time>2026-05-01T10:45:26.726Z</time></trkpt><trkpt lat="39.3863816" lon="8.4485938"><ele>455.0</ele><time>2026-05-01T10:45:29.725Z</time></trkpt><trkpt lat="39.3863351" lon="8.4486623"><ele>453.99999999999994</ele><time>2026-05-01T10:45:31.727Z</time></trkpt><trkpt lat="39.38628" lon="8.4487265"><ele>453.0</ele><time>2026-05-01T10:45:33.726Z</time></trkpt><trkpt lat="39.3861955" lon="8.4487593"><ele>452.0</ele><time>2026-05-01T10:45:36.726Z</time></trkpt><trkpt lat="39.3861204" lon="8.448784"><ele>450.99999999999994</ele><time>2026-05-01T10:45:39.726Z</time></trkpt><trkpt lat="39.3860958" lon="8.4488658"><ele>450.0</ele><time>2026-05-01T10:45:52.725Z</time></trkpt><trkpt lat="39.3861187" lon="8.4489449"><ele>449.0</ele><time>2026-05-01T10:45:55.726Z</time></trkpt><trkpt lat="39.3861083" lon="8.449053"><ele>447.4</ele><time>2026-05-01T10:45:58.726Z</time></trkpt><trkpt lat="39.3860981" lon="8.449184"><ele>445.79999999999995</ele><time>2026-05-01T10:46:00.726Z</time></trkpt><trkpt lat="39.3861429" lon="8.449297"><ele>444.20000000000005</ele><time>2026-05-01T10:46:02.726Z</time></trkpt><trkpt lat="39.3861886" lon="8.4494203"><ele>442.6</ele><time>2026-05-01T10:46:04.726Z</time></trkpt><trkpt lat="39.3862463" lon="8.4495473"><ele>441.0</ele><time>2026-05-01T10:46:06.726Z</time></trkpt><trkpt lat="39.386275" lon="8.4496704"><ele>441.0</ele><time>2026-05-01T10:46:08.726Z</time></trkpt><trkpt lat="39.3862359" lon="8.4498255"><ele>441.0</ele><time>2026-05-01T10:46:10.726Z</time></trkpt><trkpt lat="39.3862131" lon="8.449942"><ele>441.0</ele><time>2026-05-01T10:46:11.725Z</time></trkpt><trkpt lat="39.3862018" lon="8.4500505"><ele>441.0</ele><time>2026-05-01T10:46:12.726Z</time></trkpt><trkpt lat="39.3861937" lon="8.4501539"><ele>441.0</ele><time>2026-05-01T10:46:13.726Z</time></trkpt><trkpt lat="39.3861855" lon="8.4502434"><ele>441.0</ele><time>2026-05-01T10:46:14.725Z</time></trkpt><trkpt lat="39.3861993" lon="8.4503303"><ele>441.0</ele><time>2026-05-01T10:46:15.726Z</time></trkpt><trkpt lat="39.3862348" lon="8.4504084"><ele>441.0</ele><time>2026-05-01T10:46:16.726Z</time></trkpt><trkpt lat="39.386284" lon="8.4504596"><ele>441.0</ele><time>2026-05-01T10:46:17.726Z</time></trkpt><trkpt lat="39.386348" lon="8.4504904"><ele>441.0</ele><time>2026-05-01T10:46:18.726Z</time></trkpt><trkpt lat="39.3864245" lon="8.4504988"><ele>441.0</ele><time>2026-05-01T10:46:19.726Z</time></trkpt><trkpt lat="39.3864983" lon="8.4504845"><ele>441.0</ele><time>2026-05-01T10:46:20.726Z</time></trkpt><trkpt lat="39.3865664" lon="8.4504766"><ele>438.20000000000005</ele><time>2026-05-01T10:46:21.726Z</time></trkpt><trkpt lat="39.3866843" lon="8.4505172"><ele>435.40000000000003</ele><time>2026-05-01T10:46:23.726Z</time></trkpt><trkpt lat="39.3867467" lon="8.4505733"><ele>432.6</ele><time>2026-05-01T10:46:24.725Z</time></trkpt><trkpt lat="39.3868178" lon="8.4506511"><ele>429.8</ele><time>2026-05-01T10:46:25.726Z</time></trkpt><trkpt lat="39.3868691" lon="8.4507213"><ele>427.0</ele><time>2026-05-01T10:46:26.726Z</time></trkpt><trkpt lat="39.3869225" lon="8.450818"><ele>427.0</ele><time>2026-05-01T10:46:28.726Z</time></trkpt><trkpt lat="39.3870103" lon="8.4508186"><ele>427.00000000000006</ele><time>2026-05-01T10:46:31.727Z</time></trkpt><trkpt lat="39.3870186" lon="8.4507245"><ele>427.00000000000006</ele><time>2026-05-01T10:46:33.727Z</time></trkpt><trkpt lat="39.3869311" lon="8.4506096"><ele>427.0</ele><time>2026-05-01T10:46:35.726Z</time></trkpt><trkpt lat="39.3868417" lon="8.4505322"><ele>427.0</ele><time>2026-05-01T10:46:37.725Z</time></trkpt><trkpt lat="39.3868913" lon="8.4504532"><ele>427.0</ele><time>2026-05-01T10:46:40.725Z</time></trkpt><trkpt lat="39.3869954" lon="8.4505182"><ele>427.00000000000006</ele><time>2026-05-01T10:46:42.727Z</time></trkpt><trkpt lat="39.3870613" lon="8.4505792"><ele>427.00000000000006</ele><time>2026-05-01T10:46:43.727Z</time></trkpt><trkpt lat="39.3871338" lon="8.4506341"><ele>427.0</ele><time>2026-05-01T10:46:44.727Z</time></trkpt><trkpt lat="39.387189" lon="8.4506833"><ele>427.0</ele><time>2026-05-01T10:46:45.726Z</time></trkpt><trkpt lat="39.3872748" lon="8.4507928"><ele>426.20000000000005</ele><time>2026-05-01T10:46:47.726Z</time></trkpt><trkpt lat="39.3872856" lon="8.4509501"><ele>425.40000000000003</ele><time>2026-05-01T10:46:49.726Z</time></trkpt><trkpt lat="39.3872742" lon="8.4510855"><ele>424.6</ele><time>2026-05-01T10:46:51.725Z</time></trkpt><trkpt lat="39.3872364" lon="8.451211"><ele>423.79999999999995</ele><time>2026-05-01T10:46:53.726Z</time></trkpt><trkpt lat="39.3871811" lon="8.451324"><ele>423.0</ele><time>2026-05-01T10:46:54.727Z</time></trkpt><trkpt lat="39.387141" lon="8.4514111"><ele>423.0</ele><time>2026-05-01T10:46:55.726Z</time></trkpt><trkpt lat="39.3870975" lon="8.4514976"><ele>423.0</ele><time>2026-05-01T10:46:56.726Z</time></trkpt><trkpt lat="39.3870582" lon="8.4516281"><ele>423.0</ele><time>2026-05-01T10:46:58.725Z</time></trkpt><trkpt lat="39.3870765" lon="8.4517291"><ele>423.0</ele><time>2026-05-01T10:46:59.726Z</time></trkpt><trkpt lat="39.3870771" lon="8.4518201"><ele>423.0</ele><time>2026-05-01T10:47:00.726Z</time></trkpt><trkpt lat="39.3870775" lon="8.4519284"><ele>423.0</ele><time>2026-05-01T10:47:01.726Z</time></trkpt><trkpt lat="39.387051" lon="8.45203"><ele>423.0</ele><time>2026-05-01T10:47:02.727Z</time></trkpt><trkpt lat="39.3870287" lon="8.4521105"><ele>423.0</ele><time>2026-05-01T10:47:03.725Z</time></trkpt><trkpt lat="39.3870117" lon="8.4522178"><ele>423.0</ele><time>2026-05-01T10:47:04.726Z</time></trkpt><trkpt lat="39.3869919" lon="8.4523167"><ele>423.0</ele><time>2026-05-01T10:47:05.726Z</time></trkpt><trkpt lat="39.3869704" lon="8.4524124"><ele>423.0</ele><time>2026-05-01T10:47:06.726Z</time></trkpt><trkpt lat="39.3869266" lon="8.4525091"><ele>423.0</ele><time>2026-05-01T10:47:07.726Z</time></trkpt><trkpt lat="39.3868758" lon="8.4526264"><ele>420.2</ele><time>2026-05-01T10:47:08.726Z</time></trkpt><trkpt lat="39.3868129" lon="8.452741"><ele>417.4</ele><time>2026-05-01T10:47:09.726Z</time></trkpt><trkpt lat="39.3867506" lon="8.4528741"><ele>414.59999999999997</ele><time>2026-05-01T10:47:10.725Z</time></trkpt><trkpt lat="39.3867057" lon="8.4529954"><ele>411.79999999999995</ele><time>2026-05-01T10:47:11.726Z</time></trkpt><trkpt lat="39.3866614" lon="8.4531031"><ele>409.0</ele><time>2026-05-01T10:47:12.726Z</time></trkpt><trkpt lat="39.3866029" lon="8.4532142"><ele>408.4</ele><time>2026-05-01T10:47:13.726Z</time></trkpt><trkpt lat="39.3865542" lon="8.4533152"><ele>407.79999999999995</ele><time>2026-05-01T10:47:14.725Z</time></trkpt><trkpt lat="39.38652" lon="8.4533886"><ele>407.20000000000005</ele><time>2026-05-01T10:47:15.725Z</time></trkpt><trkpt lat="39.3864654" lon="8.4534886"><ele>406.6</ele><time>2026-05-01T10:47:16.725Z</time></trkpt><trkpt lat="39.3863928" lon="8.4535903"><ele>406.0</ele><time>2026-05-01T10:47:17.726Z</time></trkpt><trkpt lat="39.3863296" lon="8.4536866"><ele>406.0</ele><time>2026-05-01T10:47:18.727Z</time></trkpt><trkpt lat="39.386271" lon="8.453767"><ele>406.0</ele><time>2026-05-01T10:47:19.726Z</time></trkpt><trkpt lat="39.3862105" lon="8.4538311"><ele>406.0</ele><time>2026-05-01T10:47:20.727Z</time></trkpt><trkpt lat="39.386127" lon="8.453882"><ele>406.0</ele><time>2026-05-01T10:47:21.726Z</time></trkpt><trkpt lat="39.3860226" lon="8.4539311"><ele>406.0</ele><time>2026-05-01T10:47:22.726Z</time></trkpt><trkpt lat="39.3859125" lon="8.4539898"><ele>404.75</ele><time>2026-05-01T10:47:23.726Z</time></trkpt><trkpt lat="39.3858135" lon="8.4540245"><ele>403.5</ele><time>2026-05-01T10:47:24.726Z</time></trkpt><trkpt lat="39.3856964" lon="8.4540517"><ele>402.25</ele><time>2026-05-01T10:47:25.725Z</time></trkpt><trkpt lat="39.3855758" lon="8.4540749"><ele>401.0</ele><time>2026-05-01T10:47:26.726Z</time></trkpt><trkpt lat="39.3854567" lon="8.4541128"><ele>401.0</ele><time>2026-05-01T10:47:27.726Z</time></trkpt><trkpt lat="39.3853454" lon="8.4541652"><ele>401.0</ele><time>2026-05-01T10:47:28.726Z</time></trkpt><trkpt lat="39.3852323" lon="8.4542302"><ele>401.0</ele><time>2026-05-01T10:47:29.726Z</time></trkpt><trkpt lat="39.385117" lon="8.4542903"><ele>401.0</ele><time>2026-05-01T10:47:30.726Z</time></trkpt><trkpt lat="39.3850045" lon="8.4543489"><ele>401.0</ele><time>2026-05-01T10:47:31.726Z</time></trkpt><trkpt lat="39.3848993" lon="8.454416"><ele>401.0</ele><time>2026-05-01T10:47:32.725Z</time></trkpt><trkpt lat="39.3847952" lon="8.4544884"><ele>401.0</ele><time>2026-05-01T10:47:33.727Z</time></trkpt><trkpt lat="39.3846985" lon="8.4545785"><ele>401.0</ele><time>2026-05-01T10:47:34.725Z</time></trkpt><trkpt lat="39.3846099" lon="8.4546747"><ele>400.8</ele><time>2026-05-01T10:47:35.726Z</time></trkpt><trkpt lat="39.384534" lon="8.4547324"><ele>400.6</ele><time>2026-05-01T10:47:36.726Z</time></trkpt><trkpt lat="39.3844558" lon="8.4548078"><ele>400.4</ele><time>2026-05-01T10:47:37.726Z</time></trkpt><trkpt lat="39.3844216" lon="8.4549289"><ele>400.2</ele><time>2026-05-01T10:47:38.727Z</time></trkpt><trkpt lat="39.3843634" lon="8.4550405"><ele>400.0</ele><time>2026-05-01T10:47:39.725Z</time></trkpt><trkpt lat="39.3843215" lon="8.4551723"><ele>400.0</ele><time>2026-05-01T10:47:40.726Z</time></trkpt><trkpt lat="39.3842731" lon="8.4553165"><ele>400.0</ele><time>2026-05-01T10:47:41.726Z</time></trkpt><trkpt lat="39.384224" lon="8.4554363"><ele>400.0</ele><time>2026-05-01T10:47:42.725Z</time></trkpt><trkpt lat="39.3841656" lon="8.4555494"><ele>400.0</ele><time>2026-05-01T10:47:43.726Z</time></trkpt><trkpt lat="39.3840908" lon="8.4556732"><ele>399.8</ele><time>2026-05-01T10:47:44.726Z</time></trkpt><trkpt lat="39.3840058" lon="8.4557746"><ele>399.6</ele><time>2026-05-01T10:47:45.725Z</time></trkpt><trkpt lat="39.3839329" lon="8.4558895"><ele>399.4</ele><time>2026-05-01T10:47:46.727Z</time></trkpt><trkpt lat="39.38388" lon="8.4560034"><ele>399.2</ele><time>2026-05-01T10:47:47.726Z</time></trkpt><trkpt lat="39.3838301" lon="8.4560887"><ele>399.0</ele><time>2026-05-01T10:47:48.725Z</time></trkpt><trkpt lat="39.3837878" lon="8.4561621"><ele>399.5</ele><time>2026-05-01T10:47:49.726Z</time></trkpt><trkpt lat="39.3837288" lon="8.4562436"><ele>400.0</ele><time>2026-05-01T10:47:50.727Z</time></trkpt><trkpt lat="39.3836651" lon="8.4563176"><ele>400.5</ele><time>2026-05-01T10:47:51.726Z</time></trkpt><trkpt lat="39.3836038" lon="8.4563748"><ele>401.0</ele><time>2026-05-01T10:47:52.726Z</time></trkpt><trkpt lat="39.3835293" lon="8.4563714"><ele>401.5</ele><time>2026-05-01T10:47:53.727Z</time></trkpt><trkpt lat="39.3834317" lon="8.4563714"><ele>402.0</ele><time>2026-05-01T10:47:54.725Z</time></trkpt><trkpt lat="39.3833254" lon="8.4563564"><ele>399.1666666666667</ele><time>2026-05-01T10:47:55.727Z</time></trkpt><trkpt lat="39.3832178" lon="8.4563506"><ele>396.33333333333337</ele><time>2026-05-01T10:47:56.727Z</time></trkpt><trkpt lat="39.3831239" lon="8.4563382"><ele>393.5</ele><time>2026-05-01T10:47:57.727Z</time></trkpt><trkpt lat="39.3830347" lon="8.4563333"><ele>390.6666666666667</ele><time>2026-05-01T10:47:58.726Z</time></trkpt><trkpt lat="39.382961" lon="8.4563366"><ele>387.83333333333337</ele><time>2026-05-01T10:47:59.725Z</time></trkpt><trkpt lat="39.3828882" lon="8.4563493"><ele>385.0</ele><time>2026-05-01T10:48:00.727Z</time></trkpt><trkpt lat="39.3828114" lon="8.4563543"><ele>385.0</ele><time>2026-05-01T10:48:01.727Z</time></trkpt><trkpt lat="39.382732" lon="8.4563645"><ele>385.0</ele><time>2026-05-01T10:48:02.725Z</time></trkpt><trkpt lat="39.3826605" lon="8.4563745"><ele>385.0</ele><time>2026-05-01T10:48:03.725Z</time></trkpt><trkpt lat="39.3825883" lon="8.4563966"><ele>385.0</ele><time>2026-05-01T10:48:04.727Z</time></trkpt><trkpt lat="39.3824775" lon="8.4564473"><ele>385.0</ele><time>2026-05-01T10:48:06.726Z</time></trkpt><trkpt lat="39.3823585" lon="8.4564978"><ele>385.00000000000006</ele><time>2026-05-01T10:48:08.725Z</time></trkpt><trkpt lat="39.3822882" lon="8.4565173"><ele>385.0</ele><time>2026-05-01T10:48:09.726Z</time></trkpt><trkpt lat="39.3822148" lon="8.4565328"><ele>385.0</ele><time>2026-05-01T10:48:10.726Z</time></trkpt><trkpt lat="39.3821198" lon="8.4565805"><ele>385.0</ele><time>2026-05-01T10:48:12.726Z</time></trkpt><trkpt lat="39.382068" lon="8.4566301"><ele>385.00000000000006</ele><time>2026-05-01T10:48:14.727Z</time></trkpt><trkpt lat="39.3820229" lon="8.4567115"><ele>385.0</ele><time>2026-05-01T10:48:22.725Z</time></trkpt><trkpt lat="39.3820181" lon="8.4568442"><ele>385.1666666666667</ele><time>2026-05-01T10:48:24.726Z</time></trkpt><trkpt lat="39.3820125" lon="8.4569282"><ele>385.33333333333337</ele><time>2026-05-01T10:48:25.725Z</time></trkpt><trkpt lat="39.3820346" lon="8.4570717"><ele>385.5</ele><time>2026-05-01T10:48:27.726Z</time></trkpt><trkpt lat="39.3820523" lon="8.457154"><ele>385.66666666666663</ele><time>2026-05-01T10:48:28.726Z</time></trkpt><trkpt lat="39.3820857" lon="8.4572315"><ele>385.8333333333333</ele><time>2026-05-01T10:48:29.725Z</time></trkpt><trkpt lat="39.3821232" lon="8.4573113"><ele>386.0</ele><time>2026-05-01T10:48:30.725Z</time></trkpt><trkpt lat="39.3821591" lon="8.4573964"><ele>385.66666666666663</ele><time>2026-05-01T10:48:31.725Z</time></trkpt><trkpt lat="39.382189" lon="8.4574828"><ele>385.3333333333333</ele><time>2026-05-01T10:48:32.725Z</time></trkpt><trkpt lat="39.382221" lon="8.457576"><ele>385.0</ele><time>2026-05-01T10:48:33.726Z</time></trkpt><trkpt lat="39.3822633" lon="8.457668"><ele>384.66666666666663</ele><time>2026-05-01T10:48:34.726Z</time></trkpt><trkpt lat="39.3823014" lon="8.4577466"><ele>384.3333333333333</ele><time>2026-05-01T10:48:35.725Z</time></trkpt><trkpt lat="39.382337" lon="8.4578297"><ele>384.0</ele><time>2026-05-01T10:48:36.726Z</time></trkpt><trkpt lat="39.3823859" lon="8.4579332"><ele>385.25</ele><time>2026-05-01T10:48:37.726Z</time></trkpt><trkpt lat="39.382439" lon="8.4580356"><ele>386.5</ele><time>2026-05-01T10:48:38.726Z</time></trkpt><trkpt lat="39.3825061" lon="8.4581475"><ele>387.75</ele><time>2026-05-01T10:48:39.726Z</time></trkpt><trkpt lat="39.3825801" lon="8.45827"><ele>389.0</ele><time>2026-05-01T10:48:40.725Z</time></trkpt><trkpt lat="39.3826583" lon="8.4584078"><ele>389.0</ele><time>2026-05-01T10:48:41.725Z</time></trkpt><trkpt lat="39.3827394" lon="8.458561"><ele>389.0</ele><time>2026-05-01T10:48:42.725Z</time></trkpt><trkpt lat="39.3828292" lon="8.4587112"><ele>389.0</ele><time>2026-05-01T10:48:43.726Z</time></trkpt><trkpt lat="39.3829159" lon="8.4588659"><ele>389.0</ele><time>2026-05-01T10:48:44.725Z</time></trkpt><trkpt lat="39.3830005" lon="8.4590086"><ele>389.25</ele><time>2026-05-01T10:48:45.725Z</time></trkpt><trkpt lat="39.3830844" lon="8.4591505"><ele>389.5</ele><time>2026-05-01T10:48:46.725Z</time></trkpt><trkpt lat="39.3831669" lon="8.4592905"><ele>389.75</ele><time>2026-05-01T10:48:47.724Z</time></trkpt><trkpt lat="39.3832421" lon="8.4594335"><ele>390.0</ele><time>2026-05-01T10:48:48.725Z</time></trkpt><trkpt lat="39.3833214" lon="8.4595501"><ele>392.5</ele><time>2026-05-01T10:48:49.726Z</time></trkpt><trkpt lat="39.3834058" lon="8.4596659"><ele>395.0</ele><time>2026-05-01T10:48:50.725Z</time></trkpt><trkpt lat="39.3834893" lon="8.4597886"><ele>397.5</ele><time>2026-05-01T10:48:51.725Z</time></trkpt><trkpt lat="39.3835753" lon="8.4599226"><ele>400.0</ele><time>2026-05-01T10:48:52.725Z</time></trkpt><trkpt lat="39.3836681" lon="8.4600596"><ele>400.0</ele><time>2026-05-01T10:48:53.725Z</time></trkpt><trkpt lat="39.3837572" lon="8.4601956"><ele>400.0</ele><time>2026-05-01T10:48:54.724Z</time></trkpt><trkpt lat="39.3838431" lon="8.4603395"><ele>400.0</ele><time>2026-05-01T10:48:55.725Z</time></trkpt><trkpt lat="39.383927" lon="8.4604696"><ele>400.0</ele><time>2026-05-01T10:48:56.725Z</time></trkpt><trkpt lat="39.3840201" lon="8.4606029"><ele>400.5</ele><time>2026-05-01T10:48:57.725Z</time></trkpt><trkpt lat="39.3841106" lon="8.4607362"><ele>401.0</ele><time>2026-05-01T10:48:58.725Z</time></trkpt><trkpt lat="39.3842012" lon="8.4608672"><ele>401.5</ele><time>2026-05-01T10:48:59.725Z</time></trkpt><trkpt lat="39.3842799" lon="8.4609795"><ele>402.0</ele><time>2026-05-01T10:49:00.725Z</time></trkpt><trkpt lat="39.3843481" lon="8.4610895"><ele>402.0</ele><time>2026-05-01T10:49:01.725Z</time></trkpt><trkpt lat="39.3844109" lon="8.4612057"><ele>402.0</ele><time>2026-05-01T10:49:02.726Z</time></trkpt><trkpt lat="39.3844733" lon="8.4613274"><ele>402.0</ele><time>2026-05-01T10:49:03.725Z</time></trkpt><trkpt lat="39.3845381" lon="8.4614581"><ele>402.0</ele><time>2026-05-01T10:49:04.725Z</time></trkpt><trkpt lat="39.3846094" lon="8.4615961"><ele>403.5</ele><time>2026-05-01T10:49:05.725Z</time></trkpt><trkpt lat="39.3846834" lon="8.4617388"><ele>405.0</ele><time>2026-05-01T10:49:06.724Z</time></trkpt><trkpt lat="39.3847544" lon="8.4618759"><ele>406.5</ele><time>2026-05-01T10:49:07.725Z</time></trkpt><trkpt lat="39.384805" lon="8.461998"><ele>408.0</ele><time>2026-05-01T10:49:08.724Z</time></trkpt><trkpt lat="39.3848296" lon="8.4621129"><ele>409.75</ele><time>2026-05-01T10:49:09.724Z</time></trkpt><trkpt lat="39.3848381" lon="8.4622333"><ele>411.5</ele><time>2026-05-01T10:49:10.724Z</time></trkpt><trkpt lat="39.3848443" lon="8.4623842"><ele>413.25</ele><time>2026-05-01T10:49:11.725Z</time></trkpt><trkpt lat="39.3848617" lon="8.4625435"><ele>415.0</ele><time>2026-05-01T10:49:12.725Z</time></trkpt><trkpt lat="39.3848676" lon="8.4627151"><ele>415.0</ele><time>2026-05-01T10:49:13.726Z</time></trkpt><trkpt lat="39.3848658" lon="8.4629"><ele>415.0</ele><time>2026-05-01T10:49:14.724Z</time></trkpt><trkpt lat="39.3848653" lon="8.463081"><ele>415.0</ele><time>2026-05-01T10:49:15.725Z</time></trkpt><trkpt lat="39.3848725" lon="8.4632508"><ele>415.0</ele><time>2026-05-01T10:49:16.726Z</time></trkpt><trkpt lat="39.3848897" lon="8.4634159"><ele>417.5</ele><time>2026-05-01T10:49:17.724Z</time></trkpt><trkpt lat="39.3849072" lon="8.4635828"><ele>420.0</ele><time>2026-05-01T10:49:18.725Z</time></trkpt><trkpt lat="39.3849191" lon="8.4637411"><ele>422.5</ele><time>2026-05-01T10:49:19.724Z</time></trkpt><trkpt lat="39.3849258" lon="8.4638905"><ele>425.0</ele><time>2026-05-01T10:49:20.725Z</time></trkpt><trkpt lat="39.384931" lon="8.4640184"><ele>426.16666666666663</ele><time>2026-05-01T10:49:21.724Z</time></trkpt><trkpt lat="39.3849383" lon="8.4641077"><ele>427.3333333333333</ele><time>2026-05-01T10:49:22.726Z</time></trkpt><trkpt lat="39.3849505" lon="8.4642005"><ele>428.5</ele><time>2026-05-01T10:49:24.724Z</time></trkpt><trkpt lat="39.3849444" lon="8.4642872"><ele>429.66666666666663</ele><time>2026-05-01T10:49:27.726Z</time></trkpt><trkpt lat="39.3849326" lon="8.4644593"><ele>430.8333333333333</ele><time>2026-05-01T10:54:13.724Z</time></trkpt><trkpt lat="39.3849092" lon="8.4645688"><ele>432.0</ele><time>2026-05-01T10:54:14.723Z</time></trkpt><trkpt lat="39.3848896" lon="8.464669"><ele>433.5</ele><time>2026-05-01T10:54:15.723Z</time></trkpt><trkpt lat="39.3848708" lon="8.4647708"><ele>435.0</ele><time>2026-05-01T10:54:16.724Z</time></trkpt><trkpt lat="39.3848505" lon="8.4648805"><ele>436.5</ele><time>2026-05-01T10:54:17.724Z</time></trkpt><trkpt lat="39.3848374" lon="8.4649987"><ele>438.0</ele><time>2026-05-01T10:54:18.724Z</time></trkpt><trkpt lat="39.3848307" lon="8.4651233"><ele>439.5</ele><time>2026-05-01T10:54:19.723Z</time></trkpt><trkpt lat="39.384827" lon="8.4652395"><ele>441.0</ele><time>2026-05-01T10:54:20.723Z</time></trkpt><trkpt lat="39.3848209" lon="8.4653543"><ele>443.6666666666667</ele><time>2026-05-01T10:54:21.724Z</time></trkpt><trkpt lat="39.3848149" lon="8.4654615"><ele>446.33333333333337</ele><time>2026-05-01T10:54:22.724Z</time></trkpt><trkpt lat="39.3848139" lon="8.4655537"><ele>449.0</ele><time>2026-05-01T10:54:23.725Z</time></trkpt><trkpt lat="39.3848653" lon="8.4656749"><ele>451.6666666666667</ele><time>2026-05-01T10:54:25.724Z</time></trkpt><trkpt lat="39.3849716" lon="8.4656723"><ele>454.33333333333337</ele><time>2026-05-01T10:54:27.723Z</time></trkpt><trkpt lat="39.3850409" lon="8.4656277"><ele>457.0</ele><time>2026-05-01T10:54:28.723Z</time></trkpt><trkpt lat="39.3851187" lon="8.4655577"><ele>457.0</ele><time>2026-05-01T10:54:29.725Z</time></trkpt><trkpt lat="39.3851967" lon="8.4654754"><ele>457.00000000000006</ele><time>2026-05-01T10:54:30.724Z</time></trkpt><trkpt lat="39.3852788" lon="8.465394"><ele>457.00000000000006</ele><time>2026-05-01T10:54:31.723Z</time></trkpt><trkpt lat="39.3853557" lon="8.465328"><ele>457.0</ele><time>2026-05-01T10:54:32.723Z</time></trkpt><trkpt lat="39.3854305" lon="8.4653063"><ele>457.0</ele><time>2026-05-01T10:54:33.724Z</time></trkpt><trkpt lat="39.3855153" lon="8.4652915"><ele>454.40000000000003</ele><time>2026-05-01T10:54:34.723Z</time></trkpt><trkpt lat="39.3856132" lon="8.4652865"><ele>451.80000000000007</ele><time>2026-05-01T10:54:35.724Z</time></trkpt><trkpt lat="39.3857124" lon="8.4652754"><ele>449.2</ele><time>2026-05-01T10:54:36.724Z</time></trkpt><trkpt lat="39.3858169" lon="8.4652408"><ele>446.6</ele><time>2026-05-01T10:54:37.723Z</time></trkpt><trkpt lat="39.3859263" lon="8.4651932"><ele>444.0</ele><time>2026-05-01T10:54:38.724Z</time></trkpt><trkpt lat="39.3860328" lon="8.4651413"><ele>444.0</ele><time>2026-05-01T10:54:39.724Z</time></trkpt><trkpt lat="39.3861363" lon="8.4651009"><ele>444.0</ele><time>2026-05-01T10:54:40.725Z</time></trkpt><trkpt lat="39.3862337" lon="8.4650809"><ele>444.0</ele><time>2026-05-01T10:54:41.723Z</time></trkpt><trkpt lat="39.3863343" lon="8.4650755"><ele>444.0</ele><time>2026-05-01T10:54:42.724Z</time></trkpt><trkpt lat="39.3864376" lon="8.46507"><ele>444.0</ele><time>2026-05-01T10:54:43.724Z</time></trkpt><trkpt lat="39.3865453" lon="8.4650662"><ele>445.6</ele><time>2026-05-01T10:54:44.725Z</time></trkpt><trkpt lat="39.3866592" lon="8.4650633"><ele>447.2</ele><time>2026-05-01T10:54:45.723Z</time></trkpt><trkpt lat="39.3867729" lon="8.4650609"><ele>448.80000000000007</ele><time>2026-05-01T10:54:46.724Z</time></trkpt><trkpt lat="39.3868806" lon="8.4650702"><ele>450.40000000000003</ele><time>2026-05-01T10:54:47.724Z</time></trkpt><trkpt lat="39.3869867" lon="8.465094"><ele>452.0</ele><time>2026-05-01T10:54:48.725Z</time></trkpt><trkpt lat="39.3870973" lon="8.4651197"><ele>453.0</ele><time>2026-05-01T10:54:49.723Z</time></trkpt><trkpt lat="39.3872043" lon="8.4651395"><ele>454.00000000000006</ele><time>2026-05-01T10:54:50.724Z</time></trkpt><trkpt lat="39.387308" lon="8.4651565"><ele>455.00000000000006</ele><time>2026-05-01T10:54:51.724Z</time></trkpt><trkpt lat="39.3874113" lon="8.4651819"><ele>456.0</ele><time>2026-05-01T10:54:52.724Z</time></trkpt><trkpt lat="39.3875168" lon="8.4652193"><ele>457.0</ele><time>2026-05-01T10:54:53.725Z</time></trkpt><trkpt lat="39.3876152" lon="8.4652544"><ele>457.00000000000006</ele><time>2026-05-01T10:54:54.725Z</time></trkpt><trkpt lat="39.3876999" lon="8.4652847"><ele>457.0</ele><time>2026-05-01T10:54:55.723Z</time></trkpt><trkpt lat="39.3877568" lon="8.4653206"><ele>457.0</ele><time>2026-05-01T10:54:56.723Z</time></trkpt><trkpt lat="39.387805" lon="8.4654172"><ele>457.0</ele><time>2026-05-01T10:54:58.723Z</time></trkpt><trkpt lat="39.3877419" lon="8.4655087"><ele>457.00000000000006</ele><time>2026-05-01T10:55:00.724Z</time></trkpt><trkpt lat="39.3876719" lon="8.4654989"><ele>457.0</ele><time>2026-05-01T10:55:01.725Z</time></trkpt><trkpt lat="39.3875058" lon="8.4654746"><ele>462.75</ele><time>2026-05-01T10:55:03.723Z</time></trkpt><trkpt lat="39.3874013" lon="8.4654855"><ele>468.5</ele><time>2026-05-01T10:55:04.724Z</time></trkpt><trkpt lat="39.3872969" lon="8.4655003"><ele>474.25</ele><time>2026-05-01T10:55:05.723Z</time></trkpt><trkpt lat="39.3871844" lon="8.4654787"><ele>480.0</ele><time>2026-05-01T10:55:06.724Z</time></trkpt><trkpt lat="39.3870587" lon="8.4654669"><ele>480.0</ele><time>2026-05-01T10:55:07.724Z</time></trkpt><trkpt lat="39.3869364" lon="8.4654638"><ele>480.0</ele><time>2026-05-01T10:55:08.724Z</time></trkpt><trkpt lat="39.3868141" lon="8.4654717"><ele>480.0</ele><time>2026-05-01T10:55:09.724Z</time></trkpt><trkpt lat="39.386707" lon="8.4654906"><ele>480.0</ele><time>2026-05-01T10:55:10.723Z</time></trkpt><trkpt lat="39.3866075" lon="8.4655425"><ele>480.0</ele><time>2026-05-01T10:55:11.724Z</time></trkpt><trkpt lat="39.3865034" lon="8.4655991"><ele>480.0</ele><time>2026-05-01T10:55:12.724Z</time></trkpt><trkpt lat="39.3864206" lon="8.4656622"><ele>480.0</ele><time>2026-05-01T10:55:13.724Z</time></trkpt><trkpt lat="39.3863584" lon="8.4657672"><ele>480.0</ele><time>2026-05-01T10:55:14.723Z</time></trkpt><trkpt lat="39.3863015" lon="8.4658841"><ele>480.0</ele><time>2026-05-01T10:55:15.723Z</time></trkpt><trkpt lat="39.3862593" lon="8.4660202"><ele>482.8</ele><time>2026-05-01T10:55:16.724Z</time></trkpt><trkpt lat="39.3862115" lon="8.4661546"><ele>485.6</ele><time>2026-05-01T10:55:17.725Z</time></trkpt><trkpt lat="39.386159" lon="8.4662573"><ele>488.4</ele><time>2026-05-01T10:55:18.725Z</time></trkpt><trkpt lat="39.3861257" lon="8.466364"><ele>491.2</ele><time>2026-05-01T10:55:19.724Z</time></trkpt><trkpt lat="39.3860997" lon="8.4664568"><ele>494.0</ele><time>2026-05-01T10:55:20.725Z</time></trkpt><trkpt lat="39.3860209" lon="8.4665559"><ele>494.0</ele><time>2026-05-01T10:55:22.725Z</time></trkpt><trkpt lat="39.3859266" lon="8.4665092"><ele>494.0</ele><time>2026-05-01T10:55:24.724Z</time></trkpt><trkpt lat="39.3858551" lon="8.4664325"><ele>494.0</ele><time>2026-05-01T10:55:25.723Z</time></trkpt><trkpt lat="39.3857727" lon="8.4663527"><ele>494.0</ele><time>2026-05-01T10:55:26.723Z</time></trkpt><trkpt lat="39.3856783" lon="8.4662834"><ele>494.0</ele><time>2026-05-01T10:55:27.723Z</time></trkpt><trkpt lat="39.3856082" lon="8.4662436"><ele>493.99999999999994</ele><time>2026-05-01T10:55:28.724Z</time></trkpt><trkpt lat="39.385543" lon="8.4662238"><ele>494.0</ele><time>2026-05-01T10:55:29.725Z</time></trkpt><trkpt lat="39.3854799" lon="8.4662696"><ele>494.0</ele><time>2026-05-01T10:55:31.723Z</time></trkpt><trkpt lat="39.3855649" lon="8.4663392"><ele>494.0</ele><time>2026-05-01T10:55:34.724Z</time></trkpt><trkpt lat="39.3856407" lon="8.4663669"><ele>493.99999999999994</ele><time>2026-05-01T10:55:35.723Z</time></trkpt><trkpt lat="39.3857029" lon="8.4664215"><ele>494.0</ele><time>2026-05-01T10:55:36.725Z</time></trkpt><trkpt lat="39.3857627" lon="8.4664853"><ele>494.0</ele><time>2026-05-01T10:55:37.724Z</time></trkpt><trkpt lat="39.3858487" lon="8.466636"><ele>494.0</ele><time>2026-05-01T10:55:38.724Z</time></trkpt><trkpt lat="39.3859109" lon="8.4667406"><ele>494.0</ele><time>2026-05-01T10:55:39.724Z</time></trkpt><trkpt lat="39.3859929" lon="8.4668192"><ele>494.0</ele><time>2026-05-01T10:55:40.723Z</time></trkpt><trkpt lat="39.3860916" lon="8.4668102"><ele>494.0</ele><time>2026-05-01T10:55:42.724Z</time></trkpt><trkpt lat="39.3861443" lon="8.4667464"><ele>494.0</ele><time>2026-05-01T10:55:43.725Z</time></trkpt><trkpt lat="39.3862038" lon="8.4666467"><ele>494.0</ele><time>2026-05-01T10:55:44.724Z</time></trkpt><trkpt lat="39.3862842" lon="8.4665414"><ele>494.0</ele><time>2026-05-01T10:55:45.725Z</time></trkpt><trkpt lat="39.3863671" lon="8.4664332"><ele>494.0</ele><time>2026-05-01T10:55:46.725Z</time></trkpt><trkpt lat="39.3864547" lon="8.4663383"><ele>494.0</ele><time>2026-05-01T10:55:47.724Z</time></trkpt><trkpt lat="39.386524" lon="8.4662473"><ele>491.2</ele><time>2026-05-01T10:55:48.724Z</time></trkpt><trkpt lat="39.3865944" lon="8.4661659"><ele>488.4</ele><time>2026-05-01T10:55:49.724Z</time></trkpt><trkpt lat="39.3866681" lon="8.4661136"><ele>485.6</ele><time>2026-05-01T10:55:50.724Z</time></trkpt><trkpt lat="39.3867454" lon="8.4660773"><ele>482.8</ele><time>2026-05-01T10:55:51.723Z</time></trkpt><trkpt lat="39.3868294" lon="8.4660834"><ele>480.0</ele><time>2026-05-01T10:55:52.724Z</time></trkpt><trkpt lat="39.3869357" lon="8.4660954"><ele>480.0</ele><time>2026-05-01T10:55:53.725Z</time></trkpt><trkpt lat="39.3870388" lon="8.4661041"><ele>480.0</ele><time>2026-05-01T10:55:54.725Z</time></trkpt><trkpt lat="39.3871427" lon="8.4661298"><ele>480.0</ele><time>2026-05-01T10:55:55.724Z</time></trkpt><trkpt lat="39.3872535" lon="8.4661898"><ele>480.0</ele><time>2026-05-01T10:55:56.723Z</time></trkpt><trkpt lat="39.3873711" lon="8.4662537"><ele>488.25</ele><time>2026-05-01T10:55:57.723Z</time></trkpt><trkpt lat="39.387478" lon="8.466307"><ele>496.5</ele><time>2026-05-01T10:55:58.724Z</time></trkpt><trkpt lat="39.3875847" lon="8.4663644"><ele>504.75</ele><time>2026-05-01T10:55:59.725Z</time></trkpt><trkpt lat="39.3876884" lon="8.4664438"><ele>513.0</ele><time>2026-05-01T10:56:00.725Z</time></trkpt><trkpt lat="39.387796" lon="8.4665275"><ele>513.0</ele><time>2026-05-01T10:56:01.724Z</time></trkpt><trkpt lat="39.387906" lon="8.4666094"><ele>513.0</ele><time>2026-05-01T10:56:02.724Z</time></trkpt><trkpt lat="39.388012" lon="8.4666886"><ele>513.0</ele><time>2026-05-01T10:56:03.724Z</time></trkpt><trkpt lat="39.3881161" lon="8.4667778"><ele>513.0</ele><time>2026-05-01T10:56:04.723Z</time></trkpt><trkpt lat="39.3882117" lon="8.4668739"><ele>510.5</ele><time>2026-05-01T10:56:05.724Z</time></trkpt><trkpt lat="39.388291" lon="8.4669587"><ele>508.0</ele><time>2026-05-01T10:56:06.724Z</time></trkpt><trkpt lat="39.3883667" lon="8.467041"><ele>505.5</ele><time>2026-05-01T10:56:07.723Z</time></trkpt><trkpt lat="39.3884395" lon="8.467078"><ele>503.0</ele><time>2026-05-01T10:56:08.724Z</time></trkpt><trkpt lat="39.3885077" lon="8.4670901"><ele>500.5</ele><time>2026-05-01T10:56:09.724Z</time></trkpt><trkpt lat="39.388596" lon="8.4670912"><ele>498.0</ele><time>2026-05-01T10:56:10.724Z</time></trkpt><trkpt lat="39.3887161" lon="8.4670782"><ele>498.0</ele><time>2026-05-01T10:56:11.724Z</time></trkpt><trkpt lat="39.3888264" lon="8.46706"><ele>497.99999999999994</ele><time>2026-05-01T10:56:12.723Z</time></trkpt><trkpt lat="39.3889261" lon="8.4670617"><ele>497.99999999999994</ele><time>2026-05-01T10:56:13.724Z</time></trkpt><trkpt lat="39.3890272" lon="8.467088"><ele>498.0</ele><time>2026-05-01T10:56:14.724Z</time></trkpt><trkpt lat="39.3891164" lon="8.4671087"><ele>498.0</ele><time>2026-05-01T10:56:15.725Z</time></trkpt><trkpt lat="39.3892073" lon="8.4671155"><ele>500.2</ele><time>2026-05-01T10:56:16.725Z</time></trkpt><trkpt lat="39.3892877" lon="8.4671045"><ele>502.4</ele><time>2026-05-01T10:56:17.725Z</time></trkpt><trkpt lat="39.3893742" lon="8.4671502"><ele>504.59999999999997</ele><time>2026-05-01T10:56:19.724Z</time></trkpt><trkpt lat="39.3893854" lon="8.4672322"><ele>506.79999999999995</ele><time>2026-05-01T10:56:21.724Z</time></trkpt><trkpt lat="39.3892651" lon="8.4672502"><ele>509.0</ele><time>2026-05-01T10:56:24.723Z</time></trkpt><trkpt lat="39.389162" lon="8.4672367"><ele>511.4</ele><time>2026-05-01T10:56:25.724Z</time></trkpt><trkpt lat="39.3890512" lon="8.4672412"><ele>513.8</ele><time>2026-05-01T10:56:26.723Z</time></trkpt><trkpt lat="39.3889427" lon="8.4672577"><ele>516.2</ele><time>2026-05-01T10:56:27.724Z</time></trkpt><trkpt lat="39.3888337" lon="8.4672901"><ele>518.6</ele><time>2026-05-01T10:56:28.723Z</time></trkpt><trkpt lat="39.388741" lon="8.4673364"><ele>521.0</ele><time>2026-05-01T10:56:29.723Z</time></trkpt><trkpt lat="39.3886513" lon="8.4673724"><ele>521.0</ele><time>2026-05-01T10:56:30.723Z</time></trkpt><trkpt lat="39.3887081" lon="8.4674449"><ele>521.0</ele><time>2026-05-01T10:56:34.724Z</time></trkpt><trkpt lat="39.3888382" lon="8.4673753"><ele>521.0</ele><time>2026-05-01T10:56:36.725Z</time></trkpt><trkpt lat="39.3889078" lon="8.4673618"><ele>521.0</ele><time>2026-05-01T10:56:37.724Z</time></trkpt><trkpt lat="39.3889877" lon="8.4673689"><ele>521.0</ele><time>2026-05-01T10:56:38.724Z</time></trkpt><trkpt lat="39.389081" lon="8.4674081"><ele>521.0</ele><time>2026-05-01T10:56:39.723Z</time></trkpt><trkpt lat="39.3891886" lon="8.4674701"><ele>521.0</ele><time>2026-05-01T10:56:40.725Z</time></trkpt><trkpt lat="39.3892989" lon="8.4675381"><ele>521.0</ele><time>2026-05-01T10:56:41.724Z</time></trkpt><trkpt lat="39.3893814" lon="8.4675982"><ele>521.0</ele><time>2026-05-01T10:56:42.724Z</time></trkpt><trkpt lat="39.3894523" lon="8.4676713"><ele>521.0</ele><time>2026-05-01T10:56:44.724Z</time></trkpt><trkpt lat="39.3893735" lon="8.4677314"><ele>521.0</ele><time>2026-05-01T10:56:47.725Z</time></trkpt><trkpt lat="39.3892661" lon="8.4676802"><ele>521.0</ele><time>2026-05-01T10:56:49.725Z</time></trkpt><trkpt lat="39.389203" lon="8.467703"><ele>521.0</ele><time>2026-05-01T10:56:51.724Z</time></trkpt><trkpt lat="39.3892404" lon="8.4678214"><ele>521.0</ele><time>2026-05-01T10:56:53.725Z</time></trkpt><trkpt lat="39.3892885" lon="8.4678978"><ele>521.0</ele><time>2026-05-01T10:56:54.723Z</time></trkpt><trkpt lat="39.3893909" lon="8.4679638"><ele>524.0</ele><time>2026-05-01T10:56:55.724Z</time></trkpt><trkpt lat="39.389524" lon="8.4680341"><ele>527.0</ele><time>2026-05-01T10:56:56.723Z</time></trkpt><trkpt lat="39.3896424" lon="8.4681082"><ele>530.0</ele><time>2026-05-01T10:56:57.725Z</time></trkpt><trkpt lat="39.3897372" lon="8.4681613"><ele>533.0</ele><time>2026-05-01T10:56:58.725Z</time></trkpt><trkpt lat="39.3898277" lon="8.4681966"><ele>533.0</ele><time>2026-05-01T10:56:59.723Z</time></trkpt><trkpt lat="39.3899324" lon="8.468219"><ele>533.0</ele><time>2026-05-01T10:57:00.724Z</time></trkpt><trkpt lat="39.390014" lon="8.4682309"><ele>533.0</ele><time>2026-05-01T10:57:01.724Z</time></trkpt><trkpt lat="39.3901109" lon="8.4682532"><ele>533.0</ele><time>2026-05-01T10:57:03.723Z</time></trkpt><trkpt lat="39.3901199" lon="8.4684121"><ele>533.0</ele><time>2026-05-01T10:57:41.724Z</time></trkpt><trkpt lat="39.3900359" lon="8.4684993"><ele>533.0</ele><time>2026-05-01T10:57:43.724Z</time></trkpt><trkpt lat="39.3899598" lon="8.4685253"><ele>533.0</ele><time>2026-05-01T10:57:44.724Z</time></trkpt><trkpt lat="39.3898855" lon="8.468568"><ele>533.0</ele><time>2026-05-01T10:57:45.725Z</time></trkpt><trkpt lat="39.3898391" lon="8.4686368"><ele>533.0</ele><time>2026-05-01T10:57:46.725Z</time></trkpt><trkpt lat="39.3897926" lon="8.4687386"><ele>533.0</ele><time>2026-05-01T10:57:47.723Z</time></trkpt><trkpt lat="39.3897344" lon="8.4688729"><ele>533.0</ele><time>2026-05-01T10:57:48.724Z</time></trkpt><trkpt lat="39.3896695" lon="8.469005"><ele>537.25</ele><time>2026-05-01T10:57:49.724Z</time></trkpt><trkpt lat="39.3896152" lon="8.4691363"><ele>541.5</ele><time>2026-05-01T10:57:50.724Z</time></trkpt><trkpt lat="39.3895755" lon="8.4692871"><ele>545.75</ele><time>2026-05-01T10:57:51.723Z</time></trkpt><trkpt lat="39.3895282" lon="8.4694506"><ele>550.0</ele><time>2026-05-01T10:57:52.724Z</time></trkpt><trkpt lat="39.3894807" lon="8.4695965"><ele>545.3333333333334</ele><time>2026-05-01T10:57:53.723Z</time></trkpt><trkpt lat="39.389433" lon="8.4697215"><ele>540.6666666666667</ele><time>2026-05-01T10:57:54.725Z</time></trkpt><trkpt lat="39.3893884" lon="8.4698043"><ele>536.0</ele><time>2026-05-01T10:57:55.724Z</time></trkpt><trkpt lat="39.3893344" lon="8.4698577"><ele>531.3333333333334</ele><time>2026-05-01T10:57:56.724Z</time></trkpt><trkpt lat="39.3892408" lon="8.4698899"><ele>526.6666666666666</ele><time>2026-05-01T10:57:57.725Z</time></trkpt><trkpt lat="39.389143" lon="8.4699005"><ele>522.0</ele><time>2026-05-01T10:57:58.724Z</time></trkpt><trkpt lat="39.3890485" lon="8.4698861"><ele>522.0</ele><time>2026-05-01T10:57:59.724Z</time></trkpt><trkpt lat="39.3889681" lon="8.4698462"><ele>522.0</ele><time>2026-05-01T10:58:00.724Z</time></trkpt><trkpt lat="39.3888827" lon="8.4697607"><ele>522.0</ele><time>2026-05-01T10:58:01.723Z</time></trkpt><trkpt lat="39.3887686" lon="8.4696607"><ele>522.0</ele><time>2026-05-01T10:58:02.725Z</time></trkpt><trkpt lat="39.3886488" lon="8.4695781"><ele>526.8000000000001</ele><time>2026-05-01T10:58:03.724Z</time></trkpt><trkpt lat="39.3885371" lon="8.4695087"><ele>531.6</ele><time>2026-05-01T10:58:04.724Z</time></trkpt><trkpt lat="39.3884485" lon="8.4694551"><ele>536.4000000000001</ele><time>2026-05-01T10:58:05.725Z</time></trkpt><trkpt lat="39.3883693" lon="8.4694492"><ele>541.2</ele><time>2026-05-01T10:58:06.725Z</time></trkpt><trkpt lat="39.3882772" lon="8.4694597"><ele>546.0</ele><time>2026-05-01T10:58:07.724Z</time></trkpt><trkpt lat="39.3881847" lon="8.4694985"><ele>546.0</ele><time>2026-05-01T10:58:08.725Z</time></trkpt><trkpt lat="39.3880763" lon="8.4695563"><ele>546.0</ele><time>2026-05-01T10:58:09.723Z</time></trkpt><trkpt lat="39.3879465" lon="8.4696534"><ele>546.0</ele><time>2026-05-01T10:58:10.724Z</time></trkpt><trkpt lat="39.3878206" lon="8.4697289"><ele>546.0</ele><time>2026-05-01T10:58:11.723Z</time></trkpt><trkpt lat="39.3877231" lon="8.4697906"><ele>545.4</ele><time>2026-05-01T10:58:12.725Z</time></trkpt><trkpt lat="39.3876312" lon="8.4698573"><ele>544.8</ele><time>2026-05-01T10:58:13.722Z</time></trkpt><trkpt lat="39.3875553" lon="8.4699393"><ele>544.1999999999999</ele><time>2026-05-01T10:58:14.723Z</time></trkpt><trkpt lat="39.3875139" lon="8.4700116"><ele>543.6</ele><time>2026-05-01T10:58:15.723Z</time></trkpt><trkpt lat="39.3875131" lon="8.4701783"><ele>543.0</ele><time>2026-05-01T10:58:17.723Z</time></trkpt><trkpt lat="39.3875607" lon="8.4702827"><ele>543.0</ele><time>2026-05-01T10:58:18.723Z</time></trkpt><trkpt lat="39.3876307" lon="8.4704187"><ele>543.0</ele><time>2026-05-01T10:58:19.722Z</time></trkpt><trkpt lat="39.3876786" lon="8.4705429"><ele>543.0</ele><time>2026-05-01T10:58:20.724Z</time></trkpt><trkpt lat="39.3877039" lon="8.4706517"><ele>543.0</ele><time>2026-05-01T10:58:21.723Z</time></trkpt><trkpt lat="39.3877156" lon="8.4707741"><ele>543.0</ele><time>2026-05-01T10:58:22.722Z</time></trkpt><trkpt lat="39.3877162" lon="8.4709016"><ele>542.0</ele><time>2026-05-01T10:58:23.722Z</time></trkpt><trkpt lat="39.3876997" lon="8.4710338"><ele>541.0</ele><time>2026-05-01T10:58:24.724Z</time></trkpt><trkpt lat="39.3876663" lon="8.4711407"><ele>540.0</ele><time>2026-05-01T10:58:25.724Z</time></trkpt><trkpt lat="39.3876047" lon="8.471229"><ele>539.0</ele><time>2026-05-01T10:58:26.723Z</time></trkpt><trkpt lat="39.3875123" lon="8.4713298"><ele>538.0</ele><time>2026-05-01T10:58:27.723Z</time></trkpt><trkpt lat="39.3873909" lon="8.4714284"><ele>537.25</ele><time>2026-05-01T10:58:28.723Z</time></trkpt><trkpt lat="39.3872598" lon="8.4715222"><ele>536.5</ele><time>2026-05-01T10:58:29.723Z</time></trkpt><trkpt lat="39.3871475" lon="8.4716183"><ele>535.75</ele><time>2026-05-01T10:58:30.722Z</time></trkpt><trkpt lat="39.3870536" lon="8.4717014"><ele>535.0</ele><time>2026-05-01T10:58:31.723Z</time></trkpt><trkpt lat="39.3869745" lon="8.4717509"><ele>535.0</ele><time>2026-05-01T10:58:32.723Z</time></trkpt><trkpt lat="39.3868968" lon="8.4717631"><ele>535.0</ele><time>2026-05-01T10:58:33.722Z</time></trkpt><trkpt lat="39.3867981" lon="8.4717432"><ele>535.0</ele><time>2026-05-01T10:58:34.723Z</time></trkpt><trkpt lat="39.3866811" lon="8.4717222"><ele>535.0</ele><time>2026-05-01T10:58:35.722Z</time></trkpt><trkpt lat="39.3865615" lon="8.4716895"><ele>535.0</ele><time>2026-05-01T10:58:36.724Z</time></trkpt><trkpt lat="39.3864479" lon="8.4716451"><ele>535.0</ele><time>2026-05-01T10:58:37.724Z</time></trkpt><trkpt lat="39.3863467" lon="8.4715841"><ele>535.0</ele><time>2026-05-01T10:58:38.723Z</time></trkpt><trkpt lat="39.3862782" lon="8.4715582"><ele>535.0</ele><time>2026-05-01T10:58:39.724Z</time></trkpt><trkpt lat="39.3861952" lon="8.4715537"><ele>535.0</ele><time>2026-05-01T10:58:40.723Z</time></trkpt><trkpt lat="39.3860968" lon="8.4715845"><ele>535.0</ele><time>2026-05-01T10:58:41.723Z</time></trkpt><trkpt lat="39.3860036" lon="8.4716065"><ele>535.8333333333334</ele><time>2026-05-01T10:58:42.723Z</time></trkpt><trkpt lat="39.3859005" lon="8.4716228"><ele>536.6666666666667</ele><time>2026-05-01T10:58:43.722Z</time></trkpt><trkpt lat="39.3858224" lon="8.4716469"><ele>537.5</ele><time>2026-05-01T10:58:44.724Z</time></trkpt><trkpt lat="39.385768" lon="8.4716959"><ele>538.3333333333334</ele><time>2026-05-01T10:58:45.724Z</time></trkpt><trkpt lat="39.3857418" lon="8.4717721"><ele>539.1666666666666</ele><time>2026-05-01T10:58:46.722Z</time></trkpt><trkpt lat="39.3857282" lon="8.4718809"><ele>540.0</ele><time>2026-05-01T10:58:47.723Z</time></trkpt><trkpt lat="39.3857092" lon="8.4719614"><ele>540.0</ele><time>2026-05-01T10:58:48.723Z</time></trkpt><trkpt lat="39.3856156" lon="8.472045"><ele>540.0</ele><time>2026-05-01T10:58:50.724Z</time></trkpt><trkpt lat="39.3855362" lon="8.4720731"><ele>540.0</ele><time>2026-05-01T10:58:51.723Z</time></trkpt><trkpt lat="39.3854675" lon="8.4721233"><ele>540.0</ele><time>2026-05-01T10:58:52.722Z</time></trkpt><trkpt lat="39.3853931" lon="8.4721815"><ele>540.0</ele><time>2026-05-01T10:58:53.723Z</time></trkpt><trkpt lat="39.3853398" lon="8.4722437"><ele>540.0</ele><time>2026-05-01T10:58:54.722Z</time></trkpt><trkpt lat="39.3852311" lon="8.4722714"><ele>541.8</ele><time>2026-05-01T10:58:56.722Z</time></trkpt><trkpt lat="39.3851671" lon="8.4722168"><ele>543.6</ele><time>2026-05-01T10:58:57.722Z</time></trkpt><trkpt lat="39.3851033" lon="8.4721265"><ele>545.4</ele><time>2026-05-01T10:58:58.722Z</time></trkpt><trkpt lat="39.3850348" lon="8.472048"><ele>547.2</ele><time>2026-05-01T10:58:59.723Z</time></trkpt><trkpt lat="39.3849454" lon="8.4720035"><ele>549.0</ele><time>2026-05-01T10:59:00.722Z</time></trkpt><trkpt lat="39.3848192" lon="8.471969"><ele>549.0</ele><time>2026-05-01T10:59:01.724Z</time></trkpt><trkpt lat="39.3847021" lon="8.4719543"><ele>549.0</ele><time>2026-05-01T10:59:02.724Z</time></trkpt><trkpt lat="39.3846174" lon="8.4719668"><ele>549.0</ele><time>2026-05-01T10:59:03.722Z</time></trkpt><trkpt lat="39.3845407" lon="8.4720171"><ele>549.0</ele><time>2026-05-01T10:59:04.722Z</time></trkpt><trkpt lat="39.3844773" lon="8.4720959"><ele>549.0</ele><time>2026-05-01T10:59:05.723Z</time></trkpt><trkpt lat="39.3844042" lon="8.4721981"><ele>545.4</ele><time>2026-05-01T10:59:06.723Z</time></trkpt><trkpt lat="39.3843245" lon="8.4723076"><ele>541.8</ele><time>2026-05-01T10:59:07.722Z</time></trkpt><trkpt lat="39.3842303" lon="8.4723956"><ele>538.2</ele><time>2026-05-01T10:59:08.723Z</time></trkpt><trkpt lat="39.3841369" lon="8.472452"><ele>534.6</ele><time>2026-05-01T10:59:09.723Z</time></trkpt><trkpt lat="39.3840463" lon="8.4724807"><ele>531.0</ele><time>2026-05-01T10:59:10.724Z</time></trkpt><trkpt lat="39.3839731" lon="8.4724722"><ele>531.0</ele><time>2026-05-01T10:59:11.723Z</time></trkpt><trkpt lat="39.3839121" lon="8.4724301"><ele>531.0</ele><time>2026-05-01T10:59:12.723Z</time></trkpt><trkpt lat="39.3838488" lon="8.4723608"><ele>531.0</ele><time>2026-05-01T10:59:13.723Z</time></trkpt><trkpt lat="39.3837773" lon="8.4722492"><ele>531.0</ele><time>2026-05-01T10:59:14.723Z</time></trkpt><trkpt lat="39.3837048" lon="8.4721189"><ele>531.0</ele><time>2026-05-01T10:59:15.723Z</time></trkpt><trkpt lat="39.383648" lon="8.4720107"><ele>536.4</ele><time>2026-05-01T10:59:16.723Z</time></trkpt><trkpt lat="39.3835791" lon="8.4719496"><ele>541.8</ele><time>2026-05-01T10:59:17.722Z</time></trkpt><trkpt lat="39.3835129" lon="8.4718864"><ele>547.1999999999999</ele><time>2026-05-01T10:59:18.723Z</time></trkpt><trkpt lat="39.3834094" lon="8.4718371"><ele>552.6</ele><time>2026-05-01T10:59:20.723Z</time></trkpt><trkpt lat="39.3833245" lon="8.4718743"><ele>558.0</ele><time>2026-05-01T10:59:22.723Z</time></trkpt><trkpt lat="39.3832363" lon="8.4720111"><ele>558.0</ele><time>2026-05-01T10:59:24.724Z</time></trkpt><trkpt lat="39.3831717" lon="8.4720703"><ele>558.0</ele><time>2026-05-01T10:59:25.722Z</time></trkpt><trkpt lat="39.3830961" lon="8.4720928"><ele>558.0</ele><time>2026-05-01T10:59:26.724Z</time></trkpt><trkpt lat="39.3829914" lon="8.4720923"><ele>558.0</ele><time>2026-05-01T10:59:27.724Z</time></trkpt><trkpt lat="39.3828737" lon="8.4720834"><ele>558.0</ele><time>2026-05-01T10:59:28.724Z</time></trkpt><trkpt lat="39.3827615" lon="8.4720751"><ele>559.5</ele><time>2026-05-01T10:59:29.722Z</time></trkpt><trkpt lat="39.3826405" lon="8.4720499"><ele>561.0</ele><time>2026-05-01T10:59:30.723Z</time></trkpt><trkpt lat="39.3825198" lon="8.4720179"><ele>562.5</ele><time>2026-05-01T10:59:31.722Z</time></trkpt><trkpt lat="39.382396" lon="8.4719957"><ele>564.0</ele><time>2026-05-01T10:59:32.724Z</time></trkpt><trkpt lat="39.3822796" lon="8.4719695"><ele>564.0</ele><time>2026-05-01T10:59:33.722Z</time></trkpt><trkpt lat="39.382182" lon="8.4719461"><ele>564.0</ele><time>2026-05-01T10:59:34.723Z</time></trkpt><trkpt lat="39.3820816" lon="8.471942"><ele>564.0</ele><time>2026-05-01T10:59:35.722Z</time></trkpt><trkpt lat="39.3819949" lon="8.4719535"><ele>564.0</ele><time>2026-05-01T10:59:36.723Z</time></trkpt><trkpt lat="39.3818983" lon="8.4719993"><ele>564.0</ele><time>2026-05-01T10:59:37.723Z</time></trkpt><trkpt lat="39.3817977" lon="8.4720692"><ele>559.0</ele><time>2026-05-01T10:59:38.723Z</time></trkpt><trkpt lat="39.3816836" lon="8.4721387"><ele>554.0</ele><time>2026-05-01T10:59:39.723Z</time></trkpt><trkpt lat="39.3815873" lon="8.4721999"><ele>549.0</ele><time>2026-05-01T10:59:40.724Z</time></trkpt><trkpt lat="39.3815179" lon="8.4722968"><ele>544.0</ele><time>2026-05-01T10:59:41.723Z</time></trkpt><trkpt lat="39.3814425" lon="8.4723876"><ele>539.0</ele><time>2026-05-01T10:59:42.723Z</time></trkpt><trkpt lat="39.381393" lon="8.4724884"><ele>541.6</ele><time>2026-05-01T10:59:43.723Z</time></trkpt><trkpt lat="39.3813454" lon="8.472602"><ele>544.2</ele><time>2026-05-01T10:59:44.722Z</time></trkpt><trkpt lat="39.3812989" lon="8.4726683"><ele>546.8000000000001</ele><time>2026-05-01T10:59:45.723Z</time></trkpt><trkpt lat="39.3812286" lon="8.4727221"><ele>549.4</ele><time>2026-05-01T10:59:46.722Z</time></trkpt><trkpt lat="39.381121" lon="8.4727587"><ele>552.0</ele><time>2026-05-01T10:59:47.724Z</time></trkpt><trkpt lat="39.3810288" lon="8.4727752"><ele>552.0</ele><time>2026-05-01T10:59:48.722Z</time></trkpt><trkpt lat="39.3809537" lon="8.472794"><ele>552.0</ele><time>2026-05-01T10:59:49.723Z</time></trkpt><trkpt lat="39.3808762" lon="8.4728526"><ele>552.0</ele><time>2026-05-01T10:59:50.722Z</time></trkpt><trkpt lat="39.3807837" lon="8.4729485"><ele>552.0</ele><time>2026-05-01T10:59:51.724Z</time></trkpt><trkpt lat="39.380713" lon="8.4730274"><ele>552.0</ele><time>2026-05-01T10:59:52.724Z</time></trkpt><trkpt lat="39.3806425" lon="8.47308"><ele>549.0</ele><time>2026-05-01T10:59:53.723Z</time></trkpt><trkpt lat="39.3805641" lon="8.4731177"><ele>546.0</ele><time>2026-05-01T10:59:54.723Z</time></trkpt><trkpt lat="39.3804735" lon="8.473136"><ele>543.0</ele><time>2026-05-01T10:59:55.724Z</time></trkpt><trkpt lat="39.3803706" lon="8.473159"><ele>540.0</ele><time>2026-05-01T10:59:56.722Z</time></trkpt><trkpt lat="39.3802587" lon="8.4731827"><ele>537.0</ele><time>2026-05-01T10:59:57.724Z</time></trkpt><trkpt lat="39.3801372" lon="8.4732235"><ele>537.0</ele><time>2026-05-01T10:59:58.724Z</time></trkpt><trkpt lat="39.3800282" lon="8.4732532"><ele>537.0</ele><time>2026-05-01T10:59:59.723Z</time></trkpt><trkpt lat="39.3799173" lon="8.4732589"><ele>537.0</ele><time>2026-05-01T11:00:00.724Z</time></trkpt><trkpt lat="39.3798164" lon="8.4732815"><ele>537.0</ele><time>2026-05-01T11:00:01.722Z</time></trkpt><trkpt lat="39.3797056" lon="8.473318"><ele>537.0</ele><time>2026-05-01T11:00:02.723Z</time></trkpt><trkpt lat="39.3796039" lon="8.4733611"><ele>539.2</ele><time>2026-05-01T11:00:03.724Z</time></trkpt><trkpt lat="39.3795138" lon="8.4734164"><ele>541.4000000000001</ele><time>2026-05-01T11:00:04.722Z</time></trkpt><trkpt lat="39.3794232" lon="8.473499"><ele>543.5999999999999</ele><time>2026-05-01T11:00:05.722Z</time></trkpt><trkpt lat="39.3793578" lon="8.4735575"><ele>545.8</ele><time>2026-05-01T11:00:06.722Z</time></trkpt><trkpt lat="39.3792878" lon="8.4736052"><ele>548.0</ele><time>2026-05-01T11:00:07.723Z</time></trkpt><trkpt lat="39.3791976" lon="8.4736407"><ele>548.0</ele><time>2026-05-01T11:00:08.723Z</time></trkpt><trkpt lat="39.3791078" lon="8.4736732"><ele>548.0</ele><time>2026-05-01T11:00:09.722Z</time></trkpt><trkpt lat="39.3790277" lon="8.473673"><ele>548.0</ele><time>2026-05-01T11:00:10.722Z</time></trkpt><trkpt lat="39.37894" lon="8.4736667"><ele>548.0</ele><time>2026-05-01T11:00:11.723Z</time></trkpt><trkpt lat="39.378822" lon="8.4736295"><ele>548.0</ele><time>2026-05-01T11:00:12.723Z</time></trkpt><trkpt lat="39.3787231" lon="8.4736444"><ele>549.5</ele><time>2026-05-01T11:00:13.724Z</time></trkpt><trkpt lat="39.3786529" lon="8.473676"><ele>551.0</ele><time>2026-05-01T11:00:14.723Z</time></trkpt><trkpt lat="39.378587" lon="8.4737951"><ele>552.5</ele><time>2026-05-01T11:00:16.724Z</time></trkpt><trkpt lat="39.3785889" lon="8.4738839"><ele>554.0</ele><time>2026-05-01T11:00:17.723Z</time></trkpt><trkpt lat="39.3785977" lon="8.4740037"><ele>555.5</ele><time>2026-05-01T11:00:18.723Z</time></trkpt><trkpt lat="39.3786143" lon="8.4740963"><ele>557.0</ele><time>2026-05-01T11:00:19.723Z</time></trkpt><trkpt lat="39.3786522" lon="8.4742191"><ele>557.0</ele><time>2026-05-01T11:00:21.723Z</time></trkpt><trkpt lat="39.3786943" lon="8.4743242"><ele>557.0</ele><time>2026-05-01T11:00:23.722Z</time></trkpt><trkpt lat="39.3787433" lon="8.4744276"><ele>557.0</ele><time>2026-05-01T11:00:25.723Z</time></trkpt><trkpt lat="39.3788026" lon="8.4745572"><ele>557.0</ele><time>2026-05-01T11:00:27.723Z</time></trkpt><trkpt lat="39.3788383" lon="8.4746254"><ele>557.0</ele><time>2026-05-01T11:00:28.723Z</time></trkpt><trkpt lat="39.3788884" lon="8.4747058"><ele>557.0</ele><time>2026-05-01T11:00:29.723Z</time></trkpt><trkpt lat="39.3789591" lon="8.4747926"><ele>552.3333333333333</ele><time>2026-05-01T11:00:30.723Z</time></trkpt><trkpt lat="39.379033" lon="8.474877"><ele>547.6666666666666</ele><time>2026-05-01T11:00:31.724Z</time></trkpt><trkpt lat="39.3791069" lon="8.4749448"><ele>543.0</ele><time>2026-05-01T11:00:32.724Z</time></trkpt><trkpt lat="39.3791702" lon="8.4750214"><ele>538.3333333333334</ele><time>2026-05-01T11:00:33.723Z</time></trkpt><trkpt lat="39.3792135" lon="8.475088"><ele>533.6666666666667</ele><time>2026-05-01T11:00:34.723Z</time></trkpt><trkpt lat="39.3792364" lon="8.4751662"><ele>529.0</ele><time>2026-05-01T11:00:35.722Z</time></trkpt><trkpt lat="39.3792361" lon="8.4752508"><ele>529.0</ele><time>2026-05-01T11:00:36.724Z</time></trkpt><trkpt lat="39.3792128" lon="8.475331"><ele>529.0</ele><time>2026-05-01T11:00:37.722Z</time></trkpt><trkpt lat="39.379168" lon="8.4754166"><ele>529.0</ele><time>2026-05-01T11:00:38.724Z</time></trkpt><trkpt lat="39.3791116" lon="8.4754829"><ele>529.0</ele><time>2026-05-01T11:00:39.724Z</time></trkpt><trkpt lat="39.3790259" lon="8.4755387"><ele>529.0</ele><time>2026-05-01T11:00:40.723Z</time></trkpt><trkpt lat="39.378936" lon="8.4756004"><ele>529.0</ele><time>2026-05-01T11:00:41.723Z</time></trkpt><trkpt lat="39.3788702" lon="8.4756402"><ele>530.1666666666667</ele><time>2026-05-01T11:00:42.724Z</time></trkpt><trkpt lat="39.3788067" lon="8.4756666"><ele>531.3333333333334</ele><time>2026-05-01T11:00:43.723Z</time></trkpt><trkpt lat="39.3787381" lon="8.4756722"><ele>532.5</ele><time>2026-05-01T11:00:44.723Z</time></trkpt><trkpt lat="39.3786724" lon="8.475658"><ele>533.6666666666666</ele><time>2026-05-01T11:00:45.722Z</time></trkpt><trkpt lat="39.3785949" lon="8.4756724"><ele>534.8333333333333</ele><time>2026-05-01T11:00:46.723Z</time></trkpt><trkpt lat="39.3784979" lon="8.4756956"><ele>536.0</ele><time>2026-05-01T11:00:47.723Z</time></trkpt><trkpt lat="39.3784033" lon="8.475728"><ele>536.0</ele><time>2026-05-01T11:00:48.723Z</time></trkpt><trkpt lat="39.3783096" lon="8.4757855"><ele>536.0</ele><time>2026-05-01T11:00:49.722Z</time></trkpt><trkpt lat="39.3782178" lon="8.4758331"><ele>536.0</ele><time>2026-05-01T11:00:50.723Z</time></trkpt><trkpt lat="39.3781229" lon="8.4758666"><ele>536.0</ele><time>2026-05-01T11:00:51.723Z</time></trkpt><trkpt lat="39.3780279" lon="8.4758919"><ele>536.0</ele><time>2026-05-01T11:00:52.723Z</time></trkpt><trkpt lat="39.3779383" lon="8.4759059"><ele>539.0</ele><time>2026-05-01T11:00:53.722Z</time></trkpt><trkpt lat="39.377849" lon="8.4759124"><ele>542.0</ele><time>2026-05-01T11:00:54.723Z</time></trkpt><trkpt lat="39.377765" lon="8.4759023"><ele>545.0</ele><time>2026-05-01T11:00:55.723Z</time></trkpt><trkpt lat="39.3776803" lon="8.4758919"><ele>548.0</ele><time>2026-05-01T11:00:56.723Z</time></trkpt><trkpt lat="39.3776174" lon="8.4758869"><ele>551.0</ele><time>2026-05-01T11:00:57.723Z</time></trkpt><trkpt lat="39.3775073" lon="8.4759219"><ele>554.0</ele><time>2026-05-01T11:00:59.723Z</time></trkpt><trkpt lat="39.3774882" lon="8.4760385"><ele>554.0</ele><time>2026-05-01T11:01:01.723Z</time></trkpt><trkpt lat="39.3775394" lon="8.4761965"><ele>554.0</ele><time>2026-05-01T11:01:03.722Z</time></trkpt><trkpt lat="39.3775645" lon="8.4762895"><ele>554.0</ele><time>2026-05-01T11:01:04.722Z</time></trkpt><trkpt lat="39.3775821" lon="8.4763852"><ele>554.0</ele><time>2026-05-01T11:01:05.722Z</time></trkpt><trkpt lat="39.3775966" lon="8.4764765"><ele>554.0</ele><time>2026-05-01T11:01:06.722Z</time></trkpt><trkpt lat="39.3776065" lon="8.4765653"><ele>554.0</ele><time>2026-05-01T11:01:07.723Z</time></trkpt><trkpt lat="39.3775943" lon="8.4767241"><ele>551.1666666666666</ele><time>2026-05-01T11:01:09.723Z</time></trkpt><trkpt lat="39.3775471" lon="8.47686"><ele>548.3333333333333</ele><time>2026-05-01T11:01:11.722Z</time></trkpt><trkpt lat="39.3774914" lon="8.4769442"><ele>545.5</ele><time>2026-05-01T11:01:13.722Z</time></trkpt><trkpt lat="39.3774453" lon="8.4770082"><ele>542.6666666666666</ele><time>2026-05-01T11:01:15.724Z</time></trkpt><trkpt lat="39.377389" lon="8.4770502"><ele>539.8333333333334</ele><time>2026-05-01T11:01:17.723Z</time></trkpt><trkpt lat="39.3773359" lon="8.4770962"><ele>537.0</ele><time>2026-05-01T11:01:19.722Z</time></trkpt><trkpt lat="39.3772721" lon="8.4771496"><ele>538.8333333333334</ele><time>2026-05-01T11:01:21.724Z</time></trkpt><trkpt lat="39.3772102" lon="8.4772059"><ele>540.6666666666666</ele><time>2026-05-01T11:01:23.724Z</time></trkpt><trkpt lat="39.3771354" lon="8.4772667"><ele>542.5</ele><time>2026-05-01T11:01:25.722Z</time></trkpt><trkpt lat="39.3770688" lon="8.4773339"><ele>544.3333333333333</ele><time>2026-05-01T11:01:27.723Z</time></trkpt><trkpt lat="39.3770087" lon="8.4773852"><ele>546.1666666666666</ele><time>2026-05-01T11:01:29.723Z</time></trkpt><trkpt lat="39.3769377" lon="8.477435"><ele>548.0</ele><time>2026-05-01T11:01:31.723Z</time></trkpt><trkpt lat="39.3768475" lon="8.4774992"><ele>548.0</ele><time>2026-05-01T11:01:33.724Z</time></trkpt><trkpt lat="39.3767587" lon="8.4775811"><ele>548.0</ele><time>2026-05-01T11:01:35.723Z</time></trkpt><trkpt lat="39.3766673" lon="8.4776682"><ele>548.0</ele><time>2026-05-01T11:01:37.722Z</time></trkpt><trkpt lat="39.3766166" lon="8.4777228"><ele>548.0</ele><time>2026-05-01T11:01:38.723Z</time></trkpt><trkpt lat="39.3765646" lon="8.477777"><ele>548.0</ele><time>2026-05-01T11:01:39.723Z</time></trkpt><trkpt lat="39.3765163" lon="8.4778373"><ele>548.0</ele><time>2026-05-01T11:01:40.723Z</time></trkpt><trkpt lat="39.3764705" lon="8.4779008"><ele>546.0000000000001</ele><time>2026-05-01T11:01:41.723Z</time></trkpt><trkpt lat="39.3764238" lon="8.4779649"><ele>544.0</ele><time>2026-05-01T11:01:42.723Z</time></trkpt><trkpt lat="39.3763766" lon="8.4780325"><ele>542.0</ele><time>2026-05-01T11:01:43.724Z</time></trkpt><trkpt lat="39.3763369" lon="8.4781083"><ele>540.0</ele><time>2026-05-01T11:01:44.723Z</time></trkpt><trkpt lat="39.3763015" lon="8.4781885"><ele>538.0</ele><time>2026-05-01T11:01:45.723Z</time></trkpt><trkpt lat="39.3762818" lon="8.4782733"><ele>536.0000000000001</ele><time>2026-05-01T11:01:46.723Z</time></trkpt><trkpt lat="39.376265" lon="8.4783619"><ele>534.0</ele><time>2026-05-01T11:01:47.724Z</time></trkpt><trkpt lat="39.3762707" lon="8.4784432"><ele>534.0</ele><time>2026-05-01T11:01:48.722Z</time></trkpt><trkpt lat="39.3763481" lon="8.4785248"><ele>534.0</ele><time>2026-05-01T11:01:50.723Z</time></trkpt><trkpt lat="39.3764186" lon="8.4785184"><ele>534.0</ele><time>2026-05-01T11:01:51.723Z</time></trkpt><trkpt lat="39.3764905" lon="8.4785043"><ele>534.0</ele><time>2026-05-01T11:01:52.724Z</time></trkpt><trkpt lat="39.3765832" lon="8.4785337"><ele>534.0</ele><time>2026-05-01T11:01:54.722Z</time></trkpt><trkpt lat="39.3766609" lon="8.4785794"><ele>534.0</ele><time>2026-05-01T11:01:56.722Z</time></trkpt><trkpt lat="39.3767619" lon="8.4786661"><ele>534.0000000000001</ele><time>2026-05-01T11:01:58.723Z</time></trkpt><trkpt lat="39.3768068" lon="8.4787276"><ele>534.0</ele><time>2026-05-01T11:01:59.722Z</time></trkpt><trkpt lat="39.3768497" lon="8.4787985"><ele>534.0</ele><time>2026-05-01T11:02:00.723Z</time></trkpt><trkpt lat="39.376888" lon="8.4788751"><ele>534.0</ele><time>2026-05-01T11:02:01.722Z</time></trkpt><trkpt lat="39.3769187" lon="8.4789517"><ele>534.0</ele><time>2026-05-01T11:02:02.722Z</time></trkpt><trkpt lat="39.3769489" lon="8.4790252"><ele>534.0000000000001</ele><time>2026-05-01T11:02:03.722Z</time></trkpt><trkpt lat="39.3769844" lon="8.4790953"><ele>534.0</ele><time>2026-05-01T11:02:04.724Z</time></trkpt><trkpt lat="39.3770658" lon="8.4791888"><ele>536.8</ele><time>2026-05-01T11:02:06.722Z</time></trkpt><trkpt lat="39.3771582" lon="8.4791846"><ele>539.5999999999999</ele><time>2026-05-01T11:02:08.724Z</time></trkpt><trkpt lat="39.377248" lon="8.4791187"><ele>542.4</ele><time>2026-05-01T11:02:10.723Z</time></trkpt><trkpt lat="39.3773431" lon="8.4790824"><ele>545.1999999999999</ele><time>2026-05-01T11:02:12.723Z</time></trkpt><trkpt lat="39.3774592" lon="8.4790919"><ele>548.0</ele><time>2026-05-01T11:02:14.723Z</time></trkpt><trkpt lat="39.3775271" lon="8.4791006"><ele>548.0000000000001</ele><time>2026-05-01T11:02:15.722Z</time></trkpt><trkpt lat="39.3775967" lon="8.4790953"><ele>548.0</ele><time>2026-05-01T11:02:16.723Z</time></trkpt><trkpt lat="39.3776675" lon="8.4790792"><ele>548.0</ele><time>2026-05-01T11:02:17.723Z</time></trkpt><trkpt lat="39.3777423" lon="8.4790634"><ele>548.0</ele><time>2026-05-01T11:02:18.722Z</time></trkpt><trkpt lat="39.3778209" lon="8.4790533"><ele>548.0</ele><time>2026-05-01T11:02:19.723Z</time></trkpt><trkpt lat="39.3778809" lon="8.4790262"><ele>548.0000000000001</ele><time>2026-05-01T11:02:20.723Z</time></trkpt><trkpt lat="39.3779508" lon="8.4789981"><ele>548.0</ele><time>2026-05-01T11:02:21.723Z</time></trkpt><trkpt lat="39.3780163" lon="8.4789631"><ele>548.8333333333333</ele><time>2026-05-01T11:02:22.723Z</time></trkpt><trkpt lat="39.3780803" lon="8.478919"><ele>549.6666666666666</ele><time>2026-05-01T11:02:23.723Z</time></trkpt><trkpt lat="39.3781489" lon="8.4788778"><ele>550.5</ele><time>2026-05-01T11:02:24.723Z</time></trkpt><trkpt lat="39.3782247" lon="8.4788482"><ele>551.3333333333334</ele><time>2026-05-01T11:02:25.722Z</time></trkpt><trkpt lat="39.3783039" lon="8.4788288"><ele>552.1666666666667</ele><time>2026-05-01T11:02:26.724Z</time></trkpt><trkpt lat="39.3783848" lon="8.4788214"><ele>553.0</ele><time>2026-05-01T11:02:27.722Z</time></trkpt><trkpt lat="39.3784675" lon="8.4788125"><ele>553.0</ele><time>2026-05-01T11:02:28.724Z</time></trkpt><trkpt lat="39.3785492" lon="8.4788024"><ele>553.0</ele><time>2026-05-01T11:02:29.724Z</time></trkpt><trkpt lat="39.3786333" lon="8.4788083"><ele>553.0</ele><time>2026-05-01T11:02:30.723Z</time></trkpt><trkpt lat="39.3787162" lon="8.4788106"><ele>553.0</ele><time>2026-05-01T11:02:31.722Z</time></trkpt><trkpt lat="39.3788055" lon="8.4788135"><ele>553.0</ele><time>2026-05-01T11:02:32.721Z</time></trkpt><trkpt lat="39.3788948" lon="8.4788227"><ele>553.0</ele><time>2026-05-01T11:02:33.722Z</time></trkpt><trkpt lat="39.3789813" lon="8.4788346"><ele>551.8333333333334</ele><time>2026-05-01T11:02:34.722Z</time></trkpt><trkpt lat="39.3790664" lon="8.4788421"><ele>550.6666666666667</ele><time>2026-05-01T11:02:35.722Z</time></trkpt><trkpt lat="39.3791577" lon="8.4788573"><ele>549.5</ele><time>2026-05-01T11:02:36.721Z</time></trkpt><trkpt lat="39.3792478" lon="8.4788712"><ele>548.3333333333334</ele><time>2026-05-01T11:02:37.722Z</time></trkpt><trkpt lat="39.379332" lon="8.4788908"><ele>547.1666666666666</ele><time>2026-05-01T11:02:38.722Z</time></trkpt><trkpt lat="39.3794176" lon="8.4789169"><ele>546.0</ele><time>2026-05-01T11:02:39.722Z</time></trkpt><trkpt lat="39.3794978" lon="8.4789503"><ele>546.0</ele><time>2026-05-01T11:02:40.722Z</time></trkpt><trkpt lat="39.379569" lon="8.4789932"><ele>546.0</ele><time>2026-05-01T11:02:41.722Z</time></trkpt><trkpt lat="39.3796246" lon="8.4790599"><ele>546.0</ele><time>2026-05-01T11:02:42.722Z</time></trkpt><trkpt lat="39.3796673" lon="8.4791413"><ele>546.0</ele><time>2026-05-01T11:02:43.722Z</time></trkpt><trkpt lat="39.3796915" lon="8.4792199"><ele>546.0</ele><time>2026-05-01T11:02:44.722Z</time></trkpt><trkpt lat="39.3796817" lon="8.4793712"><ele>546.0</ele><time>2026-05-01T11:02:46.723Z</time></trkpt><trkpt lat="39.3796625" lon="8.4794518"><ele>546.0</ele><time>2026-05-01T11:02:47.722Z</time></trkpt><trkpt lat="39.379642" lon="8.4795352"><ele>546.0</ele><time>2026-05-01T11:02:48.721Z</time></trkpt><trkpt lat="39.3795942" lon="8.4796907"><ele>546.0</ele><time>2026-05-01T11:02:50.721Z</time></trkpt><trkpt lat="39.3795656" lon="8.4797678"><ele>546.0</ele><time>2026-05-01T11:02:51.723Z</time></trkpt><trkpt lat="39.3795402" lon="8.4798433"><ele>546.0</ele><time>2026-05-01T11:02:52.722Z</time></trkpt><trkpt lat="39.3795027" lon="8.4799167"><ele>546.0</ele><time>2026-05-01T11:02:53.722Z</time></trkpt><trkpt lat="39.3794574" lon="8.4799996"><ele>545.8333333333334</ele><time>2026-05-01T11:02:54.722Z</time></trkpt><trkpt lat="39.3794295" lon="8.4800776"><ele>545.6666666666666</ele><time>2026-05-01T11:02:55.722Z</time></trkpt><trkpt lat="39.3793649" lon="8.4801947"><ele>545.5</ele><time>2026-05-01T11:02:57.721Z</time></trkpt><trkpt lat="39.3793171" lon="8.4802621"><ele>545.3333333333333</ele><time>2026-05-01T11:02:58.723Z</time></trkpt><trkpt lat="39.3792548" lon="8.4803251"><ele>545.1666666666666</ele><time>2026-05-01T11:02:59.723Z</time></trkpt><trkpt lat="39.3792014" lon="8.4803732"><ele>545.0</ele><time>2026-05-01T11:03:00.722Z</time></trkpt><trkpt lat="39.379144" lon="8.4804333"><ele>545.0</ele><time>2026-05-01T11:03:01.723Z</time></trkpt><trkpt lat="39.3790899" lon="8.4804972"><ele>545.0</ele><time>2026-05-01T11:03:02.722Z</time></trkpt><trkpt lat="39.3790403" lon="8.4805825"><ele>545.0</ele><time>2026-05-01T11:03:03.722Z</time></trkpt><trkpt lat="39.3790027" lon="8.4807002"><ele>545.0</ele><time>2026-05-01T11:03:04.722Z</time></trkpt><trkpt lat="39.378964" lon="8.4807967"><ele>545.0</ele><time>2026-05-01T11:03:05.723Z</time></trkpt><trkpt lat="39.3789456" lon="8.4808813"><ele>545.0</ele><time>2026-05-01T11:03:06.722Z</time></trkpt><trkpt lat="39.378947" lon="8.4810137"><ele>545.0</ele><time>2026-05-01T11:03:08.721Z</time></trkpt><trkpt lat="39.3790644" lon="8.4810728"><ele>545.0</ele><time>2026-05-01T11:03:10.722Z</time></trkpt><trkpt lat="39.379142" lon="8.4810779"><ele>545.0</ele><time>2026-05-01T11:03:11.721Z</time></trkpt><trkpt lat="39.3792241" lon="8.4811024"><ele>545.0</ele><time>2026-05-01T11:03:12.721Z</time></trkpt><trkpt lat="39.3793091" lon="8.4811452"><ele>545.0</ele><time>2026-05-01T11:03:13.723Z</time></trkpt><trkpt lat="39.3793819" lon="8.4811809"><ele>545.0</ele><time>2026-05-01T11:03:14.723Z</time></trkpt><trkpt lat="39.3794467" lon="8.4812276"><ele>545.0</ele><time>2026-05-01T11:03:15.722Z</time></trkpt><trkpt lat="39.3795045" lon="8.4812879"><ele>545.0</ele><time>2026-05-01T11:03:16.722Z</time></trkpt><trkpt lat="39.3795615" lon="8.4814346"><ele>545.0</ele><time>2026-05-01T11:03:18.722Z</time></trkpt><trkpt lat="39.3795774" lon="8.4815999"><ele>545.0</ele><time>2026-05-01T11:03:20.722Z</time></trkpt><trkpt lat="39.3795728" lon="8.4816957"><ele>546.8333333333333</ele><time>2026-05-01T11:03:21.721Z</time></trkpt><trkpt lat="39.3795525" lon="8.4818046"><ele>548.6666666666666</ele><time>2026-05-01T11:03:22.722Z</time></trkpt><trkpt lat="39.379528" lon="8.4819149"><ele>550.5</ele><time>2026-05-01T11:03:23.723Z</time></trkpt><trkpt lat="39.3794963" lon="8.4820259"><ele>552.3333333333334</ele><time>2026-05-01T11:03:24.721Z</time></trkpt><trkpt lat="39.3794683" lon="8.4821352"><ele>554.1666666666667</ele><time>2026-05-01T11:03:25.722Z</time></trkpt><trkpt lat="39.3794454" lon="8.4822386"><ele>556.0</ele><time>2026-05-01T11:03:26.722Z</time></trkpt><trkpt lat="39.3794256" lon="8.4823396"><ele>556.6</ele><time>2026-05-01T11:03:27.722Z</time></trkpt><trkpt lat="39.3794107" lon="8.4824385"><ele>557.2</ele><time>2026-05-01T11:03:28.721Z</time></trkpt><trkpt lat="39.3794005" lon="8.4825259"><ele>557.8</ele><time>2026-05-01T11:03:29.723Z</time></trkpt><trkpt lat="39.3793988" lon="8.4826119"><ele>558.4</ele><time>2026-05-01T11:03:30.722Z</time></trkpt><trkpt lat="39.3794256" lon="8.4827646"><ele>559.0</ele><time>2026-05-01T11:03:32.721Z</time></trkpt><trkpt lat="39.3794982" lon="8.4828834"><ele>559.0</ele><time>2026-05-01T11:03:34.722Z</time></trkpt><trkpt lat="39.3795573" lon="8.4829296"><ele>559.0</ele><time>2026-05-01T11:03:35.721Z</time></trkpt><trkpt lat="39.3796431" lon="8.4829672"><ele>559.0</ele><time>2026-05-01T11:03:36.722Z</time></trkpt><trkpt lat="39.3797219" lon="8.4830046"><ele>559.0</ele><time>2026-05-01T11:03:37.722Z</time></trkpt><trkpt lat="39.3797955" lon="8.4830485"><ele>559.0</ele><time>2026-05-01T11:03:38.722Z</time></trkpt><trkpt lat="39.37987" lon="8.4830779"><ele>559.0</ele><time>2026-05-01T11:03:39.721Z</time></trkpt><trkpt lat="39.3799389" lon="8.4831066"><ele>559.0</ele><time>2026-05-01T11:03:40.723Z</time></trkpt><trkpt lat="39.3799986" lon="8.4831363"><ele>559.0</ele><time>2026-05-01T11:03:41.722Z</time></trkpt><trkpt lat="39.3800711" lon="8.4831427"><ele>559.0</ele><time>2026-05-01T11:03:42.721Z</time></trkpt><trkpt lat="39.380138" lon="8.4831507"><ele>559.0</ele><time>2026-05-01T11:03:43.723Z</time></trkpt><trkpt lat="39.3802051" lon="8.4831614"><ele>559.0</ele><time>2026-05-01T11:03:44.722Z</time></trkpt><trkpt lat="39.3802721" lon="8.4831809"><ele>559.0</ele><time>2026-05-01T11:03:45.722Z</time></trkpt><trkpt lat="39.380348" lon="8.4832103"><ele>559.0</ele><time>2026-05-01T11:03:46.722Z</time></trkpt><trkpt lat="39.3804169" lon="8.4832249"><ele>559.0</ele><time>2026-05-01T11:03:47.721Z</time></trkpt><trkpt lat="39.3804995" lon="8.4832223"><ele>559.0</ele><time>2026-05-01T11:03:48.723Z</time></trkpt><trkpt lat="39.3805722" lon="8.4831893"><ele>559.0</ele><time>2026-05-01T11:03:49.722Z</time></trkpt><trkpt lat="39.3806599" lon="8.4831459"><ele>559.0</ele><time>2026-05-01T11:03:50.722Z</time></trkpt><trkpt lat="39.3807363" lon="8.4830949"><ele>559.0</ele><time>2026-05-01T11:03:51.723Z</time></trkpt><trkpt lat="39.3808137" lon="8.4830581"><ele>559.0</ele><time>2026-05-01T11:03:52.721Z</time></trkpt><trkpt lat="39.3808837" lon="8.4830303"><ele>559.2</ele><time>2026-05-01T11:03:53.722Z</time></trkpt><trkpt lat="39.3809978" lon="8.4829736"><ele>559.4</ele><time>2026-05-01T11:03:55.722Z</time></trkpt><trkpt lat="39.3811013" lon="8.4828831"><ele>559.6</ele><time>2026-05-01T11:03:57.723Z</time></trkpt><trkpt lat="39.3811573" lon="8.4828238"><ele>559.8</ele><time>2026-05-01T11:03:58.721Z</time></trkpt><trkpt lat="39.3812238" lon="8.482772"><ele>560.0</ele><time>2026-05-01T11:03:59.721Z</time></trkpt><trkpt lat="39.3812885" lon="8.4827242"><ele>556.8333333333333</ele><time>2026-05-01T11:04:00.722Z</time></trkpt><trkpt lat="39.3813563" lon="8.4826889"><ele>553.6666666666666</ele><time>2026-05-01T11:04:01.723Z</time></trkpt><trkpt lat="39.3814325" lon="8.4826704"><ele>550.5</ele><time>2026-05-01T11:04:02.722Z</time></trkpt><trkpt lat="39.3815166" lon="8.4826469"><ele>547.3333333333334</ele><time>2026-05-01T11:04:03.721Z</time></trkpt><trkpt lat="39.3815958" lon="8.4826307"><ele>544.1666666666667</ele><time>2026-05-01T11:04:04.721Z</time></trkpt><trkpt lat="39.3816776" lon="8.4826122"><ele>541.0</ele><time>2026-05-01T11:04:05.722Z</time></trkpt><trkpt lat="39.3817501" lon="8.4825862"><ele>541.0</ele><time>2026-05-01T11:04:06.723Z</time></trkpt><trkpt lat="39.3818222" lon="8.4825482"><ele>541.0</ele><time>2026-05-01T11:04:07.721Z</time></trkpt><trkpt lat="39.3818955" lon="8.482511"><ele>541.0</ele><time>2026-05-01T11:04:08.722Z</time></trkpt><trkpt lat="39.3819786" lon="8.4824685"><ele>541.0</ele><time>2026-05-01T11:04:09.722Z</time></trkpt><trkpt lat="39.3820639" lon="8.4824261"><ele>541.0</ele><time>2026-05-01T11:04:10.722Z</time></trkpt><trkpt lat="39.3821602" lon="8.4823901"><ele>541.0</ele><time>2026-05-01T11:04:11.722Z</time></trkpt><trkpt lat="39.3822532" lon="8.4823658"><ele>544.6</ele><time>2026-05-01T11:04:12.722Z</time></trkpt><trkpt lat="39.3823339" lon="8.4823218"><ele>548.2</ele><time>2026-05-01T11:04:13.721Z</time></trkpt><trkpt lat="39.3824237" lon="8.4822506"><ele>551.8</ele><time>2026-05-01T11:04:14.722Z</time></trkpt><trkpt lat="39.3825131" lon="8.4821887"><ele>555.4</ele><time>2026-05-01T11:04:15.722Z</time></trkpt><trkpt lat="39.382604" lon="8.482135"><ele>559.0</ele><time>2026-05-01T11:04:16.723Z</time></trkpt><trkpt lat="39.3826976" lon="8.4820942"><ele>554.8333333333334</ele><time>2026-05-01T11:04:17.722Z</time></trkpt><trkpt lat="39.3827942" lon="8.4820666"><ele>550.6666666666667</ele><time>2026-05-01T11:04:18.721Z</time></trkpt><trkpt lat="39.3828799" lon="8.4820213"><ele>546.5</ele><time>2026-05-01T11:04:19.723Z</time></trkpt><trkpt lat="39.3829588" lon="8.4819699"><ele>542.3333333333334</ele><time>2026-05-01T11:04:20.723Z</time></trkpt><trkpt lat="39.38303" lon="8.4819328"><ele>538.1666666666666</ele><time>2026-05-01T11:04:21.722Z</time></trkpt><trkpt lat="39.3831092" lon="8.4819067"><ele>534.0</ele><time>2026-05-01T11:04:22.722Z</time></trkpt><trkpt lat="39.383191" lon="8.4819007"><ele>534.0</ele><time>2026-05-01T11:04:23.722Z</time></trkpt><trkpt lat="39.3832782" lon="8.4819087"><ele>534.0</ele><time>2026-05-01T11:04:24.721Z</time></trkpt><trkpt lat="39.3833675" lon="8.4819276"><ele>534.0</ele><time>2026-05-01T11:04:25.722Z</time></trkpt><trkpt lat="39.3834623" lon="8.4819484"><ele>534.0</ele><time>2026-05-01T11:04:26.722Z</time></trkpt><trkpt lat="39.3835605" lon="8.481972"><ele>534.0</ele><time>2026-05-01T11:04:27.722Z</time></trkpt><trkpt lat="39.3836623" lon="8.4819919"><ele>534.0</ele><time>2026-05-01T11:04:28.722Z</time></trkpt><trkpt lat="39.3837644" lon="8.4820144"><ele>534.0</ele><time>2026-05-01T11:04:29.721Z</time></trkpt><trkpt lat="39.3838657" lon="8.4820293"><ele>534.0</ele><time>2026-05-01T11:04:30.722Z</time></trkpt><trkpt lat="39.3839685" lon="8.4820304"><ele>534.0</ele><time>2026-05-01T11:04:31.722Z</time></trkpt><trkpt lat="39.3840601" lon="8.4820386"><ele>534.0</ele><time>2026-05-01T11:04:32.721Z</time></trkpt><trkpt lat="39.3841327" lon="8.4820516"><ele>532.3333333333334</ele><time>2026-05-01T11:04:33.721Z</time></trkpt><trkpt lat="39.3842075" lon="8.4820948"><ele>530.6666666666666</ele><time>2026-05-01T11:04:34.722Z</time></trkpt><trkpt lat="39.3842783" lon="8.4821646"><ele>529.0</ele><time>2026-05-01T11:04:35.723Z</time></trkpt><trkpt lat="39.3843476" lon="8.4822388"><ele>527.3333333333333</ele><time>2026-05-01T11:04:36.723Z</time></trkpt><trkpt lat="39.3844155" lon="8.4823128"><ele>525.6666666666666</ele><time>2026-05-01T11:04:37.723Z</time></trkpt><trkpt lat="39.3844656" lon="8.4823817"><ele>524.0</ele><time>2026-05-01T11:04:38.722Z</time></trkpt><trkpt lat="39.3845016" lon="8.4824523"><ele>528.0</ele><time>2026-05-01T11:04:39.722Z</time></trkpt><trkpt lat="39.3845324" lon="8.4825419"><ele>532.0</ele><time>2026-05-01T11:04:40.721Z</time></trkpt><trkpt lat="39.3845657" lon="8.4826403"><ele>536.0</ele><time>2026-05-01T11:04:41.723Z</time></trkpt><trkpt lat="39.3845894" lon="8.4827383"><ele>540.0</ele><time>2026-05-01T11:04:42.721Z</time></trkpt><trkpt lat="39.3846101" lon="8.4828349"><ele>544.0</ele><time>2026-05-01T11:04:43.721Z</time></trkpt><trkpt lat="39.3846189" lon="8.4829211"><ele>548.0</ele><time>2026-05-01T11:04:44.721Z</time></trkpt><trkpt lat="39.3846163" lon="8.4830082"><ele>548.0</ele><time>2026-05-01T11:04:45.723Z</time></trkpt><trkpt lat="39.3845982" lon="8.4830943"><ele>548.0</ele><time>2026-05-01T11:04:46.723Z</time></trkpt><trkpt lat="39.3845629" lon="8.4831714"><ele>548.0</ele><time>2026-05-01T11:04:47.723Z</time></trkpt><trkpt lat="39.3845137" lon="8.483236"><ele>548.0</ele><time>2026-05-01T11:04:48.722Z</time></trkpt><trkpt lat="39.3844483" lon="8.4832974"><ele>548.0</ele><time>2026-05-01T11:04:49.722Z</time></trkpt><trkpt lat="39.3843746" lon="8.4833549"><ele>548.0</ele><time>2026-05-01T11:04:50.722Z</time></trkpt><trkpt lat="39.3843091" lon="8.4834037"><ele>548.0</ele><time>2026-05-01T11:04:51.722Z</time></trkpt><trkpt lat="39.3842418" lon="8.4834388"><ele>548.0</ele><time>2026-05-01T11:04:52.721Z</time></trkpt><trkpt lat="39.3841717" lon="8.4834492"><ele>548.0</ele><time>2026-05-01T11:04:53.721Z</time></trkpt><trkpt lat="39.3840972" lon="8.4834376"><ele>548.0</ele><time>2026-05-01T11:04:54.721Z</time></trkpt><trkpt lat="39.3840179" lon="8.4834093"><ele>548.0</ele><time>2026-05-01T11:04:55.722Z</time></trkpt><trkpt lat="39.3839332" lon="8.4834006"><ele>548.0</ele><time>2026-05-01T11:04:56.723Z</time></trkpt><trkpt lat="39.3838355" lon="8.4834112"><ele>549.8</ele><time>2026-05-01T11:04:57.722Z</time></trkpt><trkpt lat="39.3837424" lon="8.4834147"><ele>551.5999999999999</ele><time>2026-05-01T11:04:58.722Z</time></trkpt><trkpt lat="39.3836361" lon="8.483453"><ele>553.4000000000001</ele><time>2026-05-01T11:04:59.722Z</time></trkpt><trkpt lat="39.3835311" lon="8.4834761"><ele>555.2</ele><time>2026-05-01T11:05:00.722Z</time></trkpt><trkpt lat="39.3834263" lon="8.4835017"><ele>557.0</ele><time>2026-05-01T11:05:01.723Z</time></trkpt><trkpt lat="39.3833342" lon="8.4835335"><ele>557.0</ele><time>2026-05-01T11:05:02.722Z</time></trkpt><trkpt lat="39.3832518" lon="8.4835713"><ele>557.0</ele><time>2026-05-01T11:05:03.721Z</time></trkpt><trkpt lat="39.3831532" lon="8.4836218"><ele>557.0</ele><time>2026-05-01T11:05:04.721Z</time></trkpt><trkpt lat="39.3830745" lon="8.4836746"><ele>557.0</ele><time>2026-05-01T11:05:05.723Z</time></trkpt><trkpt lat="39.3829934" lon="8.483729"><ele>557.0</ele><time>2026-05-01T11:05:06.722Z</time></trkpt><trkpt lat="39.3829222" lon="8.483804"><ele>558.0</ele><time>2026-05-01T11:05:07.722Z</time></trkpt><trkpt lat="39.3828636" lon="8.4839123"><ele>559.0</ele><time>2026-05-01T11:05:08.722Z</time></trkpt><trkpt lat="39.3828112" lon="8.4840211"><ele>560.0</ele><time>2026-05-01T11:05:09.722Z</time></trkpt><trkpt lat="39.3827595" lon="8.4841386"><ele>561.0</ele><time>2026-05-01T11:05:10.722Z</time></trkpt><trkpt lat="39.3827046" lon="8.4842536"><ele>562.0</ele><time>2026-05-01T11:05:11.723Z</time></trkpt><trkpt lat="39.3826623" lon="8.484361"><ele>562.0</ele><time>2026-05-01T11:05:12.722Z</time></trkpt><trkpt lat="39.3826282" lon="8.484457"><ele>562.0</ele><time>2026-05-01T11:05:13.722Z</time></trkpt><trkpt lat="39.3826107" lon="8.4845466"><ele>562.0</ele><time>2026-05-01T11:05:14.722Z</time></trkpt><trkpt lat="39.3826253" lon="8.4846615"><ele>562.0</ele><time>2026-05-01T11:05:15.722Z</time></trkpt><trkpt lat="39.3826643" lon="8.4847969"><ele>562.0</ele><time>2026-05-01T11:05:16.722Z</time></trkpt><trkpt lat="39.3827197" lon="8.484935"><ele>561.4</ele><time>2026-05-01T11:05:17.721Z</time></trkpt><trkpt lat="39.3827671" lon="8.4850636"><ele>560.8000000000001</ele><time>2026-05-01T11:05:18.721Z</time></trkpt><trkpt lat="39.3828027" lon="8.4851828"><ele>560.2</ele><time>2026-05-01T11:05:19.723Z</time></trkpt><trkpt lat="39.3828278" lon="8.4853151"><ele>559.6</ele><time>2026-05-01T11:05:20.723Z</time></trkpt><trkpt lat="39.3828509" lon="8.4854406"><ele>559.0</ele><time>2026-05-01T11:05:21.722Z</time></trkpt><trkpt lat="39.382871" lon="8.4855671"><ele>558.6666666666667</ele><time>2026-05-01T11:05:22.721Z</time></trkpt><trkpt lat="39.3828819" lon="8.4856876"><ele>558.3333333333334</ele><time>2026-05-01T11:05:23.722Z</time></trkpt><trkpt lat="39.3828841" lon="8.4857997"><ele>558.0</ele><time>2026-05-01T11:05:24.722Z</time></trkpt><trkpt lat="39.3828835" lon="8.485915"><ele>557.6666666666666</ele><time>2026-05-01T11:05:25.723Z</time></trkpt><trkpt lat="39.3828771" lon="8.4860203"><ele>557.3333333333333</ele><time>2026-05-01T11:05:26.722Z</time></trkpt><trkpt lat="39.3828659" lon="8.4861196"><ele>557.0</ele><time>2026-05-01T11:05:27.721Z</time></trkpt><trkpt lat="39.3828489" lon="8.4861993"><ele>553.5</ele><time>2026-05-01T11:05:28.722Z</time></trkpt><trkpt lat="39.3827869" lon="8.4863043"><ele>550.0</ele><time>2026-05-01T11:05:30.721Z</time></trkpt><trkpt lat="39.3826785" lon="8.4863617"><ele>546.5</ele><time>2026-05-01T11:05:32.722Z</time></trkpt><trkpt lat="39.3826096" lon="8.4863771"><ele>543.0</ele><time>2026-05-01T11:05:33.723Z</time></trkpt><trkpt lat="39.3825382" lon="8.486396"><ele>539.5</ele><time>2026-05-01T11:05:34.722Z</time></trkpt><trkpt lat="39.3824681" lon="8.4864138"><ele>536.0</ele><time>2026-05-01T11:05:35.722Z</time></trkpt><trkpt lat="39.3823972" lon="8.4864258"><ele>536.0</ele><time>2026-05-01T11:05:36.721Z</time></trkpt><trkpt lat="39.3823284" lon="8.4864335"><ele>536.0</ele><time>2026-05-01T11:05:37.721Z</time></trkpt><trkpt lat="39.3822568" lon="8.4864417"><ele>536.0</ele><time>2026-05-01T11:05:38.722Z</time></trkpt><trkpt lat="39.3821814" lon="8.4864443"><ele>536.0</ele><time>2026-05-01T11:05:39.723Z</time></trkpt><trkpt lat="39.3821059" lon="8.4864373"><ele>536.0</ele><time>2026-05-01T11:05:40.722Z</time></trkpt><trkpt lat="39.3820223" lon="8.4864295"><ele>536.0</ele><time>2026-05-01T11:05:41.721Z</time></trkpt><trkpt lat="39.3819403" lon="8.4864183"><ele>538.0</ele><time>2026-05-01T11:05:42.721Z</time></trkpt><trkpt lat="39.3818504" lon="8.4864113"><ele>540.0</ele><time>2026-05-01T11:05:43.722Z</time></trkpt><trkpt lat="39.3817654" lon="8.4864025"><ele>542.0</ele><time>2026-05-01T11:05:44.722Z</time></trkpt><trkpt lat="39.3816834" lon="8.486399"><ele>544.0</ele><time>2026-05-01T11:05:45.722Z</time></trkpt><trkpt lat="39.3816155" lon="8.4863918"><ele>546.0</ele><time>2026-05-01T11:05:46.722Z</time></trkpt><trkpt lat="39.3815423" lon="8.4863862"><ele>548.0</ele><time>2026-05-01T11:05:47.723Z</time></trkpt><trkpt lat="39.3814664" lon="8.486388"><ele>548.0</ele><time>2026-05-01T11:05:48.721Z</time></trkpt><trkpt lat="39.3813963" lon="8.4863882"><ele>548.0</ele><time>2026-05-01T11:05:49.721Z</time></trkpt><trkpt lat="39.38133" lon="8.486379"><ele>548.0</ele><time>2026-05-01T11:05:50.722Z</time></trkpt><trkpt lat="39.3812241" lon="8.4864845"><ele>548.0</ele><time>2026-05-01T11:05:52.721Z</time></trkpt><trkpt lat="39.3811755" lon="8.4865572"><ele>548.0</ele><time>2026-05-01T11:05:53.722Z</time></trkpt><trkpt lat="39.3811196" lon="8.4866314"><ele>548.0</ele><time>2026-05-01T11:05:54.721Z</time></trkpt><trkpt lat="39.381062" lon="8.486707"><ele>550.6666666666666</ele><time>2026-05-01T11:05:55.722Z</time></trkpt><trkpt lat="39.3810037" lon="8.4867874"><ele>553.3333333333333</ele><time>2026-05-01T11:05:56.721Z</time></trkpt><trkpt lat="39.3809668" lon="8.4868651"><ele>556.0</ele><time>2026-05-01T11:05:57.721Z</time></trkpt><trkpt lat="39.3809742" lon="8.4870052"><ele>558.6666666666666</ele><time>2026-05-01T11:05:59.721Z</time></trkpt><trkpt lat="39.3810142" lon="8.4870738"><ele>561.3333333333334</ele><time>2026-05-01T11:06:00.721Z</time></trkpt><trkpt lat="39.3811008" lon="8.4871256"><ele>564.0</ele><time>2026-05-01T11:06:01.721Z</time></trkpt><trkpt lat="39.3812033" lon="8.487181"><ele>564.8</ele><time>2026-05-01T11:06:02.722Z</time></trkpt><trkpt lat="39.381292" lon="8.487256"><ele>565.5999999999999</ele><time>2026-05-01T11:06:03.722Z</time></trkpt><trkpt lat="39.3813777" lon="8.4873314"><ele>566.4</ele><time>2026-05-01T11:06:04.721Z</time></trkpt><trkpt lat="39.3814493" lon="8.4874063"><ele>567.1999999999999</ele><time>2026-05-01T11:06:05.722Z</time></trkpt><trkpt lat="39.381521" lon="8.4874882"><ele>568.0</ele><time>2026-05-01T11:06:06.723Z</time></trkpt><trkpt lat="39.3815907" lon="8.48757"><ele>565.5</ele><time>2026-05-01T11:06:07.722Z</time></trkpt><trkpt lat="39.3816521" lon="8.4876477"><ele>563.0</ele><time>2026-05-01T11:06:08.722Z</time></trkpt><trkpt lat="39.3817147" lon="8.4877428"><ele>560.5</ele><time>2026-05-01T11:06:09.721Z</time></trkpt><trkpt lat="39.3817637" lon="8.4878377"><ele>558.0</ele><time>2026-05-01T11:06:10.721Z</time></trkpt><trkpt lat="39.3817917" lon="8.4879423"><ele>555.5</ele><time>2026-05-01T11:06:11.722Z</time></trkpt><trkpt lat="39.3818277" lon="8.4880477"><ele>553.0</ele><time>2026-05-01T11:06:12.722Z</time></trkpt><trkpt lat="39.3818522" lon="8.4881467"><ele>553.0</ele><time>2026-05-01T11:06:13.722Z</time></trkpt><trkpt lat="39.3818481" lon="8.4882578"><ele>553.0</ele><time>2026-05-01T11:06:14.721Z</time></trkpt><trkpt lat="39.3818142" lon="8.4883762"><ele>553.0</ele><time>2026-05-01T11:06:15.722Z</time></trkpt><trkpt lat="39.381776" lon="8.4885028"><ele>553.0</ele><time>2026-05-01T11:06:16.722Z</time></trkpt><trkpt lat="39.3817376" lon="8.4886481"><ele>553.0</ele><time>2026-05-01T11:06:17.722Z</time></trkpt><trkpt lat="39.3816944" lon="8.4887771"><ele>550.6</ele><time>2026-05-01T11:06:18.722Z</time></trkpt><trkpt lat="39.3816447" lon="8.488891"><ele>548.1999999999999</ele><time>2026-05-01T11:06:19.722Z</time></trkpt><trkpt lat="39.3815936" lon="8.4890067"><ele>545.8</ele><time>2026-05-01T11:06:20.723Z</time></trkpt><trkpt lat="39.3815314" lon="8.4891178"><ele>543.4</ele><time>2026-05-01T11:06:21.722Z</time></trkpt><trkpt lat="39.3814708" lon="8.489224"><ele>541.0</ele><time>2026-05-01T11:06:22.721Z</time></trkpt><trkpt lat="39.3814079" lon="8.4893335"><ele>541.6</ele><time>2026-05-01T11:06:23.723Z</time></trkpt><trkpt lat="39.3813455" lon="8.4894332"><ele>542.2</ele><time>2026-05-01T11:06:24.722Z</time></trkpt><trkpt lat="39.3812777" lon="8.4895283"><ele>542.8</ele><time>2026-05-01T11:06:25.722Z</time></trkpt><trkpt lat="39.3812049" lon="8.4896223"><ele>543.4</ele><time>2026-05-01T11:06:26.722Z</time></trkpt><trkpt lat="39.3811347" lon="8.4897126"><ele>544.0</ele><time>2026-05-01T11:06:27.721Z</time></trkpt><trkpt lat="39.3810674" lon="8.4898044"><ele>544.0</ele><time>2026-05-01T11:06:28.722Z</time></trkpt><trkpt lat="39.3809983" lon="8.4898853"><ele>544.0</ele><time>2026-05-01T11:06:29.722Z</time></trkpt><trkpt lat="39.3809303" lon="8.4899627"><ele>544.0</ele><time>2026-05-01T11:06:30.721Z</time></trkpt><trkpt lat="39.3808642" lon="8.4900318"><ele>544.0</ele><time>2026-05-01T11:06:31.721Z</time></trkpt><trkpt lat="39.3808033" lon="8.4900806"><ele>544.0</ele><time>2026-05-01T11:06:32.723Z</time></trkpt><trkpt lat="39.3807391" lon="8.4901063"><ele>544.0</ele><time>2026-05-01T11:06:33.722Z</time></trkpt><trkpt lat="39.3806654" lon="8.4901253"><ele>544.0</ele><time>2026-05-01T11:06:34.722Z</time></trkpt><trkpt lat="39.3805817" lon="8.4901123"><ele>544.0</ele><time>2026-05-01T11:06:35.723Z</time></trkpt><trkpt lat="39.3805018" lon="8.4900705"><ele>544.0</ele><time>2026-05-01T11:06:36.722Z</time></trkpt><trkpt lat="39.3804268" lon="8.4900144"><ele>544.0</ele><time>2026-05-01T11:06:37.723Z</time></trkpt><trkpt lat="39.380359" lon="8.4899621"><ele>544.0</ele><time>2026-05-01T11:06:38.721Z</time></trkpt><trkpt lat="39.3802876" lon="8.4899288"><ele>544.0</ele><time>2026-05-01T11:06:39.722Z</time></trkpt><trkpt lat="39.3802063" lon="8.4899242"><ele>546.0</ele><time>2026-05-01T11:06:40.723Z</time></trkpt><trkpt lat="39.3801129" lon="8.489916"><ele>548.0</ele><time>2026-05-01T11:06:41.722Z</time></trkpt><trkpt lat="39.3800154" lon="8.4899312"><ele>550.0</ele><time>2026-05-01T11:06:42.722Z</time></trkpt><trkpt lat="39.3799138" lon="8.489958"><ele>552.0</ele><time>2026-05-01T11:06:43.722Z</time></trkpt><trkpt lat="39.3798202" lon="8.4899497"><ele>554.0</ele><time>2026-05-01T11:06:44.722Z</time></trkpt><trkpt lat="39.3797287" lon="8.4899378"><ele>554.2857142857142</ele><time>2026-05-01T11:06:45.721Z</time></trkpt><trkpt lat="39.379646" lon="8.4899467"><ele>554.5714285714286</ele><time>2026-05-01T11:06:46.723Z</time></trkpt><trkpt lat="39.3795617" lon="8.4899679"><ele>554.8571428571429</ele><time>2026-05-01T11:06:47.722Z</time></trkpt><trkpt lat="39.3794927" lon="8.489989"><ele>555.1428571428571</ele><time>2026-05-01T11:06:48.723Z</time></trkpt><trkpt lat="39.3794192" lon="8.4900001"><ele>555.4285714285714</ele><time>2026-05-01T11:06:49.722Z</time></trkpt><trkpt lat="39.3793517" lon="8.4899988"><ele>555.7142857142857</ele><time>2026-05-01T11:06:50.721Z</time></trkpt><trkpt lat="39.3792907" lon="8.4899739"><ele>556.0</ele><time>2026-05-01T11:06:51.721Z</time></trkpt><trkpt lat="39.3792163" lon="8.4899346"><ele>556.0</ele><time>2026-05-01T11:06:52.721Z</time></trkpt><trkpt lat="39.3790997" lon="8.4899441"><ele>556.0</ele><time>2026-05-01T11:06:54.722Z</time></trkpt><trkpt lat="39.3790538" lon="8.4900066"><ele>556.0</ele><time>2026-05-01T11:06:55.721Z</time></trkpt><trkpt lat="39.3790352" lon="8.4901208"><ele>556.0</ele><time>2026-05-01T11:06:56.722Z</time></trkpt><trkpt lat="39.3790265" lon="8.4902455"><ele>556.0</ele><time>2026-05-01T11:06:57.723Z</time></trkpt><trkpt lat="39.379005" lon="8.490351"><ele>553.6666666666667</ele><time>2026-05-01T11:06:58.721Z</time></trkpt><trkpt lat="39.3789761" lon="8.4904525"><ele>551.3333333333334</ele><time>2026-05-01T11:06:59.721Z</time></trkpt><trkpt lat="39.3789432" lon="8.4905287"><ele>549.0</ele><time>2026-05-01T11:07:00.722Z</time></trkpt><trkpt lat="39.3788998" lon="8.4905893"><ele>546.6666666666666</ele><time>2026-05-01T11:07:01.721Z</time></trkpt><trkpt lat="39.3788206" lon="8.4906395"><ele>544.3333333333333</ele><time>2026-05-01T11:07:03.721Z</time></trkpt><trkpt lat="39.378727" lon="8.4906327"><ele>542.0</ele><time>2026-05-01T11:07:06.721Z</time></trkpt><trkpt lat="39.3786538" lon="8.4905564"><ele>542.0</ele><time>2026-05-01T11:07:08.722Z</time></trkpt><trkpt lat="39.3785969" lon="8.4904685"><ele>542.0</ele><time>2026-05-01T11:07:10.721Z</time></trkpt><trkpt lat="39.378552" lon="8.4903589"><ele>542.0</ele><time>2026-05-01T11:07:12.721Z</time></trkpt><trkpt lat="39.3784939" lon="8.4902353"><ele>542.0</ele><time>2026-05-01T11:07:14.721Z</time></trkpt><trkpt lat="39.3784436" lon="8.4901132"><ele>542.0</ele><time>2026-05-01T11:07:16.721Z</time></trkpt><trkpt lat="39.3783808" lon="8.489997"><ele>544.5</ele><time>2026-05-01T11:07:18.722Z</time></trkpt><trkpt lat="39.378279" lon="8.4899362"><ele>547.0</ele><time>2026-05-01T11:07:20.721Z</time></trkpt><trkpt lat="39.3782163" lon="8.4899546"><ele>549.5</ele><time>2026-05-01T11:07:21.722Z</time></trkpt><trkpt lat="39.3781604" lon="8.4900127"><ele>552.0</ele><time>2026-05-01T11:07:22.722Z</time></trkpt><trkpt lat="39.3781247" lon="8.4900915"><ele>554.5</ele><time>2026-05-01T11:07:23.72Z</time></trkpt><trkpt lat="39.3780853" lon="8.4901883"><ele>557.0</ele><time>2026-05-01T11:07:24.721Z</time></trkpt><trkpt lat="39.3780233" lon="8.4902955"><ele>556.6</ele><time>2026-05-01T11:07:25.721Z</time></trkpt><trkpt lat="39.377971" lon="8.4904034"><ele>556.2</ele><time>2026-05-01T11:07:26.72Z</time></trkpt><trkpt lat="39.3779255" lon="8.4905333"><ele>555.8</ele><time>2026-05-01T11:07:27.722Z</time></trkpt><trkpt lat="39.3778952" lon="8.4906488"><ele>555.4</ele><time>2026-05-01T11:07:28.722Z</time></trkpt><trkpt lat="39.3778947" lon="8.4907681"><ele>555.0</ele><time>2026-05-01T11:07:29.722Z</time></trkpt><trkpt lat="39.377857" lon="8.4908847"><ele>555.0</ele><time>2026-05-01T11:07:30.72Z</time></trkpt><trkpt lat="39.3778205" lon="8.4909832"><ele>555.0</ele><time>2026-05-01T11:07:31.722Z</time></trkpt><trkpt lat="39.3777696" lon="8.4910731"><ele>555.0</ele><time>2026-05-01T11:07:32.721Z</time></trkpt><trkpt lat="39.3777116" lon="8.4911468"><ele>555.0</ele><time>2026-05-01T11:07:33.72Z</time></trkpt><trkpt lat="39.3776392" lon="8.491208"><ele>555.0</ele><time>2026-05-01T11:07:34.721Z</time></trkpt><trkpt lat="39.3775582" lon="8.4912527"><ele>555.0</ele><time>2026-05-01T11:07:35.72Z</time></trkpt><trkpt lat="39.3774906" lon="8.4912798"><ele>555.0</ele><time>2026-05-01T11:07:36.722Z</time></trkpt><trkpt lat="39.3773871" lon="8.4912743"><ele>555.0</ele><time>2026-05-01T11:07:38.722Z</time></trkpt><trkpt lat="39.3773082" lon="8.4911954"><ele>555.0</ele><time>2026-05-01T11:07:40.72Z</time></trkpt><trkpt lat="39.3772754" lon="8.4911164"><ele>555.0</ele><time>2026-05-01T11:07:41.722Z</time></trkpt><trkpt lat="39.3772453" lon="8.4910216"><ele>555.0</ele><time>2026-05-01T11:07:42.721Z</time></trkpt><trkpt lat="39.3772014" lon="8.4909133"><ele>555.0</ele><time>2026-05-01T11:07:43.721Z</time></trkpt><trkpt lat="39.3771519" lon="8.4908015"><ele>554.2</ele><time>2026-05-01T11:07:44.721Z</time></trkpt><trkpt lat="39.3770921" lon="8.4907023"><ele>553.4</ele><time>2026-05-01T11:07:45.721Z</time></trkpt><trkpt lat="39.377025" lon="8.4906024"><ele>552.6</ele><time>2026-05-01T11:07:46.72Z</time></trkpt><trkpt lat="39.3769438" lon="8.4905062"><ele>551.8</ele><time>2026-05-01T11:07:47.721Z</time></trkpt><trkpt lat="39.3768631" lon="8.4904156"><ele>551.0</ele><time>2026-05-01T11:07:48.72Z</time></trkpt><trkpt lat="39.3767735" lon="8.4903486"><ele>554.3333333333333</ele><time>2026-05-01T11:07:49.722Z</time></trkpt><trkpt lat="39.3766969" lon="8.4902912"><ele>557.6666666666666</ele><time>2026-05-01T11:07:50.72Z</time></trkpt><trkpt lat="39.3766383" lon="8.4902337"><ele>561.0</ele><time>2026-05-01T11:07:51.72Z</time></trkpt><trkpt lat="39.3765832" lon="8.4901882"><ele>564.3333333333334</ele><time>2026-05-01T11:07:52.722Z</time></trkpt><trkpt lat="39.3765167" lon="8.4901951"><ele>567.6666666666667</ele><time>2026-05-01T11:07:53.721Z</time></trkpt><trkpt lat="39.3764152" lon="8.4902658"><ele>571.0</ele><time>2026-05-01T11:07:55.72Z</time></trkpt><trkpt lat="39.3764265" lon="8.490412"><ele>567.0</ele><time>2026-05-01T11:07:56.72Z</time></trkpt><trkpt lat="39.3764077" lon="8.4905387"><ele>563.0</ele><time>2026-05-01T11:07:57.722Z</time></trkpt><trkpt lat="39.3764214" lon="8.4907141"><ele>559.0</ele><time>2026-05-01T11:07:58.721Z</time></trkpt><trkpt lat="39.3764283" lon="8.4908609"><ele>555.0</ele><time>2026-05-01T11:07:59.72Z</time></trkpt><trkpt lat="39.3764161" lon="8.4909574"><ele>551.0</ele><time>2026-05-01T11:08:00.721Z</time></trkpt><trkpt lat="39.3764019" lon="8.4910663"><ele>551.0</ele><time>2026-05-01T11:08:01.72Z</time></trkpt><trkpt lat="39.376385" lon="8.4911649"><ele>551.0</ele><time>2026-05-01T11:08:02.72Z</time></trkpt><trkpt lat="39.3763779" lon="8.4912571"><ele>551.0</ele><time>2026-05-01T11:08:03.721Z</time></trkpt><trkpt lat="39.3763925" lon="8.4913583"><ele>551.0</ele><time>2026-05-01T11:08:04.721Z</time></trkpt><trkpt lat="39.3763868" lon="8.4914711"><ele>551.0</ele><time>2026-05-01T11:08:05.721Z</time></trkpt><trkpt lat="39.3763694" lon="8.4916035"><ele>551.0</ele><time>2026-05-01T11:08:06.721Z</time></trkpt><trkpt lat="39.3763479" lon="8.4917434"><ele>551.2</ele><time>2026-05-01T11:08:07.721Z</time></trkpt><trkpt lat="39.3763055" lon="8.4918908"><ele>551.4000000000001</ele><time>2026-05-01T11:08:08.721Z</time></trkpt><trkpt lat="39.3762703" lon="8.4920398"><ele>551.6</ele><time>2026-05-01T11:08:09.72Z</time></trkpt><trkpt lat="39.3762175" lon="8.4921558"><ele>551.8000000000001</ele><time>2026-05-01T11:08:10.721Z</time></trkpt><trkpt lat="39.3761588" lon="8.4922432"><ele>552.0</ele><time>2026-05-01T11:08:11.721Z</time></trkpt><trkpt lat="39.3761034" lon="8.4923049"><ele>552.0</ele><time>2026-05-01T11:08:12.722Z</time></trkpt><trkpt lat="39.3760144" lon="8.4923505"><ele>552.0</ele><time>2026-05-01T11:08:13.72Z</time></trkpt><trkpt lat="39.3759116" lon="8.492392"><ele>552.0</ele><time>2026-05-01T11:08:14.721Z</time></trkpt><trkpt lat="39.3757999" lon="8.4923955"><ele>552.0</ele><time>2026-05-01T11:08:15.721Z</time></trkpt><trkpt lat="39.3756996" lon="8.4924076"><ele>552.0</ele><time>2026-05-01T11:08:16.721Z</time></trkpt><trkpt lat="39.3755944" lon="8.4924667"><ele>552.0</ele><time>2026-05-01T11:08:17.721Z</time></trkpt><trkpt lat="39.3754992" lon="8.4925293"><ele>552.0</ele><time>2026-05-01T11:08:18.722Z</time></trkpt><trkpt lat="39.3754151" lon="8.4926319"><ele>552.0</ele><time>2026-05-01T11:08:19.72Z</time></trkpt><trkpt lat="39.3753837" lon="8.4927663"><ele>552.0</ele><time>2026-05-01T11:08:20.721Z</time></trkpt><trkpt lat="39.3753694" lon="8.4928887"><ele>552.0</ele><time>2026-05-01T11:08:21.721Z</time></trkpt><trkpt lat="39.3753179" lon="8.4929564"><ele>552.0</ele><time>2026-05-01T11:08:22.721Z</time></trkpt><trkpt lat="39.3752513" lon="8.4930238"><ele>552.0</ele><time>2026-05-01T11:08:23.721Z</time></trkpt><trkpt lat="39.3751711" lon="8.493036"><ele>552.0</ele><time>2026-05-01T11:08:24.721Z</time></trkpt><trkpt lat="39.3750809" lon="8.4930567"><ele>552.0</ele><time>2026-05-01T11:08:25.721Z</time></trkpt><trkpt lat="39.3749856" lon="8.4930759"><ele>552.0</ele><time>2026-05-01T11:08:26.721Z</time></trkpt><trkpt lat="39.374917" lon="8.4931399"><ele>552.0</ele><time>2026-05-01T11:08:27.721Z</time></trkpt><trkpt lat="39.3748689" lon="8.4932131"><ele>552.0</ele><time>2026-05-01T11:08:28.722Z</time></trkpt><trkpt lat="39.3748703" lon="8.4933326"><ele>552.0</ele><time>2026-05-01T11:08:29.722Z</time></trkpt><trkpt lat="39.3748487" lon="8.493426"><ele>552.0</ele><time>2026-05-01T11:08:30.721Z</time></trkpt><trkpt lat="39.3748175" lon="8.493512"><ele>552.0</ele><time>2026-05-01T11:08:31.721Z</time></trkpt><trkpt lat="39.3747584" lon="8.4936068"><ele>552.0</ele><time>2026-05-01T11:08:32.722Z</time></trkpt><trkpt lat="39.3746941" lon="8.4936975"><ele>552.0</ele><time>2026-05-01T11:08:33.72Z</time></trkpt><trkpt lat="39.37467" lon="8.4937936"><ele>550.0</ele><time>2026-05-01T11:08:34.721Z</time></trkpt><trkpt lat="39.3746703" lon="8.4939123"><ele>548.0</ele><time>2026-05-01T11:08:35.721Z</time></trkpt><trkpt lat="39.3747065" lon="8.4940451"><ele>546.0</ele><time>2026-05-01T11:08:36.721Z</time></trkpt><trkpt lat="39.3747397" lon="8.4941655"><ele>544.0</ele><time>2026-05-01T11:08:37.722Z</time></trkpt><trkpt lat="39.3747538" lon="8.4942663"><ele>542.0</ele><time>2026-05-01T11:08:38.721Z</time></trkpt><trkpt lat="39.3747519" lon="8.4943749"><ele>542.0</ele><time>2026-05-01T11:08:39.722Z</time></trkpt><trkpt lat="39.3747195" lon="8.4944979"><ele>542.0</ele><time>2026-05-01T11:08:40.722Z</time></trkpt><trkpt lat="39.3746743" lon="8.4946264"><ele>542.0</ele><time>2026-05-01T11:08:41.72Z</time></trkpt><trkpt lat="39.3746125" lon="8.4947482"><ele>542.0</ele><time>2026-05-01T11:08:42.72Z</time></trkpt><trkpt lat="39.374549" lon="8.494838"><ele>542.0</ele><time>2026-05-01T11:08:43.721Z</time></trkpt><trkpt lat="39.3744761" lon="8.4949256"><ele>543.5</ele><time>2026-05-01T11:08:44.721Z</time></trkpt><trkpt lat="39.3744083" lon="8.4949776"><ele>545.0</ele><time>2026-05-01T11:08:45.721Z</time></trkpt><trkpt lat="39.3743543" lon="8.4950439"><ele>546.5</ele><time>2026-05-01T11:08:46.721Z</time></trkpt><trkpt lat="39.374308" lon="8.4951241"><ele>548.0</ele><time>2026-05-01T11:08:47.721Z</time></trkpt><trkpt lat="39.374264" lon="8.495213"><ele>549.5</ele><time>2026-05-01T11:08:48.721Z</time></trkpt><trkpt lat="39.3742459" lon="8.4953115"><ele>551.0</ele><time>2026-05-01T11:08:49.721Z</time></trkpt><trkpt lat="39.3742512" lon="8.4954381"><ele>551.0</ele><time>2026-05-01T11:08:50.721Z</time></trkpt><trkpt lat="39.3742777" lon="8.4955681"><ele>551.0</ele><time>2026-05-01T11:08:51.721Z</time></trkpt><trkpt lat="39.3742979" lon="8.4956656"><ele>551.0</ele><time>2026-05-01T11:08:52.721Z</time></trkpt><trkpt lat="39.3742952" lon="8.4957569"><ele>551.0</ele><time>2026-05-01T11:08:53.72Z</time></trkpt><trkpt lat="39.3742706" lon="8.4958641"><ele>551.0</ele><time>2026-05-01T11:08:54.72Z</time></trkpt><trkpt lat="39.3742263" lon="8.4959802"><ele>551.0</ele><time>2026-05-01T11:08:55.72Z</time></trkpt><trkpt lat="39.3741884" lon="8.496099"><ele>551.0</ele><time>2026-05-01T11:08:56.721Z</time></trkpt><trkpt lat="39.3741506" lon="8.4962107"><ele>551.0</ele><time>2026-05-01T11:08:57.722Z</time></trkpt><trkpt lat="39.3741188" lon="8.4963205"><ele>551.0</ele><time>2026-05-01T11:08:58.721Z</time></trkpt><trkpt lat="39.3740834" lon="8.4964412"><ele>551.0</ele><time>2026-05-01T11:08:59.721Z</time></trkpt><trkpt lat="39.3740273" lon="8.4965877"><ele>551.0</ele><time>2026-05-01T11:09:00.72Z</time></trkpt><trkpt lat="39.3739498" lon="8.4967461"><ele>550.2</ele><time>2026-05-01T11:09:01.72Z</time></trkpt><trkpt lat="39.373871" lon="8.4968723"><ele>549.4000000000001</ele><time>2026-05-01T11:09:02.722Z</time></trkpt><trkpt lat="39.3737934" lon="8.4969951"><ele>548.6</ele><time>2026-05-01T11:09:03.722Z</time></trkpt><trkpt lat="39.373737" lon="8.4970816"><ele>547.8000000000001</ele><time>2026-05-01T11:09:04.721Z</time></trkpt><trkpt lat="39.3736879" lon="8.4971521"><ele>547.0</ele><time>2026-05-01T11:09:05.721Z</time></trkpt><trkpt lat="39.3736705" lon="8.497234"><ele>547.0</ele><time>2026-05-01T11:09:08.722Z</time></trkpt><trkpt lat="39.3737466" lon="8.4972056"><ele>547.0</ele><time>2026-05-01T11:09:12.722Z</time></trkpt><trkpt lat="39.3737886" lon="8.4971357"><ele>547.0</ele><time>2026-05-01T11:09:13.721Z</time></trkpt><trkpt lat="39.3738485" lon="8.4970325"><ele>547.0</ele><time>2026-05-01T11:09:14.722Z</time></trkpt><trkpt lat="39.3739367" lon="8.4968986"><ele>547.0</ele><time>2026-05-01T11:09:15.722Z</time></trkpt><trkpt lat="39.3740462" lon="8.4967427"><ele>546.6666666666667</ele><time>2026-05-01T11:09:16.721Z</time></trkpt><trkpt lat="39.3741717" lon="8.4965601"><ele>546.3333333333334</ele><time>2026-05-01T11:09:17.721Z</time></trkpt><trkpt lat="39.3743161" lon="8.4963461"><ele>546.0</ele><time>2026-05-01T11:09:18.722Z</time></trkpt><trkpt lat="39.3744294" lon="8.496153"><ele>547.25</ele><time>2026-05-01T11:09:19.722Z</time></trkpt><trkpt lat="39.3745211" lon="8.495976"><ele>548.5</ele><time>2026-05-01T11:09:20.721Z</time></trkpt><trkpt lat="39.3745911" lon="8.495816"><ele>549.75</ele><time>2026-05-01T11:09:21.72Z</time></trkpt><trkpt lat="39.374615" lon="8.4956492"><ele>551.0</ele><time>2026-05-01T11:09:22.721Z</time></trkpt><trkpt lat="39.3746017" lon="8.4954869"><ele>553.0</ele><time>2026-05-01T11:09:23.72Z</time></trkpt><trkpt lat="39.3746005" lon="8.4953473"><ele>555.0</ele><time>2026-05-01T11:09:24.721Z</time></trkpt><trkpt lat="39.3746382" lon="8.4952326"><ele>557.0</ele><time>2026-05-01T11:09:25.721Z</time></trkpt><trkpt lat="39.3747037" lon="8.4951369"><ele>559.0</ele><time>2026-05-01T11:09:26.722Z</time></trkpt><trkpt lat="39.3747973" lon="8.4950572"><ele>561.0</ele><time>2026-05-01T11:09:27.721Z</time></trkpt><trkpt lat="39.3748975" lon="8.494972"><ele>554.6666666666666</ele><time>2026-05-01T11:09:28.721Z</time></trkpt><trkpt lat="39.3750154" lon="8.4948592"><ele>548.3333333333333</ele><time>2026-05-01T11:09:29.72Z</time></trkpt><trkpt lat="39.3751204" lon="8.4946905"><ele>542.0</ele><time>2026-05-01T11:09:30.721Z</time></trkpt><trkpt lat="39.3752037" lon="8.4945257"><ele>542.0</ele><time>2026-05-01T11:09:31.721Z</time></trkpt><trkpt lat="39.3752394" lon="8.4943671"><ele>542.0</ele><time>2026-05-01T11:09:32.721Z</time></trkpt><trkpt lat="39.3752478" lon="8.494218"><ele>542.0</ele><time>2026-05-01T11:09:33.72Z</time></trkpt><trkpt lat="39.3751984" lon="8.4940854"><ele>542.0</ele><time>2026-05-01T11:09:34.72Z</time></trkpt><trkpt lat="39.3751609" lon="8.4939586"><ele>542.0</ele><time>2026-05-01T11:09:35.721Z</time></trkpt><trkpt lat="39.3751633" lon="8.4938121"><ele>542.0</ele><time>2026-05-01T11:09:36.72Z</time></trkpt><trkpt lat="39.3752079" lon="8.4936717"><ele>542.0</ele><time>2026-05-01T11:09:37.72Z</time></trkpt><trkpt lat="39.3752882" lon="8.4935308"><ele>542.0</ele><time>2026-05-01T11:09:38.721Z</time></trkpt><trkpt lat="39.3753819" lon="8.4934"><ele>536.3333333333333</ele><time>2026-05-01T11:09:39.722Z</time></trkpt><trkpt lat="39.3755243" lon="8.4933032"><ele>530.6666666666666</ele><time>2026-05-01T11:09:40.721Z</time></trkpt><trkpt lat="39.3756833" lon="8.493225"><ele>525.0</ele><time>2026-05-01T11:09:41.721Z</time></trkpt><trkpt lat="39.3758036" lon="8.4931138"><ele>525.0</ele><time>2026-05-01T11:09:42.721Z</time></trkpt><trkpt lat="39.3758996" lon="8.493003"><ele>525.0</ele><time>2026-05-01T11:09:43.721Z</time></trkpt><trkpt lat="39.3759859" lon="8.4929066"><ele>525.0</ele><time>2026-05-01T11:09:44.722Z</time></trkpt><trkpt lat="39.3760967" lon="8.4928476"><ele>525.0</ele><time>2026-05-01T11:09:45.722Z</time></trkpt><trkpt lat="39.3762287" lon="8.4928287"><ele>522.0</ele><time>2026-05-01T11:09:46.721Z</time></trkpt><trkpt lat="39.3763401" lon="8.4929178"><ele>519.0</ele><time>2026-05-01T11:09:47.721Z</time></trkpt><trkpt lat="39.3764272" lon="8.4930088"><ele>516.0</ele><time>2026-05-01T11:09:48.72Z</time></trkpt><trkpt lat="39.3765169" lon="8.4931064"><ele>513.0</ele><time>2026-05-01T11:09:49.721Z</time></trkpt><trkpt lat="39.3766171" lon="8.4931529"><ele>513.0</ele><time>2026-05-01T11:09:50.721Z</time></trkpt><trkpt lat="39.3767403" lon="8.4931551"><ele>513.0</ele><time>2026-05-01T11:09:51.721Z</time></trkpt><trkpt lat="39.3768707" lon="8.4931191"><ele>513.0</ele><time>2026-05-01T11:09:52.721Z</time></trkpt><trkpt lat="39.377003" lon="8.4930443"><ele>513.0</ele><time>2026-05-01T11:09:53.721Z</time></trkpt><trkpt lat="39.3771317" lon="8.4929559"><ele>513.25</ele><time>2026-05-01T11:09:54.72Z</time></trkpt><trkpt lat="39.377247" lon="8.4928618"><ele>513.5</ele><time>2026-05-01T11:09:55.721Z</time></trkpt><trkpt lat="39.3773432" lon="8.4927677"><ele>513.75</ele><time>2026-05-01T11:09:56.722Z</time></trkpt><trkpt lat="39.3774023" lon="8.4926625"><ele>514.0</ele><time>2026-05-01T11:09:57.72Z</time></trkpt><trkpt lat="39.3774104" lon="8.4925345"><ele>514.0</ele><time>2026-05-01T11:09:58.72Z</time></trkpt><trkpt lat="39.3773831" lon="8.4923995"><ele>514.0</ele><time>2026-05-01T11:09:59.721Z</time></trkpt><trkpt lat="39.377379" lon="8.4922707"><ele>514.0</ele><time>2026-05-01T11:10:00.72Z</time></trkpt><trkpt lat="39.3774178" lon="8.4921759"><ele>514.0</ele><time>2026-05-01T11:10:01.721Z</time></trkpt><trkpt lat="39.3774969" lon="8.492119"><ele>514.0</ele><time>2026-05-01T11:10:02.721Z</time></trkpt><trkpt lat="39.3775829" lon="8.4920674"><ele>514.0</ele><time>2026-05-01T11:10:03.721Z</time></trkpt><trkpt lat="39.3777533" lon="8.4920921"><ele>514.0</ele><time>2026-05-01T11:10:04.722Z</time></trkpt><trkpt lat="39.3778886" lon="8.4920588"><ele>514.0</ele><time>2026-05-01T11:10:05.721Z</time></trkpt><trkpt lat="39.3780189" lon="8.4920489"><ele>514.0</ele><time>2026-05-01T11:10:06.721Z</time></trkpt><trkpt lat="39.3781397" lon="8.4920845"><ele>513.25</ele><time>2026-05-01T11:10:07.721Z</time></trkpt><trkpt lat="39.3782519" lon="8.49212"><ele>512.5</ele><time>2026-05-01T11:10:08.722Z</time></trkpt><trkpt lat="39.3783487" lon="8.4922936"><ele>511.75</ele><time>2026-05-01T11:10:09.722Z</time></trkpt><trkpt lat="39.3784207" lon="8.4924481"><ele>511.0</ele><time>2026-05-01T11:10:10.722Z</time></trkpt><trkpt lat="39.3784939" lon="8.492584"><ele>511.0</ele><time>2026-05-01T11:10:11.72Z</time></trkpt><trkpt lat="39.3785655" lon="8.4927097"><ele>511.0</ele><time>2026-05-01T11:10:12.722Z</time></trkpt><trkpt lat="39.3786302" lon="8.4928295"><ele>511.0</ele><time>2026-05-01T11:10:13.722Z</time></trkpt><trkpt lat="39.3786867" lon="8.4929441"><ele>511.0</ele><time>2026-05-01T11:10:14.722Z</time></trkpt><trkpt lat="39.3787396" lon="8.4930475"><ele>511.0</ele><time>2026-05-01T11:10:15.721Z</time></trkpt><trkpt lat="39.3787958" lon="8.4931581"><ele>509.4</ele><time>2026-05-01T11:10:16.721Z</time></trkpt><trkpt lat="39.3788522" lon="8.4932615"><ele>507.8</ele><time>2026-05-01T11:10:17.72Z</time></trkpt><trkpt lat="39.3789053" lon="8.4933731"><ele>506.19999999999993</ele><time>2026-05-01T11:10:18.72Z</time></trkpt><trkpt lat="39.3789529" lon="8.493481"><ele>504.59999999999997</ele><time>2026-05-01T11:10:19.72Z</time></trkpt><trkpt lat="39.3789998" lon="8.4935737"><ele>503.0</ele><time>2026-05-01T11:10:20.721Z</time></trkpt><trkpt lat="39.3790503" lon="8.4936587"><ele>503.0</ele><time>2026-05-01T11:10:21.72Z</time></trkpt><trkpt lat="39.379109" lon="8.4937324"><ele>502.99999999999994</ele><time>2026-05-01T11:10:22.72Z</time></trkpt><trkpt lat="39.3791759" lon="8.4938012"><ele>502.99999999999994</ele><time>2026-05-01T11:10:23.721Z</time></trkpt><trkpt lat="39.3792525" lon="8.4938638"><ele>503.0</ele><time>2026-05-01T11:10:24.721Z</time></trkpt><trkpt lat="39.3793336" lon="8.493935"><ele>503.0</ele><time>2026-05-01T11:10:25.721Z</time></trkpt><trkpt lat="39.3794201" lon="8.4940045"><ele>500.49999999999994</ele><time>2026-05-01T11:10:26.721Z</time></trkpt><trkpt lat="39.379506" lon="8.4940736"><ele>498.0</ele><time>2026-05-01T11:10:27.721Z</time></trkpt><trkpt lat="39.3795857" lon="8.4941382"><ele>495.5</ele><time>2026-05-01T11:10:28.721Z</time></trkpt><trkpt lat="39.3796617" lon="8.4941889"><ele>493.0</ele><time>2026-05-01T11:10:29.72Z</time></trkpt><trkpt lat="39.3797366" lon="8.4942033"><ele>490.49999999999994</ele><time>2026-05-01T11:10:30.72Z</time></trkpt><trkpt lat="39.3798091" lon="8.4941862"><ele>488.0</ele><time>2026-05-01T11:10:31.72Z</time></trkpt><trkpt lat="39.3798783" lon="8.4941428"><ele>487.8333333333333</ele><time>2026-05-01T11:10:32.722Z</time></trkpt><trkpt lat="39.3799345" lon="8.4940689"><ele>487.66666666666663</ele><time>2026-05-01T11:10:33.721Z</time></trkpt><trkpt lat="39.3799748" lon="8.4939891"><ele>487.5</ele><time>2026-05-01T11:10:34.721Z</time></trkpt><trkpt lat="39.380012" lon="8.4939011"><ele>487.33333333333337</ele><time>2026-05-01T11:10:35.721Z</time></trkpt><trkpt lat="39.3800457" lon="8.4938113"><ele>487.1666666666667</ele><time>2026-05-01T11:10:36.721Z</time></trkpt><trkpt lat="39.380093" lon="8.4937282"><ele>487.0</ele><time>2026-05-01T11:10:37.721Z</time></trkpt><trkpt lat="39.3801587" lon="8.4936584"><ele>488.6666666666667</ele><time>2026-05-01T11:10:38.72Z</time></trkpt><trkpt lat="39.3802334" lon="8.4936047"><ele>490.33333333333337</ele><time>2026-05-01T11:10:39.72Z</time></trkpt><trkpt lat="39.3803124" lon="8.4935594"><ele>492.0</ele><time>2026-05-01T11:10:40.721Z</time></trkpt><trkpt lat="39.380392" lon="8.4935187"><ele>493.66666666666663</ele><time>2026-05-01T11:10:41.721Z</time></trkpt><trkpt lat="39.3804803" lon="8.4934978"><ele>495.3333333333333</ele><time>2026-05-01T11:10:42.722Z</time></trkpt><trkpt lat="39.3805705" lon="8.4934992"><ele>497.0</ele><time>2026-05-01T11:10:43.721Z</time></trkpt><trkpt lat="39.3806571" lon="8.4935337"><ele>496.99999999999994</ele><time>2026-05-01T11:10:44.721Z</time></trkpt><trkpt lat="39.3807387" lon="8.4935954"><ele>497.0</ele><time>2026-05-01T11:10:45.721Z</time></trkpt><trkpt lat="39.3808074" lon="8.4936665"><ele>497.0</ele><time>2026-05-01T11:10:46.722Z</time></trkpt><trkpt lat="39.3808693" lon="8.4937513"><ele>497.0</ele><time>2026-05-01T11:10:47.72Z</time></trkpt><trkpt lat="39.380928" lon="8.4938337"><ele>496.99999999999994</ele><time>2026-05-01T11:10:48.72Z</time></trkpt><trkpt lat="39.380994" lon="8.4938992"><ele>497.0</ele><time>2026-05-01T11:10:49.722Z</time></trkpt><trkpt lat="39.3810687" lon="8.4939533"><ele>493.8333333333333</ele><time>2026-05-01T11:10:50.721Z</time></trkpt><trkpt lat="39.381153" lon="8.4939763"><ele>490.66666666666663</ele><time>2026-05-01T11:10:51.722Z</time></trkpt><trkpt lat="39.3812407" lon="8.4939953"><ele>487.5</ele><time>2026-05-01T11:10:52.722Z</time></trkpt><trkpt lat="39.3813289" lon="8.4940065"><ele>484.33333333333337</ele><time>2026-05-01T11:10:53.721Z</time></trkpt><trkpt lat="39.3814169" lon="8.4939831"><ele>481.1666666666667</ele><time>2026-05-01T11:10:54.721Z</time></trkpt><trkpt lat="39.381496" lon="8.4939278"><ele>478.0</ele><time>2026-05-01T11:10:55.722Z</time></trkpt><trkpt lat="39.3815644" lon="8.4938656"><ele>479.00000000000006</ele><time>2026-05-01T11:10:56.721Z</time></trkpt><trkpt lat="39.381628" lon="8.4937962"><ele>480.0</ele><time>2026-05-01T11:10:57.722Z</time></trkpt><trkpt lat="39.3816901" lon="8.4937355"><ele>481.0</ele><time>2026-05-01T11:10:58.72Z</time></trkpt><trkpt lat="39.3817517" lon="8.4936567"><ele>482.0</ele><time>2026-05-01T11:10:59.722Z</time></trkpt><trkpt lat="39.3817887" lon="8.4935567"><ele>483.00000000000006</ele><time>2026-05-01T11:11:00.721Z</time></trkpt><trkpt lat="39.3818049" lon="8.4934184"><ele>484.0</ele><time>2026-05-01T11:11:01.721Z</time></trkpt><trkpt lat="39.3818174" lon="8.493219"><ele>484.0</ele><time>2026-05-01T11:11:02.722Z</time></trkpt><trkpt lat="39.3818385" lon="8.4930044"><ele>484.0</ele><time>2026-05-01T11:11:03.721Z</time></trkpt><trkpt lat="39.3818619" lon="8.4927786"><ele>484.0</ele><time>2026-05-01T11:11:04.722Z</time></trkpt><trkpt lat="39.381868" lon="8.4925393"><ele>484.0</ele><time>2026-05-01T11:11:05.72Z</time></trkpt><trkpt lat="39.381862" lon="8.4923212"><ele>484.0</ele><time>2026-05-01T11:11:06.721Z</time></trkpt><trkpt lat="39.3818409" lon="8.4921214"><ele>484.0</ele><time>2026-05-01T11:11:07.721Z</time></trkpt><trkpt lat="39.3818203" lon="8.4919487"><ele>483.75</ele><time>2026-05-01T11:11:08.72Z</time></trkpt><trkpt lat="39.3818361" lon="8.4917979"><ele>483.5</ele><time>2026-05-01T11:11:09.721Z</time></trkpt><trkpt lat="39.3818929" lon="8.4916907"><ele>483.25</ele><time>2026-05-01T11:11:10.721Z</time></trkpt><trkpt lat="39.3819993" lon="8.4916069"><ele>483.0</ele><time>2026-05-01T11:11:11.722Z</time></trkpt><trkpt lat="39.3821328" lon="8.4915354"><ele>479.75</ele><time>2026-05-01T11:11:12.722Z</time></trkpt><trkpt lat="39.3822593" lon="8.4914799"><ele>476.5</ele><time>2026-05-01T11:11:13.72Z</time></trkpt><trkpt lat="39.3823809" lon="8.4914645"><ele>473.25</ele><time>2026-05-01T11:11:14.72Z</time></trkpt><trkpt lat="39.3825023" lon="8.4915003"><ele>470.0</ele><time>2026-05-01T11:11:15.72Z</time></trkpt><trkpt lat="39.3826024" lon="8.4916094"><ele>470.0</ele><time>2026-05-01T11:11:16.721Z</time></trkpt><trkpt lat="39.3826823" lon="8.4917878"><ele>470.0</ele><time>2026-05-01T11:11:17.722Z</time></trkpt><trkpt lat="39.3827385" lon="8.49201"><ele>470.0</ele><time>2026-05-01T11:11:18.72Z</time></trkpt><trkpt lat="39.3827869" lon="8.4922604"><ele>465.0</ele><time>2026-05-01T11:11:19.721Z</time></trkpt><trkpt lat="39.3828525" lon="8.4925343"><ele>460.0</ele><time>2026-05-01T11:11:20.721Z</time></trkpt><trkpt lat="39.3829304" lon="8.4928169"><ele>460.6666666666667</ele><time>2026-05-01T11:11:21.721Z</time></trkpt><trkpt lat="39.3830061" lon="8.4930928"><ele>461.33333333333337</ele><time>2026-05-01T11:11:22.721Z</time></trkpt><trkpt lat="39.3830763" lon="8.4933663"><ele>462.0</ele><time>2026-05-01T11:11:23.722Z</time></trkpt><trkpt lat="39.3831405" lon="8.4936325"><ele>458.33333333333337</ele><time>2026-05-01T11:11:24.721Z</time></trkpt><trkpt lat="39.3832029" lon="8.4938943"><ele>454.6666666666667</ele><time>2026-05-01T11:11:25.721Z</time></trkpt><trkpt lat="39.383268" lon="8.4941495"><ele>451.0</ele><time>2026-05-01T11:11:26.721Z</time></trkpt><trkpt lat="39.3833314" lon="8.4943818"><ele>448.33333333333337</ele><time>2026-05-01T11:11:27.721Z</time></trkpt><trkpt lat="39.3833907" lon="8.4946248"><ele>445.66666666666663</ele><time>2026-05-01T11:11:28.72Z</time></trkpt><trkpt lat="39.383455" lon="8.494859"><ele>443.0</ele><time>2026-05-01T11:11:29.721Z</time></trkpt><trkpt lat="39.3835394" lon="8.4950747"><ele>443.0</ele><time>2026-05-01T11:11:30.721Z</time></trkpt><trkpt lat="39.383637" lon="8.4952662"><ele>443.0</ele><time>2026-05-01T11:11:31.721Z</time></trkpt><trkpt lat="39.3837342" lon="8.4954131"><ele>443.0</ele><time>2026-05-01T11:11:32.72Z</time></trkpt><trkpt lat="39.3838432" lon="8.4955241"><ele>443.25</ele><time>2026-05-01T11:11:33.72Z</time></trkpt><trkpt lat="39.3839623" lon="8.4955774"><ele>443.5</ele><time>2026-05-01T11:11:34.722Z</time></trkpt><trkpt lat="39.3840834" lon="8.4955783"><ele>443.75</ele><time>2026-05-01T11:11:35.721Z</time></trkpt><trkpt lat="39.3842002" lon="8.4955247"><ele>444.0</ele><time>2026-05-01T11:11:36.72Z</time></trkpt><trkpt lat="39.3842927" lon="8.4954067"><ele>444.66666666666663</ele><time>2026-05-01T11:11:37.721Z</time></trkpt><trkpt lat="39.3843775" lon="8.4952535"><ele>445.3333333333333</ele><time>2026-05-01T11:11:38.721Z</time></trkpt><trkpt lat="39.3844235" lon="8.4950575"><ele>446.0</ele><time>2026-05-01T11:11:39.722Z</time></trkpt><trkpt lat="39.3844534" lon="8.4948683"><ele>446.0</ele><time>2026-05-01T11:11:40.721Z</time></trkpt><trkpt lat="39.3844512" lon="8.4946675"><ele>446.0</ele><time>2026-05-01T11:11:41.721Z</time></trkpt><trkpt lat="39.3844103" lon="8.4944752"><ele>446.0</ele><time>2026-05-01T11:11:42.722Z</time></trkpt><trkpt lat="39.3843812" lon="8.4942889"><ele>446.3333333333333</ele><time>2026-05-01T11:11:43.72Z</time></trkpt><trkpt lat="39.384388" lon="8.4941047"><ele>446.66666666666663</ele><time>2026-05-01T11:11:44.72Z</time></trkpt><trkpt lat="39.3844285" lon="8.4939175"><ele>447.0</ele><time>2026-05-01T11:11:45.722Z</time></trkpt><trkpt lat="39.3844754" lon="8.4937181"><ele>448.66666666666663</ele><time>2026-05-01T11:11:46.721Z</time></trkpt><trkpt lat="39.3845218" lon="8.4935217"><ele>450.3333333333333</ele><time>2026-05-01T11:11:47.721Z</time></trkpt><trkpt lat="39.3845698" lon="8.4933299"><ele>452.0</ele><time>2026-05-01T11:11:48.721Z</time></trkpt><trkpt lat="39.3846357" lon="8.4931742"><ele>445.75</ele><time>2026-05-01T11:11:49.721Z</time></trkpt><trkpt lat="39.3847208" lon="8.4930835"><ele>439.5</ele><time>2026-05-01T11:11:50.721Z</time></trkpt><trkpt lat="39.3848331" lon="8.493033"><ele>433.25</ele><time>2026-05-01T11:11:51.72Z</time></trkpt><trkpt lat="39.3849472" lon="8.4930085"><ele>427.0</ele><time>2026-05-01T11:11:52.721Z</time></trkpt><trkpt lat="39.3850522" lon="8.492934"><ele>430.0</ele><time>2026-05-01T11:11:53.721Z</time></trkpt><trkpt lat="39.3851278" lon="8.4927909"><ele>433.0</ele><time>2026-05-01T11:11:54.721Z</time></trkpt><trkpt lat="39.3851996" lon="8.4926241"><ele>436.0</ele><time>2026-05-01T11:11:55.721Z</time></trkpt><trkpt lat="39.3853101" lon="8.4924869"><ele>439.0</ele><time>2026-05-01T11:11:56.72Z</time></trkpt><trkpt lat="39.3854185" lon="8.4923771"><ele>433.33333333333337</ele><time>2026-05-01T11:11:57.722Z</time></trkpt><trkpt lat="39.3855125" lon="8.4922212"><ele>427.66666666666663</ele><time>2026-05-01T11:11:58.721Z</time></trkpt><trkpt lat="39.3855672" lon="8.4920315"><ele>422.0</ele><time>2026-05-01T11:11:59.722Z</time></trkpt><trkpt lat="39.385614" lon="8.4918531"><ele>422.0</ele><time>2026-05-01T11:12:00.721Z</time></trkpt><trkpt lat="39.3856899" lon="8.4917036"><ele>422.0</ele><time>2026-05-01T11:12:01.722Z</time></trkpt><trkpt lat="39.3857879" lon="8.4916074"><ele>422.0</ele><time>2026-05-01T11:12:02.72Z</time></trkpt><trkpt lat="39.3858829" lon="8.4915299"><ele>422.0</ele><time>2026-05-01T11:12:03.72Z</time></trkpt><trkpt lat="39.3860155" lon="8.4915755"><ele>422.0</ele><time>2026-05-01T11:12:04.72Z</time></trkpt><trkpt lat="39.3861366" lon="8.4916119"><ele>422.0</ele><time>2026-05-01T11:12:05.722Z</time></trkpt><trkpt lat="39.3862465" lon="8.4915871"><ele>422.0</ele><time>2026-05-01T11:12:06.72Z</time></trkpt><trkpt lat="39.3863337" lon="8.491511"><ele>422.0</ele><time>2026-05-01T11:12:07.721Z</time></trkpt><trkpt lat="39.386398" lon="8.4913722"><ele>418.75</ele><time>2026-05-01T11:12:08.721Z</time></trkpt><trkpt lat="39.3864442" lon="8.4912011"><ele>415.5</ele><time>2026-05-01T11:12:09.72Z</time></trkpt><trkpt lat="39.3865193" lon="8.4910313"><ele>412.25</ele><time>2026-05-01T11:12:10.72Z</time></trkpt><trkpt lat="39.386602" lon="8.4909055"><ele>409.0</ele><time>2026-05-01T11:12:11.721Z</time></trkpt><trkpt lat="39.3866791" lon="8.4907888"><ele>409.0</ele><time>2026-05-01T11:12:12.721Z</time></trkpt><trkpt lat="39.3867153" lon="8.4906406"><ele>409.0</ele><time>2026-05-01T11:12:13.721Z</time></trkpt><trkpt lat="39.3867083" lon="8.4904869"><ele>409.0</ele><time>2026-05-01T11:12:14.72Z</time></trkpt><trkpt lat="39.3866536" lon="8.4903289"><ele>409.0</ele><time>2026-05-01T11:12:15.722Z</time></trkpt><trkpt lat="39.3865551" lon="8.4901937"><ele>407.6666666666667</ele><time>2026-05-01T11:12:16.721Z</time></trkpt><trkpt lat="39.3864183" lon="8.4900859"><ele>406.33333333333337</ele><time>2026-05-01T11:12:17.72Z</time></trkpt><trkpt lat="39.3862523" lon="8.4900301"><ele>405.0</ele><time>2026-05-01T11:12:18.722Z</time></trkpt><trkpt lat="39.3860813" lon="8.490006"><ele>405.0</ele><time>2026-05-01T11:12:19.721Z</time></trkpt><trkpt lat="39.3859191" lon="8.4899737"><ele>405.0</ele><time>2026-05-01T11:12:20.722Z</time></trkpt><trkpt lat="39.3857712" lon="8.4899351"><ele>405.0</ele><time>2026-05-01T11:12:21.721Z</time></trkpt><trkpt lat="39.3856378" lon="8.4899036"><ele>405.0</ele><time>2026-05-01T11:12:22.722Z</time></trkpt><trkpt lat="39.3855198" lon="8.4898538"><ele>405.0</ele><time>2026-05-01T11:12:23.72Z</time></trkpt><trkpt lat="39.3854301" lon="8.4897648"><ele>405.0</ele><time>2026-05-01T11:12:24.722Z</time></trkpt><trkpt lat="39.3853717" lon="8.4896232"><ele>405.0</ele><time>2026-05-01T11:12:25.72Z</time></trkpt><trkpt lat="39.3853582" lon="8.4894723"><ele>407.6</ele><time>2026-05-01T11:12:26.721Z</time></trkpt><trkpt lat="39.3853642" lon="8.4893315"><ele>410.2</ele><time>2026-05-01T11:12:27.72Z</time></trkpt><trkpt lat="39.3853665" lon="8.4892036"><ele>412.79999999999995</ele><time>2026-05-01T11:12:28.72Z</time></trkpt><trkpt lat="39.3853715" lon="8.4890843"><ele>415.4</ele><time>2026-05-01T11:12:29.721Z</time></trkpt><trkpt lat="39.3853935" lon="8.488985"><ele>418.0</ele><time>2026-05-01T11:12:30.72Z</time></trkpt><trkpt lat="39.3854393" lon="8.4889105"><ele>418.00000000000006</ele><time>2026-05-01T11:12:31.72Z</time></trkpt><trkpt lat="39.3854948" lon="8.4888706"><ele>418.0</ele><time>2026-05-01T11:12:32.721Z</time></trkpt><trkpt lat="39.3855724" lon="8.4888598"><ele>418.0</ele><time>2026-05-01T11:12:33.719Z</time></trkpt><trkpt lat="39.3856596" lon="8.4888894"><ele>418.0</ele><time>2026-05-01T11:12:34.72Z</time></trkpt><trkpt lat="39.3857544" lon="8.4889331"><ele>418.00000000000006</ele><time>2026-05-01T11:12:35.72Z</time></trkpt><trkpt lat="39.3858537" lon="8.4889756"><ele>418.0</ele><time>2026-05-01T11:12:36.72Z</time></trkpt><trkpt lat="39.385956" lon="8.489013"><ele>412.25</ele><time>2026-05-01T11:12:37.719Z</time></trkpt><trkpt lat="39.3860645" lon="8.4890118"><ele>406.5</ele><time>2026-05-01T11:12:38.72Z</time></trkpt><trkpt lat="39.3861792" lon="8.488982"><ele>400.75</ele><time>2026-05-01T11:12:39.719Z</time></trkpt><trkpt lat="39.3863023" lon="8.4888971"><ele>395.0</ele><time>2026-05-01T11:12:40.721Z</time></trkpt><trkpt lat="39.3864361" lon="8.488789"><ele>394.66666666666663</ele><time>2026-05-01T11:12:41.721Z</time></trkpt><trkpt lat="39.3865746" lon="8.4886698"><ele>394.33333333333337</ele><time>2026-05-01T11:12:42.719Z</time></trkpt><trkpt lat="39.3867338" lon="8.4885648"><ele>394.0</ele><time>2026-05-01T11:12:43.721Z</time></trkpt><trkpt lat="39.3868822" lon="8.4884943"><ele>394.0</ele><time>2026-05-01T11:12:44.72Z</time></trkpt><trkpt lat="39.3870149" lon="8.4884366"><ele>394.0</ele><time>2026-05-01T11:12:45.72Z</time></trkpt><trkpt lat="39.3871203" lon="8.4883542"><ele>394.0</ele><time>2026-05-01T11:12:46.72Z</time></trkpt><trkpt lat="39.387192" lon="8.4882157"><ele>394.0</ele><time>2026-05-01T11:12:47.719Z</time></trkpt><trkpt lat="39.3872302" lon="8.4880302"><ele>389.0</ele><time>2026-05-01T11:12:48.72Z</time></trkpt><trkpt lat="39.3872562" lon="8.4878169"><ele>384.0</ele><time>2026-05-01T11:12:49.72Z</time></trkpt><trkpt lat="39.3872655" lon="8.4876124"><ele>379.0</ele><time>2026-05-01T11:12:50.719Z</time></trkpt><trkpt lat="39.3872971" lon="8.4874398"><ele>379.0</ele><time>2026-05-01T11:12:51.719Z</time></trkpt><trkpt lat="39.3873599" lon="8.4873079"><ele>379.0</ele><time>2026-05-01T11:12:52.72Z</time></trkpt><trkpt lat="39.3874245" lon="8.4871813"><ele>379.0</ele><time>2026-05-01T11:12:53.72Z</time></trkpt><trkpt lat="39.3875638" lon="8.4872223"><ele>379.0</ele><time>2026-05-01T11:12:54.719Z</time></trkpt><trkpt lat="39.3876373" lon="8.4872835"><ele>379.0</ele><time>2026-05-01T11:12:55.72Z</time></trkpt><trkpt lat="39.3877094" lon="8.4874016"><ele>379.0</ele><time>2026-05-01T11:12:56.719Z</time></trkpt><trkpt lat="39.387756" lon="8.4875582"><ele>379.0</ele><time>2026-05-01T11:12:57.72Z</time></trkpt><trkpt lat="39.3878214" lon="8.4877231"><ele>379.0</ele><time>2026-05-01T11:12:58.719Z</time></trkpt><trkpt lat="39.3878897" lon="8.4878578"><ele>376.79999999999995</ele><time>2026-05-01T11:12:59.719Z</time></trkpt><trkpt lat="39.387967" lon="8.4879532"><ele>374.59999999999997</ele><time>2026-05-01T11:13:00.72Z</time></trkpt><trkpt lat="39.3880635" lon="8.4879955"><ele>372.4</ele><time>2026-05-01T11:13:01.719Z</time></trkpt><trkpt lat="39.388156" lon="8.4879679"><ele>370.2</ele><time>2026-05-01T11:13:02.721Z</time></trkpt><trkpt lat="39.3882262" lon="8.4878914"><ele>368.0</ele><time>2026-05-01T11:13:03.72Z</time></trkpt><trkpt lat="39.3882518" lon="8.487756"><ele>366.75</ele><time>2026-05-01T11:13:04.719Z</time></trkpt><trkpt lat="39.3882255" lon="8.487616"><ele>365.5</ele><time>2026-05-01T11:13:05.721Z</time></trkpt><trkpt lat="39.3881807" lon="8.4874383"><ele>364.25</ele><time>2026-05-01T11:13:06.719Z</time></trkpt><trkpt lat="39.3881572" lon="8.4872692"><ele>363.0</ele><time>2026-05-01T11:13:07.719Z</time></trkpt><trkpt lat="39.3881725" lon="8.4871016"><ele>363.5</ele><time>2026-05-01T11:13:08.72Z</time></trkpt><trkpt lat="39.3882364" lon="8.4869487"><ele>364.0</ele><time>2026-05-01T11:13:09.72Z</time></trkpt><trkpt lat="39.3883233" lon="8.4868188"><ele>364.5</ele><time>2026-05-01T11:13:10.72Z</time></trkpt><trkpt lat="39.3883927" lon="8.486656"><ele>365.0</ele><time>2026-05-01T11:13:11.72Z</time></trkpt><trkpt lat="39.3884241" lon="8.4864582"><ele>361.6666666666667</ele><time>2026-05-01T11:13:12.72Z</time></trkpt><trkpt lat="39.3884204" lon="8.4862378"><ele>358.3333333333333</ele><time>2026-05-01T11:13:13.719Z</time></trkpt><trkpt lat="39.3883885" lon="8.4860287"><ele>355.0</ele><time>2026-05-01T11:13:14.719Z</time></trkpt><trkpt lat="39.3883224" lon="8.4858481"><ele>355.0</ele><time>2026-05-01T11:13:15.72Z</time></trkpt><trkpt lat="39.3882188" lon="8.4857004"><ele>355.0</ele><time>2026-05-01T11:13:16.72Z</time></trkpt><trkpt lat="39.3881004" lon="8.4855944"><ele>355.0</ele><time>2026-05-01T11:13:17.72Z</time></trkpt><trkpt lat="39.3879925" lon="8.4854931"><ele>355.0</ele><time>2026-05-01T11:13:18.719Z</time></trkpt><trkpt lat="39.38795" lon="8.4853806"><ele>354.4</ele><time>2026-05-01T11:13:19.72Z</time></trkpt><trkpt lat="39.3879368" lon="8.4852685"><ele>353.8</ele><time>2026-05-01T11:13:20.72Z</time></trkpt><trkpt lat="39.3879757" lon="8.485165"><ele>353.20000000000005</ele><time>2026-05-01T11:13:21.719Z</time></trkpt><trkpt lat="39.3880645" lon="8.4850828"><ele>352.6</ele><time>2026-05-01T11:13:22.719Z</time></trkpt><trkpt lat="39.3881786" lon="8.4850029"><ele>352.0</ele><time>2026-05-01T11:13:23.719Z</time></trkpt><trkpt lat="39.388311" lon="8.4849048"><ele>352.0</ele><time>2026-05-01T11:13:24.72Z</time></trkpt><trkpt lat="39.3884636" lon="8.4847902"><ele>352.0</ele><time>2026-05-01T11:13:25.72Z</time></trkpt><trkpt lat="39.3886223" lon="8.4846634"><ele>352.0</ele><time>2026-05-01T11:13:26.721Z</time></trkpt><trkpt lat="39.3887736" lon="8.4844994"><ele>349.0</ele><time>2026-05-01T11:13:27.72Z</time></trkpt><trkpt lat="39.3889012" lon="8.4843238"><ele>346.0</ele><time>2026-05-01T11:13:28.72Z</time></trkpt><trkpt lat="39.3890307" lon="8.4841778"><ele>343.0</ele><time>2026-05-01T11:13:29.72Z</time></trkpt><trkpt lat="39.3891885" lon="8.4840612"><ele>343.0</ele><time>2026-05-01T11:13:30.721Z</time></trkpt><trkpt lat="39.3893583" lon="8.483979"><ele>343.0</ele><time>2026-05-01T11:13:31.72Z</time></trkpt><trkpt lat="39.3895252" lon="8.4838731"><ele>343.0</ele><time>2026-05-01T11:13:32.72Z</time></trkpt><trkpt lat="39.389682" lon="8.4837409"><ele>340.0</ele><time>2026-05-01T11:13:33.72Z</time></trkpt><trkpt lat="39.3898306" lon="8.4835942"><ele>337.0</ele><time>2026-05-01T11:13:34.72Z</time></trkpt><trkpt lat="39.3899704" lon="8.4834477"><ele>334.0</ele><time>2026-05-01T11:13:35.721Z</time></trkpt><trkpt lat="39.3901148" lon="8.4833378"><ele>334.0</ele><time>2026-05-01T11:13:36.721Z</time></trkpt><trkpt lat="39.3902683" lon="8.483281"><ele>334.0</ele><time>2026-05-01T11:13:37.72Z</time></trkpt><trkpt lat="39.3904171" lon="8.4832168"><ele>334.0</ele><time>2026-05-01T11:13:38.721Z</time></trkpt><trkpt lat="39.3905481" lon="8.4831068"><ele>330.8</ele><time>2026-05-01T11:13:39.72Z</time></trkpt><trkpt lat="39.3906524" lon="8.4829958"><ele>327.59999999999997</ele><time>2026-05-01T11:13:40.72Z</time></trkpt><trkpt lat="39.3907261" lon="8.4828874"><ele>324.4</ele><time>2026-05-01T11:13:41.72Z</time></trkpt><trkpt lat="39.3907522" lon="8.4827629"><ele>321.2</ele><time>2026-05-01T11:13:42.721Z</time></trkpt><trkpt lat="39.3907295" lon="8.4826493"><ele>318.0</ele><time>2026-05-01T11:13:43.72Z</time></trkpt><trkpt lat="39.3906627" lon="8.4825684"><ele>318.0</ele><time>2026-05-01T11:13:44.72Z</time></trkpt><trkpt lat="39.3905729" lon="8.4825401"><ele>318.0</ele><time>2026-05-01T11:13:45.719Z</time></trkpt><trkpt lat="39.3904507" lon="8.4825655"><ele>318.0</ele><time>2026-05-01T11:13:46.719Z</time></trkpt><trkpt lat="39.3903192" lon="8.4825743"><ele>318.0</ele><time>2026-05-01T11:13:47.72Z</time></trkpt><trkpt lat="39.3901769" lon="8.4825311"><ele>320.0</ele><time>2026-05-01T11:13:48.721Z</time></trkpt><trkpt lat="39.3900252" lon="8.4824593"><ele>322.0</ele><time>2026-05-01T11:13:49.72Z</time></trkpt><trkpt lat="39.3898652" lon="8.482369"><ele>324.0</ele><time>2026-05-01T11:13:50.72Z</time></trkpt><trkpt lat="39.3897015" lon="8.4822894"><ele>328.0</ele><time>2026-05-01T11:13:51.72Z</time></trkpt><trkpt lat="39.3895341" lon="8.4822277"><ele>332.0</ele><time>2026-05-01T11:13:52.719Z</time></trkpt><trkpt lat="39.3893768" lon="8.4821857"><ele>336.0</ele><time>2026-05-01T11:13:53.72Z</time></trkpt><trkpt lat="39.3892398" lon="8.4821303"><ele>331.25</ele><time>2026-05-01T11:13:54.72Z</time></trkpt><trkpt lat="39.3891373" lon="8.4820372"><ele>326.5</ele><time>2026-05-01T11:13:55.719Z</time></trkpt><trkpt lat="39.3890469" lon="8.4818897"><ele>321.75</ele><time>2026-05-01T11:13:56.72Z</time></trkpt><trkpt lat="39.3889755" lon="8.4817044"><ele>317.0</ele><time>2026-05-01T11:13:57.721Z</time></trkpt><trkpt lat="39.3889024" lon="8.481526"><ele>320.0</ele><time>2026-05-01T11:13:58.719Z</time></trkpt><trkpt lat="39.388823" lon="8.4813704"><ele>323.0</ele><time>2026-05-01T11:13:59.72Z</time></trkpt><trkpt lat="39.3887319" lon="8.4812476"><ele>326.0</ele><time>2026-05-01T11:14:00.719Z</time></trkpt><trkpt lat="39.3886393" lon="8.4811503"><ele>329.0</ele><time>2026-05-01T11:14:01.719Z</time></trkpt><trkpt lat="39.3885817" lon="8.4810444"><ele>329.0</ele><time>2026-05-01T11:14:02.72Z</time></trkpt><trkpt lat="39.3885608" lon="8.4809316"><ele>329.0</ele><time>2026-05-01T11:14:03.721Z</time></trkpt><trkpt lat="39.388594" lon="8.480823"><ele>329.0</ele><time>2026-05-01T11:14:04.72Z</time></trkpt><trkpt lat="39.3886583" lon="8.4807381"><ele>329.0</ele><time>2026-05-01T11:14:05.72Z</time></trkpt><trkpt lat="39.3887085" lon="8.4806884"><ele>329.0</ele><time>2026-05-01T11:14:06.72Z</time></trkpt><trkpt lat="39.3887782" lon="8.4806216"><ele>329.0</ele><time>2026-05-01T11:14:08.72Z</time></trkpt><trkpt lat="39.3888336" lon="8.4806989"><ele>325.5</ele><time>2026-05-01T11:14:17.721Z</time></trkpt><trkpt lat="39.3889253" lon="8.4808301"><ele>322.0</ele><time>2026-05-01T11:14:19.719Z</time></trkpt><trkpt lat="39.3890064" lon="8.480903"><ele>318.5</ele><time>2026-05-01T11:14:20.719Z</time></trkpt><trkpt lat="39.3890995" lon="8.4809855"><ele>315.0</ele><time>2026-05-01T11:14:21.719Z</time></trkpt><trkpt lat="39.3892036" lon="8.4810743"><ele>315.0</ele><time>2026-05-01T11:14:22.721Z</time></trkpt><trkpt lat="39.3893176" lon="8.481168"><ele>315.0</ele><time>2026-05-01T11:14:23.719Z</time></trkpt><trkpt lat="39.3894358" lon="8.4812663"><ele>315.0</ele><time>2026-05-01T11:14:24.72Z</time></trkpt><trkpt lat="39.3895521" lon="8.4813593"><ele>315.0</ele><time>2026-05-01T11:14:25.72Z</time></trkpt><trkpt lat="39.3896676" lon="8.481445"><ele>313.25</ele><time>2026-05-01T11:14:26.719Z</time></trkpt><trkpt lat="39.3897986" lon="8.4815216"><ele>311.5</ele><time>2026-05-01T11:14:27.719Z</time></trkpt><trkpt lat="39.3899375" lon="8.4815776"><ele>309.75</ele><time>2026-05-01T11:14:28.719Z</time></trkpt><trkpt lat="39.3900898" lon="8.4816056"><ele>308.0</ele><time>2026-05-01T11:14:29.719Z</time></trkpt><trkpt lat="39.3902445" lon="8.4816023"><ele>308.0</ele><time>2026-05-01T11:14:30.72Z</time></trkpt><trkpt lat="39.3904025" lon="8.4815758"><ele>308.0</ele><time>2026-05-01T11:14:31.72Z</time></trkpt><trkpt lat="39.3905594" lon="8.4815439"><ele>308.0</ele><time>2026-05-01T11:14:32.719Z</time></trkpt><trkpt lat="39.390725" lon="8.4815086"><ele>306.6666666666667</ele><time>2026-05-01T11:14:33.72Z</time></trkpt><trkpt lat="39.3908967" lon="8.4814775"><ele>305.3333333333333</ele><time>2026-05-01T11:14:34.719Z</time></trkpt><trkpt lat="39.3910691" lon="8.4814493"><ele>304.0</ele><time>2026-05-01T11:14:35.719Z</time></trkpt><trkpt lat="39.391241" lon="8.4814184"><ele>301.3333333333333</ele><time>2026-05-01T11:14:36.72Z</time></trkpt><trkpt lat="39.3914122" lon="8.4813859"><ele>298.6666666666667</ele><time>2026-05-01T11:14:37.72Z</time></trkpt><trkpt lat="39.3915841" lon="8.4813493"><ele>296.0</ele><time>2026-05-01T11:14:38.719Z</time></trkpt><trkpt lat="39.3917439" lon="8.481317"><ele>296.0</ele><time>2026-05-01T11:14:39.719Z</time></trkpt><trkpt lat="39.3918948" lon="8.4812961"><ele>296.0</ele><time>2026-05-01T11:14:40.72Z</time></trkpt><trkpt lat="39.3920362" lon="8.4813147"><ele>296.0</ele><time>2026-05-01T11:14:41.721Z</time></trkpt><trkpt lat="39.3921703" lon="8.4813822"><ele>296.0</ele><time>2026-05-01T11:14:42.719Z</time></trkpt><trkpt lat="39.3922919" lon="8.4814807"><ele>296.75</ele><time>2026-05-01T11:14:43.721Z</time></trkpt><trkpt lat="39.3923905" lon="8.4816031"><ele>297.5</ele><time>2026-05-01T11:14:44.719Z</time></trkpt><trkpt lat="39.3924554" lon="8.4817366"><ele>298.25</ele><time>2026-05-01T11:14:45.721Z</time></trkpt><trkpt lat="39.3924825" lon="8.4818784"><ele>299.0</ele><time>2026-05-01T11:14:46.721Z</time></trkpt><trkpt lat="39.3924794" lon="8.4820099"><ele>299.25</ele><time>2026-05-01T11:14:47.72Z</time></trkpt><trkpt lat="39.3924256" lon="8.4821397"><ele>299.5</ele><time>2026-05-01T11:14:48.72Z</time></trkpt><trkpt lat="39.3923468" lon="8.4822681"><ele>299.75</ele><time>2026-05-01T11:14:49.721Z</time></trkpt><trkpt lat="39.3922471" lon="8.4823836"><ele>300.0</ele><time>2026-05-01T11:14:50.72Z</time></trkpt><trkpt lat="39.3921339" lon="8.4825182"><ele>300.3333333333333</ele><time>2026-05-01T11:14:51.72Z</time></trkpt><trkpt lat="39.392024" lon="8.4826523"><ele>300.66666666666663</ele><time>2026-05-01T11:14:52.72Z</time></trkpt><trkpt lat="39.3919132" lon="8.4827954"><ele>301.0</ele><time>2026-05-01T11:14:53.719Z</time></trkpt><trkpt lat="39.3918154" lon="8.4829433"><ele>298.66666666666663</ele><time>2026-05-01T11:14:54.719Z</time></trkpt><trkpt lat="39.3917359" lon="8.483113"><ele>296.3333333333333</ele><time>2026-05-01T11:14:55.72Z</time></trkpt><trkpt lat="39.3916818" lon="8.4833019"><ele>294.0</ele><time>2026-05-01T11:14:56.721Z</time></trkpt><trkpt lat="39.3916495" lon="8.4835129"><ele>294.0</ele><time>2026-05-01T11:14:57.721Z</time></trkpt><trkpt lat="39.3916141" lon="8.4837388"><ele>294.0</ele><time>2026-05-01T11:14:58.72Z</time></trkpt><trkpt lat="39.391552" lon="8.4839619"><ele>294.0</ele><time>2026-05-01T11:14:59.72Z</time></trkpt><trkpt lat="39.3914667" lon="8.4841765"><ele>295.3333333333333</ele><time>2026-05-01T11:15:00.721Z</time></trkpt><trkpt lat="39.3913655" lon="8.4843818"><ele>296.66666666666663</ele><time>2026-05-01T11:15:01.721Z</time></trkpt><trkpt lat="39.3912542" lon="8.4845859"><ele>298.0</ele><time>2026-05-01T11:15:02.721Z</time></trkpt><trkpt lat="39.3911426" lon="8.4847945"><ele>298.0</ele><time>2026-05-01T11:15:03.72Z</time></trkpt><trkpt lat="39.3910346" lon="8.4850046"><ele>298.0</ele><time>2026-05-01T11:15:04.72Z</time></trkpt><trkpt lat="39.3909293" lon="8.4852121"><ele>298.0</ele><time>2026-05-01T11:15:05.72Z</time></trkpt><trkpt lat="39.3908287" lon="8.4854082"><ele>301.66666666666663</ele><time>2026-05-01T11:15:06.719Z</time></trkpt><trkpt lat="39.3907351" lon="8.4856004"><ele>305.3333333333333</ele><time>2026-05-01T11:15:07.719Z</time></trkpt><trkpt lat="39.3906495" lon="8.4858007"><ele>309.0</ele><time>2026-05-01T11:15:08.72Z</time></trkpt><trkpt lat="39.3905887" lon="8.4860113"><ele>309.0</ele><time>2026-05-01T11:15:09.719Z</time></trkpt><trkpt lat="39.3905542" lon="8.4862251"><ele>309.0</ele><time>2026-05-01T11:15:10.719Z</time></trkpt><trkpt lat="39.3905488" lon="8.4864419"><ele>309.0</ele><time>2026-05-01T11:15:11.721Z</time></trkpt><trkpt lat="39.3905733" lon="8.4866556"><ele>308.3333333333333</ele><time>2026-05-01T11:15:12.72Z</time></trkpt><trkpt lat="39.3906142" lon="8.4868688"><ele>307.66666666666663</ele><time>2026-05-01T11:15:13.72Z</time></trkpt><trkpt lat="39.390657" lon="8.4870897"><ele>307.0</ele><time>2026-05-01T11:15:14.719Z</time></trkpt><trkpt lat="39.3906963" lon="8.4873118"><ele>307.0</ele><time>2026-05-01T11:15:15.72Z</time></trkpt><trkpt lat="39.3907394" lon="8.4875334"><ele>307.0</ele><time>2026-05-01T11:15:16.719Z</time></trkpt><trkpt lat="39.3907813" lon="8.487758"><ele>307.0</ele><time>2026-05-01T11:15:17.719Z</time></trkpt><trkpt lat="39.3908211" lon="8.487989"><ele>306.66666666666663</ele><time>2026-05-01T11:15:18.721Z</time></trkpt><trkpt lat="39.3908628" lon="8.4882185"><ele>306.3333333333333</ele><time>2026-05-01T11:15:19.72Z</time></trkpt><trkpt lat="39.3908992" lon="8.4884533"><ele>306.0</ele><time>2026-05-01T11:15:20.721Z</time></trkpt><trkpt lat="39.390933" lon="8.4886887"><ele>307.6666666666667</ele><time>2026-05-01T11:15:21.72Z</time></trkpt><trkpt lat="39.3909576" lon="8.4889323"><ele>309.33333333333337</ele><time>2026-05-01T11:15:22.719Z</time></trkpt><trkpt lat="39.3909658" lon="8.4891736"><ele>311.0</ele><time>2026-05-01T11:15:23.72Z</time></trkpt><trkpt lat="39.3909536" lon="8.4894188"><ele>311.6666666666667</ele><time>2026-05-01T11:15:24.719Z</time></trkpt><trkpt lat="39.3909294" lon="8.4896619"><ele>312.3333333333333</ele><time>2026-05-01T11:15:25.72Z</time></trkpt><trkpt lat="39.3908976" lon="8.4899057"><ele>313.0</ele><time>2026-05-01T11:15:26.72Z</time></trkpt><trkpt lat="39.3908652" lon="8.4901499"><ele>313.0</ele><time>2026-05-01T11:15:27.719Z</time></trkpt><trkpt lat="39.3908252" lon="8.4903903"><ele>313.0</ele><time>2026-05-01T11:15:28.719Z</time></trkpt><trkpt lat="39.3907932" lon="8.4906363"><ele>313.0</ele><time>2026-05-01T11:15:29.72Z</time></trkpt><trkpt lat="39.3907586" lon="8.4908802"><ele>315.0</ele><time>2026-05-01T11:15:30.72Z</time></trkpt><trkpt lat="39.390727" lon="8.4911247"><ele>317.0</ele><time>2026-05-01T11:15:31.72Z</time></trkpt><trkpt lat="39.3906925" lon="8.4913672"><ele>319.0</ele><time>2026-05-01T11:15:32.72Z</time></trkpt><trkpt lat="39.3906604" lon="8.4916062"><ele>322.3333333333333</ele><time>2026-05-01T11:15:33.719Z</time></trkpt><trkpt lat="39.390628" lon="8.4918406"><ele>325.6666666666667</ele><time>2026-05-01T11:15:34.72Z</time></trkpt><trkpt lat="39.3905936" lon="8.4920739"><ele>329.0</ele><time>2026-05-01T11:15:35.719Z</time></trkpt><trkpt lat="39.3905623" lon="8.4923058"><ele>331.0</ele><time>2026-05-01T11:15:36.72Z</time></trkpt><trkpt lat="39.3905299" lon="8.4925302"><ele>333.0</ele><time>2026-05-01T11:15:37.719Z</time></trkpt><trkpt lat="39.3904944" lon="8.4927392"><ele>335.0</ele><time>2026-05-01T11:15:38.719Z</time></trkpt><trkpt lat="39.39045" lon="8.4929549"><ele>327.33333333333337</ele><time>2026-05-01T11:15:39.72Z</time></trkpt><trkpt lat="39.3903979" lon="8.4931684"><ele>319.6666666666667</ele><time>2026-05-01T11:15:40.719Z</time></trkpt><trkpt lat="39.3903442" lon="8.4933816"><ele>312.0</ele><time>2026-05-01T11:15:41.719Z</time></trkpt><trkpt lat="39.3902891" lon="8.4935838"><ele>313.6666666666667</ele><time>2026-05-01T11:15:42.721Z</time></trkpt><trkpt lat="39.3902349" lon="8.4937805"><ele>315.33333333333337</ele><time>2026-05-01T11:15:43.719Z</time></trkpt><trkpt lat="39.3901836" lon="8.4939732"><ele>317.0</ele><time>2026-05-01T11:15:44.719Z</time></trkpt><trkpt lat="39.3901389" lon="8.4941392"><ele>317.0</ele><time>2026-05-01T11:15:45.72Z</time></trkpt><trkpt lat="39.3901095" lon="8.4942955"><ele>317.0</ele><time>2026-05-01T11:15:46.719Z</time></trkpt><trkpt lat="39.3901183" lon="8.4944478"><ele>317.0</ele><time>2026-05-01T11:15:47.72Z</time></trkpt><trkpt lat="39.3901845" lon="8.4946162"><ele>317.0</ele><time>2026-05-01T11:15:48.72Z</time></trkpt><trkpt lat="39.3902711" lon="8.4947673"><ele>319.5</ele><time>2026-05-01T11:15:49.72Z</time></trkpt><trkpt lat="39.3903584" lon="8.494917"><ele>322.0</ele><time>2026-05-01T11:15:50.72Z</time></trkpt><trkpt lat="39.3904258" lon="8.4950641"><ele>324.5</ele><time>2026-05-01T11:15:51.721Z</time></trkpt><trkpt lat="39.390451" lon="8.4952274"><ele>327.0</ele><time>2026-05-01T11:15:52.72Z</time></trkpt><trkpt lat="39.3904539" lon="8.4954069"><ele>329.0</ele><time>2026-05-01T11:15:53.72Z</time></trkpt><trkpt lat="39.3904145" lon="8.495573"><ele>331.0</ele><time>2026-05-01T11:15:54.72Z</time></trkpt><trkpt lat="39.3903594" lon="8.4957158"><ele>333.0</ele><time>2026-05-01T11:15:55.72Z</time></trkpt><trkpt lat="39.390329" lon="8.4958527"><ele>335.0</ele><time>2026-05-01T11:15:56.721Z</time></trkpt><trkpt lat="39.3903316" lon="8.4959849"><ele>335.0</ele><time>2026-05-01T11:15:57.72Z</time></trkpt><trkpt lat="39.3903729" lon="8.496098"><ele>335.0</ele><time>2026-05-01T11:15:58.72Z</time></trkpt><trkpt lat="39.3904438" lon="8.4961732"><ele>335.0</ele><time>2026-05-01T11:15:59.72Z</time></trkpt><trkpt lat="39.390532" lon="8.4962101"><ele>335.0</ele><time>2026-05-01T11:16:00.721Z</time></trkpt><trkpt lat="39.390615" lon="8.4962547"><ele>335.0</ele><time>2026-05-01T11:16:01.721Z</time></trkpt><trkpt lat="39.3906735" lon="8.4963356"><ele>334.6</ele><time>2026-05-01T11:16:02.72Z</time></trkpt><trkpt lat="39.3906915" lon="8.4964352"><ele>334.2</ele><time>2026-05-01T11:16:03.721Z</time></trkpt><trkpt lat="39.3906752" lon="8.4965496"><ele>333.79999999999995</ele><time>2026-05-01T11:16:04.719Z</time></trkpt><trkpt lat="39.3906313" lon="8.496668"><ele>333.4</ele><time>2026-05-01T11:16:05.72Z</time></trkpt><trkpt lat="39.3905909" lon="8.4968052"><ele>333.0</ele><time>2026-05-01T11:16:06.72Z</time></trkpt><trkpt lat="39.3905692" lon="8.4969716"><ele>332.75</ele><time>2026-05-01T11:16:07.719Z</time></trkpt><trkpt lat="39.390565" lon="8.4971497"><ele>332.5</ele><time>2026-05-01T11:16:08.72Z</time></trkpt><trkpt lat="39.3905615" lon="8.4973218"><ele>332.25</ele><time>2026-05-01T11:16:09.72Z</time></trkpt><trkpt lat="39.3905418" lon="8.4974866"><ele>332.0</ele><time>2026-05-01T11:16:10.719Z</time></trkpt><trkpt lat="39.3905115" lon="8.4976228"><ele>332.33333333333337</ele><time>2026-05-01T11:16:11.72Z</time></trkpt><trkpt lat="39.3904746" lon="8.4977357"><ele>332.6666666666667</ele><time>2026-05-01T11:16:12.72Z</time></trkpt><trkpt lat="39.3904468" lon="8.4978302"><ele>333.0</ele><time>2026-05-01T11:16:13.719Z</time></trkpt><trkpt lat="39.3904255" lon="8.4979094"><ele>333.3333333333333</ele><time>2026-05-01T11:16:14.721Z</time></trkpt><trkpt lat="39.3904133" lon="8.4979995"><ele>333.66666666666663</ele><time>2026-05-01T11:16:16.72Z</time></trkpt><trkpt lat="39.3904568" lon="8.4980623"><ele>334.0</ele><time>2026-05-01T11:16:18.719Z</time></trkpt><trkpt lat="39.3905996" lon="8.498095"><ele>334.0</ele><time>2026-05-01T11:16:20.721Z</time></trkpt><trkpt lat="39.3906973" lon="8.4981202"><ele>334.0</ele><time>2026-05-01T11:16:21.72Z</time></trkpt><trkpt lat="39.3908003" lon="8.4981602"><ele>334.0</ele><time>2026-05-01T11:16:22.72Z</time></trkpt><trkpt lat="39.3908816" lon="8.4982267"><ele>334.0</ele><time>2026-05-01T11:16:23.719Z</time></trkpt><trkpt lat="39.3909447" lon="8.4983257"><ele>334.0</ele><time>2026-05-01T11:16:24.72Z</time></trkpt><trkpt lat="39.39097" lon="8.4984254"><ele>334.0</ele><time>2026-05-01T11:16:25.72Z</time></trkpt><trkpt lat="39.3909863" lon="8.4985541"><ele>334.0</ele><time>2026-05-01T11:16:26.72Z</time></trkpt><trkpt lat="39.3910313" lon="8.4986925"><ele>334.0</ele><time>2026-05-01T11:16:27.721Z</time></trkpt><trkpt lat="39.3911119" lon="8.4988123"><ele>334.0</ele><time>2026-05-01T11:16:28.72Z</time></trkpt><trkpt lat="39.3912078" lon="8.4989235"><ele>336.0</ele><time>2026-05-01T11:16:29.72Z</time></trkpt><trkpt lat="39.3913096" lon="8.4990371"><ele>338.0</ele><time>2026-05-01T11:16:30.72Z</time></trkpt><trkpt lat="39.3914012" lon="8.4991517"><ele>340.0</ele><time>2026-05-01T11:16:31.72Z</time></trkpt><trkpt lat="39.3914951" lon="8.4992688"><ele>342.0</ele><time>2026-05-01T11:16:32.719Z</time></trkpt><trkpt lat="39.3915632" lon="8.4993719"><ele>342.0</ele><time>2026-05-01T11:16:33.72Z</time></trkpt><trkpt lat="39.3916032" lon="8.4994674"><ele>342.0</ele><time>2026-05-01T11:16:34.72Z</time></trkpt><trkpt lat="39.3916045" lon="8.4995598"><ele>342.0</ele><time>2026-05-01T11:16:35.719Z</time></trkpt><trkpt lat="39.3915827" lon="8.499644"><ele>342.0</ele><time>2026-05-01T11:16:36.719Z</time></trkpt><trkpt lat="39.3915346" lon="8.4997308"><ele>342.0</ele><time>2026-05-01T11:16:37.719Z</time></trkpt><trkpt lat="39.3914874" lon="8.4998315"><ele>342.0</ele><time>2026-05-01T11:16:38.721Z</time></trkpt><trkpt lat="39.3914589" lon="8.4999315"><ele>342.0</ele><time>2026-05-01T11:16:39.72Z</time></trkpt><trkpt lat="39.3914487" lon="8.5000541"><ele>342.0</ele><time>2026-05-01T11:16:40.72Z</time></trkpt><trkpt lat="39.3914697" lon="8.500183"><ele>342.0</ele><time>2026-05-01T11:16:41.72Z</time></trkpt><trkpt lat="39.3915142" lon="8.5003269"><ele>342.0</ele><time>2026-05-01T11:16:42.719Z</time></trkpt><trkpt lat="39.391557" lon="8.500463"><ele>342.0</ele><time>2026-05-01T11:16:43.72Z</time></trkpt><trkpt lat="39.3915769" lon="8.5006008"><ele>343.5</ele><time>2026-05-01T11:16:44.719Z</time></trkpt><trkpt lat="39.3915948" lon="8.5007375"><ele>345.0</ele><time>2026-05-01T11:16:45.721Z</time></trkpt><trkpt lat="39.3916008" lon="8.5008878"><ele>346.5</ele><time>2026-05-01T11:16:46.72Z</time></trkpt><trkpt lat="39.3915863" lon="8.5010433"><ele>348.0</ele><time>2026-05-01T11:16:47.719Z</time></trkpt><trkpt lat="39.3915732" lon="8.5012036"><ele>350.25</ele><time>2026-05-01T11:16:48.72Z</time></trkpt><trkpt lat="39.3915407" lon="8.5013742"><ele>352.5</ele><time>2026-05-01T11:16:49.72Z</time></trkpt><trkpt lat="39.3915264" lon="8.5015436"><ele>354.75</ele><time>2026-05-01T11:16:50.72Z</time></trkpt><trkpt lat="39.3915126" lon="8.5017276"><ele>357.0</ele><time>2026-05-01T11:16:51.721Z</time></trkpt><trkpt lat="39.3915169" lon="8.5019075"><ele>357.75</ele><time>2026-05-01T11:16:52.719Z</time></trkpt><trkpt lat="39.3915319" lon="8.5020927"><ele>358.5</ele><time>2026-05-01T11:16:53.721Z</time></trkpt><trkpt lat="39.3915513" lon="8.5022813"><ele>359.25</ele><time>2026-05-01T11:16:54.72Z</time></trkpt><trkpt lat="39.3916071" lon="8.5024635"><ele>360.0</ele><time>2026-05-01T11:16:55.719Z</time></trkpt><trkpt lat="39.3916488" lon="8.5026439"><ele>360.0</ele><time>2026-05-01T11:16:56.719Z</time></trkpt><trkpt lat="39.3916855" lon="8.5027991"><ele>360.0</ele><time>2026-05-01T11:16:57.72Z</time></trkpt><trkpt lat="39.3917259" lon="8.5029512"><ele>360.0</ele><time>2026-05-01T11:16:58.72Z</time></trkpt><trkpt lat="39.3917551" lon="8.5031103"><ele>360.0</ele><time>2026-05-01T11:16:59.721Z</time></trkpt><trkpt lat="39.3917807" lon="8.5032673"><ele>361.0</ele><time>2026-05-01T11:17:00.721Z</time></trkpt><trkpt lat="39.3918081" lon="8.503414"><ele>362.0</ele><time>2026-05-01T11:17:01.721Z</time></trkpt><trkpt lat="39.3918785" lon="8.5035501"><ele>363.0</ele><time>2026-05-01T11:17:02.72Z</time></trkpt><trkpt lat="39.3919764" lon="8.5036785"><ele>364.0</ele><time>2026-05-01T11:17:03.72Z</time></trkpt><trkpt lat="39.3920656" lon="8.5037829"><ele>363.66666666666663</ele><time>2026-05-01T11:17:04.719Z</time></trkpt><trkpt lat="39.3921446" lon="8.5038805"><ele>363.3333333333333</ele><time>2026-05-01T11:17:05.72Z</time></trkpt><trkpt lat="39.3922247" lon="8.5039698"><ele>363.0</ele><time>2026-05-01T11:17:06.72Z</time></trkpt><trkpt lat="39.3922858" lon="8.5040493"><ele>362.6666666666667</ele><time>2026-05-01T11:17:07.72Z</time></trkpt><trkpt lat="39.3923375" lon="8.5041184"><ele>362.33333333333337</ele><time>2026-05-01T11:17:08.72Z</time></trkpt><trkpt lat="39.3923737" lon="8.5041871"><ele>362.0</ele><time>2026-05-01T11:17:09.721Z</time></trkpt><trkpt lat="39.3923852" lon="8.5042688"><ele>362.0</ele><time>2026-05-01T11:17:10.719Z</time></trkpt><trkpt lat="39.3923915" lon="8.5043555"><ele>362.0</ele><time>2026-05-01T11:17:11.72Z</time></trkpt><trkpt lat="39.3923795" lon="8.5044549"><ele>362.0</ele><time>2026-05-01T11:17:12.719Z</time></trkpt><trkpt lat="39.3923427" lon="8.5045646"><ele>362.0</ele><time>2026-05-01T11:17:13.72Z</time></trkpt><trkpt lat="39.392311" lon="8.5046932"><ele>362.0</ele><time>2026-05-01T11:17:14.72Z</time></trkpt><trkpt lat="39.3922705" lon="8.504806"><ele>362.0</ele><time>2026-05-01T11:17:15.72Z</time></trkpt><trkpt lat="39.3922165" lon="8.50493"><ele>365.0</ele><time>2026-05-01T11:17:16.719Z</time></trkpt><trkpt lat="39.3921542" lon="8.5050507"><ele>368.0</ele><time>2026-05-01T11:17:17.72Z</time></trkpt><trkpt lat="39.3920771" lon="8.5051731"><ele>371.0</ele><time>2026-05-01T11:17:18.72Z</time></trkpt><trkpt lat="39.3919987" lon="8.5052926"><ele>374.0</ele><time>2026-05-01T11:17:19.721Z</time></trkpt><trkpt lat="39.3919407" lon="8.5054335"><ele>374.0</ele><time>2026-05-01T11:17:20.72Z</time></trkpt><trkpt lat="39.3918875" lon="8.5056029"><ele>374.0</ele><time>2026-05-01T11:17:21.719Z</time></trkpt><trkpt lat="39.3918489" lon="8.5057837"><ele>374.0</ele><time>2026-05-01T11:17:22.721Z</time></trkpt><trkpt lat="39.3918124" lon="8.5059582"><ele>374.0</ele><time>2026-05-01T11:17:23.719Z</time></trkpt><trkpt lat="39.3917799" lon="8.5061353"><ele>373.75</ele><time>2026-05-01T11:17:24.72Z</time></trkpt><trkpt lat="39.3917481" lon="8.5062826"><ele>373.5</ele><time>2026-05-01T11:17:25.72Z</time></trkpt><trkpt lat="39.3917082" lon="8.506412"><ele>373.25</ele><time>2026-05-01T11:17:26.719Z</time></trkpt><trkpt lat="39.3916473" lon="8.5065271"><ele>373.0</ele><time>2026-05-01T11:17:27.719Z</time></trkpt><trkpt lat="39.3915697" lon="8.5066519"><ele>373.0</ele><time>2026-05-01T11:17:28.72Z</time></trkpt><trkpt lat="39.3914925" lon="8.5067762"><ele>373.0</ele><time>2026-05-01T11:17:29.719Z</time></trkpt><trkpt lat="39.3914326" lon="8.5069225"><ele>373.0</ele><time>2026-05-01T11:17:30.721Z</time></trkpt><trkpt lat="39.3913845" lon="8.5070752"><ele>373.0</ele><time>2026-05-01T11:17:31.719Z</time></trkpt><trkpt lat="39.391356" lon="8.5072267"><ele>374.79999999999995</ele><time>2026-05-01T11:17:32.719Z</time></trkpt><trkpt lat="39.3913478" lon="8.5073683"><ele>376.6</ele><time>2026-05-01T11:17:33.72Z</time></trkpt><trkpt lat="39.3913461" lon="8.5075013"><ele>378.4</ele><time>2026-05-01T11:17:34.72Z</time></trkpt><trkpt lat="39.3913281" lon="8.5076006"><ele>380.20000000000005</ele><time>2026-05-01T11:17:35.72Z</time></trkpt><trkpt lat="39.3912954" lon="8.507717"><ele>382.0</ele><time>2026-05-01T11:17:36.72Z</time></trkpt><trkpt lat="39.3912395" lon="8.5078416"><ele>383.20000000000005</ele><time>2026-05-01T11:17:37.72Z</time></trkpt><trkpt lat="39.3911817" lon="8.5079483"><ele>384.4</ele><time>2026-05-01T11:17:38.719Z</time></trkpt><trkpt lat="39.3911229" lon="8.5080374"><ele>385.6</ele><time>2026-05-01T11:17:39.721Z</time></trkpt><trkpt lat="39.3910591" lon="8.5081006"><ele>386.79999999999995</ele><time>2026-05-01T11:17:40.72Z</time></trkpt><trkpt lat="39.3909789" lon="8.5081472"><ele>388.0</ele><time>2026-05-01T11:17:41.72Z</time></trkpt><trkpt lat="39.3908783" lon="8.5081808"><ele>388.0</ele><time>2026-05-01T11:17:42.721Z</time></trkpt><trkpt lat="39.3907934" lon="8.5082272"><ele>388.0</ele><time>2026-05-01T11:17:43.721Z</time></trkpt><trkpt lat="39.390709" lon="8.5082766"><ele>388.0</ele><time>2026-05-01T11:17:44.721Z</time></trkpt><trkpt lat="39.3906036" lon="8.5083775"><ele>388.0</ele><time>2026-05-01T11:17:45.721Z</time></trkpt><trkpt lat="39.3905224" lon="8.5085416"><ele>393.0</ele><time>2026-05-01T11:17:46.72Z</time></trkpt><trkpt lat="39.3904467" lon="8.5086692"><ele>398.0</ele><time>2026-05-01T11:17:47.721Z</time></trkpt><trkpt lat="39.390376" lon="8.5088344"><ele>403.0</ele><time>2026-05-01T11:17:48.719Z</time></trkpt><trkpt lat="39.3903156" lon="8.50901"><ele>408.0</ele><time>2026-05-01T11:17:49.721Z</time></trkpt><trkpt lat="39.3902544" lon="8.5091835"><ele>408.0</ele><time>2026-05-01T11:17:50.72Z</time></trkpt><trkpt lat="39.3901881" lon="8.5093593"><ele>408.0</ele><time>2026-05-01T11:17:51.72Z</time></trkpt><trkpt lat="39.3901229" lon="8.5095328"><ele>408.0</ele><time>2026-05-01T11:17:52.719Z</time></trkpt><trkpt lat="39.3900532" lon="8.5097125"><ele>407.0</ele><time>2026-05-01T11:17:53.719Z</time></trkpt><trkpt lat="39.3899818" lon="8.5098769"><ele>406.0</ele><time>2026-05-01T11:17:54.72Z</time></trkpt><trkpt lat="39.389908" lon="8.5100521"><ele>405.0</ele><time>2026-05-01T11:17:55.72Z</time></trkpt><trkpt lat="39.38982" lon="8.5102245"><ele>405.0</ele><time>2026-05-01T11:17:56.719Z</time></trkpt><trkpt lat="39.3897427" lon="8.5103952"><ele>405.0</ele><time>2026-05-01T11:17:57.721Z</time></trkpt><trkpt lat="39.3896644" lon="8.5105672"><ele>405.0</ele><time>2026-05-01T11:17:58.721Z</time></trkpt><trkpt lat="39.3895721" lon="8.5107351"><ele>407.33333333333337</ele><time>2026-05-01T11:17:59.721Z</time></trkpt><trkpt lat="39.3894676" lon="8.5109004"><ele>409.6666666666667</ele><time>2026-05-01T11:18:00.719Z</time></trkpt><trkpt lat="39.3893732" lon="8.5110718"><ele>412.0</ele><time>2026-05-01T11:18:01.72Z</time></trkpt><trkpt lat="39.3892765" lon="8.5112474"><ele>412.0</ele><time>2026-05-01T11:18:02.72Z</time></trkpt><trkpt lat="39.389184" lon="8.5114205"><ele>412.0</ele><time>2026-05-01T11:18:03.72Z</time></trkpt><trkpt lat="39.3890949" lon="8.5116008"><ele>412.0</ele><time>2026-05-01T11:18:04.72Z</time></trkpt><trkpt lat="39.3890129" lon="8.5117968"><ele>412.0</ele><time>2026-05-01T11:18:05.72Z</time></trkpt><trkpt lat="39.3889371" lon="8.5119995"><ele>412.0</ele><time>2026-05-01T11:18:06.72Z</time></trkpt><trkpt lat="39.3888597" lon="8.5122013"><ele>412.0</ele><time>2026-05-01T11:18:07.721Z</time></trkpt><trkpt lat="39.3887895" lon="8.5124118"><ele>411.33333333333337</ele><time>2026-05-01T11:18:08.719Z</time></trkpt><trkpt lat="39.3887228" lon="8.5126133"><ele>410.66666666666663</ele><time>2026-05-01T11:18:09.719Z</time></trkpt><trkpt lat="39.3886562" lon="8.5128001"><ele>410.0</ele><time>2026-05-01T11:18:10.72Z</time></trkpt><trkpt lat="39.3885887" lon="8.5129554"><ele>410.0</ele><time>2026-05-01T11:18:11.719Z</time></trkpt><trkpt lat="39.3885195" lon="8.5130832"><ele>410.0</ele><time>2026-05-01T11:18:12.721Z</time></trkpt><trkpt lat="39.3884477" lon="8.5131868"><ele>410.0</ele><time>2026-05-01T11:18:13.72Z</time></trkpt><trkpt lat="39.3883789" lon="8.51328"><ele>410.0</ele><time>2026-05-01T11:18:14.719Z</time></trkpt><trkpt lat="39.388327" lon="8.5133894"><ele>410.0</ele><time>2026-05-01T11:18:15.719Z</time></trkpt><trkpt lat="39.388298" lon="8.5135156"><ele>410.0</ele><time>2026-05-01T11:18:16.721Z</time></trkpt><trkpt lat="39.3882874" lon="8.5136769"><ele>410.0</ele><time>2026-05-01T11:18:17.721Z</time></trkpt><trkpt lat="39.3882729" lon="8.5138544"><ele>410.0</ele><time>2026-05-01T11:18:18.72Z</time></trkpt><trkpt lat="39.3882342" lon="8.5140437"><ele>410.0</ele><time>2026-05-01T11:18:19.72Z</time></trkpt><trkpt lat="39.3882008" lon="8.5142127"><ele>411.75</ele><time>2026-05-01T11:18:20.721Z</time></trkpt><trkpt lat="39.3881814" lon="8.5143635"><ele>413.5</ele><time>2026-05-01T11:18:21.721Z</time></trkpt><trkpt lat="39.3881843" lon="8.5145112"><ele>415.25</ele><time>2026-05-01T11:18:22.72Z</time></trkpt><trkpt lat="39.388214" lon="8.5146715"><ele>417.0</ele><time>2026-05-01T11:18:23.72Z</time></trkpt><trkpt lat="39.388258" lon="8.5148363"><ele>419.66666666666663</ele><time>2026-05-01T11:18:24.72Z</time></trkpt><trkpt lat="39.3883098" lon="8.5150179"><ele>422.3333333333333</ele><time>2026-05-01T11:18:25.72Z</time></trkpt><trkpt lat="39.3883718" lon="8.515206"><ele>425.0</ele><time>2026-05-01T11:18:26.719Z</time></trkpt><trkpt lat="39.3884393" lon="8.5153884"><ele>426.75</ele><time>2026-05-01T11:18:27.72Z</time></trkpt><trkpt lat="39.3884918" lon="8.5155469"><ele>428.5</ele><time>2026-05-01T11:18:28.72Z</time></trkpt><trkpt lat="39.3885386" lon="8.5156904"><ele>430.25</ele><time>2026-05-01T11:18:29.72Z</time></trkpt><trkpt lat="39.3885782" lon="8.5158261"><ele>432.0</ele><time>2026-05-01T11:18:30.721Z</time></trkpt><trkpt lat="39.388596" lon="8.5159735"><ele>432.0</ele><time>2026-05-01T11:18:31.719Z</time></trkpt><trkpt lat="39.3886001" lon="8.5161404"><ele>432.0</ele><time>2026-05-01T11:18:32.72Z</time></trkpt><trkpt lat="39.3885928" lon="8.516323"><ele>432.0</ele><time>2026-05-01T11:18:33.719Z</time></trkpt><trkpt lat="39.3885871" lon="8.5165045"><ele>432.0</ele><time>2026-05-01T11:18:34.72Z</time></trkpt><trkpt lat="39.3886042" lon="8.5166874"><ele>435.0</ele><time>2026-05-01T11:18:35.72Z</time></trkpt><trkpt lat="39.3886451" lon="8.5168866"><ele>438.0</ele><time>2026-05-01T11:18:36.72Z</time></trkpt><trkpt lat="39.3886975" lon="8.5170936"><ele>441.0</ele><time>2026-05-01T11:18:37.719Z</time></trkpt><trkpt lat="39.3887515" lon="8.5173085"><ele>439.25</ele><time>2026-05-01T11:18:38.72Z</time></trkpt><trkpt lat="39.3888176" lon="8.5175005"><ele>437.5</ele><time>2026-05-01T11:18:39.718Z</time></trkpt><trkpt lat="39.3888645" lon="8.517672"><ele>435.75</ele><time>2026-05-01T11:18:40.719Z</time></trkpt><trkpt lat="39.3888976" lon="8.5178289"><ele>434.0</ele><time>2026-05-01T11:18:41.719Z</time></trkpt><trkpt lat="39.38891" lon="8.5179892"><ele>434.0</ele><time>2026-05-01T11:18:42.718Z</time></trkpt><trkpt lat="39.3889116" lon="8.5181481"><ele>434.0</ele><time>2026-05-01T11:18:43.719Z</time></trkpt><trkpt lat="39.3889021" lon="8.5183281"><ele>434.0</ele><time>2026-05-01T11:18:44.719Z</time></trkpt><trkpt lat="39.388882" lon="8.5185138"><ele>434.0</ele><time>2026-05-01T11:18:45.719Z</time></trkpt><trkpt lat="39.3888842" lon="8.5186979"><ele>435.66666666666663</ele><time>2026-05-01T11:18:46.719Z</time></trkpt><trkpt lat="39.3888904" lon="8.5188964"><ele>437.33333333333337</ele><time>2026-05-01T11:18:47.719Z</time></trkpt><trkpt lat="39.3889046" lon="8.5190996"><ele>439.0</ele><time>2026-05-01T11:18:48.718Z</time></trkpt><trkpt lat="39.3889271" lon="8.5192864"><ele>439.0</ele><time>2026-05-01T11:18:49.719Z</time></trkpt><trkpt lat="39.3889619" lon="8.5194407"><ele>439.0</ele><time>2026-05-01T11:18:50.719Z</time></trkpt><trkpt lat="39.3889968" lon="8.5195798"><ele>439.0</ele><time>2026-05-01T11:18:51.719Z</time></trkpt><trkpt lat="39.3890271" lon="8.5197394"><ele>439.0</ele><time>2026-05-01T11:18:52.719Z</time></trkpt><trkpt lat="39.3890396" lon="8.5199186"><ele>440.33333333333337</ele><time>2026-05-01T11:18:53.719Z</time></trkpt><trkpt lat="39.3890503" lon="8.5201134"><ele>441.66666666666663</ele><time>2026-05-01T11:18:54.72Z</time></trkpt><trkpt lat="39.389071" lon="8.5203168"><ele>443.0</ele><time>2026-05-01T11:18:55.719Z</time></trkpt><trkpt lat="39.3890923" lon="8.5205029"><ele>447.0</ele><time>2026-05-01T11:18:56.719Z</time></trkpt><trkpt lat="39.3891534" lon="8.5206926"><ele>451.0</ele><time>2026-05-01T11:18:57.72Z</time></trkpt><trkpt lat="39.3892101" lon="8.5208797"><ele>455.0</ele><time>2026-05-01T11:18:58.718Z</time></trkpt><trkpt lat="39.389282" lon="8.5210601"><ele>458.0</ele><time>2026-05-01T11:18:59.719Z</time></trkpt><trkpt lat="39.3893639" lon="8.5212376"><ele>461.0</ele><time>2026-05-01T11:19:00.72Z</time></trkpt><trkpt lat="39.3894502" lon="8.5214073"><ele>464.0</ele><time>2026-05-01T11:19:01.718Z</time></trkpt><trkpt lat="39.3895205" lon="8.5215563"><ele>464.0</ele><time>2026-05-01T11:19:02.72Z</time></trkpt><trkpt lat="39.3895624" lon="8.5216893"><ele>464.0</ele><time>2026-05-01T11:19:03.718Z</time></trkpt><trkpt lat="39.389581" lon="8.5218062"><ele>464.0</ele><time>2026-05-01T11:19:04.72Z</time></trkpt><trkpt lat="39.3895747" lon="8.5219367"><ele>464.0</ele><time>2026-05-01T11:19:05.719Z</time></trkpt><trkpt lat="39.3895417" lon="8.5220782"><ele>464.0</ele><time>2026-05-01T11:19:06.719Z</time></trkpt><trkpt lat="39.3895145" lon="8.5222397"><ele>464.0</ele><time>2026-05-01T11:19:07.719Z</time></trkpt><trkpt lat="39.3894913" lon="8.5224172"><ele>464.0</ele><time>2026-05-01T11:19:08.718Z</time></trkpt><trkpt lat="39.3894623" lon="8.5226081"><ele>464.0</ele><time>2026-05-01T11:19:09.719Z</time></trkpt><trkpt lat="39.3894372" lon="8.5227788"><ele>464.0</ele><time>2026-05-01T11:19:10.718Z</time></trkpt><trkpt lat="39.3894237" lon="8.5229402"><ele>466.0</ele><time>2026-05-01T11:19:11.719Z</time></trkpt><trkpt lat="39.3894261" lon="8.5231267"><ele>468.0</ele><time>2026-05-01T11:19:12.72Z</time></trkpt><trkpt lat="39.3894443" lon="8.5233183"><ele>470.0</ele><time>2026-05-01T11:19:13.718Z</time></trkpt><trkpt lat="39.3894792" lon="8.5235227"><ele>470.0</ele><time>2026-05-01T11:19:14.72Z</time></trkpt><trkpt lat="39.3895054" lon="8.5237225"><ele>470.0</ele><time>2026-05-01T11:19:15.719Z</time></trkpt><trkpt lat="39.3895293" lon="8.5239187"><ele>470.0</ele><time>2026-05-01T11:19:16.719Z</time></trkpt><trkpt lat="39.3895353" lon="8.5241171"><ele>473.0</ele><time>2026-05-01T11:19:17.719Z</time></trkpt><trkpt lat="39.3895401" lon="8.5242877"><ele>476.0</ele><time>2026-05-01T11:19:18.719Z</time></trkpt><trkpt lat="39.3895616" lon="8.5244505"><ele>479.0</ele><time>2026-05-01T11:19:19.72Z</time></trkpt><trkpt lat="39.3896009" lon="8.524626"><ele>482.0</ele><time>2026-05-01T11:19:20.718Z</time></trkpt><trkpt lat="39.3896426" lon="8.5248162"><ele>482.25</ele><time>2026-05-01T11:19:21.719Z</time></trkpt><trkpt lat="39.3896807" lon="8.5250128"><ele>482.5</ele><time>2026-05-01T11:19:22.719Z</time></trkpt><trkpt lat="39.3897201" lon="8.5251997"><ele>482.75</ele><time>2026-05-01T11:19:23.718Z</time></trkpt><trkpt lat="39.3897549" lon="8.5253633"><ele>483.0</ele><time>2026-05-01T11:19:24.72Z</time></trkpt><trkpt lat="39.3897917" lon="8.5255414"><ele>483.0</ele><time>2026-05-01T11:19:25.719Z</time></trkpt><trkpt lat="39.3898278" lon="8.5256913"><ele>483.0</ele><time>2026-05-01T11:19:26.718Z</time></trkpt><trkpt lat="39.3898618" lon="8.5258414"><ele>483.0</ele><time>2026-05-01T11:19:27.719Z</time></trkpt><trkpt lat="39.3898751" lon="8.5259763"><ele>483.0</ele><time>2026-05-01T11:19:28.72Z</time></trkpt><trkpt lat="39.3898641" lon="8.5261125"><ele>485.0</ele><time>2026-05-01T11:19:29.719Z</time></trkpt><trkpt lat="39.3898322" lon="8.5262506"><ele>487.0</ele><time>2026-05-01T11:19:30.719Z</time></trkpt><trkpt lat="39.389803" lon="8.5264005"><ele>489.0</ele><time>2026-05-01T11:19:31.719Z</time></trkpt><trkpt lat="39.3897961" lon="8.526543"><ele>491.0</ele><time>2026-05-01T11:19:32.718Z</time></trkpt><trkpt lat="39.3898127" lon="8.5266933"><ele>491.0</ele><time>2026-05-01T11:19:33.719Z</time></trkpt><trkpt lat="39.3898365" lon="8.5268298"><ele>491.0</ele><time>2026-05-01T11:19:34.718Z</time></trkpt><trkpt lat="39.3898439" lon="8.5269549"><ele>491.0</ele><time>2026-05-01T11:19:35.72Z</time></trkpt><trkpt lat="39.3898332" lon="8.5270692"><ele>491.0</ele><time>2026-05-01T11:19:36.719Z</time></trkpt><trkpt lat="39.3897944" lon="8.5271748"><ele>491.0</ele><time>2026-05-01T11:19:37.719Z</time></trkpt><trkpt lat="39.3897397" lon="8.5272734"><ele>492.3333333333333</ele><time>2026-05-01T11:19:38.719Z</time></trkpt><trkpt lat="39.3896743" lon="8.5273585"><ele>493.66666666666663</ele><time>2026-05-01T11:19:39.719Z</time></trkpt><trkpt lat="39.3896382" lon="8.5274397"><ele>495.0</ele><time>2026-05-01T11:19:40.718Z</time></trkpt><trkpt lat="39.3896481" lon="8.5275244"><ele>496.33333333333337</ele><time>2026-05-01T11:19:41.718Z</time></trkpt><trkpt lat="39.3897276" lon="8.5275878"><ele>497.6666666666667</ele><time>2026-05-01T11:19:43.719Z</time></trkpt><trkpt lat="39.389795" lon="8.5275621"><ele>499.0</ele><time>2026-05-01T11:19:44.718Z</time></trkpt><trkpt lat="39.3898629" lon="8.5275169"><ele>499.00000000000006</ele><time>2026-05-01T11:19:45.72Z</time></trkpt><trkpt lat="39.3899306" lon="8.5274771"><ele>499.0</ele><time>2026-05-01T11:19:46.718Z</time></trkpt><trkpt lat="39.389998" lon="8.5274641"><ele>499.00000000000006</ele><time>2026-05-01T11:19:47.719Z</time></trkpt><trkpt lat="39.3900616" lon="8.5274843"><ele>499.00000000000006</ele><time>2026-05-01T11:19:48.72Z</time></trkpt><trkpt lat="39.390126" lon="8.5275309"><ele>499.0</ele><time>2026-05-01T11:19:49.719Z</time></trkpt><trkpt lat="39.3902016" lon="8.5276008"><ele>499.00000000000006</ele><time>2026-05-01T11:19:50.719Z</time></trkpt><trkpt lat="39.390268" lon="8.5276232"><ele>499.00000000000006</ele><time>2026-05-01T11:19:51.719Z</time></trkpt><trkpt lat="39.3903417" lon="8.5276101"><ele>499.0</ele><time>2026-05-01T11:19:52.719Z</time></trkpt><trkpt lat="39.3904101" lon="8.527561"><ele>499.0</ele><time>2026-05-01T11:19:53.719Z</time></trkpt><trkpt lat="39.3904798" lon="8.5274763"><ele>499.0</ele><time>2026-05-01T11:19:54.719Z</time></trkpt><trkpt lat="39.3905303" lon="8.5273748"><ele>499.0</ele><time>2026-05-01T11:19:55.719Z</time></trkpt><trkpt lat="39.390555" lon="8.5272614"><ele>499.0</ele><time>2026-05-01T11:19:56.719Z</time></trkpt><trkpt lat="39.3905585" lon="8.5271328"><ele>502.83333333333337</ele><time>2026-05-01T11:19:57.718Z</time></trkpt><trkpt lat="39.3905522" lon="8.5270229"><ele>506.6666666666667</ele><time>2026-05-01T11:19:58.72Z</time></trkpt><trkpt lat="39.39061" lon="8.526935"><ele>510.5</ele><time>2026-05-01T11:20:00.719Z</time></trkpt><trkpt lat="39.3906654" lon="8.5270063"><ele>514.3333333333334</ele><time>2026-05-01T11:20:02.718Z</time></trkpt><trkpt lat="39.3906785" lon="8.527112"><ele>518.1666666666666</ele><time>2026-05-01T11:20:03.718Z</time></trkpt><trkpt lat="39.3906936" lon="8.5272541"><ele>522.0</ele><time>2026-05-01T11:20:04.719Z</time></trkpt><trkpt lat="39.3907164" lon="8.5274098"><ele>522.0</ele><time>2026-05-01T11:20:05.719Z</time></trkpt><trkpt lat="39.3907292" lon="8.5275772"><ele>522.0</ele><time>2026-05-01T11:20:06.718Z</time></trkpt><trkpt lat="39.3907298" lon="8.5277279"><ele>522.0</ele><time>2026-05-01T11:20:07.718Z</time></trkpt><trkpt lat="39.3907112" lon="8.527879"><ele>522.0</ele><time>2026-05-01T11:20:08.72Z</time></trkpt><trkpt lat="39.3906692" lon="8.528028"><ele>521.0</ele><time>2026-05-01T11:20:09.719Z</time></trkpt><trkpt lat="39.3906059" lon="8.5281691"><ele>520.0</ele><time>2026-05-01T11:20:10.719Z</time></trkpt><trkpt lat="39.3905383" lon="8.5282962"><ele>519.0</ele><time>2026-05-01T11:20:11.718Z</time></trkpt><trkpt lat="39.3904747" lon="8.5283766"><ele>518.0</ele><time>2026-05-01T11:20:12.719Z</time></trkpt><trkpt lat="39.3904066" lon="8.52842"><ele>517.0</ele><time>2026-05-01T11:20:13.718Z</time></trkpt><trkpt lat="39.3903365" lon="8.5284601"><ele>517.0</ele><time>2026-05-01T11:20:14.719Z</time></trkpt><trkpt lat="39.3902436" lon="8.5284636"><ele>517.0</ele><time>2026-05-01T11:20:15.719Z</time></trkpt><trkpt lat="39.3901042" lon="8.5284232"><ele>517.0</ele><time>2026-05-01T11:20:16.718Z</time></trkpt><trkpt lat="39.3900002" lon="8.5284406"><ele>517.0</ele><time>2026-05-01T11:20:17.718Z</time></trkpt><trkpt lat="39.3899106" lon="8.5284776"><ele>517.0</ele><time>2026-05-01T11:20:18.718Z</time></trkpt><trkpt lat="39.3898333" lon="8.528538"><ele>517.0</ele><time>2026-05-01T11:20:19.72Z</time></trkpt><trkpt lat="39.3897776" lon="8.5286244"><ele>517.0</ele><time>2026-05-01T11:20:20.719Z</time></trkpt><trkpt lat="39.3897275" lon="8.5287555"><ele>517.0</ele><time>2026-05-01T11:20:21.719Z</time></trkpt><trkpt lat="39.3896755" lon="8.5289145"><ele>517.0</ele><time>2026-05-01T11:20:22.719Z</time></trkpt><trkpt lat="39.3896147" lon="8.5290864"><ele>518.5</ele><time>2026-05-01T11:20:23.719Z</time></trkpt><trkpt lat="39.3895593" lon="8.5292698"><ele>520.0</ele><time>2026-05-01T11:20:24.719Z</time></trkpt><trkpt lat="39.3895159" lon="8.5294655"><ele>521.5</ele><time>2026-05-01T11:20:25.719Z</time></trkpt><trkpt lat="39.3894909" lon="8.5296431"><ele>523.0</ele><time>2026-05-01T11:20:26.72Z</time></trkpt><trkpt lat="39.3894687" lon="8.5297901"><ele>525.3333333333334</ele><time>2026-05-01T11:20:27.719Z</time></trkpt><trkpt lat="39.3894432" lon="8.5299062"><ele>527.6666666666667</ele><time>2026-05-01T11:20:28.72Z</time></trkpt><trkpt lat="39.3894066" lon="8.529991"><ele>530.0</ele><time>2026-05-01T11:20:29.719Z</time></trkpt><trkpt lat="39.389351" lon="8.5300498"><ele>532.3333333333334</ele><time>2026-05-01T11:20:30.719Z</time></trkpt><trkpt lat="39.3892673" lon="8.5300773"><ele>534.6666666666666</ele><time>2026-05-01T11:20:31.718Z</time></trkpt><trkpt lat="39.3891614" lon="8.5300702"><ele>537.0</ele><time>2026-05-01T11:20:32.72Z</time></trkpt><trkpt lat="39.3890733" lon="8.5300392"><ele>537.0</ele><time>2026-05-01T11:20:33.72Z</time></trkpt><trkpt lat="39.3890017" lon="8.5299813"><ele>537.0</ele><time>2026-05-01T11:20:34.718Z</time></trkpt><trkpt lat="39.3889342" lon="8.5298839"><ele>537.0</ele><time>2026-05-01T11:20:35.718Z</time></trkpt><trkpt lat="39.3888669" lon="8.5297636"><ele>537.0</ele><time>2026-05-01T11:20:36.719Z</time></trkpt><trkpt lat="39.3888058" lon="8.5296219"><ele>537.0</ele><time>2026-05-01T11:20:37.72Z</time></trkpt><trkpt lat="39.3887247" lon="8.5294924"><ele>537.25</ele><time>2026-05-01T11:20:38.719Z</time></trkpt><trkpt lat="39.3886165" lon="8.5293842"><ele>537.5</ele><time>2026-05-01T11:20:39.718Z</time></trkpt><trkpt lat="39.388505" lon="8.5292807"><ele>537.75</ele><time>2026-05-01T11:20:40.718Z</time></trkpt><trkpt lat="39.3884248" lon="8.5291967"><ele>538.0</ele><time>2026-05-01T11:20:41.718Z</time></trkpt><trkpt lat="39.3883442" lon="8.5291092"><ele>538.0</ele><time>2026-05-01T11:20:42.718Z</time></trkpt><trkpt lat="39.3882634" lon="8.5290441"><ele>538.0</ele><time>2026-05-01T11:20:43.719Z</time></trkpt><trkpt lat="39.3881726" lon="8.5290118"><ele>538.0</ele><time>2026-05-01T11:20:44.719Z</time></trkpt><trkpt lat="39.3880716" lon="8.529017"><ele>538.0</ele><time>2026-05-01T11:20:45.719Z</time></trkpt><trkpt lat="39.387957" lon="8.5290382"><ele>538.0</ele><time>2026-05-01T11:20:46.719Z</time></trkpt><trkpt lat="39.3878464" lon="8.5290406"><ele>536.3333333333334</ele><time>2026-05-01T11:20:47.719Z</time></trkpt><trkpt lat="39.3877599" lon="8.5290321"><ele>534.6666666666667</ele><time>2026-05-01T11:20:48.719Z</time></trkpt><trkpt lat="39.3876932" lon="8.5290559"><ele>533.0</ele><time>2026-05-01T11:20:49.72Z</time></trkpt><trkpt lat="39.3876434" lon="8.5291074"><ele>531.3333333333334</ele><time>2026-05-01T11:20:50.719Z</time></trkpt><trkpt lat="39.3876255" lon="8.529192"><ele>529.6666666666666</ele><time>2026-05-01T11:20:51.718Z</time></trkpt><trkpt lat="39.3876318" lon="8.5293134"><ele>528.0</ele><time>2026-05-01T11:20:52.719Z</time></trkpt><trkpt lat="39.3876447" lon="8.5294694"><ele>528.75</ele><time>2026-05-01T11:20:53.719Z</time></trkpt><trkpt lat="39.3876527" lon="8.5296541"><ele>529.5</ele><time>2026-05-01T11:20:54.719Z</time></trkpt><trkpt lat="39.3876577" lon="8.529848"><ele>530.25</ele><time>2026-05-01T11:20:55.719Z</time></trkpt><trkpt lat="39.3876563" lon="8.5300261"><ele>531.0</ele><time>2026-05-01T11:20:56.718Z</time></trkpt><trkpt lat="39.3876499" lon="8.530175"><ele>531.0</ele><time>2026-05-01T11:20:57.72Z</time></trkpt><trkpt lat="39.3876337" lon="8.530294"><ele>531.0</ele><time>2026-05-01T11:20:58.719Z</time></trkpt><trkpt lat="39.3876015" lon="8.5303774"><ele>531.0</ele><time>2026-05-01T11:20:59.719Z</time></trkpt><trkpt lat="39.3875421" lon="8.530447"><ele>531.0</ele><time>2026-05-01T11:21:00.718Z</time></trkpt><trkpt lat="39.3874695" lon="8.5304985"><ele>531.0</ele><time>2026-05-01T11:21:01.718Z</time></trkpt><trkpt lat="39.3874199" lon="8.5305619"><ele>531.0</ele><time>2026-05-01T11:21:02.72Z</time></trkpt><trkpt lat="39.3873854" lon="8.5306645"><ele>532.5</ele><time>2026-05-01T11:21:03.719Z</time></trkpt><trkpt lat="39.3873665" lon="8.5307999"><ele>534.0</ele><time>2026-05-01T11:21:04.719Z</time></trkpt><trkpt lat="39.3873458" lon="8.5309626"><ele>535.5</ele><time>2026-05-01T11:21:05.72Z</time></trkpt><trkpt lat="39.3873119" lon="8.5311275"><ele>537.0</ele><time>2026-05-01T11:21:06.718Z</time></trkpt><trkpt lat="39.3872737" lon="8.5312746"><ele>537.0</ele><time>2026-05-01T11:21:07.719Z</time></trkpt><trkpt lat="39.387251" lon="8.5314066"><ele>537.0</ele><time>2026-05-01T11:21:08.718Z</time></trkpt><trkpt lat="39.387247" lon="8.5315154"><ele>537.0</ele><time>2026-05-01T11:21:09.719Z</time></trkpt><trkpt lat="39.3872667" lon="8.531605"><ele>537.0</ele><time>2026-05-01T11:21:10.72Z</time></trkpt><trkpt lat="39.3873232" lon="8.5316704"><ele>537.0</ele><time>2026-05-01T11:21:11.718Z</time></trkpt><trkpt lat="39.387388" lon="8.5317272"><ele>537.0</ele><time>2026-05-01T11:21:12.719Z</time></trkpt><trkpt lat="39.3874966" lon="8.5317649"><ele>537.0</ele><time>2026-05-01T11:21:13.718Z</time></trkpt><trkpt lat="39.3876317" lon="8.5318013"><ele>537.0</ele><time>2026-05-01T11:21:14.718Z</time></trkpt><trkpt lat="39.3877317" lon="8.5318479"><ele>537.0</ele><time>2026-05-01T11:21:15.719Z</time></trkpt><trkpt lat="39.3878055" lon="8.5318969"><ele>537.0</ele><time>2026-05-01T11:21:16.719Z</time></trkpt><trkpt lat="39.387852" lon="8.5319739"><ele>537.0</ele><time>2026-05-01T11:21:17.718Z</time></trkpt><trkpt lat="39.3878788" lon="8.5320631"><ele>534.6666666666666</ele><time>2026-05-01T11:21:18.719Z</time></trkpt><trkpt lat="39.3878807" lon="8.5321631"><ele>532.3333333333334</ele><time>2026-05-01T11:21:19.718Z</time></trkpt><trkpt lat="39.3878674" lon="8.5322733"><ele>530.0</ele><time>2026-05-01T11:21:20.719Z</time></trkpt><trkpt lat="39.387851" lon="8.5323764"><ele>527.6666666666667</ele><time>2026-05-01T11:21:21.719Z</time></trkpt><trkpt lat="39.3878487" lon="8.5324822"><ele>525.3333333333334</ele><time>2026-05-01T11:21:22.718Z</time></trkpt><trkpt lat="39.387864" lon="8.5326214"><ele>523.0</ele><time>2026-05-01T11:21:23.718Z</time></trkpt><trkpt lat="39.3878682" lon="8.5327536"><ele>523.0</ele><time>2026-05-01T11:21:24.719Z</time></trkpt><trkpt lat="39.3878504" lon="8.5328744"><ele>523.0</ele><time>2026-05-01T11:21:25.718Z</time></trkpt><trkpt lat="39.3878275" lon="8.5329814"><ele>523.0</ele><time>2026-05-01T11:21:26.719Z</time></trkpt><trkpt lat="39.3878229" lon="8.5330729"><ele>523.0</ele><time>2026-05-01T11:21:27.718Z</time></trkpt><trkpt lat="39.3878327" lon="8.5331543"><ele>523.0</ele><time>2026-05-01T11:21:28.719Z</time></trkpt><trkpt lat="39.3878764" lon="8.5332307"><ele>523.0</ele><time>2026-05-01T11:21:29.72Z</time></trkpt><trkpt lat="39.3879349" lon="8.5332876"><ele>527.0</ele><time>2026-05-01T11:21:30.718Z</time></trkpt><trkpt lat="39.3880162" lon="8.5333525"><ele>531.0</ele><time>2026-05-01T11:21:31.719Z</time></trkpt><trkpt lat="39.3880993" lon="8.5334151"><ele>535.0</ele><time>2026-05-01T11:21:32.72Z</time></trkpt><trkpt lat="39.388167" lon="8.5334681"><ele>539.0</ele><time>2026-05-01T11:21:33.72Z</time></trkpt><trkpt lat="39.3882209" lon="8.5335223"><ele>543.0</ele><time>2026-05-01T11:21:34.719Z</time></trkpt><trkpt lat="39.3882764" lon="8.5336564"><ele>543.0</ele><time>2026-05-01T11:21:36.719Z</time></trkpt><trkpt lat="39.3882243" lon="8.5337748"><ele>543.0</ele><time>2026-05-01T11:21:38.719Z</time></trkpt><trkpt lat="39.3881597" lon="8.5337983"><ele>543.0</ele><time>2026-05-01T11:21:39.719Z</time></trkpt><trkpt lat="39.388071" lon="8.5337969"><ele>543.0</ele><time>2026-05-01T11:21:40.719Z</time></trkpt><trkpt lat="39.3879738" lon="8.5337739"><ele>543.0</ele><time>2026-05-01T11:21:41.719Z</time></trkpt><trkpt lat="39.3878698" lon="8.5337469"><ele>538.6</ele><time>2026-05-01T11:21:42.72Z</time></trkpt><trkpt lat="39.3877522" lon="8.5337148"><ele>534.1999999999999</ele><time>2026-05-01T11:21:43.718Z</time></trkpt><trkpt lat="39.3876385" lon="8.5336846"><ele>529.8</ele><time>2026-05-01T11:21:44.72Z</time></trkpt><trkpt lat="39.3875387" lon="8.5336682"><ele>525.4</ele><time>2026-05-01T11:21:45.72Z</time></trkpt><trkpt lat="39.3874486" lon="8.5336713"><ele>521.0</ele><time>2026-05-01T11:21:46.72Z</time></trkpt><trkpt lat="39.3873608" lon="8.5336975"><ele>521.6</ele><time>2026-05-01T11:21:47.719Z</time></trkpt><trkpt lat="39.3872844" lon="8.5337597"><ele>522.2</ele><time>2026-05-01T11:21:48.718Z</time></trkpt><trkpt lat="39.3872184" lon="8.5338488"><ele>522.8</ele><time>2026-05-01T11:21:49.718Z</time></trkpt><trkpt lat="39.3871573" lon="8.5339611"><ele>523.4</ele><time>2026-05-01T11:21:50.718Z</time></trkpt><trkpt lat="39.387095" lon="8.5340769"><ele>524.0</ele><time>2026-05-01T11:21:51.72Z</time></trkpt><trkpt lat="39.3870382" lon="8.5341965"><ele>521.8</ele><time>2026-05-01T11:21:52.72Z</time></trkpt><trkpt lat="39.3870017" lon="8.5343095"><ele>519.5999999999999</ele><time>2026-05-01T11:21:53.719Z</time></trkpt><trkpt lat="39.3869792" lon="8.5344445"><ele>517.4</ele><time>2026-05-01T11:21:54.719Z</time></trkpt><trkpt lat="39.3869702" lon="8.5345854"><ele>515.1999999999999</ele><time>2026-05-01T11:21:55.718Z</time></trkpt><trkpt lat="39.3869754" lon="8.5347206"><ele>513.0</ele><time>2026-05-01T11:21:56.718Z</time></trkpt><trkpt lat="39.3869853" lon="8.5348606"><ele>513.0</ele><time>2026-05-01T11:21:57.719Z</time></trkpt><trkpt lat="39.3869787" lon="8.5349999"><ele>513.0</ele><time>2026-05-01T11:21:58.719Z</time></trkpt><trkpt lat="39.3869692" lon="8.5351437"><ele>513.0</ele><time>2026-05-01T11:21:59.72Z</time></trkpt><trkpt lat="39.3869616" lon="8.5352866"><ele>513.0</ele><time>2026-05-01T11:22:00.719Z</time></trkpt><trkpt lat="39.3869391" lon="8.5354224"><ele>513.0</ele><time>2026-05-01T11:22:01.719Z</time></trkpt><trkpt lat="39.3869019" lon="8.5355409"><ele>513.0</ele><time>2026-05-01T11:22:02.718Z</time></trkpt><trkpt lat="39.3868528" lon="8.5356514"><ele>513.0</ele><time>2026-05-01T11:22:03.719Z</time></trkpt><trkpt lat="39.3867957" lon="8.5357541"><ele>513.0</ele><time>2026-05-01T11:22:04.719Z</time></trkpt><trkpt lat="39.3867326" lon="8.5358457"><ele>513.0</ele><time>2026-05-01T11:22:05.719Z</time></trkpt><trkpt lat="39.3866565" lon="8.5359421"><ele>513.0</ele><time>2026-05-01T11:22:06.719Z</time></trkpt><trkpt lat="39.386573" lon="8.5360365"><ele>513.0</ele><time>2026-05-01T11:22:07.72Z</time></trkpt><trkpt lat="39.3864928" lon="8.5361099"><ele>513.0</ele><time>2026-05-01T11:22:08.718Z</time></trkpt><trkpt lat="39.3864219" lon="8.5361443"><ele>513.0</ele><time>2026-05-01T11:22:09.718Z</time></trkpt><trkpt lat="39.3863328" lon="8.5361648"><ele>513.0</ele><time>2026-05-01T11:22:10.719Z</time></trkpt><trkpt lat="39.3862246" lon="8.53617"><ele>513.0</ele><time>2026-05-01T11:22:11.719Z</time></trkpt><trkpt lat="39.3861008" lon="8.5361742"><ele>512.25</ele><time>2026-05-01T11:22:12.719Z</time></trkpt><trkpt lat="39.3859831" lon="8.5362052"><ele>511.5</ele><time>2026-05-01T11:22:13.72Z</time></trkpt><trkpt lat="39.3858655" lon="8.5362462"><ele>510.75</ele><time>2026-05-01T11:22:14.718Z</time></trkpt><trkpt lat="39.3857475" lon="8.5362897"><ele>510.0</ele><time>2026-05-01T11:22:15.72Z</time></trkpt><trkpt lat="39.3856311" lon="8.5363478"><ele>510.75</ele><time>2026-05-01T11:22:16.72Z</time></trkpt><trkpt lat="39.3855105" lon="8.53641"><ele>511.5</ele><time>2026-05-01T11:22:17.719Z</time></trkpt><trkpt lat="39.3853897" lon="8.5364726"><ele>512.25</ele><time>2026-05-01T11:22:18.718Z</time></trkpt><trkpt lat="39.3852636" lon="8.5365396"><ele>513.0</ele><time>2026-05-01T11:22:19.719Z</time></trkpt><trkpt lat="39.3851467" lon="8.5366027"><ele>513.0</ele><time>2026-05-01T11:22:20.718Z</time></trkpt><trkpt lat="39.3850301" lon="8.536663"><ele>513.0</ele><time>2026-05-01T11:22:21.719Z</time></trkpt><trkpt lat="39.3849181" lon="8.5367203"><ele>513.0</ele><time>2026-05-01T11:22:22.719Z</time></trkpt><trkpt lat="39.3848086" lon="8.5367743"><ele>513.0</ele><time>2026-05-01T11:22:23.72Z</time></trkpt><trkpt lat="39.384706" lon="8.5368132"><ele>513.6</ele><time>2026-05-01T11:22:24.718Z</time></trkpt><trkpt lat="39.3846218" lon="8.5368376"><ele>514.1999999999999</ele><time>2026-05-01T11:22:25.719Z</time></trkpt><trkpt lat="39.3845581" lon="8.5368508"><ele>514.8</ele><time>2026-05-01T11:22:26.718Z</time></trkpt><trkpt lat="39.3844517" lon="8.5368693"><ele>515.4</ele><time>2026-05-01T11:22:28.719Z</time></trkpt><trkpt lat="39.3843725" lon="8.5368507"><ele>516.0</ele><time>2026-05-01T11:22:30.719Z</time></trkpt><trkpt lat="39.3842792" lon="8.5367156"><ele>516.0</ele><time>2026-05-01T11:22:32.72Z</time></trkpt><trkpt lat="39.384209" lon="8.5366232"><ele>516.0</ele><time>2026-05-01T11:22:33.719Z</time></trkpt><trkpt lat="39.3841049" lon="8.5365263"><ele>516.0</ele><time>2026-05-01T11:22:34.718Z</time></trkpt><trkpt lat="39.3839971" lon="8.5364115"><ele>516.0</ele><time>2026-05-01T11:22:35.719Z</time></trkpt><trkpt lat="39.3838784" lon="8.5362863"><ele>519.25</ele><time>2026-05-01T11:22:36.718Z</time></trkpt><trkpt lat="39.3837557" lon="8.5361708"><ele>522.5</ele><time>2026-05-01T11:22:37.718Z</time></trkpt><trkpt lat="39.3836488" lon="8.5360786"><ele>525.75</ele><time>2026-05-01T11:22:38.719Z</time></trkpt><trkpt lat="39.383552" lon="8.5360074"><ele>529.0</ele><time>2026-05-01T11:22:39.718Z</time></trkpt><trkpt lat="39.3834704" lon="8.5359576"><ele>529.0</ele><time>2026-05-01T11:22:40.719Z</time></trkpt><trkpt lat="39.3833889" lon="8.5359004"><ele>529.0</ele><time>2026-05-01T11:22:42.719Z</time></trkpt><trkpt lat="39.3834789" lon="8.5359964"><ele>529.0</ele><time>2026-05-01T11:23:06.718Z</time></trkpt><trkpt lat="39.3835742" lon="8.536054"><ele>529.0</ele><time>2026-05-01T11:23:07.72Z</time></trkpt><trkpt lat="39.383686" lon="8.5361356"><ele>529.0</ele><time>2026-05-01T11:23:08.72Z</time></trkpt><trkpt lat="39.3838078" lon="8.536239"><ele>525.75</ele><time>2026-05-01T11:23:09.72Z</time></trkpt><trkpt lat="39.3839274" lon="8.5363584"><ele>522.5</ele><time>2026-05-01T11:23:10.718Z</time></trkpt><trkpt lat="39.3840438" lon="8.5364759"><ele>519.25</ele><time>2026-05-01T11:23:11.719Z</time></trkpt><trkpt lat="39.384145" lon="8.5365785"><ele>516.0</ele><time>2026-05-01T11:23:12.719Z</time></trkpt><trkpt lat="39.3842296" lon="8.5366602"><ele>516.0</ele><time>2026-05-01T11:23:13.72Z</time></trkpt><trkpt lat="39.3842942" lon="8.5367338"><ele>516.0</ele><time>2026-05-01T11:23:14.72Z</time></trkpt><trkpt lat="39.384355" lon="8.5368174"><ele>516.0</ele><time>2026-05-01T11:23:15.72Z</time></trkpt><trkpt lat="39.3844055" lon="8.5369107"><ele>516.0</ele><time>2026-05-01T11:23:16.718Z</time></trkpt><trkpt lat="39.3844463" lon="8.5370056"><ele>516.0</ele><time>2026-05-01T11:23:17.718Z</time></trkpt><trkpt lat="39.3844938" lon="8.5370939"><ele>516.0</ele><time>2026-05-01T11:23:18.72Z</time></trkpt><trkpt lat="39.3845504" lon="8.5371926"><ele>515.6666666666666</ele><time>2026-05-01T11:23:19.718Z</time></trkpt><trkpt lat="39.3846051" lon="8.5373008"><ele>515.3333333333334</ele><time>2026-05-01T11:23:20.718Z</time></trkpt><trkpt lat="39.3846506" lon="8.5374072"><ele>515.0</ele><time>2026-05-01T11:23:21.719Z</time></trkpt><trkpt lat="39.3846971" lon="8.5375044"><ele>514.6666666666667</ele><time>2026-05-01T11:23:22.718Z</time></trkpt><trkpt lat="39.3847436" lon="8.5375958"><ele>514.3333333333334</ele><time>2026-05-01T11:23:23.718Z</time></trkpt><trkpt lat="39.3847873" lon="8.5376805"><ele>514.0</ele><time>2026-05-01T11:23:24.718Z</time></trkpt><trkpt lat="39.3848336" lon="8.5377532"><ele>513.5</ele><time>2026-05-01T11:23:25.719Z</time></trkpt><trkpt lat="39.3848851" lon="8.5378126"><ele>513.0</ele><time>2026-05-01T11:23:26.718Z</time></trkpt><trkpt lat="39.3849586" lon="8.5378788"><ele>512.5</ele><time>2026-05-01T11:23:27.718Z</time></trkpt><trkpt lat="39.3850399" lon="8.5379355"><ele>512.0</ele><time>2026-05-01T11:23:28.719Z</time></trkpt><trkpt lat="39.3851259" lon="8.5379852"><ele>511.50000000000006</ele><time>2026-05-01T11:23:29.718Z</time></trkpt><trkpt lat="39.3852134" lon="8.5380318"><ele>511.0</ele><time>2026-05-01T11:23:30.72Z</time></trkpt><trkpt lat="39.3852988" lon="8.5380675"><ele>512.3333333333334</ele><time>2026-05-01T11:23:31.719Z</time></trkpt><trkpt lat="39.3853827" lon="8.5381077"><ele>513.6666666666667</ele><time>2026-05-01T11:23:32.719Z</time></trkpt><trkpt lat="39.3854603" lon="8.5381585"><ele>515.0</ele><time>2026-05-01T11:23:33.719Z</time></trkpt><trkpt lat="39.3855282" lon="8.5382029"><ele>516.3333333333334</ele><time>2026-05-01T11:23:34.719Z</time></trkpt><trkpt lat="39.3855963" lon="8.5382438"><ele>517.6666666666666</ele><time>2026-05-01T11:23:35.718Z</time></trkpt><trkpt lat="39.3856586" lon="8.5382852"><ele>519.0</ele><time>2026-05-01T11:23:36.719Z</time></trkpt><trkpt lat="39.3857238" lon="8.5383236"><ele>519.4285714285714</ele><time>2026-05-01T11:23:37.719Z</time></trkpt><trkpt lat="39.3857865" lon="8.5383689"><ele>519.8571428571428</ele><time>2026-05-01T11:23:38.719Z</time></trkpt><trkpt lat="39.3858487" lon="8.5384151"><ele>520.2857142857142</ele><time>2026-05-01T11:23:39.719Z</time></trkpt><trkpt lat="39.3859128" lon="8.5384625"><ele>520.7142857142857</ele><time>2026-05-01T11:23:40.719Z</time></trkpt><trkpt lat="39.3859748" lon="8.5385081"><ele>521.1428571428571</ele><time>2026-05-01T11:23:41.718Z</time></trkpt><trkpt lat="39.3860385" lon="8.5385488"><ele>521.5714285714286</ele><time>2026-05-01T11:23:42.719Z</time></trkpt><trkpt lat="39.3861029" lon="8.5385976"><ele>522.0</ele><time>2026-05-01T11:23:43.718Z</time></trkpt><trkpt lat="39.3861662" lon="8.5386496"><ele>522.0</ele><time>2026-05-01T11:23:44.718Z</time></trkpt><trkpt lat="39.3862314" lon="8.5387086"><ele>522.0</ele><time>2026-05-01T11:23:45.719Z</time></trkpt><trkpt lat="39.3862983" lon="8.5387676"><ele>522.0</ele><time>2026-05-01T11:23:46.719Z</time></trkpt><trkpt lat="39.3863724" lon="8.5388308"><ele>522.0</ele><time>2026-05-01T11:23:47.719Z</time></trkpt><trkpt lat="39.3864533" lon="8.5388853"><ele>522.0</ele><time>2026-05-01T11:23:48.718Z</time></trkpt><trkpt lat="39.3865345" lon="8.5389345"><ele>522.0</ele><time>2026-05-01T11:23:49.72Z</time></trkpt><trkpt lat="39.3866102" lon="8.5389753"><ele>524.5</ele><time>2026-05-01T11:23:50.718Z</time></trkpt><trkpt lat="39.3866813" lon="8.5390036"><ele>527.0</ele><time>2026-05-01T11:23:51.719Z</time></trkpt><trkpt lat="39.3867503" lon="8.5390222"><ele>529.5</ele><time>2026-05-01T11:23:52.719Z</time></trkpt><trkpt lat="39.3868147" lon="8.5390393"><ele>532.0</ele><time>2026-05-01T11:23:53.719Z</time></trkpt><trkpt lat="39.3869405" lon="8.5390669"><ele>534.5</ele><time>2026-05-01T11:23:55.72Z</time></trkpt><trkpt lat="39.3870048" lon="8.539087"><ele>537.0</ele><time>2026-05-01T11:23:56.719Z</time></trkpt><trkpt lat="39.3870734" lon="8.5391141"><ele>536.9999999999999</ele><time>2026-05-01T11:23:57.718Z</time></trkpt><trkpt lat="39.387138" lon="8.5391484"><ele>537.0</ele><time>2026-05-01T11:23:58.719Z</time></trkpt><trkpt lat="39.3872024" lon="8.5391804"><ele>537.0</ele><time>2026-05-01T11:23:59.719Z</time></trkpt><trkpt lat="39.3872709" lon="8.5392002"><ele>537.0</ele><time>2026-05-01T11:24:00.719Z</time></trkpt><trkpt lat="39.3873387" lon="8.5392249"><ele>537.0</ele><time>2026-05-01T11:24:01.719Z</time></trkpt><trkpt lat="39.3874066" lon="8.5392508"><ele>536.9999999999999</ele><time>2026-05-01T11:24:02.72Z</time></trkpt><trkpt lat="39.387478" lon="8.5392782"><ele>537.0</ele><time>2026-05-01T11:24:03.72Z</time></trkpt><trkpt lat="39.3875482" lon="8.5393005"><ele>536.8571428571428</ele><time>2026-05-01T11:24:04.718Z</time></trkpt><trkpt lat="39.3876199" lon="8.5393339"><ele>536.7142857142857</ele><time>2026-05-01T11:24:05.719Z</time></trkpt><trkpt lat="39.3876889" lon="8.5393695"><ele>536.5714285714286</ele><time>2026-05-01T11:24:06.719Z</time></trkpt><trkpt lat="39.3877583" lon="8.5393944"><ele>536.4285714285713</ele><time>2026-05-01T11:24:07.718Z</time></trkpt><trkpt lat="39.3878275" lon="8.5394249"><ele>536.2857142857142</ele><time>2026-05-01T11:24:08.718Z</time></trkpt><trkpt lat="39.387896" lon="8.539454"><ele>536.1428571428571</ele><time>2026-05-01T11:24:09.719Z</time></trkpt><trkpt lat="39.3879624" lon="8.5394853"><ele>536.0</ele><time>2026-05-01T11:24:10.719Z</time></trkpt><trkpt lat="39.3880314" lon="8.539521"><ele>537.0</ele><time>2026-05-01T11:24:11.719Z</time></trkpt><trkpt lat="39.3880956" lon="8.5395601"><ele>538.0</ele><time>2026-05-01T11:24:12.718Z</time></trkpt><trkpt lat="39.3881575" lon="8.5396044"><ele>539.0</ele><time>2026-05-01T11:24:13.718Z</time></trkpt><trkpt lat="39.3882153" lon="8.5396572"><ele>540.0</ele><time>2026-05-01T11:24:14.718Z</time></trkpt><trkpt lat="39.3882703" lon="8.5397161"><ele>541.0</ele><time>2026-05-01T11:24:15.719Z</time></trkpt><trkpt lat="39.3883248" lon="8.5397797"><ele>542.0</ele><time>2026-05-01T11:24:16.719Z</time></trkpt><trkpt lat="39.3883805" lon="8.5398509"><ele>543.0</ele><time>2026-05-01T11:24:17.719Z</time></trkpt><trkpt lat="39.3884383" lon="8.5399252"><ele>543.0</ele><time>2026-05-01T11:24:18.72Z</time></trkpt><trkpt lat="39.3885028" lon="8.5399976"><ele>543.0</ele><time>2026-05-01T11:24:19.718Z</time></trkpt><trkpt lat="39.3885705" lon="8.5400752"><ele>543.0</ele><time>2026-05-01T11:24:20.72Z</time></trkpt><trkpt lat="39.3886398" lon="8.5401743"><ele>543.0</ele><time>2026-05-01T11:24:21.72Z</time></trkpt><trkpt lat="39.3887082" lon="8.5402677"><ele>543.0</ele><time>2026-05-01T11:24:22.719Z</time></trkpt><trkpt lat="39.3887831" lon="8.5403221"><ele>544.0</ele><time>2026-05-01T11:24:23.72Z</time></trkpt><trkpt lat="39.3888604" lon="8.540349"><ele>545.0</ele><time>2026-05-01T11:24:24.719Z</time></trkpt><trkpt lat="39.388951" lon="8.5403437"><ele>546.0</ele><time>2026-05-01T11:24:25.719Z</time></trkpt><trkpt lat="39.389054" lon="8.5403143"><ele>547.0</ele><time>2026-05-01T11:24:26.719Z</time></trkpt><trkpt lat="39.3891605" lon="8.5402938"><ele>548.0</ele><time>2026-05-01T11:24:27.719Z</time></trkpt><trkpt lat="39.3892739" lon="8.5402722"><ele>548.0</ele><time>2026-05-01T11:24:28.719Z</time></trkpt><trkpt lat="39.3893874" lon="8.5402481"><ele>548.0</ele><time>2026-05-01T11:24:29.719Z</time></trkpt><trkpt lat="39.3894999" lon="8.5402225"><ele>548.0</ele><time>2026-05-01T11:24:30.718Z</time></trkpt><trkpt lat="39.3896172" lon="8.540198"><ele>548.0</ele><time>2026-05-01T11:24:31.718Z</time></trkpt><trkpt lat="39.3897218" lon="8.5401753"><ele>548.25</ele><time>2026-05-01T11:24:32.719Z</time></trkpt><trkpt lat="39.3898201" lon="8.5401462"><ele>548.5</ele><time>2026-05-01T11:24:33.718Z</time></trkpt><trkpt lat="39.3899302" lon="8.5401055"><ele>548.75</ele><time>2026-05-01T11:24:34.718Z</time></trkpt><trkpt lat="39.3900426" lon="8.5400591"><ele>549.0</ele><time>2026-05-01T11:24:35.718Z</time></trkpt><trkpt lat="39.3901626" lon="8.5400122"><ele>549.0</ele><time>2026-05-01T11:24:36.719Z</time></trkpt><trkpt lat="39.3902766" lon="8.5399725"><ele>549.0</ele><time>2026-05-01T11:24:37.72Z</time></trkpt><trkpt lat="39.3903832" lon="8.5399432"><ele>549.0</ele><time>2026-05-01T11:24:38.719Z</time></trkpt><trkpt lat="39.3904835" lon="8.539928"><ele>549.0</ele><time>2026-05-01T11:24:39.72Z</time></trkpt><trkpt lat="39.3905763" lon="8.5399332"><ele>549.0</ele><time>2026-05-01T11:24:40.719Z</time></trkpt><trkpt lat="39.3906616" lon="8.539945"><ele>548.6666666666666</ele><time>2026-05-01T11:24:41.72Z</time></trkpt><trkpt lat="39.3907338" lon="8.5399693"><ele>548.3333333333334</ele><time>2026-05-01T11:24:42.719Z</time></trkpt><trkpt lat="39.3907885" lon="8.5400155"><ele>548.0</ele><time>2026-05-01T11:24:43.719Z</time></trkpt><trkpt lat="39.3908475" lon="8.5401617"><ele>547.6666666666667</ele><time>2026-05-01T11:24:45.72Z</time></trkpt><trkpt lat="39.3908434" lon="8.5402458"><ele>547.3333333333334</ele><time>2026-05-01T11:24:46.719Z</time></trkpt><trkpt lat="39.3908265" lon="8.5403346"><ele>547.0</ele><time>2026-05-01T11:24:47.719Z</time></trkpt><trkpt lat="39.3908153" lon="8.5404267"><ele>548.0</ele><time>2026-05-01T11:24:48.718Z</time></trkpt><trkpt lat="39.390839" lon="8.5405023"><ele>549.0</ele><time>2026-05-01T11:24:49.718Z</time></trkpt><trkpt lat="39.3908884" lon="8.5405716"><ele>550.0</ele><time>2026-05-01T11:24:50.718Z</time></trkpt><trkpt lat="39.3909686" lon="8.5406287"><ele>551.0</ele><time>2026-05-01T11:24:51.718Z</time></trkpt><trkpt lat="39.3910766" lon="8.5406738"><ele>552.0</ele><time>2026-05-01T11:24:52.719Z</time></trkpt><trkpt lat="39.3911752" lon="8.5407225"><ele>553.0</ele><time>2026-05-01T11:24:53.719Z</time></trkpt><trkpt lat="39.3913452" lon="8.540796"><ele>549.0</ele><time>2026-05-01T11:24:54.72Z</time></trkpt><trkpt lat="39.3914823" lon="8.5408622"><ele>545.0</ele><time>2026-05-01T11:24:55.718Z</time></trkpt><trkpt lat="39.3916111" lon="8.5409115"><ele>541.0</ele><time>2026-05-01T11:24:56.719Z</time></trkpt><trkpt lat="39.391717" lon="8.5409202"><ele>537.0</ele><time>2026-05-01T11:24:57.719Z</time></trkpt><trkpt lat="39.391824" lon="8.5409246"><ele>537.0</ele><time>2026-05-01T11:24:58.718Z</time></trkpt><trkpt lat="39.3919373" lon="8.5409163"><ele>537.0</ele><time>2026-05-01T11:24:59.72Z</time></trkpt><trkpt lat="39.3920435" lon="8.5409278"><ele>537.0</ele><time>2026-05-01T11:25:00.719Z</time></trkpt><trkpt lat="39.3921451" lon="8.540971"><ele>537.0</ele><time>2026-05-01T11:25:01.718Z</time></trkpt><trkpt lat="39.3922651" lon="8.5410451"><ele>535.0</ele><time>2026-05-01T11:25:02.72Z</time></trkpt><trkpt lat="39.3923814" lon="8.5411428"><ele>533.0</ele><time>2026-05-01T11:25:03.718Z</time></trkpt><trkpt lat="39.3925123" lon="8.5412372"><ele>531.0</ele><time>2026-05-01T11:25:04.719Z</time></trkpt><trkpt lat="39.3926508" lon="8.5413276"><ele>529.0</ele><time>2026-05-01T11:25:05.718Z</time></trkpt><trkpt lat="39.3927806" lon="8.5414248"><ele>531.5</ele><time>2026-05-01T11:25:06.72Z</time></trkpt><trkpt lat="39.3928959" lon="8.5415037"><ele>534.0</ele><time>2026-05-01T11:25:07.719Z</time></trkpt><trkpt lat="39.3930115" lon="8.5415647"><ele>536.5</ele><time>2026-05-01T11:25:08.718Z</time></trkpt><trkpt lat="39.3931288" lon="8.5415958"><ele>539.0</ele><time>2026-05-01T11:25:09.717Z</time></trkpt><trkpt lat="39.3932303" lon="8.5415941"><ele>539.0</ele><time>2026-05-01T11:25:10.718Z</time></trkpt><trkpt lat="39.3933607" lon="8.5415749"><ele>539.0</ele><time>2026-05-01T11:25:11.717Z</time></trkpt><trkpt lat="39.3934911" lon="8.5415532"><ele>539.0</ele><time>2026-05-01T11:25:12.718Z</time></trkpt><trkpt lat="39.3936142" lon="8.5415182"><ele>539.0</ele><time>2026-05-01T11:25:13.717Z</time></trkpt><trkpt lat="39.3937171" lon="8.5414854"><ele>539.0</ele><time>2026-05-01T11:25:14.719Z</time></trkpt><trkpt lat="39.3938059" lon="8.5414774"><ele>539.0</ele><time>2026-05-01T11:25:15.718Z</time></trkpt><trkpt lat="39.3938782" lon="8.5414848"><ele>539.0</ele><time>2026-05-01T11:25:16.718Z</time></trkpt><trkpt lat="39.3939367" lon="8.5415207"><ele>539.0</ele><time>2026-05-01T11:25:17.719Z</time></trkpt><trkpt lat="39.3939995" lon="8.5415694"><ele>539.0</ele><time>2026-05-01T11:25:18.718Z</time></trkpt><trkpt lat="39.3940285" lon="8.5416776"><ele>539.0</ele><time>2026-05-01T11:25:19.718Z</time></trkpt><trkpt lat="39.3940635" lon="8.5417744"><ele>538.8</ele><time>2026-05-01T11:25:20.719Z</time></trkpt><trkpt lat="39.3940875" lon="8.5418813"><ele>538.5999999999999</ele><time>2026-05-01T11:25:21.717Z</time></trkpt><trkpt lat="39.3941278" lon="8.5419961"><ele>538.4</ele><time>2026-05-01T11:25:22.719Z</time></trkpt><trkpt lat="39.394169" lon="8.5421273"><ele>538.1999999999999</ele><time>2026-05-01T11:25:23.717Z</time></trkpt><trkpt lat="39.3942076" lon="8.5422595"><ele>538.0</ele><time>2026-05-01T11:25:24.718Z</time></trkpt><trkpt lat="39.3942438" lon="8.5423795"><ele>536.0</ele><time>2026-05-01T11:25:25.719Z</time></trkpt><trkpt lat="39.3942684" lon="8.5424855"><ele>534.0</ele><time>2026-05-01T11:25:26.718Z</time></trkpt><trkpt lat="39.3942818" lon="8.5425778"><ele>532.0</ele><time>2026-05-01T11:25:27.718Z</time></trkpt><trkpt lat="39.3942492" lon="8.5427287"><ele>530.0</ele><time>2026-05-01T11:25:29.719Z</time></trkpt><trkpt lat="39.3941977" lon="8.5428078"><ele>528.0</ele><time>2026-05-01T11:25:30.717Z</time></trkpt><trkpt lat="39.3941259" lon="8.5428734"><ele>526.0</ele><time>2026-05-01T11:25:31.719Z</time></trkpt><trkpt lat="39.394036" lon="8.5429206"><ele>522.0</ele><time>2026-05-01T11:25:32.718Z</time></trkpt><trkpt lat="39.3939588" lon="8.5429646"><ele>518.0</ele><time>2026-05-01T11:25:33.718Z</time></trkpt><trkpt lat="39.3939046" lon="8.5430311"><ele>514.0</ele><time>2026-05-01T11:25:34.718Z</time></trkpt><trkpt lat="39.3938557" lon="8.5431224"><ele>510.0</ele><time>2026-05-01T11:25:35.719Z</time></trkpt><trkpt lat="39.3938188" lon="8.5432481"><ele>506.0</ele><time>2026-05-01T11:25:36.717Z</time></trkpt><trkpt lat="39.3937876" lon="8.5433878"><ele>512.75</ele><time>2026-05-01T11:25:37.718Z</time></trkpt><trkpt lat="39.3937619" lon="8.5435524"><ele>519.5</ele><time>2026-05-01T11:25:38.719Z</time></trkpt><trkpt lat="39.3937464" lon="8.543723"><ele>526.25</ele><time>2026-05-01T11:25:39.718Z</time></trkpt><trkpt lat="39.3937246" lon="8.5438842"><ele>533.0</ele><time>2026-05-01T11:25:40.718Z</time></trkpt><trkpt lat="39.3936952" lon="8.544043"><ele>533.0</ele><time>2026-05-01T11:25:41.717Z</time></trkpt><trkpt lat="39.3936519" lon="8.5442028"><ele>533.0</ele><time>2026-05-01T11:25:42.717Z</time></trkpt><trkpt lat="39.3936049" lon="8.5443578"><ele>533.0</ele><time>2026-05-01T11:25:43.719Z</time></trkpt><trkpt lat="39.3935471" lon="8.5445169"><ele>533.0</ele><time>2026-05-01T11:25:44.718Z</time></trkpt><trkpt lat="39.3935035" lon="8.5446693"><ele>529.8</ele><time>2026-05-01T11:25:45.718Z</time></trkpt><trkpt lat="39.3934764" lon="8.5448146"><ele>526.5999999999999</ele><time>2026-05-01T11:25:46.719Z</time></trkpt><trkpt lat="39.3934542" lon="8.5449505"><ele>523.4000000000001</ele><time>2026-05-01T11:25:47.718Z</time></trkpt><trkpt lat="39.3934481" lon="8.5450576"><ele>520.2</ele><time>2026-05-01T11:25:48.718Z</time></trkpt><trkpt lat="39.3934334" lon="8.545146"><ele>517.0</ele><time>2026-05-01T11:25:49.719Z</time></trkpt><trkpt lat="39.3933546" lon="8.5452517"><ele>517.0</ele><time>2026-05-01T11:25:51.718Z</time></trkpt><trkpt lat="39.3932843" lon="8.5453083"><ele>517.0</ele><time>2026-05-01T11:25:52.718Z</time></trkpt><trkpt lat="39.393237" lon="8.545447"><ele>517.0</ele><time>2026-05-01T11:25:54.719Z</time></trkpt><trkpt lat="39.3932403" lon="8.5455587"><ele>517.0</ele><time>2026-05-01T11:25:55.718Z</time></trkpt><trkpt lat="39.3932597" lon="8.5456919"><ele>517.0</ele><time>2026-05-01T11:25:56.717Z</time></trkpt><trkpt lat="39.3932861" lon="8.54583"><ele>513.8333333333334</ele><time>2026-05-01T11:25:57.718Z</time></trkpt><trkpt lat="39.3933088" lon="8.5459535"><ele>510.6666666666667</ele><time>2026-05-01T11:25:58.718Z</time></trkpt><trkpt lat="39.3933149" lon="8.5460613"><ele>507.5</ele><time>2026-05-01T11:25:59.718Z</time></trkpt><trkpt lat="39.3932984" lon="8.5461632"><ele>504.33333333333337</ele><time>2026-05-01T11:26:00.718Z</time></trkpt><trkpt lat="39.3932661" lon="8.5462653"><ele>501.1666666666667</ele><time>2026-05-01T11:26:01.717Z</time></trkpt><trkpt lat="39.3932184" lon="8.5463817"><ele>498.0</ele><time>2026-05-01T11:26:02.717Z</time></trkpt><trkpt lat="39.3931706" lon="8.5465082"><ele>498.4</ele><time>2026-05-01T11:26:03.718Z</time></trkpt><trkpt lat="39.3931387" lon="8.5466304"><ele>498.79999999999995</ele><time>2026-05-01T11:26:04.717Z</time></trkpt><trkpt lat="39.393134" lon="8.5467538"><ele>499.2</ele><time>2026-05-01T11:26:05.718Z</time></trkpt><trkpt lat="39.3931519" lon="8.5468963"><ele>499.6</ele><time>2026-05-01T11:26:06.719Z</time></trkpt><trkpt lat="39.39319" lon="8.5470466"><ele>500.0</ele><time>2026-05-01T11:26:07.718Z</time></trkpt><trkpt lat="39.3932541" lon="8.5472119"><ele>500.0</ele><time>2026-05-01T11:26:08.718Z</time></trkpt><trkpt lat="39.3933061" lon="8.5473618"><ele>500.0</ele><time>2026-05-01T11:26:09.718Z</time></trkpt><trkpt lat="39.393366" lon="8.5474976"><ele>500.0</ele><time>2026-05-01T11:26:10.719Z</time></trkpt><trkpt lat="39.3934357" lon="8.5476015"><ele>500.0</ele><time>2026-05-01T11:26:11.717Z</time></trkpt><trkpt lat="39.393524" lon="8.5477118"><ele>500.0</ele><time>2026-05-01T11:26:12.717Z</time></trkpt><trkpt lat="39.3935995" lon="8.5478267"><ele>500.0</ele><time>2026-05-01T11:26:13.719Z</time></trkpt><trkpt lat="39.393656" lon="8.5479243"><ele>500.0</ele><time>2026-05-01T11:26:14.718Z</time></trkpt><trkpt lat="39.3936919" lon="8.5480129"><ele>500.0</ele><time>2026-05-01T11:26:15.718Z</time></trkpt><trkpt lat="39.3936762" lon="8.5481509"><ele>500.0</ele><time>2026-05-01T11:26:17.718Z</time></trkpt><trkpt lat="39.3936208" lon="8.5482016"><ele>500.4</ele><time>2026-05-01T11:26:18.718Z</time></trkpt><trkpt lat="39.3935337" lon="8.5482109"><ele>500.8</ele><time>2026-05-01T11:26:19.718Z</time></trkpt><trkpt lat="39.3934442" lon="8.5482415"><ele>501.20000000000005</ele><time>2026-05-01T11:26:20.718Z</time></trkpt><trkpt lat="39.3933611" lon="8.5483109"><ele>501.6</ele><time>2026-05-01T11:26:21.718Z</time></trkpt><trkpt lat="39.3932874" lon="8.5484049"><ele>502.0</ele><time>2026-05-01T11:26:22.718Z</time></trkpt><trkpt lat="39.3932352" lon="8.5485162"><ele>501.99999999999994</ele><time>2026-05-01T11:26:23.717Z</time></trkpt><trkpt lat="39.3932146" lon="8.5486146"><ele>502.0</ele><time>2026-05-01T11:26:24.718Z</time></trkpt><trkpt lat="39.3932237" lon="8.5487313"><ele>501.99999999999994</ele><time>2026-05-01T11:26:25.717Z</time></trkpt><trkpt lat="39.3932594" lon="8.5488112"><ele>501.99999999999994</ele><time>2026-05-01T11:26:26.718Z</time></trkpt><trkpt lat="39.3933091" lon="8.5488618"><ele>502.0</ele><time>2026-05-01T11:26:27.718Z</time></trkpt><trkpt lat="39.3933725" lon="8.5488938"><ele>501.99999999999994</ele><time>2026-05-01T11:26:28.719Z</time></trkpt><trkpt lat="39.3934454" lon="8.5488898"><ele>501.99999999999994</ele><time>2026-05-01T11:26:29.717Z</time></trkpt><trkpt lat="39.3935233" lon="8.5488691"><ele>502.75</ele><time>2026-05-01T11:26:30.718Z</time></trkpt><trkpt lat="39.3936676" lon="8.5488461"><ele>503.5</ele><time>2026-05-01T11:26:31.719Z</time></trkpt><trkpt lat="39.3938068" lon="8.5488263"><ele>504.25</ele><time>2026-05-01T11:26:32.718Z</time></trkpt><trkpt lat="39.3939632" lon="8.5488053"><ele>505.0</ele><time>2026-05-01T11:26:33.717Z</time></trkpt><trkpt lat="39.3941057" lon="8.5487818"><ele>503.25</ele><time>2026-05-01T11:26:34.718Z</time></trkpt><trkpt lat="39.3942348" lon="8.5487614"><ele>501.5</ele><time>2026-05-01T11:26:35.718Z</time></trkpt><trkpt lat="39.3943726" lon="8.5487528"><ele>499.75</ele><time>2026-05-01T11:26:36.717Z</time></trkpt><trkpt lat="39.3945035" lon="8.5487698"><ele>498.0</ele><time>2026-05-01T11:26:37.718Z</time></trkpt><trkpt lat="39.3946347" lon="8.5487991"><ele>495.0</ele><time>2026-05-01T11:26:38.719Z</time></trkpt><trkpt lat="39.3947838" lon="8.5488496"><ele>492.0</ele><time>2026-05-01T11:26:39.717Z</time></trkpt><trkpt lat="39.3949485" lon="8.548911"><ele>489.0</ele><time>2026-05-01T11:26:40.718Z</time></trkpt><trkpt lat="39.395104" lon="8.5489702"><ele>489.0</ele><time>2026-05-01T11:26:41.719Z</time></trkpt><trkpt lat="39.395227" lon="8.5490192"><ele>489.0</ele><time>2026-05-01T11:26:42.718Z</time></trkpt><trkpt lat="39.3953359" lon="8.5490693"><ele>489.0</ele><time>2026-05-01T11:26:43.718Z</time></trkpt><trkpt lat="39.3954267" lon="8.549127"><ele>489.0</ele><time>2026-05-01T11:26:44.718Z</time></trkpt><trkpt lat="39.3954978" lon="8.5492018"><ele>489.0</ele><time>2026-05-01T11:26:45.718Z</time></trkpt><trkpt lat="39.3955632" lon="8.5493107"><ele>489.5</ele><time>2026-05-01T11:26:46.717Z</time></trkpt><trkpt lat="39.395623" lon="8.549449"><ele>490.0</ele><time>2026-05-01T11:26:47.718Z</time></trkpt><trkpt lat="39.39568" lon="8.5496005"><ele>490.5</ele><time>2026-05-01T11:26:48.717Z</time></trkpt><trkpt lat="39.3957327" lon="8.5497477"><ele>491.0</ele><time>2026-05-01T11:26:49.717Z</time></trkpt><trkpt lat="39.3957797" lon="8.5498699"><ele>491.0</ele><time>2026-05-01T11:26:50.718Z</time></trkpt><trkpt lat="39.3958247" lon="8.5499784"><ele>491.0</ele><time>2026-05-01T11:26:51.718Z</time></trkpt><trkpt lat="39.395877" lon="8.5500699"><ele>491.0</ele><time>2026-05-01T11:26:52.719Z</time></trkpt><trkpt lat="39.3959478" lon="8.5501617"><ele>491.0</ele><time>2026-05-01T11:26:53.718Z</time></trkpt><trkpt lat="39.3960348" lon="8.550244"><ele>491.0</ele><time>2026-05-01T11:26:54.718Z</time></trkpt><trkpt lat="39.3961196" lon="8.5503153"><ele>494.0</ele><time>2026-05-01T11:26:55.717Z</time></trkpt><trkpt lat="39.3961986" lon="8.5503892"><ele>497.0</ele><time>2026-05-01T11:26:56.718Z</time></trkpt><trkpt lat="39.3962753" lon="8.5504709"><ele>500.0</ele><time>2026-05-01T11:26:57.719Z</time></trkpt><trkpt lat="39.3963591" lon="8.5505582"><ele>503.0</ele><time>2026-05-01T11:26:58.717Z</time></trkpt><trkpt lat="39.3964399" lon="8.5506285"><ele>506.0</ele><time>2026-05-01T11:26:59.717Z</time></trkpt><trkpt lat="39.396517" lon="8.550721"><ele>506.0</ele><time>2026-05-01T11:27:00.717Z</time></trkpt><trkpt lat="39.3965951" lon="8.5508118"><ele>506.0</ele><time>2026-05-01T11:27:01.718Z</time></trkpt><trkpt lat="39.3966673" lon="8.5509058"><ele>506.0</ele><time>2026-05-01T11:27:02.718Z</time></trkpt><trkpt lat="39.396746" lon="8.5509833"><ele>506.0</ele><time>2026-05-01T11:27:03.717Z</time></trkpt><trkpt lat="39.3968122" lon="8.5510677"><ele>506.0</ele><time>2026-05-01T11:27:04.717Z</time></trkpt><trkpt lat="39.3968841" lon="8.5511461"><ele>509.4</ele><time>2026-05-01T11:27:05.717Z</time></trkpt><trkpt lat="39.3969545" lon="8.551225"><ele>512.8</ele><time>2026-05-01T11:27:06.718Z</time></trkpt><trkpt lat="39.397027" lon="8.5512982"><ele>516.1999999999999</ele><time>2026-05-01T11:27:07.718Z</time></trkpt><trkpt lat="39.3971007" lon="8.5513674"><ele>519.6</ele><time>2026-05-01T11:27:08.718Z</time></trkpt><trkpt lat="39.3971819" lon="8.5514252"><ele>523.0</ele><time>2026-05-01T11:27:09.717Z</time></trkpt><trkpt lat="39.3972533" lon="8.5514764"><ele>523.1999999999999</ele><time>2026-05-01T11:27:10.717Z</time></trkpt><trkpt lat="39.3973117" lon="8.5515372"><ele>523.4</ele><time>2026-05-01T11:27:11.718Z</time></trkpt><trkpt lat="39.3973248" lon="8.5516335"><ele>523.5999999999999</ele><time>2026-05-01T11:27:13.717Z</time></trkpt><trkpt lat="39.3973292" lon="8.5517216"><ele>523.8</ele><time>2026-05-01T11:27:14.717Z</time></trkpt><trkpt lat="39.3973513" lon="8.5518883"><ele>524.0</ele><time>2026-05-01T11:27:16.717Z</time></trkpt><trkpt lat="39.3973844" lon="8.5520293"><ele>524.0</ele><time>2026-05-01T11:27:18.718Z</time></trkpt><trkpt lat="39.3974012" lon="8.552178"><ele>524.0</ele><time>2026-05-01T11:27:20.718Z</time></trkpt><trkpt lat="39.3974402" lon="8.5523201"><ele>524.0</ele><time>2026-05-01T11:27:22.718Z</time></trkpt><trkpt lat="39.3974566" lon="8.552462"><ele>524.0</ele><time>2026-05-01T11:27:24.718Z</time></trkpt><trkpt lat="39.3974274" lon="8.5526075"><ele>524.0</ele><time>2026-05-01T11:27:26.718Z</time></trkpt><trkpt lat="39.3973644" lon="8.5527326"><ele>524.0</ele><time>2026-05-01T11:27:28.718Z</time></trkpt><trkpt lat="39.3972683" lon="8.5528492"><ele>524.0</ele><time>2026-05-01T11:27:30.718Z</time></trkpt><trkpt lat="39.3972218" lon="8.5529101"><ele>524.0</ele><time>2026-05-01T11:27:31.718Z</time></trkpt><trkpt lat="39.3971848" lon="8.5529825"><ele>524.0</ele><time>2026-05-01T11:27:32.719Z</time></trkpt><trkpt lat="39.3971471" lon="8.5530537"><ele>524.0</ele><time>2026-05-01T11:27:33.718Z</time></trkpt><trkpt lat="39.3971081" lon="8.5531238"><ele>526.8333333333333</ele><time>2026-05-01T11:27:34.719Z</time></trkpt><trkpt lat="39.3970819" lon="8.5531989"><ele>529.6666666666666</ele><time>2026-05-01T11:27:35.718Z</time></trkpt><trkpt lat="39.3971127" lon="8.5532877"><ele>532.5</ele><time>2026-05-01T11:27:36.717Z</time></trkpt><trkpt lat="39.3971338" lon="8.5533659"><ele>535.3333333333334</ele><time>2026-05-01T11:27:37.718Z</time></trkpt><trkpt lat="39.3971756" lon="8.5534464"><ele>538.1666666666667</ele><time>2026-05-01T11:27:38.717Z</time></trkpt><trkpt lat="39.3972639" lon="8.5534937"><ele>541.0</ele><time>2026-05-01T11:27:39.719Z</time></trkpt><trkpt lat="39.3973148" lon="8.5535736"><ele>541.0</ele><time>2026-05-01T11:27:40.717Z</time></trkpt><trkpt lat="39.3973781" lon="8.5536508"><ele>541.0</ele><time>2026-05-01T11:27:41.717Z</time></trkpt><trkpt lat="39.3973993" lon="8.5537506"><ele>541.0</ele><time>2026-05-01T11:27:42.719Z</time></trkpt><trkpt lat="39.3974319" lon="8.5538417"><ele>541.0</ele><time>2026-05-01T11:27:43.717Z</time></trkpt><trkpt lat="39.3974733" lon="8.5539185"><ele>541.0</ele><time>2026-05-01T11:27:44.718Z</time></trkpt><trkpt lat="39.3975217" lon="8.5539958"><ele>541.0</ele><time>2026-05-01T11:27:45.719Z</time></trkpt><trkpt lat="39.3975715" lon="8.554068"><ele>541.4</ele><time>2026-05-01T11:27:46.718Z</time></trkpt><trkpt lat="39.3976126" lon="8.5541561"><ele>541.8</ele><time>2026-05-01T11:27:47.718Z</time></trkpt><trkpt lat="39.3976194" lon="8.5542773"><ele>542.1999999999999</ele><time>2026-05-01T11:27:48.717Z</time></trkpt><trkpt lat="39.3976544" lon="8.5543923"><ele>542.6</ele><time>2026-05-01T11:27:49.718Z</time></trkpt><trkpt lat="39.3976718" lon="8.5545469"><ele>543.0</ele><time>2026-05-01T11:27:50.718Z</time></trkpt><trkpt lat="39.3977111" lon="8.5547009"><ele>543.0</ele><time>2026-05-01T11:27:51.718Z</time></trkpt><trkpt lat="39.3977516" lon="8.5548552"><ele>543.0</ele><time>2026-05-01T11:27:52.717Z</time></trkpt><trkpt lat="39.3977838" lon="8.5549935"><ele>543.0</ele><time>2026-05-01T11:27:53.717Z</time></trkpt><trkpt lat="39.3978187" lon="8.5551524"><ele>543.0</ele><time>2026-05-01T11:27:54.719Z</time></trkpt><trkpt lat="39.3978407" lon="8.5553028"><ele>544.4</ele><time>2026-05-01T11:27:55.717Z</time></trkpt><trkpt lat="39.3978631" lon="8.5554487"><ele>545.8</ele><time>2026-05-01T11:27:56.719Z</time></trkpt><trkpt lat="39.3979012" lon="8.5555856"><ele>547.2</ele><time>2026-05-01T11:27:57.719Z</time></trkpt><trkpt lat="39.3979697" lon="8.5556984"><ele>548.6</ele><time>2026-05-01T11:27:58.717Z</time></trkpt><trkpt lat="39.3980153" lon="8.5558088"><ele>550.0</ele><time>2026-05-01T11:27:59.718Z</time></trkpt><trkpt lat="39.3980584" lon="8.555922"><ele>550.0</ele><time>2026-05-01T11:28:00.717Z</time></trkpt><trkpt lat="39.3980933" lon="8.5560241"><ele>550.0</ele><time>2026-05-01T11:28:01.717Z</time></trkpt><trkpt lat="39.3981302" lon="8.5561154"><ele>550.0</ele><time>2026-05-01T11:28:02.718Z</time></trkpt><trkpt lat="39.3981627" lon="8.5562122"><ele>550.0</ele><time>2026-05-01T11:28:03.718Z</time></trkpt><trkpt lat="39.398194" lon="8.5563029"><ele>550.0</ele><time>2026-05-01T11:28:04.718Z</time></trkpt><trkpt lat="39.3982346" lon="8.556392"><ele>550.0</ele><time>2026-05-01T11:28:05.717Z</time></trkpt><trkpt lat="39.3982825" lon="8.5564789"><ele>549.7142857142858</ele><time>2026-05-01T11:28:06.719Z</time></trkpt><trkpt lat="39.3983294" lon="8.5565446"><ele>549.4285714285714</ele><time>2026-05-01T11:28:07.717Z</time></trkpt><trkpt lat="39.3983751" lon="8.5566226"><ele>549.1428571428571</ele><time>2026-05-01T11:28:08.719Z</time></trkpt><trkpt lat="39.3984299" lon="8.5566836"><ele>548.8571428571429</ele><time>2026-05-01T11:28:09.718Z</time></trkpt><trkpt lat="39.3984934" lon="8.5567432"><ele>548.5714285714286</ele><time>2026-05-01T11:28:10.718Z</time></trkpt><trkpt lat="39.3985599" lon="8.5567902"><ele>548.2857142857143</ele><time>2026-05-01T11:28:11.718Z</time></trkpt><trkpt lat="39.3986284" lon="8.55683"><ele>548.0</ele><time>2026-05-01T11:28:12.719Z</time></trkpt><trkpt lat="39.398691" lon="8.5568801"><ele>548.0</ele><time>2026-05-01T11:28:13.718Z</time></trkpt><trkpt lat="39.3987546" lon="8.5569372"><ele>548.0</ele><time>2026-05-01T11:28:14.718Z</time></trkpt><trkpt lat="39.3988191" lon="8.5569905"><ele>548.0</ele><time>2026-05-01T11:28:15.718Z</time></trkpt><trkpt lat="39.3988831" lon="8.5570662"><ele>548.0</ele><time>2026-05-01T11:28:16.717Z</time></trkpt><trkpt lat="39.398935" lon="8.557146"><ele>548.0</ele><time>2026-05-01T11:28:17.718Z</time></trkpt><trkpt lat="39.3989845" lon="8.557221"><ele>548.0</ele><time>2026-05-01T11:28:18.717Z</time></trkpt><trkpt lat="39.3990421" lon="8.5572987"><ele>547.8333333333333</ele><time>2026-05-01T11:28:19.718Z</time></trkpt><trkpt lat="39.3991134" lon="8.5573766"><ele>547.6666666666666</ele><time>2026-05-01T11:28:20.719Z</time></trkpt><trkpt lat="39.3991785" lon="8.557449"><ele>547.5</ele><time>2026-05-01T11:28:21.718Z</time></trkpt><trkpt lat="39.3992405" lon="8.5575231"><ele>547.3333333333334</ele><time>2026-05-01T11:28:22.718Z</time></trkpt><trkpt lat="39.3992944" lon="8.5576046"><ele>547.1666666666667</ele><time>2026-05-01T11:28:23.717Z</time></trkpt><trkpt lat="39.3993389" lon="8.5577001"><ele>547.0</ele><time>2026-05-01T11:28:24.717Z</time></trkpt><trkpt lat="39.3993718" lon="8.5577925"><ele>546.8333333333334</ele><time>2026-05-01T11:28:25.719Z</time></trkpt><trkpt lat="39.3993974" lon="8.5579034"><ele>546.6666666666667</ele><time>2026-05-01T11:28:26.719Z</time></trkpt><trkpt lat="39.3994134" lon="8.5580171"><ele>546.5</ele><time>2026-05-01T11:28:27.718Z</time></trkpt><trkpt lat="39.3994354" lon="8.5581245"><ele>546.3333333333334</ele><time>2026-05-01T11:28:28.717Z</time></trkpt><trkpt lat="39.3994727" lon="8.558235"><ele>546.1666666666666</ele><time>2026-05-01T11:28:29.718Z</time></trkpt><trkpt lat="39.3995252" lon="8.5583152"><ele>546.0</ele><time>2026-05-01T11:28:30.717Z</time></trkpt><trkpt lat="39.3995855" lon="8.5583791"><ele>546.0</ele><time>2026-05-01T11:28:31.718Z</time></trkpt><trkpt lat="39.3996604" lon="8.55843"><ele>546.0</ele><time>2026-05-01T11:28:32.718Z</time></trkpt><trkpt lat="39.3997457" lon="8.5584691"><ele>546.0</ele><time>2026-05-01T11:28:33.717Z</time></trkpt><trkpt lat="39.399834" lon="8.5585024"><ele>546.0</ele><time>2026-05-01T11:28:34.718Z</time></trkpt><trkpt lat="39.399919" lon="8.5585281"><ele>546.0</ele><time>2026-05-01T11:28:35.718Z</time></trkpt><trkpt lat="39.4000019" lon="8.5585582"><ele>546.0</ele><time>2026-05-01T11:28:36.718Z</time></trkpt><trkpt lat="39.4000767" lon="8.5585945"><ele>546.3333333333334</ele><time>2026-05-01T11:28:37.718Z</time></trkpt><trkpt lat="39.4001378" lon="8.5586405"><ele>546.6666666666666</ele><time>2026-05-01T11:28:38.718Z</time></trkpt><trkpt lat="39.4001956" lon="8.5586983"><ele>547.0</ele><time>2026-05-01T11:28:39.718Z</time></trkpt><trkpt lat="39.4002457" lon="8.5587597"><ele>547.3333333333333</ele><time>2026-05-01T11:28:40.717Z</time></trkpt><trkpt lat="39.4002957" lon="8.5588178"><ele>547.6666666666666</ele><time>2026-05-01T11:28:41.717Z</time></trkpt><trkpt lat="39.400395" lon="8.5589063"><ele>548.0</ele><time>2026-05-01T11:28:43.718Z</time></trkpt><trkpt lat="39.4004574" lon="8.5589513"><ele>553.0</ele><time>2026-05-01T11:28:44.719Z</time></trkpt><trkpt lat="39.4005177" lon="8.5590032"><ele>558.0</ele><time>2026-05-01T11:28:45.718Z</time></trkpt><trkpt lat="39.4005719" lon="8.5590604"><ele>563.0</ele><time>2026-05-01T11:28:46.718Z</time></trkpt><trkpt lat="39.4006235" lon="8.5591837"><ele>568.0</ele><time>2026-05-01T11:28:48.718Z</time></trkpt><trkpt lat="39.4006244" lon="8.5593215"><ele>573.0</ele><time>2026-05-01T11:28:50.718Z</time></trkpt><trkpt lat="39.400592" lon="8.5594641"><ele>572.6666666666666</ele><time>2026-05-01T11:28:52.717Z</time></trkpt><trkpt lat="39.4005635" lon="8.5596125"><ele>572.3333333333334</ele><time>2026-05-01T11:28:54.718Z</time></trkpt><trkpt lat="39.4005491" lon="8.5596994"><ele>572.0</ele><time>2026-05-01T11:28:55.718Z</time></trkpt><trkpt lat="39.4005347" lon="8.559787"><ele>571.6666666666667</ele><time>2026-05-01T11:28:56.717Z</time></trkpt><trkpt lat="39.4005244" lon="8.5598754"><ele>571.3333333333334</ele><time>2026-05-01T11:28:57.718Z</time></trkpt><trkpt lat="39.4005014" lon="8.5599643"><ele>571.0</ele><time>2026-05-01T11:28:58.719Z</time></trkpt><trkpt lat="39.4004604" lon="8.560069"><ele>567.8</ele><time>2026-05-01T11:28:59.718Z</time></trkpt><trkpt lat="39.4004242" lon="8.5601738"><ele>564.6</ele><time>2026-05-01T11:29:00.717Z</time></trkpt><trkpt lat="39.4004067" lon="8.5602878"><ele>561.4</ele><time>2026-05-01T11:29:01.719Z</time></trkpt><trkpt lat="39.4004068" lon="8.5603932"><ele>558.2</ele><time>2026-05-01T11:29:02.718Z</time></trkpt><trkpt lat="39.4004112" lon="8.56053"><ele>555.0</ele><time>2026-05-01T11:29:04.718Z</time></trkpt><trkpt lat="39.4004034" lon="8.5606439"><ele>555.0</ele><time>2026-05-01T11:29:09.717Z</time></trkpt><trkpt lat="39.4003531" lon="8.5607708"><ele>555.0</ele><time>2026-05-01T11:29:11.719Z</time></trkpt><trkpt lat="39.4002961" lon="8.5608842"><ele>555.0</ele><time>2026-05-01T11:29:13.718Z</time></trkpt><trkpt lat="39.4002479" lon="8.5609728"><ele>555.0</ele><time>2026-05-01T11:29:15.717Z</time></trkpt><trkpt lat="39.4002825" lon="8.5610429"><ele>555.0</ele><time>2026-05-01T11:29:20.718Z</time></trkpt><trkpt lat="39.4003522" lon="8.5610066"><ele>555.0</ele><time>2026-05-01T11:29:22.717Z</time></trkpt><trkpt lat="39.4004506" lon="8.5609516"><ele>559.0</ele><time>2026-05-01T11:29:24.718Z</time></trkpt><trkpt lat="39.4005072" lon="8.5609133"><ele>563.0</ele><time>2026-05-01T11:29:25.717Z</time></trkpt><trkpt lat="39.4006041" lon="8.5608522"><ele>567.0</ele><time>2026-05-01T11:29:27.717Z</time></trkpt><trkpt lat="39.4007018" lon="8.5607919"><ele>571.0</ele><time>2026-05-01T11:29:29.717Z</time></trkpt><trkpt lat="39.4007494" lon="8.5607184"><ele>575.0</ele><time>2026-05-01T11:29:31.718Z</time></trkpt><trkpt lat="39.4007865" lon="8.5605738"><ele>575.0</ele><time>2026-05-01T11:29:33.717Z</time></trkpt><trkpt lat="39.4007939" lon="8.5604878"><ele>575.0</ele><time>2026-05-01T11:29:34.719Z</time></trkpt><trkpt lat="39.4007922" lon="8.5603311"><ele>575.0</ele><time>2026-05-01T11:29:36.719Z</time></trkpt><trkpt lat="39.4008181" lon="8.5601784"><ele>575.0</ele><time>2026-05-01T11:29:38.718Z</time></trkpt><trkpt lat="39.4008829" lon="8.5600418"><ele>575.0</ele><time>2026-05-01T11:29:40.719Z</time></trkpt><trkpt lat="39.4009611" lon="8.559924"><ele>574.6666666666666</ele><time>2026-05-01T11:29:42.717Z</time></trkpt><trkpt lat="39.4010417" lon="8.5598612"><ele>574.3333333333333</ele><time>2026-05-01T11:29:44.717Z</time></trkpt><trkpt lat="39.4011155" lon="8.5598521"><ele>574.0</ele><time>2026-05-01T11:29:46.718Z</time></trkpt><trkpt lat="39.4011951" lon="8.5598154"><ele>573.6666666666666</ele><time>2026-05-01T11:29:48.719Z</time></trkpt><trkpt lat="39.4012579" lon="8.5597307"><ele>573.3333333333334</ele><time>2026-05-01T11:29:50.717Z</time></trkpt><trkpt lat="39.4012779" lon="8.5596254"><ele>573.0</ele><time>2026-05-01T11:29:52.718Z</time></trkpt><trkpt lat="39.4013287" lon="8.5595315"><ele>572.7142857142858</ele><time>2026-05-01T11:29:55.718Z</time></trkpt><trkpt lat="39.4013973" lon="8.5595596"><ele>572.4285714285714</ele><time>2026-05-01T11:29:58.717Z</time></trkpt><trkpt lat="39.4013937" lon="8.5596511"><ele>572.1428571428571</ele><time>2026-05-01T11:30:00.719Z</time></trkpt><trkpt lat="39.401374" lon="8.5597294"><ele>571.8571428571429</ele><time>2026-05-01T11:30:01.717Z</time></trkpt><trkpt lat="39.4013519" lon="8.5598067"><ele>571.5714285714286</ele><time>2026-05-01T11:30:02.717Z</time></trkpt><trkpt lat="39.4013249" lon="8.5598847"><ele>571.2857142857143</ele><time>2026-05-01T11:30:03.718Z</time></trkpt><trkpt lat="39.4013002" lon="8.5599625"><ele>571.0</ele><time>2026-05-01T11:30:04.718Z</time></trkpt><trkpt lat="39.4012687" lon="8.5601051"><ele>571.0</ele><time>2026-05-01T11:30:06.719Z</time></trkpt><trkpt lat="39.4012104" lon="8.5602415"><ele>571.0</ele><time>2026-05-01T11:30:08.718Z</time></trkpt><trkpt lat="39.4011411" lon="8.5603682"><ele>571.0</ele><time>2026-05-01T11:30:10.718Z</time></trkpt><trkpt lat="39.4011134" lon="8.560476"><ele>571.0</ele><time>2026-05-01T11:30:12.717Z</time></trkpt><trkpt lat="39.4011042" lon="8.56059"><ele>571.0</ele><time>2026-05-01T11:30:15.717Z</time></trkpt><trkpt lat="39.4010814" lon="8.5607037"><ele>571.8</ele><time>2026-05-01T11:30:19.718Z</time></trkpt><trkpt lat="39.4010561" lon="8.5608441"><ele>572.6</ele><time>2026-05-01T11:30:21.719Z</time></trkpt><trkpt lat="39.4010421" lon="8.5609985"><ele>573.4</ele><time>2026-05-01T11:30:23.718Z</time></trkpt><trkpt lat="39.4010386" lon="8.5611556"><ele>574.2</ele><time>2026-05-01T11:30:25.719Z</time></trkpt><trkpt lat="39.4010325" lon="8.5612439"><ele>575.0</ele><time>2026-05-01T11:30:26.717Z</time></trkpt><trkpt lat="39.4010227" lon="8.5613393"><ele>575.5714285714286</ele><time>2026-05-01T11:30:27.719Z</time></trkpt><trkpt lat="39.4010133" lon="8.561432"><ele>576.1428571428571</ele><time>2026-05-01T11:30:28.718Z</time></trkpt><trkpt lat="39.4010036" lon="8.5615251"><ele>576.7142857142857</ele><time>2026-05-01T11:30:29.718Z</time></trkpt><trkpt lat="39.4009953" lon="8.5616154"><ele>577.2857142857142</ele><time>2026-05-01T11:30:30.718Z</time></trkpt><trkpt lat="39.4009844" lon="8.561714"><ele>577.8571428571429</ele><time>2026-05-01T11:30:31.717Z</time></trkpt><trkpt lat="39.4009733" lon="8.5618056"><ele>578.4285714285713</ele><time>2026-05-01T11:30:32.717Z</time></trkpt><trkpt lat="39.4009631" lon="8.5618961"><ele>579.0</ele><time>2026-05-01T11:30:33.718Z</time></trkpt><trkpt lat="39.4009587" lon="8.5619859"><ele>579.1428571428571</ele><time>2026-05-01T11:30:34.717Z</time></trkpt><trkpt lat="39.400962" lon="8.5620754"><ele>579.2857142857142</ele><time>2026-05-01T11:30:35.717Z</time></trkpt><trkpt lat="39.4009773" lon="8.5621624"><ele>579.4285714285714</ele><time>2026-05-01T11:30:36.719Z</time></trkpt><trkpt lat="39.4009987" lon="8.562246"><ele>579.5714285714286</ele><time>2026-05-01T11:30:37.718Z</time></trkpt><trkpt lat="39.4010287" lon="8.5623284"><ele>579.7142857142858</ele><time>2026-05-01T11:30:38.718Z</time></trkpt><trkpt lat="39.4010638" lon="8.5624111"><ele>579.8571428571429</ele><time>2026-05-01T11:30:39.718Z</time></trkpt><trkpt lat="39.4011013" lon="8.5624955"><ele>580.0</ele><time>2026-05-01T11:30:40.717Z</time></trkpt><trkpt lat="39.4011407" lon="8.5625807"><ele>580.0</ele><time>2026-05-01T11:30:41.718Z</time></trkpt><trkpt lat="39.401186" lon="8.5626656"><ele>580.0</ele><time>2026-05-01T11:30:42.719Z</time></trkpt><trkpt lat="39.4012318" lon="8.5627601"><ele>580.0</ele><time>2026-05-01T11:30:43.718Z</time></trkpt><trkpt lat="39.4012832" lon="8.5628326"><ele>580.0</ele><time>2026-05-01T11:30:44.719Z</time></trkpt><trkpt lat="39.4013475" lon="8.5628909"><ele>580.0</ele><time>2026-05-01T11:30:45.719Z</time></trkpt><trkpt lat="39.4014225" lon="8.5629217"><ele>580.0</ele><time>2026-05-01T11:30:46.718Z</time></trkpt><trkpt lat="39.4014961" lon="8.5629386"><ele>579.1428571428571</ele><time>2026-05-01T11:30:47.718Z</time></trkpt><trkpt lat="39.4015734" lon="8.5629586"><ele>578.2857142857143</ele><time>2026-05-01T11:30:48.719Z</time></trkpt><trkpt lat="39.401647" lon="8.5629793"><ele>577.4285714285714</ele><time>2026-05-01T11:30:49.717Z</time></trkpt><trkpt lat="39.4017122" lon="8.5629979"><ele>576.5714285714286</ele><time>2026-05-01T11:30:50.717Z</time></trkpt><trkpt lat="39.4017762" lon="8.5630142"><ele>575.7142857142858</ele><time>2026-05-01T11:30:51.719Z</time></trkpt><trkpt lat="39.4018448" lon="8.563041"><ele>574.8571428571429</ele><time>2026-05-01T11:30:52.719Z</time></trkpt><trkpt lat="39.4019154" lon="8.5630686"><ele>574.0</ele><time>2026-05-01T11:30:53.718Z</time></trkpt><trkpt lat="39.4019933" lon="8.5630922"><ele>574.0</ele><time>2026-05-01T11:30:54.717Z</time></trkpt><trkpt lat="39.4020771" lon="8.5631131"><ele>574.0</ele><time>2026-05-01T11:30:55.718Z</time></trkpt><trkpt lat="39.4021507" lon="8.5631324"><ele>574.0</ele><time>2026-05-01T11:30:56.717Z</time></trkpt><trkpt lat="39.4022233" lon="8.5631438"><ele>574.0</ele><time>2026-05-01T11:30:57.718Z</time></trkpt><trkpt lat="39.4023028" lon="8.5631511"><ele>574.0</ele><time>2026-05-01T11:30:58.718Z</time></trkpt><trkpt lat="39.4023919" lon="8.5631528"><ele>574.0</ele><time>2026-05-01T11:30:59.719Z</time></trkpt><trkpt lat="39.4024885" lon="8.5631357"><ele>577.4</ele><time>2026-05-01T11:31:00.718Z</time></trkpt><trkpt lat="39.4025781" lon="8.5631077"><ele>580.8</ele><time>2026-05-01T11:31:01.718Z</time></trkpt><trkpt lat="39.4026659" lon="8.5630644"><ele>584.2</ele><time>2026-05-01T11:31:02.718Z</time></trkpt><trkpt lat="39.4027558" lon="8.562995"><ele>587.6</ele><time>2026-05-01T11:31:03.717Z</time></trkpt><trkpt lat="39.4028304" lon="8.5629115"><ele>591.0</ele><time>2026-05-01T11:31:04.717Z</time></trkpt><trkpt lat="39.4028849" lon="8.5628094"><ele>591.5</ele><time>2026-05-01T11:31:05.717Z</time></trkpt><trkpt lat="39.4029165" lon="8.5627115"><ele>592.0</ele><time>2026-05-01T11:31:06.718Z</time></trkpt><trkpt lat="39.4029523" lon="8.5626432"><ele>592.5</ele><time>2026-05-01T11:31:12.718Z</time></trkpt><trkpt lat="39.4029895" lon="8.5625585"><ele>593.0</ele><time>2026-05-01T11:31:15.717Z</time></trkpt><trkpt lat="39.4030272" lon="8.5624409"><ele>593.5</ele><time>2026-05-01T11:31:17.717Z</time></trkpt><trkpt lat="39.4030837" lon="8.5623357"><ele>594.0</ele><time>2026-05-01T11:31:19.719Z</time></trkpt><trkpt lat="39.4031331" lon="8.5621879"><ele>595.8333333333334</ele><time>2026-05-01T11:31:21.719Z</time></trkpt><trkpt lat="39.4031673" lon="8.5620994"><ele>597.6666666666666</ele><time>2026-05-01T11:31:22.718Z</time></trkpt><trkpt lat="39.4032023" lon="8.5620023"><ele>599.5</ele><time>2026-05-01T11:31:23.717Z</time></trkpt><trkpt lat="39.4032281" lon="8.5619022"><ele>601.3333333333333</ele><time>2026-05-01T11:31:24.717Z</time></trkpt><trkpt lat="39.4032439" lon="8.5618045"><ele>603.1666666666666</ele><time>2026-05-01T11:31:25.718Z</time></trkpt><trkpt lat="39.4032346" lon="8.561709"><ele>605.0</ele><time>2026-05-01T11:31:27.717Z</time></trkpt><trkpt lat="39.403199" lon="8.5616361"><ele>605.2</ele><time>2026-05-01T11:31:30.718Z</time></trkpt><trkpt lat="39.4031415" lon="8.5615393"><ele>605.4</ele><time>2026-05-01T11:32:26.716Z</time></trkpt><trkpt lat="39.403107" lon="8.561441"><ele>605.6</ele><time>2026-05-01T11:32:41.717Z</time></trkpt><trkpt lat="39.4030582" lon="8.5613515"><ele>605.8</ele><time>2026-05-01T11:32:43.717Z</time></trkpt><trkpt lat="39.4029946" lon="8.561258"><ele>606.0</ele><time>2026-05-01T11:32:45.717Z</time></trkpt><trkpt lat="39.4029326" lon="8.5611685"><ele>604.8</ele><time>2026-05-01T11:32:47.718Z</time></trkpt><trkpt lat="39.4029211" lon="8.5610538"><ele>603.6</ele><time>2026-05-01T11:32:49.718Z</time></trkpt><trkpt lat="39.4029169" lon="8.5609392"><ele>602.4</ele><time>2026-05-01T11:32:51.717Z</time></trkpt><trkpt lat="39.4029077" lon="8.5608518"><ele>601.2</ele><time>2026-05-01T11:32:53.718Z</time></trkpt><trkpt lat="39.4028568" lon="8.5607327"><ele>600.0</ele><time>2026-05-01T11:32:56.716Z</time></trkpt><trkpt lat="39.4027943" lon="8.5606012"><ele>600.0</ele><time>2026-05-01T11:32:58.718Z</time></trkpt><trkpt lat="39.402736" lon="8.5604532"><ele>600.0</ele><time>2026-05-01T11:33:00.716Z</time></trkpt><trkpt lat="39.4026931" lon="8.5603657"><ele>600.0</ele><time>2026-05-01T11:33:01.717Z</time></trkpt><trkpt lat="39.4026381" lon="8.5602777"><ele>600.0</ele><time>2026-05-01T11:33:02.718Z</time></trkpt><trkpt lat="39.4025758" lon="8.5601977"><ele>600.0</ele><time>2026-05-01T11:33:03.717Z</time></trkpt><trkpt lat="39.4025071" lon="8.560116"><ele>601.1666666666666</ele><time>2026-05-01T11:33:04.717Z</time></trkpt><trkpt lat="39.4024354" lon="8.5600327"><ele>602.3333333333334</ele><time>2026-05-01T11:33:05.717Z</time></trkpt><trkpt lat="39.4023677" lon="8.5599507"><ele>603.5</ele><time>2026-05-01T11:33:06.716Z</time></trkpt><trkpt lat="39.4023182" lon="8.5598619"><ele>604.6666666666667</ele><time>2026-05-01T11:33:07.717Z</time></trkpt><trkpt lat="39.4022775" lon="8.559771"><ele>605.8333333333334</ele><time>2026-05-01T11:33:08.717Z</time></trkpt><trkpt lat="39.4022242" lon="8.5596803"><ele>607.0</ele><time>2026-05-01T11:33:09.717Z</time></trkpt><trkpt lat="39.4021606" lon="8.5595919"><ele>604.8333333333334</ele><time>2026-05-01T11:33:10.717Z</time></trkpt><trkpt lat="39.4020918" lon="8.5595081"><ele>602.6666666666667</ele><time>2026-05-01T11:33:11.717Z</time></trkpt><trkpt lat="39.4020397" lon="8.5594273"><ele>600.5</ele><time>2026-05-01T11:33:12.716Z</time></trkpt><trkpt lat="39.402014" lon="8.5593523"><ele>598.3333333333334</ele><time>2026-05-01T11:33:13.716Z</time></trkpt><trkpt lat="39.4019949" lon="8.5592138"><ele>596.1666666666666</ele><time>2026-05-01T11:33:15.716Z</time></trkpt><trkpt lat="39.4020329" lon="8.55911"><ele>594.0</ele><time>2026-05-01T11:33:17.717Z</time></trkpt><trkpt lat="39.4021312" lon="8.5589743"><ele>596.8</ele><time>2026-05-01T11:33:19.717Z</time></trkpt><trkpt lat="39.4021987" lon="8.5588822"><ele>599.5999999999999</ele><time>2026-05-01T11:33:20.717Z</time></trkpt><trkpt lat="39.4022785" lon="8.5587854"><ele>602.4</ele><time>2026-05-01T11:33:21.717Z</time></trkpt><trkpt lat="39.4023598" lon="8.5586748"><ele>605.1999999999999</ele><time>2026-05-01T11:33:22.716Z</time></trkpt><trkpt lat="39.4024428" lon="8.5585734"><ele>608.0</ele><time>2026-05-01T11:33:23.718Z</time></trkpt><trkpt lat="39.4025287" lon="8.5584809"><ele>608.0</ele><time>2026-05-01T11:33:24.717Z</time></trkpt><trkpt lat="39.4026202" lon="8.5583987"><ele>608.0</ele><time>2026-05-01T11:33:25.717Z</time></trkpt><trkpt lat="39.4027027" lon="8.5583301"><ele>608.0</ele><time>2026-05-01T11:33:26.718Z</time></trkpt><trkpt lat="39.4027795" lon="8.5582662"><ele>608.0</ele><time>2026-05-01T11:33:27.717Z</time></trkpt><trkpt lat="39.4028444" lon="8.5581885"><ele>608.0</ele><time>2026-05-01T11:33:28.717Z</time></trkpt><trkpt lat="39.402896" lon="8.5581012"><ele>608.0</ele><time>2026-05-01T11:33:29.717Z</time></trkpt><trkpt lat="39.4029474" lon="8.5579831"><ele>608.0</ele><time>2026-05-01T11:33:30.717Z</time></trkpt><trkpt lat="39.4029878" lon="8.5578591"><ele>608.0</ele><time>2026-05-01T11:33:31.717Z</time></trkpt><trkpt lat="39.4030159" lon="8.5577411"><ele>608.0</ele><time>2026-05-01T11:33:32.717Z</time></trkpt><trkpt lat="39.403035" lon="8.5576348"><ele>608.0</ele><time>2026-05-01T11:33:33.716Z</time></trkpt><trkpt lat="39.4030465" lon="8.5575258"><ele>608.4</ele><time>2026-05-01T11:33:34.717Z</time></trkpt><trkpt lat="39.4030581" lon="8.5574229"><ele>608.8</ele><time>2026-05-01T11:33:35.717Z</time></trkpt><trkpt lat="39.4030692" lon="8.5573232"><ele>609.2</ele><time>2026-05-01T11:33:36.716Z</time></trkpt><trkpt lat="39.4030821" lon="8.5571935"><ele>609.6</ele><time>2026-05-01T11:33:37.718Z</time></trkpt><trkpt lat="39.4030875" lon="8.5570665"><ele>610.0</ele><time>2026-05-01T11:33:38.717Z</time></trkpt><trkpt lat="39.4030911" lon="8.5569314"><ele>607.8</ele><time>2026-05-01T11:33:39.718Z</time></trkpt><trkpt lat="39.4031026" lon="8.5567986"><ele>605.6</ele><time>2026-05-01T11:33:40.717Z</time></trkpt><trkpt lat="39.4031173" lon="8.5566647"><ele>603.4</ele><time>2026-05-01T11:33:41.717Z</time></trkpt><trkpt lat="39.4031437" lon="8.5565501"><ele>601.2</ele><time>2026-05-01T11:33:42.716Z</time></trkpt><trkpt lat="39.4031752" lon="8.5564502"><ele>599.0</ele><time>2026-05-01T11:33:43.716Z</time></trkpt><trkpt lat="39.4032013" lon="8.5563641"><ele>599.0</ele><time>2026-05-01T11:33:44.716Z</time></trkpt><trkpt lat="39.4032296" lon="8.5562882"><ele>599.0</ele><time>2026-05-01T11:33:45.716Z</time></trkpt><trkpt lat="39.4032592" lon="8.5561712"><ele>599.0</ele><time>2026-05-01T11:33:47.718Z</time></trkpt><trkpt lat="39.4032783" lon="8.556092"><ele>599.0</ele><time>2026-05-01T11:33:51.717Z</time></trkpt><trkpt lat="39.4033393" lon="8.5560049"><ele>599.0</ele><time>2026-05-01T11:36:58.716Z</time></trkpt><trkpt lat="39.4034104" lon="8.5559485"><ele>599.0</ele><time>2026-05-01T11:37:00.716Z</time></trkpt><trkpt lat="39.4034814" lon="8.5559111"><ele>598.3333333333333</ele><time>2026-05-01T11:37:03.717Z</time></trkpt><trkpt lat="39.4035511" lon="8.5558522"><ele>597.6666666666666</ele><time>2026-05-01T11:37:11.716Z</time></trkpt><trkpt lat="39.4036118" lon="8.5557795"><ele>597.0</ele><time>2026-05-01T11:37:14.717Z</time></trkpt><trkpt lat="39.4037114" lon="8.5556727"><ele>596.3333333333334</ele><time>2026-05-01T11:37:17.717Z</time></trkpt><trkpt lat="39.4037604" lon="8.5556134"><ele>595.6666666666667</ele><time>2026-05-01T11:37:18.717Z</time></trkpt><trkpt lat="39.40381" lon="8.5555541"><ele>595.0</ele><time>2026-05-01T11:37:19.718Z</time></trkpt><trkpt lat="39.403857" lon="8.555492"><ele>594.8333333333334</ele><time>2026-05-01T11:37:20.717Z</time></trkpt><trkpt lat="39.4039042" lon="8.5554245"><ele>594.6666666666667</ele><time>2026-05-01T11:37:21.718Z</time></trkpt><trkpt lat="39.4039436" lon="8.5553528"><ele>594.5</ele><time>2026-05-01T11:37:22.718Z</time></trkpt><trkpt lat="39.4039908" lon="8.5552388"><ele>594.3333333333334</ele><time>2026-05-01T11:37:24.717Z</time></trkpt><trkpt lat="39.4040345" lon="8.5551384"><ele>594.1666666666666</ele><time>2026-05-01T11:37:27.716Z</time></trkpt><trkpt lat="39.4040774" lon="8.5550581"><ele>594.0</ele><time>2026-05-01T11:37:29.716Z</time></trkpt><trkpt lat="39.4040934" lon="8.5549653"><ele>594.0</ele><time>2026-05-01T11:37:31.718Z</time></trkpt><trkpt lat="39.4040545" lon="8.5548537"><ele>594.0</ele><time>2026-05-01T11:37:33.717Z</time></trkpt><trkpt lat="39.4039791" lon="8.5548176"><ele>594.0</ele><time>2026-05-01T11:37:35.716Z</time></trkpt><trkpt lat="39.4039579" lon="8.5549266"><ele>594.0</ele><time>2026-05-01T11:37:38.716Z</time></trkpt><trkpt lat="39.4039971" lon="8.5550086"><ele>594.0</ele><time>2026-05-01T11:37:40.717Z</time></trkpt><trkpt lat="39.4040279" lon="8.5550826"><ele>594.0</ele><time>2026-05-01T11:37:42.718Z</time></trkpt><trkpt lat="39.4040114" lon="8.555186"><ele>594.0</ele><time>2026-05-01T11:37:45.718Z</time></trkpt><trkpt lat="39.4039742" lon="8.5552552"><ele>594.0</ele><time>2026-05-01T11:37:47.717Z</time></trkpt><trkpt lat="39.4039052" lon="8.5553865"><ele>594.0</ele><time>2026-05-01T11:37:49.718Z</time></trkpt><trkpt lat="39.4038677" lon="8.5554658"><ele>594.0</ele><time>2026-05-01T11:37:50.717Z</time></trkpt><trkpt lat="39.4038228" lon="8.5555419"><ele>594.0</ele><time>2026-05-01T11:37:51.717Z</time></trkpt><trkpt lat="39.4037683" lon="8.5556033"><ele>594.0</ele><time>2026-05-01T11:37:52.716Z</time></trkpt><trkpt lat="39.4037173" lon="8.5556564"><ele>594.0</ele><time>2026-05-01T11:37:53.716Z</time></trkpt><trkpt lat="39.403789" lon="8.5555844"><ele>594.0</ele><time>2026-05-01T11:37:59.718Z</time></trkpt><trkpt lat="39.4038558" lon="8.5554874"><ele>594.0</ele><time>2026-05-01T11:38:00.717Z</time></trkpt><trkpt lat="39.4039312" lon="8.5553622"><ele>594.0</ele><time>2026-05-01T11:38:01.716Z</time></trkpt><trkpt lat="39.4039805" lon="8.555256"><ele>594.0</ele><time>2026-05-01T11:38:02.717Z</time></trkpt><trkpt lat="39.4040228" lon="8.555145"><ele>594.0</ele><time>2026-05-01T11:38:03.717Z</time></trkpt><trkpt lat="39.4040738" lon="8.5550273"><ele>594.0</ele><time>2026-05-01T11:38:04.717Z</time></trkpt><trkpt lat="39.404092" lon="8.5549485"><ele>594.0</ele><time>2026-05-01T11:38:05.717Z</time></trkpt><trkpt lat="39.404093" lon="8.5548496"><ele>594.0</ele><time>2026-05-01T11:38:06.718Z</time></trkpt><trkpt lat="39.4040746" lon="8.5547425"><ele>594.0</ele><time>2026-05-01T11:38:07.717Z</time></trkpt><trkpt lat="39.4039988" lon="8.5546792"><ele>594.0</ele><time>2026-05-01T11:38:09.717Z</time></trkpt><trkpt lat="39.4039079" lon="8.5547821"><ele>594.0</ele><time>2026-05-01T11:38:11.716Z</time></trkpt><trkpt lat="39.4038613" lon="8.5548599"><ele>594.0</ele><time>2026-05-01T11:38:13.717Z</time></trkpt><trkpt lat="39.40393" lon="8.5547811"><ele>594.0</ele><time>2026-05-01T11:38:19.717Z</time></trkpt><trkpt lat="39.4040197" lon="8.5548346"><ele>594.0</ele><time>2026-05-01T11:38:21.717Z</time></trkpt><trkpt lat="39.4040701" lon="8.5549152"><ele>594.0</ele><time>2026-05-01T11:38:23.717Z</time></trkpt><trkpt lat="39.4040808" lon="8.5550244"><ele>594.0</ele><time>2026-05-01T11:38:26.717Z</time></trkpt><trkpt lat="39.4041143" lon="8.5551013"><ele>594.0</ele><time>2026-05-01T11:38:28.718Z</time></trkpt><trkpt lat="39.4041862" lon="8.5551391"><ele>594.0</ele><time>2026-05-01T11:38:30.718Z</time></trkpt><trkpt lat="39.4042425" lon="8.5550929"><ele>594.0</ele><time>2026-05-01T11:38:32.717Z</time></trkpt><trkpt lat="39.4042659" lon="8.5550081"><ele>594.0</ele><time>2026-05-01T11:38:34.718Z</time></trkpt><trkpt lat="39.404246" lon="8.5548618"><ele>594.0</ele><time>2026-05-01T11:38:36.718Z</time></trkpt><trkpt lat="39.4042146" lon="8.5547395"><ele>594.0</ele><time>2026-05-01T11:38:37.717Z</time></trkpt><trkpt lat="39.4041872" lon="8.5546121"><ele>595.8</ele><time>2026-05-01T11:38:38.718Z</time></trkpt><trkpt lat="39.4041704" lon="8.5545012"><ele>597.5999999999999</ele><time>2026-05-01T11:38:39.717Z</time></trkpt><trkpt lat="39.4041644" lon="8.5543938"><ele>599.4</ele><time>2026-05-01T11:38:40.716Z</time></trkpt><trkpt lat="39.4041761" lon="8.5542913"><ele>601.1999999999999</ele><time>2026-05-01T11:38:41.718Z</time></trkpt><trkpt lat="39.4042528" lon="8.554165"><ele>603.0</ele><time>2026-05-01T11:38:42.717Z</time></trkpt><trkpt lat="39.4043116" lon="8.5540444"><ele>603.0</ele><time>2026-05-01T11:38:43.716Z</time></trkpt><trkpt lat="39.404375" lon="8.5539329"><ele>603.0</ele><time>2026-05-01T11:38:44.717Z</time></trkpt><trkpt lat="39.4044738" lon="8.5538484"><ele>603.0</ele><time>2026-05-01T11:38:45.718Z</time></trkpt><trkpt lat="39.4045667" lon="8.5537636"><ele>603.0</ele><time>2026-05-01T11:38:46.716Z</time></trkpt><trkpt lat="39.4046601" lon="8.5536981"><ele>603.0</ele><time>2026-05-01T11:38:47.717Z</time></trkpt><trkpt lat="39.4047358" lon="8.5536208"><ele>598.5</ele><time>2026-05-01T11:38:48.718Z</time></trkpt><trkpt lat="39.4048029" lon="8.5535116"><ele>594.0</ele><time>2026-05-01T11:38:49.717Z</time></trkpt><trkpt lat="39.404873" lon="8.5533893"><ele>589.5</ele><time>2026-05-01T11:38:50.717Z</time></trkpt><trkpt lat="39.4049547" lon="8.5532776"><ele>585.0</ele><time>2026-05-01T11:38:51.717Z</time></trkpt><trkpt lat="39.4050603" lon="8.5531812"><ele>585.0</ele><time>2026-05-01T11:38:52.718Z</time></trkpt><trkpt lat="39.4051624" lon="8.5530729"><ele>585.0</ele><time>2026-05-01T11:38:53.717Z</time></trkpt><trkpt lat="39.4052568" lon="8.5529985"><ele>585.0</ele><time>2026-05-01T11:38:54.718Z</time></trkpt><trkpt lat="39.4053383" lon="8.5529298"><ele>585.0</ele><time>2026-05-01T11:38:55.717Z</time></trkpt><trkpt lat="39.405426" lon="8.552853"><ele>585.0</ele><time>2026-05-01T11:38:56.716Z</time></trkpt><trkpt lat="39.4055148" lon="8.5527589"><ele>582.2</ele><time>2026-05-01T11:38:57.717Z</time></trkpt><trkpt lat="39.4055965" lon="8.552668"><ele>579.4</ele><time>2026-05-01T11:38:58.716Z</time></trkpt><trkpt lat="39.405677" lon="8.552587"><ele>576.6</ele><time>2026-05-01T11:38:59.717Z</time></trkpt><trkpt lat="39.4057604" lon="8.5524945"><ele>573.8</ele><time>2026-05-01T11:39:00.718Z</time></trkpt><trkpt lat="39.4058485" lon="8.5523859"><ele>571.0</ele><time>2026-05-01T11:39:01.717Z</time></trkpt><trkpt lat="39.4059307" lon="8.5522804"><ele>571.0</ele><time>2026-05-01T11:39:02.716Z</time></trkpt><trkpt lat="39.4059984" lon="8.5521732"><ele>571.0</ele><time>2026-05-01T11:39:03.716Z</time></trkpt><trkpt lat="39.4060624" lon="8.5520772"><ele>571.0</ele><time>2026-05-01T11:39:04.716Z</time></trkpt><trkpt lat="39.4061301" lon="8.5519937"><ele>571.0</ele><time>2026-05-01T11:39:05.717Z</time></trkpt><trkpt lat="39.4062008" lon="8.5519317"><ele>571.0</ele><time>2026-05-01T11:39:06.716Z</time></trkpt><trkpt lat="39.4062893" lon="8.551862"><ele>567.0</ele><time>2026-05-01T11:39:07.717Z</time></trkpt><trkpt lat="39.4063805" lon="8.5517778"><ele>563.0</ele><time>2026-05-01T11:39:08.715Z</time></trkpt><trkpt lat="39.4064708" lon="8.5517093"><ele>559.0</ele><time>2026-05-01T11:39:09.716Z</time></trkpt><trkpt lat="39.4065403" lon="8.5516502"><ele>555.0</ele><time>2026-05-01T11:39:10.716Z</time></trkpt><trkpt lat="39.4066033" lon="8.5515932"><ele>551.0</ele><time>2026-05-01T11:39:11.715Z</time></trkpt><trkpt lat="39.4066589" lon="8.5515461"><ele>547.0</ele><time>2026-05-01T11:39:12.715Z</time></trkpt><trkpt lat="39.4067143" lon="8.551474"><ele>547.0</ele><time>2026-05-01T11:39:14.716Z</time></trkpt><trkpt lat="39.4066535" lon="8.551497"><ele>547.0</ele><time>2026-05-01T11:39:19.717Z</time></trkpt><trkpt lat="39.406623" lon="8.5516258"><ele>547.0</ele><time>2026-05-01T11:39:21.716Z</time></trkpt><trkpt lat="39.4065684" lon="8.5517548"><ele>547.0</ele><time>2026-05-01T11:39:23.715Z</time></trkpt><trkpt lat="39.4065123" lon="8.5518368"><ele>547.0</ele><time>2026-05-01T11:39:24.715Z</time></trkpt><trkpt lat="39.4064637" lon="8.5519111"><ele>547.0</ele><time>2026-05-01T11:39:25.715Z</time></trkpt><trkpt lat="39.4063979" lon="8.5519973"><ele>543.8333333333334</ele><time>2026-05-01T11:39:26.716Z</time></trkpt><trkpt lat="39.4063646" lon="8.5521478"><ele>540.6666666666667</ele><time>2026-05-01T11:39:27.716Z</time></trkpt><trkpt lat="39.4063346" lon="8.5522435"><ele>537.5</ele><time>2026-05-01T11:39:28.715Z</time></trkpt><trkpt lat="39.4063121" lon="8.5523303"><ele>534.3333333333334</ele><time>2026-05-01T11:39:29.716Z</time></trkpt><trkpt lat="39.4062896" lon="8.5524065"><ele>531.1666666666666</ele><time>2026-05-01T11:39:30.716Z</time></trkpt><trkpt lat="39.4062608" lon="8.5524889"><ele>528.0</ele><time>2026-05-01T11:39:31.716Z</time></trkpt><trkpt lat="39.4062672" lon="8.5525763"><ele>528.0</ele><time>2026-05-01T11:39:33.715Z</time></trkpt><trkpt lat="39.4063551" lon="8.5525406"><ele>528.0</ele><time>2026-05-01T11:39:36.716Z</time></trkpt><trkpt lat="39.4064036" lon="8.552422"><ele>528.0</ele><time>2026-05-01T11:39:38.717Z</time></trkpt><trkpt lat="39.4064755" lon="8.5523067"><ele>528.0</ele><time>2026-05-01T11:39:40.717Z</time></trkpt><trkpt lat="39.4065844" lon="8.5522187"><ele>528.0</ele><time>2026-05-01T11:39:42.715Z</time></trkpt><trkpt lat="39.4066585" lon="8.5521646"><ele>528.0</ele><time>2026-05-01T11:39:43.717Z</time></trkpt><trkpt lat="39.4067224" lon="8.5521046"><ele>528.0</ele><time>2026-05-01T11:39:44.716Z</time></trkpt><trkpt lat="39.4067778" lon="8.5520358"><ele>528.0</ele><time>2026-05-01T11:39:45.717Z</time></trkpt><trkpt lat="39.4068401" lon="8.5519638"><ele>528.0</ele><time>2026-05-01T11:39:46.717Z</time></trkpt><trkpt lat="39.4069007" lon="8.5518872"><ele>528.0</ele><time>2026-05-01T11:39:47.717Z</time></trkpt><trkpt lat="39.406946" lon="8.5518052"><ele>528.0</ele><time>2026-05-01T11:39:48.715Z</time></trkpt><trkpt lat="39.4070053" lon="8.551713"><ele>531.1666666666666</ele><time>2026-05-01T11:39:49.715Z</time></trkpt><trkpt lat="39.407065" lon="8.5516404"><ele>534.3333333333334</ele><time>2026-05-01T11:39:50.716Z</time></trkpt><trkpt lat="39.4071278" lon="8.5515548"><ele>537.5</ele><time>2026-05-01T11:39:51.717Z</time></trkpt><trkpt lat="39.407183" lon="8.5514774"><ele>540.6666666666667</ele><time>2026-05-01T11:39:52.717Z</time></trkpt><trkpt lat="39.4072331" lon="8.5513977"><ele>543.8333333333334</ele><time>2026-05-01T11:39:53.717Z</time></trkpt><trkpt lat="39.4072875" lon="8.551317"><ele>547.0</ele><time>2026-05-01T11:39:54.716Z</time></trkpt><trkpt lat="39.4073447" lon="8.5512152"><ele>540.8000000000001</ele><time>2026-05-01T11:39:55.717Z</time></trkpt><trkpt lat="39.4074099" lon="8.5511065"><ele>534.6</ele><time>2026-05-01T11:39:56.717Z</time></trkpt><trkpt lat="39.4074771" lon="8.5509949"><ele>528.4000000000001</ele><time>2026-05-01T11:39:57.716Z</time></trkpt><trkpt lat="39.4075392" lon="8.5508984"><ele>522.2</ele><time>2026-05-01T11:39:58.717Z</time></trkpt><trkpt lat="39.407611" lon="8.5508104"><ele>516.0</ele><time>2026-05-01T11:39:59.716Z</time></trkpt><trkpt lat="39.4076854" lon="8.5507201"><ele>516.0</ele><time>2026-05-01T11:40:00.716Z</time></trkpt><trkpt lat="39.4077525" lon="8.5506337"><ele>516.0</ele><time>2026-05-01T11:40:01.716Z</time></trkpt><trkpt lat="39.4078047" lon="8.5505356"><ele>516.0</ele><time>2026-05-01T11:40:02.715Z</time></trkpt><trkpt lat="39.4078479" lon="8.5504054"><ele>516.0</ele><time>2026-05-01T11:40:03.717Z</time></trkpt><trkpt lat="39.4078941" lon="8.5502837"><ele>516.0</ele><time>2026-05-01T11:40:04.715Z</time></trkpt><trkpt lat="39.4079463" lon="8.5501665"><ele>508.4</ele><time>2026-05-01T11:40:05.717Z</time></trkpt><trkpt lat="39.4080037" lon="8.5500509"><ele>500.8</ele><time>2026-05-01T11:40:06.716Z</time></trkpt><trkpt lat="39.4080544" lon="8.5499365"><ele>493.19999999999993</ele><time>2026-05-01T11:40:07.716Z</time></trkpt><trkpt lat="39.4080976" lon="8.5498296"><ele>485.59999999999997</ele><time>2026-05-01T11:40:08.716Z</time></trkpt><trkpt lat="39.4081305" lon="8.5497302"><ele>478.0</ele><time>2026-05-01T11:40:09.717Z</time></trkpt><trkpt lat="39.4081657" lon="8.5496174"><ele>480.33333333333337</ele><time>2026-05-01T11:40:10.717Z</time></trkpt><trkpt lat="39.408213" lon="8.5495276"><ele>482.6666666666667</ele><time>2026-05-01T11:40:11.717Z</time></trkpt><trkpt lat="39.4082661" lon="8.5494366"><ele>485.0</ele><time>2026-05-01T11:40:12.717Z</time></trkpt><trkpt lat="39.4083314" lon="8.5493809"><ele>487.33333333333337</ele><time>2026-05-01T11:40:13.716Z</time></trkpt><trkpt lat="39.4084079" lon="8.549369"><ele>489.6666666666667</ele><time>2026-05-01T11:40:14.716Z</time></trkpt><trkpt lat="39.4084861" lon="8.5493531"><ele>492.0</ele><time>2026-05-01T11:40:15.717Z</time></trkpt><trkpt lat="39.4085557" lon="8.5493286"><ele>492.0</ele><time>2026-05-01T11:40:16.717Z</time></trkpt><trkpt lat="39.4086081" lon="8.5492809"><ele>492.0</ele><time>2026-05-01T11:40:17.715Z</time></trkpt><trkpt lat="39.4086507" lon="8.5492076"><ele>492.0</ele><time>2026-05-01T11:40:18.716Z</time></trkpt><trkpt lat="39.4086833" lon="8.5491225"><ele>492.0</ele><time>2026-05-01T11:40:19.717Z</time></trkpt><trkpt lat="39.408701" lon="8.5490421"><ele>492.0</ele><time>2026-05-01T11:40:20.717Z</time></trkpt><trkpt lat="39.408713" lon="8.5489461"><ele>492.0</ele><time>2026-05-01T11:40:21.716Z</time></trkpt><trkpt lat="39.4087316" lon="8.5488101"><ele>492.0</ele><time>2026-05-01T11:40:22.717Z</time></trkpt><trkpt lat="39.4087481" lon="8.5487099"><ele>492.0</ele><time>2026-05-01T11:40:23.715Z</time></trkpt><trkpt lat="39.4087944" lon="8.5486239"><ele>492.0</ele><time>2026-05-01T11:40:24.716Z</time></trkpt><trkpt lat="39.4088213" lon="8.5485446"><ele>492.0</ele><time>2026-05-01T11:40:25.715Z</time></trkpt><trkpt lat="39.4088404" lon="8.548465"><ele>492.0</ele><time>2026-05-01T11:40:26.715Z</time></trkpt><trkpt lat="39.4088509" lon="8.5483301"><ele>492.0</ele><time>2026-05-01T11:40:28.716Z</time></trkpt><trkpt lat="39.4088504" lon="8.5482033"><ele>484.6</ele><time>2026-05-01T11:40:30.716Z</time></trkpt><trkpt lat="39.4088593" lon="8.5480807"><ele>477.20000000000005</ele><time>2026-05-01T11:40:32.717Z</time></trkpt><trkpt lat="39.408862" lon="8.5479175"><ele>469.8</ele><time>2026-05-01T11:40:34.715Z</time></trkpt><trkpt lat="39.4088827" lon="8.5477938"><ele>462.4</ele><time>2026-05-01T11:40:35.715Z</time></trkpt><trkpt lat="39.4088856" lon="8.5476795"><ele>455.0</ele><time>2026-05-01T11:40:36.716Z</time></trkpt><trkpt lat="39.4088902" lon="8.5475603"><ele>453.6</ele><time>2026-05-01T11:40:37.717Z</time></trkpt><trkpt lat="39.4089294" lon="8.5474618"><ele>452.2</ele><time>2026-05-01T11:40:38.715Z</time></trkpt><trkpt lat="39.4089651" lon="8.5473458"><ele>450.79999999999995</ele><time>2026-05-01T11:40:39.716Z</time></trkpt><trkpt lat="39.4090198" lon="8.5472443"><ele>449.4</ele><time>2026-05-01T11:40:40.717Z</time></trkpt><trkpt lat="39.4090767" lon="8.5471291"><ele>448.0</ele><time>2026-05-01T11:40:41.716Z</time></trkpt><trkpt lat="39.409141" lon="8.5470285"><ele>448.00000000000006</ele><time>2026-05-01T11:40:42.715Z</time></trkpt><trkpt lat="39.409209" lon="8.5469215"><ele>448.0</ele><time>2026-05-01T11:40:43.716Z</time></trkpt><trkpt lat="39.4092648" lon="8.5468289"><ele>448.0</ele><time>2026-05-01T11:40:44.716Z</time></trkpt><trkpt lat="39.409311" lon="8.5467366"><ele>448.0</ele><time>2026-05-01T11:40:45.716Z</time></trkpt><trkpt lat="39.4093429" lon="8.546638"><ele>448.00000000000006</ele><time>2026-05-01T11:40:46.716Z</time></trkpt><trkpt lat="39.4093494" lon="8.5465379"><ele>448.0</ele><time>2026-05-01T11:40:47.717Z</time></trkpt><trkpt lat="39.4093268" lon="8.5463689"><ele>448.0</ele><time>2026-05-01T11:40:49.715Z</time></trkpt><trkpt lat="39.4093114" lon="8.5462765"><ele>447.99999999999994</ele><time>2026-05-01T11:40:50.716Z</time></trkpt><trkpt lat="39.4093219" lon="8.5461204"><ele>447.99999999999994</ele><time>2026-05-01T11:40:52.716Z</time></trkpt><trkpt lat="39.4093824" lon="8.5459877"><ele>448.0</ele><time>2026-05-01T11:40:54.716Z</time></trkpt><trkpt lat="39.4094537" lon="8.5458968"><ele>448.0</ele><time>2026-05-01T11:40:55.716Z</time></trkpt><trkpt lat="39.409519" lon="8.5457933"><ele>449.4</ele><time>2026-05-01T11:40:56.715Z</time></trkpt><trkpt lat="39.4095863" lon="8.5457212"><ele>450.79999999999995</ele><time>2026-05-01T11:40:57.715Z</time></trkpt><trkpt lat="39.4096442" lon="8.5456496"><ele>452.2</ele><time>2026-05-01T11:40:58.716Z</time></trkpt><trkpt lat="39.4097139" lon="8.5455099"><ele>453.6</ele><time>2026-05-01T11:41:00.716Z</time></trkpt><trkpt lat="39.4097218" lon="8.5454277"><ele>455.0</ele><time>2026-05-01T11:41:01.716Z</time></trkpt><trkpt lat="39.4097367" lon="8.5452477"><ele>448.66666666666663</ele><time>2026-05-01T11:41:03.717Z</time></trkpt><trkpt lat="39.4097606" lon="8.5451432"><ele>442.3333333333333</ele><time>2026-05-01T11:41:04.715Z</time></trkpt><trkpt lat="39.409788" lon="8.5450486"><ele>436.0</ele><time>2026-05-01T11:41:05.716Z</time></trkpt><trkpt lat="39.4098631" lon="8.5449379"><ele>429.66666666666663</ele><time>2026-05-01T11:41:07.715Z</time></trkpt><trkpt lat="39.4099406" lon="8.5448788"><ele>423.3333333333333</ele><time>2026-05-01T11:41:08.715Z</time></trkpt><trkpt lat="39.4099966" lon="8.5448211"><ele>417.0</ele><time>2026-05-01T11:41:09.716Z</time></trkpt><trkpt lat="39.410054" lon="8.5447412"><ele>417.0</ele><time>2026-05-01T11:41:10.716Z</time></trkpt><trkpt lat="39.4100916" lon="8.5446443"><ele>417.0</ele><time>2026-05-01T11:41:11.716Z</time></trkpt><trkpt lat="39.4101243" lon="8.5445301"><ele>417.0</ele><time>2026-05-01T11:41:12.717Z</time></trkpt><trkpt lat="39.4101349" lon="8.5444174"><ele>417.0</ele><time>2026-05-01T11:41:13.716Z</time></trkpt><trkpt lat="39.4101356" lon="8.5442754"><ele>417.0</ele><time>2026-05-01T11:41:14.715Z</time></trkpt><trkpt lat="39.4101426" lon="8.5441194"><ele>419.6</ele><time>2026-05-01T11:41:15.716Z</time></trkpt><trkpt lat="39.4101535" lon="8.5439816"><ele>422.20000000000005</ele><time>2026-05-01T11:41:16.716Z</time></trkpt><trkpt lat="39.4101717" lon="8.5438566"><ele>424.8</ele><time>2026-05-01T11:41:17.717Z</time></trkpt><trkpt lat="39.4102355" lon="8.5437526"><ele>427.4</ele><time>2026-05-01T11:41:18.715Z</time></trkpt><trkpt lat="39.4102954" lon="8.543675"><ele>430.0</ele><time>2026-05-01T11:41:19.716Z</time></trkpt><trkpt lat="39.4103512" lon="8.5436282"><ele>431.33333333333337</ele><time>2026-05-01T11:41:20.716Z</time></trkpt><trkpt lat="39.4104384" lon="8.5436084"><ele>432.6666666666667</ele><time>2026-05-01T11:41:21.715Z</time></trkpt><trkpt lat="39.4105178" lon="8.5435705"><ele>434.0</ele><time>2026-05-01T11:41:22.715Z</time></trkpt><trkpt lat="39.4105735" lon="8.5435139"><ele>435.33333333333337</ele><time>2026-05-01T11:41:23.716Z</time></trkpt><trkpt lat="39.4106094" lon="8.5434303"><ele>436.6666666666667</ele><time>2026-05-01T11:41:24.717Z</time></trkpt><trkpt lat="39.4106259" lon="8.5433171"><ele>438.0</ele><time>2026-05-01T11:41:25.716Z</time></trkpt><trkpt lat="39.4106478" lon="8.5431838"><ele>433.2</ele><time>2026-05-01T11:41:26.716Z</time></trkpt><trkpt lat="39.4106847" lon="8.5430897"><ele>428.4</ele><time>2026-05-01T11:41:27.716Z</time></trkpt><trkpt lat="39.4107212" lon="8.5430074"><ele>423.59999999999997</ele><time>2026-05-01T11:41:28.717Z</time></trkpt><trkpt lat="39.4107167" lon="8.5428679"><ele>418.79999999999995</ele><time>2026-05-01T11:41:30.715Z</time></trkpt><trkpt lat="39.4106123" lon="8.5428188"><ele>414.0</ele><time>2026-05-01T11:41:32.716Z</time></trkpt><trkpt lat="39.4105231" lon="8.5428405"><ele>420.0</ele><time>2026-05-01T11:41:33.716Z</time></trkpt><trkpt lat="39.4104255" lon="8.5428895"><ele>426.0</ele><time>2026-05-01T11:41:34.717Z</time></trkpt><trkpt lat="39.4103179" lon="8.5429576"><ele>432.0</ele><time>2026-05-01T11:41:35.716Z</time></trkpt><trkpt lat="39.4101917" lon="8.5430186"><ele>438.0</ele><time>2026-05-01T11:41:36.717Z</time></trkpt><trkpt lat="39.4100572" lon="8.5430794"><ele>438.0</ele><time>2026-05-01T11:41:37.717Z</time></trkpt><trkpt lat="39.4099533" lon="8.5431397"><ele>437.99999999999994</ele><time>2026-05-01T11:41:38.716Z</time></trkpt><trkpt lat="39.4098449" lon="8.5431851"><ele>437.99999999999994</ele><time>2026-05-01T11:41:39.716Z</time></trkpt><trkpt lat="39.4097411" lon="8.5431925"><ele>438.0</ele><time>2026-05-01T11:41:40.716Z</time></trkpt><trkpt lat="39.4096481" lon="8.5431981"><ele>438.0</ele><time>2026-05-01T11:41:41.717Z</time></trkpt><trkpt lat="39.4095538" lon="8.5432299"><ele>441.75</ele><time>2026-05-01T11:41:42.716Z</time></trkpt><trkpt lat="39.4094421" lon="8.5432737"><ele>445.5</ele><time>2026-05-01T11:41:43.715Z</time></trkpt><trkpt lat="39.4093244" lon="8.5433057"><ele>449.25</ele><time>2026-05-01T11:41:44.715Z</time></trkpt><trkpt lat="39.4091967" lon="8.5433315"><ele>453.0</ele><time>2026-05-01T11:41:45.715Z</time></trkpt><trkpt lat="39.4090854" lon="8.5433561"><ele>453.0</ele><time>2026-05-01T11:41:46.715Z</time></trkpt><trkpt lat="39.4089982" lon="8.5433662"><ele>452.99999999999994</ele><time>2026-05-01T11:41:47.716Z</time></trkpt><trkpt lat="39.4089105" lon="8.5432592"><ele>452.99999999999994</ele><time>2026-05-01T11:41:49.716Z</time></trkpt><trkpt lat="39.4088989" lon="8.5431631"><ele>453.0</ele><time>2026-05-01T11:41:50.716Z</time></trkpt><trkpt lat="39.4088935" lon="8.5430495"><ele>453.0</ele><time>2026-05-01T11:41:51.716Z</time></trkpt><trkpt lat="39.4088785" lon="8.5429381"><ele>453.0</ele><time>2026-05-01T11:41:52.717Z</time></trkpt><trkpt lat="39.4088403" lon="8.5428134"><ele>452.99999999999994</ele><time>2026-05-01T11:41:53.716Z</time></trkpt><trkpt lat="39.4087885" lon="8.542659"><ele>452.99999999999994</ele><time>2026-05-01T11:41:54.716Z</time></trkpt><trkpt lat="39.4087399" lon="8.5425236"><ele>453.0</ele><time>2026-05-01T11:41:55.717Z</time></trkpt><trkpt lat="39.4086904" lon="8.5424349"><ele>453.0</ele><time>2026-05-01T11:41:56.715Z</time></trkpt><trkpt lat="39.4086229" lon="8.5423746"><ele>453.0</ele><time>2026-05-01T11:41:57.716Z</time></trkpt><trkpt lat="39.4085426" lon="8.5423471"><ele>452.99999999999994</ele><time>2026-05-01T11:41:58.716Z</time></trkpt><trkpt lat="39.4084602" lon="8.5423525"><ele>452.99999999999994</ele><time>2026-05-01T11:41:59.715Z</time></trkpt><trkpt lat="39.4083799" lon="8.5424019"><ele>453.0</ele><time>2026-05-01T11:42:00.715Z</time></trkpt><trkpt lat="39.4083204" lon="8.5424851"><ele>453.0</ele><time>2026-05-01T11:42:01.716Z</time></trkpt><trkpt lat="39.4082527" lon="8.5425953"><ele>453.0</ele><time>2026-05-01T11:42:02.716Z</time></trkpt><trkpt lat="39.408184" lon="8.5426964"><ele>452.99999999999994</ele><time>2026-05-01T11:42:03.717Z</time></trkpt><trkpt lat="39.4081286" lon="8.5427836"><ele>452.99999999999994</ele><time>2026-05-01T11:42:04.716Z</time></trkpt><trkpt lat="39.4080711" lon="8.5428521"><ele>453.0</ele><time>2026-05-01T11:42:05.717Z</time></trkpt><trkpt lat="39.4080126" lon="8.5428983"><ele>453.0</ele><time>2026-05-01T11:42:06.715Z</time></trkpt><trkpt lat="39.4078975" lon="8.542924"><ele>452.59999999999997</ele><time>2026-05-01T11:42:08.717Z</time></trkpt><trkpt lat="39.4077953" lon="8.542937"><ele>452.19999999999993</ele><time>2026-05-01T11:42:10.716Z</time></trkpt><trkpt lat="39.4076971" lon="8.5429888"><ele>451.8</ele><time>2026-05-01T11:42:12.716Z</time></trkpt><trkpt lat="39.4076028" lon="8.5430515"><ele>451.4</ele><time>2026-05-01T11:42:14.717Z</time></trkpt><trkpt lat="39.4075029" lon="8.5430804"><ele>451.0</ele><time>2026-05-01T11:42:16.716Z</time></trkpt><trkpt lat="39.4073926" lon="8.5430679"><ele>451.0</ele><time>2026-05-01T11:42:18.716Z</time></trkpt><trkpt lat="39.4072792" lon="8.5430836"><ele>451.0</ele><time>2026-05-01T11:42:20.716Z</time></trkpt><trkpt lat="39.4071713" lon="8.5431043"><ele>451.0</ele><time>2026-05-01T11:42:22.716Z</time></trkpt><trkpt lat="39.4070617" lon="8.5431542"><ele>451.0</ele><time>2026-05-01T11:42:24.716Z</time></trkpt><trkpt lat="39.4069645" lon="8.5432296"><ele>449.33333333333337</ele><time>2026-05-01T11:42:26.715Z</time></trkpt><trkpt lat="39.40688" lon="8.543316"><ele>447.6666666666667</ele><time>2026-05-01T11:42:28.716Z</time></trkpt><trkpt lat="39.4067983" lon="8.5433334"><ele>446.0</ele><time>2026-05-01T11:42:30.716Z</time></trkpt><trkpt lat="39.4067558" lon="8.5432445"><ele>444.33333333333337</ele><time>2026-05-01T11:42:32.716Z</time></trkpt><trkpt lat="39.4067526" lon="8.543128"><ele>442.6666666666667</ele><time>2026-05-01T11:42:34.716Z</time></trkpt><trkpt lat="39.4067674" lon="8.5430384"><ele>441.0</ele><time>2026-05-01T11:42:36.716Z</time></trkpt><trkpt lat="39.4068007" lon="8.54293"><ele>439.0</ele><time>2026-05-01T11:42:38.716Z</time></trkpt><trkpt lat="39.4068385" lon="8.5428599"><ele>437.0</ele><time>2026-05-01T11:42:39.715Z</time></trkpt><trkpt lat="39.4069028" lon="8.5427273"><ele>435.0</ele><time>2026-05-01T11:42:41.716Z</time></trkpt><trkpt lat="39.4069462" lon="8.5426087"><ele>433.0</ele><time>2026-05-01T11:42:43.715Z</time></trkpt><trkpt lat="39.4069431" lon="8.5424877"><ele>431.0</ele><time>2026-05-01T11:42:45.717Z</time></trkpt><trkpt lat="39.4068892" lon="8.5424007"><ele>431.0</ele><time>2026-05-01T11:42:47.716Z</time></trkpt><trkpt lat="39.4068296" lon="8.5423036"><ele>431.0</ele><time>2026-05-01T11:42:49.715Z</time></trkpt><trkpt lat="39.4068096" lon="8.5421831"><ele>431.0</ele><time>2026-05-01T11:42:51.716Z</time></trkpt><trkpt lat="39.4068569" lon="8.5420448"><ele>431.0</ele><time>2026-05-01T11:42:53.715Z</time></trkpt><trkpt lat="39.4069058" lon="8.5419218"><ele>431.0</ele><time>2026-05-01T11:42:55.717Z</time></trkpt><trkpt lat="39.4069667" lon="8.5417627"><ele>431.20000000000005</ele><time>2026-05-01T11:42:57.717Z</time></trkpt><trkpt lat="39.4070078" lon="8.5416502"><ele>431.40000000000003</ele><time>2026-05-01T11:42:58.716Z</time></trkpt><trkpt lat="39.40705" lon="8.5415376"><ele>431.6</ele><time>2026-05-01T11:42:59.717Z</time></trkpt><trkpt lat="39.4070514" lon="8.541422"><ele>431.8</ele><time>2026-05-01T11:43:00.717Z</time></trkpt><trkpt lat="39.4070504" lon="8.5412985"><ele>432.0</ele><time>2026-05-01T11:43:01.715Z</time></trkpt><trkpt lat="39.4070499" lon="8.5411819"><ele>430.0</ele><time>2026-05-01T11:43:02.717Z</time></trkpt><trkpt lat="39.4070468" lon="8.5410803"><ele>428.0</ele><time>2026-05-01T11:43:03.716Z</time></trkpt><trkpt lat="39.4070351" lon="8.5409842"><ele>426.0</ele><time>2026-05-01T11:43:04.715Z</time></trkpt><trkpt lat="39.4070184" lon="8.5408989"><ele>424.0</ele><time>2026-05-01T11:43:05.716Z</time></trkpt><trkpt lat="39.4069737" lon="8.5408158"><ele>422.0</ele><time>2026-05-01T11:43:06.716Z</time></trkpt><trkpt lat="39.4069183" lon="8.5407307"><ele>420.0</ele><time>2026-05-01T11:43:07.716Z</time></trkpt><trkpt lat="39.4068486" lon="8.540627"><ele>420.0</ele><time>2026-05-01T11:43:08.717Z</time></trkpt><trkpt lat="39.4067947" lon="8.540536"><ele>420.0</ele><time>2026-05-01T11:43:09.715Z</time></trkpt><trkpt lat="39.4067579" lon="8.5404484"><ele>420.0</ele><time>2026-05-01T11:43:10.715Z</time></trkpt><trkpt lat="39.40674" lon="8.5403587"><ele>420.0</ele><time>2026-05-01T11:43:11.715Z</time></trkpt><trkpt lat="39.4067206" lon="8.5402546"><ele>420.0</ele><time>2026-05-01T11:43:12.716Z</time></trkpt><trkpt lat="39.4067149" lon="8.5401114"><ele>420.0</ele><time>2026-05-01T11:43:14.716Z</time></trkpt><trkpt lat="39.40672" lon="8.5399887"><ele>416.8333333333333</ele><time>2026-05-01T11:43:16.716Z</time></trkpt><trkpt lat="39.4067096" lon="8.5398997"><ele>413.66666666666663</ele><time>2026-05-01T11:43:17.716Z</time></trkpt><trkpt lat="39.4066819" lon="8.5398143"><ele>410.5</ele><time>2026-05-01T11:43:18.716Z</time></trkpt><trkpt lat="39.4066598" lon="8.5397338"><ele>407.3333333333333</ele><time>2026-05-01T11:43:19.717Z</time></trkpt><trkpt lat="39.4066443" lon="8.5395922"><ele>404.16666666666663</ele><time>2026-05-01T11:43:21.716Z</time></trkpt><trkpt lat="39.4066159" lon="8.5395158"><ele>401.0</ele><time>2026-05-01T11:43:23.717Z</time></trkpt><trkpt lat="39.4065603" lon="8.5396492"><ele>400.99999999999994</ele><time>2026-05-01T11:43:26.716Z</time></trkpt><trkpt lat="39.4065536" lon="8.5397437"><ele>401.0</ele><time>2026-05-01T11:43:27.716Z</time></trkpt><trkpt lat="39.4065382" lon="8.5398286"><ele>401.0</ele><time>2026-05-01T11:43:28.716Z</time></trkpt><trkpt lat="39.4064859" lon="8.5399554"><ele>401.0</ele><time>2026-05-01T11:43:30.716Z</time></trkpt><trkpt lat="39.406393" lon="8.5399496"><ele>400.99999999999994</ele><time>2026-05-01T11:43:32.716Z</time></trkpt><trkpt lat="39.4063398" lon="8.5398937"><ele>401.0</ele><time>2026-05-01T11:43:33.716Z</time></trkpt><trkpt lat="39.4063074" lon="8.5398144"><ele>401.0</ele><time>2026-05-01T11:43:34.717Z</time></trkpt><trkpt lat="39.40629" lon="8.5396718"><ele>401.0</ele><time>2026-05-01T11:43:36.717Z</time></trkpt><trkpt lat="39.4062932" lon="8.5395654"><ele>401.0</ele><time>2026-05-01T11:43:37.716Z</time></trkpt><trkpt lat="39.4062617" lon="8.5394649"><ele>401.0</ele><time>2026-05-01T11:43:38.716Z</time></trkpt><trkpt lat="39.406214" lon="8.5393634"><ele>401.0</ele><time>2026-05-01T11:43:39.716Z</time></trkpt><trkpt lat="39.406157" lon="8.5392644"><ele>395.6</ele><time>2026-05-01T11:43:40.716Z</time></trkpt><trkpt lat="39.4060985" lon="8.5391603"><ele>390.20000000000005</ele><time>2026-05-01T11:43:41.716Z</time></trkpt><trkpt lat="39.4060344" lon="8.5390485"><ele>384.79999999999995</ele><time>2026-05-01T11:43:42.717Z</time></trkpt><trkpt lat="39.4059912" lon="8.5389146"><ele>379.4</ele><time>2026-05-01T11:43:43.716Z</time></trkpt><trkpt lat="39.4059596" lon="8.5388026"><ele>374.0</ele><time>2026-05-01T11:43:44.715Z</time></trkpt><trkpt lat="39.4059372" lon="8.5386698"><ele>370.0</ele><time>2026-05-01T11:43:45.715Z</time></trkpt><trkpt lat="39.4059271" lon="8.5385536"><ele>366.0</ele><time>2026-05-01T11:43:46.714Z</time></trkpt><trkpt lat="39.4059325" lon="8.5384609"><ele>362.0</ele><time>2026-05-01T11:43:47.715Z</time></trkpt><trkpt lat="39.405982" lon="8.5383144"><ele>358.0</ele><time>2026-05-01T11:43:49.715Z</time></trkpt><trkpt lat="39.4060414" lon="8.5382572"><ele>354.0</ele><time>2026-05-01T11:43:50.715Z</time></trkpt><trkpt lat="39.4061468" lon="8.5381892"><ele>354.0</ele><time>2026-05-01T11:43:51.716Z</time></trkpt><trkpt lat="39.4062086" lon="8.5381493"><ele>354.0</ele><time>2026-05-01T11:43:52.716Z</time></trkpt><trkpt lat="39.4062685" lon="8.5381178"><ele>354.0</ele><time>2026-05-01T11:43:53.716Z</time></trkpt><trkpt lat="39.4063913" lon="8.5381109"><ele>354.0</ele><time>2026-05-01T11:43:55.714Z</time></trkpt><trkpt lat="39.4064548" lon="8.5381148"><ele>354.0</ele><time>2026-05-01T11:43:56.715Z</time></trkpt><trkpt lat="39.4065199" lon="8.5380978"><ele>354.0</ele><time>2026-05-01T11:43:57.714Z</time></trkpt><trkpt lat="39.4066419" lon="8.5379962"><ele>355.2</ele><time>2026-05-01T11:43:59.714Z</time></trkpt><trkpt lat="39.4066853" lon="8.5379008"><ele>356.4</ele><time>2026-05-01T11:44:00.715Z</time></trkpt><trkpt lat="39.4067168" lon="8.5377789"><ele>357.6</ele><time>2026-05-01T11:44:01.715Z</time></trkpt><trkpt lat="39.4067364" lon="8.5376336"><ele>358.8</ele><time>2026-05-01T11:44:02.715Z</time></trkpt><trkpt lat="39.4067587" lon="8.5374888"><ele>360.0</ele><time>2026-05-01T11:44:03.714Z</time></trkpt><trkpt lat="39.4067921" lon="8.5373382"><ele>355.8</ele><time>2026-05-01T11:44:04.714Z</time></trkpt><trkpt lat="39.4068208" lon="8.5372039"><ele>351.6</ele><time>2026-05-01T11:44:05.714Z</time></trkpt><trkpt lat="39.4068458" lon="8.5370823"><ele>347.4</ele><time>2026-05-01T11:44:06.715Z</time></trkpt><trkpt lat="39.406851" lon="8.5369663"><ele>343.2</ele><time>2026-05-01T11:44:07.716Z</time></trkpt><trkpt lat="39.4068434" lon="8.5368286"><ele>339.0</ele><time>2026-05-01T11:44:08.714Z</time></trkpt><trkpt lat="39.4068163" lon="8.5366796"><ele>336.79999999999995</ele><time>2026-05-01T11:44:09.714Z</time></trkpt><trkpt lat="39.4067734" lon="8.536533"><ele>334.59999999999997</ele><time>2026-05-01T11:44:10.715Z</time></trkpt><trkpt lat="39.4067193" lon="8.5364006"><ele>332.4</ele><time>2026-05-01T11:44:11.714Z</time></trkpt><trkpt lat="39.4066587" lon="8.5362794"><ele>330.2</ele><time>2026-05-01T11:44:12.716Z</time></trkpt><trkpt lat="39.4065999" lon="8.5362096"><ele>328.0</ele><time>2026-05-01T11:44:13.714Z</time></trkpt><trkpt lat="39.406534" lon="8.5361606"><ele>327.3333333333333</ele><time>2026-05-01T11:44:14.714Z</time></trkpt><trkpt lat="39.4064602" lon="8.5361278"><ele>326.66666666666663</ele><time>2026-05-01T11:44:15.714Z</time></trkpt><trkpt lat="39.4063644" lon="8.5361446"><ele>326.0</ele><time>2026-05-01T11:44:16.716Z</time></trkpt><trkpt lat="39.4062748" lon="8.5361405"><ele>325.3333333333333</ele><time>2026-05-01T11:44:17.715Z</time></trkpt><trkpt lat="39.4061885" lon="8.5361395"><ele>324.6666666666667</ele><time>2026-05-01T11:44:18.715Z</time></trkpt><trkpt lat="39.4061258" lon="8.5361112"><ele>324.0</ele><time>2026-05-01T11:44:19.714Z</time></trkpt><trkpt lat="39.4060294" lon="8.5360089"><ele>323.4</ele><time>2026-05-01T11:44:21.714Z</time></trkpt><trkpt lat="39.4060003" lon="8.5359337"><ele>322.79999999999995</ele><time>2026-05-01T11:44:22.714Z</time></trkpt><trkpt lat="39.4059894" lon="8.5357822"><ele>322.20000000000005</ele><time>2026-05-01T11:44:24.716Z</time></trkpt><trkpt lat="39.4059938" lon="8.5356839"><ele>321.6</ele><time>2026-05-01T11:44:25.716Z</time></trkpt><trkpt lat="39.4060209" lon="8.5355528"><ele>321.0</ele><time>2026-05-01T11:44:26.714Z</time></trkpt><trkpt lat="39.4060365" lon="8.5354276"><ele>319.3333333333333</ele><time>2026-05-01T11:44:27.715Z</time></trkpt><trkpt lat="39.4060466" lon="8.5352958"><ele>317.6666666666667</ele><time>2026-05-01T11:44:28.715Z</time></trkpt><trkpt lat="39.4060134" lon="8.5351865"><ele>316.0</ele><time>2026-05-01T11:44:29.715Z</time></trkpt><trkpt lat="39.4059999" lon="8.5350914"><ele>314.33333333333337</ele><time>2026-05-01T11:44:30.714Z</time></trkpt><trkpt lat="39.4060136" lon="8.534958"><ele>312.6666666666667</ele><time>2026-05-01T11:44:32.714Z</time></trkpt><trkpt lat="39.4060513" lon="8.5348906"><ele>311.0</ele><time>2026-05-01T11:44:33.714Z</time></trkpt><trkpt lat="39.4061689" lon="8.5347618"><ele>311.0</ele><time>2026-05-01T11:44:35.714Z</time></trkpt><trkpt lat="39.4062308" lon="8.5346937"><ele>311.0</ele><time>2026-05-01T11:44:36.715Z</time></trkpt><trkpt lat="39.4062755" lon="8.5346204"><ele>311.0</ele><time>2026-05-01T11:44:37.715Z</time></trkpt><trkpt lat="39.4063264" lon="8.5344794"><ele>311.0</ele><time>2026-05-01T11:44:39.715Z</time></trkpt><trkpt lat="39.4062896" lon="8.5344025"><ele>311.0</ele><time>2026-05-01T11:44:40.715Z</time></trkpt><trkpt lat="39.4062497" lon="8.5343232"><ele>311.0</ele><time>2026-05-01T11:44:41.715Z</time></trkpt><trkpt lat="39.4061932" lon="8.5341914"><ele>309.33333333333337</ele><time>2026-05-01T11:44:42.715Z</time></trkpt><trkpt lat="39.406149" lon="8.5341027"><ele>307.6666666666667</ele><time>2026-05-01T11:44:43.714Z</time></trkpt><trkpt lat="39.4061262" lon="8.5339977"><ele>306.0</ele><time>2026-05-01T11:44:44.715Z</time></trkpt><trkpt lat="39.4060955" lon="8.5338828"><ele>304.3333333333333</ele><time>2026-05-01T11:44:45.714Z</time></trkpt><trkpt lat="39.4060684" lon="8.5337942"><ele>302.66666666666663</ele><time>2026-05-01T11:44:46.714Z</time></trkpt><trkpt lat="39.4060462" lon="8.5337072"><ele>301.0</ele><time>2026-05-01T11:44:47.716Z</time></trkpt><trkpt lat="39.4060868" lon="8.5335639"><ele>300.5</ele><time>2026-05-01T11:44:49.714Z</time></trkpt><trkpt lat="39.4061162" lon="8.5334895"><ele>300.0</ele><time>2026-05-01T11:44:50.716Z</time></trkpt><trkpt lat="39.406171" lon="8.5334233"><ele>299.5</ele><time>2026-05-01T11:44:51.715Z</time></trkpt><trkpt lat="39.4062369" lon="8.5333255"><ele>299.0</ele><time>2026-05-01T11:44:52.715Z</time></trkpt><trkpt lat="39.4062927" lon="8.533245"><ele>298.5</ele><time>2026-05-01T11:44:53.714Z</time></trkpt><trkpt lat="39.4063525" lon="8.53317"><ele>298.0</ele><time>2026-05-01T11:44:54.715Z</time></trkpt><trkpt lat="39.4064038" lon="8.5330905"><ele>295.16666666666663</ele><time>2026-05-01T11:44:55.715Z</time></trkpt><trkpt lat="39.4064613" lon="8.5330164"><ele>292.3333333333333</ele><time>2026-05-01T11:44:56.714Z</time></trkpt><trkpt lat="39.4065453" lon="8.5329559"><ele>289.5</ele><time>2026-05-01T11:44:57.716Z</time></trkpt><trkpt lat="39.4066045" lon="8.532891"><ele>286.6666666666667</ele><time>2026-05-01T11:44:58.715Z</time></trkpt><trkpt lat="39.4066658" lon="8.5328121"><ele>283.83333333333337</ele><time>2026-05-01T11:44:59.714Z</time></trkpt><trkpt lat="39.4067158" lon="8.5327253"><ele>281.0</ele><time>2026-05-01T11:45:00.714Z</time></trkpt><trkpt lat="39.4067534" lon="8.5326444"><ele>280.33333333333337</ele><time>2026-05-01T11:45:01.714Z</time></trkpt><trkpt lat="39.4067996" lon="8.5325252"><ele>279.6666666666667</ele><time>2026-05-01T11:45:03.714Z</time></trkpt><trkpt lat="39.4068512" lon="8.5324752"><ele>279.0</ele><time>2026-05-01T11:45:07.716Z</time></trkpt><trkpt lat="39.4069216" lon="8.5324512"><ele>278.3333333333333</ele><time>2026-05-01T11:45:12.716Z</time></trkpt><trkpt lat="39.4069907" lon="8.5324225"><ele>277.66666666666663</ele><time>2026-05-01T11:45:13.714Z</time></trkpt><trkpt lat="39.4070878" lon="8.5323903"><ele>277.0</ele><time>2026-05-01T11:45:14.716Z</time></trkpt><trkpt lat="39.4071932" lon="8.5323664"><ele>273.4</ele><time>2026-05-01T11:45:15.716Z</time></trkpt><trkpt lat="39.407295" lon="8.5323417"><ele>269.79999999999995</ele><time>2026-05-01T11:45:16.716Z</time></trkpt><trkpt lat="39.4073984" lon="8.532334"><ele>266.2</ele><time>2026-05-01T11:45:17.716Z</time></trkpt><trkpt lat="39.4075033" lon="8.5323366"><ele>262.59999999999997</ele><time>2026-05-01T11:45:18.716Z</time></trkpt><trkpt lat="39.4075981" lon="8.5323401"><ele>259.0</ele><time>2026-05-01T11:45:19.716Z</time></trkpt><trkpt lat="39.4076853" lon="8.5323413"><ele>259.0</ele><time>2026-05-01T11:45:20.716Z</time></trkpt><trkpt lat="39.4077956" lon="8.5323601"><ele>259.0</ele><time>2026-05-01T11:45:21.714Z</time></trkpt><trkpt lat="39.4079019" lon="8.532384"><ele>259.0</ele><time>2026-05-01T11:45:22.714Z</time></trkpt><trkpt lat="39.4080016" lon="8.5324059"><ele>259.0</ele><time>2026-05-01T11:45:23.714Z</time></trkpt><trkpt lat="39.4080851" lon="8.5324166"><ele>259.0</ele><time>2026-05-01T11:45:24.716Z</time></trkpt><trkpt lat="39.4081679" lon="8.5324114"><ele>258.0</ele><time>2026-05-01T11:45:25.714Z</time></trkpt><trkpt lat="39.4082539" lon="8.5323873"><ele>257.0</ele><time>2026-05-01T11:45:26.715Z</time></trkpt><trkpt lat="39.4083173" lon="8.5323535"><ele>255.99999999999997</ele><time>2026-05-01T11:45:27.715Z</time></trkpt><trkpt lat="39.4083828" lon="8.5322792"><ele>255.0</ele><time>2026-05-01T11:45:28.714Z</time></trkpt><trkpt lat="39.40846" lon="8.5321587"><ele>254.0</ele><time>2026-05-01T11:45:29.716Z</time></trkpt><trkpt lat="39.4085167" lon="8.5320398"><ele>252.66666666666669</ele><time>2026-05-01T11:45:30.715Z</time></trkpt><trkpt lat="39.408547" lon="8.5319296"><ele>251.33333333333334</ele><time>2026-05-01T11:45:31.716Z</time></trkpt><trkpt lat="39.4085585" lon="8.5318311"><ele>250.0</ele><time>2026-05-01T11:45:32.716Z</time></trkpt><trkpt lat="39.4085411" lon="8.5317334"><ele>248.66666666666669</ele><time>2026-05-01T11:45:33.715Z</time></trkpt><trkpt lat="39.4084969" lon="8.5316663"><ele>247.33333333333334</ele><time>2026-05-01T11:45:34.714Z</time></trkpt><trkpt lat="39.4084312" lon="8.5316209"><ele>246.0</ele><time>2026-05-01T11:45:35.715Z</time></trkpt><trkpt lat="39.4083454" lon="8.5315834"><ele>246.0</ele><time>2026-05-01T11:45:36.716Z</time></trkpt><trkpt lat="39.4082735" lon="8.5315551"><ele>246.0</ele><time>2026-05-01T11:45:37.715Z</time></trkpt><trkpt lat="39.4082104" lon="8.5314998"><ele>246.0</ele><time>2026-05-01T11:45:38.714Z</time></trkpt><trkpt lat="39.4081649" lon="8.5314327"><ele>246.0</ele><time>2026-05-01T11:45:39.716Z</time></trkpt><trkpt lat="39.408144" lon="8.5313522"><ele>246.0</ele><time>2026-05-01T11:45:40.715Z</time></trkpt><trkpt lat="39.4081413" lon="8.5312442"><ele>246.0</ele><time>2026-05-01T11:45:41.715Z</time></trkpt><trkpt lat="39.4081591" lon="8.5311212"><ele>244.25</ele><time>2026-05-01T11:45:42.715Z</time></trkpt><trkpt lat="39.4081886" lon="8.5309901"><ele>242.5</ele><time>2026-05-01T11:45:43.715Z</time></trkpt><trkpt lat="39.4082236" lon="8.5308586"><ele>240.75</ele><time>2026-05-01T11:45:44.716Z</time></trkpt><trkpt lat="39.408258" lon="8.5307198"><ele>239.0</ele><time>2026-05-01T11:45:45.714Z</time></trkpt><trkpt lat="39.408347" lon="8.5305772"><ele>239.0</ele><time>2026-05-01T11:45:46.715Z</time></trkpt><trkpt lat="39.4084034" lon="8.530425"><ele>239.0</ele><time>2026-05-01T11:45:47.715Z</time></trkpt><trkpt lat="39.4084708" lon="8.5302805"><ele>239.0</ele><time>2026-05-01T11:45:48.714Z</time></trkpt><trkpt lat="39.408541" lon="8.5301527"><ele>239.0</ele><time>2026-05-01T11:45:49.715Z</time></trkpt><trkpt lat="39.4086223" lon="8.5300278"><ele>239.0</ele><time>2026-05-01T11:45:50.715Z</time></trkpt><trkpt lat="39.408698" lon="8.5299271"><ele>238.99999999999997</ele><time>2026-05-01T11:45:51.716Z</time></trkpt><trkpt lat="39.4087762" lon="8.5298566"><ele>238.99999999999997</ele><time>2026-05-01T11:45:52.714Z</time></trkpt><trkpt lat="39.4088368" lon="8.5297536"><ele>239.0</ele><time>2026-05-01T11:45:53.715Z</time></trkpt><trkpt lat="39.408876" lon="8.5296504"><ele>239.0</ele><time>2026-05-01T11:45:54.715Z</time></trkpt><trkpt lat="39.4088991" lon="8.5294992"><ele>235.2</ele><time>2026-05-01T11:45:55.714Z</time></trkpt><trkpt lat="39.4089183" lon="8.5293203"><ele>231.39999999999998</ele><time>2026-05-01T11:45:56.714Z</time></trkpt><trkpt lat="39.4089281" lon="8.5291768"><ele>227.6</ele><time>2026-05-01T11:45:57.714Z</time></trkpt><trkpt lat="39.4089461" lon="8.529054"><ele>223.8</ele><time>2026-05-01T11:45:58.714Z</time></trkpt><trkpt lat="39.4089875" lon="8.5289685"><ele>220.0</ele><time>2026-05-01T11:45:59.715Z</time></trkpt><trkpt lat="39.4090449" lon="8.5288546"><ele>220.0</ele><time>2026-05-01T11:46:00.715Z</time></trkpt><trkpt lat="39.409112" lon="8.5287346"><ele>220.0</ele><time>2026-05-01T11:46:01.715Z</time></trkpt><trkpt lat="39.4091771" lon="8.5286468"><ele>220.0</ele><time>2026-05-01T11:46:02.716Z</time></trkpt><trkpt lat="39.4092505" lon="8.5285252"><ele>220.0</ele><time>2026-05-01T11:46:03.716Z</time></trkpt><trkpt lat="39.4093228" lon="8.5284021"><ele>220.0</ele><time>2026-05-01T11:46:04.715Z</time></trkpt><trkpt lat="39.4093741" lon="8.5283033"><ele>220.8</ele><time>2026-05-01T11:46:05.714Z</time></trkpt><trkpt lat="39.4094107" lon="8.5282156"><ele>221.6</ele><time>2026-05-01T11:46:06.715Z</time></trkpt><trkpt lat="39.4094581" lon="8.5281045"><ele>222.39999999999998</ele><time>2026-05-01T11:46:08.716Z</time></trkpt><trkpt lat="39.4095064" lon="8.5280168"><ele>223.2</ele><time>2026-05-01T11:46:10.715Z</time></trkpt><trkpt lat="39.4095543" lon="8.5279119"><ele>224.0</ele><time>2026-05-01T11:46:12.714Z</time></trkpt><trkpt lat="39.4095963" lon="8.5277977"><ele>224.00000000000003</ele><time>2026-05-01T11:46:14.716Z</time></trkpt><trkpt lat="39.4096155" lon="8.5277131"><ele>224.0</ele><time>2026-05-01T11:46:16.716Z</time></trkpt><trkpt lat="39.4095591" lon="8.5275964"><ele>224.0</ele><time>2026-05-01T11:46:19.716Z</time></trkpt><trkpt lat="39.4095077" lon="8.5275072"><ele>224.0</ele><time>2026-05-01T11:46:21.715Z</time></trkpt><trkpt lat="39.4095262" lon="8.5273922"><ele>224.00000000000003</ele><time>2026-05-01T11:46:23.715Z</time></trkpt><trkpt lat="39.4095715" lon="8.5273011"><ele>224.0</ele><time>2026-05-01T11:46:25.716Z</time></trkpt><trkpt lat="39.4096344" lon="8.527208"><ele>221.00000000000003</ele><time>2026-05-01T11:46:27.716Z</time></trkpt><trkpt lat="39.4096994" lon="8.5271223"><ele>218.0</ele><time>2026-05-01T11:46:29.714Z</time></trkpt><trkpt lat="39.4097513" lon="8.5270632"><ele>215.0</ele><time>2026-05-01T11:46:30.715Z</time></trkpt><trkpt lat="39.4098003" lon="8.5269958"><ele>212.0</ele><time>2026-05-01T11:46:31.716Z</time></trkpt><trkpt lat="39.4098418" lon="8.5269085"><ele>209.00000000000003</ele><time>2026-05-01T11:46:32.716Z</time></trkpt><trkpt lat="39.4098897" lon="8.5268228"><ele>206.0</ele><time>2026-05-01T11:46:33.714Z</time></trkpt><trkpt lat="39.4099274" lon="8.5267307"><ele>206.0</ele><time>2026-05-01T11:46:34.715Z</time></trkpt><trkpt lat="39.4099638" lon="8.5266276"><ele>206.0</ele><time>2026-05-01T11:46:35.714Z</time></trkpt><trkpt lat="39.4100051" lon="8.5265318"><ele>206.0</ele><time>2026-05-01T11:46:36.715Z</time></trkpt><trkpt lat="39.4100428" lon="8.5264373"><ele>206.0</ele><time>2026-05-01T11:46:37.715Z</time></trkpt><trkpt lat="39.4100817" lon="8.526361"><ele>206.0</ele><time>2026-05-01T11:46:38.716Z</time></trkpt><trkpt lat="39.4101491" lon="8.5262235"><ele>207.83333333333334</ele><time>2026-05-01T11:46:40.714Z</time></trkpt><trkpt lat="39.4101851" lon="8.526145"><ele>209.66666666666669</ele><time>2026-05-01T11:46:41.715Z</time></trkpt><trkpt lat="39.4102206" lon="8.5260573"><ele>211.5</ele><time>2026-05-01T11:46:42.714Z</time></trkpt><trkpt lat="39.4102548" lon="8.5259621"><ele>213.33333333333331</ele><time>2026-05-01T11:46:43.714Z</time></trkpt><trkpt lat="39.4102963" lon="8.5258664"><ele>215.16666666666666</ele><time>2026-05-01T11:46:44.715Z</time></trkpt><trkpt lat="39.4103254" lon="8.5257678"><ele>217.0</ele><time>2026-05-01T11:46:45.715Z</time></trkpt><trkpt lat="39.4103315" lon="8.5256679"><ele>216.99999999999997</ele><time>2026-05-01T11:46:46.714Z</time></trkpt><trkpt lat="39.4103194" lon="8.525566"><ele>217.0</ele><time>2026-05-01T11:46:47.716Z</time></trkpt><trkpt lat="39.410297" lon="8.525472"><ele>217.0</ele><time>2026-05-01T11:46:48.716Z</time></trkpt><trkpt lat="39.4102909" lon="8.5253811"><ele>217.0</ele><time>2026-05-01T11:46:49.715Z</time></trkpt><trkpt lat="39.4103192" lon="8.5252939"><ele>216.99999999999997</ele><time>2026-05-01T11:46:50.714Z</time></trkpt><trkpt lat="39.4103581" lon="8.5252172"><ele>217.0</ele><time>2026-05-01T11:46:51.716Z</time></trkpt><trkpt lat="39.4104387" lon="8.52513"><ele>211.6</ele><time>2026-05-01T11:46:52.715Z</time></trkpt><trkpt lat="39.410526" lon="8.5250454"><ele>206.2</ele><time>2026-05-01T11:46:53.714Z</time></trkpt><trkpt lat="39.4106065" lon="8.5249628"><ele>200.8</ele><time>2026-05-01T11:46:54.714Z</time></trkpt><trkpt lat="39.410677" lon="8.5248798"><ele>195.4</ele><time>2026-05-01T11:46:55.714Z</time></trkpt><trkpt lat="39.4107298" lon="8.524807"><ele>190.0</ele><time>2026-05-01T11:46:56.715Z</time></trkpt><trkpt lat="39.4107781" lon="8.5247304"><ele>190.0</ele><time>2026-05-01T11:46:57.716Z</time></trkpt><trkpt lat="39.4108052" lon="8.5246495"><ele>190.0</ele><time>2026-05-01T11:46:58.714Z</time></trkpt><trkpt lat="39.41081" lon="8.524566"><ele>190.0</ele><time>2026-05-01T11:46:59.714Z</time></trkpt><trkpt lat="39.4107969" lon="8.5244725"><ele>190.0</ele><time>2026-05-01T11:47:00.715Z</time></trkpt><trkpt lat="39.4107901" lon="8.524383"><ele>190.0</ele><time>2026-05-01T11:47:01.715Z</time></trkpt><trkpt lat="39.4108014" lon="8.5242776"><ele>190.0</ele><time>2026-05-01T11:47:02.715Z</time></trkpt><trkpt lat="39.4108379" lon="8.5241755"><ele>190.0</ele><time>2026-05-01T11:47:03.715Z</time></trkpt><trkpt lat="39.4108834" lon="8.5240462"><ele>190.4</ele><time>2026-05-01T11:47:04.715Z</time></trkpt><trkpt lat="39.4109244" lon="8.523907"><ele>190.8</ele><time>2026-05-01T11:47:05.715Z</time></trkpt><trkpt lat="39.410951" lon="8.5237832"><ele>191.2</ele><time>2026-05-01T11:47:06.715Z</time></trkpt><trkpt lat="39.4109623" lon="8.5236817"><ele>191.6</ele><time>2026-05-01T11:47:07.715Z</time></trkpt><trkpt lat="39.4109512" lon="8.5235746"><ele>192.0</ele><time>2026-05-01T11:47:08.715Z</time></trkpt><trkpt lat="39.4109292" lon="8.5234389"><ele>192.5</ele><time>2026-05-01T11:47:09.715Z</time></trkpt><trkpt lat="39.4109148" lon="8.5233069"><ele>193.0</ele><time>2026-05-01T11:47:10.714Z</time></trkpt><trkpt lat="39.4109052" lon="8.5231549"><ele>193.5</ele><time>2026-05-01T11:47:11.714Z</time></trkpt><trkpt lat="39.4108765" lon="8.5229971"><ele>194.0</ele><time>2026-05-01T11:47:12.715Z</time></trkpt><trkpt lat="39.410843" lon="8.522834"><ele>192.0</ele><time>2026-05-01T11:47:13.714Z</time></trkpt><trkpt lat="39.4108189" lon="8.5226667"><ele>190.0</ele><time>2026-05-01T11:47:14.715Z</time></trkpt><trkpt lat="39.4107977" lon="8.522499"><ele>188.0</ele><time>2026-05-01T11:47:15.714Z</time></trkpt><trkpt lat="39.4107878" lon="8.5223432"><ele>186.0</ele><time>2026-05-01T11:47:16.714Z</time></trkpt><trkpt lat="39.4107835" lon="8.5221857"><ele>185.75</ele><time>2026-05-01T11:47:17.715Z</time></trkpt><trkpt lat="39.4108033" lon="8.5220228"><ele>185.5</ele><time>2026-05-01T11:47:18.716Z</time></trkpt><trkpt lat="39.4108052" lon="8.5218583"><ele>185.25</ele><time>2026-05-01T11:47:19.715Z</time></trkpt><trkpt lat="39.4108006" lon="8.5216946"><ele>185.0</ele><time>2026-05-01T11:47:20.714Z</time></trkpt><trkpt lat="39.4107945" lon="8.521551"><ele>185.0</ele><time>2026-05-01T11:47:21.714Z</time></trkpt><trkpt lat="39.410799" lon="8.5214267"><ele>185.0</ele><time>2026-05-01T11:47:22.716Z</time></trkpt><trkpt lat="39.4108159" lon="8.5213215"><ele>185.0</ele><time>2026-05-01T11:47:23.715Z</time></trkpt><trkpt lat="39.4108494" lon="8.5212263"><ele>185.0</ele><time>2026-05-01T11:47:24.715Z</time></trkpt><trkpt lat="39.410898" lon="8.5211346"><ele>185.0</ele><time>2026-05-01T11:47:25.716Z</time></trkpt><trkpt lat="39.4109667" lon="8.5210443"><ele>185.0</ele><time>2026-05-01T11:47:26.716Z</time></trkpt><trkpt lat="39.4110393" lon="8.5209609"><ele>186.33333333333331</ele><time>2026-05-01T11:47:27.715Z</time></trkpt><trkpt lat="39.4111287" lon="8.5209013"><ele>187.66666666666666</ele><time>2026-05-01T11:47:28.716Z</time></trkpt><trkpt lat="39.4112099" lon="8.5208783"><ele>189.0</ele><time>2026-05-01T11:47:29.716Z</time></trkpt><trkpt lat="39.4112824" lon="8.520859"><ele>190.33333333333331</ele><time>2026-05-01T11:47:30.715Z</time></trkpt><trkpt lat="39.4113724" lon="8.5207557"><ele>191.66666666666666</ele><time>2026-05-01T11:47:32.714Z</time></trkpt><trkpt lat="39.4113782" lon="8.5206701"><ele>193.0</ele><time>2026-05-01T11:47:33.714Z</time></trkpt><trkpt lat="39.4112914" lon="8.5205028"><ele>193.0</ele><time>2026-05-01T11:47:35.714Z</time></trkpt><trkpt lat="39.411216" lon="8.520408"><ele>193.0</ele><time>2026-05-01T11:47:36.714Z</time></trkpt><trkpt lat="39.4111566" lon="8.520278"><ele>193.0</ele><time>2026-05-01T11:47:37.715Z</time></trkpt><trkpt lat="39.4111052" lon="8.5201203"><ele>193.0</ele><time>2026-05-01T11:47:38.715Z</time></trkpt><trkpt lat="39.4110789" lon="8.5199723"><ele>193.25</ele><time>2026-05-01T11:47:39.715Z</time></trkpt><trkpt lat="39.411069" lon="8.519818"><ele>193.5</ele><time>2026-05-01T11:47:40.714Z</time></trkpt><trkpt lat="39.4110716" lon="8.5196607"><ele>193.75</ele><time>2026-05-01T11:47:41.714Z</time></trkpt><trkpt lat="39.4111315" lon="8.519536"><ele>194.0</ele><time>2026-05-01T11:47:42.715Z</time></trkpt><trkpt lat="39.4111827" lon="8.5194045"><ele>192.6</ele><time>2026-05-01T11:47:43.716Z</time></trkpt><trkpt lat="39.4112344" lon="8.5192994"><ele>191.2</ele><time>2026-05-01T11:47:44.714Z</time></trkpt><trkpt lat="39.4112667" lon="8.5191789"><ele>189.79999999999998</ele><time>2026-05-01T11:47:45.715Z</time></trkpt><trkpt lat="39.4112862" lon="8.5190569"><ele>188.39999999999998</ele><time>2026-05-01T11:47:46.716Z</time></trkpt><trkpt lat="39.4112968" lon="8.5189461"><ele>187.0</ele><time>2026-05-01T11:47:47.714Z</time></trkpt><trkpt lat="39.4113136" lon="8.5188421"><ele>183.33333333333334</ele><time>2026-05-01T11:47:48.714Z</time></trkpt><trkpt lat="39.4113642" lon="8.518747"><ele>179.66666666666669</ele><time>2026-05-01T11:47:49.716Z</time></trkpt><trkpt lat="39.4114121" lon="8.518659"><ele>176.0</ele><time>2026-05-01T11:47:50.715Z</time></trkpt><trkpt lat="39.411446" lon="8.5185693"><ele>172.33333333333334</ele><time>2026-05-01T11:47:51.715Z</time></trkpt><trkpt lat="39.4114747" lon="8.5184717"><ele>168.66666666666666</ele><time>2026-05-01T11:47:52.714Z</time></trkpt><trkpt lat="39.4114963" lon="8.5183618"><ele>165.0</ele><time>2026-05-01T11:47:53.715Z</time></trkpt><trkpt lat="39.4114905" lon="8.5182526"><ele>165.0</ele><time>2026-05-01T11:47:54.715Z</time></trkpt><trkpt lat="39.4114657" lon="8.5181743"><ele>165.0</ele><time>2026-05-01T11:47:55.715Z</time></trkpt><trkpt lat="39.4114154" lon="8.5180963"><ele>165.0</ele><time>2026-05-01T11:47:56.714Z</time></trkpt><trkpt lat="39.4113443" lon="8.5180454"><ele>165.0</ele><time>2026-05-01T11:47:57.715Z</time></trkpt><trkpt lat="39.4112413" lon="8.5180078"><ele>165.0</ele><time>2026-05-01T11:47:58.714Z</time></trkpt><trkpt lat="39.4111381" lon="8.517995"><ele>165.0</ele><time>2026-05-01T11:47:59.714Z</time></trkpt><trkpt lat="39.4110364" lon="8.5180031"><ele>167.0</ele><time>2026-05-01T11:48:00.715Z</time></trkpt><trkpt lat="39.4109248" lon="8.5180248"><ele>169.0</ele><time>2026-05-01T11:48:01.716Z</time></trkpt><trkpt lat="39.41083" lon="8.5180347"><ele>171.0</ele><time>2026-05-01T11:48:02.715Z</time></trkpt><trkpt lat="39.4107528" lon="8.5180258"><ele>173.0</ele><time>2026-05-01T11:48:03.715Z</time></trkpt><trkpt lat="39.4106753" lon="8.5179366"><ele>175.0</ele><time>2026-05-01T11:48:05.716Z</time></trkpt><trkpt lat="39.4106823" lon="8.5178041"><ele>175.4</ele><time>2026-05-01T11:48:07.714Z</time></trkpt><trkpt lat="39.4107287" lon="8.5177357"><ele>175.8</ele><time>2026-05-01T11:48:08.716Z</time></trkpt><trkpt lat="39.410802" lon="8.5176654"><ele>176.2</ele><time>2026-05-01T11:48:09.714Z</time></trkpt><trkpt lat="39.4108839" lon="8.5175798"><ele>176.6</ele><time>2026-05-01T11:48:10.715Z</time></trkpt><trkpt lat="39.4109709" lon="8.5174945"><ele>177.0</ele><time>2026-05-01T11:48:11.715Z</time></trkpt><trkpt lat="39.4110603" lon="8.5174371"><ele>177.0</ele><time>2026-05-01T11:48:12.715Z</time></trkpt><trkpt lat="39.4111621" lon="8.5173941"><ele>177.0</ele><time>2026-05-01T11:48:13.714Z</time></trkpt><trkpt lat="39.4112797" lon="8.5173754"><ele>177.0</ele><time>2026-05-01T11:48:14.714Z</time></trkpt><trkpt lat="39.4114015" lon="8.5173752"><ele>177.0</ele><time>2026-05-01T11:48:15.715Z</time></trkpt><trkpt lat="39.4115047" lon="8.5173992"><ele>177.0</ele><time>2026-05-01T11:48:16.715Z</time></trkpt><trkpt lat="39.4115905" lon="8.5174485"><ele>177.0</ele><time>2026-05-01T11:48:17.715Z</time></trkpt><trkpt lat="39.4116927" lon="8.5175387"><ele>177.0</ele><time>2026-05-01T11:48:18.714Z</time></trkpt><trkpt lat="39.4118042" lon="8.5176323"><ele>177.0</ele><time>2026-05-01T11:48:19.715Z</time></trkpt><trkpt lat="39.4119256" lon="8.5177194"><ele>177.0</ele><time>2026-05-01T11:48:20.715Z</time></trkpt><trkpt lat="39.4120298" lon="8.5178096"><ele>177.0</ele><time>2026-05-01T11:48:21.714Z</time></trkpt><trkpt lat="39.412124" lon="8.5179005"><ele>177.0</ele><time>2026-05-01T11:48:22.716Z</time></trkpt><trkpt lat="39.4121958" lon="8.5179913"><ele>177.0</ele><time>2026-05-01T11:48:23.715Z</time></trkpt><trkpt lat="39.4122454" lon="8.5181045"><ele>177.0</ele><time>2026-05-01T11:48:24.714Z</time></trkpt><trkpt lat="39.4122598" lon="8.5182267"><ele>176.8</ele><time>2026-05-01T11:48:25.714Z</time></trkpt><trkpt lat="39.4122467" lon="8.5183597"><ele>176.6</ele><time>2026-05-01T11:48:26.713Z</time></trkpt><trkpt lat="39.4122075" lon="8.5184895"><ele>176.4</ele><time>2026-05-01T11:48:27.714Z</time></trkpt><trkpt lat="39.4121706" lon="8.5186042"><ele>176.20000000000002</ele><time>2026-05-01T11:48:28.715Z</time></trkpt><trkpt lat="39.412161" lon="8.5186958"><ele>176.0</ele><time>2026-05-01T11:48:29.714Z</time></trkpt><trkpt lat="39.412186" lon="8.5187876"><ele>176.0</ele><time>2026-05-01T11:48:30.714Z</time></trkpt><trkpt lat="39.41224" lon="8.5189012"><ele>176.0</ele><time>2026-05-01T11:48:31.714Z</time></trkpt><trkpt lat="39.4122767" lon="8.5190031"><ele>176.0</ele><time>2026-05-01T11:48:32.714Z</time></trkpt><trkpt lat="39.4122814" lon="8.5191177"><ele>176.0</ele><time>2026-05-01T11:48:33.714Z</time></trkpt><trkpt lat="39.4122625" lon="8.5192626"><ele>176.0</ele><time>2026-05-01T11:48:34.713Z</time></trkpt><trkpt lat="39.4122386" lon="8.5194122"><ele>176.0</ele><time>2026-05-01T11:48:35.714Z</time></trkpt><trkpt lat="39.4122191" lon="8.519545"><ele>176.0</ele><time>2026-05-01T11:48:36.713Z</time></trkpt><trkpt lat="39.4122058" lon="8.5196598"><ele>176.0</ele><time>2026-05-01T11:48:37.714Z</time></trkpt><trkpt lat="39.4122282" lon="8.5197688"><ele>176.0</ele><time>2026-05-01T11:48:38.715Z</time></trkpt><trkpt lat="39.4122825" lon="8.5198942"><ele>176.0</ele><time>2026-05-01T11:48:39.714Z</time></trkpt><trkpt lat="39.4123475" lon="8.5199789"><ele>172.60000000000002</ele><time>2026-05-01T11:48:40.714Z</time></trkpt><trkpt lat="39.412409" lon="8.5200383"><ele>169.20000000000002</ele><time>2026-05-01T11:48:41.713Z</time></trkpt><trkpt lat="39.4125414" lon="8.5200198"><ele>165.8</ele><time>2026-05-01T11:48:43.714Z</time></trkpt><trkpt lat="39.4126306" lon="8.5199613"><ele>162.4</ele><time>2026-05-01T11:48:44.714Z</time></trkpt><trkpt lat="39.4127273" lon="8.5198936"><ele>159.0</ele><time>2026-05-01T11:48:45.713Z</time></trkpt><trkpt lat="39.4128345" lon="8.51979"><ele>159.0</ele><time>2026-05-01T11:48:46.714Z</time></trkpt><trkpt lat="39.4129385" lon="8.5196561"><ele>159.0</ele><time>2026-05-01T11:48:47.714Z</time></trkpt><trkpt lat="39.4130539" lon="8.5194971"><ele>159.0</ele><time>2026-05-01T11:48:48.713Z</time></trkpt><trkpt lat="39.4131705" lon="8.5193601"><ele>162.0</ele><time>2026-05-01T11:48:49.714Z</time></trkpt><trkpt lat="39.4132723" lon="8.5192447"><ele>165.0</ele><time>2026-05-01T11:48:50.714Z</time></trkpt><trkpt lat="39.4133576" lon="8.5191594"><ele>168.0</ele><time>2026-05-01T11:48:51.713Z</time></trkpt><trkpt lat="39.4134354" lon="8.5191058"><ele>171.0</ele><time>2026-05-01T11:48:52.714Z</time></trkpt><trkpt lat="39.4135242" lon="8.5191008"><ele>174.0</ele><time>2026-05-01T11:48:53.713Z</time></trkpt><trkpt lat="39.4136445" lon="8.5191275"><ele>174.0</ele><time>2026-05-01T11:48:54.714Z</time></trkpt><trkpt lat="39.4137773" lon="8.5191487"><ele>174.0</ele><time>2026-05-01T11:48:55.715Z</time></trkpt><trkpt lat="39.4139101" lon="8.5191661"><ele>174.0</ele><time>2026-05-01T11:48:56.714Z</time></trkpt><trkpt lat="39.4140202" lon="8.5192052"><ele>174.0</ele><time>2026-05-01T11:48:57.713Z</time></trkpt><trkpt lat="39.4141236" lon="8.5192747"><ele>174.25</ele><time>2026-05-01T11:48:58.713Z</time></trkpt><trkpt lat="39.4142233" lon="8.5193712"><ele>174.5</ele><time>2026-05-01T11:48:59.714Z</time></trkpt><trkpt lat="39.4143387" lon="8.5194882"><ele>174.75</ele><time>2026-05-01T11:49:00.714Z</time></trkpt><trkpt lat="39.4144639" lon="8.5196198"><ele>175.0</ele><time>2026-05-01T11:49:01.715Z</time></trkpt><trkpt lat="39.4145694" lon="8.5197247"><ele>171.2</ele><time>2026-05-01T11:49:02.714Z</time></trkpt><trkpt lat="39.4146551" lon="8.519818"><ele>167.4</ele><time>2026-05-01T11:49:03.714Z</time></trkpt><trkpt lat="39.4147312" lon="8.5198797"><ele>163.6</ele><time>2026-05-01T11:49:04.713Z</time></trkpt><trkpt lat="39.4148039" lon="8.5198898"><ele>159.8</ele><time>2026-05-01T11:49:05.714Z</time></trkpt><trkpt lat="39.4148778" lon="8.5198521"><ele>156.0</ele><time>2026-05-01T11:49:06.713Z</time></trkpt><trkpt lat="39.4149629" lon="8.5197699"><ele>156.0</ele><time>2026-05-01T11:49:07.715Z</time></trkpt><trkpt lat="39.4150581" lon="8.5196735"><ele>156.0</ele><time>2026-05-01T11:49:08.714Z</time></trkpt><trkpt lat="39.4151749" lon="8.5195907"><ele>156.0</ele><time>2026-05-01T11:49:09.714Z</time></trkpt><trkpt lat="39.4152776" lon="8.5194962"><ele>156.0</ele><time>2026-05-01T11:49:10.714Z</time></trkpt><trkpt lat="39.4153543" lon="8.5193868"><ele>159.0</ele><time>2026-05-01T11:49:11.714Z</time></trkpt><trkpt lat="39.4154038" lon="8.519275"><ele>162.0</ele><time>2026-05-01T11:49:12.713Z</time></trkpt><trkpt lat="39.415418" lon="8.5191647"><ele>165.0</ele><time>2026-05-01T11:49:13.713Z</time></trkpt><trkpt lat="39.4153953" lon="8.5190311"><ele>168.0</ele><time>2026-05-01T11:49:14.714Z</time></trkpt><trkpt lat="39.4153567" lon="8.5188872"><ele>171.0</ele><time>2026-05-01T11:49:15.714Z</time></trkpt><trkpt lat="39.4153291" lon="8.5187771"><ele>172.16666666666666</ele><time>2026-05-01T11:49:16.715Z</time></trkpt><trkpt lat="39.4153266" lon="8.5186847"><ele>173.33333333333334</ele><time>2026-05-01T11:49:17.713Z</time></trkpt><trkpt lat="39.4153541" lon="8.5186016"><ele>174.5</ele><time>2026-05-01T11:49:18.713Z</time></trkpt><trkpt lat="39.4154141" lon="8.5185182"><ele>175.66666666666669</ele><time>2026-05-01T11:49:19.714Z</time></trkpt><trkpt lat="39.4154874" lon="8.5184437"><ele>176.83333333333334</ele><time>2026-05-01T11:49:20.713Z</time></trkpt><trkpt lat="39.4155353" lon="8.5183428"><ele>178.0</ele><time>2026-05-01T11:49:21.714Z</time></trkpt><trkpt lat="39.4155743" lon="8.5182141"><ele>173.6</ele><time>2026-05-01T11:49:22.715Z</time></trkpt><trkpt lat="39.4156199" lon="8.5181258"><ele>169.20000000000002</ele><time>2026-05-01T11:49:23.714Z</time></trkpt><trkpt lat="39.415726" lon="8.5180599"><ele>164.8</ele><time>2026-05-01T11:49:25.714Z</time></trkpt><trkpt lat="39.4157846" lon="8.5180923"><ele>160.4</ele><time>2026-05-01T11:49:26.713Z</time></trkpt><trkpt lat="39.415848" lon="8.5181724"><ele>156.0</ele><time>2026-05-01T11:49:27.713Z</time></trkpt><trkpt lat="39.4158929" lon="8.5183017"><ele>156.0</ele><time>2026-05-01T11:49:28.714Z</time></trkpt><trkpt lat="39.4159502" lon="8.5184264"><ele>156.0</ele><time>2026-05-01T11:49:29.713Z</time></trkpt><trkpt lat="39.4160161" lon="8.5185118"><ele>156.0</ele><time>2026-05-01T11:49:30.714Z</time></trkpt><trkpt lat="39.4160889" lon="8.5185604"><ele>156.0</ele><time>2026-05-01T11:49:31.715Z</time></trkpt><trkpt lat="39.4161667" lon="8.5185676"><ele>156.0</ele><time>2026-05-01T11:49:32.715Z</time></trkpt><trkpt lat="39.416256" lon="8.518528"><ele>152.5</ele><time>2026-05-01T11:49:33.715Z</time></trkpt><trkpt lat="39.4163629" lon="8.5184483"><ele>149.0</ele><time>2026-05-01T11:49:34.714Z</time></trkpt><trkpt lat="39.4164819" lon="8.5183576"><ele>145.5</ele><time>2026-05-01T11:49:35.715Z</time></trkpt><trkpt lat="39.4165716" lon="8.5182735"><ele>142.0</ele><time>2026-05-01T11:49:36.715Z</time></trkpt><trkpt lat="39.4166348" lon="8.5181865"><ele>142.0</ele><time>2026-05-01T11:49:37.713Z</time></trkpt><trkpt lat="39.4166603" lon="8.5180971"><ele>142.0</ele><time>2026-05-01T11:49:38.714Z</time></trkpt><trkpt lat="39.4166538" lon="8.5179861"><ele>142.0</ele><time>2026-05-01T11:49:39.715Z</time></trkpt><trkpt lat="39.4166253" lon="8.5178493"><ele>142.0</ele><time>2026-05-01T11:49:40.714Z</time></trkpt><trkpt lat="39.4165649" lon="8.5176735"><ele>142.0</ele><time>2026-05-01T11:49:41.713Z</time></trkpt><trkpt lat="39.416496" lon="8.5175004"><ele>142.25</ele><time>2026-05-01T11:49:42.715Z</time></trkpt><trkpt lat="39.4164206" lon="8.5173425"><ele>142.5</ele><time>2026-05-01T11:49:43.713Z</time></trkpt><trkpt lat="39.4163573" lon="8.517202"><ele>142.75</ele><time>2026-05-01T11:49:44.713Z</time></trkpt><trkpt lat="39.4163177" lon="8.5170668"><ele>143.0</ele><time>2026-05-01T11:49:45.714Z</time></trkpt><trkpt lat="39.4162871" lon="8.5168864"><ele>152.25</ele><time>2026-05-01T11:49:46.714Z</time></trkpt><trkpt lat="39.4162757" lon="8.5167148"><ele>161.5</ele><time>2026-05-01T11:49:47.715Z</time></trkpt><trkpt lat="39.4162759" lon="8.516544"><ele>170.75</ele><time>2026-05-01T11:49:48.715Z</time></trkpt><trkpt lat="39.4162783" lon="8.5164117"><ele>180.0</ele><time>2026-05-01T11:49:49.713Z</time></trkpt><trkpt lat="39.4162951" lon="8.5162938"><ele>175.0</ele><time>2026-05-01T11:49:50.713Z</time></trkpt><trkpt lat="39.4163491" lon="8.5161651"><ele>170.0</ele><time>2026-05-01T11:49:51.714Z</time></trkpt><trkpt lat="39.4163937" lon="8.5160217"><ele>165.0</ele><time>2026-05-01T11:49:52.713Z</time></trkpt><trkpt lat="39.4164329" lon="8.5159179"><ele>160.0</ele><time>2026-05-01T11:49:53.714Z</time></trkpt><trkpt lat="39.4164905" lon="8.5158431"><ele>155.0</ele><time>2026-05-01T11:49:54.714Z</time></trkpt><trkpt lat="39.4166077" lon="8.515775"><ele>155.0</ele><time>2026-05-01T11:49:55.714Z</time></trkpt><trkpt lat="39.4167237" lon="8.515704"><ele>155.0</ele><time>2026-05-01T11:49:56.714Z</time></trkpt><trkpt lat="39.4168328" lon="8.5156367"><ele>155.0</ele><time>2026-05-01T11:49:57.714Z</time></trkpt><trkpt lat="39.4169519" lon="8.515603"><ele>155.0</ele><time>2026-05-01T11:49:58.713Z</time></trkpt><trkpt lat="39.4170427" lon="8.5155893"><ele>155.0</ele><time>2026-05-01T11:49:59.713Z</time></trkpt><trkpt lat="39.4171118" lon="8.5155542"><ele>155.0</ele><time>2026-05-01T11:50:00.714Z</time></trkpt><trkpt lat="39.4171695" lon="8.515447"><ele>155.0</ele><time>2026-05-01T11:50:02.714Z</time></trkpt><trkpt lat="39.4171641" lon="8.5153502"><ele>155.0</ele><time>2026-05-01T11:50:03.715Z</time></trkpt><trkpt lat="39.4171515" lon="8.5152302"><ele>155.0</ele><time>2026-05-01T11:50:04.714Z</time></trkpt><trkpt lat="39.4171625" lon="8.5151344"><ele>155.0</ele><time>2026-05-01T11:50:05.714Z</time></trkpt><trkpt lat="39.4171937" lon="8.51506"><ele>153.0</ele><time>2026-05-01T11:50:06.714Z</time></trkpt><trkpt lat="39.4172555" lon="8.5149837"><ele>151.0</ele><time>2026-05-01T11:50:07.713Z</time></trkpt><trkpt lat="39.41735" lon="8.5149221"><ele>149.0</ele><time>2026-05-01T11:50:08.713Z</time></trkpt><trkpt lat="39.4174276" lon="8.5148497"><ele>147.0</ele><time>2026-05-01T11:50:09.715Z</time></trkpt><trkpt lat="39.4174756" lon="8.5147705"><ele>145.0</ele><time>2026-05-01T11:50:10.714Z</time></trkpt><trkpt lat="39.4174977" lon="8.5146825"><ele>143.0</ele><time>2026-05-01T11:50:11.715Z</time></trkpt><trkpt lat="39.417488" lon="8.5145857"><ele>143.0</ele><time>2026-05-01T11:50:12.714Z</time></trkpt><trkpt lat="39.4174664" lon="8.5144673"><ele>143.0</ele><time>2026-05-01T11:50:13.714Z</time></trkpt><trkpt lat="39.4174589" lon="8.5143349"><ele>143.0</ele><time>2026-05-01T11:50:14.714Z</time></trkpt><trkpt lat="39.4174434" lon="8.5142206"><ele>143.0</ele><time>2026-05-01T11:50:15.713Z</time></trkpt><trkpt lat="39.417404" lon="8.5141474"><ele>143.0</ele><time>2026-05-01T11:50:16.714Z</time></trkpt><trkpt lat="39.4173278" lon="8.5140666"><ele>143.0</ele><time>2026-05-01T11:50:17.715Z</time></trkpt><trkpt lat="39.4172344" lon="8.5139867"><ele>143.0</ele><time>2026-05-01T11:50:18.714Z</time></trkpt><trkpt lat="39.417149" lon="8.5138788"><ele>143.0</ele><time>2026-05-01T11:50:19.713Z</time></trkpt><trkpt lat="39.4170776" lon="8.5137526"><ele>143.0</ele><time>2026-05-01T11:50:20.715Z</time></trkpt><trkpt lat="39.4170219" lon="8.5136298"><ele>144.5</ele><time>2026-05-01T11:50:21.714Z</time></trkpt><trkpt lat="39.4169571" lon="8.5135188"><ele>146.0</ele><time>2026-05-01T11:50:22.713Z</time></trkpt><trkpt lat="39.4168606" lon="8.5134407"><ele>147.5</ele><time>2026-05-01T11:50:23.714Z</time></trkpt><trkpt lat="39.4167512" lon="8.5133666"><ele>149.0</ele><time>2026-05-01T11:50:24.715Z</time></trkpt><trkpt lat="39.4166391" lon="8.5132919"><ele>149.0</ele><time>2026-05-01T11:50:25.715Z</time></trkpt><trkpt lat="39.4165066" lon="8.5132482"><ele>149.0</ele><time>2026-05-01T11:50:26.714Z</time></trkpt><trkpt lat="39.4163805" lon="8.5132089"><ele>149.0</ele><time>2026-05-01T11:50:27.714Z</time></trkpt><trkpt lat="39.4162901" lon="8.513167"><ele>149.0</ele><time>2026-05-01T11:50:28.713Z</time></trkpt><trkpt lat="39.4162115" lon="8.513109"><ele>151.83333333333331</ele><time>2026-05-01T11:50:29.714Z</time></trkpt><trkpt lat="39.4161676" lon="8.5130451"><ele>154.66666666666666</ele><time>2026-05-01T11:50:30.714Z</time></trkpt><trkpt lat="39.4161407" lon="8.5129701"><ele>157.5</ele><time>2026-05-01T11:50:31.715Z</time></trkpt><trkpt lat="39.4161365" lon="8.5128547"><ele>160.33333333333334</ele><time>2026-05-01T11:50:32.715Z</time></trkpt><trkpt lat="39.4161392" lon="8.5127372"><ele>163.16666666666669</ele><time>2026-05-01T11:50:33.715Z</time></trkpt><trkpt lat="39.4161578" lon="8.512592"><ele>166.0</ele><time>2026-05-01T11:50:34.713Z</time></trkpt><trkpt lat="39.4161513" lon="8.5124865"><ele>166.0</ele><time>2026-05-01T11:50:35.714Z</time></trkpt><trkpt lat="39.4161126" lon="8.5123667"><ele>166.0</ele><time>2026-05-01T11:50:36.715Z</time></trkpt><trkpt lat="39.4160777" lon="8.5122483"><ele>166.0</ele><time>2026-05-01T11:50:37.713Z</time></trkpt><trkpt lat="39.4160717" lon="8.5121385"><ele>166.0</ele><time>2026-05-01T11:50:38.713Z</time></trkpt><trkpt lat="39.4160768" lon="8.5119893"><ele>166.0</ele><time>2026-05-01T11:50:39.713Z</time></trkpt><trkpt lat="39.4161039" lon="8.5118159"><ele>167.0</ele><time>2026-05-01T11:50:40.714Z</time></trkpt><trkpt lat="39.4161189" lon="8.511637"><ele>168.0</ele><time>2026-05-01T11:50:41.713Z</time></trkpt><trkpt lat="39.4161213" lon="8.5114611"><ele>169.0</ele><time>2026-05-01T11:50:42.715Z</time></trkpt><trkpt lat="39.4161266" lon="8.5113256"><ele>170.0</ele><time>2026-05-01T11:50:43.715Z</time></trkpt><trkpt lat="39.4161363" lon="8.51122"><ele>170.2</ele><time>2026-05-01T11:50:44.715Z</time></trkpt><trkpt lat="39.4162044" lon="8.5111206"><ele>170.4</ele><time>2026-05-01T11:50:46.714Z</time></trkpt><trkpt lat="39.4163047" lon="8.5111634"><ele>170.60000000000002</ele><time>2026-05-01T11:50:48.714Z</time></trkpt><trkpt lat="39.4163659" lon="8.5112392"><ele>170.8</ele><time>2026-05-01T11:50:49.713Z</time></trkpt><trkpt lat="39.4164077" lon="8.5113394"><ele>171.0</ele><time>2026-05-01T11:50:50.714Z</time></trkpt><trkpt lat="39.4164349" lon="8.5114539"><ele>167.8</ele><time>2026-05-01T11:50:51.713Z</time></trkpt><trkpt lat="39.4164629" lon="8.5115634"><ele>164.60000000000002</ele><time>2026-05-01T11:50:52.714Z</time></trkpt><trkpt lat="39.4165097" lon="8.5116669"><ele>161.4</ele><time>2026-05-01T11:50:53.714Z</time></trkpt><trkpt lat="39.4165813" lon="8.5117546"><ele>158.2</ele><time>2026-05-01T11:50:54.715Z</time></trkpt><trkpt lat="39.4166746" lon="8.511838"><ele>155.0</ele><time>2026-05-01T11:50:55.713Z</time></trkpt><trkpt lat="39.4167559" lon="8.5118948"><ele>155.0</ele><time>2026-05-01T11:50:56.714Z</time></trkpt><trkpt lat="39.4168249" lon="8.5119143"><ele>155.0</ele><time>2026-05-01T11:50:57.713Z</time></trkpt><trkpt lat="39.4169135" lon="8.5118947"><ele>155.0</ele><time>2026-05-01T11:50:58.714Z</time></trkpt><trkpt lat="39.417019" lon="8.5118531"><ele>155.0</ele><time>2026-05-01T11:50:59.713Z</time></trkpt><trkpt lat="39.4171288" lon="8.5118431"><ele>155.0</ele><time>2026-05-01T11:51:00.713Z</time></trkpt><trkpt lat="39.4172616" lon="8.5118443"><ele>156.8</ele><time>2026-05-01T11:51:01.714Z</time></trkpt><trkpt lat="39.4173983" lon="8.5118329"><ele>158.6</ele><time>2026-05-01T11:51:02.714Z</time></trkpt><trkpt lat="39.4175034" lon="8.5118301"><ele>160.39999999999998</ele><time>2026-05-01T11:51:03.713Z</time></trkpt><trkpt lat="39.417575" lon="8.5118527"><ele>162.2</ele><time>2026-05-01T11:51:04.713Z</time></trkpt><trkpt lat="39.4176441" lon="8.51192"><ele>164.0</ele><time>2026-05-01T11:51:05.714Z</time></trkpt><trkpt lat="39.417706" lon="8.5120339"><ele>158.79999999999998</ele><time>2026-05-01T11:51:06.714Z</time></trkpt><trkpt lat="39.4177622" lon="8.5121868"><ele>153.6</ele><time>2026-05-01T11:51:07.715Z</time></trkpt><trkpt lat="39.4177977" lon="8.512316"><ele>148.4</ele><time>2026-05-01T11:51:08.715Z</time></trkpt><trkpt lat="39.4178388" lon="8.5124199"><ele>143.2</ele><time>2026-05-01T11:51:09.715Z</time></trkpt><trkpt lat="39.4178926" lon="8.5124932"><ele>138.0</ele><time>2026-05-01T11:51:10.714Z</time></trkpt><trkpt lat="39.4179645" lon="8.5125422"><ele>140.6</ele><time>2026-05-01T11:51:11.713Z</time></trkpt><trkpt lat="39.4180522" lon="8.5125516"><ele>143.20000000000002</ele><time>2026-05-01T11:51:12.714Z</time></trkpt><trkpt lat="39.4181611" lon="8.5125357"><ele>145.8</ele><time>2026-05-01T11:51:13.714Z</time></trkpt><trkpt lat="39.4182813" lon="8.5125167"><ele>148.4</ele><time>2026-05-01T11:51:14.713Z</time></trkpt><trkpt lat="39.4184098" lon="8.5125347"><ele>151.0</ele><time>2026-05-01T11:51:15.714Z</time></trkpt><trkpt lat="39.4185327" lon="8.5125528"><ele>151.0</ele><time>2026-05-01T11:51:16.714Z</time></trkpt><trkpt lat="39.4186522" lon="8.5125394"><ele>151.0</ele><time>2026-05-01T11:51:17.715Z</time></trkpt><trkpt lat="39.4187567" lon="8.5125099"><ele>151.0</ele><time>2026-05-01T11:51:18.714Z</time></trkpt><trkpt lat="39.4188462" lon="8.5124678"><ele>151.0</ele><time>2026-05-01T11:51:19.714Z</time></trkpt><trkpt lat="39.4189422" lon="8.5123982"><ele>151.0</ele><time>2026-05-01T11:51:20.715Z</time></trkpt><trkpt lat="39.4190254" lon="8.5122878"><ele>152.0</ele><time>2026-05-01T11:51:21.714Z</time></trkpt><trkpt lat="39.4191311" lon="8.5121829"><ele>153.0</ele><time>2026-05-01T11:51:22.714Z</time></trkpt><trkpt lat="39.4192288" lon="8.512077"><ele>154.0</ele><time>2026-05-01T11:51:23.714Z</time></trkpt><trkpt lat="39.4193038" lon="8.51198"><ele>155.0</ele><time>2026-05-01T11:51:24.713Z</time></trkpt><trkpt lat="39.4193556" lon="8.5118824"><ele>155.0</ele><time>2026-05-01T11:51:25.714Z</time></trkpt><trkpt lat="39.419389" lon="8.5117442"><ele>155.0</ele><time>2026-05-01T11:51:26.713Z</time></trkpt><trkpt lat="39.4194183" lon="8.511654"><ele>155.0</ele><time>2026-05-01T11:51:27.713Z</time></trkpt><trkpt lat="39.4194655" lon="8.511592"><ele>155.0</ele><time>2026-05-01T11:51:28.713Z</time></trkpt><trkpt lat="39.4196275" lon="8.5115474"><ele>155.0</ele><time>2026-05-01T11:51:30.715Z</time></trkpt><trkpt lat="39.4197071" lon="8.5115378"><ele>152.0</ele><time>2026-05-01T11:51:31.714Z</time></trkpt><trkpt lat="39.4197901" lon="8.5114857"><ele>149.0</ele><time>2026-05-01T11:51:32.714Z</time></trkpt><trkpt lat="39.4198722" lon="8.5114125"><ele>146.0</ele><time>2026-05-01T11:51:33.714Z</time></trkpt><trkpt lat="39.4199407" lon="8.5113688"><ele>143.0</ele><time>2026-05-01T11:51:34.714Z</time></trkpt><trkpt lat="39.4200581" lon="8.5113999"><ele>140.0</ele><time>2026-05-01T11:51:36.713Z</time></trkpt><trkpt lat="39.4200957" lon="8.5114721"><ele>140.0</ele><time>2026-05-01T11:51:37.713Z</time></trkpt><trkpt lat="39.4201234" lon="8.5115762"><ele>140.0</ele><time>2026-05-01T11:51:38.714Z</time></trkpt><trkpt lat="39.4202289" lon="8.5116835"><ele>140.0</ele><time>2026-05-01T11:51:40.714Z</time></trkpt><trkpt lat="39.4203127" lon="8.5116854"><ele>140.0</ele><time>2026-05-01T11:51:41.713Z</time></trkpt><trkpt lat="39.4204195" lon="8.5116726"><ele>140.0</ele><time>2026-05-01T11:51:42.713Z</time></trkpt><trkpt lat="39.4205197" lon="8.5116565"><ele>139.0</ele><time>2026-05-01T11:51:43.713Z</time></trkpt><trkpt lat="39.4205993" lon="8.5116066"><ele>138.0</ele><time>2026-05-01T11:51:44.714Z</time></trkpt><trkpt lat="39.4206754" lon="8.5115341"><ele>137.0</ele><time>2026-05-01T11:51:45.713Z</time></trkpt><trkpt lat="39.4207566" lon="8.5114111"><ele>136.0</ele><time>2026-05-01T11:51:46.713Z</time></trkpt><trkpt lat="39.4208397" lon="8.5113127"><ele>135.0</ele><time>2026-05-01T11:51:47.714Z</time></trkpt><trkpt lat="39.4209204" lon="8.5112129"><ele>137.0</ele><time>2026-05-01T11:51:48.714Z</time></trkpt><trkpt lat="39.4210123" lon="8.5111605"><ele>139.0</ele><time>2026-05-01T11:51:49.714Z</time></trkpt><trkpt lat="39.4211181" lon="8.5111202"><ele>141.0</ele><time>2026-05-01T11:51:50.715Z</time></trkpt><trkpt lat="39.4211915" lon="8.5110713"><ele>143.0</ele><time>2026-05-01T11:51:51.714Z</time></trkpt><trkpt lat="39.4212777" lon="8.5109824"><ele>145.0</ele><time>2026-05-01T11:51:52.714Z</time></trkpt><trkpt lat="39.4213656" lon="8.5108869"><ele>145.0</ele><time>2026-05-01T11:51:53.714Z</time></trkpt><trkpt lat="39.4214247" lon="8.510826"><ele>145.0</ele><time>2026-05-01T11:51:54.713Z</time></trkpt><trkpt lat="39.4214921" lon="8.5108249"><ele>145.0</ele><time>2026-05-01T11:51:55.713Z</time></trkpt><trkpt lat="39.421569" lon="8.5109082"><ele>145.0</ele><time>2026-05-01T11:51:56.714Z</time></trkpt><trkpt lat="39.4216772" lon="8.510941"><ele>145.0</ele><time>2026-05-01T11:51:57.714Z</time></trkpt><trkpt lat="39.4217865" lon="8.5109716"><ele>145.0</ele><time>2026-05-01T11:51:58.713Z</time></trkpt><trkpt lat="39.4218686" lon="8.5109793"><ele>145.0</ele><time>2026-05-01T11:51:59.715Z</time></trkpt><trkpt lat="39.4219362" lon="8.5109575"><ele>145.0</ele><time>2026-05-01T11:52:00.714Z</time></trkpt><trkpt lat="39.421987" lon="8.5109023"><ele>145.0</ele><time>2026-05-01T11:52:01.714Z</time></trkpt><trkpt lat="39.4220216" lon="8.5108209"><ele>145.0</ele><time>2026-05-01T11:52:02.715Z</time></trkpt><trkpt lat="39.4220294" lon="8.5106982"><ele>145.0</ele><time>2026-05-01T11:52:03.713Z</time></trkpt><trkpt lat="39.4220067" lon="8.5105796"><ele>145.0</ele><time>2026-05-01T11:52:04.713Z</time></trkpt><trkpt lat="39.4219697" lon="8.5104662"><ele>145.0</ele><time>2026-05-01T11:52:05.713Z</time></trkpt><trkpt lat="39.4219554" lon="8.5103616"><ele>145.0</ele><time>2026-05-01T11:52:06.714Z</time></trkpt><trkpt lat="39.4219747" lon="8.5102599"><ele>145.0</ele><time>2026-05-01T11:52:07.714Z</time></trkpt><trkpt lat="39.4220015" lon="8.5101834"><ele>145.0</ele><time>2026-05-01T11:52:08.713Z</time></trkpt><trkpt lat="39.4220573" lon="8.5101127"><ele>145.0</ele><time>2026-05-01T11:52:09.713Z</time></trkpt><trkpt lat="39.4221425" lon="8.5100621"><ele>145.0</ele><time>2026-05-01T11:52:10.713Z</time></trkpt><trkpt lat="39.4222105" lon="8.5100146"><ele>145.0</ele><time>2026-05-01T11:52:11.712Z</time></trkpt><trkpt lat="39.4222486" lon="8.509942"><ele>145.0</ele><time>2026-05-01T11:52:12.714Z</time></trkpt><trkpt lat="39.4222828" lon="8.509828"><ele>145.0</ele><time>2026-05-01T11:52:13.714Z</time></trkpt><trkpt lat="39.4223086" lon="8.5096775"><ele>145.0</ele><time>2026-05-01T11:52:14.712Z</time></trkpt><trkpt lat="39.4223602" lon="8.5095262"><ele>145.0</ele><time>2026-05-01T11:52:15.712Z</time></trkpt><trkpt lat="39.4224147" lon="8.5093588"><ele>145.0</ele><time>2026-05-01T11:52:16.713Z</time></trkpt><trkpt lat="39.4224467" lon="8.5091848"><ele>145.0</ele><time>2026-05-01T11:52:17.712Z</time></trkpt><trkpt lat="39.4224732" lon="8.5090089"><ele>145.0</ele><time>2026-05-01T11:52:18.712Z</time></trkpt><trkpt lat="39.4225093" lon="8.5088751"><ele>145.0</ele><time>2026-05-01T11:52:19.712Z</time></trkpt><trkpt lat="39.4225452" lon="8.5087532"><ele>145.0</ele><time>2026-05-01T11:52:20.712Z</time></trkpt><trkpt lat="39.4226277" lon="8.5086562"><ele>145.0</ele><time>2026-05-01T11:52:21.713Z</time></trkpt><trkpt lat="39.4227344" lon="8.5085652"><ele>145.0</ele><time>2026-05-01T11:52:22.712Z</time></trkpt><trkpt lat="39.4228558" lon="8.5084766"><ele>143.5</ele><time>2026-05-01T11:52:23.712Z</time></trkpt><trkpt lat="39.4229864" lon="8.5084091"><ele>142.0</ele><time>2026-05-01T11:52:24.712Z</time></trkpt><trkpt lat="39.4231067" lon="8.5083666"><ele>140.5</ele><time>2026-05-01T11:52:25.713Z</time></trkpt><trkpt lat="39.4232199" lon="8.5083435"><ele>139.0</ele><time>2026-05-01T11:52:26.714Z</time></trkpt><trkpt lat="39.4233101" lon="8.5082909"><ele>139.0</ele><time>2026-05-01T11:52:27.713Z</time></trkpt><trkpt lat="39.4233978" lon="8.5082344"><ele>139.0</ele><time>2026-05-01T11:52:28.712Z</time></trkpt><trkpt lat="39.4234593" lon="8.5081416"><ele>139.0</ele><time>2026-05-01T11:52:29.714Z</time></trkpt><trkpt lat="39.4235071" lon="8.5080448"><ele>139.0</ele><time>2026-05-01T11:52:30.713Z</time></trkpt><trkpt lat="39.4235284" lon="8.5079246"><ele>139.0</ele><time>2026-05-01T11:52:31.713Z</time></trkpt><trkpt lat="39.4235223" lon="8.5077702"><ele>141.4</ele><time>2026-05-01T11:52:32.712Z</time></trkpt><trkpt lat="39.423534" lon="8.5076097"><ele>143.8</ele><time>2026-05-01T11:52:33.712Z</time></trkpt><trkpt lat="39.423551" lon="8.5074899"><ele>146.2</ele><time>2026-05-01T11:52:34.714Z</time></trkpt><trkpt lat="39.4235494" lon="8.5073737"><ele>148.6</ele><time>2026-05-01T11:52:35.712Z</time></trkpt><trkpt lat="39.4235235" lon="8.507244"><ele>151.0</ele><time>2026-05-01T11:52:36.713Z</time></trkpt><trkpt lat="39.4235076" lon="8.5071241"><ele>151.4</ele><time>2026-05-01T11:52:37.713Z</time></trkpt><trkpt lat="39.4235361" lon="8.5070083"><ele>151.8</ele><time>2026-05-01T11:52:38.713Z</time></trkpt><trkpt lat="39.4235687" lon="8.5068716"><ele>152.20000000000002</ele><time>2026-05-01T11:52:39.712Z</time></trkpt><trkpt lat="39.4235738" lon="8.5067326"><ele>152.6</ele><time>2026-05-01T11:52:40.712Z</time></trkpt><trkpt lat="39.4235638" lon="8.5065867"><ele>153.0</ele><time>2026-05-01T11:52:41.714Z</time></trkpt><trkpt lat="39.4235481" lon="8.5064418"><ele>153.0</ele><time>2026-05-01T11:52:42.712Z</time></trkpt><trkpt lat="39.423556" lon="8.5062952"><ele>153.0</ele><time>2026-05-01T11:52:43.714Z</time></trkpt><trkpt lat="39.4235831" lon="8.5061267"><ele>153.0</ele><time>2026-05-01T11:52:44.713Z</time></trkpt><trkpt lat="39.4236168" lon="8.5059871"><ele>153.0</ele><time>2026-05-01T11:52:45.713Z</time></trkpt><trkpt lat="39.4236646" lon="8.5058649"><ele>155.0</ele><time>2026-05-01T11:52:46.712Z</time></trkpt><trkpt lat="39.4237172" lon="8.5057782"><ele>157.0</ele><time>2026-05-01T11:52:47.714Z</time></trkpt><trkpt lat="39.4237936" lon="8.5057037"><ele>159.0</ele><time>2026-05-01T11:52:48.713Z</time></trkpt><trkpt lat="39.4238863" lon="8.505618"><ele>161.0</ele><time>2026-05-01T11:52:49.713Z</time></trkpt><trkpt lat="39.423978" lon="8.5055189"><ele>163.0</ele><time>2026-05-01T11:52:50.713Z</time></trkpt><trkpt lat="39.4240764" lon="8.5054426"><ele>161.5</ele><time>2026-05-01T11:52:51.713Z</time></trkpt><trkpt lat="39.4241796" lon="8.5053811"><ele>160.0</ele><time>2026-05-01T11:52:52.714Z</time></trkpt><trkpt lat="39.4243045" lon="8.5053349"><ele>158.5</ele><time>2026-05-01T11:52:53.715Z</time></trkpt><trkpt lat="39.4244228" lon="8.505291"><ele>157.0</ele><time>2026-05-01T11:52:54.713Z</time></trkpt><trkpt lat="39.4245235" lon="8.5052402"><ele>157.0</ele><time>2026-05-01T11:52:55.714Z</time></trkpt><trkpt lat="39.4246315" lon="8.5051509"><ele>157.0</ele><time>2026-05-01T11:52:56.713Z</time></trkpt><trkpt lat="39.4247403" lon="8.5050545"><ele>157.0</ele><time>2026-05-01T11:52:57.712Z</time></trkpt><trkpt lat="39.4248347" lon="8.5049835"><ele>157.0</ele><time>2026-05-01T11:52:58.713Z</time></trkpt><trkpt lat="39.4249299" lon="8.504881"><ele>153.33333333333334</ele><time>2026-05-01T11:52:59.713Z</time></trkpt><trkpt lat="39.4250073" lon="8.5047701"><ele>149.66666666666669</ele><time>2026-05-01T11:53:00.713Z</time></trkpt><trkpt lat="39.4250682" lon="8.504675"><ele>146.0</ele><time>2026-05-01T11:53:01.713Z</time></trkpt><trkpt lat="39.4251081" lon="8.5045802"><ele>142.33333333333334</ele><time>2026-05-01T11:53:02.713Z</time></trkpt><trkpt lat="39.4251278" lon="8.5044909"><ele>138.66666666666666</ele><time>2026-05-01T11:53:03.713Z</time></trkpt><trkpt lat="39.4251318" lon="8.5043891"><ele>135.0</ele><time>2026-05-01T11:53:04.713Z</time></trkpt><trkpt lat="39.4251102" lon="8.5042843"><ele>135.0</ele><time>2026-05-01T11:53:05.714Z</time></trkpt><trkpt lat="39.4250628" lon="8.5041849"><ele>135.0</ele><time>2026-05-01T11:53:06.712Z</time></trkpt><trkpt lat="39.4249964" lon="8.5041088"><ele>135.0</ele><time>2026-05-01T11:53:07.713Z</time></trkpt><trkpt lat="39.4249115" lon="8.5040431"><ele>135.0</ele><time>2026-05-01T11:53:08.713Z</time></trkpt><trkpt lat="39.4248595" lon="8.5039719"><ele>135.0</ele><time>2026-05-01T11:53:09.712Z</time></trkpt><trkpt lat="39.4248239" lon="8.5038703"><ele>135.0</ele><time>2026-05-01T11:53:10.712Z</time></trkpt><trkpt lat="39.4248201" lon="8.5037506"><ele>133.25</ele><time>2026-05-01T11:53:11.713Z</time></trkpt><trkpt lat="39.4248253" lon="8.5036154"><ele>131.5</ele><time>2026-05-01T11:53:12.713Z</time></trkpt><trkpt lat="39.4248337" lon="8.5034643"><ele>129.75</ele><time>2026-05-01T11:53:13.713Z</time></trkpt><trkpt lat="39.4248647" lon="8.5032788"><ele>128.0</ele><time>2026-05-01T11:53:14.714Z</time></trkpt><trkpt lat="39.4249063" lon="8.5030696"><ele>128.25</ele><time>2026-05-01T11:53:15.713Z</time></trkpt><trkpt lat="39.4249493" lon="8.5028583"><ele>128.5</ele><time>2026-05-01T11:53:16.714Z</time></trkpt><trkpt lat="39.4249802" lon="8.5026883"><ele>128.75</ele><time>2026-05-01T11:53:17.713Z</time></trkpt><trkpt lat="39.4250001" lon="8.5025437"><ele>129.0</ele><time>2026-05-01T11:53:18.713Z</time></trkpt><trkpt lat="39.4250016" lon="8.5024197"><ele>129.0</ele><time>2026-05-01T11:53:19.713Z</time></trkpt><trkpt lat="39.4249847" lon="8.5023199"><ele>129.0</ele><time>2026-05-01T11:53:20.714Z</time></trkpt><trkpt lat="39.4249498" lon="8.5022313"><ele>129.0</ele><time>2026-05-01T11:53:21.713Z</time></trkpt><trkpt lat="39.4248922" lon="8.5021622"><ele>129.0</ele><time>2026-05-01T11:53:22.713Z</time></trkpt><trkpt lat="39.4248031" lon="8.5021014"><ele>129.0</ele><time>2026-05-01T11:53:23.714Z</time></trkpt><trkpt lat="39.4246986" lon="8.5020251"><ele>130.0</ele><time>2026-05-01T11:53:24.714Z</time></trkpt><trkpt lat="39.4245688" lon="8.5019424"><ele>131.0</ele><time>2026-05-01T11:53:25.713Z</time></trkpt><trkpt lat="39.4244333" lon="8.5018425"><ele>132.0</ele><time>2026-05-01T11:53:26.713Z</time></trkpt><trkpt lat="39.42433" lon="8.5017467"><ele>133.0</ele><time>2026-05-01T11:53:27.712Z</time></trkpt><trkpt lat="39.4242493" lon="8.5016549"><ele>133.0</ele><time>2026-05-01T11:53:28.714Z</time></trkpt><trkpt lat="39.4241719" lon="8.5015926"><ele>133.0</ele><time>2026-05-01T11:53:29.713Z</time></trkpt><trkpt lat="39.4241031" lon="8.5015676"><ele>133.0</ele><time>2026-05-01T11:53:30.713Z</time></trkpt><trkpt lat="39.4240211" lon="8.5015803"><ele>133.0</ele><time>2026-05-01T11:53:31.712Z</time></trkpt><trkpt lat="39.4239261" lon="8.5016235"><ele>133.0</ele><time>2026-05-01T11:53:32.713Z</time></trkpt><trkpt lat="39.4238151" lon="8.5016985"><ele>132.4</ele><time>2026-05-01T11:53:33.714Z</time></trkpt><trkpt lat="39.4237092" lon="8.5017688"><ele>131.8</ele><time>2026-05-01T11:53:34.712Z</time></trkpt><trkpt lat="39.4236089" lon="8.5018075"><ele>131.2</ele><time>2026-05-01T11:53:35.712Z</time></trkpt><trkpt lat="39.4235239" lon="8.5018158"><ele>130.6</ele><time>2026-05-01T11:53:36.713Z</time></trkpt><trkpt lat="39.4234316" lon="8.5017967"><ele>130.0</ele><time>2026-05-01T11:53:37.713Z</time></trkpt><trkpt lat="39.4233359" lon="8.5017439"><ele>130.0</ele><time>2026-05-01T11:53:38.713Z</time></trkpt><trkpt lat="39.4232372" lon="8.5016844"><ele>130.0</ele><time>2026-05-01T11:53:39.713Z</time></trkpt><trkpt lat="39.423149" lon="8.5016552"><ele>130.0</ele><time>2026-05-01T11:53:40.712Z</time></trkpt><trkpt lat="39.4230545" lon="8.5016465"><ele>130.0</ele><time>2026-05-01T11:53:41.712Z</time></trkpt><trkpt lat="39.4229497" lon="8.501661"><ele>130.0</ele><time>2026-05-01T11:53:42.714Z</time></trkpt><trkpt lat="39.4228369" lon="8.5016905"><ele>129.5</ele><time>2026-05-01T11:53:43.712Z</time></trkpt><trkpt lat="39.4227096" lon="8.5017242"><ele>129.0</ele><time>2026-05-01T11:53:44.713Z</time></trkpt><trkpt lat="39.4225661" lon="8.5017516"><ele>128.5</ele><time>2026-05-01T11:53:45.714Z</time></trkpt><trkpt lat="39.4224642" lon="8.5017795"><ele>128.0</ele><time>2026-05-01T11:53:46.713Z</time></trkpt><trkpt lat="39.4223461" lon="8.50184"><ele>128.0</ele><time>2026-05-01T11:53:47.713Z</time></trkpt><trkpt lat="39.4222079" lon="8.5019359"><ele>128.0</ele><time>2026-05-01T11:53:48.712Z</time></trkpt><trkpt lat="39.4220783" lon="8.5020124"><ele>128.0</ele><time>2026-05-01T11:53:49.712Z</time></trkpt><trkpt lat="39.4219753" lon="8.5020555"><ele>128.0</ele><time>2026-05-01T11:53:50.714Z</time></trkpt><trkpt lat="39.4218902" lon="8.5020699"><ele>127.80000000000001</ele><time>2026-05-01T11:53:51.713Z</time></trkpt><trkpt lat="39.4218215" lon="8.5020622"><ele>127.60000000000001</ele><time>2026-05-01T11:53:52.713Z</time></trkpt><trkpt lat="39.4217329" lon="8.502018"><ele>127.39999999999999</ele><time>2026-05-01T11:53:53.714Z</time></trkpt><trkpt lat="39.4216266" lon="8.5019564"><ele>127.19999999999999</ele><time>2026-05-01T11:53:54.713Z</time></trkpt><trkpt lat="39.4215402" lon="8.5019047"><ele>127.0</ele><time>2026-05-01T11:53:55.712Z</time></trkpt><trkpt lat="39.4214651" lon="8.5018487"><ele>127.0</ele><time>2026-05-01T11:53:56.713Z</time></trkpt><trkpt lat="39.42138" lon="8.5017838"><ele>127.0</ele><time>2026-05-01T11:53:58.713Z</time></trkpt><trkpt lat="39.4213158" lon="8.5017498"><ele>127.0</ele><time>2026-05-01T11:54:02.713Z</time></trkpt><trkpt lat="39.4212532" lon="8.5017243"><ele>127.0</ele><time>2026-05-01T11:54:16.714Z</time></trkpt><trkpt lat="39.4212516" lon="8.501629"><ele>127.0</ele><time>2026-05-01T12:37:22.702Z</time></trkpt><trkpt lat="39.4213078" lon="8.5015857"><ele>127.0</ele><time>2026-05-01T12:37:25.703Z</time></trkpt><trkpt lat="39.4213683" lon="8.501544"><ele>127.0</ele><time>2026-05-01T12:37:29.701Z</time></trkpt><trkpt lat="39.4214256" lon="8.5015037"><ele>127.00000000000001</ele><time>2026-05-01T12:41:25.702Z</time></trkpt><trkpt lat="39.4215247" lon="8.5014474"><ele>127.0</ele><time>2026-05-01T12:41:27.702Z</time></trkpt><trkpt lat="39.4215808" lon="8.5013931"><ele>127.0</ele><time>2026-05-01T12:41:28.702Z</time></trkpt><trkpt lat="39.4216303" lon="8.5013308"><ele>127.0</ele><time>2026-05-01T12:41:29.701Z</time></trkpt><trkpt lat="39.421675" lon="8.5012438"><ele>127.00000000000001</ele><time>2026-05-01T12:41:30.701Z</time></trkpt><trkpt lat="39.4217418" lon="8.5011376"><ele>127.0</ele><time>2026-05-01T12:41:31.703Z</time></trkpt><trkpt lat="39.4217996" lon="8.5010601"><ele>128.0</ele><time>2026-05-01T12:41:32.702Z</time></trkpt><trkpt lat="39.4218542" lon="8.500989"><ele>129.0</ele><time>2026-05-01T12:41:33.701Z</time></trkpt><trkpt lat="39.4218952" lon="8.5009177"><ele>130.0</ele><time>2026-05-01T12:41:34.702Z</time></trkpt><trkpt lat="39.4219175" lon="8.5008182"><ele>131.0</ele><time>2026-05-01T12:41:35.703Z</time></trkpt><trkpt lat="39.4219279" lon="8.5007004"><ele>132.0</ele><time>2026-05-01T12:41:36.703Z</time></trkpt><trkpt lat="39.4219384" lon="8.500572"><ele>133.0</ele><time>2026-05-01T12:41:37.703Z</time></trkpt><trkpt lat="39.4219556" lon="8.5004572"><ele>131.16666666666669</ele><time>2026-05-01T12:41:38.703Z</time></trkpt><trkpt lat="39.4219708" lon="8.5003633"><ele>129.33333333333334</ele><time>2026-05-01T12:41:39.702Z</time></trkpt><trkpt lat="39.4219778" lon="8.5002202"><ele>127.5</ele><time>2026-05-01T12:41:41.702Z</time></trkpt><trkpt lat="39.4219021" lon="8.5001122"><ele>125.66666666666666</ele><time>2026-05-01T12:41:43.702Z</time></trkpt><trkpt lat="39.4218346" lon="8.5000877"><ele>123.83333333333333</ele><time>2026-05-01T12:41:44.701Z</time></trkpt><trkpt lat="39.4217573" lon="8.5000668"><ele>122.0</ele><time>2026-05-01T12:41:45.703Z</time></trkpt><trkpt lat="39.421694" lon="8.5000372"><ele>121.99999999999999</ele><time>2026-05-01T12:41:46.702Z</time></trkpt><trkpt lat="39.4216361" lon="8.4999818"><ele>122.0</ele><time>2026-05-01T12:41:47.703Z</time></trkpt><trkpt lat="39.4215822" lon="8.4999086"><ele>122.0</ele><time>2026-05-01T12:41:48.702Z</time></trkpt><trkpt lat="39.4215384" lon="8.499823"><ele>122.0</ele><time>2026-05-01T12:41:49.701Z</time></trkpt><trkpt lat="39.4215157" lon="8.4997466"><ele>121.99999999999999</ele><time>2026-05-01T12:41:50.702Z</time></trkpt><trkpt lat="39.4215061" lon="8.4996467"><ele>122.0</ele><time>2026-05-01T12:41:51.703Z</time></trkpt><trkpt lat="39.4215076" lon="8.499535"><ele>115.5</ele><time>2026-05-01T12:41:52.701Z</time></trkpt><trkpt lat="39.4215073" lon="8.4994384"><ele>109.0</ele><time>2026-05-01T12:41:53.702Z</time></trkpt><trkpt lat="39.4333639" lon="8.5001969"><ele>71.0</ele><time>2026-05-01T12:43:43.954Z</time></trkpt><trkpt lat="39.43265" lon="8.5008642"><ele>67.0</ele><time>2026-05-01T12:44:11.195Z</time></trkpt><trkpt lat="39.4335067" lon="8.5006182"><ele>65.0</ele><time>2026-05-01T12:44:25.065Z</time></trkpt><trkpt lat="39.4345753" lon="8.5001673"><ele>64.0</ele><time>2026-05-01T12:44:32.064Z</time></trkpt><trkpt lat="39.4349304" lon="8.5000554"><ele>63.0</ele><time>2026-05-01T12:44:39.021Z</time></trkpt><trkpt lat="39.435133" lon="8.4997859"><ele>61.0</ele><time>2026-05-01T12:44:45.085Z</time></trkpt><trkpt lat="39.4359858" lon="8.4986708"><ele>66.0</ele><time>2026-05-01T12:44:52.039Z</time></trkpt><trkpt lat="39.4364153" lon="8.4979975"><ele>70.0</ele><time>2026-05-01T12:44:59.032Z</time></trkpt><trkpt lat="39.4392214" lon="8.4956225"><ele>66.0</ele><time>2026-05-01T12:45:06.046Z</time></trkpt><trkpt lat="39.4381539" lon="8.4956118"><ele>59.0</ele><time>2026-05-01T12:45:25.372Z</time></trkpt><trkpt lat="39.4385485" lon="8.4948354"><ele>57.0</ele><time>2026-05-01T12:45:31.316Z</time></trkpt><trkpt lat="39.4389143" lon="8.4944601"><ele>57.0</ele><time>2026-05-01T12:45:37.208Z</time></trkpt><trkpt lat="39.4393223" lon="8.4937233"><ele>58.0</ele><time>2026-05-01T12:45:42.703Z</time></trkpt><trkpt lat="39.4398351" lon="8.4929359"><ele>55.0</ele><time>2026-05-01T12:45:49.058Z</time></trkpt><trkpt lat="39.4406061" lon="8.4917601"><ele>57.0</ele><time>2026-05-01T12:45:55.362Z</time></trkpt><trkpt lat="39.4413084" lon="8.4910962"><ele>53.0</ele><time>2026-05-01T12:46:01.371Z</time></trkpt><trkpt lat="39.4418688" lon="8.4901766"><ele>54.0</ele><time>2026-05-01T12:46:07.26Z</time></trkpt><trkpt lat="39.442381" lon="8.4898671"><ele>48.0</ele><time>2026-05-01T12:46:13.225Z</time></trkpt><trkpt lat="39.4451083" lon="8.4859277"><ele>46.0</ele><time>2026-05-01T12:46:30.629Z</time></trkpt><trkpt lat="39.4453382" lon="8.485078"><ele>304.0</ele><time>2026-05-01T12:46:35.985Z</time></trkpt><trkpt lat="39.5517958" lon="8.5602769"><ele>304.0</ele><time>2026-05-01T13:18:55.94Z</time></trkpt><trkpt lat="39.5517925" lon="8.5601717"><ele>304.0</ele><time>2026-05-01T13:19:45.692Z</time></trkpt><trkpt lat="39.5517625" lon="8.5600664"><ele>304.0</ele><time>2026-05-01T13:19:47.693Z</time></trkpt><trkpt lat="39.5516758" lon="8.5599379"><ele>304.0</ele><time>2026-05-01T13:20:00.693Z</time></trkpt><trkpt lat="39.5518162" lon="8.5590825"><ele>304.0</ele><time>2026-05-01T13:22:50.78Z</time></trkpt><trkpt lat="39.5518716" lon="8.5592496"><ele>304.0</ele><time>2026-05-01T13:22:51.935Z</time></trkpt><trkpt lat="39.5518278" lon="8.5594515"><ele>304.0</ele><time>2026-05-01T13:22:54.691Z</time></trkpt><trkpt lat="39.5517158" lon="8.5598841"><ele>304.0</ele><time>2026-05-01T13:25:54.691Z</time></trkpt><trkpt lat="39.5517349" lon="8.559963"><ele>304.0</ele><time>2026-05-01T13:29:01.689Z</time></trkpt><trkpt lat="39.5517256" lon="8.5600897"><ele>304.0</ele><time>2026-05-01T13:29:03.689Z</time></trkpt><trkpt lat="39.5517614" lon="8.5602089"><ele>304.0</ele><time>2026-05-01T13:29:05.69Z</time></trkpt><trkpt lat="39.55186" lon="8.5603106"><ele>304.0</ele><time>2026-05-01T13:29:07.689Z</time></trkpt><trkpt lat="39.5519308" lon="8.560326"><ele>304.0</ele><time>2026-05-01T13:29:08.689Z</time></trkpt><trkpt lat="39.5520126" lon="8.5603279"><ele>304.0</ele><time>2026-05-01T13:29:09.691Z</time></trkpt><trkpt lat="39.5521046" lon="8.560314"><ele>304.0</ele><time>2026-05-01T13:29:10.689Z</time></trkpt><trkpt lat="39.5522026" lon="8.560303"><ele>304.0</ele><time>2026-05-01T13:29:11.69Z</time></trkpt><trkpt lat="39.5522761" lon="8.5603003"><ele>304.0</ele><time>2026-05-01T13:29:12.691Z</time></trkpt><trkpt lat="39.5523417" lon="8.5603148"><ele>304.0</ele><time>2026-05-01T13:29:13.69Z</time></trkpt><trkpt lat="39.5524321" lon="8.5604034"><ele>303.5</ele><time>2026-05-01T13:29:15.69Z</time></trkpt><trkpt lat="39.55247" lon="8.5604762"><ele>303.0</ele><time>2026-05-01T13:29:16.691Z</time></trkpt><trkpt lat="39.5524986" lon="8.5605644"><ele>302.5</ele><time>2026-05-01T13:29:17.69Z</time></trkpt><trkpt lat="39.5525169" lon="8.5606665"><ele>302.0</ele><time>2026-05-01T13:29:18.69Z</time></trkpt><trkpt lat="39.5525195" lon="8.5607703"><ele>301.5</ele><time>2026-05-01T13:29:19.69Z</time></trkpt><trkpt lat="39.5525123" lon="8.5608777"><ele>301.0</ele><time>2026-05-01T13:29:20.691Z</time></trkpt><trkpt lat="39.5524912" lon="8.5609805"><ele>301.0</ele><time>2026-05-01T13:29:21.689Z</time></trkpt><trkpt lat="39.552453" lon="8.5610787"><ele>301.0</ele><time>2026-05-01T13:29:22.69Z</time></trkpt><trkpt lat="39.5524043" lon="8.5611758"><ele>301.0</ele><time>2026-05-01T13:29:23.69Z</time></trkpt><trkpt lat="39.5523534" lon="8.5612788"><ele>301.0</ele><time>2026-05-01T13:29:24.689Z</time></trkpt><trkpt lat="39.5522967" lon="8.5613822"><ele>301.0</ele><time>2026-05-01T13:29:25.689Z</time></trkpt><trkpt lat="39.5522345" lon="8.5614875"><ele>302.16666666666663</ele><time>2026-05-01T13:29:26.691Z</time></trkpt><trkpt lat="39.5521728" lon="8.561583"><ele>303.3333333333333</ele><time>2026-05-01T13:29:27.69Z</time></trkpt><trkpt lat="39.5521228" lon="8.5616859"><ele>304.5</ele><time>2026-05-01T13:29:28.691Z</time></trkpt><trkpt lat="39.5521007" lon="8.5617849"><ele>305.6666666666667</ele><time>2026-05-01T13:29:29.689Z</time></trkpt><trkpt lat="39.5521079" lon="8.5618732"><ele>306.83333333333337</ele><time>2026-05-01T13:29:30.69Z</time></trkpt><trkpt lat="39.5521391" lon="8.5619581"><ele>308.0</ele><time>2026-05-01T13:29:31.691Z</time></trkpt><trkpt lat="39.5521926" lon="8.5620344"><ele>312.0</ele><time>2026-05-01T13:29:32.691Z</time></trkpt><trkpt lat="39.5522822" lon="8.5621081"><ele>316.0</ele><time>2026-05-01T13:29:33.689Z</time></trkpt><trkpt lat="39.5523852" lon="8.5621715"><ele>320.0</ele><time>2026-05-01T13:29:34.689Z</time></trkpt><trkpt lat="39.5524919" lon="8.5622131"><ele>324.0</ele><time>2026-05-01T13:29:35.689Z</time></trkpt><trkpt lat="39.5526051" lon="8.5622275"><ele>328.0</ele><time>2026-05-01T13:29:36.69Z</time></trkpt><trkpt lat="39.5527189" lon="8.5622073"><ele>328.0</ele><time>2026-05-01T13:29:37.69Z</time></trkpt><trkpt lat="39.5528373" lon="8.5621701"><ele>328.0</ele><time>2026-05-01T13:29:38.691Z</time></trkpt><trkpt lat="39.552956" lon="8.5621366"><ele>328.0</ele><time>2026-05-01T13:29:39.689Z</time></trkpt><trkpt lat="39.5530808" lon="8.5621181"><ele>328.0</ele><time>2026-05-01T13:29:40.69Z</time></trkpt><trkpt lat="39.5531886" lon="8.5621061"><ele>327.3333333333333</ele><time>2026-05-01T13:29:41.69Z</time></trkpt><trkpt lat="39.5532813" lon="8.5621119"><ele>326.66666666666663</ele><time>2026-05-01T13:29:42.689Z</time></trkpt><trkpt lat="39.5533656" lon="8.5621324"><ele>326.0</ele><time>2026-05-01T13:29:43.689Z</time></trkpt><trkpt lat="39.5534304" lon="8.5621717"><ele>325.3333333333333</ele><time>2026-05-01T13:29:44.689Z</time></trkpt><trkpt lat="39.5535013" lon="8.5622984"><ele>324.6666666666667</ele><time>2026-05-01T13:29:46.691Z</time></trkpt><trkpt lat="39.5535152" lon="8.5623828"><ele>324.0</ele><time>2026-05-01T13:29:47.691Z</time></trkpt><trkpt lat="39.553515" lon="8.5624834"><ele>324.0</ele><time>2026-05-01T13:29:48.69Z</time></trkpt><trkpt lat="39.5535108" lon="8.5625993"><ele>324.0</ele><time>2026-05-01T13:29:49.69Z</time></trkpt><trkpt lat="39.5535113" lon="8.5627397"><ele>324.0</ele><time>2026-05-01T13:29:50.69Z</time></trkpt><trkpt lat="39.5555422" lon="8.567378"><ele>343.0</ele><time>2026-05-01T13:30:39.056Z</time></trkpt><trkpt lat="39.5554682" lon="8.5674246"><ele>362.0</ele><time>2026-05-01T13:30:44.38Z</time></trkpt><trkpt lat="39.5547402" lon="8.568657"><ele>374.0</ele><time>2026-05-01T13:30:50.942Z</time></trkpt><trkpt lat="39.5551092" lon="8.5692915"><ele>375.0</ele><time>2026-05-01T13:30:56.67Z</time></trkpt><trkpt lat="39.555683" lon="8.5693157"><ele>374.0</ele><time>2026-05-01T13:31:01.894Z</time></trkpt><trkpt lat="39.5554933" lon="8.5699915"><ele>374.0</ele><time>2026-05-01T13:31:09.022Z</time></trkpt><trkpt lat="39.5555324" lon="8.5697591"><ele>374.0</ele><time>2026-05-01T13:31:32.691Z</time></trkpt><trkpt lat="39.5556098" lon="8.5696726"><ele>374.0</ele><time>2026-05-01T13:31:33.691Z</time></trkpt><trkpt lat="39.5556914" lon="8.5695671"><ele>374.0</ele><time>2026-05-01T13:31:34.691Z</time></trkpt><trkpt lat="39.5557671" lon="8.5694418"><ele>374.5</ele><time>2026-05-01T13:31:35.689Z</time></trkpt><trkpt lat="39.5558242" lon="8.5692912"><ele>375.0</ele><time>2026-05-01T13:31:36.69Z</time></trkpt><trkpt lat="39.5522427" lon="8.6155638"><ele>122.0</ele><time>2026-05-01T13:40:37.6Z</time></trkpt><trkpt lat="39.5468529" lon="8.6250703"><ele>118.0</ele><time>2026-05-01T13:41:44.242Z</time></trkpt><trkpt lat="39.5454893" lon="8.6266179"><ele>119.0</ele><time>2026-05-01T13:41:56.312Z</time></trkpt><trkpt lat="39.54478" lon="8.6256451"><ele>119.0</ele><time>2026-05-01T13:42:15.484Z</time></trkpt><trkpt lat="39.5442674" lon="8.6257645"><ele>117.0</ele><time>2026-05-01T13:42:22.158Z</time></trkpt><trkpt lat="39.5438568" lon="8.626591"><ele>121.0</ele><time>2026-05-01T13:42:28.307Z</time></trkpt><trkpt lat="39.5436761" lon="8.6276684"><ele>118.0</ele><time>2026-05-01T13:42:34.403Z</time></trkpt><trkpt lat="39.5434416" lon="8.6285722"><ele>116.0</ele><time>2026-05-01T13:42:41.317Z</time></trkpt><trkpt lat="39.5432334" lon="8.6294049"><ele>116.0</ele><time>2026-05-01T13:42:47.393Z</time></trkpt><trkpt lat="39.5432795" lon="8.6295423"><ele>116.0</ele><time>2026-05-01T13:42:53.534Z</time></trkpt><trkpt lat="39.5430937" lon="8.6317175"><ele>117.5</ele><time>2026-05-01T13:42:59.528Z</time></trkpt><trkpt lat="39.5427199" lon="8.6320233"><ele>119.0</ele><time>2026-05-01T13:43:05.451Z</time></trkpt><trkpt lat="39.5423454" lon="8.6323732"><ele>114.0</ele><time>2026-05-01T13:43:17.52Z</time></trkpt><trkpt lat="39.5438666" lon="8.6340704"><ele>109.0</ele><time>2026-05-01T13:43:29.033Z</time></trkpt><trkpt lat="39.5454503" lon="8.6348585"><ele>109.0</ele><time>2026-05-01T13:43:35.041Z</time></trkpt><trkpt lat="39.5455206" lon="8.6349036"><ele>109.0</ele><time>2026-05-01T13:43:47.248Z</time></trkpt><trkpt lat="39.546618" lon="8.6353771"><ele>104.0</ele><time>2026-05-01T13:43:53.265Z</time></trkpt><trkpt lat="39.5465856" lon="8.6360597"><ele>90.0</ele><time>2026-05-01T13:43:59.509Z</time></trkpt><trkpt lat="39.5527666" lon="8.6409381"><ele>90.0</ele><time>2026-05-01T13:44:53.423Z</time></trkpt><trkpt lat="39.5533599" lon="8.6414114"><ele>87.0</ele><time>2026-05-01T13:44:58.775Z</time></trkpt><trkpt lat="39.5535643" lon="8.6434312"><ele>75.0</ele><time>2026-05-01T13:45:04.361Z</time></trkpt><trkpt lat="39.5657038" lon="8.6528429"><ele>73.0</ele><time>2026-05-01T13:46:32.832Z</time></trkpt><trkpt lat="39.5675144" lon="8.6543354"><ele>74.0</ele><time>2026-05-01T13:46:38.178Z</time></trkpt><trkpt lat="39.5680843" lon="8.6563907"><ele>71.0</ele><time>2026-05-01T13:46:44.82Z</time></trkpt><trkpt lat="39.5723509" lon="8.6590151"><ele>69.0</ele><time>2026-05-01T13:47:09.763Z</time></trkpt><trkpt lat="39.5738671" lon="8.6597455"><ele>71.0</ele><time>2026-05-01T13:47:20.543Z</time></trkpt><trkpt lat="39.5740178" lon="8.6604741"><ele>68.0</ele><time>2026-05-01T13:47:26.437Z</time></trkpt><trkpt lat="39.5752262" lon="8.6610249"><ele>47.0</ele><time>2026-05-01T13:47:31.88Z</time></trkpt><trkpt lat="39.6046767" lon="8.6712842"><ele>31.0</ele><time>2026-05-01T13:51:15.345Z</time></trkpt><trkpt lat="39.6376985" lon="8.6152691"><ele>513.0</ele><time>2026-05-01T14:02:12.953Z</time></trkpt><trkpt lat="39.6540979" lon="8.5280666"><ele>513.0</ele><time>2026-05-01T14:26:50.681Z</time></trkpt><trkpt lat="39.6540729" lon="8.5281748"><ele>513.0</ele><time>2026-05-01T14:31:32.677Z</time></trkpt><trkpt lat="39.6541305" lon="8.5283127"><ele>513.0</ele><time>2026-05-01T14:31:34.679Z</time></trkpt><trkpt lat="39.654164" lon="8.5284117"><ele>513.0</ele><time>2026-05-01T14:31:35.678Z</time></trkpt><trkpt lat="39.6541938" lon="8.528524"><ele>513.0</ele><time>2026-05-01T14:31:36.677Z</time></trkpt><trkpt lat="39.6542135" lon="8.5286464"><ele>513.0</ele><time>2026-05-01T14:31:37.678Z</time></trkpt><trkpt lat="39.6542176" lon="8.5287713"><ele>513.0</ele><time>2026-05-01T14:31:38.677Z</time></trkpt><trkpt lat="39.6542164" lon="8.5288982"><ele>513.0</ele><time>2026-05-01T14:31:39.677Z</time></trkpt><trkpt lat="39.6542091" lon="8.529013"><ele>513.0</ele><time>2026-05-01T14:31:40.677Z</time></trkpt><trkpt lat="39.654206" lon="8.5291251"><ele>513.0</ele><time>2026-05-01T14:31:41.678Z</time></trkpt><trkpt lat="39.6542164" lon="8.5292498"><ele>513.0</ele><time>2026-05-01T14:31:42.678Z</time></trkpt><trkpt lat="39.6542283" lon="8.5293811"><ele>513.0</ele><time>2026-05-01T14:31:43.679Z</time></trkpt><trkpt lat="39.6542916" lon="8.5295083"><ele>513.0</ele><time>2026-05-01T14:31:44.679Z</time></trkpt><trkpt lat="39.6543376" lon="8.529626"><ele>513.0</ele><time>2026-05-01T14:31:45.677Z</time></trkpt><trkpt lat="39.6543925" lon="8.5297177"><ele>513.0</ele><time>2026-05-01T14:31:46.678Z</time></trkpt><trkpt lat="39.6544478" lon="8.5297763"><ele>508.0</ele><time>2026-05-01T14:31:47.679Z</time></trkpt><trkpt lat="39.6545217" lon="8.5298521"><ele>502.99999999999994</ele><time>2026-05-01T14:31:48.677Z</time></trkpt><trkpt lat="39.654593" lon="8.5299409"><ele>497.99999999999994</ele><time>2026-05-01T14:31:49.678Z</time></trkpt><trkpt lat="39.6546528" lon="8.5300457"><ele>493.0</ele><time>2026-05-01T14:31:50.679Z</time></trkpt><trkpt lat="39.654697" lon="8.530145"><ele>488.0</ele><time>2026-05-01T14:31:51.679Z</time></trkpt><trkpt lat="39.6547431" lon="8.5302398"><ele>488.0</ele><time>2026-05-01T14:31:52.677Z</time></trkpt><trkpt lat="39.6547944" lon="8.5303287"><ele>487.99999999999994</ele><time>2026-05-01T14:31:53.678Z</time></trkpt><trkpt lat="39.6548611" lon="8.5304152"><ele>487.99999999999994</ele><time>2026-05-01T14:31:54.678Z</time></trkpt><trkpt lat="39.6549304" lon="8.5305124"><ele>488.0</ele><time>2026-05-01T14:31:55.677Z</time></trkpt><trkpt lat="39.6549895" lon="8.5306297"><ele>488.0</ele><time>2026-05-01T14:31:56.679Z</time></trkpt><trkpt lat="39.6550206" lon="8.5307316"><ele>487.79999999999995</ele><time>2026-05-01T14:31:57.678Z</time></trkpt><trkpt lat="39.6550356" lon="8.5308608"><ele>487.59999999999997</ele><time>2026-05-01T14:31:58.677Z</time></trkpt><trkpt lat="39.6550361" lon="8.531008"><ele>487.40000000000003</ele><time>2026-05-01T14:31:59.678Z</time></trkpt><trkpt lat="39.6550107" lon="8.5311671"><ele>487.20000000000005</ele><time>2026-05-01T14:32:00.68Z</time></trkpt><trkpt lat="39.65498" lon="8.5312938"><ele>487.0</ele><time>2026-05-01T14:32:01.679Z</time></trkpt><trkpt lat="39.6549559" lon="8.5314003"><ele>486.40000000000003</ele><time>2026-05-01T14:32:02.679Z</time></trkpt><trkpt lat="39.6549546" lon="8.5315026"><ele>485.80000000000007</ele><time>2026-05-01T14:32:03.678Z</time></trkpt><trkpt lat="39.6549767" lon="8.5316056"><ele>485.2</ele><time>2026-05-01T14:32:04.677Z</time></trkpt><trkpt lat="39.6550286" lon="8.5317223"><ele>484.6</ele><time>2026-05-01T14:32:05.679Z</time></trkpt><trkpt lat="39.6550893" lon="8.5318495"><ele>484.0</ele><time>2026-05-01T14:32:06.679Z</time></trkpt><trkpt lat="39.6551494" lon="8.5319984"><ele>485.25</ele><time>2026-05-01T14:32:07.678Z</time></trkpt><trkpt lat="39.6552055" lon="8.5321526"><ele>486.5</ele><time>2026-05-01T14:32:08.678Z</time></trkpt><trkpt lat="39.6552607" lon="8.5323028"><ele>487.75</ele><time>2026-05-01T14:32:09.678Z</time></trkpt><trkpt lat="39.6553197" lon="8.5324516"><ele>489.0</ele><time>2026-05-01T14:32:10.678Z</time></trkpt><trkpt lat="39.6553894" lon="8.5326018"><ele>480.25</ele><time>2026-05-01T14:32:11.679Z</time></trkpt><trkpt lat="39.6554626" lon="8.5327544"><ele>471.5</ele><time>2026-05-01T14:32:12.679Z</time></trkpt><trkpt lat="39.6555342" lon="8.5328884"><ele>462.75</ele><time>2026-05-01T14:32:13.678Z</time></trkpt><trkpt lat="39.6556031" lon="8.533025"><ele>454.0</ele><time>2026-05-01T14:32:14.679Z</time></trkpt><trkpt lat="39.6556562" lon="8.5331724"><ele>454.0</ele><time>2026-05-01T14:32:15.679Z</time></trkpt><trkpt lat="39.6557043" lon="8.5333315"><ele>454.0</ele><time>2026-05-01T14:32:16.678Z</time></trkpt><trkpt lat="39.6557387" lon="8.5334742"><ele>454.0</ele><time>2026-05-01T14:32:17.678Z</time></trkpt><trkpt lat="39.655755" lon="8.5336181"><ele>454.0</ele><time>2026-05-01T14:32:18.678Z</time></trkpt><trkpt lat="39.6557607" lon="8.533755"><ele>454.0</ele><time>2026-05-01T14:32:19.678Z</time></trkpt><trkpt lat="39.655772" lon="8.533873"><ele>454.0</ele><time>2026-05-01T14:32:20.679Z</time></trkpt><trkpt lat="39.6558002" lon="8.5339991"><ele>454.0</ele><time>2026-05-01T14:32:21.679Z</time></trkpt><trkpt lat="39.6558475" lon="8.5341481"><ele>454.0</ele><time>2026-05-01T14:32:22.679Z</time></trkpt><trkpt lat="39.6558946" lon="8.5343019"><ele>454.0</ele><time>2026-05-01T14:32:23.679Z</time></trkpt><trkpt lat="39.6559283" lon="8.5344429"><ele>451.6</ele><time>2026-05-01T14:32:24.679Z</time></trkpt><trkpt lat="39.6559492" lon="8.5345789"><ele>449.2</ele><time>2026-05-01T14:32:25.679Z</time></trkpt><trkpt lat="39.6559545" lon="8.5347084"><ele>446.80000000000007</ele><time>2026-05-01T14:32:26.677Z</time></trkpt><trkpt lat="39.6559532" lon="8.5348286"><ele>444.40000000000003</ele><time>2026-05-01T14:32:27.678Z</time></trkpt><trkpt lat="39.6559404" lon="8.5349192"><ele>442.0</ele><time>2026-05-01T14:32:28.679Z</time></trkpt><trkpt lat="39.6558685" lon="8.5350308"><ele>442.0</ele><time>2026-05-01T14:32:30.678Z</time></trkpt><trkpt lat="39.6557852" lon="8.535075"><ele>442.00000000000006</ele><time>2026-05-01T14:32:31.678Z</time></trkpt><trkpt lat="39.655681" lon="8.5351142"><ele>442.00000000000006</ele><time>2026-05-01T14:32:32.679Z</time></trkpt><trkpt lat="39.6555801" lon="8.5351733"><ele>442.0</ele><time>2026-05-01T14:32:33.678Z</time></trkpt><trkpt lat="39.6554765" lon="8.5352496"><ele>442.0</ele><time>2026-05-01T14:32:34.677Z</time></trkpt><trkpt lat="39.6553916" lon="8.535325"><ele>440.40000000000003</ele><time>2026-05-01T14:32:35.677Z</time></trkpt><trkpt lat="39.6553203" lon="8.5353966"><ele>438.80000000000007</ele><time>2026-05-01T14:32:36.677Z</time></trkpt><trkpt lat="39.6552555" lon="8.5354839"><ele>437.2</ele><time>2026-05-01T14:32:37.676Z</time></trkpt><trkpt lat="39.6551987" lon="8.535586"><ele>435.6</ele><time>2026-05-01T14:32:38.677Z</time></trkpt><trkpt lat="39.6551493" lon="8.5357189"><ele>434.0</ele><time>2026-05-01T14:32:39.677Z</time></trkpt><trkpt lat="39.6550942" lon="8.535867"><ele>434.0</ele><time>2026-05-01T14:32:40.678Z</time></trkpt><trkpt lat="39.6550435" lon="8.5359996"><ele>434.0</ele><time>2026-05-01T14:32:41.676Z</time></trkpt><trkpt lat="39.6549968" lon="8.53613"><ele>434.0</ele><time>2026-05-01T14:32:42.676Z</time></trkpt><trkpt lat="39.6549578" lon="8.536254"><ele>434.0</ele><time>2026-05-01T14:32:43.676Z</time></trkpt><trkpt lat="39.6549439" lon="8.5363747"><ele>434.0</ele><time>2026-05-01T14:32:44.677Z</time></trkpt><trkpt lat="39.6549326" lon="8.5365305"><ele>431.0</ele><time>2026-05-01T14:32:45.677Z</time></trkpt><trkpt lat="39.6549208" lon="8.5366971"><ele>428.0</ele><time>2026-05-01T14:32:46.676Z</time></trkpt><trkpt lat="39.6548961" lon="8.5368633"><ele>425.0</ele><time>2026-05-01T14:32:47.676Z</time></trkpt><trkpt lat="39.6548574" lon="8.5370332"><ele>422.0</ele><time>2026-05-01T14:32:48.677Z</time></trkpt><trkpt lat="39.6548082" lon="8.5371966"><ele>419.40000000000003</ele><time>2026-05-01T14:32:49.676Z</time></trkpt><trkpt lat="39.6547478" lon="8.5373468"><ele>416.8</ele><time>2026-05-01T14:32:50.678Z</time></trkpt><trkpt lat="39.6546828" lon="8.5374748"><ele>414.2</ele><time>2026-05-01T14:32:51.678Z</time></trkpt><trkpt lat="39.6546276" lon="8.5375766"><ele>411.6</ele><time>2026-05-01T14:32:52.676Z</time></trkpt><trkpt lat="39.6545673" lon="8.5376615"><ele>409.0</ele><time>2026-05-01T14:32:53.677Z</time></trkpt><trkpt lat="39.6544907" lon="8.537755"><ele>409.75</ele><time>2026-05-01T14:32:54.677Z</time></trkpt><trkpt lat="39.6544131" lon="8.5378539"><ele>410.5</ele><time>2026-05-01T14:32:55.677Z</time></trkpt><trkpt lat="39.6543267" lon="8.5379725"><ele>411.25</ele><time>2026-05-01T14:32:56.676Z</time></trkpt><trkpt lat="39.6542391" lon="8.5380857"><ele>412.0</ele><time>2026-05-01T14:32:57.678Z</time></trkpt><trkpt lat="39.65416" lon="8.5381978"><ele>410.25</ele><time>2026-05-01T14:32:58.677Z</time></trkpt><trkpt lat="39.6540794" lon="8.5383294"><ele>408.5</ele><time>2026-05-01T14:32:59.676Z</time></trkpt><trkpt lat="39.654001" lon="8.5384654"><ele>406.75</ele><time>2026-05-01T14:33:00.677Z</time></trkpt><trkpt lat="39.6539122" lon="8.5386027"><ele>405.0</ele><time>2026-05-01T14:33:01.677Z</time></trkpt><trkpt lat="39.6538358" lon="8.5387429"><ele>403.5</ele><time>2026-05-01T14:33:02.677Z</time></trkpt><trkpt lat="39.6537687" lon="8.5388966"><ele>402.0</ele><time>2026-05-01T14:33:03.677Z</time></trkpt><trkpt lat="39.653717" lon="8.5390334"><ele>400.5</ele><time>2026-05-01T14:33:04.677Z</time></trkpt><trkpt lat="39.6536785" lon="8.5391627"><ele>399.0</ele><time>2026-05-01T14:33:05.677Z</time></trkpt><trkpt lat="39.6536543" lon="8.5392796"><ele>399.0</ele><time>2026-05-01T14:33:06.677Z</time></trkpt><trkpt lat="39.6536287" lon="8.5394161"><ele>399.0</ele><time>2026-05-01T14:33:07.677Z</time></trkpt><trkpt lat="39.6536068" lon="8.5395433"><ele>399.0</ele><time>2026-05-01T14:33:08.677Z</time></trkpt><trkpt lat="39.6535993" lon="8.539646"><ele>399.0</ele><time>2026-05-01T14:33:09.676Z</time></trkpt><trkpt lat="39.653595" lon="8.5397398"><ele>399.0</ele><time>2026-05-01T14:33:10.677Z</time></trkpt><trkpt lat="39.6536186" lon="8.5398266"><ele>399.0</ele><time>2026-05-01T14:33:11.677Z</time></trkpt><trkpt lat="39.653669" lon="8.5399508"><ele>396.1666666666667</ele><time>2026-05-01T14:33:12.676Z</time></trkpt><trkpt lat="39.6537355" lon="8.5400605"><ele>393.3333333333333</ele><time>2026-05-01T14:33:13.677Z</time></trkpt><trkpt lat="39.6537995" lon="8.540137"><ele>390.5</ele><time>2026-05-01T14:33:14.676Z</time></trkpt><trkpt lat="39.6538663" lon="8.5401807"><ele>387.66666666666663</ele><time>2026-05-01T14:33:15.676Z</time></trkpt><trkpt lat="39.6539383" lon="8.5401821"><ele>384.8333333333333</ele><time>2026-05-01T14:33:16.677Z</time></trkpt><trkpt lat="39.6540277" lon="8.5401643"><ele>382.0</ele><time>2026-05-01T14:33:17.678Z</time></trkpt><trkpt lat="39.6541053" lon="8.54013"><ele>382.0</ele><time>2026-05-01T14:33:18.677Z</time></trkpt><trkpt lat="39.6541722" lon="8.5401319"><ele>382.0</ele><time>2026-05-01T14:33:19.676Z</time></trkpt><trkpt lat="39.6542393" lon="8.5401658"><ele>382.0</ele><time>2026-05-01T14:33:20.677Z</time></trkpt><trkpt lat="39.6543114" lon="8.5402126"><ele>382.0</ele><time>2026-05-01T14:33:21.678Z</time></trkpt><trkpt lat="39.6543854" lon="8.5402311"><ele>382.0</ele><time>2026-05-01T14:33:22.677Z</time></trkpt><trkpt lat="39.6544903" lon="8.5402488"><ele>382.0</ele><time>2026-05-01T14:33:23.676Z</time></trkpt><trkpt lat="39.654604" lon="8.5402661"><ele>380.20000000000005</ele><time>2026-05-01T14:33:24.678Z</time></trkpt><trkpt lat="39.6547013" lon="8.5402852"><ele>378.4</ele><time>2026-05-01T14:33:25.677Z</time></trkpt><trkpt lat="39.6547961" lon="8.5402868"><ele>376.6</ele><time>2026-05-01T14:33:26.678Z</time></trkpt><trkpt lat="39.6549141" lon="8.5402628"><ele>374.79999999999995</ele><time>2026-05-01T14:33:27.677Z</time></trkpt><trkpt lat="39.6550448" lon="8.5402553"><ele>373.0</ele><time>2026-05-01T14:33:28.677Z</time></trkpt><trkpt lat="39.6551844" lon="8.5402611"><ele>368.59999999999997</ele><time>2026-05-01T14:33:29.678Z</time></trkpt><trkpt lat="39.6553069" lon="8.5402547"><ele>364.2</ele><time>2026-05-01T14:33:30.676Z</time></trkpt><trkpt lat="39.6554231" lon="8.5402512"><ele>359.8</ele><time>2026-05-01T14:33:31.677Z</time></trkpt><trkpt lat="39.6555116" lon="8.5402364"><ele>355.4</ele><time>2026-05-01T14:33:32.677Z</time></trkpt><trkpt lat="39.6555878" lon="8.5402145"><ele>351.0</ele><time>2026-05-01T14:33:33.677Z</time></trkpt><trkpt lat="39.6556518" lon="8.5401798"><ele>351.0</ele><time>2026-05-01T14:33:34.677Z</time></trkpt><trkpt lat="39.6557046" lon="8.5401343"><ele>351.0</ele><time>2026-05-01T14:33:35.677Z</time></trkpt><trkpt lat="39.6557924" lon="8.5400767"><ele>351.0</ele><time>2026-05-01T14:33:37.676Z</time></trkpt><trkpt lat="39.6558597" lon="8.5401422"><ele>351.0</ele><time>2026-05-01T14:33:39.678Z</time></trkpt><trkpt lat="39.6558562" lon="8.5402953"><ele>351.0</ele><time>2026-05-01T14:33:41.677Z</time></trkpt><trkpt lat="39.6558149" lon="8.5403867"><ele>351.0</ele><time>2026-05-01T14:33:42.678Z</time></trkpt><trkpt lat="39.6557541" lon="8.5404911"><ele>348.8333333333333</ele><time>2026-05-01T14:33:43.677Z</time></trkpt><trkpt lat="39.6556775" lon="8.5406039"><ele>346.6666666666667</ele><time>2026-05-01T14:33:44.677Z</time></trkpt><trkpt lat="39.6556122" lon="8.5406852"><ele>344.5</ele><time>2026-05-01T14:33:45.677Z</time></trkpt><trkpt lat="39.6555471" lon="8.5407368"><ele>342.33333333333337</ele><time>2026-05-01T14:33:46.678Z</time></trkpt><trkpt lat="39.6554688" lon="8.5407686"><ele>340.1666666666667</ele><time>2026-05-01T14:33:47.676Z</time></trkpt><trkpt lat="39.6553922" lon="8.5407882"><ele>338.0</ele><time>2026-05-01T14:33:48.677Z</time></trkpt><trkpt lat="39.6553322" lon="8.5408235"><ele>338.0</ele><time>2026-05-01T14:33:49.676Z</time></trkpt><trkpt lat="39.6552811" lon="8.540987"><ele>338.0</ele><time>2026-05-01T14:33:51.677Z</time></trkpt><trkpt lat="39.6552594" lon="8.5411173"><ele>338.0</ele><time>2026-05-01T14:33:52.677Z</time></trkpt><trkpt lat="39.6552196" lon="8.5412535"><ele>338.0</ele><time>2026-05-01T14:33:53.676Z</time></trkpt><trkpt lat="39.6551715" lon="8.5413898"><ele>338.0</ele><time>2026-05-01T14:33:54.676Z</time></trkpt><trkpt lat="39.6551183" lon="8.5415063"><ele>338.0</ele><time>2026-05-01T14:33:55.676Z</time></trkpt><trkpt lat="39.6550512" lon="8.5416136"><ele>338.0</ele><time>2026-05-01T14:33:56.677Z</time></trkpt><trkpt lat="39.6549682" lon="8.5417091"><ele>338.0</ele><time>2026-05-01T14:33:57.677Z</time></trkpt><trkpt lat="39.65488" lon="8.5417845"><ele>338.0</ele><time>2026-05-01T14:33:58.677Z</time></trkpt><trkpt lat="39.6547987" lon="8.5418424"><ele>338.0</ele><time>2026-05-01T14:33:59.677Z</time></trkpt><trkpt lat="39.6547115" lon="8.5418775"><ele>338.0</ele><time>2026-05-01T14:34:00.677Z</time></trkpt><trkpt lat="39.6546279" lon="8.5418923"><ele>338.0</ele><time>2026-05-01T14:34:01.676Z</time></trkpt><trkpt lat="39.6545339" lon="8.5419812"><ele>338.0</ele><time>2026-05-01T14:34:03.677Z</time></trkpt><trkpt lat="39.6545239" lon="8.5420677"><ele>338.0</ele><time>2026-05-01T14:34:04.677Z</time></trkpt><trkpt lat="39.6545551" lon="8.5422058"><ele>334.4</ele><time>2026-05-01T14:34:05.677Z</time></trkpt><trkpt lat="39.6545963" lon="8.5423596"><ele>330.79999999999995</ele><time>2026-05-01T14:34:06.676Z</time></trkpt><trkpt lat="39.6546355" lon="8.5424885"><ele>327.2</ele><time>2026-05-01T14:34:07.678Z</time></trkpt><trkpt lat="39.654665" lon="8.5426061"><ele>323.6</ele><time>2026-05-01T14:34:08.677Z</time></trkpt><trkpt lat="39.654668" lon="8.5427136"><ele>320.0</ele><time>2026-05-01T14:34:09.677Z</time></trkpt><trkpt lat="39.6546381" lon="8.5428207"><ele>319.75</ele><time>2026-05-01T14:34:10.677Z</time></trkpt><trkpt lat="39.6545784" lon="8.5429453"><ele>319.5</ele><time>2026-05-01T14:34:11.677Z</time></trkpt><trkpt lat="39.6545056" lon="8.5430598"><ele>319.25</ele><time>2026-05-01T14:34:12.677Z</time></trkpt><trkpt lat="39.6544231" lon="8.5431858"><ele>319.0</ele><time>2026-05-01T14:34:13.677Z</time></trkpt><trkpt lat="39.6543392" lon="8.5433052"><ele>319.0</ele><time>2026-05-01T14:34:14.677Z</time></trkpt><trkpt lat="39.6542672" lon="8.5434094"><ele>319.0</ele><time>2026-05-01T14:34:15.677Z</time></trkpt><trkpt lat="39.6542107" lon="8.5435434"><ele>319.0</ele><time>2026-05-01T14:34:16.678Z</time></trkpt><trkpt lat="39.6541615" lon="8.5436769"><ele>319.0</ele><time>2026-05-01T14:34:17.676Z</time></trkpt><trkpt lat="39.6541316" lon="8.5437965"><ele>319.0</ele><time>2026-05-01T14:34:18.677Z</time></trkpt><trkpt lat="39.6541173" lon="8.5439264"><ele>316.2</ele><time>2026-05-01T14:34:19.676Z</time></trkpt><trkpt lat="39.6541272" lon="8.5440497"><ele>313.4</ele><time>2026-05-01T14:34:20.676Z</time></trkpt><trkpt lat="39.6541521" lon="8.5441467"><ele>310.6</ele><time>2026-05-01T14:34:21.676Z</time></trkpt><trkpt lat="39.6541904" lon="8.5442234"><ele>307.8</ele><time>2026-05-01T14:34:22.678Z</time></trkpt><trkpt lat="39.6542738" lon="8.5442454"><ele>305.0</ele><time>2026-05-01T14:34:24.677Z</time></trkpt><trkpt lat="39.6543874" lon="8.5441168"><ele>302.2</ele><time>2026-05-01T14:34:26.676Z</time></trkpt><trkpt lat="39.6544681" lon="8.5440067"><ele>299.4</ele><time>2026-05-01T14:34:27.676Z</time></trkpt><trkpt lat="39.6545247" lon="8.5439377"><ele>296.6</ele><time>2026-05-01T14:34:28.677Z</time></trkpt><trkpt lat="39.6546236" lon="8.5438922"><ele>293.8</ele><time>2026-05-01T14:34:30.677Z</time></trkpt><trkpt lat="39.6546636" lon="8.5440038"><ele>291.0</ele><time>2026-05-01T14:34:32.678Z</time></trkpt><trkpt lat="39.6546437" lon="8.5440943"><ele>291.0</ele><time>2026-05-01T14:34:33.676Z</time></trkpt><trkpt lat="39.6546212" lon="8.5442022"><ele>291.0</ele><time>2026-05-01T14:34:34.677Z</time></trkpt><trkpt lat="39.6546304" lon="8.5443025"><ele>291.0</ele><time>2026-05-01T14:34:35.676Z</time></trkpt><trkpt lat="39.6546811" lon="8.5444187"><ele>291.0</ele><time>2026-05-01T14:34:36.676Z</time></trkpt><trkpt lat="39.6547554" lon="8.5445532"><ele>291.0</ele><time>2026-05-01T14:34:37.677Z</time></trkpt><trkpt lat="39.6548425" lon="8.5446881"><ele>289.25</ele><time>2026-05-01T14:34:38.677Z</time></trkpt><trkpt lat="39.6549168" lon="8.5448282"><ele>287.5</ele><time>2026-05-01T14:34:39.677Z</time></trkpt><trkpt lat="39.6549864" lon="8.5449658"><ele>285.75</ele><time>2026-05-01T14:34:40.677Z</time></trkpt><trkpt lat="39.6550498" lon="8.5450892"><ele>284.0</ele><time>2026-05-01T14:34:41.678Z</time></trkpt><trkpt lat="39.6550967" lon="8.5451988"><ele>284.0</ele><time>2026-05-01T14:34:42.677Z</time></trkpt><trkpt lat="39.6551272" lon="8.5453133"><ele>284.0</ele><time>2026-05-01T14:34:43.677Z</time></trkpt><trkpt lat="39.6551347" lon="8.5454191"><ele>284.0</ele><time>2026-05-01T14:34:44.677Z</time></trkpt><trkpt lat="39.655119" lon="8.5455263"><ele>284.0</ele><time>2026-05-01T14:34:45.677Z</time></trkpt><trkpt lat="39.6550756" lon="8.5456542"><ele>284.0</ele><time>2026-05-01T14:34:46.678Z</time></trkpt><trkpt lat="39.65503" lon="8.5457667"><ele>281.8</ele><time>2026-05-01T14:34:47.676Z</time></trkpt><trkpt lat="39.6549939" lon="8.5458803"><ele>279.59999999999997</ele><time>2026-05-01T14:34:48.677Z</time></trkpt><trkpt lat="39.6549724" lon="8.5460075"><ele>277.4</ele><time>2026-05-01T14:34:49.677Z</time></trkpt><trkpt lat="39.6549438" lon="8.5461249"><ele>275.2</ele><time>2026-05-01T14:34:50.677Z</time></trkpt><trkpt lat="39.654897" lon="8.546261"><ele>273.0</ele><time>2026-05-01T14:34:51.676Z</time></trkpt><trkpt lat="39.6548494" lon="8.5464163"><ele>271.0</ele><time>2026-05-01T14:34:52.678Z</time></trkpt><trkpt lat="39.6548161" lon="8.5465559"><ele>269.0</ele><time>2026-05-01T14:34:53.678Z</time></trkpt><trkpt lat="39.6547767" lon="8.5466972"><ele>267.0</ele><time>2026-05-01T14:34:54.677Z</time></trkpt><trkpt lat="39.6547171" lon="8.5468278"><ele>265.0</ele><time>2026-05-01T14:34:55.677Z</time></trkpt><trkpt lat="39.6546524" lon="8.5469463"><ele>265.0</ele><time>2026-05-01T14:34:56.677Z</time></trkpt><trkpt lat="39.6545846" lon="8.5470374"><ele>265.0</ele><time>2026-05-01T14:34:57.677Z</time></trkpt><trkpt lat="39.6545098" lon="8.5470947"><ele>265.0</ele><time>2026-05-01T14:34:58.678Z</time></trkpt><trkpt lat="39.6544062" lon="8.5471489"><ele>265.0</ele><time>2026-05-01T14:34:59.678Z</time></trkpt><trkpt lat="39.6542832" lon="8.5471987"><ele>265.0</ele><time>2026-05-01T14:35:00.678Z</time></trkpt><trkpt lat="39.6541584" lon="8.5472624"><ele>261.25</ele><time>2026-05-01T14:35:01.676Z</time></trkpt><trkpt lat="39.6540341" lon="8.5473283"><ele>257.5</ele><time>2026-05-01T14:35:02.676Z</time></trkpt><trkpt lat="39.6539147" lon="8.5473961"><ele>253.75</ele><time>2026-05-01T14:35:03.676Z</time></trkpt><trkpt lat="39.6538118" lon="8.5474804"><ele>250.0</ele><time>2026-05-01T14:35:04.677Z</time></trkpt><trkpt lat="39.6537373" lon="8.547559"><ele>250.0</ele><time>2026-05-01T14:35:05.677Z</time></trkpt><trkpt lat="39.6536713" lon="8.5476676"><ele>250.0</ele><time>2026-05-01T14:35:06.676Z</time></trkpt><trkpt lat="39.6536083" lon="8.5478263"><ele>250.0</ele><time>2026-05-01T14:35:07.677Z</time></trkpt><trkpt lat="39.6535492" lon="8.5479675"><ele>250.0</ele><time>2026-05-01T14:35:08.677Z</time></trkpt><trkpt lat="39.6534987" lon="8.5480856"><ele>248.33333333333331</ele><time>2026-05-01T14:35:09.677Z</time></trkpt><trkpt lat="39.6534617" lon="8.5481946"><ele>246.66666666666666</ele><time>2026-05-01T14:35:10.676Z</time></trkpt><trkpt lat="39.6534334" lon="8.5482821"><ele>245.0</ele><time>2026-05-01T14:35:11.678Z</time></trkpt><trkpt lat="39.6534993" lon="8.5483069"><ele>243.33333333333331</ele><time>2026-05-01T14:35:15.676Z</time></trkpt><trkpt lat="39.6535675" lon="8.5482464"><ele>241.66666666666666</ele><time>2026-05-01T14:35:16.676Z</time></trkpt><trkpt lat="39.6536401" lon="8.5481747"><ele>240.0</ele><time>2026-05-01T14:35:17.677Z</time></trkpt><trkpt lat="39.6536951" lon="8.5481093"><ele>242.0</ele><time>2026-05-01T14:35:18.678Z</time></trkpt><trkpt lat="39.6537791" lon="8.5480083"><ele>244.0</ele><time>2026-05-01T14:35:20.676Z</time></trkpt><trkpt lat="39.6538274" lon="8.5479491"><ele>246.0</ele><time>2026-05-01T14:35:23.676Z</time></trkpt><trkpt lat="39.6538892" lon="8.5478819"><ele>248.0</ele><time>2026-05-01T14:35:49.676Z</time></trkpt><trkpt lat="39.6539623" lon="8.5478209"><ele>250.0</ele><time>2026-05-01T14:35:50.676Z</time></trkpt><trkpt lat="39.6540607" lon="8.5477642"><ele>250.0</ele><time>2026-05-01T14:35:51.677Z</time></trkpt><trkpt lat="39.6541852" lon="8.547727"><ele>250.0</ele><time>2026-05-01T14:35:52.677Z</time></trkpt><trkpt lat="39.654323" lon="8.5477066"><ele>250.0</ele><time>2026-05-01T14:35:53.677Z</time></trkpt><trkpt lat="39.6544778" lon="8.5476909"><ele>250.0</ele><time>2026-05-01T14:35:54.677Z</time></trkpt><trkpt lat="39.6546399" lon="8.5476781"><ele>249.25</ele><time>2026-05-01T14:35:55.678Z</time></trkpt><trkpt lat="39.6547858" lon="8.5476766"><ele>248.5</ele><time>2026-05-01T14:35:56.675Z</time></trkpt><trkpt lat="39.6549313" lon="8.5476883"><ele>247.75</ele><time>2026-05-01T14:35:57.676Z</time></trkpt><trkpt lat="39.6550733" lon="8.5476946"><ele>247.0</ele><time>2026-05-01T14:35:58.676Z</time></trkpt><trkpt lat="39.6552078" lon="8.5476765"><ele>241.25</ele><time>2026-05-01T14:35:59.675Z</time></trkpt><trkpt lat="39.6553431" lon="8.5476378"><ele>235.5</ele><time>2026-05-01T14:36:00.675Z</time></trkpt><trkpt lat="39.6554593" lon="8.5475883"><ele>229.75</ele><time>2026-05-01T14:36:01.677Z</time></trkpt><trkpt lat="39.6555495" lon="8.547514"><ele>224.0</ele><time>2026-05-01T14:36:02.675Z</time></trkpt><trkpt lat="39.6556406" lon="8.5474134"><ele>224.0</ele><time>2026-05-01T14:36:03.675Z</time></trkpt><trkpt lat="39.6557075" lon="8.5472956"><ele>224.0</ele><time>2026-05-01T14:36:04.677Z</time></trkpt><trkpt lat="39.6557698" lon="8.547132"><ele>224.0</ele><time>2026-05-01T14:36:05.675Z</time></trkpt><trkpt lat="39.6558294" lon="8.5469521"><ele>224.0</ele><time>2026-05-01T14:36:06.677Z</time></trkpt><trkpt lat="39.6558979" lon="8.5467905"><ele>222.0</ele><time>2026-05-01T14:36:07.675Z</time></trkpt><trkpt lat="39.6559697" lon="8.5466603"><ele>220.0</ele><time>2026-05-01T14:36:08.675Z</time></trkpt><trkpt lat="39.6560533" lon="8.5465595"><ele>218.0</ele><time>2026-05-01T14:36:09.676Z</time></trkpt><trkpt lat="39.6561611" lon="8.5464635"><ele>216.0</ele><time>2026-05-01T14:36:10.676Z</time></trkpt><trkpt lat="39.6562673" lon="8.5463784"><ele>216.0</ele><time>2026-05-01T14:36:11.676Z</time></trkpt><trkpt lat="39.6563627" lon="8.5462639"><ele>216.0</ele><time>2026-05-01T14:36:12.676Z</time></trkpt><trkpt lat="39.6564532" lon="8.5461225"><ele>216.0</ele><time>2026-05-01T14:36:13.677Z</time></trkpt><trkpt lat="39.6565358" lon="8.5459619"><ele>216.0</ele><time>2026-05-01T14:36:14.676Z</time></trkpt><trkpt lat="39.6566005" lon="8.5458006"><ele>218.0</ele><time>2026-05-01T14:36:15.676Z</time></trkpt><trkpt lat="39.6566529" lon="8.5456648"><ele>220.00000000000003</ele><time>2026-05-01T14:36:16.677Z</time></trkpt><trkpt lat="39.6567068" lon="8.5455525"><ele>222.00000000000003</ele><time>2026-05-01T14:36:17.675Z</time></trkpt><trkpt lat="39.6567625" lon="8.5454717"><ele>224.0</ele><time>2026-05-01T14:36:18.677Z</time></trkpt><trkpt lat="39.6568758" lon="8.5454472"><ele>226.0</ele><time>2026-05-01T14:36:20.676Z</time></trkpt><trkpt lat="39.6569481" lon="8.5455087"><ele>224.0</ele><time>2026-05-01T14:36:21.676Z</time></trkpt><trkpt lat="39.6570315" lon="8.5456203"><ele>222.00000000000003</ele><time>2026-05-01T14:36:22.675Z</time></trkpt><trkpt lat="39.6571107" lon="8.5456858"><ele>220.00000000000003</ele><time>2026-05-01T14:36:23.676Z</time></trkpt><trkpt lat="39.6571919" lon="8.5457147"><ele>218.0</ele><time>2026-05-01T14:36:24.676Z</time></trkpt><trkpt lat="39.6572767" lon="8.5457055"><ele>216.0</ele><time>2026-05-01T14:36:25.675Z</time></trkpt><trkpt lat="39.6573631" lon="8.5456557"><ele>216.0</ele><time>2026-05-01T14:36:26.676Z</time></trkpt><trkpt lat="39.6574473" lon="8.5455413"><ele>216.0</ele><time>2026-05-01T14:36:27.677Z</time></trkpt><trkpt lat="39.6575395" lon="8.5454027"><ele>216.0</ele><time>2026-05-01T14:36:28.676Z</time></trkpt><trkpt lat="39.6576479" lon="8.5452628"><ele>216.0</ele><time>2026-05-01T14:36:29.675Z</time></trkpt><trkpt lat="39.6577554" lon="8.5451247"><ele>213.75</ele><time>2026-05-01T14:36:30.677Z</time></trkpt><trkpt lat="39.6578371" lon="8.5450098"><ele>211.5</ele><time>2026-05-01T14:36:31.677Z</time></trkpt><trkpt lat="39.6579052" lon="8.5448775"><ele>209.25</ele><time>2026-05-01T14:36:32.675Z</time></trkpt><trkpt lat="39.6579485" lon="8.5447302"><ele>207.0</ele><time>2026-05-01T14:36:33.676Z</time></trkpt><trkpt lat="39.6579554" lon="8.5445791"><ele>208.25</ele><time>2026-05-01T14:36:34.675Z</time></trkpt><trkpt lat="39.6579392" lon="8.5444024"><ele>209.5</ele><time>2026-05-01T14:36:35.676Z</time></trkpt><trkpt lat="39.6579296" lon="8.5442146"><ele>210.75</ele><time>2026-05-01T14:36:36.676Z</time></trkpt><trkpt lat="39.6579316" lon="8.544032"><ele>212.0</ele><time>2026-05-01T14:36:37.677Z</time></trkpt><trkpt lat="39.6579334" lon="8.5438805"><ele>212.0</ele><time>2026-05-01T14:36:38.676Z</time></trkpt><trkpt lat="39.657924" lon="8.5437492"><ele>212.0</ele><time>2026-05-01T14:36:39.676Z</time></trkpt><trkpt lat="39.6578916" lon="8.5436243"><ele>212.0</ele><time>2026-05-01T14:36:40.676Z</time></trkpt><trkpt lat="39.6578412" lon="8.5434878"><ele>212.0</ele><time>2026-05-01T14:36:41.676Z</time></trkpt><trkpt lat="39.6578211" lon="8.5433868"><ele>212.0</ele><time>2026-05-01T14:36:42.675Z</time></trkpt><trkpt lat="39.657823" lon="8.5433016"><ele>212.2</ele><time>2026-05-01T14:36:43.676Z</time></trkpt><trkpt lat="39.6578697" lon="8.5432304"><ele>212.39999999999998</ele><time>2026-05-01T14:36:44.676Z</time></trkpt><trkpt lat="39.6579492" lon="8.5431439"><ele>212.60000000000002</ele><time>2026-05-01T14:36:45.676Z</time></trkpt><trkpt lat="39.6580466" lon="8.5430342"><ele>212.8</ele><time>2026-05-01T14:36:46.676Z</time></trkpt><trkpt lat="39.6581268" lon="8.542923"><ele>213.0</ele><time>2026-05-01T14:36:47.677Z</time></trkpt><trkpt lat="39.6581908" lon="8.5428141"><ele>214.75</ele><time>2026-05-01T14:36:48.675Z</time></trkpt><trkpt lat="39.6582364" lon="8.5426818"><ele>216.5</ele><time>2026-05-01T14:36:49.676Z</time></trkpt><trkpt lat="39.6582643" lon="8.5425374"><ele>218.25</ele><time>2026-05-01T14:36:50.677Z</time></trkpt><trkpt lat="39.6582643" lon="8.5423959"><ele>220.0</ele><time>2026-05-01T14:36:51.677Z</time></trkpt><trkpt lat="39.6582395" lon="8.5422324"><ele>220.0</ele><time>2026-05-01T14:36:52.675Z</time></trkpt><trkpt lat="39.6582066" lon="8.5420788"><ele>220.0</ele><time>2026-05-01T14:36:53.676Z</time></trkpt><trkpt lat="39.6581865" lon="8.5419622"><ele>220.0</ele><time>2026-05-01T14:36:54.676Z</time></trkpt><trkpt lat="39.6581987" lon="8.5418565"><ele>220.0</ele><time>2026-05-01T14:36:55.676Z</time></trkpt><trkpt lat="39.658249" lon="8.5417792"><ele>220.0</ele><time>2026-05-01T14:36:57.676Z</time></trkpt><trkpt lat="39.658366" lon="8.5418169"><ele>219.5</ele><time>2026-05-01T14:36:59.675Z</time></trkpt><trkpt lat="39.658462" lon="8.5418903"><ele>219.0</ele><time>2026-05-01T14:37:00.677Z</time></trkpt><trkpt lat="39.6585823" lon="8.5419801"><ele>218.5</ele><time>2026-05-01T14:37:01.677Z</time></trkpt><trkpt lat="39.658706" lon="8.5420755"><ele>218.0</ele><time>2026-05-01T14:37:02.675Z</time></trkpt><trkpt lat="39.6588189" lon="8.5421661"><ele>218.0</ele><time>2026-05-01T14:37:03.676Z</time></trkpt><trkpt lat="39.6589178" lon="8.5422587"><ele>218.0</ele><time>2026-05-01T14:37:04.677Z</time></trkpt><trkpt lat="39.6590094" lon="8.542374"><ele>218.0</ele><time>2026-05-01T14:37:05.676Z</time></trkpt><trkpt lat="39.6590894" lon="8.542511"><ele>218.0</ele><time>2026-05-01T14:37:06.676Z</time></trkpt><trkpt lat="39.6591552" lon="8.5426554"><ele>218.0</ele><time>2026-05-01T14:37:07.675Z</time></trkpt><trkpt lat="39.6592182" lon="8.5427752"><ele>218.0</ele><time>2026-05-01T14:37:08.677Z</time></trkpt><trkpt lat="39.6592929" lon="8.5428625"><ele>218.0</ele><time>2026-05-01T14:37:09.675Z</time></trkpt><trkpt lat="39.6593807" lon="8.5429223"><ele>218.0</ele><time>2026-05-01T14:37:10.675Z</time></trkpt><trkpt lat="39.6594754" lon="8.5429629"><ele>218.0</ele><time>2026-05-01T14:37:11.675Z</time></trkpt><trkpt lat="39.6595858" lon="8.5429665"><ele>217.4</ele><time>2026-05-01T14:37:12.676Z</time></trkpt><trkpt lat="39.6597035" lon="8.5429568"><ele>216.8</ele><time>2026-05-01T14:37:13.676Z</time></trkpt><trkpt lat="39.6598195" lon="8.5429363"><ele>216.2</ele><time>2026-05-01T14:37:14.677Z</time></trkpt><trkpt lat="39.6599174" lon="8.5428906"><ele>215.6</ele><time>2026-05-01T14:37:15.677Z</time></trkpt><trkpt lat="39.6600124" lon="8.5428207"><ele>215.0</ele><time>2026-05-01T14:37:16.676Z</time></trkpt><trkpt lat="39.660114" lon="8.5427138"><ele>215.0</ele><time>2026-05-01T14:37:17.677Z</time></trkpt><trkpt lat="39.6602148" lon="8.5425939"><ele>215.0</ele><time>2026-05-01T14:37:18.675Z</time></trkpt><trkpt lat="39.6603072" lon="8.5424996"><ele>215.0</ele><time>2026-05-01T14:37:19.676Z</time></trkpt><trkpt lat="39.6603903" lon="8.5424301"><ele>215.0</ele><time>2026-05-01T14:37:20.676Z</time></trkpt><trkpt lat="39.6604702" lon="8.5423891"><ele>215.0</ele><time>2026-05-01T14:37:21.676Z</time></trkpt><trkpt lat="39.6605468" lon="8.542379"><ele>213.75</ele><time>2026-05-01T14:37:22.675Z</time></trkpt><trkpt lat="39.6606457" lon="8.542473"><ele>212.5</ele><time>2026-05-01T14:37:24.677Z</time></trkpt><trkpt lat="39.6607114" lon="8.5426991"><ele>211.25</ele><time>2026-05-01T14:37:26.677Z</time></trkpt><trkpt lat="39.6607659" lon="8.5428024"><ele>210.0</ele><time>2026-05-01T14:37:27.676Z</time></trkpt><trkpt lat="39.6608167" lon="8.5429204"><ele>205.75</ele><time>2026-05-01T14:37:28.675Z</time></trkpt><trkpt lat="39.6609459" lon="8.542946"><ele>201.5</ele><time>2026-05-01T14:37:29.675Z</time></trkpt><trkpt lat="39.6610661" lon="8.5429901"><ele>197.25</ele><time>2026-05-01T14:37:30.675Z</time></trkpt><trkpt lat="39.6612123" lon="8.5430057"><ele>193.0</ele><time>2026-05-01T14:37:31.676Z</time></trkpt><trkpt lat="39.6613468" lon="8.543037"><ele>192.75</ele><time>2026-05-01T14:37:32.675Z</time></trkpt><trkpt lat="39.6614721" lon="8.543051"><ele>192.5</ele><time>2026-05-01T14:37:33.675Z</time></trkpt><trkpt lat="39.6615897" lon="8.5430453"><ele>192.25</ele><time>2026-05-01T14:37:34.675Z</time></trkpt><trkpt lat="39.6617162" lon="8.5429992"><ele>192.0</ele><time>2026-05-01T14:37:35.675Z</time></trkpt><trkpt lat="39.6618566" lon="8.5429369"><ele>193.25</ele><time>2026-05-01T14:37:36.676Z</time></trkpt><trkpt lat="39.6620026" lon="8.5428993"><ele>194.5</ele><time>2026-05-01T14:37:37.676Z</time></trkpt><trkpt lat="39.6621443" lon="8.5428557"><ele>195.75</ele><time>2026-05-01T14:37:38.675Z</time></trkpt><trkpt lat="39.6622697" lon="8.5427906"><ele>197.0</ele><time>2026-05-01T14:37:39.676Z</time></trkpt><trkpt lat="39.6623696" lon="8.5427263"><ele>197.39999999999998</ele><time>2026-05-01T14:37:40.675Z</time></trkpt><trkpt lat="39.6624392" lon="8.5426792"><ele>197.79999999999998</ele><time>2026-05-01T14:37:41.676Z</time></trkpt><trkpt lat="39.6625206" lon="8.5425993"><ele>198.2</ele><time>2026-05-01T14:37:43.676Z</time></trkpt><trkpt lat="39.6626119" lon="8.5425142"><ele>198.6</ele><time>2026-05-01T14:37:54.676Z</time></trkpt><trkpt lat="39.6626864" lon="8.5424543"><ele>199.0</ele><time>2026-05-01T14:37:55.676Z</time></trkpt><trkpt lat="39.6627671" lon="8.542408"><ele>199.2</ele><time>2026-05-01T14:37:56.675Z</time></trkpt><trkpt lat="39.6628382" lon="8.5423353"><ele>199.39999999999998</ele><time>2026-05-01T14:37:57.676Z</time></trkpt><trkpt lat="39.6629088" lon="8.5422338"><ele>199.6</ele><time>2026-05-01T14:37:58.676Z</time></trkpt><trkpt lat="39.6629905" lon="8.5421166"><ele>199.8</ele><time>2026-05-01T14:37:59.677Z</time></trkpt><trkpt lat="39.6630687" lon="8.5419934"><ele>200.0</ele><time>2026-05-01T14:38:00.676Z</time></trkpt><trkpt lat="39.6631516" lon="8.5418634"><ele>197.75</ele><time>2026-05-01T14:38:01.677Z</time></trkpt><trkpt lat="39.6632407" lon="8.5417328"><ele>195.5</ele><time>2026-05-01T14:38:02.676Z</time></trkpt><trkpt lat="39.6633237" lon="8.5416158"><ele>193.25</ele><time>2026-05-01T14:38:03.676Z</time></trkpt><trkpt lat="39.6633957" lon="8.5414962"><ele>191.0</ele><time>2026-05-01T14:38:04.676Z</time></trkpt><trkpt lat="39.6634632" lon="8.5413861"><ele>191.0</ele><time>2026-05-01T14:38:05.677Z</time></trkpt><trkpt lat="39.6635396" lon="8.5413475"><ele>191.0</ele><time>2026-05-01T14:38:06.676Z</time></trkpt><trkpt lat="39.6636" lon="8.5412753"><ele>191.0</ele><time>2026-05-01T14:38:07.677Z</time></trkpt><trkpt lat="39.6636633" lon="8.5412073"><ele>191.0</ele><time>2026-05-01T14:38:09.676Z</time></trkpt><trkpt lat="39.6637507" lon="8.5411668"><ele>191.0</ele><time>2026-05-01T14:38:15.675Z</time></trkpt><trkpt lat="39.6638002" lon="8.541111"><ele>191.0</ele><time>2026-05-01T14:38:16.677Z</time></trkpt><trkpt lat="39.6638631" lon="8.5410384"><ele>187.4</ele><time>2026-05-01T14:38:17.677Z</time></trkpt><trkpt lat="39.6639447" lon="8.5409556"><ele>183.8</ele><time>2026-05-01T14:38:18.677Z</time></trkpt><trkpt lat="39.6640111" lon="8.5408673"><ele>180.20000000000002</ele><time>2026-05-01T14:38:19.677Z</time></trkpt><trkpt lat="39.6640869" lon="8.5407785"><ele>176.60000000000002</ele><time>2026-05-01T14:38:20.676Z</time></trkpt><trkpt lat="39.6641546" lon="8.5406719"><ele>173.0</ele><time>2026-05-01T14:38:21.675Z</time></trkpt><trkpt lat="39.6642015" lon="8.5405547"><ele>173.0</ele><time>2026-05-01T14:38:22.675Z</time></trkpt><trkpt lat="39.6642416" lon="8.5404398"><ele>173.0</ele><time>2026-05-01T14:38:23.675Z</time></trkpt><trkpt lat="39.6642625" lon="8.5403517"><ele>173.0</ele><time>2026-05-01T14:38:24.676Z</time></trkpt><trkpt lat="39.6642901" lon="8.5402214"><ele>173.0</ele><time>2026-05-01T14:38:26.677Z</time></trkpt><trkpt lat="39.6643329" lon="8.540098"><ele>173.0</ele><time>2026-05-01T14:38:28.677Z</time></trkpt><trkpt lat="39.6643587" lon="8.5400205"><ele>173.0</ele><time>2026-05-01T14:38:29.677Z</time></trkpt><trkpt lat="39.6644172" lon="8.5399297"><ele>170.4</ele><time>2026-05-01T14:38:30.677Z</time></trkpt><trkpt lat="39.6644953" lon="8.539831"><ele>167.8</ele><time>2026-05-01T14:38:31.677Z</time></trkpt><trkpt lat="39.6645697" lon="8.5397437"><ele>165.2</ele><time>2026-05-01T14:38:32.675Z</time></trkpt><trkpt lat="39.6646408" lon="8.5396728"><ele>162.6</ele><time>2026-05-01T14:38:33.675Z</time></trkpt><trkpt lat="39.6647256" lon="8.5396226"><ele>160.0</ele><time>2026-05-01T14:38:34.675Z</time></trkpt><trkpt lat="39.6648044" lon="8.5395648"><ele>159.5</ele><time>2026-05-01T14:38:35.676Z</time></trkpt><trkpt lat="39.6648606" lon="8.5394918"><ele>159.0</ele><time>2026-05-01T14:38:36.676Z</time></trkpt><trkpt lat="39.664926" lon="8.5393825"><ele>158.5</ele><time>2026-05-01T14:38:37.676Z</time></trkpt><trkpt lat="39.6649654" lon="8.5392716"><ele>158.0</ele><time>2026-05-01T14:38:38.677Z</time></trkpt><trkpt lat="39.664997" lon="8.5391897"><ele>157.5</ele><time>2026-05-01T14:38:39.675Z</time></trkpt><trkpt lat="39.6650414" lon="8.5391195"><ele>157.0</ele><time>2026-05-01T14:38:40.676Z</time></trkpt><trkpt lat="39.6651689" lon="8.5390582"><ele>157.0</ele><time>2026-05-01T14:38:42.676Z</time></trkpt><trkpt lat="39.6652423" lon="8.5390172"><ele>157.0</ele><time>2026-05-01T14:38:43.675Z</time></trkpt><trkpt lat="39.6653182" lon="8.538953"><ele>157.0</ele><time>2026-05-01T14:38:44.676Z</time></trkpt><trkpt lat="39.665382" lon="8.5388485"><ele>157.0</ele><time>2026-05-01T14:38:45.676Z</time></trkpt><trkpt lat="39.6654563" lon="8.5387389"><ele>157.0</ele><time>2026-05-01T14:38:46.676Z</time></trkpt><trkpt lat="39.665543" lon="8.5386408"><ele>154.6</ele><time>2026-05-01T14:38:47.677Z</time></trkpt><trkpt lat="39.6656305" lon="8.5385573"><ele>152.2</ele><time>2026-05-01T14:38:48.675Z</time></trkpt><trkpt lat="39.6657078" lon="8.5384971"><ele>149.8</ele><time>2026-05-01T14:38:49.676Z</time></trkpt><trkpt lat="39.6657907" lon="8.5384755"><ele>147.4</ele><time>2026-05-01T14:38:50.677Z</time></trkpt><trkpt lat="39.6658964" lon="8.5384665"><ele>145.0</ele><time>2026-05-01T14:38:51.676Z</time></trkpt><trkpt lat="39.6659973" lon="8.5384563"><ele>145.0</ele><time>2026-05-01T14:38:52.676Z</time></trkpt><trkpt lat="39.6660884" lon="8.5384197"><ele>145.0</ele><time>2026-05-01T14:38:53.675Z</time></trkpt><trkpt lat="39.6661731" lon="8.5383457"><ele>145.0</ele><time>2026-05-01T14:38:54.676Z</time></trkpt><trkpt lat="39.6662493" lon="8.5382473"><ele>145.0</ele><time>2026-05-01T14:38:55.676Z</time></trkpt><trkpt lat="39.6663103" lon="8.5381519"><ele>145.0</ele><time>2026-05-01T14:38:56.675Z</time></trkpt><trkpt lat="39.6663621" lon="8.5380629"><ele>142.0</ele><time>2026-05-01T14:38:57.676Z</time></trkpt><trkpt lat="39.6664189" lon="8.5379843"><ele>139.0</ele><time>2026-05-01T14:38:58.676Z</time></trkpt><trkpt lat="39.6664856" lon="8.5378946"><ele>136.0</ele><time>2026-05-01T14:38:59.677Z</time></trkpt><trkpt lat="39.6665653" lon="8.5377995"><ele>133.0</ele><time>2026-05-01T14:39:00.676Z</time></trkpt><trkpt lat="39.6666446" lon="8.5376925"><ele>130.0</ele><time>2026-05-01T14:39:01.676Z</time></trkpt><trkpt lat="39.6667339" lon="8.537574"><ele>129.75</ele><time>2026-05-01T14:39:02.676Z</time></trkpt><trkpt lat="39.6668163" lon="8.5374637"><ele>129.5</ele><time>2026-05-01T14:39:03.677Z</time></trkpt><trkpt lat="39.6668931" lon="8.5373552"><ele>129.25</ele><time>2026-05-01T14:39:04.676Z</time></trkpt><trkpt lat="39.666969" lon="8.5372476"><ele>129.0</ele><time>2026-05-01T14:39:05.675Z</time></trkpt><trkpt lat="39.6670335" lon="8.5371348"><ele>127.4</ele><time>2026-05-01T14:39:06.676Z</time></trkpt><trkpt lat="39.6671057" lon="8.5370465"><ele>125.80000000000001</ele><time>2026-05-01T14:39:07.676Z</time></trkpt><trkpt lat="39.6671951" lon="8.5369556"><ele>124.19999999999999</ele><time>2026-05-01T14:39:08.675Z</time></trkpt><trkpt lat="39.6672843" lon="8.5368597"><ele>122.6</ele><time>2026-05-01T14:39:09.676Z</time></trkpt><trkpt lat="39.6673575" lon="8.5367545"><ele>121.0</ele><time>2026-05-01T14:39:10.676Z</time></trkpt><trkpt lat="39.6674158" lon="8.5366456"><ele>121.0</ele><time>2026-05-01T14:39:11.675Z</time></trkpt><trkpt lat="39.6674832" lon="8.5365142"><ele>121.0</ele><time>2026-05-01T14:39:12.675Z</time></trkpt><trkpt lat="39.6675515" lon="8.5363751"><ele>121.0</ele><time>2026-05-01T14:39:13.675Z</time></trkpt><trkpt lat="39.667631" lon="8.5362425"><ele>121.0</ele><time>2026-05-01T14:39:14.676Z</time></trkpt><trkpt lat="39.667718" lon="8.5361257"><ele>120.0</ele><time>2026-05-01T14:39:15.676Z</time></trkpt><trkpt lat="39.667808" lon="8.5360027"><ele>119.0</ele><time>2026-05-01T14:39:16.676Z</time></trkpt><trkpt lat="39.6678951" lon="8.5358838"><ele>118.0</ele><time>2026-05-01T14:39:17.675Z</time></trkpt><trkpt lat="39.6679916" lon="8.5357713"><ele>117.0</ele><time>2026-05-01T14:39:18.676Z</time></trkpt><trkpt lat="39.6680905" lon="8.535668"><ele>117.0</ele><time>2026-05-01T14:39:19.677Z</time></trkpt><trkpt lat="39.6681905" lon="8.5355607"><ele>117.0</ele><time>2026-05-01T14:39:20.676Z</time></trkpt><trkpt lat="39.6682823" lon="8.5354621"><ele>117.0</ele><time>2026-05-01T14:39:21.676Z</time></trkpt><trkpt lat="39.6683772" lon="8.5353638"><ele>117.0</ele><time>2026-05-01T14:39:22.676Z</time></trkpt><trkpt lat="39.6684803" lon="8.5352689"><ele>114.75</ele><time>2026-05-01T14:39:23.676Z</time></trkpt><trkpt lat="39.668601" lon="8.5351768"><ele>112.5</ele><time>2026-05-01T14:39:24.675Z</time></trkpt><trkpt lat="39.6687279" lon="8.5350889"><ele>110.25</ele><time>2026-05-01T14:39:25.677Z</time></trkpt><trkpt lat="39.6688375" lon="8.5350054"><ele>108.0</ele><time>2026-05-01T14:39:26.676Z</time></trkpt><trkpt lat="39.6689281" lon="8.5349263"><ele>107.25</ele><time>2026-05-01T14:39:27.676Z</time></trkpt><trkpt lat="39.669008" lon="8.5348322"><ele>106.5</ele><time>2026-05-01T14:39:28.676Z</time></trkpt><trkpt lat="39.6690989" lon="8.5347203"><ele>105.75</ele><time>2026-05-01T14:39:29.674Z</time></trkpt><trkpt lat="39.6692097" lon="8.5346252"><ele>105.0</ele><time>2026-05-01T14:39:30.675Z</time></trkpt><trkpt lat="39.6693144" lon="8.5345255"><ele>105.0</ele><time>2026-05-01T14:39:31.675Z</time></trkpt><trkpt lat="39.6694017" lon="8.5344501"><ele>105.0</ele><time>2026-05-01T14:39:32.676Z</time></trkpt><trkpt lat="39.6694987" lon="8.5343816"><ele>105.0</ele><time>2026-05-01T14:39:33.676Z</time></trkpt><trkpt lat="39.6696043" lon="8.5343099"><ele>105.0</ele><time>2026-05-01T14:39:34.675Z</time></trkpt><trkpt lat="39.6696935" lon="8.534228"><ele>105.0</ele><time>2026-05-01T14:39:35.675Z</time></trkpt><trkpt lat="39.6697827" lon="8.5341176"><ele>104.6</ele><time>2026-05-01T14:39:36.675Z</time></trkpt><trkpt lat="39.6698743" lon="8.5339951"><ele>104.2</ele><time>2026-05-01T14:39:37.675Z</time></trkpt><trkpt lat="39.6699549" lon="8.5339061"><ele>103.80000000000001</ele><time>2026-05-01T14:39:38.675Z</time></trkpt><trkpt lat="39.6700281" lon="8.533833"><ele>103.4</ele><time>2026-05-01T14:39:39.676Z</time></trkpt><trkpt lat="39.6701224" lon="8.5337761"><ele>103.0</ele><time>2026-05-01T14:39:40.674Z</time></trkpt><trkpt lat="39.6702286" lon="8.5337248"><ele>101.25</ele><time>2026-05-01T14:39:41.676Z</time></trkpt><trkpt lat="39.6703551" lon="8.5336713"><ele>99.5</ele><time>2026-05-01T14:39:42.675Z</time></trkpt><trkpt lat="39.670466" lon="8.5336214"><ele>97.75</ele><time>2026-05-01T14:39:43.675Z</time></trkpt><trkpt lat="39.6705776" lon="8.5335536"><ele>96.0</ele><time>2026-05-01T14:39:44.674Z</time></trkpt><trkpt lat="39.670684" lon="8.5334834"><ele>96.0</ele><time>2026-05-01T14:39:45.676Z</time></trkpt><trkpt lat="39.6707753" lon="8.5334111"><ele>96.0</ele><time>2026-05-01T14:39:46.676Z</time></trkpt><trkpt lat="39.6708609" lon="8.5333208"><ele>96.0</ele><time>2026-05-01T14:39:47.676Z</time></trkpt><trkpt lat="39.6709248" lon="8.5332223"><ele>96.0</ele><time>2026-05-01T14:39:48.675Z</time></trkpt><trkpt lat="39.6709842" lon="8.5331035"><ele>96.0</ele><time>2026-05-01T14:39:49.675Z</time></trkpt><trkpt lat="39.6710503" lon="8.532968"><ele>95.0</ele><time>2026-05-01T14:39:50.676Z</time></trkpt><trkpt lat="39.6711309" lon="8.532817"><ele>94.0</ele><time>2026-05-01T14:39:51.674Z</time></trkpt><trkpt lat="39.6712098" lon="8.5326564"><ele>93.0</ele><time>2026-05-01T14:39:52.674Z</time></trkpt><trkpt lat="39.6712812" lon="8.5325134"><ele>92.0</ele><time>2026-05-01T14:39:53.676Z</time></trkpt><trkpt lat="39.6713476" lon="8.5323924"><ele>92.0</ele><time>2026-05-01T14:39:54.676Z</time></trkpt><trkpt lat="39.6714231" lon="8.5322912"><ele>92.0</ele><time>2026-05-01T14:39:55.675Z</time></trkpt><trkpt lat="39.6715176" lon="8.5322024"><ele>92.0</ele><time>2026-05-01T14:39:56.676Z</time></trkpt><trkpt lat="39.6716274" lon="8.5320992"><ele>92.0</ele><time>2026-05-01T14:39:57.675Z</time></trkpt><trkpt lat="39.6717329" lon="8.531994"><ele>90.0</ele><time>2026-05-01T14:39:58.675Z</time></trkpt><trkpt lat="39.6718302" lon="8.5318837"><ele>88.0</ele><time>2026-05-01T14:39:59.675Z</time></trkpt><trkpt lat="39.6719038" lon="8.5317444"><ele>86.0</ele><time>2026-05-01T14:40:00.675Z</time></trkpt><trkpt lat="39.6719697" lon="8.5315899"><ele>84.0</ele><time>2026-05-01T14:40:01.675Z</time></trkpt><trkpt lat="39.6720353" lon="8.5314391"><ele>84.0</ele><time>2026-05-01T14:40:02.676Z</time></trkpt><trkpt lat="39.6721195" lon="8.5312845"><ele>84.0</ele><time>2026-05-01T14:40:03.676Z</time></trkpt><trkpt lat="39.6722092" lon="8.5311124"><ele>84.0</ele><time>2026-05-01T14:40:04.676Z</time></trkpt><trkpt lat="39.6722909" lon="8.5309519"><ele>82.5</ele><time>2026-05-01T14:40:05.676Z</time></trkpt><trkpt lat="39.6723692" lon="8.5308096"><ele>81.0</ele><time>2026-05-01T14:40:06.676Z</time></trkpt><trkpt lat="39.6724498" lon="8.5306861"><ele>79.5</ele><time>2026-05-01T14:40:07.676Z</time></trkpt><trkpt lat="39.6725431" lon="8.5305746"><ele>78.0</ele><time>2026-05-01T14:40:08.676Z</time></trkpt><trkpt lat="39.6726557" lon="8.5304742"><ele>75.66666666666667</ele><time>2026-05-01T14:40:09.675Z</time></trkpt><trkpt lat="39.6727885" lon="8.5303631"><ele>73.33333333333334</ele><time>2026-05-01T14:40:10.676Z</time></trkpt><trkpt lat="39.6729303" lon="8.5302395"><ele>71.0</ele><time>2026-05-01T14:40:11.676Z</time></trkpt><trkpt lat="39.6730543" lon="8.5301249"><ele>71.0</ele><time>2026-05-01T14:40:12.675Z</time></trkpt><trkpt lat="39.6731652" lon="8.5300157"><ele>71.0</ele><time>2026-05-01T14:40:13.675Z</time></trkpt><trkpt lat="39.6732682" lon="8.5299248"><ele>71.0</ele><time>2026-05-01T14:40:14.675Z</time></trkpt><trkpt lat="39.6733637" lon="8.5298458"><ele>71.0</ele><time>2026-05-01T14:40:15.676Z</time></trkpt><trkpt lat="39.6734618" lon="8.5297499"><ele>71.0</ele><time>2026-05-01T14:40:16.675Z</time></trkpt><trkpt lat="39.6735753" lon="8.5296401"><ele>71.0</ele><time>2026-05-01T14:40:17.674Z</time></trkpt><trkpt lat="39.673688" lon="8.5295535"><ele>71.0</ele><time>2026-05-01T14:40:18.676Z</time></trkpt><trkpt lat="39.6738139" lon="8.5294745"><ele>71.0</ele><time>2026-05-01T14:40:19.676Z</time></trkpt><trkpt lat="39.673952" lon="8.5293925"><ele>70.5</ele><time>2026-05-01T14:40:20.676Z</time></trkpt><trkpt lat="39.6740923" lon="8.5293112"><ele>70.0</ele><time>2026-05-01T14:40:21.675Z</time></trkpt><trkpt lat="39.6742298" lon="8.5292402"><ele>69.5</ele><time>2026-05-01T14:40:22.674Z</time></trkpt><trkpt lat="39.6743652" lon="8.5291657"><ele>69.0</ele><time>2026-05-01T14:40:23.674Z</time></trkpt><trkpt lat="39.6744965" lon="8.5290934"><ele>68.5</ele><time>2026-05-01T14:40:24.674Z</time></trkpt><trkpt lat="39.6746291" lon="8.5290424"><ele>68.0</ele><time>2026-05-01T14:40:25.674Z</time></trkpt><trkpt lat="39.6747544" lon="8.5290165"><ele>67.5</ele><time>2026-05-01T14:40:26.675Z</time></trkpt><trkpt lat="39.6748791" lon="8.5289807"><ele>67.0</ele><time>2026-05-01T14:40:27.675Z</time></trkpt><trkpt lat="39.6750048" lon="8.5289206"><ele>67.0</ele><time>2026-05-01T14:40:28.674Z</time></trkpt><trkpt lat="39.6751184" lon="8.5288462"><ele>67.0</ele><time>2026-05-01T14:40:29.676Z</time></trkpt><trkpt lat="39.6752113" lon="8.5287758"><ele>67.0</ele><time>2026-05-01T14:40:30.674Z</time></trkpt><trkpt lat="39.6753054" lon="8.5286981"><ele>67.0</ele><time>2026-05-01T14:40:31.674Z</time></trkpt><trkpt lat="39.6754104" lon="8.5286105"><ele>67.0</ele><time>2026-05-01T14:40:32.675Z</time></trkpt><trkpt lat="39.6755123" lon="8.5285303"><ele>67.0</ele><time>2026-05-01T14:40:33.674Z</time></trkpt><trkpt lat="39.6756087" lon="8.5284572"><ele>67.0</ele><time>2026-05-01T14:40:34.674Z</time></trkpt><trkpt lat="39.6757026" lon="8.52839"><ele>67.0</ele><time>2026-05-01T14:40:35.675Z</time></trkpt><trkpt lat="39.6758225" lon="8.5283593"><ele>67.0</ele><time>2026-05-01T14:40:36.675Z</time></trkpt><trkpt lat="39.6759402" lon="8.528342"><ele>67.0</ele><time>2026-05-01T14:40:37.675Z</time></trkpt><trkpt lat="39.6760404" lon="8.5283464"><ele>67.0</ele><time>2026-05-01T14:40:38.674Z</time></trkpt><trkpt lat="39.6761365" lon="8.5283661"><ele>67.0</ele><time>2026-05-01T14:40:39.674Z</time></trkpt><trkpt lat="39.6762252" lon="8.5284084"><ele>67.0</ele><time>2026-05-01T14:40:40.675Z</time></trkpt><trkpt lat="39.6763133" lon="8.5284845"><ele>66.6</ele><time>2026-05-01T14:40:41.676Z</time></trkpt><trkpt lat="39.6764035" lon="8.5285867"><ele>66.2</ele><time>2026-05-01T14:40:42.676Z</time></trkpt><trkpt lat="39.6764986" lon="8.5286795"><ele>65.8</ele><time>2026-05-01T14:40:43.674Z</time></trkpt><trkpt lat="39.676592" lon="8.5287527"><ele>65.4</ele><time>2026-05-01T14:40:44.676Z</time></trkpt><trkpt lat="39.6766714" lon="8.5288238"><ele>65.0</ele><time>2026-05-01T14:40:45.675Z</time></trkpt><trkpt lat="39.6767301" lon="8.5288864"><ele>64.83333333333334</ele><time>2026-05-01T14:40:46.675Z</time></trkpt><trkpt lat="39.6767773" lon="8.528955"><ele>64.66666666666667</ele><time>2026-05-01T14:40:47.675Z</time></trkpt><trkpt lat="39.6768232" lon="8.5290436"><ele>64.5</ele><time>2026-05-01T14:40:48.676Z</time></trkpt><trkpt lat="39.6768673" lon="8.5291593"><ele>64.33333333333333</ele><time>2026-05-01T14:40:49.675Z</time></trkpt><trkpt lat="39.6769026" lon="8.5292799"><ele>64.16666666666666</ele><time>2026-05-01T14:40:50.675Z</time></trkpt><trkpt lat="39.6769418" lon="8.5293876"><ele>64.0</ele><time>2026-05-01T14:40:51.675Z</time></trkpt><trkpt lat="39.6769939" lon="8.5294857"><ele>63.0</ele><time>2026-05-01T14:40:52.675Z</time></trkpt><trkpt lat="39.677062" lon="8.5295512"><ele>62.0</ele><time>2026-05-01T14:40:53.676Z</time></trkpt><trkpt lat="39.6771528" lon="8.5295965"><ele>61.0</ele><time>2026-05-01T14:40:54.674Z</time></trkpt><trkpt lat="39.677275" lon="8.5296414"><ele>60.0</ele><time>2026-05-01T14:40:55.675Z</time></trkpt><trkpt lat="39.6774132" lon="8.5296994"><ele>60.0</ele><time>2026-05-01T14:40:56.674Z</time></trkpt><trkpt lat="39.677566" lon="8.5297659"><ele>60.0</ele><time>2026-05-01T14:40:57.675Z</time></trkpt><trkpt lat="39.6777303" lon="8.5298404"><ele>60.0</ele><time>2026-05-01T14:40:58.674Z</time></trkpt><trkpt lat="39.6778965" lon="8.5299158"><ele>59.33333333333333</ele><time>2026-05-01T14:40:59.676Z</time></trkpt><trkpt lat="39.6780577" lon="8.5299939"><ele>58.666666666666664</ele><time>2026-05-01T14:41:00.676Z</time></trkpt><trkpt lat="39.6782036" lon="8.5300762"><ele>58.0</ele><time>2026-05-01T14:41:01.675Z</time></trkpt><trkpt lat="39.6783372" lon="8.5301765"><ele>58.0</ele><time>2026-05-01T14:41:02.675Z</time></trkpt><trkpt lat="39.678459" lon="8.5302958"><ele>58.0</ele><time>2026-05-01T14:41:03.676Z</time></trkpt><trkpt lat="39.6785749" lon="8.5304437"><ele>58.0</ele><time>2026-05-01T14:41:04.676Z</time></trkpt><trkpt lat="39.6786795" lon="8.5305905"><ele>57.2</ele><time>2026-05-01T14:41:05.675Z</time></trkpt><trkpt lat="39.6787707" lon="8.530713"><ele>56.4</ele><time>2026-05-01T14:41:06.675Z</time></trkpt><trkpt lat="39.6788579" lon="8.5308096"><ele>55.60000000000001</ele><time>2026-05-01T14:41:07.675Z</time></trkpt><trkpt lat="39.6789393" lon="8.530867"><ele>54.800000000000004</ele><time>2026-05-01T14:41:08.676Z</time></trkpt><trkpt lat="39.6790077" lon="8.5308947"><ele>54.0</ele><time>2026-05-01T14:41:09.676Z</time></trkpt><trkpt lat="39.6790907" lon="8.5308464"><ele>54.0</ele><time>2026-05-01T14:41:11.674Z</time></trkpt><trkpt lat="39.6790984" lon="8.5306779"><ele>54.00000000000001</ele><time>2026-05-01T14:41:13.676Z</time></trkpt><trkpt lat="39.6790856" lon="8.5305452"><ele>54.00000000000001</ele><time>2026-05-01T14:41:14.675Z</time></trkpt><trkpt lat="39.6790809" lon="8.5304106"><ele>54.0</ele><time>2026-05-01T14:41:15.674Z</time></trkpt><trkpt lat="39.6790727" lon="8.5302905"><ele>54.0</ele><time>2026-05-01T14:41:16.676Z</time></trkpt><trkpt lat="39.6790711" lon="8.5301784"><ele>54.166666666666664</ele><time>2026-05-01T14:41:17.675Z</time></trkpt><trkpt lat="39.6790771" lon="8.5300875"><ele>54.33333333333333</ele><time>2026-05-01T14:41:18.675Z</time></trkpt><trkpt lat="39.6790783" lon="8.5299958"><ele>54.5</ele><time>2026-05-01T14:41:19.675Z</time></trkpt><trkpt lat="39.6790777" lon="8.5299104"><ele>54.666666666666664</ele><time>2026-05-01T14:41:20.676Z</time></trkpt><trkpt lat="39.6790956" lon="8.5297711"><ele>54.83333333333333</ele><time>2026-05-01T14:41:22.676Z</time></trkpt><trkpt lat="39.6791321" lon="8.5296703"><ele>55.0</ele><time>2026-05-01T14:41:24.675Z</time></trkpt><trkpt lat="39.6791483" lon="8.5295825"><ele>55.2</ele><time>2026-05-01T14:41:26.676Z</time></trkpt><trkpt lat="39.6790931" lon="8.529514"><ele>55.4</ele><time>2026-05-01T14:41:29.675Z</time></trkpt><trkpt lat="39.6790614" lon="8.5293902"><ele>55.599999999999994</ele><time>2026-05-01T14:41:31.675Z</time></trkpt><trkpt lat="39.6790892" lon="8.5292809"><ele>55.8</ele><time>2026-05-01T14:41:32.676Z</time></trkpt><trkpt lat="39.679108" lon="8.5291433"><ele>56.0</ele><time>2026-05-01T14:41:33.675Z</time></trkpt><trkpt lat="39.6791188" lon="8.5289643"><ele>56.0</ele><time>2026-05-01T14:41:34.674Z</time></trkpt><trkpt lat="39.6791345" lon="8.528758"><ele>56.0</ele><time>2026-05-01T14:41:35.675Z</time></trkpt><trkpt lat="39.6791449" lon="8.5285233"><ele>56.0</ele><time>2026-05-01T14:41:36.675Z</time></trkpt><trkpt lat="39.6791415" lon="8.5283288"><ele>55.333333333333336</ele><time>2026-05-01T14:41:37.675Z</time></trkpt><trkpt lat="39.6791232" lon="8.5281418"><ele>54.66666666666667</ele><time>2026-05-01T14:41:38.674Z</time></trkpt><trkpt lat="39.6790931" lon="8.5279481"><ele>54.0</ele><time>2026-05-01T14:41:39.674Z</time></trkpt><trkpt lat="39.6790643" lon="8.5277503"><ele>52.66666666666667</ele><time>2026-05-01T14:41:40.674Z</time></trkpt><trkpt lat="39.6790462" lon="8.5275358"><ele>51.333333333333336</ele><time>2026-05-01T14:41:41.675Z</time></trkpt><trkpt lat="39.6790388" lon="8.5273164"><ele>50.0</ele><time>2026-05-01T14:41:42.675Z</time></trkpt><trkpt lat="39.6790293" lon="8.5271048"><ele>49.6</ele><time>2026-05-01T14:41:43.675Z</time></trkpt><trkpt lat="39.6790167" lon="8.5269332"><ele>49.2</ele><time>2026-05-01T14:41:44.675Z</time></trkpt><trkpt lat="39.6790181" lon="8.5267947"><ele>48.8</ele><time>2026-05-01T14:41:45.675Z</time></trkpt><trkpt lat="39.6790371" lon="8.5266853"><ele>48.4</ele><time>2026-05-01T14:41:46.676Z</time></trkpt><trkpt lat="39.679076" lon="8.5266056"><ele>48.0</ele><time>2026-05-01T14:41:47.675Z</time></trkpt><trkpt lat="39.6791304" lon="8.526551"><ele>48.0</ele><time>2026-05-01T14:41:48.675Z</time></trkpt><trkpt lat="39.6792122" lon="8.5265188"><ele>48.0</ele><time>2026-05-01T14:41:49.675Z</time></trkpt><trkpt lat="39.6793271" lon="8.5265204"><ele>48.0</ele><time>2026-05-01T14:41:50.675Z</time></trkpt><trkpt lat="39.6794671" lon="8.5265209"><ele>48.0</ele><time>2026-05-01T14:41:51.674Z</time></trkpt><trkpt lat="39.6796242" lon="8.5264992"><ele>47.5</ele><time>2026-05-01T14:41:52.674Z</time></trkpt><trkpt lat="39.6797682" lon="8.5264696"><ele>47.0</ele><time>2026-05-01T14:41:53.675Z</time></trkpt><trkpt lat="39.679878" lon="8.5264355"><ele>46.5</ele><time>2026-05-01T14:41:54.676Z</time></trkpt><trkpt lat="39.679964" lon="8.5263863"><ele>46.0</ele><time>2026-05-01T14:41:55.674Z</time></trkpt><trkpt lat="39.6800331" lon="8.5262942"><ele>45.25</ele><time>2026-05-01T14:41:56.675Z</time></trkpt><trkpt lat="39.6801194" lon="8.5261804"><ele>44.5</ele><time>2026-05-01T14:41:57.676Z</time></trkpt><trkpt lat="39.6802193" lon="8.526068"><ele>43.75</ele><time>2026-05-01T14:41:58.675Z</time></trkpt><trkpt lat="39.6803129" lon="8.5259984"><ele>43.0</ele><time>2026-05-01T14:41:59.675Z</time></trkpt><trkpt lat="39.6804342" lon="8.52594"><ele>42.333333333333336</ele><time>2026-05-01T14:42:00.674Z</time></trkpt><trkpt lat="39.6805743" lon="8.5258744"><ele>41.666666666666664</ele><time>2026-05-01T14:42:01.676Z</time></trkpt><trkpt lat="39.6807229" lon="8.5257755"><ele>41.0</ele><time>2026-05-01T14:42:02.676Z</time></trkpt><trkpt lat="39.6808641" lon="8.5256548"><ele>41.0</ele><time>2026-05-01T14:42:03.675Z</time></trkpt><trkpt lat="39.6809879" lon="8.5255399"><ele>41.0</ele><time>2026-05-01T14:42:04.675Z</time></trkpt><trkpt lat="39.6811074" lon="8.5254341"><ele>41.0</ele><time>2026-05-01T14:42:05.675Z</time></trkpt><trkpt lat="39.6812383" lon="8.5253488"><ele>41.0</ele><time>2026-05-01T14:42:06.675Z</time></trkpt><trkpt lat="39.6813913" lon="8.5252681"><ele>38.33333333333333</ele><time>2026-05-01T14:42:07.675Z</time></trkpt><trkpt lat="39.6815312" lon="8.5251712"><ele>35.666666666666664</ele><time>2026-05-01T14:42:08.675Z</time></trkpt><trkpt lat="39.6816733" lon="8.5250592"><ele>33.0</ele><time>2026-05-01T14:42:09.676Z</time></trkpt><trkpt lat="39.6818181" lon="8.5249532"><ele>30.333333333333336</ele><time>2026-05-01T14:42:10.676Z</time></trkpt><trkpt lat="39.6819739" lon="8.524863"><ele>27.666666666666668</ele><time>2026-05-01T14:42:11.674Z</time></trkpt><trkpt lat="39.6821262" lon="8.5247654"><ele>25.0</ele><time>2026-05-01T14:42:12.676Z</time></trkpt><trkpt lat="39.6822702" lon="8.5246544"><ele>25.75</ele><time>2026-05-01T14:42:13.674Z</time></trkpt><trkpt lat="39.6823952" lon="8.5245441"><ele>26.5</ele><time>2026-05-01T14:42:14.675Z</time></trkpt><trkpt lat="39.6824921" lon="8.5244657"><ele>27.25</ele><time>2026-05-01T14:42:15.674Z</time></trkpt><trkpt lat="39.6825859" lon="8.5244176"><ele>28.0</ele><time>2026-05-01T14:42:16.674Z</time></trkpt><trkpt lat="39.6826934" lon="8.5243834"><ele>27.75</ele><time>2026-05-01T14:42:17.675Z</time></trkpt><trkpt lat="39.6828209" lon="8.5243443"><ele>27.5</ele><time>2026-05-01T14:42:18.674Z</time></trkpt><trkpt lat="39.6829648" lon="8.524291"><ele>27.25</ele><time>2026-05-01T14:42:19.674Z</time></trkpt><trkpt lat="39.6831035" lon="8.524219"><ele>27.0</ele><time>2026-05-01T14:42:20.674Z</time></trkpt><trkpt lat="39.6832402" lon="8.5241326"><ele>27.0</ele><time>2026-05-01T14:42:21.675Z</time></trkpt><trkpt lat="39.683389" lon="8.5240402"><ele>27.0</ele><time>2026-05-01T14:42:22.675Z</time></trkpt><trkpt lat="39.683535" lon="8.5239603"><ele>27.0</ele><time>2026-05-01T14:42:23.676Z</time></trkpt><trkpt lat="39.6836771" lon="8.5239042"><ele>27.666666666666664</ele><time>2026-05-01T14:42:24.674Z</time></trkpt><trkpt lat="39.6838308" lon="8.523855"><ele>28.333333333333332</ele><time>2026-05-01T14:42:25.674Z</time></trkpt><trkpt lat="39.6839855" lon="8.5238115"><ele>29.0</ele><time>2026-05-01T14:42:26.675Z</time></trkpt><trkpt lat="39.6841399" lon="8.5237801"><ele>29.0</ele><time>2026-05-01T14:42:27.675Z</time></trkpt><trkpt lat="39.6842979" lon="8.5237368"><ele>29.0</ele><time>2026-05-01T14:42:28.676Z</time></trkpt><trkpt lat="39.684474" lon="8.5236733"><ele>29.0</ele><time>2026-05-01T14:42:29.676Z</time></trkpt><trkpt lat="39.6846591" lon="8.5235935"><ele>29.0</ele><time>2026-05-01T14:42:30.675Z</time></trkpt><trkpt lat="39.6848295" lon="8.523514"><ele>29.0</ele><time>2026-05-01T14:42:31.675Z</time></trkpt><trkpt lat="39.6849803" lon="8.5234442"><ele>29.0</ele><time>2026-05-01T14:42:32.674Z</time></trkpt><trkpt lat="39.6851166" lon="8.5233907"><ele>29.0</ele><time>2026-05-01T14:42:33.675Z</time></trkpt><trkpt lat="39.6852505" lon="8.5233602"><ele>29.0</ele><time>2026-05-01T14:42:34.674Z</time></trkpt><trkpt lat="39.6854" lon="8.523358"><ele>29.0</ele><time>2026-05-01T14:42:35.675Z</time></trkpt><trkpt lat="39.6855597" lon="8.5233787"><ele>29.0</ele><time>2026-05-01T14:42:36.675Z</time></trkpt><trkpt lat="39.6857255" lon="8.5234179"><ele>28.0</ele><time>2026-05-01T14:42:37.675Z</time></trkpt><trkpt lat="39.6858968" lon="8.5234532"><ele>27.0</ele><time>2026-05-01T14:42:38.674Z</time></trkpt><trkpt lat="39.6860734" lon="8.5234932"><ele>26.0</ele><time>2026-05-01T14:42:39.675Z</time></trkpt><trkpt lat="39.6862511" lon="8.5235382"><ele>26.0</ele><time>2026-05-01T14:42:40.675Z</time></trkpt><trkpt lat="39.6864284" lon="8.5235802"><ele>26.0</ele><time>2026-05-01T14:42:41.676Z</time></trkpt><trkpt lat="39.6866003" lon="8.5236096"><ele>26.0</ele><time>2026-05-01T14:42:42.674Z</time></trkpt><trkpt lat="39.6867738" lon="8.5236342"><ele>25.666666666666664</ele><time>2026-05-01T14:42:43.675Z</time></trkpt><trkpt lat="39.6869464" lon="8.5236536"><ele>25.333333333333336</ele><time>2026-05-01T14:42:44.675Z</time></trkpt><trkpt lat="39.6871152" lon="8.5236603"><ele>25.0</ele><time>2026-05-01T14:42:45.675Z</time></trkpt><trkpt lat="39.6872819" lon="8.5236516"><ele>25.0</ele><time>2026-05-01T14:42:46.676Z</time></trkpt><trkpt lat="39.6874406" lon="8.523633"><ele>25.0</ele><time>2026-05-01T14:42:47.675Z</time></trkpt><trkpt lat="39.6875986" lon="8.5235983"><ele>25.0</ele><time>2026-05-01T14:42:48.676Z</time></trkpt><trkpt lat="39.687758" lon="8.5235488"><ele>23.666666666666668</ele><time>2026-05-01T14:42:49.675Z</time></trkpt><trkpt lat="39.6879222" lon="8.5234841"><ele>22.333333333333336</ele><time>2026-05-01T14:42:50.675Z</time></trkpt><trkpt lat="39.6880876" lon="8.5234114"><ele>21.0</ele><time>2026-05-01T14:42:51.674Z</time></trkpt><trkpt lat="39.6882593" lon="8.5233461"><ele>21.0</ele><time>2026-05-01T14:42:52.674Z</time></trkpt><trkpt lat="39.6884369" lon="8.5232807"><ele>21.0</ele><time>2026-05-01T14:42:53.674Z</time></trkpt><trkpt lat="39.6886134" lon="8.5232143"><ele>21.0</ele><time>2026-05-01T14:42:54.675Z</time></trkpt><trkpt lat="39.6887864" lon="8.5231461"><ele>19.666666666666668</ele><time>2026-05-01T14:42:55.674Z</time></trkpt><trkpt lat="39.6889647" lon="8.5230765"><ele>18.333333333333336</ele><time>2026-05-01T14:42:56.674Z</time></trkpt><trkpt lat="39.689144" lon="8.5230056"><ele>17.0</ele><time>2026-05-01T14:42:57.674Z</time></trkpt><trkpt lat="39.6893235" lon="8.5229321"><ele>17.333333333333336</ele><time>2026-05-01T14:42:58.676Z</time></trkpt><trkpt lat="39.6895069" lon="8.5228621"><ele>17.666666666666668</ele><time>2026-05-01T14:42:59.675Z</time></trkpt><trkpt lat="39.6896839" lon="8.5227975"><ele>18.0</ele><time>2026-05-01T14:43:00.674Z</time></trkpt><trkpt lat="39.6898293" lon="8.5227513"><ele>18.0</ele><time>2026-05-01T14:43:01.675Z</time></trkpt><trkpt lat="39.6899499" lon="8.5227246"><ele>18.0</ele><time>2026-05-01T14:43:02.675Z</time></trkpt><trkpt lat="39.6900519" lon="8.5227231"><ele>18.0</ele><time>2026-05-01T14:43:03.675Z</time></trkpt><trkpt lat="39.6901519" lon="8.5227566"><ele>18.0</ele><time>2026-05-01T14:43:04.674Z</time></trkpt><trkpt lat="39.6902613" lon="8.522827"><ele>18.25</ele><time>2026-05-01T14:43:05.675Z</time></trkpt><trkpt lat="39.6903566" lon="8.522875"><ele>18.5</ele><time>2026-05-01T14:43:06.674Z</time></trkpt><trkpt lat="39.6904688" lon="8.5229036"><ele>18.75</ele><time>2026-05-01T14:43:07.675Z</time></trkpt><trkpt lat="39.690609" lon="8.5229388"><ele>19.0</ele><time>2026-05-01T14:43:08.674Z</time></trkpt><trkpt lat="39.6907279" lon="8.5229536"><ele>19.0</ele><time>2026-05-01T14:43:09.675Z</time></trkpt><trkpt lat="39.6908285" lon="8.5229483"><ele>19.0</ele><time>2026-05-01T14:43:10.675Z</time></trkpt><trkpt lat="39.6909312" lon="8.5229138"><ele>19.0</ele><time>2026-05-01T14:43:11.674Z</time></trkpt><trkpt lat="39.6910277" lon="8.5228687"><ele>19.0</ele><time>2026-05-01T14:43:12.674Z</time></trkpt><trkpt lat="39.6911019" lon="8.5228541"><ele>19.0</ele><time>2026-05-01T14:43:13.675Z</time></trkpt><trkpt lat="39.6912173" lon="8.5229444"><ele>17.599999999999998</ele><time>2026-05-01T14:43:15.675Z</time></trkpt><trkpt lat="39.691282" lon="8.5230578"><ele>16.2</ele><time>2026-05-01T14:43:16.675Z</time></trkpt><trkpt lat="39.6913505" lon="8.5232054"><ele>14.799999999999999</ele><time>2026-05-01T14:43:17.675Z</time></trkpt><trkpt lat="39.6914119" lon="8.523318"><ele>13.399999999999999</ele><time>2026-05-01T14:43:18.675Z</time></trkpt><trkpt lat="39.6914642" lon="8.5234182"><ele>12.0</ele><time>2026-05-01T14:43:19.675Z</time></trkpt><trkpt lat="39.6915245" lon="8.5235059"><ele>12.0</ele><time>2026-05-01T14:43:21.674Z</time></trkpt><trkpt lat="39.6915906" lon="8.5234375"><ele>12.0</ele><time>2026-05-01T14:43:25.675Z</time></trkpt><trkpt lat="39.6915931" lon="8.5233557"><ele>12.0</ele><time>2026-05-01T14:43:26.675Z</time></trkpt><trkpt lat="39.691606" lon="8.5232356"><ele>12.0</ele><time>2026-05-01T14:43:28.675Z</time></trkpt><trkpt lat="39.6915896" lon="8.5231109"><ele>12.0</ele><time>2026-05-01T14:43:40.674Z</time></trkpt><trkpt lat="39.691589" lon="8.5230182"><ele>12.0</ele><time>2026-05-01T14:43:41.674Z</time></trkpt><trkpt lat="39.6915875" lon="8.5228867"><ele>13.0</ele><time>2026-05-01T14:43:42.673Z</time></trkpt><trkpt lat="39.6915817" lon="8.5227252"><ele>14.0</ele><time>2026-05-01T14:43:43.674Z</time></trkpt><trkpt lat="39.6915838" lon="8.5225377"><ele>15.0</ele><time>2026-05-01T14:43:44.674Z</time></trkpt><trkpt lat="39.6915908" lon="8.5223323"><ele>16.0</ele><time>2026-05-01T14:43:45.675Z</time></trkpt><trkpt lat="39.6916034" lon="8.5221151"><ele>14.0</ele><time>2026-05-01T14:43:46.674Z</time></trkpt><trkpt lat="39.691621" lon="8.5218758"><ele>12.0</ele><time>2026-05-01T14:43:47.675Z</time></trkpt><trkpt lat="39.6916513" lon="8.5216322"><ele>10.0</ele><time>2026-05-01T14:43:48.675Z</time></trkpt><trkpt lat="39.6917067" lon="8.5213738"><ele>7.0</ele><time>2026-05-01T14:43:49.673Z</time></trkpt><trkpt lat="39.6917793" lon="8.521115"><ele>4.0</ele><time>2026-05-01T14:43:50.673Z</time></trkpt><trkpt lat="39.6918576" lon="8.5208562"><ele>1.0</ele><time>2026-05-01T14:43:51.674Z</time></trkpt><trkpt lat="39.691938" lon="8.5205935"><ele>1.0</ele><time>2026-05-01T14:43:52.675Z</time></trkpt><trkpt lat="39.6920157" lon="8.5203225"><ele>1.0</ele><time>2026-05-01T14:43:53.675Z</time></trkpt><trkpt lat="39.6920897" lon="8.520051"><ele>1.0</ele><time>2026-05-01T14:43:54.673Z</time></trkpt><trkpt lat="39.6921644" lon="8.5197802"><ele>1.6666666666666665</ele><time>2026-05-01T14:43:55.674Z</time></trkpt><trkpt lat="39.6922401" lon="8.5195114"><ele>2.3333333333333335</ele><time>2026-05-01T14:43:56.675Z</time></trkpt><trkpt lat="39.6923184" lon="8.5192451"><ele>3.0</ele><time>2026-05-01T14:43:57.673Z</time></trkpt><trkpt lat="39.6923979" lon="8.5189811"><ele>3.333333333333333</ele><time>2026-05-01T14:43:58.673Z</time></trkpt><trkpt lat="39.6924745" lon="8.5187241"><ele>3.6666666666666665</ele><time>2026-05-01T14:43:59.674Z</time></trkpt><trkpt lat="39.692547" lon="8.5184745"><ele>4.0</ele><time>2026-05-01T14:44:00.675Z</time></trkpt><trkpt lat="39.6926173" lon="8.5182274"><ele>4.0</ele><time>2026-05-01T14:44:01.673Z</time></trkpt><trkpt lat="39.6926807" lon="8.5179798"><ele>4.0</ele><time>2026-05-01T14:44:02.674Z</time></trkpt><trkpt lat="39.6927472" lon="8.5177335"><ele>4.0</ele><time>2026-05-01T14:44:03.673Z</time></trkpt><trkpt lat="39.6928153" lon="8.5174948"><ele>4.0</ele><time>2026-05-01T14:44:04.674Z</time></trkpt><trkpt lat="39.6928915" lon="8.5172614"><ele>4.0</ele><time>2026-05-01T14:44:05.674Z</time></trkpt><trkpt lat="39.6929858" lon="8.5170312"><ele>4.0</ele><time>2026-05-01T14:44:06.674Z</time></trkpt><trkpt lat="39.6931091" lon="8.5168119"><ele>4.0</ele><time>2026-05-01T14:44:07.674Z</time></trkpt><trkpt lat="39.6932641" lon="8.5166148"><ele>4.0</ele><time>2026-05-01T14:44:08.675Z</time></trkpt><trkpt lat="39.6934319" lon="8.5164229"><ele>4.0</ele><time>2026-05-01T14:44:09.675Z</time></trkpt><trkpt lat="39.6936006" lon="8.5162334"><ele>3.5</ele><time>2026-05-01T14:44:10.674Z</time></trkpt><trkpt lat="39.693774" lon="8.5160383"><ele>3.0</ele><time>2026-05-01T14:44:11.674Z</time></trkpt><trkpt lat="39.693956" lon="8.5158498"><ele>3.0</ele><time>2026-05-01T14:44:12.673Z</time></trkpt><trkpt lat="39.6941421" lon="8.5156744"><ele>3.0</ele><time>2026-05-01T14:44:13.673Z</time></trkpt><trkpt lat="39.694319" lon="8.5155033"><ele>4.5</ele><time>2026-05-01T14:44:14.673Z</time></trkpt><trkpt lat="39.6944989" lon="8.515316"><ele>6.0</ele><time>2026-05-01T14:44:15.673Z</time></trkpt><trkpt lat="39.6946823" lon="8.5151181"><ele>6.0</ele><time>2026-05-01T14:44:16.674Z</time></trkpt><trkpt lat="39.6948803" lon="8.5149188"><ele>6.0</ele><time>2026-05-01T14:44:17.673Z</time></trkpt><trkpt lat="39.6950867" lon="8.5147204"><ele>5.0</ele><time>2026-05-01T14:44:18.674Z</time></trkpt><trkpt lat="39.6952649" lon="8.5145326"><ele>4.0</ele><time>2026-05-01T14:44:19.675Z</time></trkpt><trkpt lat="39.6954393" lon="8.5143506"><ele>4.0</ele><time>2026-05-01T14:44:20.674Z</time></trkpt><trkpt lat="39.6956125" lon="8.5141733"><ele>4.0</ele><time>2026-05-01T14:44:21.675Z</time></trkpt><trkpt lat="39.6957854" lon="8.513999"><ele>4.0</ele><time>2026-05-01T14:44:22.673Z</time></trkpt><trkpt lat="39.6959503" lon="8.5138274"><ele>5.0</ele><time>2026-05-01T14:44:23.674Z</time></trkpt><trkpt lat="39.6961084" lon="8.5136573"><ele>6.0</ele><time>2026-05-01T14:44:24.674Z</time></trkpt><trkpt lat="39.6962597" lon="8.5135002"><ele>7.0</ele><time>2026-05-01T14:44:25.674Z</time></trkpt><trkpt lat="39.696402" lon="8.513362"><ele>7.0</ele><time>2026-05-01T14:44:26.674Z</time></trkpt><trkpt lat="39.6965489" lon="8.5132277"><ele>7.0</ele><time>2026-05-01T14:44:27.674Z</time></trkpt><trkpt lat="39.6967016" lon="8.5131041"><ele>7.0</ele><time>2026-05-01T14:44:28.674Z</time></trkpt><trkpt lat="39.6968588" lon="8.5129956"><ele>7.0</ele><time>2026-05-01T14:44:29.673Z</time></trkpt><trkpt lat="39.6970226" lon="8.5128985"><ele>7.0</ele><time>2026-05-01T14:44:30.675Z</time></trkpt><trkpt lat="39.6971905" lon="8.5128085"><ele>7.0</ele><time>2026-05-01T14:44:31.674Z</time></trkpt><trkpt lat="39.6973539" lon="8.5127235"><ele>7.0</ele><time>2026-05-01T14:44:32.675Z</time></trkpt><trkpt lat="39.6975154" lon="8.5126381"><ele>7.0</ele><time>2026-05-01T14:44:33.675Z</time></trkpt><trkpt lat="39.6976722" lon="8.5125596"><ele>7.0</ele><time>2026-05-01T14:44:34.674Z</time></trkpt><trkpt lat="39.697819" lon="8.5124835"><ele>7.333333333333334</ele><time>2026-05-01T14:44:35.674Z</time></trkpt><trkpt lat="39.6979647" lon="8.5124099"><ele>7.666666666666666</ele><time>2026-05-01T14:44:36.673Z</time></trkpt><trkpt lat="39.698111" lon="8.5123337"><ele>8.0</ele><time>2026-05-01T14:44:37.675Z</time></trkpt><trkpt lat="39.6982543" lon="8.5122571"><ele>8.0</ele><time>2026-05-01T14:44:38.674Z</time></trkpt><trkpt lat="39.6984014" lon="8.5121852"><ele>8.0</ele><time>2026-05-01T14:44:39.674Z</time></trkpt><trkpt lat="39.698552" lon="8.5121098"><ele>8.0</ele><time>2026-05-01T14:44:40.674Z</time></trkpt><trkpt lat="39.6987047" lon="8.5120325"><ele>9.333333333333332</ele><time>2026-05-01T14:44:41.673Z</time></trkpt><trkpt lat="39.6988592" lon="8.5119514"><ele>10.666666666666666</ele><time>2026-05-01T14:44:42.674Z</time></trkpt><trkpt lat="39.6990133" lon="8.5118713"><ele>12.0</ele><time>2026-05-01T14:44:43.673Z</time></trkpt><trkpt lat="39.6991652" lon="8.5117906"><ele>12.0</ele><time>2026-05-01T14:44:44.673Z</time></trkpt><trkpt lat="39.6993131" lon="8.5117134"><ele>12.0</ele><time>2026-05-01T14:44:45.674Z</time></trkpt><trkpt lat="39.6994648" lon="8.5116392"><ele>12.0</ele><time>2026-05-01T14:44:46.674Z</time></trkpt><trkpt lat="39.6996165" lon="8.5115634"><ele>11.666666666666666</ele><time>2026-05-01T14:44:47.674Z</time></trkpt><trkpt lat="39.6997661" lon="8.5114864"><ele>11.333333333333332</ele><time>2026-05-01T14:44:48.674Z</time></trkpt><trkpt lat="39.6999131" lon="8.5114055"><ele>11.0</ele><time>2026-05-01T14:44:49.675Z</time></trkpt><trkpt lat="39.7000601" lon="8.5113179"><ele>11.666666666666666</ele><time>2026-05-01T14:44:50.674Z</time></trkpt><trkpt lat="39.7002017" lon="8.5112128"><ele>12.333333333333332</ele><time>2026-05-01T14:44:51.674Z</time></trkpt><trkpt lat="39.7003334" lon="8.5110859"><ele>13.0</ele><time>2026-05-01T14:44:52.674Z</time></trkpt><trkpt lat="39.700451" lon="8.5109422"><ele>11.333333333333332</ele><time>2026-05-01T14:44:53.673Z</time></trkpt><trkpt lat="39.7005603" lon="8.5107823"><ele>9.666666666666666</ele><time>2026-05-01T14:44:54.674Z</time></trkpt><trkpt lat="39.7006566" lon="8.5106133"><ele>8.0</ele><time>2026-05-01T14:44:55.674Z</time></trkpt><trkpt lat="39.7007437" lon="8.5104373"><ele>7.666666666666666</ele><time>2026-05-01T14:44:56.675Z</time></trkpt><trkpt lat="39.7008332" lon="8.5102619"><ele>7.333333333333334</ele><time>2026-05-01T14:44:57.673Z</time></trkpt><trkpt lat="39.700924" lon="8.5100851"><ele>7.0</ele><time>2026-05-01T14:44:58.673Z</time></trkpt><trkpt lat="39.7010157" lon="8.509909"><ele>6.333333333333334</ele><time>2026-05-01T14:44:59.675Z</time></trkpt><trkpt lat="39.7011046" lon="8.5097334"><ele>5.666666666666667</ele><time>2026-05-01T14:45:00.673Z</time></trkpt><trkpt lat="39.7011903" lon="8.5095589"><ele>5.0</ele><time>2026-05-01T14:45:01.673Z</time></trkpt><trkpt lat="39.7012744" lon="8.5093859"><ele>6.333333333333334</ele><time>2026-05-01T14:45:02.674Z</time></trkpt><trkpt lat="39.7013579" lon="8.5092131"><ele>7.666666666666667</ele><time>2026-05-01T14:45:03.674Z</time></trkpt><trkpt lat="39.7014415" lon="8.5090394"><ele>9.0</ele><time>2026-05-01T14:45:04.675Z</time></trkpt><trkpt lat="39.701524" lon="8.5088636"><ele>10.0</ele><time>2026-05-01T14:45:05.674Z</time></trkpt><trkpt lat="39.7016086" lon="8.5086899"><ele>11.0</ele><time>2026-05-01T14:45:06.674Z</time></trkpt><trkpt lat="39.7016937" lon="8.5085155"><ele>12.0</ele><time>2026-05-01T14:45:07.674Z</time></trkpt><trkpt lat="39.7017802" lon="8.5083418"><ele>12.0</ele><time>2026-05-01T14:45:08.675Z</time></trkpt><trkpt lat="39.701867" lon="8.5081666"><ele>12.0</ele><time>2026-05-01T14:45:09.674Z</time></trkpt><trkpt lat="39.7019539" lon="8.5079921"><ele>12.0</ele><time>2026-05-01T14:45:10.675Z</time></trkpt><trkpt lat="39.7020406" lon="8.5078164"><ele>12.0</ele><time>2026-05-01T14:45:11.674Z</time></trkpt><trkpt lat="39.7021267" lon="8.507639"><ele>12.0</ele><time>2026-05-01T14:45:12.675Z</time></trkpt><trkpt lat="39.7022122" lon="8.5074641"><ele>12.0</ele><time>2026-05-01T14:45:13.673Z</time></trkpt><trkpt lat="39.7022969" lon="8.5072872"><ele>12.0</ele><time>2026-05-01T14:45:14.674Z</time></trkpt><trkpt lat="39.7023829" lon="8.507108"><ele>12.0</ele><time>2026-05-01T14:45:15.673Z</time></trkpt><trkpt lat="39.7024692" lon="8.5069284"><ele>12.0</ele><time>2026-05-01T14:45:16.674Z</time></trkpt><trkpt lat="39.7025573" lon="8.506745"><ele>12.0</ele><time>2026-05-01T14:45:17.674Z</time></trkpt><trkpt lat="39.7026463" lon="8.5065623"><ele>12.0</ele><time>2026-05-01T14:45:18.673Z</time></trkpt><trkpt lat="39.7027371" lon="8.5063843"><ele>12.0</ele><time>2026-05-01T14:45:19.673Z</time></trkpt><trkpt lat="39.7028227" lon="8.506207"><ele>10.666666666666666</ele><time>2026-05-01T14:45:20.674Z</time></trkpt><trkpt lat="39.7029109" lon="8.506028"><ele>9.333333333333332</ele><time>2026-05-01T14:45:21.675Z</time></trkpt><trkpt lat="39.7029989" lon="8.5058464"><ele>8.0</ele><time>2026-05-01T14:45:22.674Z</time></trkpt><trkpt lat="39.7030885" lon="8.5056634"><ele>8.0</ele><time>2026-05-01T14:45:23.674Z</time></trkpt><trkpt lat="39.7031733" lon="8.5054794"><ele>8.0</ele><time>2026-05-01T14:45:24.674Z</time></trkpt><trkpt lat="39.7032611" lon="8.5052986"><ele>8.0</ele><time>2026-05-01T14:45:25.674Z</time></trkpt><trkpt lat="39.7033509" lon="8.5051197"><ele>8.0</ele><time>2026-05-01T14:45:26.675Z</time></trkpt><trkpt lat="39.7034387" lon="8.5049439"><ele>8.0</ele><time>2026-05-01T14:45:27.673Z</time></trkpt><trkpt lat="39.703526" lon="8.5047724"><ele>8.0</ele><time>2026-05-01T14:45:28.674Z</time></trkpt><trkpt lat="39.7036099" lon="8.504602"><ele>8.666666666666666</ele><time>2026-05-01T14:45:29.673Z</time></trkpt><trkpt lat="39.7036918" lon="8.5044298"><ele>9.333333333333334</ele><time>2026-05-01T14:45:30.674Z</time></trkpt><trkpt lat="39.703776" lon="8.5042604"><ele>10.0</ele><time>2026-05-01T14:45:31.674Z</time></trkpt><trkpt lat="39.7038571" lon="8.5040902"><ele>10.0</ele><time>2026-05-01T14:45:32.674Z</time></trkpt><trkpt lat="39.7039382" lon="8.503923"><ele>10.0</ele><time>2026-05-01T14:45:33.674Z</time></trkpt><trkpt lat="39.7040195" lon="8.5037573"><ele>10.0</ele><time>2026-05-01T14:45:34.674Z</time></trkpt><trkpt lat="39.7041024" lon="8.5035925"><ele>10.666666666666668</ele><time>2026-05-01T14:45:35.674Z</time></trkpt><trkpt lat="39.7041867" lon="8.503428"><ele>11.333333333333334</ele><time>2026-05-01T14:45:36.674Z</time></trkpt><trkpt lat="39.7042692" lon="8.5032607"><ele>12.0</ele><time>2026-05-01T14:45:37.674Z</time></trkpt><trkpt lat="39.7043481" lon="8.5030897"><ele>12.333333333333332</ele><time>2026-05-01T14:45:38.674Z</time></trkpt><trkpt lat="39.7044311" lon="8.50292"><ele>12.666666666666666</ele><time>2026-05-01T14:45:39.674Z</time></trkpt><trkpt lat="39.7045148" lon="8.5027522"><ele>13.0</ele><time>2026-05-01T14:45:40.673Z</time></trkpt><trkpt lat="39.7045975" lon="8.5025869"><ele>13.0</ele><time>2026-05-01T14:45:41.673Z</time></trkpt><trkpt lat="39.7046912" lon="8.5024291"><ele>13.0</ele><time>2026-05-01T14:45:42.674Z</time></trkpt><trkpt lat="39.7047998" lon="8.5022794"><ele>13.0</ele><time>2026-05-01T14:45:43.675Z</time></trkpt><trkpt lat="39.7049221" lon="8.5021436"><ele>15.0</ele><time>2026-05-01T14:45:44.675Z</time></trkpt><trkpt lat="39.7050564" lon="8.5020294"><ele>17.0</ele><time>2026-05-01T14:45:45.675Z</time></trkpt><trkpt lat="39.7052113" lon="8.5019409"><ele>19.0</ele><time>2026-05-01T14:45:46.674Z</time></trkpt><trkpt lat="39.7053752" lon="8.5018839"><ele>19.0</ele><time>2026-05-01T14:45:47.674Z</time></trkpt><trkpt lat="39.7055398" lon="8.5018466"><ele>19.0</ele><time>2026-05-01T14:45:48.674Z</time></trkpt><trkpt lat="39.7057041" lon="8.5018018"><ele>19.0</ele><time>2026-05-01T14:45:49.674Z</time></trkpt><trkpt lat="39.7058668" lon="8.5017512"><ele>19.0</ele><time>2026-05-01T14:45:50.674Z</time></trkpt><trkpt lat="39.7060204" lon="8.5016958"><ele>19.0</ele><time>2026-05-01T14:45:51.673Z</time></trkpt><trkpt lat="39.7061656" lon="8.501625"><ele>19.0</ele><time>2026-05-01T14:45:52.674Z</time></trkpt><trkpt lat="39.7062995" lon="8.5015135"><ele>18.0</ele><time>2026-05-01T14:45:53.675Z</time></trkpt><trkpt lat="39.7064167" lon="8.5013725"><ele>17.0</ele><time>2026-05-01T14:45:54.674Z</time></trkpt><trkpt lat="39.7065186" lon="8.5012091"><ele>16.0</ele><time>2026-05-01T14:45:55.675Z</time></trkpt><trkpt lat="39.7066" lon="8.5010274"><ele>16.0</ele><time>2026-05-01T14:45:56.674Z</time></trkpt><trkpt lat="39.7066657" lon="8.5008379"><ele>16.0</ele><time>2026-05-01T14:45:57.675Z</time></trkpt><trkpt lat="39.7067266" lon="8.5006502"><ele>16.0</ele><time>2026-05-01T14:45:58.674Z</time></trkpt><trkpt lat="39.7068077" lon="8.5004705"><ele>14.333333333333332</ele><time>2026-05-01T14:45:59.673Z</time></trkpt><trkpt lat="39.7069066" lon="8.5003094"><ele>12.666666666666666</ele><time>2026-05-01T14:46:00.673Z</time></trkpt><trkpt lat="39.7070218" lon="8.5001658"><ele>11.0</ele><time>2026-05-01T14:46:01.674Z</time></trkpt><trkpt lat="39.7071476" lon="8.5000517"><ele>10.0</ele><time>2026-05-01T14:46:02.674Z</time></trkpt><trkpt lat="39.707292" lon="8.4999726"><ele>9.0</ele><time>2026-05-01T14:46:03.673Z</time></trkpt><trkpt lat="39.7074497" lon="8.4999099"><ele>8.0</ele><time>2026-05-01T14:46:04.675Z</time></trkpt><trkpt lat="39.7076181" lon="8.4998691"><ele>6.666666666666666</ele><time>2026-05-01T14:46:05.674Z</time></trkpt><trkpt lat="39.7077924" lon="8.4998434"><ele>5.333333333333333</ele><time>2026-05-01T14:46:06.673Z</time></trkpt><trkpt lat="39.7079597" lon="8.4998115"><ele>4.0</ele><time>2026-05-01T14:46:07.673Z</time></trkpt><trkpt lat="39.7081239" lon="8.4997688"><ele>4.0</ele><time>2026-05-01T14:46:08.674Z</time></trkpt><trkpt lat="39.7082871" lon="8.4997234"><ele>4.0</ele><time>2026-05-01T14:46:09.673Z</time></trkpt><trkpt lat="39.7084435" lon="8.499658"><ele>4.0</ele><time>2026-05-01T14:46:10.673Z</time></trkpt><trkpt lat="39.7085969" lon="8.4995775"><ele>5.0</ele><time>2026-05-01T14:46:11.674Z</time></trkpt><trkpt lat="39.7087438" lon="8.4994797"><ele>6.0</ele><time>2026-05-01T14:46:12.675Z</time></trkpt><trkpt lat="39.7088839" lon="8.4993679"><ele>7.0</ele><time>2026-05-01T14:46:13.675Z</time></trkpt><trkpt lat="39.709019" lon="8.4992559"><ele>7.0</ele><time>2026-05-01T14:46:14.674Z</time></trkpt><trkpt lat="39.709151" lon="8.4991421"><ele>7.0</ele><time>2026-05-01T14:46:15.674Z</time></trkpt><trkpt lat="39.7092865" lon="8.499031"><ele>7.0</ele><time>2026-05-01T14:46:16.675Z</time></trkpt><trkpt lat="39.7094229" lon="8.4989187"><ele>7.333333333333334</ele><time>2026-05-01T14:46:17.674Z</time></trkpt><trkpt lat="39.7095601" lon="8.4988114"><ele>7.666666666666666</ele><time>2026-05-01T14:46:18.673Z</time></trkpt><trkpt lat="39.7096901" lon="8.4987021"><ele>8.0</ele><time>2026-05-01T14:46:19.674Z</time></trkpt><trkpt lat="39.709826" lon="8.4985929"><ele>7.666666666666666</ele><time>2026-05-01T14:46:20.675Z</time></trkpt><trkpt lat="39.7099627" lon="8.4984803"><ele>7.333333333333334</ele><time>2026-05-01T14:46:21.675Z</time></trkpt><trkpt lat="39.7101028" lon="8.4983643"><ele>7.0</ele><time>2026-05-01T14:46:22.675Z</time></trkpt><trkpt lat="39.7102427" lon="8.4982433"><ele>7.0</ele><time>2026-05-01T14:46:23.674Z</time></trkpt><trkpt lat="39.7103788" lon="8.4981252"><ele>7.0</ele><time>2026-05-01T14:46:24.674Z</time></trkpt><trkpt lat="39.7105166" lon="8.4980149"><ele>7.0</ele><time>2026-05-01T14:46:25.675Z</time></trkpt><trkpt lat="39.7106536" lon="8.4979089"><ele>8.333333333333334</ele><time>2026-05-01T14:46:26.675Z</time></trkpt><trkpt lat="39.7107915" lon="8.4977977"><ele>9.666666666666666</ele><time>2026-05-01T14:46:27.674Z</time></trkpt><trkpt lat="39.7109303" lon="8.4976811"><ele>11.0</ele><time>2026-05-01T14:46:28.674Z</time></trkpt><trkpt lat="39.7110661" lon="8.4975634"><ele>9.333333333333332</ele><time>2026-05-01T14:46:29.673Z</time></trkpt><trkpt lat="39.7112027" lon="8.4974484"><ele>7.666666666666666</ele><time>2026-05-01T14:46:30.674Z</time></trkpt><trkpt lat="39.7113402" lon="8.4973379"><ele>6.0</ele><time>2026-05-01T14:46:31.674Z</time></trkpt><trkpt lat="39.711476" lon="8.4972289"><ele>6.0</ele><time>2026-05-01T14:46:32.674Z</time></trkpt><trkpt lat="39.711613" lon="8.4971165"><ele>6.0</ele><time>2026-05-01T14:46:33.675Z</time></trkpt><trkpt lat="39.7117503" lon="8.4970025"><ele>6.0</ele><time>2026-05-01T14:46:34.675Z</time></trkpt><trkpt lat="39.7118831" lon="8.4968913"><ele>5.333333333333333</ele><time>2026-05-01T14:46:35.674Z</time></trkpt><trkpt lat="39.7120137" lon="8.496779"><ele>4.666666666666666</ele><time>2026-05-01T14:46:36.674Z</time></trkpt><trkpt lat="39.7121447" lon="8.4966721"><ele>4.0</ele><time>2026-05-01T14:46:37.674Z</time></trkpt><trkpt lat="39.7122621" lon="8.496573"><ele>4.0</ele><time>2026-05-01T14:46:38.673Z</time></trkpt><trkpt lat="39.7123634" lon="8.4964753"><ele>4.0</ele><time>2026-05-01T14:46:39.673Z</time></trkpt><trkpt lat="39.7124533" lon="8.4963798"><ele>4.0</ele><time>2026-05-01T14:46:40.675Z</time></trkpt><trkpt lat="39.7125351" lon="8.4962929"><ele>4.0</ele><time>2026-05-01T14:46:41.673Z</time></trkpt><trkpt lat="39.7125999" lon="8.4962191"><ele>4.0</ele><time>2026-05-01T14:46:42.673Z</time></trkpt><trkpt lat="39.7126518" lon="8.4961644"><ele>3.8000000000000003</ele><time>2026-05-01T14:46:43.673Z</time></trkpt><trkpt lat="39.7127436" lon="8.4961359"><ele>3.6000000000000005</ele><time>2026-05-01T14:46:45.673Z</time></trkpt><trkpt lat="39.7128071" lon="8.4961699"><ele>3.4</ele><time>2026-05-01T14:46:46.674Z</time></trkpt><trkpt lat="39.7128786" lon="8.496228"><ele>3.2</ele><time>2026-05-01T14:46:47.673Z</time></trkpt><trkpt lat="39.7129894" lon="8.496262"><ele>3.0</ele><time>2026-05-01T14:46:48.673Z</time></trkpt><trkpt lat="39.7131139" lon="8.4962485"><ele>3.0</ele><time>2026-05-01T14:46:49.675Z</time></trkpt><trkpt lat="39.7132548" lon="8.4962483"><ele>3.0</ele><time>2026-05-01T14:46:50.674Z</time></trkpt><trkpt lat="39.7134083" lon="8.4962957"><ele>3.0</ele><time>2026-05-01T14:46:51.675Z</time></trkpt><trkpt lat="39.7135634" lon="8.4963788"><ele>2.25</ele><time>2026-05-01T14:46:52.673Z</time></trkpt><trkpt lat="39.7136991" lon="8.4964632"><ele>1.5</ele><time>2026-05-01T14:46:53.674Z</time></trkpt><trkpt lat="39.7137963" lon="8.4965666"><ele>0.75</ele><time>2026-05-01T14:46:54.673Z</time></trkpt><trkpt lat="39.7138619" lon="8.4966969"><ele>0.0</ele><time>2026-05-01T14:46:55.673Z</time></trkpt><trkpt lat="39.7138954" lon="8.4968457"><ele>0.0</ele><time>2026-05-01T14:46:56.674Z</time></trkpt><trkpt lat="39.7139056" lon="8.4970149"><ele>0.0</ele><time>2026-05-01T14:46:57.674Z</time></trkpt><trkpt lat="39.7138978" lon="8.4972032"><ele>0.0</ele><time>2026-05-01T14:46:58.674Z</time></trkpt><trkpt lat="39.7138798" lon="8.4974053"><ele>0.0</ele><time>2026-05-01T14:46:59.674Z</time></trkpt><trkpt lat="39.7138585" lon="8.4976178"><ele>0.3333333333333333</ele><time>2026-05-01T14:47:00.674Z</time></trkpt><trkpt lat="39.7138514" lon="8.4978417"><ele>0.6666666666666666</ele><time>2026-05-01T14:47:01.674Z</time></trkpt><trkpt lat="39.7138589" lon="8.4980755"><ele>1.0</ele><time>2026-05-01T14:47:02.674Z</time></trkpt><trkpt lat="39.7138628" lon="8.4983057"><ele>1.0</ele><time>2026-05-01T14:47:03.675Z</time></trkpt><trkpt lat="39.7138489" lon="8.4985182"><ele>1.0</ele><time>2026-05-01T14:47:04.674Z</time></trkpt><trkpt lat="39.7137409" lon="8.4989288"><ele>1.0</ele><time>2026-05-01T14:47:06.674Z</time></trkpt><trkpt lat="39.7136686" lon="8.4991207"><ele>1.0</ele><time>2026-05-01T14:47:07.673Z</time></trkpt><trkpt lat="39.7135936" lon="8.4993114"><ele>1.0</ele><time>2026-05-01T14:47:08.674Z</time></trkpt><trkpt lat="39.7135048" lon="8.4994965"><ele>2.0</ele><time>2026-05-01T14:47:09.673Z</time></trkpt><trkpt lat="39.7134015" lon="8.4996726"><ele>3.0</ele><time>2026-05-01T14:47:10.674Z</time></trkpt><trkpt lat="39.7132939" lon="8.4998436"><ele>4.0</ele><time>2026-05-01T14:47:11.675Z</time></trkpt><trkpt lat="39.7131864" lon="8.5000145"><ele>4.0</ele><time>2026-05-01T14:47:12.675Z</time></trkpt><trkpt lat="39.7130769" lon="8.5001909"><ele>4.0</ele><time>2026-05-01T14:47:13.673Z</time></trkpt><trkpt lat="39.7129739" lon="8.500366"><ele>4.0</ele><time>2026-05-01T14:47:14.674Z</time></trkpt><trkpt lat="39.7128749" lon="8.5005471"><ele>3.333333333333333</ele><time>2026-05-01T14:47:15.674Z</time></trkpt><trkpt lat="39.712787" lon="8.5007263"><ele>2.6666666666666665</ele><time>2026-05-01T14:47:16.674Z</time></trkpt><trkpt lat="39.7127039" lon="8.5009018"><ele>2.0</ele><time>2026-05-01T14:47:17.674Z</time></trkpt><trkpt lat="39.7126251" lon="8.5010744"><ele>2.25</ele><time>2026-05-01T14:47:18.674Z</time></trkpt><trkpt lat="39.7125646" lon="8.5012579"><ele>2.5</ele><time>2026-05-01T14:47:19.673Z</time></trkpt><trkpt lat="39.7125268" lon="8.5014529"><ele>2.75</ele><time>2026-05-01T14:47:20.673Z</time></trkpt><trkpt lat="39.7125044" lon="8.5016273"><ele>3.0</ele><time>2026-05-01T14:47:21.675Z</time></trkpt><trkpt lat="39.7124936" lon="8.5017653"><ele>3.0</ele><time>2026-05-01T14:47:22.675Z</time></trkpt><trkpt lat="39.7124942" lon="8.5018851"><ele>3.0</ele><time>2026-05-01T14:47:23.674Z</time></trkpt><trkpt lat="39.7125152" lon="8.5019685"><ele>3.0</ele><time>2026-05-01T14:47:24.674Z</time></trkpt><trkpt lat="39.7125978" lon="8.5020748"><ele>3.0</ele><time>2026-05-01T14:47:26.674Z</time></trkpt><trkpt lat="39.7126889" lon="8.5021454"><ele>3.0</ele><time>2026-05-01T14:47:28.675Z</time></trkpt><trkpt lat="39.712751" lon="8.5021833"><ele>2.6666666666666665</ele><time>2026-05-01T14:47:30.673Z</time></trkpt><trkpt lat="39.7128358" lon="8.5022138"><ele>2.3333333333333335</ele><time>2026-05-01T14:48:44.672Z</time></trkpt><trkpt lat="39.7128965" lon="8.5022406"><ele>2.0</ele><time>2026-05-01T14:48:45.672Z</time></trkpt><trkpt lat="39.7129624" lon="8.5022747"><ele>1.6666666666666665</ele><time>2026-05-01T14:48:46.673Z</time></trkpt><trkpt lat="39.7130272" lon="8.5023163"><ele>1.3333333333333333</ele><time>2026-05-01T14:48:47.673Z</time></trkpt><trkpt lat="39.7130987" lon="8.5023644"><ele>1.0</ele><time>2026-05-01T14:48:48.673Z</time></trkpt><trkpt lat="39.7131796" lon="8.5024169"><ele>1.0</ele><time>2026-05-01T14:48:49.672Z</time></trkpt><trkpt lat="39.7132626" lon="8.5024725"><ele>1.0</ele><time>2026-05-01T14:48:50.673Z</time></trkpt><trkpt lat="39.7133485" lon="8.5025306"><ele>1.0</ele><time>2026-05-01T14:48:51.672Z</time></trkpt><trkpt lat="39.7136002" lon="8.5026995"><ele>1.0</ele><time>2026-05-01T14:48:53.674Z</time></trkpt><trkpt lat="39.7137551" lon="8.5028002"><ele>1.0</ele><time>2026-05-01T14:48:54.673Z</time></trkpt><trkpt lat="39.713925" lon="8.5029101"><ele>1.0</ele><time>2026-05-01T14:48:55.673Z</time></trkpt><trkpt lat="39.714085" lon="8.503021"><ele>1.0</ele><time>2026-05-01T14:48:56.674Z</time></trkpt><trkpt lat="39.714242" lon="8.5031267"><ele>1.0</ele><time>2026-05-01T14:48:57.673Z</time></trkpt><trkpt lat="39.7143966" lon="8.503225"><ele>1.0</ele><time>2026-05-01T14:48:58.672Z</time></trkpt><trkpt lat="39.7145529" lon="8.5033266"><ele>0.6666666666666666</ele><time>2026-05-01T14:48:59.672Z</time></trkpt><trkpt lat="39.7147053" lon="8.5034266"><ele>0.3333333333333333</ele><time>2026-05-01T14:49:00.672Z</time></trkpt><trkpt lat="39.7148577" lon="8.50353"><ele>0.0</ele><time>2026-05-01T14:49:01.673Z</time></trkpt><trkpt lat="39.7150119" lon="8.5036325"><ele>0.0</ele><time>2026-05-01T14:49:02.673Z</time></trkpt><trkpt lat="39.7151635" lon="8.5037342"><ele>0.0</ele><time>2026-05-01T14:49:03.672Z</time></trkpt><trkpt lat="39.7153159" lon="8.5038339"><ele>0.0</ele><time>2026-05-01T14:49:04.672Z</time></trkpt><trkpt lat="39.7154668" lon="8.5039316"><ele>0.0</ele><time>2026-05-01T14:49:05.672Z</time></trkpt><trkpt lat="39.7156185" lon="8.504029"><ele>0.0</ele><time>2026-05-01T14:49:06.673Z</time></trkpt><trkpt lat="39.7157653" lon="8.5041277"><ele>0.0</ele><time>2026-05-01T14:49:07.674Z</time></trkpt><trkpt lat="39.7159106" lon="8.504225"><ele>0.0</ele><time>2026-05-01T14:49:08.674Z</time></trkpt><trkpt lat="39.7160532" lon="8.5043197"><ele>0.0</ele><time>2026-05-01T14:49:09.673Z</time></trkpt><trkpt lat="39.7161946" lon="8.5044127"><ele>0.0</ele><time>2026-05-01T14:49:10.673Z</time></trkpt><trkpt lat="39.7163376" lon="8.5045061"><ele>0.0</ele><time>2026-05-01T14:49:11.674Z</time></trkpt><trkpt lat="39.7164829" lon="8.5046038"><ele>0.0</ele><time>2026-05-01T14:49:12.673Z</time></trkpt><trkpt lat="39.7166296" lon="8.5046987"><ele>0.0</ele><time>2026-05-01T14:49:13.673Z</time></trkpt><trkpt lat="39.7167787" lon="8.5047972"><ele>0.0</ele><time>2026-05-01T14:49:14.674Z</time></trkpt><trkpt lat="39.7169301" lon="8.5048945"><ele>0.0</ele><time>2026-05-01T14:49:15.672Z</time></trkpt><trkpt lat="39.7170798" lon="8.5049902"><ele>0.0</ele><time>2026-05-01T14:49:16.674Z</time></trkpt><trkpt lat="39.7172282" lon="8.5050877"><ele>0.0</ele><time>2026-05-01T14:49:17.672Z</time></trkpt><trkpt lat="39.7173743" lon="8.5051867"><ele>0.0</ele><time>2026-05-01T14:49:18.673Z</time></trkpt><trkpt lat="39.7175147" lon="8.5052766"><ele>0.0</ele><time>2026-05-01T14:49:19.674Z</time></trkpt><trkpt lat="39.7176477" lon="8.5053657"><ele>0.0</ele><time>2026-05-01T14:49:20.674Z</time></trkpt><trkpt lat="39.7177836" lon="8.5054543"><ele>0.0</ele><time>2026-05-01T14:49:21.673Z</time></trkpt><trkpt lat="39.717917" lon="8.5055429"><ele>0.0</ele><time>2026-05-01T14:49:22.673Z</time></trkpt><trkpt lat="39.7180472" lon="8.5056288"><ele>0.0</ele><time>2026-05-01T14:49:23.674Z</time></trkpt><trkpt lat="39.7181796" lon="8.5057137"><ele>0.0</ele><time>2026-05-01T14:49:24.673Z</time></trkpt><trkpt lat="39.7183136" lon="8.5057997"><ele>0.0</ele><time>2026-05-01T14:49:25.673Z</time></trkpt><trkpt lat="39.7184468" lon="8.5058898"><ele>0.0</ele><time>2026-05-01T14:49:26.672Z</time></trkpt><trkpt lat="39.7185812" lon="8.5059792"><ele>0.0</ele><time>2026-05-01T14:49:27.673Z</time></trkpt><trkpt lat="39.7188485" lon="8.5061559"><ele>0.0</ele><time>2026-05-01T14:49:29.674Z</time></trkpt><trkpt lat="39.7189798" lon="8.5062396"><ele>0.0</ele><time>2026-05-01T14:49:30.674Z</time></trkpt><trkpt lat="39.7191091" lon="8.5063245"><ele>0.0</ele><time>2026-05-01T14:49:31.674Z</time></trkpt><trkpt lat="39.71924" lon="8.5064127"><ele>0.0</ele><time>2026-05-01T14:49:32.672Z</time></trkpt><trkpt lat="39.719367" lon="8.5064928"><ele>0.0</ele><time>2026-05-01T14:49:33.673Z</time></trkpt><trkpt lat="39.7194843" lon="8.5065692"><ele>0.0</ele><time>2026-05-01T14:49:34.673Z</time></trkpt><trkpt lat="39.7196036" lon="8.5066472"><ele>0.25</ele><time>2026-05-01T14:49:35.672Z</time></trkpt><trkpt lat="39.7197061" lon="8.5067121"><ele>0.5</ele><time>2026-05-01T14:49:36.673Z</time></trkpt><trkpt lat="39.7198679" lon="8.5068277"><ele>0.75</ele><time>2026-05-01T14:49:38.673Z</time></trkpt><trkpt lat="39.7199053" lon="8.5068977"><ele>1.0</ele><time>2026-05-01T14:49:39.673Z</time></trkpt><trkpt lat="39.7199435" lon="8.5069979"><ele>1.4</ele><time>2026-05-01T14:49:40.674Z</time></trkpt><trkpt lat="39.7199755" lon="8.5071069"><ele>1.8</ele><time>2026-05-01T14:49:41.673Z</time></trkpt><trkpt lat="39.7200208" lon="8.5072029"><ele>2.1999999999999997</ele><time>2026-05-01T14:49:42.672Z</time></trkpt><trkpt lat="39.7200914" lon="8.5073021"><ele>2.6</ele><time>2026-05-01T14:49:43.673Z</time></trkpt><trkpt lat="39.7201801" lon="8.5074198"><ele>3.0</ele><time>2026-05-01T14:49:44.673Z</time></trkpt><trkpt lat="39.7202667" lon="8.5075622"><ele>3.0</ele><time>2026-05-01T14:49:45.673Z</time></trkpt><trkpt lat="39.7204333" lon="8.5078968"><ele>3.0</ele><time>2026-05-01T14:49:47.673Z</time></trkpt><trkpt lat="39.7205214" lon="8.5080655"><ele>3.0</ele><time>2026-05-01T14:49:48.673Z</time></trkpt><trkpt lat="39.7205991" lon="8.5082301"><ele>3.0</ele><time>2026-05-01T14:49:49.672Z</time></trkpt><trkpt lat="39.7206709" lon="8.5084054"><ele>3.0</ele><time>2026-05-01T14:49:50.672Z</time></trkpt><trkpt lat="39.7207421" lon="8.5085937"><ele>3.0</ele><time>2026-05-01T14:49:51.674Z</time></trkpt><trkpt lat="39.7208041" lon="8.5087639"><ele>3.0</ele><time>2026-05-01T14:49:52.674Z</time></trkpt><trkpt lat="39.7208501" lon="8.5089037"><ele>3.0</ele><time>2026-05-01T14:49:53.673Z</time></trkpt><trkpt lat="39.7208808" lon="8.5090273"><ele>3.0</ele><time>2026-05-01T14:49:54.673Z</time></trkpt><trkpt lat="39.7208961" lon="8.5091284"><ele>3.0</ele><time>2026-05-01T14:49:55.674Z</time></trkpt><trkpt lat="39.7208695" lon="8.5092471"><ele>3.0</ele><time>2026-05-01T14:49:57.673Z</time></trkpt><trkpt lat="39.7209388" lon="8.509181"><ele>3.0</ele><time>2026-05-01T14:50:03.673Z</time></trkpt><trkpt lat="39.7209226" lon="8.5090863"><ele>3.0</ele><time>2026-05-01T14:50:04.672Z</time></trkpt><trkpt lat="39.7208933" lon="8.5089911"><ele>3.0</ele><time>2026-05-01T14:50:05.673Z</time></trkpt><trkpt lat="39.7208643" lon="8.5088849"><ele>3.0</ele><time>2026-05-01T14:50:06.672Z</time></trkpt><trkpt lat="39.7208355" lon="8.5087905"><ele>3.0</ele><time>2026-05-01T14:50:07.673Z</time></trkpt><trkpt lat="39.7208118" lon="8.5087097"><ele>2.9999999999999996</ele><time>2026-05-01T14:50:08.672Z</time></trkpt><trkpt lat="39.7207842" lon="8.5086157"><ele>3.0</ele><time>2026-05-01T14:50:10.673Z</time></trkpt><trkpt lat="39.7207607" lon="8.5085394"><ele>3.0</ele><time>2026-05-01T14:50:17.674Z</time></trkpt><trkpt lat="39.7207172" lon="8.5084631"><ele>3.0</ele><time>2026-05-01T14:50:19.673Z</time></trkpt><trkpt lat="39.7206642" lon="8.5083725"><ele>3.0</ele><time>2026-05-01T14:50:21.673Z</time></trkpt><trkpt lat="39.720609" lon="8.5083331"><ele>2.9999999999999996</ele><time>2026-05-01T14:50:23.672Z</time></trkpt><trkpt lat="39.7206596" lon="8.5083855"><ele>3.0</ele><time>2026-05-01T14:51:29.673Z</time></trkpt><trkpt lat="39.7207142" lon="8.508428"><ele>3.0</ele><time>2026-05-01T14:51:35.674Z</time></trkpt><trkpt lat="39.7206357" lon="8.5083881"><ele>3.0</ele><time>2026-05-01T15:15:06.933Z</time></trkpt><trkpt lat="39.7207348" lon="8.5084496"><ele>3.0</ele><time>2026-05-01T15:16:32.346Z</time></trkpt><trkpt lat="39.7207495" lon="8.5085766"><ele>3.0</ele><time>2026-05-01T15:16:38.105Z</time></trkpt><trkpt lat="39.7207744" lon="8.5086758"><ele>3.0</ele><time>2026-05-01T15:16:41.611Z</time></trkpt><trkpt lat="39.7208131" lon="8.5087507"><ele>3.0</ele><time>2026-05-01T15:16:44.03Z</time></trkpt><trkpt lat="39.7208534" lon="8.5088368"><ele>3.0</ele><time>2026-05-01T15:16:46.97Z</time></trkpt><trkpt lat="39.7208815" lon="8.5089247"><ele>3.0</ele><time>2026-05-01T15:16:49.868Z</time></trkpt><trkpt lat="39.7209061" lon="8.5090045"><ele>3.0</ele><time>2026-05-01T15:16:54.684Z</time></trkpt><trkpt lat="39.7209354" lon="8.5090966"><ele>3.0</ele><time>2026-05-01T15:16:58.509Z</time></trkpt><trkpt lat="39.7222124" lon="8.5237062"><ele>4.0</ele><time>2026-05-01T15:17:47.7Z</time></trkpt><trkpt lat="39.7219604" lon="8.5332555"><ele>4.0</ele><time>2026-05-01T15:18:32.01Z</time></trkpt><trkpt lat="39.7296835" lon="8.5426271"><ele>6.0</ele><time>2026-05-01T15:19:50.107Z</time></trkpt><trkpt lat="39.7295418" lon="8.5440819"><ele>6.0</ele><time>2026-05-01T15:19:56.471Z</time></trkpt><trkpt lat="39.7292125" lon="8.5463673"><ele>5.0</ele><time>2026-05-01T15:20:08.24Z</time></trkpt><trkpt lat="39.7296254" lon="8.5502032"><ele>6.0</ele><time>2026-05-01T15:20:25.226Z</time></trkpt><trkpt lat="39.7294727" lon="8.5515415"><ele>6.0</ele><time>2026-05-01T15:20:30.632Z</time></trkpt><trkpt lat="39.7295628" lon="8.5520326"><ele>6.0</ele><time>2026-05-01T15:20:36.084Z</time></trkpt><trkpt lat="39.7498793" lon="8.5519754"><ele>5.0</ele><time>2026-05-01T15:22:37.05Z</time></trkpt><trkpt lat="39.7569652" lon="8.5526439"><ele>6.0</ele><time>2026-05-01T15:23:32.227Z</time></trkpt><trkpt lat="39.7647409" lon="8.5547127"><ele>4.0</ele><time>2026-05-01T15:24:23.825Z</time></trkpt><trkpt lat="39.7711715" lon="8.5531512"><ele>2.0</ele><time>2026-05-01T15:25:02Z</time></trkpt><trkpt lat="39.7727427" lon="8.5527078"><ele>2.0</ele><time>2026-05-01T15:25:07.456Z</time></trkpt><trkpt lat="39.7790495" lon="8.5546712"><ele>7.0</ele><time>2026-05-01T15:25:51.108Z</time></trkpt><trkpt lat="39.7944734" lon="8.5522145"><ele>7.0</ele><time>2026-05-01T15:27:41.784Z</time></trkpt><trkpt lat="39.794393" lon="8.5520874"><ele>7.0</ele><time>2026-05-01T15:27:54.066Z</time></trkpt><trkpt lat="39.7939785" lon="8.5507595"><ele>7.5</ele><time>2026-05-01T15:28:00.104Z</time></trkpt><trkpt lat="39.7942065" lon="8.5507256"><ele>8.0</ele><time>2026-05-01T15:28:06.264Z</time></trkpt><trkpt lat="39.7941718" lon="8.5503344"><ele>8.0</ele><time>2026-05-01T15:28:12.056Z</time></trkpt><trkpt lat="39.7942174" lon="8.5498999"><ele>8.0</ele><time>2026-05-01T15:28:17.709Z</time></trkpt><trkpt lat="39.7941935" lon="8.5498028"><ele>8.0</ele><time>2026-05-01T15:28:23.378Z</time></trkpt><trkpt lat="39.7944234" lon="8.5487957"><ele>9.0</ele><time>2026-05-01T15:29:02.665Z</time></trkpt><trkpt lat="39.7944265" lon="8.5486729"><ele>10.0</ele><time>2026-05-01T15:29:04.665Z</time></trkpt><trkpt lat="39.7943785" lon="8.5474128"><ele>7.0</ele><time>2026-05-01T15:32:59.664Z</time></trkpt><trkpt lat="39.7949529" lon="8.5509865"><ele>10.0</ele><time>2026-05-01T15:34:01.368Z</time></trkpt><trkpt lat="39.7945116" lon="8.5472089"><ele>6.0</ele><time>2026-05-01T15:43:20.822Z</time></trkpt><trkpt lat="39.7940109" lon="8.5468713"><ele>5.999999999999999</ele><time>2026-05-01T15:44:43.661Z</time></trkpt><trkpt lat="39.7939408" lon="8.5468531"><ele>6.0</ele><time>2026-05-01T15:44:50.663Z</time></trkpt><trkpt lat="39.7938774" lon="8.5468118"><ele>6.0</ele><time>2026-05-01T15:44:57.663Z</time></trkpt><trkpt lat="39.7938158" lon="8.5467719"><ele>6.0</ele><time>2026-05-01T15:45:03.662Z</time></trkpt><trkpt lat="39.7938128" lon="8.5466881"><ele>6.0</ele><time>2026-05-01T15:45:09.661Z</time></trkpt><trkpt lat="39.7938393" lon="8.5466061"><ele>5.999999999999999</ele><time>2026-05-01T15:45:16.662Z</time></trkpt><trkpt lat="39.7938576" lon="8.5465202"><ele>6.0</ele><time>2026-05-01T15:45:23.663Z</time></trkpt><trkpt lat="39.7938858" lon="8.546437"><ele>5.999999999999999</ele><time>2026-05-01T15:45:33.661Z</time></trkpt><trkpt lat="39.7939052" lon="8.5463481"><ele>6.0</ele><time>2026-05-01T15:45:45.662Z</time></trkpt><trkpt lat="39.7939256" lon="8.5462633"><ele>6.0</ele><time>2026-05-01T15:45:52.66Z</time></trkpt><trkpt lat="39.7939583" lon="8.546179"><ele>6.0</ele><time>2026-05-01T15:45:59.66Z</time></trkpt><trkpt lat="39.7939649" lon="8.5460903"><ele>6.0</ele><time>2026-05-01T15:46:05.661Z</time></trkpt><trkpt lat="39.7939719" lon="8.5460051"><ele>5.999999999999999</ele><time>2026-05-01T15:46:15.66Z</time></trkpt><trkpt lat="39.7940043" lon="8.5459277"><ele>6.0</ele><time>2026-05-01T15:46:22.66Z</time></trkpt><trkpt lat="39.7940494" lon="8.5458683"><ele>5.7142857142857135</ele><time>2026-05-01T15:46:28.66Z</time></trkpt><trkpt lat="39.7940861" lon="8.5457925"><ele>5.428571428571429</ele><time>2026-05-01T15:46:33.66Z</time></trkpt><trkpt lat="39.7941351" lon="8.5457337"><ele>5.142857142857142</ele><time>2026-05-01T15:46:40.661Z</time></trkpt><trkpt lat="39.7941711" lon="8.5456578"><ele>4.857142857142857</ele><time>2026-05-01T15:46:48.661Z</time></trkpt><trkpt lat="39.7941679" lon="8.5455656"><ele>4.571428571428571</ele><time>2026-05-01T15:46:55.662Z</time></trkpt><trkpt lat="39.794161" lon="8.5454736"><ele>4.285714285714286</ele><time>2026-05-01T15:47:03.661Z</time></trkpt><trkpt lat="39.7941685" lon="8.5453892"><ele>4.0</ele><time>2026-05-01T15:47:09.66Z</time></trkpt><trkpt lat="39.7942022" lon="8.5453152"><ele>6.0</ele><time>2026-05-01T15:47:19.66Z</time></trkpt><trkpt lat="39.7939458" lon="8.5462471"><ele>6.0</ele><time>2026-05-01T15:57:14.884Z</time></trkpt><trkpt lat="39.7939079" lon="8.5463252"><ele>6.0</ele><time>2026-05-01T15:57:19.658Z</time></trkpt><trkpt lat="39.793891" lon="8.5464096"><ele>6.0</ele><time>2026-05-01T15:57:26.658Z</time></trkpt><trkpt lat="39.7943894" lon="8.5474816"><ele>8.0</ele><time>2026-05-01T16:00:18.66Z</time></trkpt><trkpt lat="39.7944205" lon="8.5472835"><ele>10.0</ele><time>2026-05-01T16:08:05.659Z</time></trkpt><trkpt lat="39.7945387" lon="8.5482569"><ele>10.0</ele><time>2026-05-01T16:13:31.425Z</time></trkpt><trkpt lat="39.7944872" lon="8.5484101"><ele>10.0</ele><time>2026-05-01T16:13:33.658Z</time></trkpt><trkpt lat="39.7944629" lon="8.5485254"><ele>10.0</ele><time>2026-05-01T16:15:05.657Z</time></trkpt><trkpt lat="39.794412" lon="8.5485816"><ele>10.0</ele><time>2026-05-01T16:18:27.657Z</time></trkpt><trkpt lat="39.7943931" lon="8.5486652"><ele>10.0</ele><time>2026-05-01T16:18:33.657Z</time></trkpt><trkpt lat="39.7943879" lon="8.5487483"><ele>10.0</ele><time>2026-05-01T16:18:40.656Z</time></trkpt><trkpt lat="39.7943875" lon="8.5488347"><ele>8.0</ele><time>2026-05-01T16:18:47.657Z</time></trkpt><trkpt lat="39.7941917" lon="8.5498366"><ele>7.999999999999999</ele><time>2026-05-01T16:20:43.405Z</time></trkpt><trkpt lat="39.7942162" lon="8.549913"><ele>8.0</ele><time>2026-05-01T16:20:56.089Z</time></trkpt><trkpt lat="39.7942105" lon="8.5500057"><ele>8.0</ele><time>2026-05-01T16:21:08.339Z</time></trkpt><trkpt lat="39.7941838" lon="8.5500814"><ele>8.0</ele><time>2026-05-01T16:21:13.082Z</time></trkpt><trkpt lat="39.7941491" lon="8.5501618"><ele>7.999999999999999</ele><time>2026-05-01T16:21:22.002Z</time></trkpt><trkpt lat="39.7940298" lon="8.5501522"><ele>8.0</ele><time>2026-05-01T16:22:23.654Z</time></trkpt><trkpt lat="39.7939356" lon="8.5501014"><ele>8.0</ele><time>2026-05-01T16:22:27.654Z</time></trkpt><trkpt lat="39.7939888" lon="8.5501557"><ele>7.999999999999999</ele><time>2026-05-01T16:22:32.655Z</time></trkpt><trkpt lat="39.7940116" lon="8.5502378"><ele>8.0</ele><time>2026-05-01T16:22:39.655Z</time></trkpt><trkpt lat="39.7939437" lon="8.5502633"><ele>8.0</ele><time>2026-05-01T16:22:47.656Z</time></trkpt><trkpt lat="39.7938881" lon="8.5503163"><ele>7.999999999999999</ele><time>2026-05-01T16:22:54.655Z</time></trkpt><trkpt lat="39.7938143" lon="8.5503462"><ele>8.0</ele><time>2026-05-01T16:23:02.655Z</time></trkpt><trkpt lat="39.7937557" lon="8.5503128"><ele>8.0</ele><time>2026-05-01T16:23:07.656Z</time></trkpt><trkpt lat="39.7937024" lon="8.5502658"><ele>8.0</ele><time>2026-05-01T16:23:13.655Z</time></trkpt><trkpt lat="39.7936387" lon="8.5502832"><ele>7.999999999999999</ele><time>2026-05-01T16:23:19.655Z</time></trkpt><trkpt lat="39.7935803" lon="8.5503167"><ele>8.0</ele><time>2026-05-01T16:23:23.572Z</time></trkpt><trkpt lat="39.7935607" lon="8.5503976"><ele>8.0</ele><time>2026-05-01T16:23:28.654Z</time></trkpt><trkpt lat="39.793568" lon="8.5505123"><ele>7.999999999999999</ele><time>2026-05-01T16:23:36.425Z</time></trkpt><trkpt lat="39.7935608" lon="8.5505983"><ele>8.0</ele><time>2026-05-01T16:23:44.654Z</time></trkpt><trkpt lat="39.7935118" lon="8.5506506"><ele>8.0</ele><time>2026-05-01T16:23:50.655Z</time></trkpt><trkpt lat="39.7935124" lon="8.5507389"><ele>7.0</ele><time>2026-05-01T16:23:57.65Z</time></trkpt><trkpt lat="39.793545" lon="8.5508309"><ele>6.0</ele><time>2026-05-01T16:24:00.247Z</time></trkpt><trkpt lat="39.7936704" lon="8.5509528"><ele>5.0</ele><time>2026-05-01T16:24:08.809Z</time></trkpt><trkpt lat="39.7937537" lon="8.5510256"><ele>4.0</ele><time>2026-05-01T16:24:14.455Z</time></trkpt><trkpt lat="39.7936331" lon="8.5511343"><ele>4.0</ele><time>2026-05-01T16:24:20.1Z</time></trkpt><trkpt lat="39.7934977" lon="8.5511353"><ele>4.0</ele><time>2026-05-01T16:24:24.068Z</time></trkpt><trkpt lat="39.7934321" lon="8.5509147"><ele>4.0</ele><time>2026-05-01T16:24:27.247Z</time></trkpt><trkpt lat="39.7934291" lon="8.5508117"><ele>4.0</ele><time>2026-05-01T16:24:30.425Z</time></trkpt><trkpt lat="39.7932428" lon="8.5511781"><ele>4.0</ele><time>2026-05-01T16:38:34.634Z</time></trkpt><trkpt lat="39.7933448" lon="8.5511685"><ele>4.0</ele><time>2026-05-01T16:58:48.816Z</time></trkpt><trkpt lat="39.793461" lon="8.5509444"><ele>4.0</ele><time>2026-05-01T16:58:52.967Z</time></trkpt><trkpt lat="39.7935377" lon="8.5508392"><ele>4.0</ele><time>2026-05-01T16:59:05.228Z</time></trkpt><trkpt lat="39.793348" lon="8.5508134"><ele>4.0</ele><time>2026-05-01T17:04:22.096Z</time></trkpt><trkpt lat="39.7932465" lon="8.5512512"><ele>4.0</ele><time>2026-05-01T17:18:59.548Z</time></trkpt><trkpt lat="39.7933736" lon="8.5508014"><ele>4.0</ele><time>2026-05-01T17:21:06.235Z</time></trkpt><trkpt lat="39.7932715" lon="8.5508086"><ele>3.9999999999999996</ele><time>2026-05-01T17:24:59.632Z</time></trkpt><trkpt lat="39.793328" lon="8.5508547"><ele>4.0</ele><time>2026-05-01T17:25:47.649Z</time></trkpt><trkpt lat="39.7933861" lon="8.5508149"><ele>4.0</ele><time>2026-05-01T17:25:54.649Z</time></trkpt><trkpt lat="39.7934523" lon="8.5508022"><ele>3.9999999999999996</ele><time>2026-05-01T17:26:02.65Z</time></trkpt><trkpt lat="39.7934943" lon="8.5508702"><ele>4.0</ele><time>2026-05-01T17:26:09.649Z</time></trkpt><trkpt lat="39.7935158" lon="8.5509503"><ele>4.0</ele><time>2026-05-01T17:26:19.649Z</time></trkpt><trkpt lat="39.7935661" lon="8.5510101"><ele>4.0</ele><time>2026-05-01T17:26:28.589Z</time></trkpt><trkpt lat="39.7935854" lon="8.5510932"><ele>3.9999999999999996</ele><time>2026-05-01T17:26:45.649Z</time></trkpt><trkpt lat="39.7936449" lon="8.5511223"><ele>4.0</ele><time>2026-05-01T17:26:56.65Z</time></trkpt><trkpt lat="39.7936826" lon="8.5510491"><ele>4.0</ele><time>2026-05-01T17:27:02.649Z</time></trkpt><trkpt lat="39.7937125" lon="8.5509724"><ele>3.9999999999999996</ele><time>2026-05-01T17:27:08.649Z</time></trkpt><trkpt lat="39.7937336" lon="8.5508926"><ele>4.0</ele><time>2026-05-01T17:27:15.65Z</time></trkpt><trkpt lat="39.7937678" lon="8.5508162"><ele>4.0</ele><time>2026-05-01T17:27:29.648Z</time></trkpt><trkpt lat="39.7937909" lon="8.5507394"><ele>4.0</ele><time>2026-05-01T17:27:36.649Z</time></trkpt><trkpt lat="39.7937933" lon="8.5506319"><ele>3.9999999999999996</ele><time>2026-05-01T17:27:43.65Z</time></trkpt><trkpt lat="39.7937986" lon="8.5505424"><ele>4.0</ele><time>2026-05-01T17:28:01.649Z</time></trkpt><trkpt lat="39.7938688" lon="8.550489"><ele>4.0</ele><time>2026-05-01T17:28:27.649Z</time></trkpt><trkpt lat="39.7939351" lon="8.5504714"><ele>3.9999999999999996</ele><time>2026-05-01T17:28:33.649Z</time></trkpt><trkpt lat="39.7939935" lon="8.5504369"><ele>4.0</ele><time>2026-05-01T17:28:38.648Z</time></trkpt><trkpt lat="39.7940685" lon="8.5503861"><ele>4.0</ele><time>2026-05-01T17:28:44.65Z</time></trkpt><trkpt lat="39.794135" lon="8.550375"><ele>4.0</ele><time>2026-05-01T17:28:53.65Z</time></trkpt><trkpt lat="39.7941314" lon="8.5504604"><ele>4.0</ele><time>2026-05-01T17:29:22.649Z</time></trkpt><trkpt lat="39.7941746" lon="8.5503974"><ele>4.0</ele><time>2026-05-01T17:31:26.647Z</time></trkpt><trkpt lat="39.7941993" lon="8.5503085"><ele>4.0</ele><time>2026-05-01T17:32:19.647Z</time></trkpt><trkpt lat="39.7941474" lon="8.5502511"><ele>4.0</ele><time>2026-05-01T17:32:25.647Z</time></trkpt><trkpt lat="39.7949529" lon="8.5509865"><ele>4.0</ele><time>2026-05-01T17:38:51.521Z</time></trkpt><trkpt lat="39.7940507" lon="8.5505112"><ele>3.9999999999999996</ele><time>2026-05-01T17:39:12.775Z</time></trkpt><trkpt lat="39.7939859" lon="8.550559"><ele>4.0</ele><time>2026-05-01T17:39:18.288Z</time></trkpt><trkpt lat="39.7940403" lon="8.5505128"><ele>4.0</ele><time>2026-05-01T17:39:31.647Z</time></trkpt><trkpt lat="39.7941427" lon="8.5504857"><ele>4.0</ele><time>2026-05-01T17:39:36.647Z</time></trkpt><trkpt lat="39.7941739" lon="8.5504126"><ele>3.9999999999999996</ele><time>2026-05-01T17:39:44.647Z</time></trkpt><trkpt lat="39.7941155" lon="8.5504553"><ele>4.0</ele><time>2026-05-01T17:56:25.642Z</time></trkpt><trkpt lat="39.7940023" lon="8.5498705"><ele>8.0</ele><time>2026-05-01T18:04:26.844Z</time></trkpt><trkpt lat="39.7939954" lon="8.5500784"><ele>8.0</ele><time>2026-05-01T18:04:54.78Z</time></trkpt><trkpt lat="39.7939627" lon="8.5500027"><ele>8.0</ele><time>2026-05-01T18:05:03.641Z</time></trkpt></trkseg></trk></gpx>